<?xml version="1.0" encoding="UTF-8" standalone="no" ?>
<gpx xmlns="http://www.topografix.com/GPX/1/1" xmlns:xsi="http://www.w3.org/2001/XMLSchema-instance" xsi:schemaLocation="http://www.topografix.com/GPX/1/1 http://www.topografix.com/GPX/1/1/gpx.xsd" version="1.1" creator="VisuGPX - https://www.visugpx.com">
  <metadata>
    <name>AR Dommartin LEGNY</name>
  </metadata>
  <trk>
    <name><![CDATA[2023 12 07 AR Dommartin LEGNY]]></name>
    <trkseg>
      <trkpt lat="45.83334" lon="4.70878">
        <ele>314.2713</ele>
        <time>2023-12-07T12:26:05.937Z</time>
      </trkpt>
      <trkpt lat="45.83332" lon="4.7088">
        <ele>316.09262</ele>
        <time>2023-12-07T12:26:13.000Z</time>
      </trkpt>
      <trkpt lat="45.8333" lon="4.70878">
        <ele>317.71237</ele>
        <time>2023-12-07T12:26:26.000Z</time>
      </trkpt>
      <trkpt lat="45.8333" lon="4.70874">
        <ele>318.55334</ele>
        <time>2023-12-07T12:26:27.000Z</time>
      </trkpt>
      <trkpt lat="45.8333" lon="4.70869">
        <ele>319.07047</ele>
        <time>2023-12-07T12:26:28.000Z</time>
      </trkpt>
      <trkpt lat="45.83331" lon="4.70864">
        <ele>319.2991</ele>
        <time>2023-12-07T12:26:29.000Z</time>
      </trkpt>
      <trkpt lat="45.83331" lon="4.70859">
        <ele>319.20773</ele>
        <time>2023-12-07T12:26:30.000Z</time>
      </trkpt>
      <trkpt lat="45.83332" lon="4.70854">
        <ele>319.05844</ele>
        <time>2023-12-07T12:26:31.000Z</time>
      </trkpt>
      <trkpt lat="45.83333" lon="4.70849">
        <ele>318.90955</ele>
        <time>2023-12-07T12:26:32.000Z</time>
      </trkpt>
      <trkpt lat="45.83333" lon="4.70843">
        <ele>318.75104</ele>
        <time>2023-12-07T12:26:33.000Z</time>
      </trkpt>
      <trkpt lat="45.83334" lon="4.70836">
        <ele>318.60898</ele>
        <time>2023-12-07T12:26:34.000Z</time>
      </trkpt>
      <trkpt lat="45.83335" lon="4.7083">
        <ele>318.41849</ele>
        <time>2023-12-07T12:26:35.000Z</time>
      </trkpt>
      <trkpt lat="45.83336" lon="4.70823">
        <ele>318.25995</ele>
        <time>2023-12-07T12:26:36.000Z</time>
      </trkpt>
      <trkpt lat="45.83337" lon="4.70815">
        <ele>318.07639</ele>
        <time>2023-12-07T12:26:37.000Z</time>
      </trkpt>
      <trkpt lat="45.83338" lon="4.70808">
        <ele>317.89578</ele>
        <time>2023-12-07T12:26:38.000Z</time>
      </trkpt>
      <trkpt lat="45.83338" lon="4.70802">
        <ele>317.78918</ele>
        <time>2023-12-07T12:26:39.000Z</time>
      </trkpt>
      <trkpt lat="45.83339" lon="4.70795">
        <ele>317.6398</ele>
        <time>2023-12-07T12:26:40.000Z</time>
      </trkpt>
      <trkpt lat="45.83338" lon="4.70789">
        <ele>317.58328</ele>
        <time>2023-12-07T12:26:41.000Z</time>
      </trkpt>
      <trkpt lat="45.83338" lon="4.70782">
        <ele>317.53818</ele>
        <time>2023-12-07T12:26:42.000Z</time>
      </trkpt>
      <trkpt lat="45.83339" lon="4.70776">
        <ele>317.48111</ele>
        <time>2023-12-07T12:26:43.000Z</time>
      </trkpt>
      <trkpt lat="45.83338" lon="4.70768">
        <ele>317.60422</ele>
        <time>2023-12-07T12:26:44.000Z</time>
      </trkpt>
      <trkpt lat="45.83339" lon="4.70761">
        <ele>317.51114</ele>
        <time>2023-12-07T12:26:45.000Z</time>
      </trkpt>
      <trkpt lat="45.83341" lon="4.70754">
        <ele>317.23746</ele>
        <time>2023-12-07T12:26:46.000Z</time>
      </trkpt>
      <trkpt lat="45.8334" lon="4.7075">
        <ele>316.99493</ele>
        <time>2023-12-07T12:26:47.000Z</time>
      </trkpt>
      <trkpt lat="45.83342" lon="4.7074">
        <ele>316.70197</ele>
        <time>2023-12-07T12:26:48.000Z</time>
      </trkpt>
      <trkpt lat="45.83342" lon="4.70732">
        <ele>316.42343</ele>
        <time>2023-12-07T12:26:49.000Z</time>
      </trkpt>
      <trkpt lat="45.83343" lon="4.70725">
        <ele>316.2348</ele>
        <time>2023-12-07T12:26:50.000Z</time>
      </trkpt>
      <trkpt lat="45.83343" lon="4.70718">
        <ele>316.05441</ele>
        <time>2023-12-07T12:26:51.000Z</time>
      </trkpt>
      <trkpt lat="45.83345" lon="4.7071">
        <ele>315.85898</ele>
        <time>2023-12-07T12:26:52.000Z</time>
      </trkpt>
      <trkpt lat="45.83346" lon="4.70704">
        <ele>315.66983</ele>
        <time>2023-12-07T12:26:53.000Z</time>
      </trkpt>
      <trkpt lat="45.83347" lon="4.70697">
        <ele>315.48489</ele>
        <time>2023-12-07T12:26:54.000Z</time>
      </trkpt>
      <trkpt lat="45.83347" lon="4.7069">
        <ele>315.33105</ele>
        <time>2023-12-07T12:26:55.000Z</time>
      </trkpt>
      <trkpt lat="45.83347" lon="4.70682">
        <ele>315.18707</ele>
        <time>2023-12-07T12:26:56.000Z</time>
      </trkpt>
      <trkpt lat="45.83348" lon="4.70674">
        <ele>315.06866</ele>
        <time>2023-12-07T12:26:57.000Z</time>
      </trkpt>
      <trkpt lat="45.83348" lon="4.70666">
        <ele>314.94052</ele>
        <time>2023-12-07T12:26:58.000Z</time>
      </trkpt>
      <trkpt lat="45.83349" lon="4.70659">
        <ele>314.74152</ele>
        <time>2023-12-07T12:26:59.000Z</time>
      </trkpt>
      <trkpt lat="45.83349" lon="4.7065">
        <ele>314.57086</ele>
        <time>2023-12-07T12:27:00.000Z</time>
      </trkpt>
      <trkpt lat="45.8335" lon="4.70642">
        <ele>314.29904</ele>
        <time>2023-12-07T12:27:01.000Z</time>
      </trkpt>
      <trkpt lat="45.83349" lon="4.70633">
        <ele>314.01425</ele>
        <time>2023-12-07T12:27:02.000Z</time>
      </trkpt>
      <trkpt lat="45.8335" lon="4.70625">
        <ele>313.74078</ele>
        <time>2023-12-07T12:27:03.000Z</time>
      </trkpt>
      <trkpt lat="45.83352" lon="4.70618">
        <ele>313.42334</ele>
        <time>2023-12-07T12:27:04.000Z</time>
      </trkpt>
      <trkpt lat="45.83355" lon="4.70612">
        <ele>313.25424</ele>
        <time>2023-12-07T12:27:05.000Z</time>
      </trkpt>
      <trkpt lat="45.83361" lon="4.70608">
        <ele>313.09912</ele>
        <time>2023-12-07T12:27:06.000Z</time>
      </trkpt>
      <trkpt lat="45.83367" lon="4.70607">
        <ele>312.94687</ele>
        <time>2023-12-07T12:27:07.000Z</time>
      </trkpt>
      <trkpt lat="45.83373" lon="4.70607">
        <ele>312.52606</ele>
        <time>2023-12-07T12:27:08.000Z</time>
      </trkpt>
      <trkpt lat="45.83379" lon="4.70608">
        <ele>312.13135</ele>
        <time>2023-12-07T12:27:09.000Z</time>
      </trkpt>
      <trkpt lat="45.83385" lon="4.70609">
        <ele>311.76208</ele>
        <time>2023-12-07T12:27:10.000Z</time>
      </trkpt>
      <trkpt lat="45.83391" lon="4.7061">
        <ele>311.40826</ele>
        <time>2023-12-07T12:27:11.000Z</time>
      </trkpt>
      <trkpt lat="45.83397" lon="4.7061">
        <ele>311.08209</ele>
        <time>2023-12-07T12:27:12.000Z</time>
      </trkpt>
      <trkpt lat="45.83404" lon="4.70612">
        <ele>310.81573</ele>
        <time>2023-12-07T12:27:13.000Z</time>
      </trkpt>
      <trkpt lat="45.83411" lon="4.70613">
        <ele>310.5285</ele>
        <time>2023-12-07T12:27:14.000Z</time>
      </trkpt>
      <trkpt lat="45.83417" lon="4.70614">
        <ele>310.27359</ele>
        <time>2023-12-07T12:27:15.000Z</time>
      </trkpt>
      <trkpt lat="45.83422" lon="4.70615">
        <ele>310.00153</ele>
        <time>2023-12-07T12:27:16.000Z</time>
      </trkpt>
      <trkpt lat="45.83428" lon="4.70615">
        <ele>309.72372</ele>
        <time>2023-12-07T12:27:17.000Z</time>
      </trkpt>
      <trkpt lat="45.83434" lon="4.70616">
        <ele>309.45804</ele>
        <time>2023-12-07T12:27:18.000Z</time>
      </trkpt>
      <trkpt lat="45.83439" lon="4.70616">
        <ele>309.24426</ele>
        <time>2023-12-07T12:27:19.000Z</time>
      </trkpt>
      <trkpt lat="45.83445" lon="4.70616">
        <ele>309.06088</ele>
        <time>2023-12-07T12:27:20.000Z</time>
      </trkpt>
      <trkpt lat="45.8345" lon="4.70617">
        <ele>308.90009</ele>
        <time>2023-12-07T12:27:21.000Z</time>
      </trkpt>
      <trkpt lat="45.83456" lon="4.70618">
        <ele>308.58282</ele>
        <time>2023-12-07T12:27:22.000Z</time>
      </trkpt>
      <trkpt lat="45.83462" lon="4.70617">
        <ele>308.29929</ele>
        <time>2023-12-07T12:27:23.000Z</time>
      </trkpt>
      <trkpt lat="45.83468" lon="4.70616">
        <ele>308.04889</ele>
        <time>2023-12-07T12:27:24.000Z</time>
      </trkpt>
      <trkpt lat="45.83474" lon="4.70616">
        <ele>307.65649</ele>
        <time>2023-12-07T12:27:25.000Z</time>
      </trkpt>
      <trkpt lat="45.8348" lon="4.70616">
        <ele>307.2746</ele>
        <time>2023-12-07T12:27:26.000Z</time>
      </trkpt>
      <trkpt lat="45.83487" lon="4.70616">
        <ele>306.82367</ele>
        <time>2023-12-07T12:27:27.000Z</time>
      </trkpt>
      <trkpt lat="45.83493" lon="4.70616">
        <ele>306.66949</ele>
        <time>2023-12-07T12:27:28.000Z</time>
      </trkpt>
      <trkpt lat="45.835" lon="4.70615">
        <ele>306.49561</ele>
        <time>2023-12-07T12:27:29.000Z</time>
      </trkpt>
      <trkpt lat="45.83506" lon="4.70615">
        <ele>306.28564</ele>
        <time>2023-12-07T12:27:30.000Z</time>
      </trkpt>
      <trkpt lat="45.83513" lon="4.70614">
        <ele>306.04782</ele>
        <time>2023-12-07T12:27:31.000Z</time>
      </trkpt>
      <trkpt lat="45.83521" lon="4.70613">
        <ele>305.81021</ele>
        <time>2023-12-07T12:27:32.000Z</time>
      </trkpt>
      <trkpt lat="45.83527" lon="4.70612">
        <ele>305.53232</ele>
        <time>2023-12-07T12:27:33.000Z</time>
      </trkpt>
      <trkpt lat="45.83533" lon="4.70613">
        <ele>305.29059</ele>
        <time>2023-12-07T12:27:34.000Z</time>
      </trkpt>
      <trkpt lat="45.8354" lon="4.70612">
        <ele>305.03217</ele>
        <time>2023-12-07T12:27:35.000Z</time>
      </trkpt>
      <trkpt lat="45.83546" lon="4.70612">
        <ele>304.75336</ele>
        <time>2023-12-07T12:27:36.000Z</time>
      </trkpt>
      <trkpt lat="45.83553" lon="4.70612">
        <ele>304.49066</ele>
        <time>2023-12-07T12:27:37.000Z</time>
      </trkpt>
      <trkpt lat="45.83559" lon="4.70612">
        <ele>304.22482</ele>
        <time>2023-12-07T12:27:38.000Z</time>
      </trkpt>
      <trkpt lat="45.83565" lon="4.70612">
        <ele>303.94772</ele>
        <time>2023-12-07T12:27:39.000Z</time>
      </trkpt>
      <trkpt lat="45.83571" lon="4.70612">
        <ele>303.65048</ele>
        <time>2023-12-07T12:27:40.000Z</time>
      </trkpt>
      <trkpt lat="45.83576" lon="4.70612">
        <ele>303.60428</ele>
        <time>2023-12-07T12:27:41.000Z</time>
      </trkpt>
      <trkpt lat="45.83583" lon="4.70615">
        <ele>303.80988</ele>
        <time>2023-12-07T12:27:42.000Z</time>
      </trkpt>
      <trkpt lat="45.83588" lon="4.70616">
        <ele>304.02557</ele>
        <time>2023-12-07T12:27:43.000Z</time>
      </trkpt>
      <trkpt lat="45.83594" lon="4.70618">
        <ele>304.25485</ele>
        <time>2023-12-07T12:27:44.000Z</time>
      </trkpt>
      <trkpt lat="45.83599" lon="4.70619">
        <ele>304.49591</ele>
        <time>2023-12-07T12:27:45.000Z</time>
      </trkpt>
      <trkpt lat="45.83604" lon="4.70621">
        <ele>304.52765</ele>
        <time>2023-12-07T12:27:46.000Z</time>
      </trkpt>
      <trkpt lat="45.83609" lon="4.70623">
        <ele>304.63062</ele>
        <time>2023-12-07T12:27:47.000Z</time>
      </trkpt>
      <trkpt lat="45.83614" lon="4.70625">
        <ele>304.7478</ele>
        <time>2023-12-07T12:27:48.000Z</time>
      </trkpt>
      <trkpt lat="45.83619" lon="4.70625">
        <ele>304.86725</ele>
        <time>2023-12-07T12:27:49.000Z</time>
      </trkpt>
      <trkpt lat="45.83623" lon="4.70625">
        <ele>305.01288</ele>
        <time>2023-12-07T12:27:50.000Z</time>
      </trkpt>
      <trkpt lat="45.83628" lon="4.70623">
        <ele>305.18402</ele>
        <time>2023-12-07T12:27:51.000Z</time>
      </trkpt>
      <trkpt lat="45.83633" lon="4.70621">
        <ele>305.327</ele>
        <time>2023-12-07T12:27:52.000Z</time>
      </trkpt>
      <trkpt lat="45.83638" lon="4.70619">
        <ele>305.57257</ele>
        <time>2023-12-07T12:27:53.000Z</time>
      </trkpt>
      <trkpt lat="45.83643" lon="4.70617">
        <ele>305.82578</ele>
        <time>2023-12-07T12:27:54.000Z</time>
      </trkpt>
      <trkpt lat="45.83648" lon="4.70614">
        <ele>306.07013</ele>
        <time>2023-12-07T12:27:55.000Z</time>
      </trkpt>
      <trkpt lat="45.83653" lon="4.70612">
        <ele>306.14185</ele>
        <time>2023-12-07T12:27:56.000Z</time>
      </trkpt>
      <trkpt lat="45.83658" lon="4.70608">
        <ele>306.25696</ele>
        <time>2023-12-07T12:27:57.000Z</time>
      </trkpt>
      <trkpt lat="45.83663" lon="4.70606">
        <ele>306.39322</ele>
        <time>2023-12-07T12:27:58.000Z</time>
      </trkpt>
      <trkpt lat="45.83668" lon="4.70604">
        <ele>306.51373</ele>
        <time>2023-12-07T12:27:59.000Z</time>
      </trkpt>
      <trkpt lat="45.83674" lon="4.706">
        <ele>306.62091</ele>
        <time>2023-12-07T12:28:00.000Z</time>
      </trkpt>
      <trkpt lat="45.8368" lon="4.70598">
        <ele>306.48508</ele>
        <time>2023-12-07T12:28:01.000Z</time>
      </trkpt>
      <trkpt lat="45.83686" lon="4.70598">
        <ele>306.24933</ele>
        <time>2023-12-07T12:28:02.000Z</time>
      </trkpt>
      <trkpt lat="45.83691" lon="4.70596">
        <ele>305.97372</ele>
        <time>2023-12-07T12:28:03.000Z</time>
      </trkpt>
      <trkpt lat="45.83698" lon="4.70594">
        <ele>305.66525</ele>
        <time>2023-12-07T12:28:04.000Z</time>
      </trkpt>
      <trkpt lat="45.83704" lon="4.70592">
        <ele>305.33826</ele>
        <time>2023-12-07T12:28:05.000Z</time>
      </trkpt>
      <trkpt lat="45.8371" lon="4.70591">
        <ele>305.23911</ele>
        <time>2023-12-07T12:28:06.000Z</time>
      </trkpt>
      <trkpt lat="45.83715" lon="4.7059">
        <ele>305.08014</ele>
        <time>2023-12-07T12:28:07.000Z</time>
      </trkpt>
      <trkpt lat="45.83722" lon="4.7059">
        <ele>304.90555</ele>
        <time>2023-12-07T12:28:08.000Z</time>
      </trkpt>
      <trkpt lat="45.83728" lon="4.70589">
        <ele>304.72345</ele>
        <time>2023-12-07T12:28:09.000Z</time>
      </trkpt>
      <trkpt lat="45.83734" lon="4.70588">
        <ele>304.52551</ele>
        <time>2023-12-07T12:28:10.000Z</time>
      </trkpt>
      <trkpt lat="45.8374" lon="4.70586">
        <ele>304.10486</ele>
        <time>2023-12-07T12:28:11.000Z</time>
      </trkpt>
      <trkpt lat="45.83747" lon="4.70583">
        <ele>303.67908</ele>
        <time>2023-12-07T12:28:12.000Z</time>
      </trkpt>
      <trkpt lat="45.83753" lon="4.7058">
        <ele>303.13757</ele>
        <time>2023-12-07T12:28:13.000Z</time>
      </trkpt>
      <trkpt lat="45.83759" lon="4.70577">
        <ele>302.55801</ele>
        <time>2023-12-07T12:28:14.000Z</time>
      </trkpt>
      <trkpt lat="45.83765" lon="4.70574">
        <ele>301.97705</ele>
        <time>2023-12-07T12:28:15.000Z</time>
      </trkpt>
      <trkpt lat="45.83771" lon="4.70571">
        <ele>301.58273</ele>
        <time>2023-12-07T12:28:16.000Z</time>
      </trkpt>
      <trkpt lat="45.83777" lon="4.70567">
        <ele>301.12817</ele>
        <time>2023-12-07T12:28:17.000Z</time>
      </trkpt>
      <trkpt lat="45.83783" lon="4.70563">
        <ele>300.65289</ele>
        <time>2023-12-07T12:28:18.000Z</time>
      </trkpt>
      <trkpt lat="45.83789" lon="4.7056">
        <ele>300.19135</ele>
        <time>2023-12-07T12:28:19.000Z</time>
      </trkpt>
      <trkpt lat="45.83795" lon="4.70557">
        <ele>299.72702</ele>
        <time>2023-12-07T12:28:20.000Z</time>
      </trkpt>
      <trkpt lat="45.83801" lon="4.70552">
        <ele>299.33517</ele>
        <time>2023-12-07T12:28:21.000Z</time>
      </trkpt>
      <trkpt lat="45.83807" lon="4.70549">
        <ele>298.95737</ele>
        <time>2023-12-07T12:28:22.000Z</time>
      </trkpt>
      <trkpt lat="45.83812" lon="4.70545">
        <ele>298.48114</ele>
        <time>2023-12-07T12:28:23.000Z</time>
      </trkpt>
      <trkpt lat="45.83818" lon="4.70541">
        <ele>298.0242</ele>
        <time>2023-12-07T12:28:24.000Z</time>
      </trkpt>
      <trkpt lat="45.83824" lon="4.70537">
        <ele>297.57858</ele>
        <time>2023-12-07T12:28:25.000Z</time>
      </trkpt>
      <trkpt lat="45.83829" lon="4.70532">
        <ele>297.13647</ele>
        <time>2023-12-07T12:28:26.000Z</time>
      </trkpt>
      <trkpt lat="45.83835" lon="4.70527">
        <ele>296.69543</ele>
        <time>2023-12-07T12:28:27.000Z</time>
      </trkpt>
      <trkpt lat="45.8384" lon="4.70523">
        <ele>296.27948</ele>
        <time>2023-12-07T12:28:28.000Z</time>
      </trkpt>
      <trkpt lat="45.83845" lon="4.70518">
        <ele>295.88596</ele>
        <time>2023-12-07T12:28:29.000Z</time>
      </trkpt>
      <trkpt lat="45.8385" lon="4.70514">
        <ele>295.44656</ele>
        <time>2023-12-07T12:28:30.000Z</time>
      </trkpt>
      <trkpt lat="45.83856" lon="4.70511">
        <ele>295.19553</ele>
        <time>2023-12-07T12:28:31.000Z</time>
      </trkpt>
      <trkpt lat="45.83861" lon="4.70508">
        <ele>294.95782</ele>
        <time>2023-12-07T12:28:32.000Z</time>
      </trkpt>
      <trkpt lat="45.83867" lon="4.70504">
        <ele>294.72113</ele>
        <time>2023-12-07T12:28:33.000Z</time>
      </trkpt>
      <trkpt lat="45.83872" lon="4.70501">
        <ele>294.48315</ele>
        <time>2023-12-07T12:28:34.000Z</time>
      </trkpt>
      <trkpt lat="45.83878" lon="4.70499">
        <ele>294.23633</ele>
        <time>2023-12-07T12:28:35.000Z</time>
      </trkpt>
      <trkpt lat="45.83883" lon="4.70495">
        <ele>294.19598</ele>
        <time>2023-12-07T12:28:36.000Z</time>
      </trkpt>
      <trkpt lat="45.83888" lon="4.70492">
        <ele>294.15683</ele>
        <time>2023-12-07T12:28:37.000Z</time>
      </trkpt>
      <trkpt lat="45.83894" lon="4.70489">
        <ele>294.13318</ele>
        <time>2023-12-07T12:28:38.000Z</time>
      </trkpt>
      <trkpt lat="45.83899" lon="4.70487">
        <ele>294.08783</ele>
        <time>2023-12-07T12:28:39.000Z</time>
      </trkpt>
      <trkpt lat="45.83904" lon="4.70484">
        <ele>294.06415</ele>
        <time>2023-12-07T12:28:40.000Z</time>
      </trkpt>
      <trkpt lat="45.8391" lon="4.70482">
        <ele>293.96048</ele>
        <time>2023-12-07T12:28:41.000Z</time>
      </trkpt>
      <trkpt lat="45.83915" lon="4.7048">
        <ele>293.84259</ele>
        <time>2023-12-07T12:28:42.000Z</time>
      </trkpt>
      <trkpt lat="45.8392" lon="4.70478">
        <ele>293.82578</ele>
        <time>2023-12-07T12:28:43.000Z</time>
      </trkpt>
      <trkpt lat="45.83924" lon="4.70476">
        <ele>293.81528</ele>
        <time>2023-12-07T12:28:44.000Z</time>
      </trkpt>
      <trkpt lat="45.83927" lon="4.70474">
        <ele>293.82535</ele>
        <time>2023-12-07T12:28:45.000Z</time>
      </trkpt>
      <trkpt lat="45.8393" lon="4.70473">
        <ele>293.81857</ele>
        <time>2023-12-07T12:28:46.000Z</time>
      </trkpt>
      <trkpt lat="45.83932" lon="4.70471">
        <ele>293.8251</ele>
        <time>2023-12-07T12:28:47.000Z</time>
      </trkpt>
      <trkpt lat="45.83933" lon="4.70469">
        <ele>293.81207</ele>
        <time>2023-12-07T12:28:48.000Z</time>
      </trkpt>
      <trkpt lat="45.83934" lon="4.70465">
        <ele>293.79825</ele>
        <time>2023-12-07T12:28:49.000Z</time>
      </trkpt>
      <trkpt lat="45.83936" lon="4.70461">
        <ele>293.84039</ele>
        <time>2023-12-07T12:28:50.000Z</time>
      </trkpt>
      <trkpt lat="45.83939" lon="4.70457">
        <ele>293.93109</ele>
        <time>2023-12-07T12:28:51.000Z</time>
      </trkpt>
      <trkpt lat="45.83942" lon="4.70454">
        <ele>294.06381</ele>
        <time>2023-12-07T12:28:52.000Z</time>
      </trkpt>
      <trkpt lat="45.83945" lon="4.7045">
        <ele>294.30569</ele>
        <time>2023-12-07T12:28:53.000Z</time>
      </trkpt>
      <trkpt lat="45.83949" lon="4.70447">
        <ele>294.57278</ele>
        <time>2023-12-07T12:28:54.000Z</time>
      </trkpt>
      <trkpt lat="45.83952" lon="4.70443">
        <ele>294.87198</ele>
        <time>2023-12-07T12:28:55.000Z</time>
      </trkpt>
      <trkpt lat="45.83956" lon="4.70439">
        <ele>294.97137</ele>
        <time>2023-12-07T12:28:56.000Z</time>
      </trkpt>
      <trkpt lat="45.8396" lon="4.70437">
        <ele>295.07159</ele>
        <time>2023-12-07T12:28:57.000Z</time>
      </trkpt>
      <trkpt lat="45.83964" lon="4.70434">
        <ele>295.2077</ele>
        <time>2023-12-07T12:28:58.000Z</time>
      </trkpt>
      <trkpt lat="45.83968" lon="4.70432">
        <ele>295.35321</ele>
        <time>2023-12-07T12:28:59.000Z</time>
      </trkpt>
      <trkpt lat="45.83973" lon="4.70429">
        <ele>295.51233</ele>
        <time>2023-12-07T12:29:00.000Z</time>
      </trkpt>
      <trkpt lat="45.83978" lon="4.70428">
        <ele>295.65192</ele>
        <time>2023-12-07T12:29:01.000Z</time>
      </trkpt>
      <trkpt lat="45.83982" lon="4.70426">
        <ele>295.78311</ele>
        <time>2023-12-07T12:29:02.000Z</time>
      </trkpt>
      <trkpt lat="45.83987" lon="4.70423">
        <ele>295.89816</ele>
        <time>2023-12-07T12:29:03.000Z</time>
      </trkpt>
      <trkpt lat="45.83992" lon="4.70422">
        <ele>295.9863</ele>
        <time>2023-12-07T12:29:04.000Z</time>
      </trkpt>
      <trkpt lat="45.83997" lon="4.70419">
        <ele>296.10028</ele>
        <time>2023-12-07T12:29:05.000Z</time>
      </trkpt>
      <trkpt lat="45.84001" lon="4.70417">
        <ele>296.2052</ele>
        <time>2023-12-07T12:29:06.000Z</time>
      </trkpt>
      <trkpt lat="45.84007" lon="4.70415">
        <ele>296.28088</ele>
        <time>2023-12-07T12:29:07.000Z</time>
      </trkpt>
      <trkpt lat="45.84011" lon="4.70414">
        <ele>296.32346</ele>
        <time>2023-12-07T12:29:08.000Z</time>
      </trkpt>
      <trkpt lat="45.84015" lon="4.70412">
        <ele>296.3671</ele>
        <time>2023-12-07T12:29:09.000Z</time>
      </trkpt>
      <trkpt lat="45.8402" lon="4.7041">
        <ele>296.39267</ele>
        <time>2023-12-07T12:29:10.000Z</time>
      </trkpt>
      <trkpt lat="45.84026" lon="4.70408">
        <ele>296.40045</ele>
        <time>2023-12-07T12:29:11.000Z</time>
      </trkpt>
      <trkpt lat="45.84031" lon="4.70405">
        <ele>296.37717</ele>
        <time>2023-12-07T12:29:12.000Z</time>
      </trkpt>
      <trkpt lat="45.84036" lon="4.70404">
        <ele>296.41382</ele>
        <time>2023-12-07T12:29:13.000Z</time>
      </trkpt>
      <trkpt lat="45.84042" lon="4.70401">
        <ele>296.54413</ele>
        <time>2023-12-07T12:29:14.000Z</time>
      </trkpt>
      <trkpt lat="45.84047" lon="4.70398">
        <ele>296.70639</ele>
        <time>2023-12-07T12:29:15.000Z</time>
      </trkpt>
      <trkpt lat="45.84052" lon="4.70394">
        <ele>296.54465</ele>
        <time>2023-12-07T12:29:16.000Z</time>
      </trkpt>
      <trkpt lat="45.84057" lon="4.70391">
        <ele>296.45029</ele>
        <time>2023-12-07T12:29:17.000Z</time>
      </trkpt>
      <trkpt lat="45.84062" lon="4.70387">
        <ele>296.32397</ele>
        <time>2023-12-07T12:29:18.000Z</time>
      </trkpt>
      <trkpt lat="45.84067" lon="4.70384">
        <ele>296.20227</ele>
        <time>2023-12-07T12:29:19.000Z</time>
      </trkpt>
      <trkpt lat="45.84072" lon="4.7038">
        <ele>296.02988</ele>
        <time>2023-12-07T12:29:20.000Z</time>
      </trkpt>
      <trkpt lat="45.84076" lon="4.70377">
        <ele>295.88382</ele>
        <time>2023-12-07T12:29:21.000Z</time>
      </trkpt>
      <trkpt lat="45.84081" lon="4.70375">
        <ele>295.74951</ele>
        <time>2023-12-07T12:29:22.000Z</time>
      </trkpt>
      <trkpt lat="45.84086" lon="4.70373">
        <ele>295.59103</ele>
        <time>2023-12-07T12:29:23.000Z</time>
      </trkpt>
      <trkpt lat="45.8409" lon="4.7037">
        <ele>295.44379</ele>
        <time>2023-12-07T12:29:24.000Z</time>
      </trkpt>
      <trkpt lat="45.84095" lon="4.70367">
        <ele>295.26428</ele>
        <time>2023-12-07T12:29:25.000Z</time>
      </trkpt>
      <trkpt lat="45.841" lon="4.70364">
        <ele>295.08145</ele>
        <time>2023-12-07T12:29:26.000Z</time>
      </trkpt>
      <trkpt lat="45.84105" lon="4.70361">
        <ele>295.1767</ele>
        <time>2023-12-07T12:29:27.000Z</time>
      </trkpt>
      <trkpt lat="45.84109" lon="4.70358">
        <ele>295.34659</ele>
        <time>2023-12-07T12:29:28.000Z</time>
      </trkpt>
      <trkpt lat="45.84113" lon="4.70355">
        <ele>295.16849</ele>
        <time>2023-12-07T12:29:29.000Z</time>
      </trkpt>
      <trkpt lat="45.84115" lon="4.70349">
        <ele>295.103</ele>
        <time>2023-12-07T12:29:30.000Z</time>
      </trkpt>
      <trkpt lat="45.84116" lon="4.70343">
        <ele>295.04181</ele>
        <time>2023-12-07T12:29:31.000Z</time>
      </trkpt>
      <trkpt lat="45.84115" lon="4.70336">
        <ele>295.00464</ele>
        <time>2023-12-07T12:29:32.000Z</time>
      </trkpt>
      <trkpt lat="45.84114" lon="4.7033">
        <ele>294.80627</ele>
        <time>2023-12-07T12:29:33.000Z</time>
      </trkpt>
      <trkpt lat="45.84114" lon="4.70323">
        <ele>294.47366</ele>
        <time>2023-12-07T12:29:34.000Z</time>
      </trkpt>
      <trkpt lat="45.84114" lon="4.70316">
        <ele>294.11734</ele>
        <time>2023-12-07T12:29:35.000Z</time>
      </trkpt>
      <trkpt lat="45.84115" lon="4.70309">
        <ele>294.09903</ele>
        <time>2023-12-07T12:29:36.000Z</time>
      </trkpt>
      <trkpt lat="45.84115" lon="4.70303">
        <ele>294.01974</ele>
        <time>2023-12-07T12:29:37.000Z</time>
      </trkpt>
      <trkpt lat="45.84115" lon="4.70297">
        <ele>294.14941</ele>
        <time>2023-12-07T12:29:38.000Z</time>
      </trkpt>
      <trkpt lat="45.84114" lon="4.70291">
        <ele>294.33185</ele>
        <time>2023-12-07T12:29:39.000Z</time>
      </trkpt>
      <trkpt lat="45.84113" lon="4.70284">
        <ele>294.19897</ele>
        <time>2023-12-07T12:29:40.000Z</time>
      </trkpt>
      <trkpt lat="45.84113" lon="4.70278">
        <ele>294.10452</ele>
        <time>2023-12-07T12:29:41.000Z</time>
      </trkpt>
      <trkpt lat="45.84112" lon="4.70273">
        <ele>294.01569</ele>
        <time>2023-12-07T12:29:42.000Z</time>
      </trkpt>
      <trkpt lat="45.84112" lon="4.70267">
        <ele>293.98401</ele>
        <time>2023-12-07T12:29:43.000Z</time>
      </trkpt>
      <trkpt lat="45.84112" lon="4.7026">
        <ele>293.97302</ele>
        <time>2023-12-07T12:29:44.000Z</time>
      </trkpt>
      <trkpt lat="45.84111" lon="4.70253">
        <ele>293.97375</ele>
        <time>2023-12-07T12:29:45.000Z</time>
      </trkpt>
      <trkpt lat="45.84111" lon="4.70247">
        <ele>293.98969</ele>
        <time>2023-12-07T12:29:46.000Z</time>
      </trkpt>
      <trkpt lat="45.8411" lon="4.7024">
        <ele>293.75797</ele>
        <time>2023-12-07T12:29:47.000Z</time>
      </trkpt>
      <trkpt lat="45.84109" lon="4.70234">
        <ele>293.50162</ele>
        <time>2023-12-07T12:29:48.000Z</time>
      </trkpt>
      <trkpt lat="45.84109" lon="4.70228">
        <ele>293.57434</ele>
        <time>2023-12-07T12:29:49.000Z</time>
      </trkpt>
      <trkpt lat="45.84109" lon="4.70222">
        <ele>293.55417</ele>
        <time>2023-12-07T12:29:50.000Z</time>
      </trkpt>
      <trkpt lat="45.84109" lon="4.70216">
        <ele>293.50125</ele>
        <time>2023-12-07T12:29:51.000Z</time>
      </trkpt>
      <trkpt lat="45.84107" lon="4.70209">
        <ele>293.47815</ele>
        <time>2023-12-07T12:29:52.000Z</time>
      </trkpt>
      <trkpt lat="45.84107" lon="4.70203">
        <ele>293.43222</ele>
        <time>2023-12-07T12:29:53.000Z</time>
      </trkpt>
      <trkpt lat="45.84107" lon="4.70197">
        <ele>293.41339</ele>
        <time>2023-12-07T12:29:54.000Z</time>
      </trkpt>
      <trkpt lat="45.84106" lon="4.70191">
        <ele>293.37955</ele>
        <time>2023-12-07T12:29:55.000Z</time>
      </trkpt>
      <trkpt lat="45.84106" lon="4.70184">
        <ele>293.31219</ele>
        <time>2023-12-07T12:29:56.000Z</time>
      </trkpt>
      <trkpt lat="45.84106" lon="4.70178">
        <ele>293.27023</ele>
        <time>2023-12-07T12:29:57.000Z</time>
      </trkpt>
      <trkpt lat="45.84106" lon="4.70171">
        <ele>293.02319</ele>
        <time>2023-12-07T12:29:58.000Z</time>
      </trkpt>
      <trkpt lat="45.84106" lon="4.70164">
        <ele>292.70673</ele>
        <time>2023-12-07T12:29:59.000Z</time>
      </trkpt>
      <trkpt lat="45.84105" lon="4.70157">
        <ele>292.76529</ele>
        <time>2023-12-07T12:30:00.000Z</time>
      </trkpt>
      <trkpt lat="45.84104" lon="4.70151">
        <ele>292.75879</ele>
        <time>2023-12-07T12:30:01.000Z</time>
      </trkpt>
      <trkpt lat="45.84104" lon="4.70144">
        <ele>292.74164</ele>
        <time>2023-12-07T12:30:02.000Z</time>
      </trkpt>
      <trkpt lat="45.84105" lon="4.70138">
        <ele>292.73679</ele>
        <time>2023-12-07T12:30:03.000Z</time>
      </trkpt>
      <trkpt lat="45.84106" lon="4.70134">
        <ele>292.69473</ele>
        <time>2023-12-07T12:30:04.000Z</time>
      </trkpt>
      <trkpt lat="45.84108" lon="4.70132">
        <ele>292.65451</ele>
        <time>2023-12-07T12:30:06.000Z</time>
      </trkpt>
      <trkpt lat="45.84111" lon="4.70132">
        <ele>292.57901</ele>
        <time>2023-12-07T12:30:08.000Z</time>
      </trkpt>
      <trkpt lat="45.84113" lon="4.70131">
        <ele>292.50772</ele>
        <time>2023-12-07T12:30:09.000Z</time>
      </trkpt>
      <trkpt lat="45.84115" lon="4.70128">
        <ele>292.60635</ele>
        <time>2023-12-07T12:30:10.000Z</time>
      </trkpt>
      <trkpt lat="45.84117" lon="4.70125">
        <ele>292.72861</ele>
        <time>2023-12-07T12:30:11.000Z</time>
      </trkpt>
      <trkpt lat="45.84121" lon="4.70123">
        <ele>292.83292</ele>
        <time>2023-12-07T12:30:12.000Z</time>
      </trkpt>
      <trkpt lat="45.84124" lon="4.7012">
        <ele>292.95453</ele>
        <time>2023-12-07T12:30:13.000Z</time>
      </trkpt>
      <trkpt lat="45.84129" lon="4.70118">
        <ele>293.14468</ele>
        <time>2023-12-07T12:30:14.000Z</time>
      </trkpt>
      <trkpt lat="45.84133" lon="4.70114">
        <ele>293.35519</ele>
        <time>2023-12-07T12:30:15.000Z</time>
      </trkpt>
      <trkpt lat="45.84137" lon="4.7011">
        <ele>293.55902</ele>
        <time>2023-12-07T12:30:16.000Z</time>
      </trkpt>
      <trkpt lat="45.84142" lon="4.70105">
        <ele>293.7514</ele>
        <time>2023-12-07T12:30:17.000Z</time>
      </trkpt>
      <trkpt lat="45.84145" lon="4.701">
        <ele>293.56305</ele>
        <time>2023-12-07T12:30:18.000Z</time>
      </trkpt>
      <trkpt lat="45.8415" lon="4.70096">
        <ele>293.41449</ele>
        <time>2023-12-07T12:30:19.000Z</time>
      </trkpt>
      <trkpt lat="45.84155" lon="4.7009">
        <ele>293.27133</ele>
        <time>2023-12-07T12:30:20.000Z</time>
      </trkpt>
      <trkpt lat="45.8416" lon="4.70086">
        <ele>293.14832</ele>
        <time>2023-12-07T12:30:21.000Z</time>
      </trkpt>
      <trkpt lat="45.84166" lon="4.70083">
        <ele>292.98517</ele>
        <time>2023-12-07T12:30:22.000Z</time>
      </trkpt>
      <trkpt lat="45.84172" lon="4.70079">
        <ele>292.85931</ele>
        <time>2023-12-07T12:30:23.000Z</time>
      </trkpt>
      <trkpt lat="45.84177" lon="4.70077">
        <ele>292.68423</ele>
        <time>2023-12-07T12:30:24.000Z</time>
      </trkpt>
      <trkpt lat="45.84184" lon="4.70074">
        <ele>292.50339</ele>
        <time>2023-12-07T12:30:25.000Z</time>
      </trkpt>
      <trkpt lat="45.8419" lon="4.70071">
        <ele>292.30087</ele>
        <time>2023-12-07T12:30:26.000Z</time>
      </trkpt>
      <trkpt lat="45.84195" lon="4.70067">
        <ele>292.12579</ele>
        <time>2023-12-07T12:30:27.000Z</time>
      </trkpt>
      <trkpt lat="45.84201" lon="4.70064">
        <ele>291.98376</ele>
        <time>2023-12-07T12:30:28.000Z</time>
      </trkpt>
      <trkpt lat="45.84206" lon="4.70059">
        <ele>291.80869</ele>
        <time>2023-12-07T12:30:29.000Z</time>
      </trkpt>
      <trkpt lat="45.84212" lon="4.70057">
        <ele>291.4014</ele>
        <time>2023-12-07T12:30:30.000Z</time>
      </trkpt>
      <trkpt lat="45.84218" lon="4.70055">
        <ele>290.96484</ele>
        <time>2023-12-07T12:30:31.000Z</time>
      </trkpt>
      <trkpt lat="45.84223" lon="4.7005">
        <ele>290.5379</ele>
        <time>2023-12-07T12:30:32.000Z</time>
      </trkpt>
      <trkpt lat="45.84229" lon="4.70046">
        <ele>290.24359</ele>
        <time>2023-12-07T12:30:33.000Z</time>
      </trkpt>
      <trkpt lat="45.84236" lon="4.70044">
        <ele>289.7399</ele>
        <time>2023-12-07T12:30:34.000Z</time>
      </trkpt>
      <trkpt lat="45.8424" lon="4.70041">
        <ele>289.30942</ele>
        <time>2023-12-07T12:30:35.000Z</time>
      </trkpt>
      <trkpt lat="45.84246" lon="4.7004">
        <ele>288.91171</ele>
        <time>2023-12-07T12:30:36.000Z</time>
      </trkpt>
      <trkpt lat="45.84252" lon="4.70039">
        <ele>288.43292</ele>
        <time>2023-12-07T12:30:37.000Z</time>
      </trkpt>
      <trkpt lat="45.84259" lon="4.70038">
        <ele>288.37738</ele>
        <time>2023-12-07T12:30:38.000Z</time>
      </trkpt>
      <trkpt lat="45.84264" lon="4.70038">
        <ele>288.2359</ele>
        <time>2023-12-07T12:30:39.000Z</time>
      </trkpt>
      <trkpt lat="45.84269" lon="4.7004">
        <ele>288.28226</ele>
        <time>2023-12-07T12:30:40.000Z</time>
      </trkpt>
      <trkpt lat="45.84274" lon="4.70041">
        <ele>288.3114</ele>
        <time>2023-12-07T12:30:41.000Z</time>
      </trkpt>
      <trkpt lat="45.84279" lon="4.70046">
        <ele>288.4014</ele>
        <time>2023-12-07T12:30:42.000Z</time>
      </trkpt>
      <trkpt lat="45.84282" lon="4.70048">
        <ele>288.55905</ele>
        <time>2023-12-07T12:30:43.000Z</time>
      </trkpt>
      <trkpt lat="45.84286" lon="4.70052">
        <ele>288.74542</ele>
        <time>2023-12-07T12:30:44.000Z</time>
      </trkpt>
      <trkpt lat="45.8429" lon="4.70055">
        <ele>288.83533</ele>
        <time>2023-12-07T12:30:45.000Z</time>
      </trkpt>
      <trkpt lat="45.84294" lon="4.7006">
        <ele>289.10226</ele>
        <time>2023-12-07T12:30:46.000Z</time>
      </trkpt>
      <trkpt lat="45.84298" lon="4.70063">
        <ele>289.36014</ele>
        <time>2023-12-07T12:30:47.000Z</time>
      </trkpt>
      <trkpt lat="45.84302" lon="4.70068">
        <ele>289.71356</ele>
        <time>2023-12-07T12:30:48.000Z</time>
      </trkpt>
      <trkpt lat="45.84305" lon="4.70074">
        <ele>289.66821</ele>
        <time>2023-12-07T12:30:49.000Z</time>
      </trkpt>
      <trkpt lat="45.84311" lon="4.70078">
        <ele>289.7684</ele>
        <time>2023-12-07T12:30:50.000Z</time>
      </trkpt>
      <trkpt lat="45.84316" lon="4.70082">
        <ele>289.84637</ele>
        <time>2023-12-07T12:30:51.000Z</time>
      </trkpt>
      <trkpt lat="45.8432" lon="4.70087">
        <ele>289.90512</ele>
        <time>2023-12-07T12:30:52.000Z</time>
      </trkpt>
      <trkpt lat="45.84324" lon="4.70091">
        <ele>289.8396</ele>
        <time>2023-12-07T12:30:53.000Z</time>
      </trkpt>
      <trkpt lat="45.84328" lon="4.70095">
        <ele>289.86237</ele>
        <time>2023-12-07T12:30:54.000Z</time>
      </trkpt>
      <trkpt lat="45.84332" lon="4.70097">
        <ele>289.9252</ele>
        <time>2023-12-07T12:30:55.000Z</time>
      </trkpt>
      <trkpt lat="45.84335" lon="4.70098">
        <ele>289.93549</ele>
        <time>2023-12-07T12:30:56.000Z</time>
      </trkpt>
      <trkpt lat="45.84341" lon="4.70102">
        <ele>290.07831</ele>
        <time>2023-12-07T12:30:57.000Z</time>
      </trkpt>
      <trkpt lat="45.84344" lon="4.70104">
        <ele>290.33673</ele>
        <time>2023-12-07T12:30:58.000Z</time>
      </trkpt>
      <trkpt lat="45.84349" lon="4.70106">
        <ele>290.54852</ele>
        <time>2023-12-07T12:30:59.000Z</time>
      </trkpt>
      <trkpt lat="45.84354" lon="4.70105">
        <ele>290.45615</ele>
        <time>2023-12-07T12:31:00.000Z</time>
      </trkpt>
      <trkpt lat="45.84359" lon="4.70105">
        <ele>290.37646</ele>
        <time>2023-12-07T12:31:01.000Z</time>
      </trkpt>
      <trkpt lat="45.84363" lon="4.70106">
        <ele>290.39395</ele>
        <time>2023-12-07T12:31:02.000Z</time>
      </trkpt>
      <trkpt lat="45.84367" lon="4.70106">
        <ele>289.83267</ele>
        <time>2023-12-07T12:31:03.000Z</time>
      </trkpt>
      <trkpt lat="45.8437" lon="4.70107">
        <ele>289.42969</ele>
        <time>2023-12-07T12:31:04.000Z</time>
      </trkpt>
      <trkpt lat="45.84375" lon="4.70108">
        <ele>289.17169</ele>
        <time>2023-12-07T12:31:05.000Z</time>
      </trkpt>
      <trkpt lat="45.84378" lon="4.70109">
        <ele>288.75146</ele>
        <time>2023-12-07T12:31:06.000Z</time>
      </trkpt>
      <trkpt lat="45.84382" lon="4.70111">
        <ele>288.37369</ele>
        <time>2023-12-07T12:31:07.000Z</time>
      </trkpt>
      <trkpt lat="45.84387" lon="4.70109">
        <ele>288.01746</ele>
        <time>2023-12-07T12:31:08.000Z</time>
      </trkpt>
      <trkpt lat="45.84392" lon="4.7011">
        <ele>288.16986</ele>
        <time>2023-12-07T12:31:09.000Z</time>
      </trkpt>
      <trkpt lat="45.84396" lon="4.7011">
        <ele>288.20337</ele>
        <time>2023-12-07T12:31:10.000Z</time>
      </trkpt>
      <trkpt lat="45.844" lon="4.70111">
        <ele>288.6759</ele>
        <time>2023-12-07T12:31:11.000Z</time>
      </trkpt>
      <trkpt lat="45.84404" lon="4.70112">
        <ele>288.30719</ele>
        <time>2023-12-07T12:31:12.000Z</time>
      </trkpt>
      <trkpt lat="45.84408" lon="4.70112">
        <ele>287.87134</ele>
        <time>2023-12-07T12:31:13.000Z</time>
      </trkpt>
      <trkpt lat="45.84411" lon="4.70112">
        <ele>287.49353</ele>
        <time>2023-12-07T12:31:14.000Z</time>
      </trkpt>
      <trkpt lat="45.84415" lon="4.70111">
        <ele>287.03067</ele>
        <time>2023-12-07T12:31:15.000Z</time>
      </trkpt>
      <trkpt lat="45.84419" lon="4.7011">
        <ele>286.73834</ele>
        <time>2023-12-07T12:31:16.000Z</time>
      </trkpt>
      <trkpt lat="45.84422" lon="4.70107">
        <ele>286.34775</ele>
        <time>2023-12-07T12:31:17.000Z</time>
      </trkpt>
      <trkpt lat="45.84425" lon="4.70104">
        <ele>285.99109</ele>
        <time>2023-12-07T12:31:18.000Z</time>
      </trkpt>
      <trkpt lat="45.84427" lon="4.701">
        <ele>285.85144</ele>
        <time>2023-12-07T12:31:19.000Z</time>
      </trkpt>
      <trkpt lat="45.84429" lon="4.70096">
        <ele>285.78867</ele>
        <time>2023-12-07T12:31:20.000Z</time>
      </trkpt>
      <trkpt lat="45.84431" lon="4.70093">
        <ele>285.62091</ele>
        <time>2023-12-07T12:31:21.000Z</time>
      </trkpt>
      <trkpt lat="45.84433" lon="4.70091">
        <ele>285.30792</ele>
        <time>2023-12-07T12:31:22.000Z</time>
      </trkpt>
      <trkpt lat="45.84435" lon="4.70088">
        <ele>285.49768</ele>
        <time>2023-12-07T12:31:23.000Z</time>
      </trkpt>
      <trkpt lat="45.84437" lon="4.70086">
        <ele>285.595</ele>
        <time>2023-12-07T12:31:24.000Z</time>
      </trkpt>
      <trkpt lat="45.84439" lon="4.70084">
        <ele>285.43564</ele>
        <time>2023-12-07T12:31:25.000Z</time>
      </trkpt>
      <trkpt lat="45.84441" lon="4.70082">
        <ele>285.34952</ele>
        <time>2023-12-07T12:31:26.000Z</time>
      </trkpt>
      <trkpt lat="45.84443" lon="4.7008">
        <ele>285.24945</ele>
        <time>2023-12-07T12:31:28.000Z</time>
      </trkpt>
      <trkpt lat="45.84445" lon="4.70079">
        <ele>284.77704</ele>
        <time>2023-12-07T12:31:31.000Z</time>
      </trkpt>
      <trkpt lat="45.84446" lon="4.70075">
        <ele>284.36581</ele>
        <time>2023-12-07T12:31:33.000Z</time>
      </trkpt>
      <trkpt lat="45.84448" lon="4.70072">
        <ele>283.82086</ele>
        <time>2023-12-07T12:31:35.000Z</time>
      </trkpt>
      <trkpt lat="45.84451" lon="4.7007">
        <ele>282.89865</ele>
        <time>2023-12-07T12:31:36.000Z</time>
      </trkpt>
      <trkpt lat="45.84452" lon="4.70067">
        <ele>282.85785</ele>
        <time>2023-12-07T12:31:37.000Z</time>
      </trkpt>
      <trkpt lat="45.84455" lon="4.70063">
        <ele>282.91589</ele>
        <time>2023-12-07T12:31:38.000Z</time>
      </trkpt>
      <trkpt lat="45.84457" lon="4.70059">
        <ele>282.94052</ele>
        <time>2023-12-07T12:31:39.000Z</time>
      </trkpt>
      <trkpt lat="45.84459" lon="4.70056">
        <ele>282.97992</ele>
        <time>2023-12-07T12:31:40.000Z</time>
      </trkpt>
      <trkpt lat="45.84462" lon="4.70052">
        <ele>282.85327</ele>
        <time>2023-12-07T12:31:41.000Z</time>
      </trkpt>
      <trkpt lat="45.84464" lon="4.7005">
        <ele>282.76895</ele>
        <time>2023-12-07T12:31:42.000Z</time>
      </trkpt>
      <trkpt lat="45.84466" lon="4.70047">
        <ele>282.55569</ele>
        <time>2023-12-07T12:31:44.000Z</time>
      </trkpt>
      <trkpt lat="45.84467" lon="4.70045">
        <ele>282.24969</ele>
        <time>2023-12-07T12:32:03.000Z</time>
      </trkpt>
      <trkpt lat="45.84469" lon="4.70039">
        <ele>281.95178</ele>
        <time>2023-12-07T12:32:05.000Z</time>
      </trkpt>
      <trkpt lat="45.8447" lon="4.70036">
        <ele>281.79785</ele>
        <time>2023-12-07T12:32:06.000Z</time>
      </trkpt>
      <trkpt lat="45.84471" lon="4.70034">
        <ele>281.67682</ele>
        <time>2023-12-07T12:32:07.000Z</time>
      </trkpt>
      <trkpt lat="45.84473" lon="4.7003">
        <ele>281.54437</ele>
        <time>2023-12-07T12:32:08.000Z</time>
      </trkpt>
      <trkpt lat="45.84474" lon="4.70026">
        <ele>281.39548</ele>
        <time>2023-12-07T12:32:09.000Z</time>
      </trkpt>
      <trkpt lat="45.84475" lon="4.70023">
        <ele>281.40891</ele>
        <time>2023-12-07T12:32:10.000Z</time>
      </trkpt>
      <trkpt lat="45.84475" lon="4.7002">
        <ele>281.34344</ele>
        <time>2023-12-07T12:32:20.000Z</time>
      </trkpt>
      <trkpt lat="45.84476" lon="4.70017">
        <ele>281.20248</ele>
        <time>2023-12-07T12:32:21.000Z</time>
      </trkpt>
      <trkpt lat="45.84477" lon="4.70014">
        <ele>281.29388</ele>
        <time>2023-12-07T12:32:22.000Z</time>
      </trkpt>
      <trkpt lat="45.84478" lon="4.70012">
        <ele>281.24139</ele>
        <time>2023-12-07T12:32:23.000Z</time>
      </trkpt>
      <trkpt lat="45.84481" lon="4.70011">
        <ele>281.33469</ele>
        <time>2023-12-07T12:32:24.000Z</time>
      </trkpt>
      <trkpt lat="45.84483" lon="4.70011">
        <ele>281.45041</ele>
        <time>2023-12-07T12:32:25.000Z</time>
      </trkpt>
      <trkpt lat="45.84486" lon="4.70014">
        <ele>281.5105</ele>
        <time>2023-12-07T12:32:26.000Z</time>
      </trkpt>
      <trkpt lat="45.84489" lon="4.70016">
        <ele>281.52533</ele>
        <time>2023-12-07T12:32:27.000Z</time>
      </trkpt>
      <trkpt lat="45.84492" lon="4.70019">
        <ele>281.51227</ele>
        <time>2023-12-07T12:32:28.000Z</time>
      </trkpt>
      <trkpt lat="45.84495" lon="4.70021">
        <ele>281.42044</ele>
        <time>2023-12-07T12:32:29.000Z</time>
      </trkpt>
      <trkpt lat="45.84499" lon="4.70024">
        <ele>281.3653</ele>
        <time>2023-12-07T12:32:30.000Z</time>
      </trkpt>
      <trkpt lat="45.84502" lon="4.70025">
        <ele>281.32877</ele>
        <time>2023-12-07T12:32:31.000Z</time>
      </trkpt>
      <trkpt lat="45.84504" lon="4.70026">
        <ele>281.22125</ele>
        <time>2023-12-07T12:32:32.000Z</time>
      </trkpt>
      <trkpt lat="45.84507" lon="4.70029">
        <ele>281.06979</ele>
        <time>2023-12-07T12:32:33.000Z</time>
      </trkpt>
      <trkpt lat="45.84511" lon="4.70032">
        <ele>280.92273</ele>
        <time>2023-12-07T12:32:34.000Z</time>
      </trkpt>
      <trkpt lat="45.84514" lon="4.70035">
        <ele>280.73578</ele>
        <time>2023-12-07T12:32:35.000Z</time>
      </trkpt>
      <trkpt lat="45.84517" lon="4.70038">
        <ele>280.49478</ele>
        <time>2023-12-07T12:32:36.000Z</time>
      </trkpt>
      <trkpt lat="45.8452" lon="4.70042">
        <ele>280.28937</ele>
        <time>2023-12-07T12:32:37.000Z</time>
      </trkpt>
      <trkpt lat="45.84523" lon="4.70044">
        <ele>280.04462</ele>
        <time>2023-12-07T12:32:38.000Z</time>
      </trkpt>
      <trkpt lat="45.84524" lon="4.70046">
        <ele>279.87793</ele>
        <time>2023-12-07T12:32:39.000Z</time>
      </trkpt>
      <trkpt lat="45.84526" lon="4.70049">
        <ele>279.68311</ele>
        <time>2023-12-07T12:32:40.000Z</time>
      </trkpt>
      <trkpt lat="45.84529" lon="4.70052">
        <ele>279.50064</ele>
        <time>2023-12-07T12:32:41.000Z</time>
      </trkpt>
      <trkpt lat="45.84532" lon="4.70056">
        <ele>279.36566</ele>
        <time>2023-12-07T12:32:42.000Z</time>
      </trkpt>
      <trkpt lat="45.84534" lon="4.70061">
        <ele>279.19388</ele>
        <time>2023-12-07T12:32:43.000Z</time>
      </trkpt>
      <trkpt lat="45.84535" lon="4.70066">
        <ele>279.04089</ele>
        <time>2023-12-07T12:32:44.000Z</time>
      </trkpt>
      <trkpt lat="45.84537" lon="4.70071">
        <ele>278.82501</ele>
        <time>2023-12-07T12:32:45.000Z</time>
      </trkpt>
      <trkpt lat="45.84539" lon="4.70077">
        <ele>278.64786</ele>
        <time>2023-12-07T12:32:46.000Z</time>
      </trkpt>
      <trkpt lat="45.84541" lon="4.70081">
        <ele>278.50452</ele>
        <time>2023-12-07T12:32:47.000Z</time>
      </trkpt>
      <trkpt lat="45.84544" lon="4.70085">
        <ele>278.38965</ele>
        <time>2023-12-07T12:32:48.000Z</time>
      </trkpt>
      <trkpt lat="45.84548" lon="4.70089">
        <ele>278.30295</ele>
        <time>2023-12-07T12:32:49.000Z</time>
      </trkpt>
      <trkpt lat="45.84551" lon="4.70091">
        <ele>278.22095</ele>
        <time>2023-12-07T12:32:50.000Z</time>
      </trkpt>
      <trkpt lat="45.84556" lon="4.70094">
        <ele>278.14563</ele>
        <time>2023-12-07T12:32:51.000Z</time>
      </trkpt>
      <trkpt lat="45.84559" lon="4.70097">
        <ele>278.11563</ele>
        <time>2023-12-07T12:32:52.000Z</time>
      </trkpt>
      <trkpt lat="45.84563" lon="4.701">
        <ele>278.05975</ele>
        <time>2023-12-07T12:32:53.000Z</time>
      </trkpt>
      <trkpt lat="45.84567" lon="4.70103">
        <ele>277.99313</ele>
        <time>2023-12-07T12:32:54.000Z</time>
      </trkpt>
      <trkpt lat="45.84571" lon="4.70106">
        <ele>277.91452</ele>
        <time>2023-12-07T12:32:55.000Z</time>
      </trkpt>
      <trkpt lat="45.84575" lon="4.70109">
        <ele>277.90161</ele>
        <time>2023-12-07T12:32:56.000Z</time>
      </trkpt>
      <trkpt lat="45.84578" lon="4.70112">
        <ele>277.84201</ele>
        <time>2023-12-07T12:32:57.000Z</time>
      </trkpt>
      <trkpt lat="45.84582" lon="4.70115">
        <ele>277.84918</ele>
        <time>2023-12-07T12:32:58.000Z</time>
      </trkpt>
      <trkpt lat="45.84585" lon="4.70118">
        <ele>277.83514</ele>
        <time>2023-12-07T12:32:59.000Z</time>
      </trkpt>
      <trkpt lat="45.84589" lon="4.70121">
        <ele>277.86972</ele>
        <time>2023-12-07T12:33:00.000Z</time>
      </trkpt>
      <trkpt lat="45.84592" lon="4.70124">
        <ele>277.96872</ele>
        <time>2023-12-07T12:33:01.000Z</time>
      </trkpt>
      <trkpt lat="45.84595" lon="4.70127">
        <ele>277.99908</ele>
        <time>2023-12-07T12:33:02.000Z</time>
      </trkpt>
      <trkpt lat="45.84597" lon="4.70129">
        <ele>278.06238</ele>
        <time>2023-12-07T12:33:03.000Z</time>
      </trkpt>
      <trkpt lat="45.846" lon="4.70132">
        <ele>278.09937</ele>
        <time>2023-12-07T12:33:04.000Z</time>
      </trkpt>
      <trkpt lat="45.84603" lon="4.70136">
        <ele>278.16772</ele>
        <time>2023-12-07T12:33:05.000Z</time>
      </trkpt>
      <trkpt lat="45.84607" lon="4.70139">
        <ele>278.20642</ele>
        <time>2023-12-07T12:33:06.000Z</time>
      </trkpt>
      <trkpt lat="45.8461" lon="4.70142">
        <ele>278.23999</ele>
        <time>2023-12-07T12:33:07.000Z</time>
      </trkpt>
      <trkpt lat="45.84613" lon="4.70145">
        <ele>278.24881</ele>
        <time>2023-12-07T12:33:08.000Z</time>
      </trkpt>
      <trkpt lat="45.84617" lon="4.70147">
        <ele>278.24741</ele>
        <time>2023-12-07T12:33:09.000Z</time>
      </trkpt>
      <trkpt lat="45.8462" lon="4.70149">
        <ele>278.23215</ele>
        <time>2023-12-07T12:33:10.000Z</time>
      </trkpt>
      <trkpt lat="45.84624" lon="4.7015">
        <ele>278.16095</ele>
        <time>2023-12-07T12:33:11.000Z</time>
      </trkpt>
      <trkpt lat="45.84627" lon="4.7015">
        <ele>278.0972</ele>
        <time>2023-12-07T12:33:12.000Z</time>
      </trkpt>
      <trkpt lat="45.84631" lon="4.70147">
        <ele>278.05399</ele>
        <time>2023-12-07T12:33:13.000Z</time>
      </trkpt>
      <trkpt lat="45.84634" lon="4.70143">
        <ele>278.08148</ele>
        <time>2023-12-07T12:33:14.000Z</time>
      </trkpt>
      <trkpt lat="45.84638" lon="4.70139">
        <ele>278.0896</ele>
        <time>2023-12-07T12:33:15.000Z</time>
      </trkpt>
      <trkpt lat="45.84641" lon="4.70136">
        <ele>278.07629</ele>
        <time>2023-12-07T12:33:16.000Z</time>
      </trkpt>
      <trkpt lat="45.84643" lon="4.70133">
        <ele>278.05588</ele>
        <time>2023-12-07T12:33:17.000Z</time>
      </trkpt>
      <trkpt lat="45.84645" lon="4.70129">
        <ele>278.03455</ele>
        <time>2023-12-07T12:33:18.000Z</time>
      </trkpt>
      <trkpt lat="45.84645" lon="4.70124">
        <ele>278.01422</ele>
        <time>2023-12-07T12:33:19.000Z</time>
      </trkpt>
      <trkpt lat="45.84647" lon="4.7012">
        <ele>278.08325</ele>
        <time>2023-12-07T12:33:20.000Z</time>
      </trkpt>
      <trkpt lat="45.84651" lon="4.70116">
        <ele>278.10022</ele>
        <time>2023-12-07T12:33:21.000Z</time>
      </trkpt>
      <trkpt lat="45.84654" lon="4.70112">
        <ele>278.17889</ele>
        <time>2023-12-07T12:33:22.000Z</time>
      </trkpt>
      <trkpt lat="45.84658" lon="4.70107">
        <ele>278.25888</ele>
        <time>2023-12-07T12:33:23.000Z</time>
      </trkpt>
      <trkpt lat="45.84662" lon="4.70103">
        <ele>278.40057</ele>
        <time>2023-12-07T12:33:24.000Z</time>
      </trkpt>
      <trkpt lat="45.84667" lon="4.70099">
        <ele>278.4863</ele>
        <time>2023-12-07T12:33:25.000Z</time>
      </trkpt>
      <trkpt lat="45.84672" lon="4.70093">
        <ele>278.72754</ele>
        <time>2023-12-07T12:33:26.000Z</time>
      </trkpt>
      <trkpt lat="45.84677" lon="4.70088">
        <ele>279.00986</ele>
        <time>2023-12-07T12:33:27.000Z</time>
      </trkpt>
      <trkpt lat="45.84684" lon="4.70085">
        <ele>279.23096</ele>
        <time>2023-12-07T12:33:28.000Z</time>
      </trkpt>
      <trkpt lat="45.84689" lon="4.70079">
        <ele>279.39102</ele>
        <time>2023-12-07T12:33:29.000Z</time>
      </trkpt>
      <trkpt lat="45.84693" lon="4.70074">
        <ele>279.55145</ele>
        <time>2023-12-07T12:33:30.000Z</time>
      </trkpt>
      <trkpt lat="45.84699" lon="4.7007">
        <ele>279.68866</ele>
        <time>2023-12-07T12:33:31.000Z</time>
      </trkpt>
      <trkpt lat="45.84705" lon="4.70064">
        <ele>279.77399</ele>
        <time>2023-12-07T12:33:32.000Z</time>
      </trkpt>
      <trkpt lat="45.8471" lon="4.70059">
        <ele>279.82721</ele>
        <time>2023-12-07T12:33:33.000Z</time>
      </trkpt>
      <trkpt lat="45.84715" lon="4.70054">
        <ele>279.88409</ele>
        <time>2023-12-07T12:33:34.000Z</time>
      </trkpt>
      <trkpt lat="45.8472" lon="4.70049">
        <ele>279.66037</ele>
        <time>2023-12-07T12:33:35.000Z</time>
      </trkpt>
      <trkpt lat="45.84726" lon="4.70043">
        <ele>279.46539</ele>
        <time>2023-12-07T12:33:36.000Z</time>
      </trkpt>
      <trkpt lat="45.84731" lon="4.70038">
        <ele>279.29846</ele>
        <time>2023-12-07T12:33:37.000Z</time>
      </trkpt>
      <trkpt lat="45.84737" lon="4.70036">
        <ele>279.03836</ele>
        <time>2023-12-07T12:33:38.000Z</time>
      </trkpt>
      <trkpt lat="45.84743" lon="4.70032">
        <ele>278.7215</ele>
        <time>2023-12-07T12:33:39.000Z</time>
      </trkpt>
      <trkpt lat="45.84749" lon="4.70027">
        <ele>278.29218</ele>
        <time>2023-12-07T12:33:40.000Z</time>
      </trkpt>
      <trkpt lat="45.84755" lon="4.70023">
        <ele>277.84772</ele>
        <time>2023-12-07T12:33:41.000Z</time>
      </trkpt>
      <trkpt lat="45.84761" lon="4.7002">
        <ele>277.40225</ele>
        <time>2023-12-07T12:33:42.000Z</time>
      </trkpt>
      <trkpt lat="45.84767" lon="4.70018">
        <ele>276.94565</ele>
        <time>2023-12-07T12:33:43.000Z</time>
      </trkpt>
      <trkpt lat="45.84773" lon="4.70017">
        <ele>276.45273</ele>
        <time>2023-12-07T12:33:44.000Z</time>
      </trkpt>
      <trkpt lat="45.84778" lon="4.70017">
        <ele>276.01227</ele>
        <time>2023-12-07T12:33:45.000Z</time>
      </trkpt>
      <trkpt lat="45.84784" lon="4.70016">
        <ele>275.60464</ele>
        <time>2023-12-07T12:33:46.000Z</time>
      </trkpt>
      <trkpt lat="45.84789" lon="4.70015">
        <ele>275.15741</ele>
        <time>2023-12-07T12:33:47.000Z</time>
      </trkpt>
      <trkpt lat="45.84796" lon="4.70015">
        <ele>274.77402</ele>
        <time>2023-12-07T12:33:48.000Z</time>
      </trkpt>
      <trkpt lat="45.84802" lon="4.70013">
        <ele>274.46671</ele>
        <time>2023-12-07T12:33:49.000Z</time>
      </trkpt>
      <trkpt lat="45.84807" lon="4.70013">
        <ele>274.27362</ele>
        <time>2023-12-07T12:33:50.000Z</time>
      </trkpt>
      <trkpt lat="45.84813" lon="4.70009">
        <ele>274.10513</ele>
        <time>2023-12-07T12:33:51.000Z</time>
      </trkpt>
      <trkpt lat="45.84817" lon="4.70006">
        <ele>273.94595</ele>
        <time>2023-12-07T12:33:52.000Z</time>
      </trkpt>
      <trkpt lat="45.84822" lon="4.70004">
        <ele>273.3779</ele>
        <time>2023-12-07T12:33:53.000Z</time>
      </trkpt>
      <trkpt lat="45.84825" lon="4.70001">
        <ele>272.75671</ele>
        <time>2023-12-07T12:33:54.000Z</time>
      </trkpt>
      <trkpt lat="45.84831" lon="4.69996">
        <ele>272.46841</ele>
        <time>2023-12-07T12:33:55.000Z</time>
      </trkpt>
      <trkpt lat="45.84836" lon="4.69994">
        <ele>272.14893</ele>
        <time>2023-12-07T12:33:56.000Z</time>
      </trkpt>
      <trkpt lat="45.84841" lon="4.69988">
        <ele>271.84756</ele>
        <time>2023-12-07T12:33:57.000Z</time>
      </trkpt>
      <trkpt lat="45.84846" lon="4.69982">
        <ele>271.54352</ele>
        <time>2023-12-07T12:33:58.000Z</time>
      </trkpt>
      <trkpt lat="45.8485" lon="4.69977">
        <ele>271.26074</ele>
        <time>2023-12-07T12:33:59.000Z</time>
      </trkpt>
      <trkpt lat="45.84854" lon="4.69973">
        <ele>271.07254</ele>
        <time>2023-12-07T12:34:00.000Z</time>
      </trkpt>
      <trkpt lat="45.84858" lon="4.69969">
        <ele>270.87613</ele>
        <time>2023-12-07T12:34:01.000Z</time>
      </trkpt>
      <trkpt lat="45.84863" lon="4.69966">
        <ele>270.6413</ele>
        <time>2023-12-07T12:34:02.000Z</time>
      </trkpt>
      <trkpt lat="45.84868" lon="4.69965">
        <ele>270.44211</ele>
        <time>2023-12-07T12:34:03.000Z</time>
      </trkpt>
      <trkpt lat="45.84875" lon="4.69964">
        <ele>270.21738</ele>
        <time>2023-12-07T12:34:04.000Z</time>
      </trkpt>
      <trkpt lat="45.84881" lon="4.69961">
        <ele>270.02118</ele>
        <time>2023-12-07T12:34:05.000Z</time>
      </trkpt>
      <trkpt lat="45.84887" lon="4.69957">
        <ele>269.85239</ele>
        <time>2023-12-07T12:34:06.000Z</time>
      </trkpt>
      <trkpt lat="45.84893" lon="4.69955">
        <ele>269.5632</ele>
        <time>2023-12-07T12:34:07.000Z</time>
      </trkpt>
      <trkpt lat="45.84897" lon="4.69952">
        <ele>269.36533</ele>
        <time>2023-12-07T12:34:08.000Z</time>
      </trkpt>
      <trkpt lat="45.84904" lon="4.69952">
        <ele>268.56311</ele>
        <time>2023-12-07T12:34:09.000Z</time>
      </trkpt>
      <trkpt lat="45.8491" lon="4.69952">
        <ele>267.80508</ele>
        <time>2023-12-07T12:34:10.000Z</time>
      </trkpt>
      <trkpt lat="45.84917" lon="4.69954">
        <ele>267.05121</ele>
        <time>2023-12-07T12:34:11.000Z</time>
      </trkpt>
      <trkpt lat="45.84922" lon="4.69953">
        <ele>266.48468</ele>
        <time>2023-12-07T12:34:12.000Z</time>
      </trkpt>
      <trkpt lat="45.84927" lon="4.69953">
        <ele>266.71027</ele>
        <time>2023-12-07T12:34:13.000Z</time>
      </trkpt>
      <trkpt lat="45.84935" lon="4.69953">
        <ele>267.11838</ele>
        <time>2023-12-07T12:34:14.000Z</time>
      </trkpt>
      <trkpt lat="45.84941" lon="4.69956">
        <ele>266.86591</ele>
        <time>2023-12-07T12:34:15.000Z</time>
      </trkpt>
      <trkpt lat="45.84948" lon="4.69953">
        <ele>266.70529</ele>
        <time>2023-12-07T12:34:16.000Z</time>
      </trkpt>
      <trkpt lat="45.84953" lon="4.69951">
        <ele>266.48273</ele>
        <time>2023-12-07T12:34:17.000Z</time>
      </trkpt>
      <trkpt lat="45.84958" lon="4.69948">
        <ele>266.49777</ele>
        <time>2023-12-07T12:34:18.000Z</time>
      </trkpt>
      <trkpt lat="45.84963" lon="4.69946">
        <ele>266.58548</ele>
        <time>2023-12-07T12:34:19.000Z</time>
      </trkpt>
      <trkpt lat="45.84967" lon="4.69943">
        <ele>266.55698</ele>
        <time>2023-12-07T12:34:20.000Z</time>
      </trkpt>
      <trkpt lat="45.84973" lon="4.69941">
        <ele>266.56659</ele>
        <time>2023-12-07T12:34:21.000Z</time>
      </trkpt>
      <trkpt lat="45.8498" lon="4.69939">
        <ele>266.88593</ele>
        <time>2023-12-07T12:34:22.000Z</time>
      </trkpt>
      <trkpt lat="45.84985" lon="4.69934">
        <ele>267.22946</ele>
        <time>2023-12-07T12:34:23.000Z</time>
      </trkpt>
      <trkpt lat="45.84991" lon="4.69927">
        <ele>267.67795</ele>
        <time>2023-12-07T12:34:24.000Z</time>
      </trkpt>
      <trkpt lat="45.84996" lon="4.6992">
        <ele>267.31152</ele>
        <time>2023-12-07T12:34:25.000Z</time>
      </trkpt>
      <trkpt lat="45.85002" lon="4.69915">
        <ele>266.79834</ele>
        <time>2023-12-07T12:34:26.000Z</time>
      </trkpt>
      <trkpt lat="45.85007" lon="4.69913">
        <ele>266.38293</ele>
        <time>2023-12-07T12:34:27.000Z</time>
      </trkpt>
      <trkpt lat="45.85014" lon="4.69909">
        <ele>265.82962</ele>
        <time>2023-12-07T12:34:28.000Z</time>
      </trkpt>
      <trkpt lat="45.85019" lon="4.69905">
        <ele>265.73572</ele>
        <time>2023-12-07T12:34:29.000Z</time>
      </trkpt>
      <trkpt lat="45.85024" lon="4.69902">
        <ele>265.35345</ele>
        <time>2023-12-07T12:34:30.000Z</time>
      </trkpt>
      <trkpt lat="45.85029" lon="4.69899">
        <ele>264.90506</ele>
        <time>2023-12-07T12:34:31.000Z</time>
      </trkpt>
      <trkpt lat="45.85035" lon="4.69894">
        <ele>264.29181</ele>
        <time>2023-12-07T12:34:32.000Z</time>
      </trkpt>
      <trkpt lat="45.8504" lon="4.69895">
        <ele>263.49966</ele>
        <time>2023-12-07T12:34:33.000Z</time>
      </trkpt>
      <trkpt lat="45.85045" lon="4.69896">
        <ele>262.47223</ele>
        <time>2023-12-07T12:34:34.000Z</time>
      </trkpt>
      <trkpt lat="45.85051" lon="4.69896">
        <ele>262.07956</ele>
        <time>2023-12-07T12:34:35.000Z</time>
      </trkpt>
      <trkpt lat="45.85056" lon="4.69895">
        <ele>261.60114</ele>
        <time>2023-12-07T12:34:36.000Z</time>
      </trkpt>
      <trkpt lat="45.8506" lon="4.69895">
        <ele>261.14468</ele>
        <time>2023-12-07T12:34:37.000Z</time>
      </trkpt>
      <trkpt lat="45.85065" lon="4.69892">
        <ele>260.80219</ele>
        <time>2023-12-07T12:34:38.000Z</time>
      </trkpt>
      <trkpt lat="45.85069" lon="4.69889">
        <ele>259.63635</ele>
        <time>2023-12-07T12:34:39.000Z</time>
      </trkpt>
      <trkpt lat="45.85074" lon="4.69886">
        <ele>258.60132</ele>
        <time>2023-12-07T12:34:40.000Z</time>
      </trkpt>
      <trkpt lat="45.85079" lon="4.69882">
        <ele>257.52118</ele>
        <time>2023-12-07T12:34:41.000Z</time>
      </trkpt>
      <trkpt lat="45.85085" lon="4.69879">
        <ele>256.16046</ele>
        <time>2023-12-07T12:34:42.000Z</time>
      </trkpt>
      <trkpt lat="45.85089" lon="4.69875">
        <ele>254.76704</ele>
        <time>2023-12-07T12:34:43.000Z</time>
      </trkpt>
      <trkpt lat="45.85093" lon="4.69871">
        <ele>253.27266</ele>
        <time>2023-12-07T12:34:44.000Z</time>
      </trkpt>
      <trkpt lat="45.85097" lon="4.69867">
        <ele>252.50952</ele>
        <time>2023-12-07T12:34:45.000Z</time>
      </trkpt>
      <trkpt lat="45.85102" lon="4.69862">
        <ele>251.67587</ele>
        <time>2023-12-07T12:34:46.000Z</time>
      </trkpt>
      <trkpt lat="45.85107" lon="4.69857">
        <ele>250.8459</ele>
        <time>2023-12-07T12:34:47.000Z</time>
      </trkpt>
      <trkpt lat="45.85112" lon="4.69853">
        <ele>250.38631</ele>
        <time>2023-12-07T12:34:48.000Z</time>
      </trkpt>
      <trkpt lat="45.85116" lon="4.69848">
        <ele>250.05461</ele>
        <time>2023-12-07T12:34:49.000Z</time>
      </trkpt>
      <trkpt lat="45.8512" lon="4.69845">
        <ele>249.84924</ele>
        <time>2023-12-07T12:34:50.000Z</time>
      </trkpt>
      <trkpt lat="45.85125" lon="4.69844">
        <ele>249.71646</ele>
        <time>2023-12-07T12:34:51.000Z</time>
      </trkpt>
      <trkpt lat="45.8513" lon="4.69843">
        <ele>249.5614</ele>
        <time>2023-12-07T12:34:52.000Z</time>
      </trkpt>
      <trkpt lat="45.85135" lon="4.69841">
        <ele>249.21655</ele>
        <time>2023-12-07T12:34:53.000Z</time>
      </trkpt>
      <trkpt lat="45.85138" lon="4.69837">
        <ele>248.95496</ele>
        <time>2023-12-07T12:34:54.000Z</time>
      </trkpt>
      <trkpt lat="45.85141" lon="4.69835">
        <ele>248.76591</ele>
        <time>2023-12-07T12:34:55.000Z</time>
      </trkpt>
      <trkpt lat="45.85144" lon="4.69828">
        <ele>248.4373</ele>
        <time>2023-12-07T12:34:56.000Z</time>
      </trkpt>
      <trkpt lat="45.85145" lon="4.69821">
        <ele>248.201</ele>
        <time>2023-12-07T12:34:57.000Z</time>
      </trkpt>
      <trkpt lat="45.85144" lon="4.69812">
        <ele>247.78531</ele>
        <time>2023-12-07T12:34:58.000Z</time>
      </trkpt>
      <trkpt lat="45.85143" lon="4.69803">
        <ele>248.20818</ele>
        <time>2023-12-07T12:34:59.000Z</time>
      </trkpt>
      <trkpt lat="45.85142" lon="4.69794">
        <ele>248.59444</ele>
        <time>2023-12-07T12:35:00.000Z</time>
      </trkpt>
      <trkpt lat="45.85138" lon="4.69783">
        <ele>248.9584</ele>
        <time>2023-12-07T12:35:01.000Z</time>
      </trkpt>
      <trkpt lat="45.85136" lon="4.69771">
        <ele>249.45174</ele>
        <time>2023-12-07T12:35:02.000Z</time>
      </trkpt>
      <trkpt lat="45.85136" lon="4.69759">
        <ele>250.05376</ele>
        <time>2023-12-07T12:35:03.000Z</time>
      </trkpt>
      <trkpt lat="45.85136" lon="4.69748">
        <ele>249.75278</ele>
        <time>2023-12-07T12:35:04.000Z</time>
      </trkpt>
      <trkpt lat="45.85136" lon="4.69736">
        <ele>249.67485</ele>
        <time>2023-12-07T12:35:05.000Z</time>
      </trkpt>
      <trkpt lat="45.85134" lon="4.69726">
        <ele>249.61031</ele>
        <time>2023-12-07T12:35:06.000Z</time>
      </trkpt>
      <trkpt lat="45.85133" lon="4.69716">
        <ele>249.43771</ele>
        <time>2023-12-07T12:35:07.000Z</time>
      </trkpt>
      <trkpt lat="45.85133" lon="4.69708">
        <ele>248.92969</ele>
        <time>2023-12-07T12:35:08.000Z</time>
      </trkpt>
      <trkpt lat="45.85133" lon="4.69698">
        <ele>248.37935</ele>
        <time>2023-12-07T12:35:09.000Z</time>
      </trkpt>
      <trkpt lat="45.85131" lon="4.69691">
        <ele>247.76212</ele>
        <time>2023-12-07T12:35:10.000Z</time>
      </trkpt>
      <trkpt lat="45.85132" lon="4.69686">
        <ele>247.19717</ele>
        <time>2023-12-07T12:35:11.000Z</time>
      </trkpt>
      <trkpt lat="45.85132" lon="4.69679">
        <ele>246.77109</ele>
        <time>2023-12-07T12:35:12.000Z</time>
      </trkpt>
      <trkpt lat="45.85128" lon="4.69673">
        <ele>246.17392</ele>
        <time>2023-12-07T12:35:13.000Z</time>
      </trkpt>
      <trkpt lat="45.85127" lon="4.69668">
        <ele>245.99753</ele>
        <time>2023-12-07T12:35:14.000Z</time>
      </trkpt>
      <trkpt lat="45.85126" lon="4.69662">
        <ele>246.06345</ele>
        <time>2023-12-07T12:35:15.000Z</time>
      </trkpt>
      <trkpt lat="45.85126" lon="4.69659">
        <ele>246.38066</ele>
        <time>2023-12-07T12:35:16.000Z</time>
      </trkpt>
      <trkpt lat="45.85124" lon="4.69655">
        <ele>246.53098</ele>
        <time>2023-12-07T12:35:17.000Z</time>
      </trkpt>
      <trkpt lat="45.85123" lon="4.69651">
        <ele>246.55539</ele>
        <time>2023-12-07T12:35:18.000Z</time>
      </trkpt>
      <trkpt lat="45.85122" lon="4.69647">
        <ele>245.61343</ele>
        <time>2023-12-07T12:35:19.000Z</time>
      </trkpt>
      <trkpt lat="45.85122" lon="4.69642">
        <ele>244.72787</ele>
        <time>2023-12-07T12:35:20.000Z</time>
      </trkpt>
      <trkpt lat="45.8512" lon="4.69636">
        <ele>243.8558</ele>
        <time>2023-12-07T12:35:21.000Z</time>
      </trkpt>
      <trkpt lat="45.85121" lon="4.6963">
        <ele>242.86006</ele>
        <time>2023-12-07T12:35:22.000Z</time>
      </trkpt>
      <trkpt lat="45.8512" lon="4.69624">
        <ele>241.73799</ele>
        <time>2023-12-07T12:35:23.000Z</time>
      </trkpt>
      <trkpt lat="45.85121" lon="4.69616">
        <ele>241.53085</ele>
        <time>2023-12-07T12:35:24.000Z</time>
      </trkpt>
      <trkpt lat="45.85121" lon="4.69608">
        <ele>241.1304</ele>
        <time>2023-12-07T12:35:25.000Z</time>
      </trkpt>
      <trkpt lat="45.85122" lon="4.69601">
        <ele>240.75703</ele>
        <time>2023-12-07T12:35:26.000Z</time>
      </trkpt>
      <trkpt lat="45.85123" lon="4.69594">
        <ele>240.50932</ele>
        <time>2023-12-07T12:35:27.000Z</time>
      </trkpt>
      <trkpt lat="45.85124" lon="4.69587">
        <ele>240.26315</ele>
        <time>2023-12-07T12:35:28.000Z</time>
      </trkpt>
      <trkpt lat="45.85125" lon="4.6958">
        <ele>240.08916</ele>
        <time>2023-12-07T12:35:29.000Z</time>
      </trkpt>
      <trkpt lat="45.85126" lon="4.69573">
        <ele>239.98637</ele>
        <time>2023-12-07T12:35:30.000Z</time>
      </trkpt>
      <trkpt lat="45.85126" lon="4.69567">
        <ele>239.79321</ele>
        <time>2023-12-07T12:35:31.000Z</time>
      </trkpt>
      <trkpt lat="45.85127" lon="4.6956">
        <ele>239.55257</ele>
        <time>2023-12-07T12:35:32.000Z</time>
      </trkpt>
      <trkpt lat="45.85128" lon="4.69553">
        <ele>239.44182</ele>
        <time>2023-12-07T12:35:33.000Z</time>
      </trkpt>
      <trkpt lat="45.85129" lon="4.69546">
        <ele>238.8511</ele>
        <time>2023-12-07T12:35:34.000Z</time>
      </trkpt>
      <trkpt lat="45.8513" lon="4.6954">
        <ele>237.93979</ele>
        <time>2023-12-07T12:35:35.000Z</time>
      </trkpt>
      <trkpt lat="45.8513" lon="4.69534">
        <ele>236.9137</ele>
        <time>2023-12-07T12:35:36.000Z</time>
      </trkpt>
      <trkpt lat="45.85131" lon="4.69528">
        <ele>235.99463</ele>
        <time>2023-12-07T12:35:37.000Z</time>
      </trkpt>
      <trkpt lat="45.85132" lon="4.69521">
        <ele>234.99516</ele>
        <time>2023-12-07T12:35:38.000Z</time>
      </trkpt>
      <trkpt lat="45.85133" lon="4.69514">
        <ele>234.9534</ele>
        <time>2023-12-07T12:35:39.000Z</time>
      </trkpt>
      <trkpt lat="45.85134" lon="4.69507">
        <ele>234.8326</ele>
        <time>2023-12-07T12:35:40.000Z</time>
      </trkpt>
      <trkpt lat="45.85134" lon="4.69499">
        <ele>235.14001</ele>
        <time>2023-12-07T12:35:41.000Z</time>
      </trkpt>
      <trkpt lat="45.85137" lon="4.69492">
        <ele>235.71951</ele>
        <time>2023-12-07T12:35:42.000Z</time>
      </trkpt>
      <trkpt lat="45.85139" lon="4.69485">
        <ele>235.4659</ele>
        <time>2023-12-07T12:35:43.000Z</time>
      </trkpt>
      <trkpt lat="45.8514" lon="4.69478">
        <ele>235.35818</ele>
        <time>2023-12-07T12:35:44.000Z</time>
      </trkpt>
      <trkpt lat="45.85141" lon="4.69469">
        <ele>235.25461</ele>
        <time>2023-12-07T12:35:45.000Z</time>
      </trkpt>
      <trkpt lat="45.85143" lon="4.69462">
        <ele>235.54233</ele>
        <time>2023-12-07T12:35:46.000Z</time>
      </trkpt>
      <trkpt lat="45.85144" lon="4.69453">
        <ele>235.88013</ele>
        <time>2023-12-07T12:35:47.000Z</time>
      </trkpt>
      <trkpt lat="45.85145" lon="4.69444">
        <ele>236.58401</ele>
        <time>2023-12-07T12:35:48.000Z</time>
      </trkpt>
      <trkpt lat="45.85147" lon="4.69436">
        <ele>236.37248</ele>
        <time>2023-12-07T12:35:49.000Z</time>
      </trkpt>
      <trkpt lat="45.85149" lon="4.69428">
        <ele>236.2413</ele>
        <time>2023-12-07T12:35:50.000Z</time>
      </trkpt>
      <trkpt lat="45.85151" lon="4.69419">
        <ele>236.18381</ele>
        <time>2023-12-07T12:35:51.000Z</time>
      </trkpt>
      <trkpt lat="45.85153" lon="4.69411">
        <ele>236.04227</ele>
        <time>2023-12-07T12:35:52.000Z</time>
      </trkpt>
      <trkpt lat="45.85156" lon="4.69403">
        <ele>235.8571</ele>
        <time>2023-12-07T12:35:53.000Z</time>
      </trkpt>
      <trkpt lat="45.85158" lon="4.69395">
        <ele>235.77127</ele>
        <time>2023-12-07T12:35:54.000Z</time>
      </trkpt>
      <trkpt lat="45.8516" lon="4.69386">
        <ele>235.71065</ele>
        <time>2023-12-07T12:35:55.000Z</time>
      </trkpt>
      <trkpt lat="45.85162" lon="4.69378">
        <ele>235.61165</ele>
        <time>2023-12-07T12:35:56.000Z</time>
      </trkpt>
      <trkpt lat="45.85164" lon="4.69369">
        <ele>235.53159</ele>
        <time>2023-12-07T12:35:57.000Z</time>
      </trkpt>
      <trkpt lat="45.85164" lon="4.6936">
        <ele>234.33684</ele>
        <time>2023-12-07T12:35:58.000Z</time>
      </trkpt>
      <trkpt lat="45.85166" lon="4.69351">
        <ele>233.07394</ele>
        <time>2023-12-07T12:35:59.000Z</time>
      </trkpt>
      <trkpt lat="45.85168" lon="4.69344">
        <ele>231.77153</ele>
        <time>2023-12-07T12:36:00.000Z</time>
      </trkpt>
      <trkpt lat="45.8517" lon="4.69334">
        <ele>230.13969</ele>
        <time>2023-12-07T12:36:01.000Z</time>
      </trkpt>
      <trkpt lat="45.85171" lon="4.69326">
        <ele>228.25247</ele>
        <time>2023-12-07T12:36:02.000Z</time>
      </trkpt>
      <trkpt lat="45.85172" lon="4.69317">
        <ele>227.20056</ele>
        <time>2023-12-07T12:36:03.000Z</time>
      </trkpt>
      <trkpt lat="45.85174" lon="4.69308">
        <ele>225.9893</ele>
        <time>2023-12-07T12:36:04.000Z</time>
      </trkpt>
      <trkpt lat="45.85174" lon="4.69299">
        <ele>224.74715</ele>
        <time>2023-12-07T12:36:05.000Z</time>
      </trkpt>
      <trkpt lat="45.85176" lon="4.69291">
        <ele>223.10367</ele>
        <time>2023-12-07T12:36:06.000Z</time>
      </trkpt>
      <trkpt lat="45.85178" lon="4.69284">
        <ele>221.45267</ele>
        <time>2023-12-07T12:36:07.000Z</time>
      </trkpt>
      <trkpt lat="45.8518" lon="4.69275">
        <ele>219.45247</ele>
        <time>2023-12-07T12:36:08.000Z</time>
      </trkpt>
      <trkpt lat="45.85181" lon="4.69268">
        <ele>218.32263</ele>
        <time>2023-12-07T12:36:09.000Z</time>
      </trkpt>
      <trkpt lat="45.8518" lon="4.6926">
        <ele>217.13864</ele>
        <time>2023-12-07T12:36:10.000Z</time>
      </trkpt>
      <trkpt lat="45.85179" lon="4.69251">
        <ele>215.99612</ele>
        <time>2023-12-07T12:36:11.000Z</time>
      </trkpt>
      <trkpt lat="45.85177" lon="4.69244">
        <ele>214.88042</ele>
        <time>2023-12-07T12:36:12.000Z</time>
      </trkpt>
      <trkpt lat="45.85176" lon="4.69236">
        <ele>213.77368</ele>
        <time>2023-12-07T12:36:13.000Z</time>
      </trkpt>
      <trkpt lat="45.85176" lon="4.69229">
        <ele>212.62509</ele>
        <time>2023-12-07T12:36:14.000Z</time>
      </trkpt>
      <trkpt lat="45.85176" lon="4.69222">
        <ele>211.45085</ele>
        <time>2023-12-07T12:36:15.000Z</time>
      </trkpt>
      <trkpt lat="45.85177" lon="4.69214">
        <ele>210.30994</ele>
        <time>2023-12-07T12:36:16.000Z</time>
      </trkpt>
      <trkpt lat="45.85178" lon="4.69206">
        <ele>209.12253</ele>
        <time>2023-12-07T12:36:17.000Z</time>
      </trkpt>
      <trkpt lat="45.85182" lon="4.692">
        <ele>209.15584</ele>
        <time>2023-12-07T12:36:18.000Z</time>
      </trkpt>
      <trkpt lat="45.85185" lon="4.69196">
        <ele>209.1617</ele>
        <time>2023-12-07T12:36:19.000Z</time>
      </trkpt>
      <trkpt lat="45.8519" lon="4.69193">
        <ele>209.14236</ele>
        <time>2023-12-07T12:36:20.000Z</time>
      </trkpt>
      <trkpt lat="45.85195" lon="4.6919">
        <ele>209.04562</ele>
        <time>2023-12-07T12:36:21.000Z</time>
      </trkpt>
      <trkpt lat="45.85201" lon="4.69188">
        <ele>208.90007</ele>
        <time>2023-12-07T12:36:22.000Z</time>
      </trkpt>
      <trkpt lat="45.85205" lon="4.69187">
        <ele>208.79659</ele>
        <time>2023-12-07T12:36:23.000Z</time>
      </trkpt>
      <trkpt lat="45.85211" lon="4.69186">
        <ele>208.67876</ele>
        <time>2023-12-07T12:36:24.000Z</time>
      </trkpt>
      <trkpt lat="45.85217" lon="4.69185">
        <ele>208.62808</ele>
        <time>2023-12-07T12:36:25.000Z</time>
      </trkpt>
      <trkpt lat="45.85221" lon="4.69184">
        <ele>208.43936</ele>
        <time>2023-12-07T12:36:26.000Z</time>
      </trkpt>
      <trkpt lat="45.85227" lon="4.69183">
        <ele>208.22037</ele>
        <time>2023-12-07T12:36:27.000Z</time>
      </trkpt>
      <trkpt lat="45.85232" lon="4.69182">
        <ele>207.99821</ele>
        <time>2023-12-07T12:36:28.000Z</time>
      </trkpt>
      <trkpt lat="45.85238" lon="4.69179">
        <ele>207.78299</ele>
        <time>2023-12-07T12:36:29.000Z</time>
      </trkpt>
      <trkpt lat="45.85243" lon="4.69175">
        <ele>207.55733</ele>
        <time>2023-12-07T12:36:30.000Z</time>
      </trkpt>
      <trkpt lat="45.85248" lon="4.69171">
        <ele>207.2699</ele>
        <time>2023-12-07T12:36:31.000Z</time>
      </trkpt>
      <trkpt lat="45.85252" lon="4.69165">
        <ele>206.99826</ele>
        <time>2023-12-07T12:36:32.000Z</time>
      </trkpt>
      <trkpt lat="45.85256" lon="4.6916">
        <ele>206.80766</ele>
        <time>2023-12-07T12:36:33.000Z</time>
      </trkpt>
      <trkpt lat="45.8526" lon="4.69154">
        <ele>206.62651</ele>
        <time>2023-12-07T12:36:34.000Z</time>
      </trkpt>
      <trkpt lat="45.85264" lon="4.69148">
        <ele>206.46945</ele>
        <time>2023-12-07T12:36:35.000Z</time>
      </trkpt>
      <trkpt lat="45.85267" lon="4.69142">
        <ele>206.31088</ele>
        <time>2023-12-07T12:36:36.000Z</time>
      </trkpt>
      <trkpt lat="45.8527" lon="4.69136">
        <ele>206.15691</ele>
        <time>2023-12-07T12:36:37.000Z</time>
      </trkpt>
      <trkpt lat="45.85274" lon="4.6913">
        <ele>206.0031</ele>
        <time>2023-12-07T12:36:38.000Z</time>
      </trkpt>
      <trkpt lat="45.85277" lon="4.69124">
        <ele>205.8625</ele>
        <time>2023-12-07T12:36:39.000Z</time>
      </trkpt>
      <trkpt lat="45.8528" lon="4.69119">
        <ele>205.78348</ele>
        <time>2023-12-07T12:36:40.000Z</time>
      </trkpt>
      <trkpt lat="45.85283" lon="4.69114">
        <ele>205.696</ele>
        <time>2023-12-07T12:36:41.000Z</time>
      </trkpt>
      <trkpt lat="45.85285" lon="4.69108">
        <ele>205.62508</ele>
        <time>2023-12-07T12:36:42.000Z</time>
      </trkpt>
      <trkpt lat="45.85289" lon="4.69102">
        <ele>205.54495</ele>
        <time>2023-12-07T12:36:43.000Z</time>
      </trkpt>
      <trkpt lat="45.85293" lon="4.69096">
        <ele>205.50667</ele>
        <time>2023-12-07T12:36:44.000Z</time>
      </trkpt>
      <trkpt lat="45.85297" lon="4.6909">
        <ele>205.48251</ele>
        <time>2023-12-07T12:36:45.000Z</time>
      </trkpt>
      <trkpt lat="45.85301" lon="4.69084">
        <ele>205.57727</ele>
        <time>2023-12-07T12:36:46.000Z</time>
      </trkpt>
      <trkpt lat="45.85305" lon="4.69078">
        <ele>205.68405</ele>
        <time>2023-12-07T12:36:47.000Z</time>
      </trkpt>
      <trkpt lat="45.85309" lon="4.69071">
        <ele>205.81892</ele>
        <time>2023-12-07T12:36:48.000Z</time>
      </trkpt>
      <trkpt lat="45.85312" lon="4.69065">
        <ele>205.8938</ele>
        <time>2023-12-07T12:36:49.000Z</time>
      </trkpt>
      <trkpt lat="45.85315" lon="4.69058">
        <ele>205.94002</ele>
        <time>2023-12-07T12:36:50.000Z</time>
      </trkpt>
      <trkpt lat="45.85319" lon="4.69052">
        <ele>205.99991</ele>
        <time>2023-12-07T12:36:51.000Z</time>
      </trkpt>
      <trkpt lat="45.85322" lon="4.69045">
        <ele>206.01749</ele>
        <time>2023-12-07T12:36:52.000Z</time>
      </trkpt>
      <trkpt lat="45.85325" lon="4.69039">
        <ele>206.04903</ele>
        <time>2023-12-07T12:36:53.000Z</time>
      </trkpt>
      <trkpt lat="45.85329" lon="4.69032">
        <ele>206.03943</ele>
        <time>2023-12-07T12:36:54.000Z</time>
      </trkpt>
      <trkpt lat="45.85332" lon="4.69026">
        <ele>205.97458</ele>
        <time>2023-12-07T12:36:55.000Z</time>
      </trkpt>
      <trkpt lat="45.85335" lon="4.6902">
        <ele>205.91573</ele>
        <time>2023-12-07T12:36:56.000Z</time>
      </trkpt>
      <trkpt lat="45.85338" lon="4.69013">
        <ele>205.89262</ele>
        <time>2023-12-07T12:36:57.000Z</time>
      </trkpt>
      <trkpt lat="45.85342" lon="4.69006">
        <ele>205.91614</ele>
        <time>2023-12-07T12:36:58.000Z</time>
      </trkpt>
      <trkpt lat="45.85345" lon="4.69">
        <ele>205.9227</ele>
        <time>2023-12-07T12:36:59.000Z</time>
      </trkpt>
      <trkpt lat="45.85349" lon="4.68993">
        <ele>205.9187</ele>
        <time>2023-12-07T12:37:00.000Z</time>
      </trkpt>
      <trkpt lat="45.85352" lon="4.68987">
        <ele>205.82397</ele>
        <time>2023-12-07T12:37:01.000Z</time>
      </trkpt>
      <trkpt lat="45.85356" lon="4.68981">
        <ele>205.78003</ele>
        <time>2023-12-07T12:37:02.000Z</time>
      </trkpt>
      <trkpt lat="45.8536" lon="4.68973">
        <ele>205.78726</ele>
        <time>2023-12-07T12:37:03.000Z</time>
      </trkpt>
      <trkpt lat="45.85363" lon="4.68967">
        <ele>206.05704</ele>
        <time>2023-12-07T12:37:04.000Z</time>
      </trkpt>
      <trkpt lat="45.85366" lon="4.6896">
        <ele>206.2675</ele>
        <time>2023-12-07T12:37:05.000Z</time>
      </trkpt>
      <trkpt lat="45.85368" lon="4.68953">
        <ele>206.46748</ele>
        <time>2023-12-07T12:37:06.000Z</time>
      </trkpt>
      <trkpt lat="45.85371" lon="4.68946">
        <ele>206.63968</ele>
        <time>2023-12-07T12:37:07.000Z</time>
      </trkpt>
      <trkpt lat="45.85373" lon="4.6894">
        <ele>206.84038</ele>
        <time>2023-12-07T12:37:08.000Z</time>
      </trkpt>
      <trkpt lat="45.85376" lon="4.68933">
        <ele>207.14944</ele>
        <time>2023-12-07T12:37:09.000Z</time>
      </trkpt>
      <trkpt lat="45.85377" lon="4.68925">
        <ele>207.45525</ele>
        <time>2023-12-07T12:37:10.000Z</time>
      </trkpt>
      <trkpt lat="45.8538" lon="4.68919">
        <ele>207.75752</ele>
        <time>2023-12-07T12:37:11.000Z</time>
      </trkpt>
      <trkpt lat="45.85382" lon="4.68911">
        <ele>208.05322</ele>
        <time>2023-12-07T12:37:12.000Z</time>
      </trkpt>
      <trkpt lat="45.85385" lon="4.68905">
        <ele>208.37468</ele>
        <time>2023-12-07T12:37:13.000Z</time>
      </trkpt>
      <trkpt lat="45.85387" lon="4.68899">
        <ele>208.79028</ele>
        <time>2023-12-07T12:37:14.000Z</time>
      </trkpt>
      <trkpt lat="45.85391" lon="4.68891">
        <ele>209.35812</ele>
        <time>2023-12-07T12:37:15.000Z</time>
      </trkpt>
      <trkpt lat="45.85392" lon="4.68884">
        <ele>209.88823</ele>
        <time>2023-12-07T12:37:16.000Z</time>
      </trkpt>
      <trkpt lat="45.85394" lon="4.68878">
        <ele>210.39966</ele>
        <time>2023-12-07T12:37:17.000Z</time>
      </trkpt>
      <trkpt lat="45.85396" lon="4.6887">
        <ele>210.8457</ele>
        <time>2023-12-07T12:37:18.000Z</time>
      </trkpt>
      <trkpt lat="45.85397" lon="4.68864">
        <ele>211.28609</ele>
        <time>2023-12-07T12:37:19.000Z</time>
      </trkpt>
      <trkpt lat="45.85398" lon="4.68858">
        <ele>211.82039</ele>
        <time>2023-12-07T12:37:20.000Z</time>
      </trkpt>
      <trkpt lat="45.85399" lon="4.68851">
        <ele>212.09969</ele>
        <time>2023-12-07T12:37:21.000Z</time>
      </trkpt>
      <trkpt lat="45.85401" lon="4.68846">
        <ele>212.34225</ele>
        <time>2023-12-07T12:37:22.000Z</time>
      </trkpt>
      <trkpt lat="45.85403" lon="4.6884">
        <ele>212.52002</ele>
        <time>2023-12-07T12:37:23.000Z</time>
      </trkpt>
      <trkpt lat="45.85407" lon="4.68839">
        <ele>212.43527</ele>
        <time>2023-12-07T12:37:24.000Z</time>
      </trkpt>
      <trkpt lat="45.85411" lon="4.68839">
        <ele>212.35693</ele>
        <time>2023-12-07T12:37:25.000Z</time>
      </trkpt>
      <trkpt lat="45.85414" lon="4.68841">
        <ele>212.31845</ele>
        <time>2023-12-07T12:37:26.000Z</time>
      </trkpt>
      <trkpt lat="45.85418" lon="4.68843">
        <ele>212.28291</ele>
        <time>2023-12-07T12:37:27.000Z</time>
      </trkpt>
      <trkpt lat="45.85422" lon="4.68845">
        <ele>212.16785</ele>
        <time>2023-12-07T12:37:28.000Z</time>
      </trkpt>
      <trkpt lat="45.85427" lon="4.68846">
        <ele>212.04366</ele>
        <time>2023-12-07T12:37:29.000Z</time>
      </trkpt>
      <trkpt lat="45.85431" lon="4.68848">
        <ele>212.12021</ele>
        <time>2023-12-07T12:37:30.000Z</time>
      </trkpt>
      <trkpt lat="45.85434" lon="4.68852">
        <ele>212.24446</ele>
        <time>2023-12-07T12:37:31.000Z</time>
      </trkpt>
      <trkpt lat="45.85437" lon="4.68852">
        <ele>212.4126</ele>
        <time>2023-12-07T12:37:32.000Z</time>
      </trkpt>
      <trkpt lat="45.85442" lon="4.68852">
        <ele>212.52908</ele>
        <time>2023-12-07T12:37:33.000Z</time>
      </trkpt>
      <trkpt lat="45.85446" lon="4.68852">
        <ele>212.65674</ele>
        <time>2023-12-07T12:37:34.000Z</time>
      </trkpt>
      <trkpt lat="45.8545" lon="4.6885">
        <ele>212.66809</ele>
        <time>2023-12-07T12:37:35.000Z</time>
      </trkpt>
      <trkpt lat="45.85453" lon="4.68849">
        <ele>212.75175</ele>
        <time>2023-12-07T12:37:36.000Z</time>
      </trkpt>
      <trkpt lat="45.85457" lon="4.68847">
        <ele>212.47478</ele>
        <time>2023-12-07T12:37:37.000Z</time>
      </trkpt>
      <trkpt lat="45.85462" lon="4.68848">
        <ele>212.24704</ele>
        <time>2023-12-07T12:37:38.000Z</time>
      </trkpt>
      <trkpt lat="45.85466" lon="4.6885">
        <ele>212.03372</ele>
        <time>2023-12-07T12:37:39.000Z</time>
      </trkpt>
      <trkpt lat="45.85472" lon="4.6885">
        <ele>211.80099</ele>
        <time>2023-12-07T12:37:40.000Z</time>
      </trkpt>
      <trkpt lat="45.85471" lon="4.68847">
        <ele>211.93298</ele>
        <time>2023-12-07T12:37:41.000Z</time>
      </trkpt>
      <trkpt lat="45.85476" lon="4.68844">
        <ele>212.00278</ele>
        <time>2023-12-07T12:37:42.000Z</time>
      </trkpt>
      <trkpt lat="45.8548" lon="4.68843">
        <ele>212.03654</ele>
        <time>2023-12-07T12:37:43.000Z</time>
      </trkpt>
      <trkpt lat="45.85484" lon="4.68842">
        <ele>212.09415</ele>
        <time>2023-12-07T12:37:44.000Z</time>
      </trkpt>
      <trkpt lat="45.85488" lon="4.68841">
        <ele>212.15942</ele>
        <time>2023-12-07T12:37:45.000Z</time>
      </trkpt>
      <trkpt lat="45.85492" lon="4.6884">
        <ele>212.2636</ele>
        <time>2023-12-07T12:37:46.000Z</time>
      </trkpt>
      <trkpt lat="45.85496" lon="4.68838">
        <ele>212.48438</ele>
        <time>2023-12-07T12:37:47.000Z</time>
      </trkpt>
      <trkpt lat="45.85499" lon="4.68837">
        <ele>212.79143</ele>
        <time>2023-12-07T12:37:48.000Z</time>
      </trkpt>
      <trkpt lat="45.85501" lon="4.68834">
        <ele>213.1077</ele>
        <time>2023-12-07T12:37:49.000Z</time>
      </trkpt>
      <trkpt lat="45.85503" lon="4.6883">
        <ele>213.23006</ele>
        <time>2023-12-07T12:37:50.000Z</time>
      </trkpt>
      <trkpt lat="45.85504" lon="4.68825">
        <ele>213.29671</ele>
        <time>2023-12-07T12:37:51.000Z</time>
      </trkpt>
      <trkpt lat="45.85505" lon="4.6882">
        <ele>213.35306</ele>
        <time>2023-12-07T12:37:52.000Z</time>
      </trkpt>
      <trkpt lat="45.85505" lon="4.68815">
        <ele>213.3848</ele>
        <time>2023-12-07T12:37:53.000Z</time>
      </trkpt>
      <trkpt lat="45.85504" lon="4.68809">
        <ele>213.35184</ele>
        <time>2023-12-07T12:37:54.000Z</time>
      </trkpt>
      <trkpt lat="45.85504" lon="4.68803">
        <ele>213.32182</ele>
        <time>2023-12-07T12:37:55.000Z</time>
      </trkpt>
      <trkpt lat="45.85504" lon="4.68797">
        <ele>213.25204</ele>
        <time>2023-12-07T12:37:56.000Z</time>
      </trkpt>
      <trkpt lat="45.85503" lon="4.68791">
        <ele>213.57861</ele>
        <time>2023-12-07T12:37:57.000Z</time>
      </trkpt>
      <trkpt lat="45.85503" lon="4.68786">
        <ele>213.87796</ele>
        <time>2023-12-07T12:37:58.000Z</time>
      </trkpt>
      <trkpt lat="45.85502" lon="4.6878">
        <ele>214.21404</ele>
        <time>2023-12-07T12:37:59.000Z</time>
      </trkpt>
      <trkpt lat="45.85503" lon="4.68775">
        <ele>214.49362</ele>
        <time>2023-12-07T12:38:00.000Z</time>
      </trkpt>
      <trkpt lat="45.85505" lon="4.68769">
        <ele>214.75574</ele>
        <time>2023-12-07T12:38:01.000Z</time>
      </trkpt>
      <trkpt lat="45.85508" lon="4.68764">
        <ele>215.01352</ele>
        <time>2023-12-07T12:38:02.000Z</time>
      </trkpt>
      <trkpt lat="45.85513" lon="4.68761">
        <ele>215.26111</ele>
        <time>2023-12-07T12:38:03.000Z</time>
      </trkpt>
      <trkpt lat="45.85517" lon="4.68758">
        <ele>215.40849</ele>
        <time>2023-12-07T12:38:04.000Z</time>
      </trkpt>
      <trkpt lat="45.85521" lon="4.68756">
        <ele>215.54773</ele>
        <time>2023-12-07T12:38:05.000Z</time>
      </trkpt>
      <trkpt lat="45.85524" lon="4.68755">
        <ele>215.6198</ele>
        <time>2023-12-07T12:38:06.000Z</time>
      </trkpt>
      <trkpt lat="45.85528" lon="4.68754">
        <ele>215.57063</ele>
        <time>2023-12-07T12:38:07.000Z</time>
      </trkpt>
      <trkpt lat="45.85532" lon="4.68752">
        <ele>215.49577</ele>
        <time>2023-12-07T12:38:08.000Z</time>
      </trkpt>
      <trkpt lat="45.85535" lon="4.68752">
        <ele>215.40005</ele>
        <time>2023-12-07T12:38:09.000Z</time>
      </trkpt>
      <trkpt lat="45.85538" lon="4.68751">
        <ele>215.28008</ele>
        <time>2023-12-07T12:38:10.000Z</time>
      </trkpt>
      <trkpt lat="45.85541" lon="4.68752">
        <ele>215.15849</ele>
        <time>2023-12-07T12:38:11.000Z</time>
      </trkpt>
      <trkpt lat="45.85544" lon="4.68752">
        <ele>215.01555</ele>
        <time>2023-12-07T12:38:12.000Z</time>
      </trkpt>
      <trkpt lat="45.85546" lon="4.68753">
        <ele>214.89981</ele>
        <time>2023-12-07T12:38:13.000Z</time>
      </trkpt>
      <trkpt lat="45.85549" lon="4.68753">
        <ele>214.73296</ele>
        <time>2023-12-07T12:38:15.000Z</time>
      </trkpt>
      <trkpt lat="45.85551" lon="4.68757">
        <ele>214.55193</ele>
        <time>2023-12-07T12:38:17.000Z</time>
      </trkpt>
      <trkpt lat="45.85552" lon="4.68761">
        <ele>214.38864</ele>
        <time>2023-12-07T12:38:18.000Z</time>
      </trkpt>
      <trkpt lat="45.85555" lon="4.68766">
        <ele>214.13464</ele>
        <time>2023-12-07T12:38:19.000Z</time>
      </trkpt>
      <trkpt lat="45.85558" lon="4.68767">
        <ele>213.83838</ele>
        <time>2023-12-07T12:38:20.000Z</time>
      </trkpt>
      <trkpt lat="45.85562" lon="4.68766">
        <ele>213.5009</ele>
        <time>2023-12-07T12:38:21.000Z</time>
      </trkpt>
      <trkpt lat="45.85566" lon="4.68756">
        <ele>213.15996</ele>
        <time>2023-12-07T12:38:22.000Z</time>
      </trkpt>
      <trkpt lat="45.85569" lon="4.68752">
        <ele>212.80112</ele>
        <time>2023-12-07T12:38:23.000Z</time>
      </trkpt>
      <trkpt lat="45.85575" lon="4.68749">
        <ele>212.52979</ele>
        <time>2023-12-07T12:38:24.000Z</time>
      </trkpt>
      <trkpt lat="45.8558" lon="4.68746">
        <ele>212.2979</ele>
        <time>2023-12-07T12:38:25.000Z</time>
      </trkpt>
      <trkpt lat="45.85585" lon="4.68743">
        <ele>212.27701</ele>
        <time>2023-12-07T12:38:26.000Z</time>
      </trkpt>
      <trkpt lat="45.8559" lon="4.6874">
        <ele>212.33524</ele>
        <time>2023-12-07T12:38:27.000Z</time>
      </trkpt>
      <trkpt lat="45.85594" lon="4.68737">
        <ele>212.42093</ele>
        <time>2023-12-07T12:38:28.000Z</time>
      </trkpt>
      <trkpt lat="45.85599" lon="4.68734">
        <ele>212.51196</ele>
        <time>2023-12-07T12:38:29.000Z</time>
      </trkpt>
      <trkpt lat="45.85604" lon="4.68731">
        <ele>212.57153</ele>
        <time>2023-12-07T12:38:30.000Z</time>
      </trkpt>
      <trkpt lat="45.85608" lon="4.68728">
        <ele>212.63083</ele>
        <time>2023-12-07T12:38:31.000Z</time>
      </trkpt>
      <trkpt lat="45.85613" lon="4.68725">
        <ele>212.73172</ele>
        <time>2023-12-07T12:38:32.000Z</time>
      </trkpt>
      <trkpt lat="45.85617" lon="4.68722">
        <ele>212.84563</ele>
        <time>2023-12-07T12:38:33.000Z</time>
      </trkpt>
      <trkpt lat="45.85622" lon="4.6872">
        <ele>213.03625</ele>
        <time>2023-12-07T12:38:34.000Z</time>
      </trkpt>
      <trkpt lat="45.85626" lon="4.68718">
        <ele>212.89265</ele>
        <time>2023-12-07T12:38:35.000Z</time>
      </trkpt>
      <trkpt lat="45.85631" lon="4.68717">
        <ele>212.81987</ele>
        <time>2023-12-07T12:38:36.000Z</time>
      </trkpt>
      <trkpt lat="45.85635" lon="4.68717">
        <ele>212.75056</ele>
        <time>2023-12-07T12:38:37.000Z</time>
      </trkpt>
      <trkpt lat="45.8564" lon="4.68715">
        <ele>212.63335</ele>
        <time>2023-12-07T12:38:38.000Z</time>
      </trkpt>
      <trkpt lat="45.85646" lon="4.68714">
        <ele>212.58115</ele>
        <time>2023-12-07T12:38:39.000Z</time>
      </trkpt>
      <trkpt lat="45.8565" lon="4.68714">
        <ele>212.55188</ele>
        <time>2023-12-07T12:38:40.000Z</time>
      </trkpt>
      <trkpt lat="45.85655" lon="4.68712">
        <ele>212.52071</ele>
        <time>2023-12-07T12:38:41.000Z</time>
      </trkpt>
      <trkpt lat="45.85661" lon="4.6871">
        <ele>212.47659</ele>
        <time>2023-12-07T12:38:42.000Z</time>
      </trkpt>
      <trkpt lat="45.85666" lon="4.68709">
        <ele>212.46062</ele>
        <time>2023-12-07T12:38:43.000Z</time>
      </trkpt>
      <trkpt lat="45.85671" lon="4.68708">
        <ele>212.4111</ele>
        <time>2023-12-07T12:38:44.000Z</time>
      </trkpt>
      <trkpt lat="45.85677" lon="4.68706">
        <ele>212.30667</ele>
        <time>2023-12-07T12:38:45.000Z</time>
      </trkpt>
      <trkpt lat="45.85682" lon="4.68705">
        <ele>212.08183</ele>
        <time>2023-12-07T12:38:46.000Z</time>
      </trkpt>
      <trkpt lat="45.85687" lon="4.68704">
        <ele>211.80893</ele>
        <time>2023-12-07T12:38:47.000Z</time>
      </trkpt>
      <trkpt lat="45.85692" lon="4.68702">
        <ele>211.50626</ele>
        <time>2023-12-07T12:38:48.000Z</time>
      </trkpt>
      <trkpt lat="45.85697" lon="4.68702">
        <ele>211.2039</ele>
        <time>2023-12-07T12:38:49.000Z</time>
      </trkpt>
      <trkpt lat="45.85702" lon="4.687">
        <ele>210.93291</ele>
        <time>2023-12-07T12:38:50.000Z</time>
      </trkpt>
      <trkpt lat="45.85707" lon="4.68698">
        <ele>210.67024</ele>
        <time>2023-12-07T12:38:51.000Z</time>
      </trkpt>
      <trkpt lat="45.85712" lon="4.68697">
        <ele>210.41516</ele>
        <time>2023-12-07T12:38:52.000Z</time>
      </trkpt>
      <trkpt lat="45.85717" lon="4.68696">
        <ele>210.14714</ele>
        <time>2023-12-07T12:38:53.000Z</time>
      </trkpt>
      <trkpt lat="45.85722" lon="4.68696">
        <ele>210.05908</ele>
        <time>2023-12-07T12:38:54.000Z</time>
      </trkpt>
      <trkpt lat="45.85727" lon="4.68695">
        <ele>210.32581</ele>
        <time>2023-12-07T12:38:55.000Z</time>
      </trkpt>
      <trkpt lat="45.85732" lon="4.68692">
        <ele>210.51437</ele>
        <time>2023-12-07T12:38:56.000Z</time>
      </trkpt>
      <trkpt lat="45.85738" lon="4.68691">
        <ele>210.74109</ele>
        <time>2023-12-07T12:38:57.000Z</time>
      </trkpt>
      <trkpt lat="45.85743" lon="4.68688">
        <ele>211.02734</ele>
        <time>2023-12-07T12:38:58.000Z</time>
      </trkpt>
      <trkpt lat="45.85748" lon="4.68686">
        <ele>211.3082</ele>
        <time>2023-12-07T12:38:59.000Z</time>
      </trkpt>
      <trkpt lat="45.85752" lon="4.68683">
        <ele>211.19804</ele>
        <time>2023-12-07T12:39:00.000Z</time>
      </trkpt>
      <trkpt lat="45.85757" lon="4.6868">
        <ele>211.17313</ele>
        <time>2023-12-07T12:39:01.000Z</time>
      </trkpt>
      <trkpt lat="45.85761" lon="4.68677">
        <ele>211.15942</ele>
        <time>2023-12-07T12:39:02.000Z</time>
      </trkpt>
      <trkpt lat="45.85766" lon="4.68673">
        <ele>211.17126</ele>
        <time>2023-12-07T12:39:03.000Z</time>
      </trkpt>
      <trkpt lat="45.8577" lon="4.6867">
        <ele>211.18684</ele>
        <time>2023-12-07T12:39:04.000Z</time>
      </trkpt>
      <trkpt lat="45.85774" lon="4.68666">
        <ele>211.23486</ele>
        <time>2023-12-07T12:39:05.000Z</time>
      </trkpt>
      <trkpt lat="45.85778" lon="4.68662">
        <ele>211.28433</ele>
        <time>2023-12-07T12:39:06.000Z</time>
      </trkpt>
      <trkpt lat="45.85782" lon="4.68657">
        <ele>211.27661</ele>
        <time>2023-12-07T12:39:07.000Z</time>
      </trkpt>
      <trkpt lat="45.85786" lon="4.68653">
        <ele>211.31491</ele>
        <time>2023-12-07T12:39:08.000Z</time>
      </trkpt>
      <trkpt lat="45.85789" lon="4.68649">
        <ele>211.42917</ele>
        <time>2023-12-07T12:39:09.000Z</time>
      </trkpt>
      <trkpt lat="45.85793" lon="4.68646">
        <ele>211.52405</ele>
        <time>2023-12-07T12:39:10.000Z</time>
      </trkpt>
      <trkpt lat="45.85796" lon="4.68642">
        <ele>211.5914</ele>
        <time>2023-12-07T12:39:11.000Z</time>
      </trkpt>
      <trkpt lat="45.85801" lon="4.68639">
        <ele>211.66011</ele>
        <time>2023-12-07T12:39:12.000Z</time>
      </trkpt>
      <trkpt lat="45.85806" lon="4.68636">
        <ele>211.72998</ele>
        <time>2023-12-07T12:39:13.000Z</time>
      </trkpt>
      <trkpt lat="45.85809" lon="4.68629">
        <ele>211.70309</ele>
        <time>2023-12-07T12:39:14.000Z</time>
      </trkpt>
      <trkpt lat="45.85812" lon="4.68624">
        <ele>211.66727</ele>
        <time>2023-12-07T12:39:15.000Z</time>
      </trkpt>
      <trkpt lat="45.85812" lon="4.68617">
        <ele>211.61813</ele>
        <time>2023-12-07T12:39:16.000Z</time>
      </trkpt>
      <trkpt lat="45.85812" lon="4.68609">
        <ele>211.50549</ele>
        <time>2023-12-07T12:39:17.000Z</time>
      </trkpt>
      <trkpt lat="45.8581" lon="4.68601">
        <ele>211.33475</ele>
        <time>2023-12-07T12:39:18.000Z</time>
      </trkpt>
      <trkpt lat="45.85809" lon="4.68593">
        <ele>211.15967</ele>
        <time>2023-12-07T12:39:19.000Z</time>
      </trkpt>
      <trkpt lat="45.85808" lon="4.68585">
        <ele>211.39609</ele>
        <time>2023-12-07T12:39:20.000Z</time>
      </trkpt>
      <trkpt lat="45.85806" lon="4.68578">
        <ele>211.63948</ele>
        <time>2023-12-07T12:39:21.000Z</time>
      </trkpt>
      <trkpt lat="45.85804" lon="4.68571">
        <ele>211.90915</ele>
        <time>2023-12-07T12:39:22.000Z</time>
      </trkpt>
      <trkpt lat="45.85802" lon="4.68564">
        <ele>212.22836</ele>
        <time>2023-12-07T12:39:23.000Z</time>
      </trkpt>
      <trkpt lat="45.85799" lon="4.68558">
        <ele>212.57535</ele>
        <time>2023-12-07T12:39:24.000Z</time>
      </trkpt>
      <trkpt lat="45.85797" lon="4.68552">
        <ele>212.55954</ele>
        <time>2023-12-07T12:39:25.000Z</time>
      </trkpt>
      <trkpt lat="45.85795" lon="4.68545">
        <ele>212.57365</ele>
        <time>2023-12-07T12:39:26.000Z</time>
      </trkpt>
      <trkpt lat="45.85793" lon="4.68539">
        <ele>212.63028</ele>
        <time>2023-12-07T12:39:27.000Z</time>
      </trkpt>
      <trkpt lat="45.85791" lon="4.68532">
        <ele>212.64348</ele>
        <time>2023-12-07T12:39:28.000Z</time>
      </trkpt>
      <trkpt lat="45.85789" lon="4.68526">
        <ele>212.59644</ele>
        <time>2023-12-07T12:39:29.000Z</time>
      </trkpt>
      <trkpt lat="45.85788" lon="4.6852">
        <ele>212.58577</ele>
        <time>2023-12-07T12:39:30.000Z</time>
      </trkpt>
      <trkpt lat="45.85786" lon="4.68513">
        <ele>212.54794</ele>
        <time>2023-12-07T12:39:31.000Z</time>
      </trkpt>
      <trkpt lat="45.85785" lon="4.68506">
        <ele>212.50955</ele>
        <time>2023-12-07T12:39:32.000Z</time>
      </trkpt>
      <trkpt lat="45.85783" lon="4.68499">
        <ele>212.43521</ele>
        <time>2023-12-07T12:39:33.000Z</time>
      </trkpt>
      <trkpt lat="45.85782" lon="4.68492">
        <ele>212.2061</ele>
        <time>2023-12-07T12:39:34.000Z</time>
      </trkpt>
      <trkpt lat="45.8578" lon="4.68485">
        <ele>211.98145</ele>
        <time>2023-12-07T12:39:35.000Z</time>
      </trkpt>
      <trkpt lat="45.85779" lon="4.68478">
        <ele>211.767</ele>
        <time>2023-12-07T12:39:36.000Z</time>
      </trkpt>
      <trkpt lat="45.85777" lon="4.6847">
        <ele>211.59009</ele>
        <time>2023-12-07T12:39:37.000Z</time>
      </trkpt>
      <trkpt lat="45.85775" lon="4.68463">
        <ele>211.44881</ele>
        <time>2023-12-07T12:39:38.000Z</time>
      </trkpt>
      <trkpt lat="45.85773" lon="4.68456">
        <ele>211.33125</ele>
        <time>2023-12-07T12:39:39.000Z</time>
      </trkpt>
      <trkpt lat="45.85772" lon="4.68448">
        <ele>211.18234</ele>
        <time>2023-12-07T12:39:40.000Z</time>
      </trkpt>
      <trkpt lat="45.85771" lon="4.68439">
        <ele>210.94839</ele>
        <time>2023-12-07T12:39:41.000Z</time>
      </trkpt>
      <trkpt lat="45.85769" lon="4.68433">
        <ele>210.66077</ele>
        <time>2023-12-07T12:39:42.000Z</time>
      </trkpt>
      <trkpt lat="45.85767" lon="4.68427">
        <ele>210.33833</ele>
        <time>2023-12-07T12:39:43.000Z</time>
      </trkpt>
      <trkpt lat="45.85765" lon="4.68421">
        <ele>210.02649</ele>
        <time>2023-12-07T12:39:44.000Z</time>
      </trkpt>
      <trkpt lat="45.85763" lon="4.68415">
        <ele>210.10478</ele>
        <time>2023-12-07T12:39:45.000Z</time>
      </trkpt>
      <trkpt lat="45.85761" lon="4.68408">
        <ele>210.10916</ele>
        <time>2023-12-07T12:39:46.000Z</time>
      </trkpt>
      <trkpt lat="45.85759" lon="4.68402">
        <ele>210.15063</ele>
        <time>2023-12-07T12:39:47.000Z</time>
      </trkpt>
      <trkpt lat="45.85756" lon="4.68397">
        <ele>210.21609</ele>
        <time>2023-12-07T12:39:48.000Z</time>
      </trkpt>
      <trkpt lat="45.85754" lon="4.68391">
        <ele>210.26089</ele>
        <time>2023-12-07T12:39:49.000Z</time>
      </trkpt>
      <trkpt lat="45.85753" lon="4.68384">
        <ele>210.2749</ele>
        <time>2023-12-07T12:39:50.000Z</time>
      </trkpt>
      <trkpt lat="45.8575" lon="4.68378">
        <ele>210.354</ele>
        <time>2023-12-07T12:39:51.000Z</time>
      </trkpt>
      <trkpt lat="45.85748" lon="4.68372">
        <ele>210.40366</ele>
        <time>2023-12-07T12:39:52.000Z</time>
      </trkpt>
      <trkpt lat="45.85746" lon="4.68365">
        <ele>210.49326</ele>
        <time>2023-12-07T12:39:53.000Z</time>
      </trkpt>
      <trkpt lat="45.85743" lon="4.68358">
        <ele>210.58438</ele>
        <time>2023-12-07T12:39:54.000Z</time>
      </trkpt>
      <trkpt lat="45.8574" lon="4.68352">
        <ele>210.70871</ele>
        <time>2023-12-07T12:39:55.000Z</time>
      </trkpt>
      <trkpt lat="45.85738" lon="4.68346">
        <ele>210.84042</ele>
        <time>2023-12-07T12:39:56.000Z</time>
      </trkpt>
      <trkpt lat="45.85735" lon="4.68339">
        <ele>210.9729</ele>
        <time>2023-12-07T12:39:57.000Z</time>
      </trkpt>
      <trkpt lat="45.85733" lon="4.68332">
        <ele>211.10913</ele>
        <time>2023-12-07T12:39:58.000Z</time>
      </trkpt>
      <trkpt lat="45.8573" lon="4.68326">
        <ele>211.21553</ele>
        <time>2023-12-07T12:39:59.000Z</time>
      </trkpt>
      <trkpt lat="45.85728" lon="4.68319">
        <ele>211.3175</ele>
        <time>2023-12-07T12:40:00.000Z</time>
      </trkpt>
      <trkpt lat="45.85724" lon="4.68314">
        <ele>211.42924</ele>
        <time>2023-12-07T12:40:01.000Z</time>
      </trkpt>
      <trkpt lat="45.8572" lon="4.68308">
        <ele>211.69673</ele>
        <time>2023-12-07T12:40:02.000Z</time>
      </trkpt>
      <trkpt lat="45.85716" lon="4.68303">
        <ele>211.90446</ele>
        <time>2023-12-07T12:40:03.000Z</time>
      </trkpt>
      <trkpt lat="45.85712" lon="4.68298">
        <ele>212.08279</ele>
        <time>2023-12-07T12:40:04.000Z</time>
      </trkpt>
      <trkpt lat="45.85709" lon="4.68293">
        <ele>212.32007</ele>
        <time>2023-12-07T12:40:05.000Z</time>
      </trkpt>
      <trkpt lat="45.85704" lon="4.68288">
        <ele>212.62845</ele>
        <time>2023-12-07T12:40:06.000Z</time>
      </trkpt>
      <trkpt lat="45.857" lon="4.68283">
        <ele>212.9104</ele>
        <time>2023-12-07T12:40:07.000Z</time>
      </trkpt>
      <trkpt lat="45.85696" lon="4.68279">
        <ele>213.17082</ele>
        <time>2023-12-07T12:40:08.000Z</time>
      </trkpt>
      <trkpt lat="45.85692" lon="4.68273">
        <ele>213.09895</ele>
        <time>2023-12-07T12:40:09.000Z</time>
      </trkpt>
      <trkpt lat="45.85689" lon="4.68268">
        <ele>213.05283</ele>
        <time>2023-12-07T12:40:10.000Z</time>
      </trkpt>
      <trkpt lat="45.85685" lon="4.68262">
        <ele>212.9823</ele>
        <time>2023-12-07T12:40:11.000Z</time>
      </trkpt>
      <trkpt lat="45.8568" lon="4.68257">
        <ele>212.92056</ele>
        <time>2023-12-07T12:40:12.000Z</time>
      </trkpt>
      <trkpt lat="45.85676" lon="4.68251">
        <ele>212.86414</ele>
        <time>2023-12-07T12:40:13.000Z</time>
      </trkpt>
      <trkpt lat="45.85672" lon="4.68247">
        <ele>212.80737</ele>
        <time>2023-12-07T12:40:14.000Z</time>
      </trkpt>
      <trkpt lat="45.85667" lon="4.68242">
        <ele>212.72688</ele>
        <time>2023-12-07T12:40:15.000Z</time>
      </trkpt>
      <trkpt lat="45.85663" lon="4.68237">
        <ele>212.6412</ele>
        <time>2023-12-07T12:40:16.000Z</time>
      </trkpt>
      <trkpt lat="45.85659" lon="4.68232">
        <ele>212.55791</ele>
        <time>2023-12-07T12:40:17.000Z</time>
      </trkpt>
      <trkpt lat="45.85654" lon="4.68226">
        <ele>212.44511</ele>
        <time>2023-12-07T12:40:18.000Z</time>
      </trkpt>
      <trkpt lat="45.8565" lon="4.68221">
        <ele>212.34586</ele>
        <time>2023-12-07T12:40:19.000Z</time>
      </trkpt>
      <trkpt lat="45.85645" lon="4.68216">
        <ele>212.25418</ele>
        <time>2023-12-07T12:40:20.000Z</time>
      </trkpt>
      <trkpt lat="45.85641" lon="4.6821">
        <ele>212.15723</ele>
        <time>2023-12-07T12:40:21.000Z</time>
      </trkpt>
      <trkpt lat="45.85637" lon="4.68205">
        <ele>211.901</ele>
        <time>2023-12-07T12:40:22.000Z</time>
      </trkpt>
      <trkpt lat="45.85633" lon="4.682">
        <ele>211.68889</ele>
        <time>2023-12-07T12:40:23.000Z</time>
      </trkpt>
      <trkpt lat="45.8563" lon="4.68194">
        <ele>211.46628</ele>
        <time>2023-12-07T12:40:24.000Z</time>
      </trkpt>
      <trkpt lat="45.85626" lon="4.68188">
        <ele>211.16147</ele>
        <time>2023-12-07T12:40:25.000Z</time>
      </trkpt>
      <trkpt lat="45.85623" lon="4.68183">
        <ele>211.06912</ele>
        <time>2023-12-07T12:40:26.000Z</time>
      </trkpt>
      <trkpt lat="45.85619" lon="4.68177">
        <ele>210.96765</ele>
        <time>2023-12-07T12:40:27.000Z</time>
      </trkpt>
      <trkpt lat="45.85616" lon="4.68171">
        <ele>210.97481</ele>
        <time>2023-12-07T12:40:28.000Z</time>
      </trkpt>
      <trkpt lat="45.85613" lon="4.68165">
        <ele>210.96992</ele>
        <time>2023-12-07T12:40:29.000Z</time>
      </trkpt>
      <trkpt lat="45.85608" lon="4.68158">
        <ele>210.93298</ele>
        <time>2023-12-07T12:40:30.000Z</time>
      </trkpt>
      <trkpt lat="45.85604" lon="4.68152">
        <ele>210.89124</ele>
        <time>2023-12-07T12:40:31.000Z</time>
      </trkpt>
      <trkpt lat="45.85601" lon="4.68145">
        <ele>210.84773</ele>
        <time>2023-12-07T12:40:32.000Z</time>
      </trkpt>
      <trkpt lat="45.85598" lon="4.68139">
        <ele>210.8002</ele>
        <time>2023-12-07T12:40:33.000Z</time>
      </trkpt>
      <trkpt lat="45.85595" lon="4.68133">
        <ele>210.92053</ele>
        <time>2023-12-07T12:40:34.000Z</time>
      </trkpt>
      <trkpt lat="45.85592" lon="4.68127">
        <ele>211.03581</ele>
        <time>2023-12-07T12:40:35.000Z</time>
      </trkpt>
      <trkpt lat="45.85589" lon="4.68122">
        <ele>211.16824</ele>
        <time>2023-12-07T12:40:36.000Z</time>
      </trkpt>
      <trkpt lat="45.85586" lon="4.68115">
        <ele>211.32878</ele>
        <time>2023-12-07T12:40:37.000Z</time>
      </trkpt>
      <trkpt lat="45.85582" lon="4.6811">
        <ele>211.61943</ele>
        <time>2023-12-07T12:40:38.000Z</time>
      </trkpt>
      <trkpt lat="45.85579" lon="4.68105">
        <ele>211.59615</ele>
        <time>2023-12-07T12:40:39.000Z</time>
      </trkpt>
      <trkpt lat="45.85577" lon="4.68098">
        <ele>211.59521</ele>
        <time>2023-12-07T12:40:40.000Z</time>
      </trkpt>
      <trkpt lat="45.85573" lon="4.68092">
        <ele>211.6539</ele>
        <time>2023-12-07T12:40:41.000Z</time>
      </trkpt>
      <trkpt lat="45.8557" lon="4.68085">
        <ele>211.75114</ele>
        <time>2023-12-07T12:40:42.000Z</time>
      </trkpt>
      <trkpt lat="45.85568" lon="4.68078">
        <ele>211.82236</ele>
        <time>2023-12-07T12:40:43.000Z</time>
      </trkpt>
      <trkpt lat="45.85565" lon="4.68071">
        <ele>211.90523</ele>
        <time>2023-12-07T12:40:44.000Z</time>
      </trkpt>
      <trkpt lat="45.85562" lon="4.68064">
        <ele>212.01143</ele>
        <time>2023-12-07T12:40:45.000Z</time>
      </trkpt>
      <trkpt lat="45.85561" lon="4.68056">
        <ele>211.86311</ele>
        <time>2023-12-07T12:40:46.000Z</time>
      </trkpt>
      <trkpt lat="45.85559" lon="4.6805">
        <ele>211.7092</ele>
        <time>2023-12-07T12:40:47.000Z</time>
      </trkpt>
      <trkpt lat="45.85556" lon="4.68043">
        <ele>211.42892</ele>
        <time>2023-12-07T12:40:48.000Z</time>
      </trkpt>
      <trkpt lat="45.85553" lon="4.68036">
        <ele>211.56738</ele>
        <time>2023-12-07T12:40:49.000Z</time>
      </trkpt>
      <trkpt lat="45.8555" lon="4.68029">
        <ele>211.58578</ele>
        <time>2023-12-07T12:40:50.000Z</time>
      </trkpt>
      <trkpt lat="45.85548" lon="4.68021">
        <ele>211.66008</ele>
        <time>2023-12-07T12:40:51.000Z</time>
      </trkpt>
      <trkpt lat="45.85544" lon="4.68014">
        <ele>211.85648</ele>
        <time>2023-12-07T12:40:52.000Z</time>
      </trkpt>
      <trkpt lat="45.85543" lon="4.68008">
        <ele>212.15128</ele>
        <time>2023-12-07T12:40:53.000Z</time>
      </trkpt>
      <trkpt lat="45.85541" lon="4.68002">
        <ele>212.40634</ele>
        <time>2023-12-07T12:40:54.000Z</time>
      </trkpt>
      <trkpt lat="45.8554" lon="4.67997">
        <ele>212.7552</ele>
        <time>2023-12-07T12:40:55.000Z</time>
      </trkpt>
      <trkpt lat="45.85537" lon="4.67992">
        <ele>213.14233</ele>
        <time>2023-12-07T12:40:56.000Z</time>
      </trkpt>
      <trkpt lat="45.85536" lon="4.67986">
        <ele>213.43083</ele>
        <time>2023-12-07T12:40:57.000Z</time>
      </trkpt>
      <trkpt lat="45.85537" lon="4.67982">
        <ele>213.43083</ele>
        <time>2023-12-07T12:40:58.000Z</time>
      </trkpt>
      <trkpt lat="45.85535" lon="4.67977">
        <ele>213.41499</ele>
        <time>2023-12-07T12:40:59.000Z</time>
      </trkpt>
      <trkpt lat="45.85535" lon="4.67974">
        <ele>213.41023</ele>
        <time>2023-12-07T12:41:00.000Z</time>
      </trkpt>
      <trkpt lat="45.85535" lon="4.6797">
        <ele>213.26749</ele>
        <time>2023-12-07T12:41:01.000Z</time>
      </trkpt>
      <trkpt lat="45.85534" lon="4.67967">
        <ele>213.11028</ele>
        <time>2023-12-07T12:41:02.000Z</time>
      </trkpt>
      <trkpt lat="45.85533" lon="4.67964">
        <ele>212.97183</ele>
        <time>2023-12-07T12:41:03.000Z</time>
      </trkpt>
      <trkpt lat="45.85532" lon="4.6796">
        <ele>212.80917</ele>
        <time>2023-12-07T12:41:05.000Z</time>
      </trkpt>
      <trkpt lat="45.8553" lon="4.67956">
        <ele>212.66574</ele>
        <time>2023-12-07T12:41:07.000Z</time>
      </trkpt>
      <trkpt lat="45.8553" lon="4.67953">
        <ele>212.50858</ele>
        <time>2023-12-07T12:41:08.000Z</time>
      </trkpt>
      <trkpt lat="45.85529" lon="4.67948">
        <ele>212.33553</ele>
        <time>2023-12-07T12:41:09.000Z</time>
      </trkpt>
      <trkpt lat="45.85527" lon="4.67943">
        <ele>212.13802</ele>
        <time>2023-12-07T12:41:10.000Z</time>
      </trkpt>
      <trkpt lat="45.85526" lon="4.67938">
        <ele>211.87263</ele>
        <time>2023-12-07T12:41:11.000Z</time>
      </trkpt>
      <trkpt lat="45.85523" lon="4.67933">
        <ele>211.70271</ele>
        <time>2023-12-07T12:41:12.000Z</time>
      </trkpt>
      <trkpt lat="45.85521" lon="4.67928">
        <ele>211.47522</ele>
        <time>2023-12-07T12:41:13.000Z</time>
      </trkpt>
      <trkpt lat="45.85519" lon="4.67922">
        <ele>211.11368</ele>
        <time>2023-12-07T12:41:14.000Z</time>
      </trkpt>
      <trkpt lat="45.85517" lon="4.67917">
        <ele>210.65398</ele>
        <time>2023-12-07T12:41:15.000Z</time>
      </trkpt>
      <trkpt lat="45.85515" lon="4.6791">
        <ele>210.05325</ele>
        <time>2023-12-07T12:41:16.000Z</time>
      </trkpt>
      <trkpt lat="45.85513" lon="4.67905">
        <ele>209.38062</ele>
        <time>2023-12-07T12:41:17.000Z</time>
      </trkpt>
      <trkpt lat="45.85511" lon="4.67899">
        <ele>208.66194</ele>
        <time>2023-12-07T12:41:18.000Z</time>
      </trkpt>
      <trkpt lat="45.8551" lon="4.67893">
        <ele>208.0137</ele>
        <time>2023-12-07T12:41:19.000Z</time>
      </trkpt>
      <trkpt lat="45.85507" lon="4.67883">
        <ele>207.51909</ele>
        <time>2023-12-07T12:41:20.000Z</time>
      </trkpt>
      <trkpt lat="45.85506" lon="4.67876">
        <ele>207.47055</ele>
        <time>2023-12-07T12:41:21.000Z</time>
      </trkpt>
      <trkpt lat="45.85504" lon="4.67868">
        <ele>207.4111</ele>
        <time>2023-12-07T12:41:22.000Z</time>
      </trkpt>
      <trkpt lat="45.85502" lon="4.6786">
        <ele>207.44662</ele>
        <time>2023-12-07T12:41:23.000Z</time>
      </trkpt>
      <trkpt lat="45.85501" lon="4.67851">
        <ele>207.47986</ele>
        <time>2023-12-07T12:41:24.000Z</time>
      </trkpt>
      <trkpt lat="45.85499" lon="4.67843">
        <ele>207.53687</ele>
        <time>2023-12-07T12:41:25.000Z</time>
      </trkpt>
      <trkpt lat="45.85497" lon="4.67836">
        <ele>207.59367</ele>
        <time>2023-12-07T12:41:26.000Z</time>
      </trkpt>
      <trkpt lat="45.85496" lon="4.67828">
        <ele>207.60503</ele>
        <time>2023-12-07T12:41:27.000Z</time>
      </trkpt>
      <trkpt lat="45.85494" lon="4.67821">
        <ele>207.62842</ele>
        <time>2023-12-07T12:41:28.000Z</time>
      </trkpt>
      <trkpt lat="45.85492" lon="4.67813">
        <ele>207.6554</ele>
        <time>2023-12-07T12:41:29.000Z</time>
      </trkpt>
      <trkpt lat="45.85491" lon="4.67808">
        <ele>207.89751</ele>
        <time>2023-12-07T12:41:30.000Z</time>
      </trkpt>
      <trkpt lat="45.85489" lon="4.678">
        <ele>208.11357</ele>
        <time>2023-12-07T12:41:31.000Z</time>
      </trkpt>
      <trkpt lat="45.85488" lon="4.67793">
        <ele>208.33037</ele>
        <time>2023-12-07T12:41:32.000Z</time>
      </trkpt>
      <trkpt lat="45.85486" lon="4.67786">
        <ele>208.55391</ele>
        <time>2023-12-07T12:41:33.000Z</time>
      </trkpt>
      <trkpt lat="45.85486" lon="4.67781">
        <ele>208.87906</ele>
        <time>2023-12-07T12:41:34.000Z</time>
      </trkpt>
      <trkpt lat="45.85486" lon="4.67774">
        <ele>209.21233</ele>
        <time>2023-12-07T12:41:35.000Z</time>
      </trkpt>
      <trkpt lat="45.85487" lon="4.67768">
        <ele>209.69339</ele>
        <time>2023-12-07T12:41:36.000Z</time>
      </trkpt>
      <trkpt lat="45.8549" lon="4.67761">
        <ele>210.19653</ele>
        <time>2023-12-07T12:41:37.000Z</time>
      </trkpt>
      <trkpt lat="45.85491" lon="4.67755">
        <ele>210.29443</ele>
        <time>2023-12-07T12:41:38.000Z</time>
      </trkpt>
      <trkpt lat="45.85494" lon="4.67749">
        <ele>210.38199</ele>
        <time>2023-12-07T12:41:39.000Z</time>
      </trkpt>
      <trkpt lat="45.85497" lon="4.67743">
        <ele>210.53305</ele>
        <time>2023-12-07T12:41:40.000Z</time>
      </trkpt>
      <trkpt lat="45.85499" lon="4.67737">
        <ele>210.56754</ele>
        <time>2023-12-07T12:41:41.000Z</time>
      </trkpt>
      <trkpt lat="45.85502" lon="4.67732">
        <ele>210.54214</ele>
        <time>2023-12-07T12:41:42.000Z</time>
      </trkpt>
      <trkpt lat="45.85503" lon="4.67726">
        <ele>210.47372</ele>
        <time>2023-12-07T12:41:43.000Z</time>
      </trkpt>
      <trkpt lat="45.85506" lon="4.67721">
        <ele>210.39786</ele>
        <time>2023-12-07T12:41:44.000Z</time>
      </trkpt>
      <trkpt lat="45.85509" lon="4.67715">
        <ele>210.48511</ele>
        <time>2023-12-07T12:41:45.000Z</time>
      </trkpt>
      <trkpt lat="45.85512" lon="4.67709">
        <ele>210.59097</ele>
        <time>2023-12-07T12:41:46.000Z</time>
      </trkpt>
      <trkpt lat="45.85516" lon="4.67705">
        <ele>210.78987</ele>
        <time>2023-12-07T12:41:47.000Z</time>
      </trkpt>
      <trkpt lat="45.85519" lon="4.67699">
        <ele>211.0231</ele>
        <time>2023-12-07T12:41:48.000Z</time>
      </trkpt>
      <trkpt lat="45.85522" lon="4.67694">
        <ele>211.29012</ele>
        <time>2023-12-07T12:41:49.000Z</time>
      </trkpt>
      <trkpt lat="45.85525" lon="4.67689">
        <ele>211.03511</ele>
        <time>2023-12-07T12:41:50.000Z</time>
      </trkpt>
      <trkpt lat="45.85528" lon="4.67684">
        <ele>210.87024</ele>
        <time>2023-12-07T12:41:51.000Z</time>
      </trkpt>
      <trkpt lat="45.85532" lon="4.67679">
        <ele>210.72055</ele>
        <time>2023-12-07T12:41:52.000Z</time>
      </trkpt>
      <trkpt lat="45.85535" lon="4.67674">
        <ele>210.5916</ele>
        <time>2023-12-07T12:41:53.000Z</time>
      </trkpt>
      <trkpt lat="45.85539" lon="4.67669">
        <ele>210.38838</ele>
        <time>2023-12-07T12:41:54.000Z</time>
      </trkpt>
      <trkpt lat="45.85542" lon="4.67664">
        <ele>210.16794</ele>
        <time>2023-12-07T12:41:55.000Z</time>
      </trkpt>
      <trkpt lat="45.85546" lon="4.6766">
        <ele>209.81181</ele>
        <time>2023-12-07T12:41:56.000Z</time>
      </trkpt>
      <trkpt lat="45.85549" lon="4.67656">
        <ele>209.40262</ele>
        <time>2023-12-07T12:41:57.000Z</time>
      </trkpt>
      <trkpt lat="45.85553" lon="4.67653">
        <ele>209.45151</ele>
        <time>2023-12-07T12:41:58.000Z</time>
      </trkpt>
      <trkpt lat="45.85557" lon="4.6765">
        <ele>209.49251</ele>
        <time>2023-12-07T12:41:59.000Z</time>
      </trkpt>
      <trkpt lat="45.85561" lon="4.67646">
        <ele>209.5137</ele>
        <time>2023-12-07T12:42:00.000Z</time>
      </trkpt>
      <trkpt lat="45.85565" lon="4.67642">
        <ele>209.53574</ele>
        <time>2023-12-07T12:42:01.000Z</time>
      </trkpt>
      <trkpt lat="45.85568" lon="4.67638">
        <ele>209.61809</ele>
        <time>2023-12-07T12:42:02.000Z</time>
      </trkpt>
      <trkpt lat="45.85572" lon="4.67634">
        <ele>209.71147</ele>
        <time>2023-12-07T12:42:03.000Z</time>
      </trkpt>
      <trkpt lat="45.85576" lon="4.67629">
        <ele>209.79826</ele>
        <time>2023-12-07T12:42:04.000Z</time>
      </trkpt>
      <trkpt lat="45.85579" lon="4.67625">
        <ele>209.70023</ele>
        <time>2023-12-07T12:42:05.000Z</time>
      </trkpt>
      <trkpt lat="45.85582" lon="4.6762">
        <ele>209.59055</ele>
        <time>2023-12-07T12:42:06.000Z</time>
      </trkpt>
      <trkpt lat="45.85586" lon="4.67616">
        <ele>209.39294</ele>
        <time>2023-12-07T12:42:07.000Z</time>
      </trkpt>
      <trkpt lat="45.8559" lon="4.67612">
        <ele>209.2061</ele>
        <time>2023-12-07T12:42:08.000Z</time>
      </trkpt>
      <trkpt lat="45.85594" lon="4.67608">
        <ele>209.00679</ele>
        <time>2023-12-07T12:42:09.000Z</time>
      </trkpt>
      <trkpt lat="45.85598" lon="4.67603">
        <ele>209.41177</ele>
        <time>2023-12-07T12:42:10.000Z</time>
      </trkpt>
      <trkpt lat="45.85602" lon="4.67599">
        <ele>209.77524</ele>
        <time>2023-12-07T12:42:11.000Z</time>
      </trkpt>
      <trkpt lat="45.85606" lon="4.67595">
        <ele>210.20432</ele>
        <time>2023-12-07T12:42:12.000Z</time>
      </trkpt>
      <trkpt lat="45.8561" lon="4.67592">
        <ele>210.27844</ele>
        <time>2023-12-07T12:42:13.000Z</time>
      </trkpt>
      <trkpt lat="45.85613" lon="4.67587">
        <ele>210.38712</ele>
        <time>2023-12-07T12:42:14.000Z</time>
      </trkpt>
      <trkpt lat="45.85617" lon="4.67584">
        <ele>210.51059</ele>
        <time>2023-12-07T12:42:15.000Z</time>
      </trkpt>
      <trkpt lat="45.85621" lon="4.6758">
        <ele>210.62979</ele>
        <time>2023-12-07T12:42:16.000Z</time>
      </trkpt>
      <trkpt lat="45.85624" lon="4.67576">
        <ele>210.7533</ele>
        <time>2023-12-07T12:42:17.000Z</time>
      </trkpt>
      <trkpt lat="45.85627" lon="4.67573">
        <ele>210.81094</ele>
        <time>2023-12-07T12:42:18.000Z</time>
      </trkpt>
      <trkpt lat="45.85631" lon="4.67569">
        <ele>210.92635</ele>
        <time>2023-12-07T12:42:19.000Z</time>
      </trkpt>
      <trkpt lat="45.85636" lon="4.67565">
        <ele>211.03458</ele>
        <time>2023-12-07T12:42:20.000Z</time>
      </trkpt>
      <trkpt lat="45.8564" lon="4.67562">
        <ele>211.14847</ele>
        <time>2023-12-07T12:42:21.000Z</time>
      </trkpt>
      <trkpt lat="45.85643" lon="4.67558">
        <ele>211.2417</ele>
        <time>2023-12-07T12:42:22.000Z</time>
      </trkpt>
      <trkpt lat="45.85647" lon="4.67555">
        <ele>211.37057</ele>
        <time>2023-12-07T12:42:23.000Z</time>
      </trkpt>
      <trkpt lat="45.8565" lon="4.67552">
        <ele>211.50784</ele>
        <time>2023-12-07T12:42:24.000Z</time>
      </trkpt>
      <trkpt lat="45.85653" lon="4.67549">
        <ele>211.64053</ele>
        <time>2023-12-07T12:42:25.000Z</time>
      </trkpt>
      <trkpt lat="45.85657" lon="4.67545">
        <ele>211.94112</ele>
        <time>2023-12-07T12:42:26.000Z</time>
      </trkpt>
      <trkpt lat="45.85661" lon="4.67541">
        <ele>212.31845</ele>
        <time>2023-12-07T12:42:27.000Z</time>
      </trkpt>
      <trkpt lat="45.85665" lon="4.67537">
        <ele>212.67989</ele>
        <time>2023-12-07T12:42:28.000Z</time>
      </trkpt>
      <trkpt lat="45.85669" lon="4.67534">
        <ele>212.72832</ele>
        <time>2023-12-07T12:42:29.000Z</time>
      </trkpt>
      <trkpt lat="45.85674" lon="4.67529">
        <ele>212.60884</ele>
        <time>2023-12-07T12:42:30.000Z</time>
      </trkpt>
      <trkpt lat="45.85677" lon="4.67525">
        <ele>212.44077</ele>
        <time>2023-12-07T12:42:31.000Z</time>
      </trkpt>
      <trkpt lat="45.85681" lon="4.6752">
        <ele>212.21489</ele>
        <time>2023-12-07T12:42:32.000Z</time>
      </trkpt>
      <trkpt lat="45.85685" lon="4.67516">
        <ele>212.34244</ele>
        <time>2023-12-07T12:42:33.000Z</time>
      </trkpt>
      <trkpt lat="45.85688" lon="4.67511">
        <ele>212.37651</ele>
        <time>2023-12-07T12:42:34.000Z</time>
      </trkpt>
      <trkpt lat="45.85692" lon="4.67506">
        <ele>212.4576</ele>
        <time>2023-12-07T12:42:35.000Z</time>
      </trkpt>
      <trkpt lat="45.85695" lon="4.67501">
        <ele>212.50871</ele>
        <time>2023-12-07T12:42:36.000Z</time>
      </trkpt>
      <trkpt lat="45.85698" lon="4.67497">
        <ele>212.74731</ele>
        <time>2023-12-07T12:42:37.000Z</time>
      </trkpt>
      <trkpt lat="45.85702" lon="4.67492">
        <ele>213.08261</ele>
        <time>2023-12-07T12:42:38.000Z</time>
      </trkpt>
      <trkpt lat="45.85705" lon="4.67486">
        <ele>213.44351</ele>
        <time>2023-12-07T12:42:39.000Z</time>
      </trkpt>
      <trkpt lat="45.85708" lon="4.67482">
        <ele>213.46378</ele>
        <time>2023-12-07T12:42:40.000Z</time>
      </trkpt>
      <trkpt lat="45.85711" lon="4.67477">
        <ele>213.52347</ele>
        <time>2023-12-07T12:42:41.000Z</time>
      </trkpt>
      <trkpt lat="45.85715" lon="4.67471">
        <ele>213.59293</ele>
        <time>2023-12-07T12:42:42.000Z</time>
      </trkpt>
      <trkpt lat="45.85718" lon="4.67466">
        <ele>213.62723</ele>
        <time>2023-12-07T12:42:43.000Z</time>
      </trkpt>
      <trkpt lat="45.85721" lon="4.67461">
        <ele>213.71928</ele>
        <time>2023-12-07T12:42:44.000Z</time>
      </trkpt>
      <trkpt lat="45.85724" lon="4.67455">
        <ele>213.77742</ele>
        <time>2023-12-07T12:42:45.000Z</time>
      </trkpt>
      <trkpt lat="45.85727" lon="4.6745">
        <ele>213.67581</ele>
        <time>2023-12-07T12:42:46.000Z</time>
      </trkpt>
      <trkpt lat="45.85731" lon="4.67445">
        <ele>213.51433</ele>
        <time>2023-12-07T12:42:47.000Z</time>
      </trkpt>
      <trkpt lat="45.85734" lon="4.67439">
        <ele>213.31743</ele>
        <time>2023-12-07T12:42:48.000Z</time>
      </trkpt>
      <trkpt lat="45.85737" lon="4.67433">
        <ele>213.41385</ele>
        <time>2023-12-07T12:42:49.000Z</time>
      </trkpt>
      <trkpt lat="45.85739" lon="4.67429">
        <ele>213.47852</ele>
        <time>2023-12-07T12:42:50.000Z</time>
      </trkpt>
      <trkpt lat="45.85742" lon="4.67423">
        <ele>213.54773</ele>
        <time>2023-12-07T12:42:51.000Z</time>
      </trkpt>
      <trkpt lat="45.85744" lon="4.67416">
        <ele>213.73654</ele>
        <time>2023-12-07T12:42:52.000Z</time>
      </trkpt>
      <trkpt lat="45.85748" lon="4.67409">
        <ele>213.91106</ele>
        <time>2023-12-07T12:42:53.000Z</time>
      </trkpt>
      <trkpt lat="45.8575" lon="4.67402">
        <ele>214.10596</ele>
        <time>2023-12-07T12:42:54.000Z</time>
      </trkpt>
      <trkpt lat="45.85753" lon="4.67395">
        <ele>214.26004</ele>
        <time>2023-12-07T12:42:55.000Z</time>
      </trkpt>
      <trkpt lat="45.85757" lon="4.67388">
        <ele>214.49773</ele>
        <time>2023-12-07T12:42:56.000Z</time>
      </trkpt>
      <trkpt lat="45.8576" lon="4.67382">
        <ele>214.63455</ele>
        <time>2023-12-07T12:42:57.000Z</time>
      </trkpt>
      <trkpt lat="45.85764" lon="4.67377">
        <ele>214.41463</ele>
        <time>2023-12-07T12:42:58.000Z</time>
      </trkpt>
      <trkpt lat="45.85767" lon="4.67372">
        <ele>214.16434</ele>
        <time>2023-12-07T12:42:59.000Z</time>
      </trkpt>
      <trkpt lat="45.85771" lon="4.67368">
        <ele>214.20915</ele>
        <time>2023-12-07T12:43:00.000Z</time>
      </trkpt>
      <trkpt lat="45.85774" lon="4.67363">
        <ele>214.20686</ele>
        <time>2023-12-07T12:43:01.000Z</time>
      </trkpt>
      <trkpt lat="45.85775" lon="4.67356">
        <ele>214.16861</ele>
        <time>2023-12-07T12:43:02.000Z</time>
      </trkpt>
      <trkpt lat="45.85773" lon="4.67351">
        <ele>214.12692</ele>
        <time>2023-12-07T12:43:03.000Z</time>
      </trkpt>
      <trkpt lat="45.85771" lon="4.67345">
        <ele>214.03886</ele>
        <time>2023-12-07T12:43:04.000Z</time>
      </trkpt>
      <trkpt lat="45.8577" lon="4.67341">
        <ele>213.97607</ele>
        <time>2023-12-07T12:43:05.000Z</time>
      </trkpt>
      <trkpt lat="45.8577" lon="4.67335">
        <ele>213.86194</ele>
        <time>2023-12-07T12:43:06.000Z</time>
      </trkpt>
      <trkpt lat="45.8577" lon="4.67329">
        <ele>213.75183</ele>
        <time>2023-12-07T12:43:07.000Z</time>
      </trkpt>
      <trkpt lat="45.85767" lon="4.67324">
        <ele>213.66264</ele>
        <time>2023-12-07T12:43:08.000Z</time>
      </trkpt>
      <trkpt lat="45.85763" lon="4.6732">
        <ele>213.56168</ele>
        <time>2023-12-07T12:43:09.000Z</time>
      </trkpt>
      <trkpt lat="45.85759" lon="4.67317">
        <ele>213.44145</ele>
        <time>2023-12-07T12:43:10.000Z</time>
      </trkpt>
      <trkpt lat="45.85755" lon="4.67314">
        <ele>213.27344</ele>
        <time>2023-12-07T12:43:11.000Z</time>
      </trkpt>
      <trkpt lat="45.85753" lon="4.67309">
        <ele>213.09636</ele>
        <time>2023-12-07T12:43:12.000Z</time>
      </trkpt>
      <trkpt lat="45.85748" lon="4.67304">
        <ele>212.88066</ele>
        <time>2023-12-07T12:43:13.000Z</time>
      </trkpt>
      <trkpt lat="45.85745" lon="4.67299">
        <ele>212.88676</ele>
        <time>2023-12-07T12:43:14.000Z</time>
      </trkpt>
      <trkpt lat="45.85741" lon="4.67295">
        <ele>213.00174</ele>
        <time>2023-12-07T12:43:15.000Z</time>
      </trkpt>
      <trkpt lat="45.85737" lon="4.6729">
        <ele>213.23404</ele>
        <time>2023-12-07T12:43:16.000Z</time>
      </trkpt>
      <trkpt lat="45.85736" lon="4.67287">
        <ele>213.55661</ele>
        <time>2023-12-07T12:43:17.000Z</time>
      </trkpt>
      <trkpt lat="45.8573" lon="4.67284">
        <ele>213.75455</ele>
        <time>2023-12-07T12:43:18.000Z</time>
      </trkpt>
      <trkpt lat="45.85725" lon="4.6728">
        <ele>213.8885</ele>
        <time>2023-12-07T12:43:19.000Z</time>
      </trkpt>
      <trkpt lat="45.85721" lon="4.67277">
        <ele>214.04919</ele>
        <time>2023-12-07T12:43:20.000Z</time>
      </trkpt>
      <trkpt lat="45.85718" lon="4.67274">
        <ele>214.2222</ele>
        <time>2023-12-07T12:43:21.000Z</time>
      </trkpt>
      <trkpt lat="45.85713" lon="4.67271">
        <ele>214.39307</ele>
        <time>2023-12-07T12:43:22.000Z</time>
      </trkpt>
      <trkpt lat="45.85709" lon="4.67268">
        <ele>214.52859</ele>
        <time>2023-12-07T12:43:23.000Z</time>
      </trkpt>
      <trkpt lat="45.85705" lon="4.67266">
        <ele>214.66324</ele>
        <time>2023-12-07T12:43:24.000Z</time>
      </trkpt>
      <trkpt lat="45.85702" lon="4.67265">
        <ele>214.78674</ele>
        <time>2023-12-07T12:43:25.000Z</time>
      </trkpt>
      <trkpt lat="45.85698" lon="4.67263">
        <ele>214.97693</ele>
        <time>2023-12-07T12:43:26.000Z</time>
      </trkpt>
      <trkpt lat="45.85695" lon="4.67261">
        <ele>215.22832</ele>
        <time>2023-12-07T12:43:27.000Z</time>
      </trkpt>
      <trkpt lat="45.85691" lon="4.67259">
        <ele>215.53059</ele>
        <time>2023-12-07T12:43:28.000Z</time>
      </trkpt>
      <trkpt lat="45.85687" lon="4.67258">
        <ele>215.95882</ele>
        <time>2023-12-07T12:43:29.000Z</time>
      </trkpt>
      <trkpt lat="45.85683" lon="4.67255">
        <ele>216.34924</ele>
        <time>2023-12-07T12:43:30.000Z</time>
      </trkpt>
      <trkpt lat="45.85679" lon="4.67254">
        <ele>216.83374</ele>
        <time>2023-12-07T12:43:31.000Z</time>
      </trkpt>
      <trkpt lat="45.85676" lon="4.67254">
        <ele>217.22234</ele>
        <time>2023-12-07T12:43:32.000Z</time>
      </trkpt>
      <trkpt lat="45.85672" lon="4.67251">
        <ele>217.7054</ele>
        <time>2023-12-07T12:43:33.000Z</time>
      </trkpt>
      <trkpt lat="45.85669" lon="4.67248">
        <ele>217.9742</ele>
        <time>2023-12-07T12:43:34.000Z</time>
      </trkpt>
      <trkpt lat="45.85666" lon="4.67246">
        <ele>218.24548</ele>
        <time>2023-12-07T12:43:35.000Z</time>
      </trkpt>
      <trkpt lat="45.85665" lon="4.67245">
        <ele>218.39075</ele>
        <time>2023-12-07T12:43:36.000Z</time>
      </trkpt>
      <trkpt lat="45.85662" lon="4.67243">
        <ele>218.40617</ele>
        <time>2023-12-07T12:43:37.000Z</time>
      </trkpt>
      <trkpt lat="45.85659" lon="4.6724">
        <ele>218.87137</ele>
        <time>2023-12-07T12:43:38.000Z</time>
      </trkpt>
      <trkpt lat="45.85657" lon="4.67237">
        <ele>219.43596</ele>
        <time>2023-12-07T12:43:39.000Z</time>
      </trkpt>
      <trkpt lat="45.85654" lon="4.67235">
        <ele>220.01143</ele>
        <time>2023-12-07T12:43:40.000Z</time>
      </trkpt>
      <trkpt lat="45.8565" lon="4.67232">
        <ele>220.59631</ele>
        <time>2023-12-07T12:43:41.000Z</time>
      </trkpt>
      <trkpt lat="45.85646" lon="4.67229">
        <ele>221.27327</ele>
        <time>2023-12-07T12:43:42.000Z</time>
      </trkpt>
      <trkpt lat="45.85642" lon="4.67226">
        <ele>221.77071</ele>
        <time>2023-12-07T12:43:43.000Z</time>
      </trkpt>
      <trkpt lat="45.85639" lon="4.67223">
        <ele>222.31831</ele>
        <time>2023-12-07T12:43:44.000Z</time>
      </trkpt>
      <trkpt lat="45.85635" lon="4.67219">
        <ele>222.88351</ele>
        <time>2023-12-07T12:43:45.000Z</time>
      </trkpt>
      <trkpt lat="45.85632" lon="4.67215">
        <ele>223.41089</ele>
        <time>2023-12-07T12:43:46.000Z</time>
      </trkpt>
      <trkpt lat="45.8563" lon="4.67212">
        <ele>223.84732</ele>
        <time>2023-12-07T12:43:47.000Z</time>
      </trkpt>
      <trkpt lat="45.85627" lon="4.67208">
        <ele>224.25545</ele>
        <time>2023-12-07T12:43:48.000Z</time>
      </trkpt>
      <trkpt lat="45.85624" lon="4.67204">
        <ele>224.61475</ele>
        <time>2023-12-07T12:43:49.000Z</time>
      </trkpt>
      <trkpt lat="45.8562" lon="4.67198">
        <ele>224.91946</ele>
        <time>2023-12-07T12:43:50.000Z</time>
      </trkpt>
      <trkpt lat="45.85618" lon="4.67194">
        <ele>225.18652</ele>
        <time>2023-12-07T12:43:51.000Z</time>
      </trkpt>
      <trkpt lat="45.85616" lon="4.67189">
        <ele>225.44315</ele>
        <time>2023-12-07T12:43:52.000Z</time>
      </trkpt>
      <trkpt lat="45.85613" lon="4.67184">
        <ele>225.5905</ele>
        <time>2023-12-07T12:43:53.000Z</time>
      </trkpt>
      <trkpt lat="45.85611" lon="4.67179">
        <ele>225.87524</ele>
        <time>2023-12-07T12:43:54.000Z</time>
      </trkpt>
      <trkpt lat="45.85609" lon="4.67173">
        <ele>226.022</ele>
        <time>2023-12-07T12:43:55.000Z</time>
      </trkpt>
      <trkpt lat="45.85606" lon="4.67168">
        <ele>226.08521</ele>
        <time>2023-12-07T12:43:56.000Z</time>
      </trkpt>
      <trkpt lat="45.85601" lon="4.67158">
        <ele>226.11015</ele>
        <time>2023-12-07T12:43:57.000Z</time>
      </trkpt>
      <trkpt lat="45.85598" lon="4.67152">
        <ele>226.20813</ele>
        <time>2023-12-07T12:43:58.000Z</time>
      </trkpt>
      <trkpt lat="45.85595" lon="4.67144">
        <ele>226.21774</ele>
        <time>2023-12-07T12:43:59.000Z</time>
      </trkpt>
      <trkpt lat="45.85591" lon="4.67137">
        <ele>225.93156</ele>
        <time>2023-12-07T12:44:00.000Z</time>
      </trkpt>
      <trkpt lat="45.85588" lon="4.67132">
        <ele>225.55794</ele>
        <time>2023-12-07T12:44:01.000Z</time>
      </trkpt>
      <trkpt lat="45.85584" lon="4.67126">
        <ele>225.05698</ele>
        <time>2023-12-07T12:44:02.000Z</time>
      </trkpt>
      <trkpt lat="45.85581" lon="4.6712">
        <ele>224.78714</ele>
        <time>2023-12-07T12:44:03.000Z</time>
      </trkpt>
      <trkpt lat="45.85578" lon="4.67113">
        <ele>224.50859</ele>
        <time>2023-12-07T12:44:04.000Z</time>
      </trkpt>
      <trkpt lat="45.85576" lon="4.67106">
        <ele>224.30405</ele>
        <time>2023-12-07T12:44:05.000Z</time>
      </trkpt>
      <trkpt lat="45.85575" lon="4.671">
        <ele>224.01938</ele>
        <time>2023-12-07T12:44:06.000Z</time>
      </trkpt>
      <trkpt lat="45.85574" lon="4.67095">
        <ele>223.7083</ele>
        <time>2023-12-07T12:44:07.000Z</time>
      </trkpt>
      <trkpt lat="45.85572" lon="4.67089">
        <ele>223.37932</ele>
        <time>2023-12-07T12:44:08.000Z</time>
      </trkpt>
      <trkpt lat="45.8557" lon="4.67085">
        <ele>222.96037</ele>
        <time>2023-12-07T12:44:09.000Z</time>
      </trkpt>
      <trkpt lat="45.85568" lon="4.67079">
        <ele>222.59628</ele>
        <time>2023-12-07T12:44:10.000Z</time>
      </trkpt>
      <trkpt lat="45.85566" lon="4.67074">
        <ele>222.29358</ele>
        <time>2023-12-07T12:44:11.000Z</time>
      </trkpt>
      <trkpt lat="45.85565" lon="4.67069">
        <ele>221.98445</ele>
        <time>2023-12-07T12:44:12.000Z</time>
      </trkpt>
      <trkpt lat="45.85563" lon="4.67065">
        <ele>221.71957</ele>
        <time>2023-12-07T12:44:13.000Z</time>
      </trkpt>
      <trkpt lat="45.85562" lon="4.67061">
        <ele>221.46188</ele>
        <time>2023-12-07T12:44:14.000Z</time>
      </trkpt>
      <trkpt lat="45.8556" lon="4.67056">
        <ele>221.22214</ele>
        <time>2023-12-07T12:44:15.000Z</time>
      </trkpt>
      <trkpt lat="45.85559" lon="4.67052">
        <ele>221.06668</ele>
        <time>2023-12-07T12:44:16.000Z</time>
      </trkpt>
      <trkpt lat="45.85557" lon="4.67047">
        <ele>220.61411</ele>
        <time>2023-12-07T12:44:17.000Z</time>
      </trkpt>
      <trkpt lat="45.85556" lon="4.67042">
        <ele>220.08321</ele>
        <time>2023-12-07T12:44:18.000Z</time>
      </trkpt>
      <trkpt lat="45.85554" lon="4.67038">
        <ele>219.5535</ele>
        <time>2023-12-07T12:44:19.000Z</time>
      </trkpt>
      <trkpt lat="45.85553" lon="4.67033">
        <ele>219.27539</ele>
        <time>2023-12-07T12:44:20.000Z</time>
      </trkpt>
      <trkpt lat="45.85552" lon="4.67028">
        <ele>219.05515</ele>
        <time>2023-12-07T12:44:21.000Z</time>
      </trkpt>
      <trkpt lat="45.85551" lon="4.67022">
        <ele>218.901</ele>
        <time>2023-12-07T12:44:22.000Z</time>
      </trkpt>
      <trkpt lat="45.8555" lon="4.67016">
        <ele>218.75211</ele>
        <time>2023-12-07T12:44:23.000Z</time>
      </trkpt>
      <trkpt lat="45.85549" lon="4.6701">
        <ele>218.5876</ele>
        <time>2023-12-07T12:44:24.000Z</time>
      </trkpt>
      <trkpt lat="45.85547" lon="4.67005">
        <ele>218.35043</ele>
        <time>2023-12-07T12:44:25.000Z</time>
      </trkpt>
      <trkpt lat="45.85546" lon="4.66999">
        <ele>218.22195</ele>
        <time>2023-12-07T12:44:26.000Z</time>
      </trkpt>
      <trkpt lat="45.85544" lon="4.66994">
        <ele>218.14731</ele>
        <time>2023-12-07T12:44:27.000Z</time>
      </trkpt>
      <trkpt lat="45.85543" lon="4.66989">
        <ele>218.05278</ele>
        <time>2023-12-07T12:44:28.000Z</time>
      </trkpt>
      <trkpt lat="45.85542" lon="4.66984">
        <ele>218.02298</ele>
        <time>2023-12-07T12:44:29.000Z</time>
      </trkpt>
      <trkpt lat="45.8554" lon="4.66979">
        <ele>218.00803</ele>
        <time>2023-12-07T12:44:30.000Z</time>
      </trkpt>
      <trkpt lat="45.85539" lon="4.66976">
        <ele>217.91609</ele>
        <time>2023-12-07T12:44:31.000Z</time>
      </trkpt>
      <trkpt lat="45.85537" lon="4.66973">
        <ele>217.81255</ele>
        <time>2023-12-07T12:44:32.000Z</time>
      </trkpt>
      <trkpt lat="45.85536" lon="4.6697">
        <ele>217.71042</ele>
        <time>2023-12-07T12:44:33.000Z</time>
      </trkpt>
      <trkpt lat="45.85535" lon="4.66967">
        <ele>217.68826</ele>
        <time>2023-12-07T12:44:34.000Z</time>
      </trkpt>
      <trkpt lat="45.85535" lon="4.66963">
        <ele>217.72839</ele>
        <time>2023-12-07T12:44:35.000Z</time>
      </trkpt>
      <trkpt lat="45.85534" lon="4.6696">
        <ele>217.42545</ele>
        <time>2023-12-07T12:44:36.000Z</time>
      </trkpt>
      <trkpt lat="45.85533" lon="4.66956">
        <ele>217.47115</ele>
        <time>2023-12-07T12:44:37.000Z</time>
      </trkpt>
      <trkpt lat="45.85534" lon="4.66953">
        <ele>217.48613</ele>
        <time>2023-12-07T12:44:38.000Z</time>
      </trkpt>
      <trkpt lat="45.85536" lon="4.6695">
        <ele>217.51624</ele>
        <time>2023-12-07T12:44:39.000Z</time>
      </trkpt>
      <trkpt lat="45.85539" lon="4.66948">
        <ele>217.59441</ele>
        <time>2023-12-07T12:44:40.000Z</time>
      </trkpt>
      <trkpt lat="45.85543" lon="4.66948">
        <ele>217.62802</ele>
        <time>2023-12-07T12:44:41.000Z</time>
      </trkpt>
      <trkpt lat="45.85546" lon="4.66948">
        <ele>217.62898</ele>
        <time>2023-12-07T12:44:42.000Z</time>
      </trkpt>
      <trkpt lat="45.8555" lon="4.66947">
        <ele>217.62793</ele>
        <time>2023-12-07T12:44:43.000Z</time>
      </trkpt>
      <trkpt lat="45.85554" lon="4.66947">
        <ele>217.75735</ele>
        <time>2023-12-07T12:44:44.000Z</time>
      </trkpt>
      <trkpt lat="45.85558" lon="4.66947">
        <ele>217.88066</ele>
        <time>2023-12-07T12:44:45.000Z</time>
      </trkpt>
      <trkpt lat="45.85561" lon="4.66946">
        <ele>218.0065</ele>
        <time>2023-12-07T12:44:46.000Z</time>
      </trkpt>
      <trkpt lat="45.85566" lon="4.66946">
        <ele>218.14392</ele>
        <time>2023-12-07T12:44:47.000Z</time>
      </trkpt>
      <trkpt lat="45.8557" lon="4.66945">
        <ele>218.37283</ele>
        <time>2023-12-07T12:44:48.000Z</time>
      </trkpt>
      <trkpt lat="45.85574" lon="4.66944">
        <ele>218.28828</ele>
        <time>2023-12-07T12:44:49.000Z</time>
      </trkpt>
      <trkpt lat="45.85579" lon="4.66943">
        <ele>218.21184</ele>
        <time>2023-12-07T12:44:50.000Z</time>
      </trkpt>
      <trkpt lat="45.85583" lon="4.66941">
        <ele>218.16032</ele>
        <time>2023-12-07T12:44:51.000Z</time>
      </trkpt>
      <trkpt lat="45.85589" lon="4.66939">
        <ele>218.09982</ele>
        <time>2023-12-07T12:44:52.000Z</time>
      </trkpt>
      <trkpt lat="45.85593" lon="4.66937">
        <ele>218.05374</ele>
        <time>2023-12-07T12:44:53.000Z</time>
      </trkpt>
      <trkpt lat="45.85599" lon="4.66936">
        <ele>217.80891</ele>
        <time>2023-12-07T12:44:54.000Z</time>
      </trkpt>
      <trkpt lat="45.85604" lon="4.66935">
        <ele>217.53899</ele>
        <time>2023-12-07T12:44:55.000Z</time>
      </trkpt>
      <trkpt lat="45.85608" lon="4.66933">
        <ele>217.61716</ele>
        <time>2023-12-07T12:44:56.000Z</time>
      </trkpt>
      <trkpt lat="45.85613" lon="4.66931">
        <ele>217.6814</ele>
        <time>2023-12-07T12:44:57.000Z</time>
      </trkpt>
      <trkpt lat="45.85617" lon="4.66929">
        <ele>217.72168</ele>
        <time>2023-12-07T12:44:58.000Z</time>
      </trkpt>
      <trkpt lat="45.8562" lon="4.66928">
        <ele>217.72531</ele>
        <time>2023-12-07T12:44:59.000Z</time>
      </trkpt>
      <trkpt lat="45.85625" lon="4.66926">
        <ele>217.77727</ele>
        <time>2023-12-07T12:45:00.000Z</time>
      </trkpt>
      <trkpt lat="45.85629" lon="4.66925">
        <ele>217.86581</ele>
        <time>2023-12-07T12:45:01.000Z</time>
      </trkpt>
      <trkpt lat="45.85632" lon="4.66924">
        <ele>217.9958</ele>
        <time>2023-12-07T12:45:02.000Z</time>
      </trkpt>
      <trkpt lat="45.85636" lon="4.66923">
        <ele>218.13728</ele>
        <time>2023-12-07T12:45:03.000Z</time>
      </trkpt>
      <trkpt lat="45.8564" lon="4.66922">
        <ele>218.10396</ele>
        <time>2023-12-07T12:45:04.000Z</time>
      </trkpt>
      <trkpt lat="45.85643" lon="4.66923">
        <ele>218.06625</ele>
        <time>2023-12-07T12:45:05.000Z</time>
      </trkpt>
      <trkpt lat="45.85647" lon="4.66922">
        <ele>218.20654</ele>
        <time>2023-12-07T12:45:06.000Z</time>
      </trkpt>
      <trkpt lat="45.8565" lon="4.66922">
        <ele>218.30632</ele>
        <time>2023-12-07T12:45:07.000Z</time>
      </trkpt>
      <trkpt lat="45.85654" lon="4.66921">
        <ele>218.33623</ele>
        <time>2023-12-07T12:45:08.000Z</time>
      </trkpt>
      <trkpt lat="45.85658" lon="4.6692">
        <ele>218.66789</ele>
        <time>2023-12-07T12:45:09.000Z</time>
      </trkpt>
      <trkpt lat="45.85662" lon="4.6692">
        <ele>218.36145</ele>
        <time>2023-12-07T12:45:10.000Z</time>
      </trkpt>
      <trkpt lat="45.85665" lon="4.66919">
        <ele>218.05954</ele>
        <time>2023-12-07T12:45:11.000Z</time>
      </trkpt>
      <trkpt lat="45.85669" lon="4.66918">
        <ele>217.76555</ele>
        <time>2023-12-07T12:45:12.000Z</time>
      </trkpt>
      <trkpt lat="45.85673" lon="4.66918">
        <ele>217.43465</ele>
        <time>2023-12-07T12:45:13.000Z</time>
      </trkpt>
      <trkpt lat="45.85678" lon="4.66917">
        <ele>217.09384</ele>
        <time>2023-12-07T12:45:14.000Z</time>
      </trkpt>
      <trkpt lat="45.85682" lon="4.66917">
        <ele>216.71191</ele>
        <time>2023-12-07T12:45:15.000Z</time>
      </trkpt>
      <trkpt lat="45.85686" lon="4.66917">
        <ele>216.28683</ele>
        <time>2023-12-07T12:45:16.000Z</time>
      </trkpt>
      <trkpt lat="45.8569" lon="4.66917">
        <ele>215.80115</ele>
        <time>2023-12-07T12:45:17.000Z</time>
      </trkpt>
      <trkpt lat="45.85694" lon="4.66915">
        <ele>215.32524</ele>
        <time>2023-12-07T12:45:18.000Z</time>
      </trkpt>
      <trkpt lat="45.85698" lon="4.66913">
        <ele>214.90543</ele>
        <time>2023-12-07T12:45:19.000Z</time>
      </trkpt>
      <trkpt lat="45.85701" lon="4.66909">
        <ele>214.41924</ele>
        <time>2023-12-07T12:45:20.000Z</time>
      </trkpt>
      <trkpt lat="45.85703" lon="4.66904">
        <ele>213.9268</ele>
        <time>2023-12-07T12:45:21.000Z</time>
      </trkpt>
      <trkpt lat="45.85704" lon="4.66898">
        <ele>213.43704</ele>
        <time>2023-12-07T12:45:22.000Z</time>
      </trkpt>
      <trkpt lat="45.85701" lon="4.6689">
        <ele>212.94756</ele>
        <time>2023-12-07T12:45:23.000Z</time>
      </trkpt>
      <trkpt lat="45.85698" lon="4.66884">
        <ele>212.47664</ele>
        <time>2023-12-07T12:45:24.000Z</time>
      </trkpt>
      <trkpt lat="45.85696" lon="4.66879">
        <ele>212.03374</ele>
        <time>2023-12-07T12:45:25.000Z</time>
      </trkpt>
      <trkpt lat="45.85692" lon="4.66875">
        <ele>211.40559</ele>
        <time>2023-12-07T12:45:26.000Z</time>
      </trkpt>
      <trkpt lat="45.8569" lon="4.66869">
        <ele>210.78203</ele>
        <time>2023-12-07T12:45:27.000Z</time>
      </trkpt>
      <trkpt lat="45.85688" lon="4.66862">
        <ele>210.13986</ele>
        <time>2023-12-07T12:45:28.000Z</time>
      </trkpt>
      <trkpt lat="45.85689" lon="4.66855">
        <ele>209.49539</ele>
        <time>2023-12-07T12:45:29.000Z</time>
      </trkpt>
      <trkpt lat="45.85689" lon="4.66849">
        <ele>209.474</ele>
        <time>2023-12-07T12:45:30.000Z</time>
      </trkpt>
      <trkpt lat="45.85691" lon="4.66844">
        <ele>209.46997</ele>
        <time>2023-12-07T12:45:31.000Z</time>
      </trkpt>
      <trkpt lat="45.85694" lon="4.66841">
        <ele>209.47661</ele>
        <time>2023-12-07T12:45:32.000Z</time>
      </trkpt>
      <trkpt lat="45.85697" lon="4.66837">
        <ele>209.52461</ele>
        <time>2023-12-07T12:45:33.000Z</time>
      </trkpt>
      <trkpt lat="45.85701" lon="4.66834">
        <ele>209.58467</ele>
        <time>2023-12-07T12:45:34.000Z</time>
      </trkpt>
      <trkpt lat="45.85705" lon="4.66833">
        <ele>209.65884</ele>
        <time>2023-12-07T12:45:35.000Z</time>
      </trkpt>
      <trkpt lat="45.85709" lon="4.66833">
        <ele>209.76132</ele>
        <time>2023-12-07T12:45:36.000Z</time>
      </trkpt>
      <trkpt lat="45.85713" lon="4.66832">
        <ele>209.89932</ele>
        <time>2023-12-07T12:45:37.000Z</time>
      </trkpt>
      <trkpt lat="45.85717" lon="4.66832">
        <ele>210.056</ele>
        <time>2023-12-07T12:45:38.000Z</time>
      </trkpt>
      <trkpt lat="45.85721" lon="4.66832">
        <ele>210.20284</ele>
        <time>2023-12-07T12:45:39.000Z</time>
      </trkpt>
      <trkpt lat="45.85725" lon="4.66832">
        <ele>210.3885</ele>
        <time>2023-12-07T12:45:40.000Z</time>
      </trkpt>
      <trkpt lat="45.85729" lon="4.66833">
        <ele>210.5929</ele>
        <time>2023-12-07T12:45:41.000Z</time>
      </trkpt>
      <trkpt lat="45.85732" lon="4.66833">
        <ele>210.79436</ele>
        <time>2023-12-07T12:45:42.000Z</time>
      </trkpt>
      <trkpt lat="45.85735" lon="4.66833">
        <ele>210.9957</ele>
        <time>2023-12-07T12:45:43.000Z</time>
      </trkpt>
      <trkpt lat="45.85739" lon="4.66833">
        <ele>211.19624</ele>
        <time>2023-12-07T12:45:44.000Z</time>
      </trkpt>
      <trkpt lat="45.85742" lon="4.66833">
        <ele>211.38521</ele>
        <time>2023-12-07T12:45:45.000Z</time>
      </trkpt>
      <trkpt lat="45.85745" lon="4.66833">
        <ele>211.54276</ele>
        <time>2023-12-07T12:45:46.000Z</time>
      </trkpt>
      <trkpt lat="45.85749" lon="4.66833">
        <ele>211.7067</ele>
        <time>2023-12-07T12:45:47.000Z</time>
      </trkpt>
      <trkpt lat="45.85752" lon="4.66834">
        <ele>211.91277</ele>
        <time>2023-12-07T12:45:48.000Z</time>
      </trkpt>
      <trkpt lat="45.85755" lon="4.66834">
        <ele>212.11308</ele>
        <time>2023-12-07T12:45:49.000Z</time>
      </trkpt>
      <trkpt lat="45.85759" lon="4.66833">
        <ele>212.33842</ele>
        <time>2023-12-07T12:45:50.000Z</time>
      </trkpt>
      <trkpt lat="45.85762" lon="4.66831">
        <ele>212.55293</ele>
        <time>2023-12-07T12:45:51.000Z</time>
      </trkpt>
      <trkpt lat="45.85765" lon="4.66828">
        <ele>212.76877</ele>
        <time>2023-12-07T12:45:52.000Z</time>
      </trkpt>
      <trkpt lat="45.85767" lon="4.66825">
        <ele>212.98801</ele>
        <time>2023-12-07T12:45:53.000Z</time>
      </trkpt>
      <trkpt lat="45.8577" lon="4.66821">
        <ele>213.18526</ele>
        <time>2023-12-07T12:45:54.000Z</time>
      </trkpt>
      <trkpt lat="45.85772" lon="4.66818">
        <ele>213.39043</ele>
        <time>2023-12-07T12:45:55.000Z</time>
      </trkpt>
      <trkpt lat="45.85775" lon="4.66814">
        <ele>213.56506</ele>
        <time>2023-12-07T12:45:56.000Z</time>
      </trkpt>
      <trkpt lat="45.85777" lon="4.66811">
        <ele>213.82898</ele>
        <time>2023-12-07T12:45:57.000Z</time>
      </trkpt>
      <trkpt lat="45.85779" lon="4.66807">
        <ele>214.08833</ele>
        <time>2023-12-07T12:45:58.000Z</time>
      </trkpt>
      <trkpt lat="45.85781" lon="4.66802">
        <ele>214.34854</ele>
        <time>2023-12-07T12:45:59.000Z</time>
      </trkpt>
      <trkpt lat="45.85782" lon="4.66798">
        <ele>214.58101</ele>
        <time>2023-12-07T12:46:00.000Z</time>
      </trkpt>
      <trkpt lat="45.85783" lon="4.66793">
        <ele>214.83516</ele>
        <time>2023-12-07T12:46:01.000Z</time>
      </trkpt>
      <trkpt lat="45.85785" lon="4.66788">
        <ele>215.10661</ele>
        <time>2023-12-07T12:46:02.000Z</time>
      </trkpt>
      <trkpt lat="45.85786" lon="4.66784">
        <ele>215.35872</ele>
        <time>2023-12-07T12:46:03.000Z</time>
      </trkpt>
      <trkpt lat="45.85787" lon="4.6678">
        <ele>215.62102</ele>
        <time>2023-12-07T12:46:04.000Z</time>
      </trkpt>
      <trkpt lat="45.85788" lon="4.66775">
        <ele>215.89079</ele>
        <time>2023-12-07T12:46:05.000Z</time>
      </trkpt>
      <trkpt lat="45.85789" lon="4.66771">
        <ele>216.20255</ele>
        <time>2023-12-07T12:46:06.000Z</time>
      </trkpt>
      <trkpt lat="45.8579" lon="4.66766">
        <ele>216.53</ele>
        <time>2023-12-07T12:46:07.000Z</time>
      </trkpt>
      <trkpt lat="45.85792" lon="4.66761">
        <ele>216.81461</ele>
        <time>2023-12-07T12:46:08.000Z</time>
      </trkpt>
      <trkpt lat="45.85793" lon="4.66757">
        <ele>217.12358</ele>
        <time>2023-12-07T12:46:09.000Z</time>
      </trkpt>
      <trkpt lat="45.85794" lon="4.66753">
        <ele>217.32744</ele>
        <time>2023-12-07T12:46:10.000Z</time>
      </trkpt>
      <trkpt lat="45.85796" lon="4.66748">
        <ele>217.491</ele>
        <time>2023-12-07T12:46:11.000Z</time>
      </trkpt>
      <trkpt lat="45.85797" lon="4.66744">
        <ele>217.79712</ele>
        <time>2023-12-07T12:46:12.000Z</time>
      </trkpt>
      <trkpt lat="45.85799" lon="4.6674">
        <ele>218.07327</ele>
        <time>2023-12-07T12:46:13.000Z</time>
      </trkpt>
      <trkpt lat="45.858" lon="4.66735">
        <ele>218.36215</ele>
        <time>2023-12-07T12:46:14.000Z</time>
      </trkpt>
      <trkpt lat="45.85802" lon="4.66731">
        <ele>218.63126</ele>
        <time>2023-12-07T12:46:15.000Z</time>
      </trkpt>
      <trkpt lat="45.85804" lon="4.66727">
        <ele>218.90764</ele>
        <time>2023-12-07T12:46:16.000Z</time>
      </trkpt>
      <trkpt lat="45.85806" lon="4.66723">
        <ele>219.08537</ele>
        <time>2023-12-07T12:46:17.000Z</time>
      </trkpt>
      <trkpt lat="45.85808" lon="4.66719">
        <ele>219.27383</ele>
        <time>2023-12-07T12:46:18.000Z</time>
      </trkpt>
      <trkpt lat="45.85811" lon="4.66715">
        <ele>219.44685</ele>
        <time>2023-12-07T12:46:19.000Z</time>
      </trkpt>
      <trkpt lat="45.85814" lon="4.66713">
        <ele>219.60799</ele>
        <time>2023-12-07T12:46:20.000Z</time>
      </trkpt>
      <trkpt lat="45.85816" lon="4.6671">
        <ele>219.752</ele>
        <time>2023-12-07T12:46:21.000Z</time>
      </trkpt>
      <trkpt lat="45.85819" lon="4.66709">
        <ele>219.89075</ele>
        <time>2023-12-07T12:46:22.000Z</time>
      </trkpt>
      <trkpt lat="45.85823" lon="4.66707">
        <ele>220.05342</ele>
        <time>2023-12-07T12:46:23.000Z</time>
      </trkpt>
      <trkpt lat="45.85826" lon="4.66706">
        <ele>220.19101</ele>
        <time>2023-12-07T12:46:24.000Z</time>
      </trkpt>
      <trkpt lat="45.85829" lon="4.66705">
        <ele>220.3073</ele>
        <time>2023-12-07T12:46:25.000Z</time>
      </trkpt>
      <trkpt lat="45.85832" lon="4.66704">
        <ele>220.40695</ele>
        <time>2023-12-07T12:46:26.000Z</time>
      </trkpt>
      <trkpt lat="45.85835" lon="4.66704">
        <ele>220.5146</ele>
        <time>2023-12-07T12:46:27.000Z</time>
      </trkpt>
      <trkpt lat="45.85839" lon="4.66703">
        <ele>220.61227</ele>
        <time>2023-12-07T12:46:28.000Z</time>
      </trkpt>
      <trkpt lat="45.85842" lon="4.66702">
        <ele>220.72733</ele>
        <time>2023-12-07T12:46:29.000Z</time>
      </trkpt>
      <trkpt lat="45.85845" lon="4.66701">
        <ele>220.85893</ele>
        <time>2023-12-07T12:46:30.000Z</time>
      </trkpt>
      <trkpt lat="45.85848" lon="4.667">
        <ele>221.02193</ele>
        <time>2023-12-07T12:46:31.000Z</time>
      </trkpt>
      <trkpt lat="45.8585" lon="4.66699">
        <ele>221.03415</ele>
        <time>2023-12-07T12:46:32.000Z</time>
      </trkpt>
      <trkpt lat="45.85853" lon="4.66698">
        <ele>221.10698</ele>
        <time>2023-12-07T12:46:33.000Z</time>
      </trkpt>
      <trkpt lat="45.85856" lon="4.66697">
        <ele>221.19583</ele>
        <time>2023-12-07T12:46:34.000Z</time>
      </trkpt>
      <trkpt lat="45.85858" lon="4.66697">
        <ele>221.29721</ele>
        <time>2023-12-07T12:46:35.000Z</time>
      </trkpt>
      <trkpt lat="45.85861" lon="4.66696">
        <ele>221.40385</ele>
        <time>2023-12-07T12:46:36.000Z</time>
      </trkpt>
      <trkpt lat="45.85864" lon="4.66694">
        <ele>221.55049</ele>
        <time>2023-12-07T12:46:37.000Z</time>
      </trkpt>
      <trkpt lat="45.85866" lon="4.66693">
        <ele>221.65666</ele>
        <time>2023-12-07T12:46:38.000Z</time>
      </trkpt>
      <trkpt lat="45.85869" lon="4.66691">
        <ele>221.75212</ele>
        <time>2023-12-07T12:46:39.000Z</time>
      </trkpt>
      <trkpt lat="45.85871" lon="4.66689">
        <ele>222.05981</ele>
        <time>2023-12-07T12:46:40.000Z</time>
      </trkpt>
      <trkpt lat="45.85873" lon="4.66686">
        <ele>222.33174</ele>
        <time>2023-12-07T12:46:41.000Z</time>
      </trkpt>
      <trkpt lat="45.85875" lon="4.66683">
        <ele>222.61345</ele>
        <time>2023-12-07T12:46:42.000Z</time>
      </trkpt>
      <trkpt lat="45.85876" lon="4.66679">
        <ele>222.90833</ele>
        <time>2023-12-07T12:46:43.000Z</time>
      </trkpt>
      <trkpt lat="45.85876" lon="4.66674">
        <ele>223.22256</ele>
        <time>2023-12-07T12:46:44.000Z</time>
      </trkpt>
      <trkpt lat="45.85874" lon="4.6667">
        <ele>223.56027</ele>
        <time>2023-12-07T12:46:45.000Z</time>
      </trkpt>
      <trkpt lat="45.85872" lon="4.66666">
        <ele>223.88553</ele>
        <time>2023-12-07T12:46:46.000Z</time>
      </trkpt>
      <trkpt lat="45.8587" lon="4.66663">
        <ele>224.22363</ele>
        <time>2023-12-07T12:46:47.000Z</time>
      </trkpt>
      <trkpt lat="45.85867" lon="4.6666">
        <ele>224.58386</ele>
        <time>2023-12-07T12:46:48.000Z</time>
      </trkpt>
      <trkpt lat="45.85865" lon="4.66658">
        <ele>224.9086</ele>
        <time>2023-12-07T12:46:49.000Z</time>
      </trkpt>
      <trkpt lat="45.85862" lon="4.66656">
        <ele>225.31575</ele>
        <time>2023-12-07T12:46:50.000Z</time>
      </trkpt>
      <trkpt lat="45.85859" lon="4.66655">
        <ele>225.71927</ele>
        <time>2023-12-07T12:46:51.000Z</time>
      </trkpt>
      <trkpt lat="45.85856" lon="4.66653">
        <ele>226.14111</ele>
        <time>2023-12-07T12:46:52.000Z</time>
      </trkpt>
      <trkpt lat="45.85853" lon="4.6665">
        <ele>226.52237</ele>
        <time>2023-12-07T12:46:53.000Z</time>
      </trkpt>
      <trkpt lat="45.8585" lon="4.66648">
        <ele>226.8914</ele>
        <time>2023-12-07T12:46:54.000Z</time>
      </trkpt>
      <trkpt lat="45.85848" lon="4.66645">
        <ele>227.26889</ele>
        <time>2023-12-07T12:46:55.000Z</time>
      </trkpt>
      <trkpt lat="45.85845" lon="4.66643">
        <ele>227.61833</ele>
        <time>2023-12-07T12:46:56.000Z</time>
      </trkpt>
      <trkpt lat="45.85843" lon="4.6664">
        <ele>227.91451</ele>
        <time>2023-12-07T12:46:57.000Z</time>
      </trkpt>
      <trkpt lat="45.85841" lon="4.66637">
        <ele>228.25618</ele>
        <time>2023-12-07T12:46:58.000Z</time>
      </trkpt>
      <trkpt lat="45.85839" lon="4.66634">
        <ele>228.65298</ele>
        <time>2023-12-07T12:46:59.000Z</time>
      </trkpt>
      <trkpt lat="45.85837" lon="4.6663">
        <ele>228.86528</ele>
        <time>2023-12-07T12:47:00.000Z</time>
      </trkpt>
      <trkpt lat="45.85835" lon="4.66627">
        <ele>229.12444</ele>
        <time>2023-12-07T12:47:01.000Z</time>
      </trkpt>
      <trkpt lat="45.85834" lon="4.66624">
        <ele>229.37387</ele>
        <time>2023-12-07T12:47:02.000Z</time>
      </trkpt>
      <trkpt lat="45.85832" lon="4.6662">
        <ele>229.62878</ele>
        <time>2023-12-07T12:47:03.000Z</time>
      </trkpt>
      <trkpt lat="45.8583" lon="4.66617">
        <ele>229.88692</ele>
        <time>2023-12-07T12:47:04.000Z</time>
      </trkpt>
      <trkpt lat="45.85828" lon="4.66614">
        <ele>230.13892</ele>
        <time>2023-12-07T12:47:05.000Z</time>
      </trkpt>
      <trkpt lat="45.85826" lon="4.66611">
        <ele>230.43234</ele>
        <time>2023-12-07T12:47:06.000Z</time>
      </trkpt>
      <trkpt lat="45.85824" lon="4.66607">
        <ele>230.7189</ele>
        <time>2023-12-07T12:47:07.000Z</time>
      </trkpt>
      <trkpt lat="45.85823" lon="4.66604">
        <ele>231.0253</ele>
        <time>2023-12-07T12:47:08.000Z</time>
      </trkpt>
      <trkpt lat="45.85821" lon="4.666">
        <ele>231.34714</ele>
        <time>2023-12-07T12:47:09.000Z</time>
      </trkpt>
      <trkpt lat="45.85819" lon="4.66597">
        <ele>231.61606</ele>
        <time>2023-12-07T12:47:10.000Z</time>
      </trkpt>
      <trkpt lat="45.85818" lon="4.66594">
        <ele>231.94209</ele>
        <time>2023-12-07T12:47:11.000Z</time>
      </trkpt>
      <trkpt lat="45.85818" lon="4.66591">
        <ele>232.22208</ele>
        <time>2023-12-07T12:47:12.000Z</time>
      </trkpt>
      <trkpt lat="45.8582" lon="4.66588">
        <ele>232.53459</ele>
        <time>2023-12-07T12:47:13.000Z</time>
      </trkpt>
      <trkpt lat="45.85822" lon="4.66585">
        <ele>232.87137</ele>
        <time>2023-12-07T12:47:14.000Z</time>
      </trkpt>
      <trkpt lat="45.85824" lon="4.66583">
        <ele>233.24333</ele>
        <time>2023-12-07T12:47:15.000Z</time>
      </trkpt>
      <trkpt lat="45.85826" lon="4.6658">
        <ele>233.64774</ele>
        <time>2023-12-07T12:47:16.000Z</time>
      </trkpt>
      <trkpt lat="45.85828" lon="4.66577">
        <ele>234.06453</ele>
        <time>2023-12-07T12:47:17.000Z</time>
      </trkpt>
      <trkpt lat="45.8583" lon="4.66574">
        <ele>234.49846</ele>
        <time>2023-12-07T12:47:18.000Z</time>
      </trkpt>
      <trkpt lat="45.85831" lon="4.66571">
        <ele>234.90825</ele>
        <time>2023-12-07T12:47:19.000Z</time>
      </trkpt>
      <trkpt lat="45.85833" lon="4.66568">
        <ele>235.30811</ele>
        <time>2023-12-07T12:47:20.000Z</time>
      </trkpt>
      <trkpt lat="45.85834" lon="4.66564">
        <ele>235.69682</ele>
        <time>2023-12-07T12:47:21.000Z</time>
      </trkpt>
      <trkpt lat="45.85835" lon="4.66561">
        <ele>236.07397</ele>
        <time>2023-12-07T12:47:22.000Z</time>
      </trkpt>
      <trkpt lat="45.85836" lon="4.66558">
        <ele>236.4218</ele>
        <time>2023-12-07T12:47:23.000Z</time>
      </trkpt>
      <trkpt lat="45.85837" lon="4.66555">
        <ele>236.74043</ele>
        <time>2023-12-07T12:47:24.000Z</time>
      </trkpt>
      <trkpt lat="45.85839" lon="4.66551">
        <ele>237.04587</ele>
        <time>2023-12-07T12:47:25.000Z</time>
      </trkpt>
      <trkpt lat="45.85841" lon="4.66548">
        <ele>237.31584</ele>
        <time>2023-12-07T12:47:26.000Z</time>
      </trkpt>
      <trkpt lat="45.85842" lon="4.66545">
        <ele>237.55273</ele>
        <time>2023-12-07T12:47:27.000Z</time>
      </trkpt>
      <trkpt lat="45.85844" lon="4.66541">
        <ele>237.74161</ele>
        <time>2023-12-07T12:47:28.000Z</time>
      </trkpt>
      <trkpt lat="45.85845" lon="4.66538">
        <ele>237.73425</ele>
        <time>2023-12-07T12:47:29.000Z</time>
      </trkpt>
      <trkpt lat="45.85846" lon="4.66534">
        <ele>237.66682</ele>
        <time>2023-12-07T12:47:30.000Z</time>
      </trkpt>
      <trkpt lat="45.85847" lon="4.6653">
        <ele>237.54199</ele>
        <time>2023-12-07T12:47:31.000Z</time>
      </trkpt>
      <trkpt lat="45.85848" lon="4.66526">
        <ele>237.40799</ele>
        <time>2023-12-07T12:47:32.000Z</time>
      </trkpt>
      <trkpt lat="45.85849" lon="4.66523">
        <ele>237.2236</ele>
        <time>2023-12-07T12:47:33.000Z</time>
      </trkpt>
      <trkpt lat="45.8585" lon="4.66519">
        <ele>237.41733</ele>
        <time>2023-12-07T12:47:34.000Z</time>
      </trkpt>
      <trkpt lat="45.8585" lon="4.66515">
        <ele>237.49387</ele>
        <time>2023-12-07T12:47:35.000Z</time>
      </trkpt>
      <trkpt lat="45.85851" lon="4.66511">
        <ele>237.54265</ele>
        <time>2023-12-07T12:47:36.000Z</time>
      </trkpt>
      <trkpt lat="45.85851" lon="4.66508">
        <ele>237.60381</ele>
        <time>2023-12-07T12:47:37.000Z</time>
      </trkpt>
      <trkpt lat="45.85852" lon="4.66504">
        <ele>237.60928</ele>
        <time>2023-12-07T12:47:38.000Z</time>
      </trkpt>
      <trkpt lat="45.85853" lon="4.665">
        <ele>237.61089</ele>
        <time>2023-12-07T12:47:39.000Z</time>
      </trkpt>
      <trkpt lat="45.85855" lon="4.66495">
        <ele>237.58017</ele>
        <time>2023-12-07T12:47:40.000Z</time>
      </trkpt>
      <trkpt lat="45.85856" lon="4.66491">
        <ele>237.55161</ele>
        <time>2023-12-07T12:47:41.000Z</time>
      </trkpt>
      <trkpt lat="45.85857" lon="4.66487">
        <ele>237.5201</ele>
        <time>2023-12-07T12:47:42.000Z</time>
      </trkpt>
      <trkpt lat="45.85858" lon="4.66484">
        <ele>237.5061</ele>
        <time>2023-12-07T12:47:43.000Z</time>
      </trkpt>
      <trkpt lat="45.85859" lon="4.6648">
        <ele>237.52066</ele>
        <time>2023-12-07T12:47:44.000Z</time>
      </trkpt>
      <trkpt lat="45.85861" lon="4.66477">
        <ele>237.56339</ele>
        <time>2023-12-07T12:47:45.000Z</time>
      </trkpt>
      <trkpt lat="45.85864" lon="4.66475">
        <ele>237.60794</ele>
        <time>2023-12-07T12:47:46.000Z</time>
      </trkpt>
      <trkpt lat="45.85867" lon="4.66475">
        <ele>237.66968</ele>
        <time>2023-12-07T12:47:47.000Z</time>
      </trkpt>
      <trkpt lat="45.8587" lon="4.66476">
        <ele>237.72881</ele>
        <time>2023-12-07T12:47:48.000Z</time>
      </trkpt>
      <trkpt lat="45.85873" lon="4.66477">
        <ele>237.98129</ele>
        <time>2023-12-07T12:47:49.000Z</time>
      </trkpt>
      <trkpt lat="45.85876" lon="4.66479">
        <ele>238.32651</ele>
        <time>2023-12-07T12:47:50.000Z</time>
      </trkpt>
      <trkpt lat="45.85879" lon="4.6648">
        <ele>238.66255</ele>
        <time>2023-12-07T12:47:51.000Z</time>
      </trkpt>
      <trkpt lat="45.85882" lon="4.66481">
        <ele>239.03027</ele>
        <time>2023-12-07T12:47:52.000Z</time>
      </trkpt>
      <trkpt lat="45.85885" lon="4.66481">
        <ele>239.43181</ele>
        <time>2023-12-07T12:47:53.000Z</time>
      </trkpt>
      <trkpt lat="45.85889" lon="4.6648">
        <ele>239.18204</ele>
        <time>2023-12-07T12:47:54.000Z</time>
      </trkpt>
      <trkpt lat="45.85892" lon="4.6648">
        <ele>238.92419</ele>
        <time>2023-12-07T12:47:55.000Z</time>
      </trkpt>
      <trkpt lat="45.85895" lon="4.6648">
        <ele>238.66853</ele>
        <time>2023-12-07T12:47:56.000Z</time>
      </trkpt>
      <trkpt lat="45.85898" lon="4.6648">
        <ele>238.37204</ele>
        <time>2023-12-07T12:47:57.000Z</time>
      </trkpt>
      <trkpt lat="45.85901" lon="4.66479">
        <ele>238.46838</ele>
        <time>2023-12-07T12:47:58.000Z</time>
      </trkpt>
      <trkpt lat="45.85903" lon="4.66477">
        <ele>238.48001</ele>
        <time>2023-12-07T12:47:59.000Z</time>
      </trkpt>
      <trkpt lat="45.85906" lon="4.66475">
        <ele>238.51509</ele>
        <time>2023-12-07T12:48:00.000Z</time>
      </trkpt>
      <trkpt lat="45.85909" lon="4.66474">
        <ele>238.52267</ele>
        <time>2023-12-07T12:48:01.000Z</time>
      </trkpt>
      <trkpt lat="45.85911" lon="4.66472">
        <ele>238.54892</ele>
        <time>2023-12-07T12:48:02.000Z</time>
      </trkpt>
      <trkpt lat="45.85914" lon="4.66471">
        <ele>238.54814</ele>
        <time>2023-12-07T12:48:03.000Z</time>
      </trkpt>
      <trkpt lat="45.85917" lon="4.6647">
        <ele>238.5452</ele>
        <time>2023-12-07T12:48:04.000Z</time>
      </trkpt>
      <trkpt lat="45.85921" lon="4.66469">
        <ele>238.49622</ele>
        <time>2023-12-07T12:48:05.000Z</time>
      </trkpt>
      <trkpt lat="45.85924" lon="4.66468">
        <ele>238.46152</ele>
        <time>2023-12-07T12:48:06.000Z</time>
      </trkpt>
      <trkpt lat="45.85927" lon="4.66466">
        <ele>238.39201</ele>
        <time>2023-12-07T12:48:07.000Z</time>
      </trkpt>
      <trkpt lat="45.8593" lon="4.66465">
        <ele>238.35156</ele>
        <time>2023-12-07T12:48:08.000Z</time>
      </trkpt>
      <trkpt lat="45.85933" lon="4.66464">
        <ele>238.29947</ele>
        <time>2023-12-07T12:48:09.000Z</time>
      </trkpt>
      <trkpt lat="45.85936" lon="4.66463">
        <ele>238.2496</ele>
        <time>2023-12-07T12:48:10.000Z</time>
      </trkpt>
      <trkpt lat="45.85939" lon="4.66462">
        <ele>238.21213</ele>
        <time>2023-12-07T12:48:11.000Z</time>
      </trkpt>
      <trkpt lat="45.85942" lon="4.66461">
        <ele>238.17993</ele>
        <time>2023-12-07T12:48:12.000Z</time>
      </trkpt>
      <trkpt lat="45.85945" lon="4.66459">
        <ele>238.14648</ele>
        <time>2023-12-07T12:48:13.000Z</time>
      </trkpt>
      <trkpt lat="45.85948" lon="4.66457">
        <ele>238.36406</ele>
        <time>2023-12-07T12:48:14.000Z</time>
      </trkpt>
      <trkpt lat="45.85951" lon="4.66455">
        <ele>238.64719</ele>
        <time>2023-12-07T12:48:15.000Z</time>
      </trkpt>
      <trkpt lat="45.85954" lon="4.66451">
        <ele>238.93921</ele>
        <time>2023-12-07T12:48:16.000Z</time>
      </trkpt>
      <trkpt lat="45.85956" lon="4.66447">
        <ele>239.24934</ele>
        <time>2023-12-07T12:48:17.000Z</time>
      </trkpt>
      <trkpt lat="45.85957" lon="4.66443">
        <ele>239.20581</ele>
        <time>2023-12-07T12:48:18.000Z</time>
      </trkpt>
      <trkpt lat="45.85959" lon="4.66439">
        <ele>239.22876</ele>
        <time>2023-12-07T12:48:19.000Z</time>
      </trkpt>
      <trkpt lat="45.85961" lon="4.66435">
        <ele>239.25266</ele>
        <time>2023-12-07T12:48:20.000Z</time>
      </trkpt>
      <trkpt lat="45.85963" lon="4.66431">
        <ele>239.31448</ele>
        <time>2023-12-07T12:48:21.000Z</time>
      </trkpt>
      <trkpt lat="45.85966" lon="4.66428">
        <ele>239.36919</ele>
        <time>2023-12-07T12:48:22.000Z</time>
      </trkpt>
      <trkpt lat="45.85968" lon="4.66424">
        <ele>239.44128</ele>
        <time>2023-12-07T12:48:23.000Z</time>
      </trkpt>
      <trkpt lat="45.8597" lon="4.6642">
        <ele>239.50838</ele>
        <time>2023-12-07T12:48:24.000Z</time>
      </trkpt>
      <trkpt lat="45.85972" lon="4.66416">
        <ele>239.58101</ele>
        <time>2023-12-07T12:48:25.000Z</time>
      </trkpt>
      <trkpt lat="45.85974" lon="4.66412">
        <ele>239.63083</ele>
        <time>2023-12-07T12:48:26.000Z</time>
      </trkpt>
      <trkpt lat="45.85976" lon="4.66408">
        <ele>239.73257</ele>
        <time>2023-12-07T12:48:27.000Z</time>
      </trkpt>
      <trkpt lat="45.85978" lon="4.66404">
        <ele>239.81015</ele>
        <time>2023-12-07T12:48:28.000Z</time>
      </trkpt>
      <trkpt lat="45.85981" lon="4.66399">
        <ele>239.88814</ele>
        <time>2023-12-07T12:48:29.000Z</time>
      </trkpt>
      <trkpt lat="45.85983" lon="4.66395">
        <ele>239.99756</ele>
        <time>2023-12-07T12:48:30.000Z</time>
      </trkpt>
      <trkpt lat="45.85985" lon="4.6639">
        <ele>240.08862</ele>
        <time>2023-12-07T12:48:31.000Z</time>
      </trkpt>
      <trkpt lat="45.85987" lon="4.66385">
        <ele>240.17651</ele>
        <time>2023-12-07T12:48:32.000Z</time>
      </trkpt>
      <trkpt lat="45.85989" lon="4.66381">
        <ele>240.27029</ele>
        <time>2023-12-07T12:48:33.000Z</time>
      </trkpt>
      <trkpt lat="45.85991" lon="4.66376">
        <ele>240.30144</ele>
        <time>2023-12-07T12:48:34.000Z</time>
      </trkpt>
      <trkpt lat="45.85994" lon="4.66371">
        <ele>240.32365</ele>
        <time>2023-12-07T12:48:35.000Z</time>
      </trkpt>
      <trkpt lat="45.85996" lon="4.66367">
        <ele>240.34297</ele>
        <time>2023-12-07T12:48:36.000Z</time>
      </trkpt>
      <trkpt lat="45.85999" lon="4.66362">
        <ele>240.36787</ele>
        <time>2023-12-07T12:48:37.000Z</time>
      </trkpt>
      <trkpt lat="45.86001" lon="4.66358">
        <ele>240.36377</ele>
        <time>2023-12-07T12:48:38.000Z</time>
      </trkpt>
      <trkpt lat="45.86004" lon="4.66353">
        <ele>240.38809</ele>
        <time>2023-12-07T12:48:39.000Z</time>
      </trkpt>
      <trkpt lat="45.86007" lon="4.66349">
        <ele>240.38506</ele>
        <time>2023-12-07T12:48:40.000Z</time>
      </trkpt>
      <trkpt lat="45.86009" lon="4.66344">
        <ele>240.36032</ele>
        <time>2023-12-07T12:48:41.000Z</time>
      </trkpt>
      <trkpt lat="45.86012" lon="4.6634">
        <ele>240.33353</ele>
        <time>2023-12-07T12:48:42.000Z</time>
      </trkpt>
      <trkpt lat="45.86014" lon="4.66336">
        <ele>240.31863</ele>
        <time>2023-12-07T12:48:43.000Z</time>
      </trkpt>
      <trkpt lat="45.86017" lon="4.66332">
        <ele>240.27408</ele>
        <time>2023-12-07T12:48:44.000Z</time>
      </trkpt>
      <trkpt lat="45.86019" lon="4.66328">
        <ele>240.23987</ele>
        <time>2023-12-07T12:48:45.000Z</time>
      </trkpt>
      <trkpt lat="45.86021" lon="4.66325">
        <ele>240.20488</ele>
        <time>2023-12-07T12:48:46.000Z</time>
      </trkpt>
      <trkpt lat="45.86023" lon="4.66322">
        <ele>240.16748</ele>
        <time>2023-12-07T12:48:47.000Z</time>
      </trkpt>
      <trkpt lat="45.86025" lon="4.66319">
        <ele>239.98271</ele>
        <time>2023-12-07T12:48:48.000Z</time>
      </trkpt>
      <trkpt lat="45.86026" lon="4.66317">
        <ele>239.77531</ele>
        <time>2023-12-07T12:48:49.000Z</time>
      </trkpt>
      <trkpt lat="45.86028" lon="4.66314">
        <ele>239.54321</ele>
        <time>2023-12-07T12:48:50.000Z</time>
      </trkpt>
      <trkpt lat="45.8603" lon="4.66311">
        <ele>239.24606</ele>
        <time>2023-12-07T12:48:51.000Z</time>
      </trkpt>
      <trkpt lat="45.86033" lon="4.66308">
        <ele>238.95007</ele>
        <time>2023-12-07T12:48:52.000Z</time>
      </trkpt>
      <trkpt lat="45.86035" lon="4.66305">
        <ele>238.59921</ele>
        <time>2023-12-07T12:48:53.000Z</time>
      </trkpt>
      <trkpt lat="45.86037" lon="4.66302">
        <ele>238.69839</ele>
        <time>2023-12-07T12:48:54.000Z</time>
      </trkpt>
      <trkpt lat="45.8604" lon="4.663">
        <ele>238.75015</ele>
        <time>2023-12-07T12:48:55.000Z</time>
      </trkpt>
      <trkpt lat="45.86042" lon="4.66297">
        <ele>238.81706</ele>
        <time>2023-12-07T12:48:56.000Z</time>
      </trkpt>
      <trkpt lat="45.86044" lon="4.66294">
        <ele>238.87228</ele>
        <time>2023-12-07T12:48:57.000Z</time>
      </trkpt>
      <trkpt lat="45.86046" lon="4.6629">
        <ele>238.97881</ele>
        <time>2023-12-07T12:48:58.000Z</time>
      </trkpt>
      <trkpt lat="45.86048" lon="4.66287">
        <ele>239.08101</ele>
        <time>2023-12-07T12:48:59.000Z</time>
      </trkpt>
      <trkpt lat="45.8605" lon="4.66283">
        <ele>239.16873</ele>
        <time>2023-12-07T12:49:00.000Z</time>
      </trkpt>
      <trkpt lat="45.86052" lon="4.66279">
        <ele>239.28023</ele>
        <time>2023-12-07T12:49:01.000Z</time>
      </trkpt>
      <trkpt lat="45.86053" lon="4.66275">
        <ele>239.379</ele>
        <time>2023-12-07T12:49:02.000Z</time>
      </trkpt>
      <trkpt lat="45.86055" lon="4.66271">
        <ele>239.46346</ele>
        <time>2023-12-07T12:49:03.000Z</time>
      </trkpt>
      <trkpt lat="45.86057" lon="4.66267">
        <ele>239.58237</ele>
        <time>2023-12-07T12:49:04.000Z</time>
      </trkpt>
      <trkpt lat="45.86059" lon="4.66263">
        <ele>239.7225</ele>
        <time>2023-12-07T12:49:05.000Z</time>
      </trkpt>
      <trkpt lat="45.86061" lon="4.66259">
        <ele>239.84416</ele>
        <time>2023-12-07T12:49:06.000Z</time>
      </trkpt>
      <trkpt lat="45.86064" lon="4.66257">
        <ele>239.91985</ele>
        <time>2023-12-07T12:49:07.000Z</time>
      </trkpt>
      <trkpt lat="45.86067" lon="4.66254">
        <ele>240.16238</ele>
        <time>2023-12-07T12:49:08.000Z</time>
      </trkpt>
      <trkpt lat="45.86072" lon="4.66252">
        <ele>240.41251</ele>
        <time>2023-12-07T12:49:09.000Z</time>
      </trkpt>
      <trkpt lat="45.86076" lon="4.66249">
        <ele>240.63322</ele>
        <time>2023-12-07T12:49:10.000Z</time>
      </trkpt>
      <trkpt lat="45.8608" lon="4.66245">
        <ele>240.92744</ele>
        <time>2023-12-07T12:49:11.000Z</time>
      </trkpt>
      <trkpt lat="45.86084" lon="4.66241">
        <ele>241.22456</ele>
        <time>2023-12-07T12:49:12.000Z</time>
      </trkpt>
      <trkpt lat="45.86087" lon="4.66238">
        <ele>241.55176</ele>
        <time>2023-12-07T12:49:13.000Z</time>
      </trkpt>
      <trkpt lat="45.8609" lon="4.66235">
        <ele>241.31148</ele>
        <time>2023-12-07T12:49:14.000Z</time>
      </trkpt>
      <trkpt lat="45.86092" lon="4.6623">
        <ele>241.13257</ele>
        <time>2023-12-07T12:49:15.000Z</time>
      </trkpt>
      <trkpt lat="45.86095" lon="4.66226">
        <ele>240.9425</ele>
        <time>2023-12-07T12:49:16.000Z</time>
      </trkpt>
      <trkpt lat="45.86097" lon="4.66222">
        <ele>240.76335</ele>
        <time>2023-12-07T12:49:17.000Z</time>
      </trkpt>
      <trkpt lat="45.86099" lon="4.66216">
        <ele>240.40784</ele>
        <time>2023-12-07T12:49:18.000Z</time>
      </trkpt>
      <trkpt lat="45.86099" lon="4.6621">
        <ele>240.03008</ele>
        <time>2023-12-07T12:49:19.000Z</time>
      </trkpt>
      <trkpt lat="45.86099" lon="4.66205">
        <ele>240.07156</ele>
        <time>2023-12-07T12:49:20.000Z</time>
      </trkpt>
      <trkpt lat="45.86099" lon="4.662">
        <ele>239.99854</ele>
        <time>2023-12-07T12:49:21.000Z</time>
      </trkpt>
      <trkpt lat="45.86099" lon="4.66195">
        <ele>239.90962</ele>
        <time>2023-12-07T12:49:22.000Z</time>
      </trkpt>
      <trkpt lat="45.86099" lon="4.6619">
        <ele>239.851</ele>
        <time>2023-12-07T12:49:23.000Z</time>
      </trkpt>
      <trkpt lat="45.86098" lon="4.66185">
        <ele>239.76047</ele>
        <time>2023-12-07T12:49:24.000Z</time>
      </trkpt>
      <trkpt lat="45.86098" lon="4.6618">
        <ele>239.69681</ele>
        <time>2023-12-07T12:49:25.000Z</time>
      </trkpt>
      <trkpt lat="45.86097" lon="4.66175">
        <ele>239.67522</ele>
        <time>2023-12-07T12:49:26.000Z</time>
      </trkpt>
      <trkpt lat="45.86096" lon="4.6617">
        <ele>239.68802</ele>
        <time>2023-12-07T12:49:27.000Z</time>
      </trkpt>
      <trkpt lat="45.86095" lon="4.66165">
        <ele>239.69145</ele>
        <time>2023-12-07T12:49:28.000Z</time>
      </trkpt>
      <trkpt lat="45.86094" lon="4.6616">
        <ele>239.70955</ele>
        <time>2023-12-07T12:49:29.000Z</time>
      </trkpt>
      <trkpt lat="45.86093" lon="4.66155">
        <ele>239.57388</ele>
        <time>2023-12-07T12:49:30.000Z</time>
      </trkpt>
      <trkpt lat="45.86092" lon="4.6615">
        <ele>239.4628</ele>
        <time>2023-12-07T12:49:31.000Z</time>
      </trkpt>
      <trkpt lat="45.86091" lon="4.66145">
        <ele>239.27029</ele>
        <time>2023-12-07T12:49:32.000Z</time>
      </trkpt>
      <trkpt lat="45.86089" lon="4.66141">
        <ele>239.03979</ele>
        <time>2023-12-07T12:49:33.000Z</time>
      </trkpt>
      <trkpt lat="45.86087" lon="4.66136">
        <ele>238.96976</ele>
        <time>2023-12-07T12:49:34.000Z</time>
      </trkpt>
      <trkpt lat="45.86085" lon="4.66132">
        <ele>238.90134</ele>
        <time>2023-12-07T12:49:35.000Z</time>
      </trkpt>
      <trkpt lat="45.86084" lon="4.66127">
        <ele>239.21133</ele>
        <time>2023-12-07T12:49:36.000Z</time>
      </trkpt>
      <trkpt lat="45.86082" lon="4.66122">
        <ele>239.46106</ele>
        <time>2023-12-07T12:49:37.000Z</time>
      </trkpt>
      <trkpt lat="45.86081" lon="4.66117">
        <ele>239.84148</ele>
        <time>2023-12-07T12:49:38.000Z</time>
      </trkpt>
      <trkpt lat="45.8608" lon="4.66112">
        <ele>240.22812</ele>
        <time>2023-12-07T12:49:39.000Z</time>
      </trkpt>
      <trkpt lat="45.86079" lon="4.66108">
        <ele>240.22214</ele>
        <time>2023-12-07T12:49:40.000Z</time>
      </trkpt>
      <trkpt lat="45.86078" lon="4.66103">
        <ele>240.33224</ele>
        <time>2023-12-07T12:49:41.000Z</time>
      </trkpt>
      <trkpt lat="45.86077" lon="4.66098">
        <ele>240.44604</ele>
        <time>2023-12-07T12:49:42.000Z</time>
      </trkpt>
      <trkpt lat="45.86076" lon="4.66093">
        <ele>240.51059</ele>
        <time>2023-12-07T12:49:43.000Z</time>
      </trkpt>
      <trkpt lat="45.86076" lon="4.66089">
        <ele>240.59647</ele>
        <time>2023-12-07T12:49:44.000Z</time>
      </trkpt>
      <trkpt lat="45.86075" lon="4.66084">
        <ele>240.67461</ele>
        <time>2023-12-07T12:49:45.000Z</time>
      </trkpt>
      <trkpt lat="45.86075" lon="4.66079">
        <ele>240.56938</ele>
        <time>2023-12-07T12:49:46.000Z</time>
      </trkpt>
      <trkpt lat="45.86075" lon="4.66074">
        <ele>240.46985</ele>
        <time>2023-12-07T12:49:47.000Z</time>
      </trkpt>
      <trkpt lat="45.86075" lon="4.6607">
        <ele>240.39738</ele>
        <time>2023-12-07T12:49:48.000Z</time>
      </trkpt>
      <trkpt lat="45.86075" lon="4.66066">
        <ele>240.29817</ele>
        <time>2023-12-07T12:49:49.000Z</time>
      </trkpt>
      <trkpt lat="45.86075" lon="4.66062">
        <ele>240.25545</ele>
        <time>2023-12-07T12:49:50.000Z</time>
      </trkpt>
      <trkpt lat="45.86075" lon="4.66058">
        <ele>240.15427</ele>
        <time>2023-12-07T12:49:51.000Z</time>
      </trkpt>
      <trkpt lat="45.86076" lon="4.66054">
        <ele>240.56589</ele>
        <time>2023-12-07T12:49:52.000Z</time>
      </trkpt>
      <trkpt lat="45.86076" lon="4.6605">
        <ele>240.98013</ele>
        <time>2023-12-07T12:49:53.000Z</time>
      </trkpt>
      <trkpt lat="45.86076" lon="4.66047">
        <ele>241.43384</ele>
        <time>2023-12-07T12:49:54.000Z</time>
      </trkpt>
      <trkpt lat="45.86076" lon="4.66044">
        <ele>241.87195</ele>
        <time>2023-12-07T12:49:55.000Z</time>
      </trkpt>
      <trkpt lat="45.86077" lon="4.66041">
        <ele>241.9119</ele>
        <time>2023-12-07T12:49:56.000Z</time>
      </trkpt>
      <trkpt lat="45.86077" lon="4.66038">
        <ele>242.01579</ele>
        <time>2023-12-07T12:49:57.000Z</time>
      </trkpt>
      <trkpt lat="45.86078" lon="4.66035">
        <ele>242.09659</ele>
        <time>2023-12-07T12:49:58.000Z</time>
      </trkpt>
      <trkpt lat="45.86079" lon="4.66032">
        <ele>242.19243</ele>
        <time>2023-12-07T12:49:59.000Z</time>
      </trkpt>
      <trkpt lat="45.86081" lon="4.66029">
        <ele>242.257</ele>
        <time>2023-12-07T12:50:00.000Z</time>
      </trkpt>
      <trkpt lat="45.86082" lon="4.66025">
        <ele>242.30905</ele>
        <time>2023-12-07T12:50:01.000Z</time>
      </trkpt>
      <trkpt lat="45.86084" lon="4.66021">
        <ele>242.09464</ele>
        <time>2023-12-07T12:50:02.000Z</time>
      </trkpt>
      <trkpt lat="45.86086" lon="4.66016">
        <ele>241.83859</ele>
        <time>2023-12-07T12:50:03.000Z</time>
      </trkpt>
      <trkpt lat="45.86088" lon="4.66011">
        <ele>241.56485</ele>
        <time>2023-12-07T12:50:04.000Z</time>
      </trkpt>
      <trkpt lat="45.86091" lon="4.66006">
        <ele>241.64111</ele>
        <time>2023-12-07T12:50:05.000Z</time>
      </trkpt>
      <trkpt lat="45.86093" lon="4.66">
        <ele>241.83138</ele>
        <time>2023-12-07T12:50:06.000Z</time>
      </trkpt>
      <trkpt lat="45.86095" lon="4.65995">
        <ele>242.00705</ele>
        <time>2023-12-07T12:50:07.000Z</time>
      </trkpt>
      <trkpt lat="45.86097" lon="4.65991">
        <ele>242.15132</ele>
        <time>2023-12-07T12:50:08.000Z</time>
      </trkpt>
      <trkpt lat="45.86099" lon="4.65986">
        <ele>242.31197</ele>
        <time>2023-12-07T12:50:09.000Z</time>
      </trkpt>
      <trkpt lat="45.86102" lon="4.65981">
        <ele>242.60498</ele>
        <time>2023-12-07T12:50:10.000Z</time>
      </trkpt>
      <trkpt lat="45.86104" lon="4.65976">
        <ele>242.96931</ele>
        <time>2023-12-07T12:50:11.000Z</time>
      </trkpt>
      <trkpt lat="45.86106" lon="4.65972">
        <ele>242.93164</ele>
        <time>2023-12-07T12:50:12.000Z</time>
      </trkpt>
      <trkpt lat="45.86109" lon="4.65968">
        <ele>242.89526</ele>
        <time>2023-12-07T12:50:13.000Z</time>
      </trkpt>
      <trkpt lat="45.86113" lon="4.65967">
        <ele>242.83073</ele>
        <time>2023-12-07T12:50:14.000Z</time>
      </trkpt>
      <trkpt lat="45.86117" lon="4.65968">
        <ele>242.78177</ele>
        <time>2023-12-07T12:50:15.000Z</time>
      </trkpt>
      <trkpt lat="45.86122" lon="4.65973">
        <ele>242.75789</ele>
        <time>2023-12-07T12:50:16.000Z</time>
      </trkpt>
      <trkpt lat="45.86126" lon="4.65973">
        <ele>242.73978</ele>
        <time>2023-12-07T12:50:17.000Z</time>
      </trkpt>
      <trkpt lat="45.8613" lon="4.65972">
        <ele>242.72781</ele>
        <time>2023-12-07T12:50:18.000Z</time>
      </trkpt>
      <trkpt lat="45.86134" lon="4.6597">
        <ele>242.68867</ele>
        <time>2023-12-07T12:50:19.000Z</time>
      </trkpt>
      <trkpt lat="45.86138" lon="4.65966">
        <ele>242.69075</ele>
        <time>2023-12-07T12:50:20.000Z</time>
      </trkpt>
      <trkpt lat="45.86142" lon="4.65963">
        <ele>242.64104</ele>
        <time>2023-12-07T12:50:21.000Z</time>
      </trkpt>
      <trkpt lat="45.86146" lon="4.6596">
        <ele>242.59749</ele>
        <time>2023-12-07T12:50:22.000Z</time>
      </trkpt>
      <trkpt lat="45.86151" lon="4.65957">
        <ele>242.5925</ele>
        <time>2023-12-07T12:50:23.000Z</time>
      </trkpt>
      <trkpt lat="45.86154" lon="4.65953">
        <ele>242.60359</ele>
        <time>2023-12-07T12:50:24.000Z</time>
      </trkpt>
      <trkpt lat="45.86158" lon="4.6595">
        <ele>242.60349</ele>
        <time>2023-12-07T12:50:25.000Z</time>
      </trkpt>
      <trkpt lat="45.86162" lon="4.65947">
        <ele>242.5417</ele>
        <time>2023-12-07T12:50:26.000Z</time>
      </trkpt>
      <trkpt lat="45.86166" lon="4.65944">
        <ele>242.49863</ele>
        <time>2023-12-07T12:50:27.000Z</time>
      </trkpt>
      <trkpt lat="45.8617" lon="4.65941">
        <ele>242.43579</ele>
        <time>2023-12-07T12:50:28.000Z</time>
      </trkpt>
      <trkpt lat="45.86175" lon="4.65939">
        <ele>242.36052</ele>
        <time>2023-12-07T12:50:29.000Z</time>
      </trkpt>
      <trkpt lat="45.86179" lon="4.65935">
        <ele>242.02383</ele>
        <time>2023-12-07T12:50:30.000Z</time>
      </trkpt>
      <trkpt lat="45.86183" lon="4.65933">
        <ele>241.64673</ele>
        <time>2023-12-07T12:50:31.000Z</time>
      </trkpt>
      <trkpt lat="45.86187" lon="4.6593">
        <ele>241.14937</ele>
        <time>2023-12-07T12:50:32.000Z</time>
      </trkpt>
      <trkpt lat="45.86191" lon="4.65926">
        <ele>240.6489</ele>
        <time>2023-12-07T12:50:33.000Z</time>
      </trkpt>
      <trkpt lat="45.86195" lon="4.65923">
        <ele>240.59494</ele>
        <time>2023-12-07T12:50:34.000Z</time>
      </trkpt>
      <trkpt lat="45.86199" lon="4.65919">
        <ele>240.52536</ele>
        <time>2023-12-07T12:50:35.000Z</time>
      </trkpt>
      <trkpt lat="45.86204" lon="4.65916">
        <ele>240.38924</ele>
        <time>2023-12-07T12:50:36.000Z</time>
      </trkpt>
      <trkpt lat="45.86208" lon="4.65913">
        <ele>240.23569</ele>
        <time>2023-12-07T12:50:37.000Z</time>
      </trkpt>
      <trkpt lat="45.86213" lon="4.6591">
        <ele>240.11214</ele>
        <time>2023-12-07T12:50:38.000Z</time>
      </trkpt>
      <trkpt lat="45.86217" lon="4.65907">
        <ele>239.97702</ele>
        <time>2023-12-07T12:50:39.000Z</time>
      </trkpt>
      <trkpt lat="45.86222" lon="4.65904">
        <ele>239.83748</ele>
        <time>2023-12-07T12:50:40.000Z</time>
      </trkpt>
      <trkpt lat="45.86228" lon="4.65901">
        <ele>239.70723</ele>
        <time>2023-12-07T12:50:41.000Z</time>
      </trkpt>
      <trkpt lat="45.86234" lon="4.65898">
        <ele>239.65311</ele>
        <time>2023-12-07T12:50:42.000Z</time>
      </trkpt>
      <trkpt lat="45.8624" lon="4.65894">
        <ele>239.61897</ele>
        <time>2023-12-07T12:50:43.000Z</time>
      </trkpt>
      <trkpt lat="45.86245" lon="4.65889">
        <ele>239.49651</ele>
        <time>2023-12-07T12:50:44.000Z</time>
      </trkpt>
      <trkpt lat="45.86249" lon="4.65883">
        <ele>238.9563</ele>
        <time>2023-12-07T12:50:45.000Z</time>
      </trkpt>
      <trkpt lat="45.86253" lon="4.65877">
        <ele>238.88016</ele>
        <time>2023-12-07T12:50:46.000Z</time>
      </trkpt>
      <trkpt lat="45.86257" lon="4.65872">
        <ele>238.66972</ele>
        <time>2023-12-07T12:50:47.000Z</time>
      </trkpt>
      <trkpt lat="45.86259" lon="4.65868">
        <ele>238.45389</ele>
        <time>2023-12-07T12:50:48.000Z</time>
      </trkpt>
      <trkpt lat="45.86261" lon="4.65863">
        <ele>238.24948</ele>
        <time>2023-12-07T12:50:49.000Z</time>
      </trkpt>
      <trkpt lat="45.86264" lon="4.65859">
        <ele>238.27385</ele>
        <time>2023-12-07T12:50:50.000Z</time>
      </trkpt>
      <trkpt lat="45.86266" lon="4.65854">
        <ele>238.33549</ele>
        <time>2023-12-07T12:50:51.000Z</time>
      </trkpt>
      <trkpt lat="45.86269" lon="4.65848">
        <ele>238.50301</ele>
        <time>2023-12-07T12:50:52.000Z</time>
      </trkpt>
      <trkpt lat="45.86272" lon="4.65842">
        <ele>238.71736</ele>
        <time>2023-12-07T12:50:53.000Z</time>
      </trkpt>
      <trkpt lat="45.86275" lon="4.65836">
        <ele>238.27319</ele>
        <time>2023-12-07T12:50:54.000Z</time>
      </trkpt>
      <trkpt lat="45.86277" lon="4.65831">
        <ele>237.84756</ele>
        <time>2023-12-07T12:50:55.000Z</time>
      </trkpt>
      <trkpt lat="45.86281" lon="4.65827">
        <ele>237.45976</ele>
        <time>2023-12-07T12:50:56.000Z</time>
      </trkpt>
      <trkpt lat="45.86283" lon="4.65822">
        <ele>237.04704</ele>
        <time>2023-12-07T12:50:57.000Z</time>
      </trkpt>
      <trkpt lat="45.86286" lon="4.65817">
        <ele>236.97452</ele>
        <time>2023-12-07T12:50:58.000Z</time>
      </trkpt>
      <trkpt lat="45.8629" lon="4.65813">
        <ele>236.90991</ele>
        <time>2023-12-07T12:50:59.000Z</time>
      </trkpt>
      <trkpt lat="45.86293" lon="4.65808">
        <ele>236.85201</ele>
        <time>2023-12-07T12:51:00.000Z</time>
      </trkpt>
      <trkpt lat="45.86295" lon="4.65803">
        <ele>236.8187</ele>
        <time>2023-12-07T12:51:01.000Z</time>
      </trkpt>
      <trkpt lat="45.86298" lon="4.65798">
        <ele>236.95651</ele>
        <time>2023-12-07T12:51:02.000Z</time>
      </trkpt>
      <trkpt lat="45.863" lon="4.65794">
        <ele>237.11655</ele>
        <time>2023-12-07T12:51:03.000Z</time>
      </trkpt>
      <trkpt lat="45.86303" lon="4.6579">
        <ele>237.36292</ele>
        <time>2023-12-07T12:51:04.000Z</time>
      </trkpt>
      <trkpt lat="45.86306" lon="4.65785">
        <ele>237.66614</ele>
        <time>2023-12-07T12:51:05.000Z</time>
      </trkpt>
      <trkpt lat="45.86308" lon="4.65781">
        <ele>237.61299</ele>
        <time>2023-12-07T12:51:06.000Z</time>
      </trkpt>
      <trkpt lat="45.8631" lon="4.65776">
        <ele>237.67776</ele>
        <time>2023-12-07T12:51:07.000Z</time>
      </trkpt>
      <trkpt lat="45.86313" lon="4.65772">
        <ele>237.80376</ele>
        <time>2023-12-07T12:51:08.000Z</time>
      </trkpt>
      <trkpt lat="45.86315" lon="4.65768">
        <ele>237.93234</ele>
        <time>2023-12-07T12:51:09.000Z</time>
      </trkpt>
      <trkpt lat="45.86317" lon="4.65764">
        <ele>238.0925</ele>
        <time>2023-12-07T12:51:10.000Z</time>
      </trkpt>
      <trkpt lat="45.86319" lon="4.65761">
        <ele>238.25603</ele>
        <time>2023-12-07T12:51:11.000Z</time>
      </trkpt>
      <trkpt lat="45.86322" lon="4.65756">
        <ele>238.40311</ele>
        <time>2023-12-07T12:51:12.000Z</time>
      </trkpt>
      <trkpt lat="45.86324" lon="4.65753">
        <ele>238.57419</ele>
        <time>2023-12-07T12:51:13.000Z</time>
      </trkpt>
      <trkpt lat="45.86326" lon="4.65748">
        <ele>238.97395</ele>
        <time>2023-12-07T12:51:14.000Z</time>
      </trkpt>
      <trkpt lat="45.86329" lon="4.65744">
        <ele>239.35678</ele>
        <time>2023-12-07T12:51:15.000Z</time>
      </trkpt>
      <trkpt lat="45.86331" lon="4.6574">
        <ele>239.7795</ele>
        <time>2023-12-07T12:51:16.000Z</time>
      </trkpt>
      <trkpt lat="45.86333" lon="4.65736">
        <ele>240.25394</ele>
        <time>2023-12-07T12:51:17.000Z</time>
      </trkpt>
      <trkpt lat="45.86335" lon="4.65732">
        <ele>240.3792</ele>
        <time>2023-12-07T12:51:18.000Z</time>
      </trkpt>
      <trkpt lat="45.86338" lon="4.65728">
        <ele>240.53804</ele>
        <time>2023-12-07T12:51:19.000Z</time>
      </trkpt>
      <trkpt lat="45.8634" lon="4.65724">
        <ele>240.70432</ele>
        <time>2023-12-07T12:51:20.000Z</time>
      </trkpt>
      <trkpt lat="45.86342" lon="4.6572">
        <ele>240.89209</ele>
        <time>2023-12-07T12:51:21.000Z</time>
      </trkpt>
      <trkpt lat="45.86344" lon="4.65716">
        <ele>241.10989</ele>
        <time>2023-12-07T12:51:22.000Z</time>
      </trkpt>
      <trkpt lat="45.86347" lon="4.65712">
        <ele>241.31648</ele>
        <time>2023-12-07T12:51:23.000Z</time>
      </trkpt>
      <trkpt lat="45.86349" lon="4.65708">
        <ele>241.54825</ele>
        <time>2023-12-07T12:51:24.000Z</time>
      </trkpt>
      <trkpt lat="45.86351" lon="4.65704">
        <ele>241.76505</ele>
        <time>2023-12-07T12:51:25.000Z</time>
      </trkpt>
      <trkpt lat="45.86353" lon="4.657">
        <ele>242.00146</ele>
        <time>2023-12-07T12:51:26.000Z</time>
      </trkpt>
      <trkpt lat="45.86356" lon="4.65696">
        <ele>242.20969</ele>
        <time>2023-12-07T12:51:27.000Z</time>
      </trkpt>
      <trkpt lat="45.86358" lon="4.65692">
        <ele>242.38998</ele>
        <time>2023-12-07T12:51:28.000Z</time>
      </trkpt>
      <trkpt lat="45.8636" lon="4.65688">
        <ele>242.55217</ele>
        <time>2023-12-07T12:51:29.000Z</time>
      </trkpt>
      <trkpt lat="45.86362" lon="4.65684">
        <ele>242.71524</ele>
        <time>2023-12-07T12:51:30.000Z</time>
      </trkpt>
      <trkpt lat="45.86364" lon="4.6568">
        <ele>242.88162</ele>
        <time>2023-12-07T12:51:31.000Z</time>
      </trkpt>
      <trkpt lat="45.86366" lon="4.65677">
        <ele>243.03499</ele>
        <time>2023-12-07T12:51:32.000Z</time>
      </trkpt>
      <trkpt lat="45.86368" lon="4.65673">
        <ele>243.14029</ele>
        <time>2023-12-07T12:51:33.000Z</time>
      </trkpt>
      <trkpt lat="45.86371" lon="4.6567">
        <ele>243.23824</ele>
        <time>2023-12-07T12:51:34.000Z</time>
      </trkpt>
      <trkpt lat="45.86374" lon="4.65667">
        <ele>243.36772</ele>
        <time>2023-12-07T12:51:35.000Z</time>
      </trkpt>
      <trkpt lat="45.86376" lon="4.65666">
        <ele>243.47578</ele>
        <time>2023-12-07T12:51:36.000Z</time>
      </trkpt>
      <trkpt lat="45.8638" lon="4.65666">
        <ele>243.57784</ele>
        <time>2023-12-07T12:51:37.000Z</time>
      </trkpt>
      <trkpt lat="45.86383" lon="4.65666">
        <ele>243.65762</ele>
        <time>2023-12-07T12:51:38.000Z</time>
      </trkpt>
      <trkpt lat="45.86386" lon="4.65665">
        <ele>243.72063</ele>
        <time>2023-12-07T12:51:39.000Z</time>
      </trkpt>
      <trkpt lat="45.86389" lon="4.65664">
        <ele>243.75867</ele>
        <time>2023-12-07T12:51:40.000Z</time>
      </trkpt>
      <trkpt lat="45.86392" lon="4.65662">
        <ele>243.79178</ele>
        <time>2023-12-07T12:51:41.000Z</time>
      </trkpt>
      <trkpt lat="45.86396" lon="4.65661">
        <ele>243.63225</ele>
        <time>2023-12-07T12:51:42.000Z</time>
      </trkpt>
      <trkpt lat="45.86399" lon="4.65659">
        <ele>243.84473</ele>
        <time>2023-12-07T12:51:43.000Z</time>
      </trkpt>
      <trkpt lat="45.86402" lon="4.65656">
        <ele>243.87312</ele>
        <time>2023-12-07T12:51:44.000Z</time>
      </trkpt>
      <trkpt lat="45.86404" lon="4.65654">
        <ele>243.92795</ele>
        <time>2023-12-07T12:51:45.000Z</time>
      </trkpt>
      <trkpt lat="45.86407" lon="4.65651">
        <ele>243.94626</ele>
        <time>2023-12-07T12:51:46.000Z</time>
      </trkpt>
      <trkpt lat="45.8641" lon="4.65648">
        <ele>244.01347</ele>
        <time>2023-12-07T12:51:47.000Z</time>
      </trkpt>
      <trkpt lat="45.86413" lon="4.65646">
        <ele>244.09746</ele>
        <time>2023-12-07T12:51:48.000Z</time>
      </trkpt>
      <trkpt lat="45.86416" lon="4.65643">
        <ele>244.19211</ele>
        <time>2023-12-07T12:51:49.000Z</time>
      </trkpt>
      <trkpt lat="45.86419" lon="4.65639">
        <ele>244.2775</ele>
        <time>2023-12-07T12:51:50.000Z</time>
      </trkpt>
      <trkpt lat="45.86421" lon="4.65635">
        <ele>244.323</ele>
        <time>2023-12-07T12:51:51.000Z</time>
      </trkpt>
      <trkpt lat="45.86423" lon="4.65631">
        <ele>244.37308</ele>
        <time>2023-12-07T12:51:52.000Z</time>
      </trkpt>
      <trkpt lat="45.86426" lon="4.65627">
        <ele>244.45865</ele>
        <time>2023-12-07T12:51:53.000Z</time>
      </trkpt>
      <trkpt lat="45.86429" lon="4.65624">
        <ele>244.52194</ele>
        <time>2023-12-07T12:51:54.000Z</time>
      </trkpt>
      <trkpt lat="45.86433" lon="4.65622">
        <ele>244.57178</ele>
        <time>2023-12-07T12:51:55.000Z</time>
      </trkpt>
      <trkpt lat="45.86437" lon="4.65623">
        <ele>244.62752</ele>
        <time>2023-12-07T12:51:56.000Z</time>
      </trkpt>
      <trkpt lat="45.8644" lon="4.65625">
        <ele>244.67996</ele>
        <time>2023-12-07T12:51:57.000Z</time>
      </trkpt>
      <trkpt lat="45.86443" lon="4.65627">
        <ele>244.74997</ele>
        <time>2023-12-07T12:51:58.000Z</time>
      </trkpt>
      <trkpt lat="45.86446" lon="4.65629">
        <ele>244.81583</ele>
        <time>2023-12-07T12:51:59.000Z</time>
      </trkpt>
      <trkpt lat="45.86449" lon="4.6563">
        <ele>244.88626</ele>
        <time>2023-12-07T12:52:00.000Z</time>
      </trkpt>
      <trkpt lat="45.86452" lon="4.65631">
        <ele>244.92578</ele>
        <time>2023-12-07T12:52:01.000Z</time>
      </trkpt>
      <trkpt lat="45.86455" lon="4.65633">
        <ele>245.14377</ele>
        <time>2023-12-07T12:52:02.000Z</time>
      </trkpt>
      <trkpt lat="45.86458" lon="4.65634">
        <ele>245.4384</ele>
        <time>2023-12-07T12:52:03.000Z</time>
      </trkpt>
      <trkpt lat="45.86462" lon="4.65635">
        <ele>245.89279</ele>
        <time>2023-12-07T12:52:04.000Z</time>
      </trkpt>
      <trkpt lat="45.86465" lon="4.65634">
        <ele>246.35266</ele>
        <time>2023-12-07T12:52:05.000Z</time>
      </trkpt>
      <trkpt lat="45.86469" lon="4.65632">
        <ele>246.82333</ele>
        <time>2023-12-07T12:52:06.000Z</time>
      </trkpt>
      <trkpt lat="45.86471" lon="4.65629">
        <ele>247.28183</ele>
        <time>2023-12-07T12:52:07.000Z</time>
      </trkpt>
      <trkpt lat="45.86474" lon="4.65624">
        <ele>247.70732</ele>
        <time>2023-12-07T12:52:08.000Z</time>
      </trkpt>
      <trkpt lat="45.86475" lon="4.65619">
        <ele>248.12833</ele>
        <time>2023-12-07T12:52:09.000Z</time>
      </trkpt>
      <trkpt lat="45.86476" lon="4.65613">
        <ele>248.5592</ele>
        <time>2023-12-07T12:52:10.000Z</time>
      </trkpt>
      <trkpt lat="45.86477" lon="4.65608">
        <ele>249.00862</ele>
        <time>2023-12-07T12:52:11.000Z</time>
      </trkpt>
      <trkpt lat="45.86478" lon="4.65603">
        <ele>249.45549</ele>
        <time>2023-12-07T12:52:12.000Z</time>
      </trkpt>
      <trkpt lat="45.86479" lon="4.65597">
        <ele>249.88818</ele>
        <time>2023-12-07T12:52:13.000Z</time>
      </trkpt>
      <trkpt lat="45.8648" lon="4.65592">
        <ele>250.32755</ele>
        <time>2023-12-07T12:52:14.000Z</time>
      </trkpt>
      <trkpt lat="45.86482" lon="4.65587">
        <ele>250.76347</ele>
        <time>2023-12-07T12:52:15.000Z</time>
      </trkpt>
      <trkpt lat="45.86484" lon="4.65581">
        <ele>251.19209</ele>
        <time>2023-12-07T12:52:16.000Z</time>
      </trkpt>
      <trkpt lat="45.86485" lon="4.65574">
        <ele>251.60132</ele>
        <time>2023-12-07T12:52:17.000Z</time>
      </trkpt>
      <trkpt lat="45.86487" lon="4.65568">
        <ele>252.00217</ele>
        <time>2023-12-07T12:52:18.000Z</time>
      </trkpt>
      <trkpt lat="45.86489" lon="4.65561">
        <ele>252.40239</ele>
        <time>2023-12-07T12:52:19.000Z</time>
      </trkpt>
      <trkpt lat="45.86491" lon="4.65552">
        <ele>252.79143</ele>
        <time>2023-12-07T12:52:20.000Z</time>
      </trkpt>
      <trkpt lat="45.86493" lon="4.65545">
        <ele>253.1812</ele>
        <time>2023-12-07T12:52:21.000Z</time>
      </trkpt>
      <trkpt lat="45.86495" lon="4.65536">
        <ele>253.56363</ele>
        <time>2023-12-07T12:52:22.000Z</time>
      </trkpt>
      <trkpt lat="45.86496" lon="4.65528">
        <ele>253.49016</ele>
        <time>2023-12-07T12:52:23.000Z</time>
      </trkpt>
      <trkpt lat="45.86498" lon="4.65521">
        <ele>253.39482</ele>
        <time>2023-12-07T12:52:24.000Z</time>
      </trkpt>
      <trkpt lat="45.86499" lon="4.65513">
        <ele>253.2618</ele>
        <time>2023-12-07T12:52:25.000Z</time>
      </trkpt>
      <trkpt lat="45.865" lon="4.65505">
        <ele>253.13655</ele>
        <time>2023-12-07T12:52:26.000Z</time>
      </trkpt>
      <trkpt lat="45.86501" lon="4.65499">
        <ele>253.00705</ele>
        <time>2023-12-07T12:52:27.000Z</time>
      </trkpt>
      <trkpt lat="45.86503" lon="4.65491">
        <ele>252.88445</ele>
        <time>2023-12-07T12:52:28.000Z</time>
      </trkpt>
      <trkpt lat="45.86504" lon="4.65484">
        <ele>252.76367</ele>
        <time>2023-12-07T12:52:29.000Z</time>
      </trkpt>
      <trkpt lat="45.86507" lon="4.65478">
        <ele>252.63834</ele>
        <time>2023-12-07T12:52:30.000Z</time>
      </trkpt>
      <trkpt lat="45.86508" lon="4.65472">
        <ele>252.51382</ele>
        <time>2023-12-07T12:52:31.000Z</time>
      </trkpt>
      <trkpt lat="45.8651" lon="4.65465">
        <ele>252.39607</ele>
        <time>2023-12-07T12:52:32.000Z</time>
      </trkpt>
      <trkpt lat="45.86512" lon="4.65458">
        <ele>252.26147</ele>
        <time>2023-12-07T12:52:33.000Z</time>
      </trkpt>
      <trkpt lat="45.86515" lon="4.65452">
        <ele>252.07939</ele>
        <time>2023-12-07T12:52:34.000Z</time>
      </trkpt>
      <trkpt lat="45.86517" lon="4.65445">
        <ele>251.89383</ele>
        <time>2023-12-07T12:52:35.000Z</time>
      </trkpt>
      <trkpt lat="45.8652" lon="4.65438">
        <ele>251.73923</ele>
        <time>2023-12-07T12:52:36.000Z</time>
      </trkpt>
      <trkpt lat="45.86522" lon="4.65431">
        <ele>251.60269</ele>
        <time>2023-12-07T12:52:37.000Z</time>
      </trkpt>
      <trkpt lat="45.86523" lon="4.65425">
        <ele>251.47603</ele>
        <time>2023-12-07T12:52:38.000Z</time>
      </trkpt>
      <trkpt lat="45.86524" lon="4.65418">
        <ele>251.45659</ele>
        <time>2023-12-07T12:52:39.000Z</time>
      </trkpt>
      <trkpt lat="45.86526" lon="4.6541">
        <ele>251.42172</ele>
        <time>2023-12-07T12:52:40.000Z</time>
      </trkpt>
      <trkpt lat="45.86527" lon="4.65404">
        <ele>251.41019</ele>
        <time>2023-12-07T12:52:41.000Z</time>
      </trkpt>
      <trkpt lat="45.86526" lon="4.65397">
        <ele>251.33145</ele>
        <time>2023-12-07T12:52:42.000Z</time>
      </trkpt>
      <trkpt lat="45.86526" lon="4.65391">
        <ele>251.25432</ele>
        <time>2023-12-07T12:52:43.000Z</time>
      </trkpt>
      <trkpt lat="45.86528" lon="4.65384">
        <ele>251.18015</ele>
        <time>2023-12-07T12:52:44.000Z</time>
      </trkpt>
      <trkpt lat="45.86528" lon="4.65376">
        <ele>251.10678</ele>
        <time>2023-12-07T12:52:45.000Z</time>
      </trkpt>
      <trkpt lat="45.8653" lon="4.65369">
        <ele>251.00691</ele>
        <time>2023-12-07T12:52:46.000Z</time>
      </trkpt>
      <trkpt lat="45.86531" lon="4.65363">
        <ele>250.98616</ele>
        <time>2023-12-07T12:52:47.000Z</time>
      </trkpt>
      <trkpt lat="45.86533" lon="4.65357">
        <ele>251.00647</ele>
        <time>2023-12-07T12:52:48.000Z</time>
      </trkpt>
      <trkpt lat="45.86535" lon="4.65352">
        <ele>251.03882</ele>
        <time>2023-12-07T12:52:49.000Z</time>
      </trkpt>
      <trkpt lat="45.86538" lon="4.65347">
        <ele>251.05537</ele>
        <time>2023-12-07T12:52:50.000Z</time>
      </trkpt>
      <trkpt lat="45.86542" lon="4.65343">
        <ele>251.08199</ele>
        <time>2023-12-07T12:52:51.000Z</time>
      </trkpt>
      <trkpt lat="45.86544" lon="4.65338">
        <ele>251.10867</ele>
        <time>2023-12-07T12:52:52.000Z</time>
      </trkpt>
      <trkpt lat="45.86547" lon="4.65334">
        <ele>251.09534</ele>
        <time>2023-12-07T12:52:53.000Z</time>
      </trkpt>
      <trkpt lat="45.8655" lon="4.65329">
        <ele>251.13217</ele>
        <time>2023-12-07T12:52:54.000Z</time>
      </trkpt>
      <trkpt lat="45.86554" lon="4.65324">
        <ele>251.19011</ele>
        <time>2023-12-07T12:52:55.000Z</time>
      </trkpt>
      <trkpt lat="45.86557" lon="4.6532">
        <ele>251.24759</ele>
        <time>2023-12-07T12:52:56.000Z</time>
      </trkpt>
      <trkpt lat="45.86559" lon="4.65315">
        <ele>251.27322</ele>
        <time>2023-12-07T12:52:57.000Z</time>
      </trkpt>
      <trkpt lat="45.86562" lon="4.65311">
        <ele>250.63799</ele>
        <time>2023-12-07T12:52:58.000Z</time>
      </trkpt>
      <trkpt lat="45.86565" lon="4.65307">
        <ele>249.81966</ele>
        <time>2023-12-07T12:52:59.000Z</time>
      </trkpt>
      <trkpt lat="45.86568" lon="4.65302">
        <ele>248.99673</ele>
        <time>2023-12-07T12:53:00.000Z</time>
      </trkpt>
      <trkpt lat="45.86571" lon="4.65298">
        <ele>248.6138</ele>
        <time>2023-12-07T12:53:01.000Z</time>
      </trkpt>
      <trkpt lat="45.86574" lon="4.65293">
        <ele>248.27995</ele>
        <time>2023-12-07T12:53:02.000Z</time>
      </trkpt>
      <trkpt lat="45.86576" lon="4.65289">
        <ele>247.95334</ele>
        <time>2023-12-07T12:53:03.000Z</time>
      </trkpt>
      <trkpt lat="45.86579" lon="4.65284">
        <ele>247.62479</ele>
        <time>2023-12-07T12:53:04.000Z</time>
      </trkpt>
      <trkpt lat="45.86581" lon="4.65278">
        <ele>247.30098</ele>
        <time>2023-12-07T12:53:05.000Z</time>
      </trkpt>
      <trkpt lat="45.86584" lon="4.65273">
        <ele>247.01791</ele>
        <time>2023-12-07T12:53:06.000Z</time>
      </trkpt>
      <trkpt lat="45.86587" lon="4.65267">
        <ele>246.6647</ele>
        <time>2023-12-07T12:53:07.000Z</time>
      </trkpt>
      <trkpt lat="45.86589" lon="4.65263">
        <ele>246.26704</ele>
        <time>2023-12-07T12:53:08.000Z</time>
      </trkpt>
      <trkpt lat="45.86591" lon="4.65259">
        <ele>245.8857</ele>
        <time>2023-12-07T12:53:09.000Z</time>
      </trkpt>
      <trkpt lat="45.86593" lon="4.65254">
        <ele>245.52365</ele>
        <time>2023-12-07T12:53:10.000Z</time>
      </trkpt>
      <trkpt lat="45.86595" lon="4.65249">
        <ele>245.13669</ele>
        <time>2023-12-07T12:53:11.000Z</time>
      </trkpt>
      <trkpt lat="45.86598" lon="4.65245">
        <ele>244.75961</ele>
        <time>2023-12-07T12:53:12.000Z</time>
      </trkpt>
      <trkpt lat="45.866" lon="4.6524">
        <ele>244.47202</ele>
        <time>2023-12-07T12:53:13.000Z</time>
      </trkpt>
      <trkpt lat="45.86602" lon="4.65237">
        <ele>243.99753</ele>
        <time>2023-12-07T12:53:14.000Z</time>
      </trkpt>
      <trkpt lat="45.86605" lon="4.65232">
        <ele>243.40366</ele>
        <time>2023-12-07T12:53:15.000Z</time>
      </trkpt>
      <trkpt lat="45.86607" lon="4.65227">
        <ele>242.75862</ele>
        <time>2023-12-07T12:53:16.000Z</time>
      </trkpt>
      <trkpt lat="45.86609" lon="4.65222">
        <ele>242.05984</ele>
        <time>2023-12-07T12:53:17.000Z</time>
      </trkpt>
      <trkpt lat="45.86612" lon="4.65217">
        <ele>242.45142</ele>
        <time>2023-12-07T12:53:18.000Z</time>
      </trkpt>
      <trkpt lat="45.86614" lon="4.65213">
        <ele>242.84488</ele>
        <time>2023-12-07T12:53:19.000Z</time>
      </trkpt>
      <trkpt lat="45.86616" lon="4.65209">
        <ele>243.30827</ele>
        <time>2023-12-07T12:53:20.000Z</time>
      </trkpt>
      <trkpt lat="45.86619" lon="4.65206">
        <ele>243.32864</ele>
        <time>2023-12-07T12:53:21.000Z</time>
      </trkpt>
      <trkpt lat="45.86621" lon="4.65202">
        <ele>243.38725</ele>
        <time>2023-12-07T12:53:22.000Z</time>
      </trkpt>
      <trkpt lat="45.86624" lon="4.65198">
        <ele>243.44548</ele>
        <time>2023-12-07T12:53:23.000Z</time>
      </trkpt>
      <trkpt lat="45.86626" lon="4.65195">
        <ele>243.49719</ele>
        <time>2023-12-07T12:53:24.000Z</time>
      </trkpt>
      <trkpt lat="45.86629" lon="4.65191">
        <ele>243.57744</ele>
        <time>2023-12-07T12:53:25.000Z</time>
      </trkpt>
      <trkpt lat="45.86632" lon="4.65188">
        <ele>243.32913</ele>
        <time>2023-12-07T12:53:26.000Z</time>
      </trkpt>
      <trkpt lat="45.86635" lon="4.65186">
        <ele>243.754</ele>
        <time>2023-12-07T12:53:27.000Z</time>
      </trkpt>
      <trkpt lat="45.8664" lon="4.65186">
        <ele>244.17204</ele>
        <time>2023-12-07T12:53:28.000Z</time>
      </trkpt>
      <trkpt lat="45.86645" lon="4.65186">
        <ele>244.51184</ele>
        <time>2023-12-07T12:53:29.000Z</time>
      </trkpt>
      <trkpt lat="45.8665" lon="4.65187">
        <ele>244.87959</ele>
        <time>2023-12-07T12:53:30.000Z</time>
      </trkpt>
      <trkpt lat="45.86656" lon="4.65189">
        <ele>245.20728</ele>
        <time>2023-12-07T12:53:31.000Z</time>
      </trkpt>
      <trkpt lat="45.86664" lon="4.65189">
        <ele>245.4856</ele>
        <time>2023-12-07T12:53:32.000Z</time>
      </trkpt>
      <trkpt lat="45.86672" lon="4.65189">
        <ele>245.68692</ele>
        <time>2023-12-07T12:53:33.000Z</time>
      </trkpt>
      <trkpt lat="45.86681" lon="4.65188">
        <ele>246.03366</ele>
        <time>2023-12-07T12:53:34.000Z</time>
      </trkpt>
      <trkpt lat="45.8669" lon="4.65185">
        <ele>246.42903</ele>
        <time>2023-12-07T12:53:35.000Z</time>
      </trkpt>
      <trkpt lat="45.867" lon="4.65182">
        <ele>246.80779</ele>
        <time>2023-12-07T12:53:36.000Z</time>
      </trkpt>
      <trkpt lat="45.86711" lon="4.65177">
        <ele>247.21671</ele>
        <time>2023-12-07T12:53:37.000Z</time>
      </trkpt>
      <trkpt lat="45.86721" lon="4.65171">
        <ele>247.14694</ele>
        <time>2023-12-07T12:53:38.000Z</time>
      </trkpt>
      <trkpt lat="45.86732" lon="4.65165">
        <ele>247.11079</ele>
        <time>2023-12-07T12:53:39.000Z</time>
      </trkpt>
      <trkpt lat="45.86742" lon="4.65158">
        <ele>246.98711</ele>
        <time>2023-12-07T12:53:40.000Z</time>
      </trkpt>
      <trkpt lat="45.86753" lon="4.65151">
        <ele>246.80957</ele>
        <time>2023-12-07T12:53:41.000Z</time>
      </trkpt>
      <trkpt lat="45.86764" lon="4.65142">
        <ele>246.57954</ele>
        <time>2023-12-07T12:53:42.000Z</time>
      </trkpt>
      <trkpt lat="45.86774" lon="4.65132">
        <ele>246.30013</ele>
        <time>2023-12-07T12:53:43.000Z</time>
      </trkpt>
      <trkpt lat="45.86783" lon="4.65119">
        <ele>246.03333</ele>
        <time>2023-12-07T12:53:44.000Z</time>
      </trkpt>
      <trkpt lat="45.8679" lon="4.65106">
        <ele>245.74173</ele>
        <time>2023-12-07T12:53:45.000Z</time>
      </trkpt>
      <trkpt lat="45.86796" lon="4.65093">
        <ele>245.81152</ele>
        <time>2023-12-07T12:53:46.000Z</time>
      </trkpt>
      <trkpt lat="45.86801" lon="4.6508">
        <ele>245.2076</ele>
        <time>2023-12-07T12:53:47.000Z</time>
      </trkpt>
      <trkpt lat="45.86805" lon="4.65068">
        <ele>244.63586</ele>
        <time>2023-12-07T12:53:48.000Z</time>
      </trkpt>
      <trkpt lat="45.86809" lon="4.65057">
        <ele>244.1022</ele>
        <time>2023-12-07T12:53:49.000Z</time>
      </trkpt>
      <trkpt lat="45.86813" lon="4.65047">
        <ele>243.55415</ele>
        <time>2023-12-07T12:53:50.000Z</time>
      </trkpt>
      <trkpt lat="45.86816" lon="4.65037">
        <ele>243.06099</ele>
        <time>2023-12-07T12:53:51.000Z</time>
      </trkpt>
      <trkpt lat="45.8682" lon="4.65028">
        <ele>242.62241</ele>
        <time>2023-12-07T12:53:52.000Z</time>
      </trkpt>
      <trkpt lat="45.86823" lon="4.6502">
        <ele>242.21614</ele>
        <time>2023-12-07T12:53:53.000Z</time>
      </trkpt>
      <trkpt lat="45.86826" lon="4.65012">
        <ele>241.87241</ele>
        <time>2023-12-07T12:53:54.000Z</time>
      </trkpt>
      <trkpt lat="45.86829" lon="4.65004">
        <ele>241.56277</ele>
        <time>2023-12-07T12:53:55.000Z</time>
      </trkpt>
      <trkpt lat="45.86832" lon="4.64997">
        <ele>241.32234</ele>
        <time>2023-12-07T12:53:56.000Z</time>
      </trkpt>
      <trkpt lat="45.86836" lon="4.64989">
        <ele>241.14819</ele>
        <time>2023-12-07T12:53:57.000Z</time>
      </trkpt>
      <trkpt lat="45.86839" lon="4.64981">
        <ele>241.02628</ele>
        <time>2023-12-07T12:53:58.000Z</time>
      </trkpt>
      <trkpt lat="45.86841" lon="4.64973">
        <ele>240.9561</ele>
        <time>2023-12-07T12:53:59.000Z</time>
      </trkpt>
      <trkpt lat="45.86844" lon="4.64966">
        <ele>240.92245</ele>
        <time>2023-12-07T12:54:00.000Z</time>
      </trkpt>
      <trkpt lat="45.86847" lon="4.64959">
        <ele>240.92477</ele>
        <time>2023-12-07T12:54:01.000Z</time>
      </trkpt>
      <trkpt lat="45.8685" lon="4.64952">
        <ele>240.99271</ele>
        <time>2023-12-07T12:54:02.000Z</time>
      </trkpt>
      <trkpt lat="45.86853" lon="4.64945">
        <ele>241.09875</ele>
        <time>2023-12-07T12:54:03.000Z</time>
      </trkpt>
      <trkpt lat="45.86856" lon="4.64938">
        <ele>241.16537</ele>
        <time>2023-12-07T12:54:04.000Z</time>
      </trkpt>
      <trkpt lat="45.86859" lon="4.64931">
        <ele>241.2327</ele>
        <time>2023-12-07T12:54:05.000Z</time>
      </trkpt>
      <trkpt lat="45.86862" lon="4.64924">
        <ele>241.24008</ele>
        <time>2023-12-07T12:54:06.000Z</time>
      </trkpt>
      <trkpt lat="45.86864" lon="4.64917">
        <ele>241.23625</ele>
        <time>2023-12-07T12:54:07.000Z</time>
      </trkpt>
      <trkpt lat="45.86867" lon="4.6491">
        <ele>241.23392</ele>
        <time>2023-12-07T12:54:08.000Z</time>
      </trkpt>
      <trkpt lat="45.8687" lon="4.64903">
        <ele>241.26375</ele>
        <time>2023-12-07T12:54:09.000Z</time>
      </trkpt>
      <trkpt lat="45.86872" lon="4.64897">
        <ele>241.28654</ele>
        <time>2023-12-07T12:54:10.000Z</time>
      </trkpt>
      <trkpt lat="45.86875" lon="4.6489">
        <ele>241.31567</ele>
        <time>2023-12-07T12:54:11.000Z</time>
      </trkpt>
      <trkpt lat="45.86876" lon="4.64884">
        <ele>241.3243</ele>
        <time>2023-12-07T12:54:12.000Z</time>
      </trkpt>
      <trkpt lat="45.86879" lon="4.64879">
        <ele>241.34409</ele>
        <time>2023-12-07T12:54:13.000Z</time>
      </trkpt>
      <trkpt lat="45.86881" lon="4.64872">
        <ele>241.35965</ele>
        <time>2023-12-07T12:54:14.000Z</time>
      </trkpt>
      <trkpt lat="45.86885" lon="4.64866">
        <ele>241.33772</ele>
        <time>2023-12-07T12:54:15.000Z</time>
      </trkpt>
      <trkpt lat="45.86888" lon="4.64861">
        <ele>241.30038</ele>
        <time>2023-12-07T12:54:16.000Z</time>
      </trkpt>
      <trkpt lat="45.8689" lon="4.64854">
        <ele>241.24002</ele>
        <time>2023-12-07T12:54:17.000Z</time>
      </trkpt>
      <trkpt lat="45.86893" lon="4.64848">
        <ele>241.19646</ele>
        <time>2023-12-07T12:54:18.000Z</time>
      </trkpt>
      <trkpt lat="45.86897" lon="4.64843">
        <ele>241.12363</ele>
        <time>2023-12-07T12:54:19.000Z</time>
      </trkpt>
      <trkpt lat="45.869" lon="4.64837">
        <ele>241.07071</ele>
        <time>2023-12-07T12:54:20.000Z</time>
      </trkpt>
      <trkpt lat="45.86903" lon="4.64833">
        <ele>241.03593</ele>
        <time>2023-12-07T12:54:21.000Z</time>
      </trkpt>
      <trkpt lat="45.86906" lon="4.64827">
        <ele>241.0157</ele>
        <time>2023-12-07T12:54:22.000Z</time>
      </trkpt>
      <trkpt lat="45.86909" lon="4.6482">
        <ele>240.99561</ele>
        <time>2023-12-07T12:54:23.000Z</time>
      </trkpt>
      <trkpt lat="45.86912" lon="4.64815">
        <ele>241.01944</ele>
        <time>2023-12-07T12:54:24.000Z</time>
      </trkpt>
      <trkpt lat="45.86915" lon="4.6481">
        <ele>241.03369</ele>
        <time>2023-12-07T12:54:25.000Z</time>
      </trkpt>
      <trkpt lat="45.86919" lon="4.64804">
        <ele>241.07349</ele>
        <time>2023-12-07T12:54:26.000Z</time>
      </trkpt>
      <trkpt lat="45.86922" lon="4.64799">
        <ele>241.09116</ele>
        <time>2023-12-07T12:54:27.000Z</time>
      </trkpt>
      <trkpt lat="45.86926" lon="4.64795">
        <ele>241.08296</ele>
        <time>2023-12-07T12:54:28.000Z</time>
      </trkpt>
      <trkpt lat="45.8693" lon="4.6479">
        <ele>241.06563</ele>
        <time>2023-12-07T12:54:29.000Z</time>
      </trkpt>
      <trkpt lat="45.86933" lon="4.64788">
        <ele>241.01558</ele>
        <time>2023-12-07T12:54:30.000Z</time>
      </trkpt>
      <trkpt lat="45.86938" lon="4.64784">
        <ele>240.93204</ele>
        <time>2023-12-07T12:54:31.000Z</time>
      </trkpt>
      <trkpt lat="45.86942" lon="4.64781">
        <ele>240.83133</ele>
        <time>2023-12-07T12:54:32.000Z</time>
      </trkpt>
      <trkpt lat="45.86947" lon="4.64778">
        <ele>240.71359</ele>
        <time>2023-12-07T12:54:33.000Z</time>
      </trkpt>
      <trkpt lat="45.86953" lon="4.64774">
        <ele>240.62756</ele>
        <time>2023-12-07T12:54:34.000Z</time>
      </trkpt>
      <trkpt lat="45.86959" lon="4.6477">
        <ele>240.57593</ele>
        <time>2023-12-07T12:54:35.000Z</time>
      </trkpt>
      <trkpt lat="45.86965" lon="4.64766">
        <ele>240.41846</ele>
        <time>2023-12-07T12:54:36.000Z</time>
      </trkpt>
      <trkpt lat="45.86971" lon="4.64761">
        <ele>240.26526</ele>
        <time>2023-12-07T12:54:37.000Z</time>
      </trkpt>
      <trkpt lat="45.86977" lon="4.64755">
        <ele>240.10283</ele>
        <time>2023-12-07T12:54:38.000Z</time>
      </trkpt>
      <trkpt lat="45.86982" lon="4.64749">
        <ele>239.90857</ele>
        <time>2023-12-07T12:54:39.000Z</time>
      </trkpt>
      <trkpt lat="45.86987" lon="4.64742">
        <ele>239.69034</ele>
        <time>2023-12-07T12:54:40.000Z</time>
      </trkpt>
      <trkpt lat="45.86991" lon="4.64734">
        <ele>239.46848</ele>
        <time>2023-12-07T12:54:41.000Z</time>
      </trkpt>
      <trkpt lat="45.86997" lon="4.64726">
        <ele>239.21675</ele>
        <time>2023-12-07T12:54:42.000Z</time>
      </trkpt>
      <trkpt lat="45.87002" lon="4.64719">
        <ele>238.95291</ele>
        <time>2023-12-07T12:54:43.000Z</time>
      </trkpt>
      <trkpt lat="45.87006" lon="4.64713">
        <ele>238.68083</ele>
        <time>2023-12-07T12:54:44.000Z</time>
      </trkpt>
      <trkpt lat="45.87011" lon="4.64707">
        <ele>238.39558</ele>
        <time>2023-12-07T12:54:45.000Z</time>
      </trkpt>
      <trkpt lat="45.87017" lon="4.647">
        <ele>238.07397</ele>
        <time>2023-12-07T12:54:46.000Z</time>
      </trkpt>
      <trkpt lat="45.87023" lon="4.64693">
        <ele>237.77132</ele>
        <time>2023-12-07T12:54:47.000Z</time>
      </trkpt>
      <trkpt lat="45.87029" lon="4.64686">
        <ele>237.46065</ele>
        <time>2023-12-07T12:54:48.000Z</time>
      </trkpt>
      <trkpt lat="45.87036" lon="4.6468">
        <ele>237.11694</ele>
        <time>2023-12-07T12:54:49.000Z</time>
      </trkpt>
      <trkpt lat="45.87043" lon="4.64673">
        <ele>236.82272</ele>
        <time>2023-12-07T12:54:50.000Z</time>
      </trkpt>
      <trkpt lat="45.87049" lon="4.64666">
        <ele>236.5284</ele>
        <time>2023-12-07T12:54:51.000Z</time>
      </trkpt>
      <trkpt lat="45.87055" lon="4.64658">
        <ele>236.26921</ele>
        <time>2023-12-07T12:54:52.000Z</time>
      </trkpt>
      <trkpt lat="45.87059" lon="4.64648">
        <ele>236.02115</ele>
        <time>2023-12-07T12:54:53.000Z</time>
      </trkpt>
      <trkpt lat="45.87063" lon="4.64637">
        <ele>235.56877</ele>
        <time>2023-12-07T12:54:54.000Z</time>
      </trkpt>
      <trkpt lat="45.87066" lon="4.64626">
        <ele>235.14787</ele>
        <time>2023-12-07T12:54:55.000Z</time>
      </trkpt>
      <trkpt lat="45.87067" lon="4.64615">
        <ele>234.83017</ele>
        <time>2023-12-07T12:54:56.000Z</time>
      </trkpt>
      <trkpt lat="45.87068" lon="4.64603">
        <ele>234.50354</ele>
        <time>2023-12-07T12:54:57.000Z</time>
      </trkpt>
      <trkpt lat="45.87069" lon="4.64593">
        <ele>234.17151</ele>
        <time>2023-12-07T12:54:58.000Z</time>
      </trkpt>
      <trkpt lat="45.87071" lon="4.64582">
        <ele>233.90166</ele>
        <time>2023-12-07T12:54:59.000Z</time>
      </trkpt>
      <trkpt lat="45.87072" lon="4.64572">
        <ele>233.67155</ele>
        <time>2023-12-07T12:55:00.000Z</time>
      </trkpt>
      <trkpt lat="45.87076" lon="4.64563">
        <ele>233.40984</ele>
        <time>2023-12-07T12:55:01.000Z</time>
      </trkpt>
      <trkpt lat="45.8708" lon="4.64556">
        <ele>233.14987</ele>
        <time>2023-12-07T12:55:02.000Z</time>
      </trkpt>
      <trkpt lat="45.87087" lon="4.64551">
        <ele>232.85721</ele>
        <time>2023-12-07T12:55:03.000Z</time>
      </trkpt>
      <trkpt lat="45.87094" lon="4.64548">
        <ele>232.55083</ele>
        <time>2023-12-07T12:55:04.000Z</time>
      </trkpt>
      <trkpt lat="45.87101" lon="4.64545">
        <ele>232.2646</ele>
        <time>2023-12-07T12:55:05.000Z</time>
      </trkpt>
      <trkpt lat="45.87108" lon="4.64542">
        <ele>232.00191</ele>
        <time>2023-12-07T12:55:06.000Z</time>
      </trkpt>
      <trkpt lat="45.87115" lon="4.64541">
        <ele>231.74826</ele>
        <time>2023-12-07T12:55:07.000Z</time>
      </trkpt>
      <trkpt lat="45.87123" lon="4.64539">
        <ele>231.47298</ele>
        <time>2023-12-07T12:55:08.000Z</time>
      </trkpt>
      <trkpt lat="45.8713" lon="4.64538">
        <ele>231.20541</ele>
        <time>2023-12-07T12:55:09.000Z</time>
      </trkpt>
      <trkpt lat="45.87138" lon="4.64536">
        <ele>230.87451</ele>
        <time>2023-12-07T12:55:10.000Z</time>
      </trkpt>
      <trkpt lat="45.87145" lon="4.64533">
        <ele>230.55266</ele>
        <time>2023-12-07T12:55:11.000Z</time>
      </trkpt>
      <trkpt lat="45.87152" lon="4.6453">
        <ele>230.18918</ele>
        <time>2023-12-07T12:55:12.000Z</time>
      </trkpt>
      <trkpt lat="45.87159" lon="4.64525">
        <ele>229.79695</ele>
        <time>2023-12-07T12:55:13.000Z</time>
      </trkpt>
      <trkpt lat="45.87166" lon="4.6452">
        <ele>229.65486</ele>
        <time>2023-12-07T12:55:14.000Z</time>
      </trkpt>
      <trkpt lat="45.87174" lon="4.64515">
        <ele>229.48445</ele>
        <time>2023-12-07T12:55:15.000Z</time>
      </trkpt>
      <trkpt lat="45.87182" lon="4.6451">
        <ele>229.2812</ele>
        <time>2023-12-07T12:55:16.000Z</time>
      </trkpt>
      <trkpt lat="45.8719" lon="4.64503">
        <ele>229.09712</ele>
        <time>2023-12-07T12:55:17.000Z</time>
      </trkpt>
      <trkpt lat="45.87199" lon="4.64496">
        <ele>228.88301</ele>
        <time>2023-12-07T12:55:18.000Z</time>
      </trkpt>
      <trkpt lat="45.87208" lon="4.64489">
        <ele>228.65703</ele>
        <time>2023-12-07T12:55:19.000Z</time>
      </trkpt>
      <trkpt lat="45.87218" lon="4.64481">
        <ele>228.3707</ele>
        <time>2023-12-07T12:55:20.000Z</time>
      </trkpt>
      <trkpt lat="45.87227" lon="4.64474">
        <ele>228.10957</ele>
        <time>2023-12-07T12:55:21.000Z</time>
      </trkpt>
      <trkpt lat="45.87236" lon="4.64466">
        <ele>227.51608</ele>
        <time>2023-12-07T12:55:22.000Z</time>
      </trkpt>
      <trkpt lat="45.87245" lon="4.64459">
        <ele>226.99197</ele>
        <time>2023-12-07T12:55:23.000Z</time>
      </trkpt>
      <trkpt lat="45.87254" lon="4.64453">
        <ele>226.49617</ele>
        <time>2023-12-07T12:55:24.000Z</time>
      </trkpt>
      <trkpt lat="45.87263" lon="4.64446">
        <ele>225.98038</ele>
        <time>2023-12-07T12:55:25.000Z</time>
      </trkpt>
      <trkpt lat="45.87271" lon="4.64439">
        <ele>225.47104</ele>
        <time>2023-12-07T12:55:26.000Z</time>
      </trkpt>
      <trkpt lat="45.87279" lon="4.64433">
        <ele>224.93213</ele>
        <time>2023-12-07T12:55:27.000Z</time>
      </trkpt>
      <trkpt lat="45.87286" lon="4.64426">
        <ele>224.4399</ele>
        <time>2023-12-07T12:55:28.000Z</time>
      </trkpt>
      <trkpt lat="45.87294" lon="4.6442">
        <ele>223.9781</ele>
        <time>2023-12-07T12:55:29.000Z</time>
      </trkpt>
      <trkpt lat="45.87301" lon="4.64415">
        <ele>223.5583</ele>
        <time>2023-12-07T12:55:30.000Z</time>
      </trkpt>
      <trkpt lat="45.87308" lon="4.64409">
        <ele>223.13525</ele>
        <time>2023-12-07T12:55:31.000Z</time>
      </trkpt>
      <trkpt lat="45.87315" lon="4.64404">
        <ele>222.74539</ele>
        <time>2023-12-07T12:55:32.000Z</time>
      </trkpt>
      <trkpt lat="45.87321" lon="4.64399">
        <ele>222.37906</ele>
        <time>2023-12-07T12:55:33.000Z</time>
      </trkpt>
      <trkpt lat="45.87327" lon="4.64394">
        <ele>221.95786</ele>
        <time>2023-12-07T12:55:34.000Z</time>
      </trkpt>
      <trkpt lat="45.87331" lon="4.6439">
        <ele>221.57837</ele>
        <time>2023-12-07T12:55:35.000Z</time>
      </trkpt>
      <trkpt lat="45.87337" lon="4.64385">
        <ele>221.21765</ele>
        <time>2023-12-07T12:55:36.000Z</time>
      </trkpt>
      <trkpt lat="45.87341" lon="4.64381">
        <ele>220.86093</ele>
        <time>2023-12-07T12:55:37.000Z</time>
      </trkpt>
      <trkpt lat="45.87346" lon="4.64376">
        <ele>220.52615</ele>
        <time>2023-12-07T12:55:38.000Z</time>
      </trkpt>
      <trkpt lat="45.8735" lon="4.64372">
        <ele>220.1866</ele>
        <time>2023-12-07T12:55:39.000Z</time>
      </trkpt>
      <trkpt lat="45.87353" lon="4.64367">
        <ele>219.90637</ele>
        <time>2023-12-07T12:55:40.000Z</time>
      </trkpt>
      <trkpt lat="45.87357" lon="4.64362">
        <ele>219.64433</ele>
        <time>2023-12-07T12:55:41.000Z</time>
      </trkpt>
      <trkpt lat="45.8736" lon="4.64358">
        <ele>219.73148</ele>
        <time>2023-12-07T12:55:42.000Z</time>
      </trkpt>
      <trkpt lat="45.87363" lon="4.64354">
        <ele>219.77469</ele>
        <time>2023-12-07T12:55:43.000Z</time>
      </trkpt>
      <trkpt lat="45.87365" lon="4.64351">
        <ele>219.84286</ele>
        <time>2023-12-07T12:55:44.000Z</time>
      </trkpt>
      <trkpt lat="45.87368" lon="4.64347">
        <ele>219.91878</ele>
        <time>2023-12-07T12:55:45.000Z</time>
      </trkpt>
      <trkpt lat="45.8737" lon="4.64341">
        <ele>220.1851</ele>
        <time>2023-12-07T12:55:46.000Z</time>
      </trkpt>
      <trkpt lat="45.87371" lon="4.64336">
        <ele>220.49272</ele>
        <time>2023-12-07T12:55:47.000Z</time>
      </trkpt>
      <trkpt lat="45.87371" lon="4.64329">
        <ele>220.51175</ele>
        <time>2023-12-07T12:55:48.000Z</time>
      </trkpt>
      <trkpt lat="45.87371" lon="4.64322">
        <ele>220.55881</ele>
        <time>2023-12-07T12:55:49.000Z</time>
      </trkpt>
      <trkpt lat="45.8737" lon="4.64316">
        <ele>220.59305</ele>
        <time>2023-12-07T12:55:50.000Z</time>
      </trkpt>
      <trkpt lat="45.87368" lon="4.6431">
        <ele>220.67166</ele>
        <time>2023-12-07T12:55:51.000Z</time>
      </trkpt>
      <trkpt lat="45.87366" lon="4.64304">
        <ele>220.73959</ele>
        <time>2023-12-07T12:55:52.000Z</time>
      </trkpt>
      <trkpt lat="45.87365" lon="4.64298">
        <ele>220.82463</ele>
        <time>2023-12-07T12:55:53.000Z</time>
      </trkpt>
      <trkpt lat="45.87363" lon="4.64291">
        <ele>220.86263</ele>
        <time>2023-12-07T12:55:54.000Z</time>
      </trkpt>
      <trkpt lat="45.87363" lon="4.64285">
        <ele>221.00589</ele>
        <time>2023-12-07T12:55:55.000Z</time>
      </trkpt>
      <trkpt lat="45.87362" lon="4.64278">
        <ele>221.1694</ele>
        <time>2023-12-07T12:55:56.000Z</time>
      </trkpt>
      <trkpt lat="45.8736" lon="4.64272">
        <ele>221.32378</ele>
        <time>2023-12-07T12:55:57.000Z</time>
      </trkpt>
      <trkpt lat="45.87359" lon="4.64266">
        <ele>221.54337</ele>
        <time>2023-12-07T12:55:58.000Z</time>
      </trkpt>
      <trkpt lat="45.87358" lon="4.64259">
        <ele>221.84627</ele>
        <time>2023-12-07T12:55:59.000Z</time>
      </trkpt>
      <trkpt lat="45.87356" lon="4.64253">
        <ele>221.82291</ele>
        <time>2023-12-07T12:56:00.000Z</time>
      </trkpt>
      <trkpt lat="45.87354" lon="4.64246">
        <ele>221.81731</ele>
        <time>2023-12-07T12:56:01.000Z</time>
      </trkpt>
      <trkpt lat="45.87354" lon="4.64241">
        <ele>221.78</ele>
        <time>2023-12-07T12:56:02.000Z</time>
      </trkpt>
      <trkpt lat="45.87352" lon="4.64235">
        <ele>221.73438</ele>
        <time>2023-12-07T12:56:03.000Z</time>
      </trkpt>
      <trkpt lat="45.87351" lon="4.64228">
        <ele>221.65881</ele>
        <time>2023-12-07T12:56:04.000Z</time>
      </trkpt>
      <trkpt lat="45.87349" lon="4.64223">
        <ele>221.58606</ele>
        <time>2023-12-07T12:56:05.000Z</time>
      </trkpt>
      <trkpt lat="45.87348" lon="4.64217">
        <ele>221.3437</ele>
        <time>2023-12-07T12:56:06.000Z</time>
      </trkpt>
      <trkpt lat="45.87346" lon="4.6421">
        <ele>221.06023</ele>
        <time>2023-12-07T12:56:07.000Z</time>
      </trkpt>
      <trkpt lat="45.87345" lon="4.64203">
        <ele>221.08813</ele>
        <time>2023-12-07T12:56:08.000Z</time>
      </trkpt>
      <trkpt lat="45.87344" lon="4.64195">
        <ele>221.11214</ele>
        <time>2023-12-07T12:56:09.000Z</time>
      </trkpt>
      <trkpt lat="45.87343" lon="4.64189">
        <ele>221.14131</ele>
        <time>2023-12-07T12:56:10.000Z</time>
      </trkpt>
      <trkpt lat="45.87344" lon="4.64182">
        <ele>221.11555</ele>
        <time>2023-12-07T12:56:11.000Z</time>
      </trkpt>
      <trkpt lat="45.87344" lon="4.64175">
        <ele>221.11426</ele>
        <time>2023-12-07T12:56:12.000Z</time>
      </trkpt>
      <trkpt lat="45.87346" lon="4.64168">
        <ele>221.09868</ele>
        <time>2023-12-07T12:56:13.000Z</time>
      </trkpt>
      <trkpt lat="45.87347" lon="4.64162">
        <ele>221.22867</ele>
        <time>2023-12-07T12:56:14.000Z</time>
      </trkpt>
      <trkpt lat="45.87348" lon="4.64155">
        <ele>221.28604</ele>
        <time>2023-12-07T12:56:15.000Z</time>
      </trkpt>
      <trkpt lat="45.87348" lon="4.64148">
        <ele>221.33377</ele>
        <time>2023-12-07T12:56:16.000Z</time>
      </trkpt>
      <trkpt lat="45.87348" lon="4.64141">
        <ele>221.44536</ele>
        <time>2023-12-07T12:56:17.000Z</time>
      </trkpt>
      <trkpt lat="45.87348" lon="4.64135">
        <ele>221.19479</ele>
        <time>2023-12-07T12:56:18.000Z</time>
      </trkpt>
      <trkpt lat="45.87347" lon="4.64129">
        <ele>220.89604</ele>
        <time>2023-12-07T12:56:19.000Z</time>
      </trkpt>
      <trkpt lat="45.87346" lon="4.64123">
        <ele>220.90628</ele>
        <time>2023-12-07T12:56:20.000Z</time>
      </trkpt>
      <trkpt lat="45.87346" lon="4.64117">
        <ele>220.85576</ele>
        <time>2023-12-07T12:56:21.000Z</time>
      </trkpt>
      <trkpt lat="45.87345" lon="4.6411">
        <ele>220.82468</ele>
        <time>2023-12-07T12:56:22.000Z</time>
      </trkpt>
      <trkpt lat="45.87344" lon="4.64104">
        <ele>220.82732</ele>
        <time>2023-12-07T12:56:23.000Z</time>
      </trkpt>
      <trkpt lat="45.87344" lon="4.64096">
        <ele>220.81363</ele>
        <time>2023-12-07T12:56:24.000Z</time>
      </trkpt>
      <trkpt lat="45.87343" lon="4.64089">
        <ele>220.82434</ele>
        <time>2023-12-07T12:56:25.000Z</time>
      </trkpt>
      <trkpt lat="45.87342" lon="4.64083">
        <ele>220.78365</ele>
        <time>2023-12-07T12:56:26.000Z</time>
      </trkpt>
      <trkpt lat="45.8734" lon="4.64076">
        <ele>220.77017</ele>
        <time>2023-12-07T12:56:27.000Z</time>
      </trkpt>
      <trkpt lat="45.87339" lon="4.6407">
        <ele>220.74055</ele>
        <time>2023-12-07T12:56:28.000Z</time>
      </trkpt>
      <trkpt lat="45.87338" lon="4.64064">
        <ele>220.68867</ele>
        <time>2023-12-07T12:56:29.000Z</time>
      </trkpt>
      <trkpt lat="45.87337" lon="4.64057">
        <ele>220.62143</ele>
        <time>2023-12-07T12:56:30.000Z</time>
      </trkpt>
      <trkpt lat="45.87337" lon="4.64049">
        <ele>220.59331</ele>
        <time>2023-12-07T12:56:31.000Z</time>
      </trkpt>
      <trkpt lat="45.87338" lon="4.64042">
        <ele>220.53027</ele>
        <time>2023-12-07T12:56:32.000Z</time>
      </trkpt>
      <trkpt lat="45.87338" lon="4.64034">
        <ele>220.48331</ele>
        <time>2023-12-07T12:56:33.000Z</time>
      </trkpt>
      <trkpt lat="45.8734" lon="4.64028">
        <ele>220.52644</ele>
        <time>2023-12-07T12:56:34.000Z</time>
      </trkpt>
      <trkpt lat="45.87342" lon="4.64022">
        <ele>220.53293</ele>
        <time>2023-12-07T12:56:35.000Z</time>
      </trkpt>
      <trkpt lat="45.87344" lon="4.64015">
        <ele>220.23201</ele>
        <time>2023-12-07T12:56:36.000Z</time>
      </trkpt>
      <trkpt lat="45.87346" lon="4.64009">
        <ele>219.92188</ele>
        <time>2023-12-07T12:56:37.000Z</time>
      </trkpt>
      <trkpt lat="45.87348" lon="4.64003">
        <ele>219.89914</ele>
        <time>2023-12-07T12:56:38.000Z</time>
      </trkpt>
      <trkpt lat="45.87351" lon="4.63998">
        <ele>219.83516</ele>
        <time>2023-12-07T12:56:39.000Z</time>
      </trkpt>
      <trkpt lat="45.87353" lon="4.63992">
        <ele>219.78287</ele>
        <time>2023-12-07T12:56:40.000Z</time>
      </trkpt>
      <trkpt lat="45.87356" lon="4.63987">
        <ele>219.77718</ele>
        <time>2023-12-07T12:56:41.000Z</time>
      </trkpt>
      <trkpt lat="45.8736" lon="4.63981">
        <ele>219.78903</ele>
        <time>2023-12-07T12:56:42.000Z</time>
      </trkpt>
      <trkpt lat="45.87364" lon="4.63976">
        <ele>219.80782</ele>
        <time>2023-12-07T12:56:43.000Z</time>
      </trkpt>
      <trkpt lat="45.87368" lon="4.63972">
        <ele>219.81831</ele>
        <time>2023-12-07T12:56:44.000Z</time>
      </trkpt>
      <trkpt lat="45.87372" lon="4.63968">
        <ele>219.82333</ele>
        <time>2023-12-07T12:56:45.000Z</time>
      </trkpt>
      <trkpt lat="45.87376" lon="4.63964">
        <ele>219.84814</ele>
        <time>2023-12-07T12:56:46.000Z</time>
      </trkpt>
      <trkpt lat="45.8738" lon="4.63959">
        <ele>219.84622</ele>
        <time>2023-12-07T12:56:47.000Z</time>
      </trkpt>
      <trkpt lat="45.87384" lon="4.63954">
        <ele>219.84602</ele>
        <time>2023-12-07T12:56:48.000Z</time>
      </trkpt>
      <trkpt lat="45.87387" lon="4.6395">
        <ele>219.81653</ele>
        <time>2023-12-07T12:56:49.000Z</time>
      </trkpt>
      <trkpt lat="45.87391" lon="4.63945">
        <ele>220.03641</ele>
        <time>2023-12-07T12:56:50.000Z</time>
      </trkpt>
      <trkpt lat="45.87395" lon="4.63942">
        <ele>220.31784</ele>
        <time>2023-12-07T12:56:51.000Z</time>
      </trkpt>
      <trkpt lat="45.87399" lon="4.63939">
        <ele>220.30005</ele>
        <time>2023-12-07T12:56:52.000Z</time>
      </trkpt>
      <trkpt lat="45.87403" lon="4.63935">
        <ele>220.28223</ele>
        <time>2023-12-07T12:56:53.000Z</time>
      </trkpt>
      <trkpt lat="45.87407" lon="4.63931">
        <ele>220.04131</ele>
        <time>2023-12-07T12:56:54.000Z</time>
      </trkpt>
      <trkpt lat="45.87411" lon="4.63927">
        <ele>219.9353</ele>
        <time>2023-12-07T12:56:55.000Z</time>
      </trkpt>
      <trkpt lat="45.87414" lon="4.63922">
        <ele>220.13272</ele>
        <time>2023-12-07T12:56:56.000Z</time>
      </trkpt>
      <trkpt lat="45.87417" lon="4.63918">
        <ele>220.27029</ele>
        <time>2023-12-07T12:56:57.000Z</time>
      </trkpt>
      <trkpt lat="45.87421" lon="4.63915">
        <ele>220.50371</ele>
        <time>2023-12-07T12:56:58.000Z</time>
      </trkpt>
      <trkpt lat="45.87425" lon="4.63911">
        <ele>220.83244</ele>
        <time>2023-12-07T12:56:59.000Z</time>
      </trkpt>
      <trkpt lat="45.87429" lon="4.63906">
        <ele>221.14648</ele>
        <time>2023-12-07T12:57:00.000Z</time>
      </trkpt>
      <trkpt lat="45.87433" lon="4.63902">
        <ele>221.15622</ele>
        <time>2023-12-07T12:57:01.000Z</time>
      </trkpt>
      <trkpt lat="45.87435" lon="4.63898">
        <ele>221.1757</ele>
        <time>2023-12-07T12:57:02.000Z</time>
      </trkpt>
      <trkpt lat="45.87438" lon="4.63893">
        <ele>221.15388</ele>
        <time>2023-12-07T12:57:03.000Z</time>
      </trkpt>
      <trkpt lat="45.8744" lon="4.63889">
        <ele>221.23184</ele>
        <time>2023-12-07T12:57:04.000Z</time>
      </trkpt>
      <trkpt lat="45.87443" lon="4.63884">
        <ele>221.43094</ele>
        <time>2023-12-07T12:57:05.000Z</time>
      </trkpt>
      <trkpt lat="45.87445" lon="4.6388">
        <ele>221.62566</ele>
        <time>2023-12-07T12:57:06.000Z</time>
      </trkpt>
      <trkpt lat="45.87447" lon="4.63874">
        <ele>221.87285</ele>
        <time>2023-12-07T12:57:07.000Z</time>
      </trkpt>
      <trkpt lat="45.87449" lon="4.6387">
        <ele>222.1163</ele>
        <time>2023-12-07T12:57:08.000Z</time>
      </trkpt>
      <trkpt lat="45.87452" lon="4.63866">
        <ele>222.42415</ele>
        <time>2023-12-07T12:57:09.000Z</time>
      </trkpt>
      <trkpt lat="45.87455" lon="4.63859">
        <ele>222.57413</ele>
        <time>2023-12-07T12:57:10.000Z</time>
      </trkpt>
      <trkpt lat="45.87457" lon="4.63855">
        <ele>222.27896</ele>
        <time>2023-12-07T12:57:11.000Z</time>
      </trkpt>
      <trkpt lat="45.8746" lon="4.63851">
        <ele>222.38248</ele>
        <time>2023-12-07T12:57:12.000Z</time>
      </trkpt>
      <trkpt lat="45.87463" lon="4.63847">
        <ele>222.46463</ele>
        <time>2023-12-07T12:57:13.000Z</time>
      </trkpt>
      <trkpt lat="45.87466" lon="4.63842">
        <ele>222.50554</ele>
        <time>2023-12-07T12:57:14.000Z</time>
      </trkpt>
      <trkpt lat="45.87469" lon="4.63838">
        <ele>222.39299</ele>
        <time>2023-12-07T12:57:15.000Z</time>
      </trkpt>
      <trkpt lat="45.87472" lon="4.63831">
        <ele>222.22849</ele>
        <time>2023-12-07T12:57:16.000Z</time>
      </trkpt>
      <trkpt lat="45.87474" lon="4.63826">
        <ele>222.13252</ele>
        <time>2023-12-07T12:57:17.000Z</time>
      </trkpt>
      <trkpt lat="45.87477" lon="4.6382">
        <ele>221.9406</ele>
        <time>2023-12-07T12:57:18.000Z</time>
      </trkpt>
      <trkpt lat="45.8748" lon="4.63815">
        <ele>221.79663</ele>
        <time>2023-12-07T12:57:19.000Z</time>
      </trkpt>
      <trkpt lat="45.87482" lon="4.6381">
        <ele>221.66707</ele>
        <time>2023-12-07T12:57:20.000Z</time>
      </trkpt>
      <trkpt lat="45.87487" lon="4.63805">
        <ele>221.77139</ele>
        <time>2023-12-07T12:57:21.000Z</time>
      </trkpt>
      <trkpt lat="45.8749" lon="4.63799">
        <ele>221.8239</ele>
        <time>2023-12-07T12:57:22.000Z</time>
      </trkpt>
      <trkpt lat="45.87493" lon="4.63795">
        <ele>221.88065</ele>
        <time>2023-12-07T12:57:23.000Z</time>
      </trkpt>
      <trkpt lat="45.87496" lon="4.6379">
        <ele>221.90085</ele>
        <time>2023-12-07T12:57:24.000Z</time>
      </trkpt>
      <trkpt lat="45.87498" lon="4.63786">
        <ele>221.7874</ele>
        <time>2023-12-07T12:57:25.000Z</time>
      </trkpt>
      <trkpt lat="45.87502" lon="4.63781">
        <ele>221.81442</ele>
        <time>2023-12-07T12:57:26.000Z</time>
      </trkpt>
      <trkpt lat="45.87505" lon="4.63776">
        <ele>221.80013</ele>
        <time>2023-12-07T12:57:27.000Z</time>
      </trkpt>
      <trkpt lat="45.87507" lon="4.63772">
        <ele>221.50078</ele>
        <time>2023-12-07T12:57:28.000Z</time>
      </trkpt>
      <trkpt lat="45.8751" lon="4.63768">
        <ele>221.23189</ele>
        <time>2023-12-07T12:57:29.000Z</time>
      </trkpt>
      <trkpt lat="45.87512" lon="4.63765">
        <ele>220.95102</ele>
        <time>2023-12-07T12:57:30.000Z</time>
      </trkpt>
      <trkpt lat="45.87515" lon="4.63762">
        <ele>221.08932</ele>
        <time>2023-12-07T12:57:31.000Z</time>
      </trkpt>
      <trkpt lat="45.87518" lon="4.63758">
        <ele>221.12454</ele>
        <time>2023-12-07T12:57:32.000Z</time>
      </trkpt>
      <trkpt lat="45.87522" lon="4.63755">
        <ele>221.15511</ele>
        <time>2023-12-07T12:57:33.000Z</time>
      </trkpt>
      <trkpt lat="45.87525" lon="4.63753">
        <ele>221.33203</ele>
        <time>2023-12-07T12:57:34.000Z</time>
      </trkpt>
      <trkpt lat="45.87528" lon="4.63751">
        <ele>221.48259</ele>
        <time>2023-12-07T12:57:35.000Z</time>
      </trkpt>
      <trkpt lat="45.87531" lon="4.63748">
        <ele>221.70622</ele>
        <time>2023-12-07T12:57:36.000Z</time>
      </trkpt>
      <trkpt lat="45.87533" lon="4.63748">
        <ele>221.85974</ele>
        <time>2023-12-07T12:57:37.000Z</time>
      </trkpt>
      <trkpt lat="45.87537" lon="4.63746">
        <ele>222.04668</ele>
        <time>2023-12-07T12:57:38.000Z</time>
      </trkpt>
      <trkpt lat="45.8754" lon="4.63743">
        <ele>222.06685</ele>
        <time>2023-12-07T12:57:39.000Z</time>
      </trkpt>
      <trkpt lat="45.87543" lon="4.63742">
        <ele>222.12161</ele>
        <time>2023-12-07T12:57:40.000Z</time>
      </trkpt>
      <trkpt lat="45.87545" lon="4.6374">
        <ele>222.30591</ele>
        <time>2023-12-07T12:57:41.000Z</time>
      </trkpt>
      <trkpt lat="45.87549" lon="4.6374">
        <ele>222.519</ele>
        <time>2023-12-07T12:57:42.000Z</time>
      </trkpt>
      <trkpt lat="45.87552" lon="4.63738">
        <ele>222.80087</ele>
        <time>2023-12-07T12:57:43.000Z</time>
      </trkpt>
      <trkpt lat="45.87555" lon="4.63736">
        <ele>223.11276</ele>
        <time>2023-12-07T12:57:44.000Z</time>
      </trkpt>
      <trkpt lat="45.87558" lon="4.63734">
        <ele>223.43665</ele>
        <time>2023-12-07T12:57:45.000Z</time>
      </trkpt>
      <trkpt lat="45.87561" lon="4.63732">
        <ele>223.63638</ele>
        <time>2023-12-07T12:57:46.000Z</time>
      </trkpt>
      <trkpt lat="45.87565" lon="4.6373">
        <ele>223.85669</ele>
        <time>2023-12-07T12:57:47.000Z</time>
      </trkpt>
      <trkpt lat="45.87568" lon="4.63727">
        <ele>224.37918</ele>
        <time>2023-12-07T12:57:48.000Z</time>
      </trkpt>
      <trkpt lat="45.87572" lon="4.63725">
        <ele>224.87016</ele>
        <time>2023-12-07T12:57:49.000Z</time>
      </trkpt>
      <trkpt lat="45.87576" lon="4.63723">
        <ele>225.47025</ele>
        <time>2023-12-07T12:57:50.000Z</time>
      </trkpt>
      <trkpt lat="45.87579" lon="4.63721">
        <ele>226.00154</ele>
        <time>2023-12-07T12:57:51.000Z</time>
      </trkpt>
      <trkpt lat="45.87583" lon="4.63719">
        <ele>226.57878</ele>
        <time>2023-12-07T12:57:52.000Z</time>
      </trkpt>
      <trkpt lat="45.87586" lon="4.63718">
        <ele>227.14922</ele>
        <time>2023-12-07T12:57:53.000Z</time>
      </trkpt>
      <trkpt lat="45.8759" lon="4.63716">
        <ele>227.59094</ele>
        <time>2023-12-07T12:57:54.000Z</time>
      </trkpt>
      <trkpt lat="45.87594" lon="4.63714">
        <ele>228.05974</ele>
        <time>2023-12-07T12:57:55.000Z</time>
      </trkpt>
      <trkpt lat="45.87598" lon="4.63713">
        <ele>228.52946</ele>
        <time>2023-12-07T12:57:56.000Z</time>
      </trkpt>
      <trkpt lat="45.87602" lon="4.63711">
        <ele>228.94849</ele>
        <time>2023-12-07T12:57:57.000Z</time>
      </trkpt>
      <trkpt lat="45.87606" lon="4.6371">
        <ele>229.42464</ele>
        <time>2023-12-07T12:57:58.000Z</time>
      </trkpt>
      <trkpt lat="45.87609" lon="4.6371">
        <ele>229.66782</ele>
        <time>2023-12-07T12:57:59.000Z</time>
      </trkpt>
      <trkpt lat="45.87613" lon="4.6371">
        <ele>229.87727</ele>
        <time>2023-12-07T12:58:00.000Z</time>
      </trkpt>
      <trkpt lat="45.87616" lon="4.6371">
        <ele>229.96086</ele>
        <time>2023-12-07T12:58:01.000Z</time>
      </trkpt>
      <trkpt lat="45.8762" lon="4.6371">
        <ele>230.08658</ele>
        <time>2023-12-07T12:58:02.000Z</time>
      </trkpt>
      <trkpt lat="45.87624" lon="4.63708">
        <ele>230.08757</ele>
        <time>2023-12-07T12:58:03.000Z</time>
      </trkpt>
      <trkpt lat="45.87628" lon="4.63706">
        <ele>230.04753</ele>
        <time>2023-12-07T12:58:04.000Z</time>
      </trkpt>
      <trkpt lat="45.87631" lon="4.63703">
        <ele>230.0118</ele>
        <time>2023-12-07T12:58:05.000Z</time>
      </trkpt>
      <trkpt lat="45.87635" lon="4.637">
        <ele>229.95947</ele>
        <time>2023-12-07T12:58:06.000Z</time>
      </trkpt>
      <trkpt lat="45.87638" lon="4.63697">
        <ele>229.98474</ele>
        <time>2023-12-07T12:58:07.000Z</time>
      </trkpt>
      <trkpt lat="45.8764" lon="4.63696">
        <ele>230.11401</ele>
        <time>2023-12-07T12:58:08.000Z</time>
      </trkpt>
      <trkpt lat="45.87642" lon="4.63693">
        <ele>230.16203</ele>
        <time>2023-12-07T12:58:09.000Z</time>
      </trkpt>
      <trkpt lat="45.87645" lon="4.6369">
        <ele>229.99236</ele>
        <time>2023-12-07T12:58:10.000Z</time>
      </trkpt>
      <trkpt lat="45.87648" lon="4.63687">
        <ele>229.82959</ele>
        <time>2023-12-07T12:58:11.000Z</time>
      </trkpt>
      <trkpt lat="45.87651" lon="4.63684">
        <ele>229.64717</ele>
        <time>2023-12-07T12:58:12.000Z</time>
      </trkpt>
      <trkpt lat="45.87654" lon="4.63682">
        <ele>229.53841</ele>
        <time>2023-12-07T12:58:13.000Z</time>
      </trkpt>
      <trkpt lat="45.87657" lon="4.6368">
        <ele>229.50484</ele>
        <time>2023-12-07T12:58:14.000Z</time>
      </trkpt>
      <trkpt lat="45.87659" lon="4.63678">
        <ele>229.47659</ele>
        <time>2023-12-07T12:58:15.000Z</time>
      </trkpt>
      <trkpt lat="45.87663" lon="4.63675">
        <ele>229.3978</ele>
        <time>2023-12-07T12:58:16.000Z</time>
      </trkpt>
      <trkpt lat="45.87667" lon="4.63672">
        <ele>229.4332</ele>
        <time>2023-12-07T12:58:17.000Z</time>
      </trkpt>
      <trkpt lat="45.8767" lon="4.63669">
        <ele>229.14346</ele>
        <time>2023-12-07T12:58:18.000Z</time>
      </trkpt>
      <trkpt lat="45.87674" lon="4.63667">
        <ele>229.19775</ele>
        <time>2023-12-07T12:58:19.000Z</time>
      </trkpt>
      <trkpt lat="45.87677" lon="4.63664">
        <ele>229.25876</ele>
        <time>2023-12-07T12:58:20.000Z</time>
      </trkpt>
      <trkpt lat="45.87681" lon="4.6366">
        <ele>229.3291</ele>
        <time>2023-12-07T12:58:21.000Z</time>
      </trkpt>
      <trkpt lat="45.87684" lon="4.63657">
        <ele>229.36507</ele>
        <time>2023-12-07T12:58:22.000Z</time>
      </trkpt>
      <trkpt lat="45.87688" lon="4.63653">
        <ele>229.48779</ele>
        <time>2023-12-07T12:58:23.000Z</time>
      </trkpt>
      <trkpt lat="45.87692" lon="4.63649">
        <ele>229.68462</ele>
        <time>2023-12-07T12:58:24.000Z</time>
      </trkpt>
      <trkpt lat="45.87696" lon="4.63645">
        <ele>229.90042</ele>
        <time>2023-12-07T12:58:25.000Z</time>
      </trkpt>
      <trkpt lat="45.877" lon="4.6364">
        <ele>230.1414</ele>
        <time>2023-12-07T12:58:26.000Z</time>
      </trkpt>
      <trkpt lat="45.87704" lon="4.63636">
        <ele>230.29797</ele>
        <time>2023-12-07T12:58:27.000Z</time>
      </trkpt>
      <trkpt lat="45.87706" lon="4.63632">
        <ele>230.32047</ele>
        <time>2023-12-07T12:58:28.000Z</time>
      </trkpt>
      <trkpt lat="45.87708" lon="4.6362">
        <ele>230.39717</ele>
        <time>2023-12-07T12:58:29.000Z</time>
      </trkpt>
      <trkpt lat="45.87712" lon="4.63613">
        <ele>230.64563</ele>
        <time>2023-12-07T12:58:30.000Z</time>
      </trkpt>
      <trkpt lat="45.87715" lon="4.63607">
        <ele>230.98543</ele>
        <time>2023-12-07T12:58:31.000Z</time>
      </trkpt>
      <trkpt lat="45.87717" lon="4.63601">
        <ele>231.31705</ele>
        <time>2023-12-07T12:58:32.000Z</time>
      </trkpt>
      <trkpt lat="45.8772" lon="4.63596">
        <ele>231.34225</ele>
        <time>2023-12-07T12:58:33.000Z</time>
      </trkpt>
      <trkpt lat="45.87722" lon="4.63589">
        <ele>231.40622</ele>
        <time>2023-12-07T12:58:34.000Z</time>
      </trkpt>
      <trkpt lat="45.87726" lon="4.63585">
        <ele>231.47299</ele>
        <time>2023-12-07T12:58:35.000Z</time>
      </trkpt>
      <trkpt lat="45.87728" lon="4.63583">
        <ele>231.54166</ele>
        <time>2023-12-07T12:58:36.000Z</time>
      </trkpt>
      <trkpt lat="45.87731" lon="4.63577">
        <ele>231.59061</ele>
        <time>2023-12-07T12:58:37.000Z</time>
      </trkpt>
      <trkpt lat="45.87732" lon="4.63571">
        <ele>231.86868</ele>
        <time>2023-12-07T12:58:38.000Z</time>
      </trkpt>
      <trkpt lat="45.87734" lon="4.63563">
        <ele>232.01176</ele>
        <time>2023-12-07T12:58:39.000Z</time>
      </trkpt>
      <trkpt lat="45.87738" lon="4.63557">
        <ele>232.15701</ele>
        <time>2023-12-07T12:58:40.000Z</time>
      </trkpt>
      <trkpt lat="45.87739" lon="4.63553">
        <ele>232.30884</ele>
        <time>2023-12-07T12:58:41.000Z</time>
      </trkpt>
      <trkpt lat="45.87742" lon="4.63546">
        <ele>232.59033</ele>
        <time>2023-12-07T12:58:42.000Z</time>
      </trkpt>
      <trkpt lat="45.87743" lon="4.63542">
        <ele>232.88779</ele>
        <time>2023-12-07T12:58:43.000Z</time>
      </trkpt>
      <trkpt lat="45.87744" lon="4.63537">
        <ele>233.09787</ele>
        <time>2023-12-07T12:58:44.000Z</time>
      </trkpt>
      <trkpt lat="45.87751" lon="4.63535">
        <ele>233.23213</ele>
        <time>2023-12-07T12:58:45.000Z</time>
      </trkpt>
      <trkpt lat="45.87756" lon="4.63534">
        <ele>233.41953</ele>
        <time>2023-12-07T12:58:46.000Z</time>
      </trkpt>
      <trkpt lat="45.87761" lon="4.63534">
        <ele>233.57706</ele>
        <time>2023-12-07T12:58:47.000Z</time>
      </trkpt>
      <trkpt lat="45.87765" lon="4.63534">
        <ele>233.40508</ele>
        <time>2023-12-07T12:58:48.000Z</time>
      </trkpt>
      <trkpt lat="45.8777" lon="4.63535">
        <ele>233.19304</ele>
        <time>2023-12-07T12:58:49.000Z</time>
      </trkpt>
      <trkpt lat="45.87774" lon="4.63535">
        <ele>232.7836</ele>
        <time>2023-12-07T12:58:50.000Z</time>
      </trkpt>
      <trkpt lat="45.87777" lon="4.63535">
        <ele>232.26968</ele>
        <time>2023-12-07T12:58:51.000Z</time>
      </trkpt>
      <trkpt lat="45.87781" lon="4.63536">
        <ele>231.86076</ele>
        <time>2023-12-07T12:58:52.000Z</time>
      </trkpt>
      <trkpt lat="45.87785" lon="4.63537">
        <ele>231.73642</ele>
        <time>2023-12-07T12:58:53.000Z</time>
      </trkpt>
      <trkpt lat="45.87789" lon="4.63539">
        <ele>231.6586</ele>
        <time>2023-12-07T12:58:54.000Z</time>
      </trkpt>
      <trkpt lat="45.87792" lon="4.63541">
        <ele>231.53174</ele>
        <time>2023-12-07T12:58:55.000Z</time>
      </trkpt>
      <trkpt lat="45.87795" lon="4.63543">
        <ele>231.16316</ele>
        <time>2023-12-07T12:58:56.000Z</time>
      </trkpt>
      <trkpt lat="45.87798" lon="4.63545">
        <ele>230.77222</ele>
        <time>2023-12-07T12:58:57.000Z</time>
      </trkpt>
      <trkpt lat="45.87802" lon="4.63547">
        <ele>230.41887</ele>
        <time>2023-12-07T12:58:58.000Z</time>
      </trkpt>
      <trkpt lat="45.87805" lon="4.63549">
        <ele>230.10706</ele>
        <time>2023-12-07T12:58:59.000Z</time>
      </trkpt>
      <trkpt lat="45.87809" lon="4.6355">
        <ele>229.76636</ele>
        <time>2023-12-07T12:59:00.000Z</time>
      </trkpt>
      <trkpt lat="45.87813" lon="4.63552">
        <ele>229.524</ele>
        <time>2023-12-07T12:59:01.000Z</time>
      </trkpt>
      <trkpt lat="45.87816" lon="4.63553">
        <ele>229.13457</ele>
        <time>2023-12-07T12:59:02.000Z</time>
      </trkpt>
      <trkpt lat="45.8782" lon="4.63555">
        <ele>228.69589</ele>
        <time>2023-12-07T12:59:03.000Z</time>
      </trkpt>
      <trkpt lat="45.87824" lon="4.63557">
        <ele>228.22324</ele>
        <time>2023-12-07T12:59:04.000Z</time>
      </trkpt>
      <trkpt lat="45.87827" lon="4.63558">
        <ele>227.74626</ele>
        <time>2023-12-07T12:59:05.000Z</time>
      </trkpt>
      <trkpt lat="45.87829" lon="4.6356">
        <ele>227.27805</ele>
        <time>2023-12-07T12:59:06.000Z</time>
      </trkpt>
      <trkpt lat="45.87833" lon="4.63561">
        <ele>226.77591</ele>
        <time>2023-12-07T12:59:07.000Z</time>
      </trkpt>
      <trkpt lat="45.87837" lon="4.63562">
        <ele>226.64307</ele>
        <time>2023-12-07T12:59:08.000Z</time>
      </trkpt>
      <trkpt lat="45.87841" lon="4.63563">
        <ele>226.46992</ele>
        <time>2023-12-07T12:59:09.000Z</time>
      </trkpt>
      <trkpt lat="45.87848" lon="4.63563">
        <ele>226.50784</ele>
        <time>2023-12-07T12:59:10.000Z</time>
      </trkpt>
      <trkpt lat="45.87852" lon="4.63562">
        <ele>226.68933</ele>
        <time>2023-12-07T12:59:11.000Z</time>
      </trkpt>
      <trkpt lat="45.87857" lon="4.63559">
        <ele>226.70198</ele>
        <time>2023-12-07T12:59:12.000Z</time>
      </trkpt>
      <trkpt lat="45.87861" lon="4.63558">
        <ele>226.64743</ele>
        <time>2023-12-07T12:59:13.000Z</time>
      </trkpt>
      <trkpt lat="45.87864" lon="4.63557">
        <ele>226.53</ele>
        <time>2023-12-07T12:59:14.000Z</time>
      </trkpt>
      <trkpt lat="45.87868" lon="4.63559">
        <ele>226.42407</ele>
        <time>2023-12-07T12:59:15.000Z</time>
      </trkpt>
      <trkpt lat="45.87871" lon="4.63558">
        <ele>226.65625</ele>
        <time>2023-12-07T12:59:16.000Z</time>
      </trkpt>
      <trkpt lat="45.87875" lon="4.63559">
        <ele>226.83806</ele>
        <time>2023-12-07T12:59:17.000Z</time>
      </trkpt>
      <trkpt lat="45.87878" lon="4.6356">
        <ele>227.16345</ele>
        <time>2023-12-07T12:59:18.000Z</time>
      </trkpt>
      <trkpt lat="45.87881" lon="4.6356">
        <ele>227.51462</ele>
        <time>2023-12-07T12:59:19.000Z</time>
      </trkpt>
      <trkpt lat="45.87887" lon="4.63562">
        <ele>227.82297</ele>
        <time>2023-12-07T12:59:20.000Z</time>
      </trkpt>
      <trkpt lat="45.8789" lon="4.63561">
        <ele>227.6779</ele>
        <time>2023-12-07T12:59:21.000Z</time>
      </trkpt>
      <trkpt lat="45.87893" lon="4.63562">
        <ele>227.58687</ele>
        <time>2023-12-07T12:59:22.000Z</time>
      </trkpt>
      <trkpt lat="45.87896" lon="4.63563">
        <ele>227.58589</ele>
        <time>2023-12-07T12:59:23.000Z</time>
      </trkpt>
      <trkpt lat="45.87899" lon="4.63564">
        <ele>227.65681</ele>
        <time>2023-12-07T12:59:24.000Z</time>
      </trkpt>
      <trkpt lat="45.87903" lon="4.63564">
        <ele>227.72346</ele>
        <time>2023-12-07T12:59:25.000Z</time>
      </trkpt>
      <trkpt lat="45.87906" lon="4.63564">
        <ele>227.70784</ele>
        <time>2023-12-07T12:59:26.000Z</time>
      </trkpt>
      <trkpt lat="45.87909" lon="4.63563">
        <ele>227.69637</ele>
        <time>2023-12-07T12:59:27.000Z</time>
      </trkpt>
      <trkpt lat="45.87912" lon="4.63562">
        <ele>227.59846</ele>
        <time>2023-12-07T12:59:28.000Z</time>
      </trkpt>
      <trkpt lat="45.87916" lon="4.63561">
        <ele>227.54707</ele>
        <time>2023-12-07T12:59:29.000Z</time>
      </trkpt>
      <trkpt lat="45.87919" lon="4.6356">
        <ele>227.35812</ele>
        <time>2023-12-07T12:59:30.000Z</time>
      </trkpt>
      <trkpt lat="45.87922" lon="4.63558">
        <ele>227.08902</ele>
        <time>2023-12-07T12:59:31.000Z</time>
      </trkpt>
      <trkpt lat="45.87926" lon="4.63558">
        <ele>226.8531</ele>
        <time>2023-12-07T12:59:32.000Z</time>
      </trkpt>
      <trkpt lat="45.8793" lon="4.63558">
        <ele>226.65593</ele>
        <time>2023-12-07T12:59:33.000Z</time>
      </trkpt>
      <trkpt lat="45.87933" lon="4.63559">
        <ele>226.43709</ele>
        <time>2023-12-07T12:59:34.000Z</time>
      </trkpt>
      <trkpt lat="45.87937" lon="4.6356">
        <ele>226.23953</ele>
        <time>2023-12-07T12:59:35.000Z</time>
      </trkpt>
      <trkpt lat="45.8794" lon="4.6356">
        <ele>226.00662</ele>
        <time>2023-12-07T12:59:36.000Z</time>
      </trkpt>
      <trkpt lat="45.87943" lon="4.6356">
        <ele>225.81302</ele>
        <time>2023-12-07T12:59:37.000Z</time>
      </trkpt>
      <trkpt lat="45.87947" lon="4.63557">
        <ele>225.43494</ele>
        <time>2023-12-07T12:59:38.000Z</time>
      </trkpt>
      <trkpt lat="45.8795" lon="4.63554">
        <ele>225.04846</ele>
        <time>2023-12-07T12:59:39.000Z</time>
      </trkpt>
      <trkpt lat="45.87953" lon="4.63552">
        <ele>224.75227</ele>
        <time>2023-12-07T12:59:40.000Z</time>
      </trkpt>
      <trkpt lat="45.87957" lon="4.6355">
        <ele>224.80228</ele>
        <time>2023-12-07T12:59:41.000Z</time>
      </trkpt>
      <trkpt lat="45.87961" lon="4.6355">
        <ele>224.82076</ele>
        <time>2023-12-07T12:59:42.000Z</time>
      </trkpt>
      <trkpt lat="45.87964" lon="4.6355">
        <ele>224.80203</ele>
        <time>2023-12-07T12:59:43.000Z</time>
      </trkpt>
      <trkpt lat="45.87969" lon="4.6355">
        <ele>224.7565</ele>
        <time>2023-12-07T12:59:44.000Z</time>
      </trkpt>
      <trkpt lat="45.87973" lon="4.63549">
        <ele>224.77405</ele>
        <time>2023-12-07T12:59:45.000Z</time>
      </trkpt>
      <trkpt lat="45.87977" lon="4.63548">
        <ele>224.78252</ele>
        <time>2023-12-07T12:59:46.000Z</time>
      </trkpt>
      <trkpt lat="45.8798" lon="4.63546">
        <ele>224.81705</ele>
        <time>2023-12-07T12:59:47.000Z</time>
      </trkpt>
      <trkpt lat="45.87983" lon="4.63544">
        <ele>224.89438</ele>
        <time>2023-12-07T12:59:48.000Z</time>
      </trkpt>
      <trkpt lat="45.87985" lon="4.63541">
        <ele>225.00359</ele>
        <time>2023-12-07T12:59:49.000Z</time>
      </trkpt>
      <trkpt lat="45.87987" lon="4.6354">
        <ele>225.11038</ele>
        <time>2023-12-07T12:59:50.000Z</time>
      </trkpt>
      <trkpt lat="45.8799" lon="4.63537">
        <ele>225.12051</ele>
        <time>2023-12-07T12:59:51.000Z</time>
      </trkpt>
      <trkpt lat="45.87994" lon="4.63534">
        <ele>225.1998</ele>
        <time>2023-12-07T12:59:52.000Z</time>
      </trkpt>
      <trkpt lat="45.87998" lon="4.63531">
        <ele>225.28203</ele>
        <time>2023-12-07T12:59:53.000Z</time>
      </trkpt>
      <trkpt lat="45.88001" lon="4.63527">
        <ele>225.5162</ele>
        <time>2023-12-07T12:59:54.000Z</time>
      </trkpt>
      <trkpt lat="45.88004" lon="4.63524">
        <ele>225.80534</ele>
        <time>2023-12-07T12:59:55.000Z</time>
      </trkpt>
      <trkpt lat="45.88007" lon="4.63521">
        <ele>226.04526</ele>
        <time>2023-12-07T12:59:56.000Z</time>
      </trkpt>
      <trkpt lat="45.88009" lon="4.63517">
        <ele>226.25017</ele>
        <time>2023-12-07T12:59:57.000Z</time>
      </trkpt>
      <trkpt lat="45.88013" lon="4.63514">
        <ele>226.56857</ele>
        <time>2023-12-07T12:59:58.000Z</time>
      </trkpt>
      <trkpt lat="45.88016" lon="4.6351">
        <ele>226.84468</ele>
        <time>2023-12-07T12:59:59.000Z</time>
      </trkpt>
      <trkpt lat="45.8802" lon="4.63507">
        <ele>226.71309</ele>
        <time>2023-12-07T13:00:00.000Z</time>
      </trkpt>
      <trkpt lat="45.88024" lon="4.63505">
        <ele>226.58919</ele>
        <time>2023-12-07T13:00:01.000Z</time>
      </trkpt>
      <trkpt lat="45.88028" lon="4.63504">
        <ele>226.42973</ele>
        <time>2023-12-07T13:00:02.000Z</time>
      </trkpt>
      <trkpt lat="45.88032" lon="4.63502">
        <ele>226.32474</ele>
        <time>2023-12-07T13:00:03.000Z</time>
      </trkpt>
      <trkpt lat="45.88035" lon="4.63501">
        <ele>226.19389</ele>
        <time>2023-12-07T13:00:04.000Z</time>
      </trkpt>
      <trkpt lat="45.88041" lon="4.63497">
        <ele>226.0957</ele>
        <time>2023-12-07T13:00:05.000Z</time>
      </trkpt>
      <trkpt lat="45.88044" lon="4.63494">
        <ele>226.07964</ele>
        <time>2023-12-07T13:00:06.000Z</time>
      </trkpt>
      <trkpt lat="45.88048" lon="4.6349">
        <ele>226.06436</ele>
        <time>2023-12-07T13:00:07.000Z</time>
      </trkpt>
      <trkpt lat="45.88051" lon="4.63487">
        <ele>226.04924</ele>
        <time>2023-12-07T13:00:08.000Z</time>
      </trkpt>
      <trkpt lat="45.88055" lon="4.63483">
        <ele>226.05457</ele>
        <time>2023-12-07T13:00:09.000Z</time>
      </trkpt>
      <trkpt lat="45.88058" lon="4.6348">
        <ele>226.16643</ele>
        <time>2023-12-07T13:00:10.000Z</time>
      </trkpt>
      <trkpt lat="45.88061" lon="4.63478">
        <ele>226.35432</ele>
        <time>2023-12-07T13:00:11.000Z</time>
      </trkpt>
      <trkpt lat="45.88062" lon="4.63473">
        <ele>226.48804</ele>
        <time>2023-12-07T13:00:12.000Z</time>
      </trkpt>
      <trkpt lat="45.88064" lon="4.63469">
        <ele>226.68881</ele>
        <time>2023-12-07T13:00:13.000Z</time>
      </trkpt>
      <trkpt lat="45.88065" lon="4.63465">
        <ele>226.77654</ele>
        <time>2023-12-07T13:00:14.000Z</time>
      </trkpt>
      <trkpt lat="45.88069" lon="4.63461">
        <ele>226.84607</ele>
        <time>2023-12-07T13:00:15.000Z</time>
      </trkpt>
      <trkpt lat="45.88071" lon="4.63457">
        <ele>226.93355</ele>
        <time>2023-12-07T13:00:16.000Z</time>
      </trkpt>
      <trkpt lat="45.88073" lon="4.63452">
        <ele>227.06033</ele>
        <time>2023-12-07T13:00:17.000Z</time>
      </trkpt>
      <trkpt lat="45.88075" lon="4.63447">
        <ele>226.78059</ele>
        <time>2023-12-07T13:00:18.000Z</time>
      </trkpt>
      <trkpt lat="45.88076" lon="4.63443">
        <ele>226.50748</ele>
        <time>2023-12-07T13:00:19.000Z</time>
      </trkpt>
      <trkpt lat="45.88078" lon="4.63439">
        <ele>226.75919</ele>
        <time>2023-12-07T13:00:20.000Z</time>
      </trkpt>
      <trkpt lat="45.88079" lon="4.63435">
        <ele>227.08037</ele>
        <time>2023-12-07T13:00:21.000Z</time>
      </trkpt>
      <trkpt lat="45.8808" lon="4.63431">
        <ele>226.68562</ele>
        <time>2023-12-07T13:00:22.000Z</time>
      </trkpt>
      <trkpt lat="45.8808" lon="4.63427">
        <ele>226.17317</ele>
        <time>2023-12-07T13:00:23.000Z</time>
      </trkpt>
      <trkpt lat="45.8808" lon="4.63424">
        <ele>225.70171</ele>
        <time>2023-12-07T13:00:24.000Z</time>
      </trkpt>
      <trkpt lat="45.88079" lon="4.6342">
        <ele>225.21748</ele>
        <time>2023-12-07T13:00:26.000Z</time>
      </trkpt>
      <trkpt lat="45.88079" lon="4.63417">
        <ele>224.67566</ele>
        <time>2023-12-07T13:00:27.000Z</time>
      </trkpt>
      <trkpt lat="45.8808" lon="4.63413">
        <ele>224.1508</ele>
        <time>2023-12-07T13:00:28.000Z</time>
      </trkpt>
      <trkpt lat="45.88082" lon="4.63409">
        <ele>223.61588</ele>
        <time>2023-12-07T13:00:29.000Z</time>
      </trkpt>
      <trkpt lat="45.88083" lon="4.63406">
        <ele>223.03616</ele>
        <time>2023-12-07T13:00:30.000Z</time>
      </trkpt>
      <trkpt lat="45.88084" lon="4.63402">
        <ele>222.38229</ele>
        <time>2023-12-07T13:00:31.000Z</time>
      </trkpt>
      <trkpt lat="45.88085" lon="4.63398">
        <ele>221.70047</ele>
        <time>2023-12-07T13:00:32.000Z</time>
      </trkpt>
      <trkpt lat="45.88085" lon="4.63395">
        <ele>221.02917</ele>
        <time>2023-12-07T13:00:33.000Z</time>
      </trkpt>
      <trkpt lat="45.88086" lon="4.63391">
        <ele>220.29338</ele>
        <time>2023-12-07T13:00:34.000Z</time>
      </trkpt>
      <trkpt lat="45.88087" lon="4.63388">
        <ele>219.47049</ele>
        <time>2023-12-07T13:00:35.000Z</time>
      </trkpt>
      <trkpt lat="45.88089" lon="4.63383">
        <ele>218.57175</ele>
        <time>2023-12-07T13:00:36.000Z</time>
      </trkpt>
      <trkpt lat="45.88091" lon="4.63378">
        <ele>217.69699</ele>
        <time>2023-12-07T13:00:37.000Z</time>
      </trkpt>
      <trkpt lat="45.88097" lon="4.63363">
        <ele>216.77019</ele>
        <time>2023-12-07T13:00:38.000Z</time>
      </trkpt>
      <trkpt lat="45.88099" lon="4.63356">
        <ele>216.11008</ele>
        <time>2023-12-07T13:00:39.000Z</time>
      </trkpt>
      <trkpt lat="45.881" lon="4.63348">
        <ele>215.50093</ele>
        <time>2023-12-07T13:00:40.000Z</time>
      </trkpt>
      <trkpt lat="45.88102" lon="4.6334">
        <ele>214.72391</ele>
        <time>2023-12-07T13:00:41.000Z</time>
      </trkpt>
      <trkpt lat="45.88103" lon="4.63333">
        <ele>213.91035</ele>
        <time>2023-12-07T13:00:42.000Z</time>
      </trkpt>
      <trkpt lat="45.88104" lon="4.63327">
        <ele>213.81503</ele>
        <time>2023-12-07T13:00:43.000Z</time>
      </trkpt>
      <trkpt lat="45.88108" lon="4.6332">
        <ele>213.73572</ele>
        <time>2023-12-07T13:00:44.000Z</time>
      </trkpt>
      <trkpt lat="45.88109" lon="4.63315">
        <ele>213.66528</ele>
        <time>2023-12-07T13:00:45.000Z</time>
      </trkpt>
      <trkpt lat="45.8811" lon="4.63309">
        <ele>213.58308</ele>
        <time>2023-12-07T13:00:46.000Z</time>
      </trkpt>
      <trkpt lat="45.8811" lon="4.63304">
        <ele>213.52254</ele>
        <time>2023-12-07T13:00:47.000Z</time>
      </trkpt>
      <trkpt lat="45.8811" lon="4.63302">
        <ele>213.46147</ele>
        <time>2023-12-07T13:00:48.000Z</time>
      </trkpt>
      <trkpt lat="45.88109" lon="4.63299">
        <ele>213.40378</ele>
        <time>2023-12-07T13:00:49.000Z</time>
      </trkpt>
      <trkpt lat="45.88108" lon="4.63297">
        <ele>213.36929</ele>
        <time>2023-12-07T13:00:50.000Z</time>
      </trkpt>
      <trkpt lat="45.88107" lon="4.63293">
        <ele>213.31609</ele>
        <time>2023-12-07T13:00:51.000Z</time>
      </trkpt>
      <trkpt lat="45.88106" lon="4.63289">
        <ele>213.29492</ele>
        <time>2023-12-07T13:00:52.000Z</time>
      </trkpt>
      <trkpt lat="45.88106" lon="4.63286">
        <ele>213.29166</ele>
        <time>2023-12-07T13:00:53.000Z</time>
      </trkpt>
      <trkpt lat="45.88105" lon="4.63282">
        <ele>213.29459</ele>
        <time>2023-12-07T13:00:55.000Z</time>
      </trkpt>
      <trkpt lat="45.88104" lon="4.63279">
        <ele>213.28186</ele>
        <time>2023-12-07T13:00:56.000Z</time>
      </trkpt>
      <trkpt lat="45.88103" lon="4.63276">
        <ele>213.31497</ele>
        <time>2023-12-07T13:00:57.000Z</time>
      </trkpt>
      <trkpt lat="45.88102" lon="4.63271">
        <ele>213.28073</ele>
        <time>2023-12-07T13:00:58.000Z</time>
      </trkpt>
      <trkpt lat="45.88102" lon="4.63267">
        <ele>213.32263</ele>
        <time>2023-12-07T13:00:59.000Z</time>
      </trkpt>
      <trkpt lat="45.88101" lon="4.63262">
        <ele>213.40994</ele>
        <time>2023-12-07T13:01:00.000Z</time>
      </trkpt>
      <trkpt lat="45.88101" lon="4.63257">
        <ele>213.48572</ele>
        <time>2023-12-07T13:01:01.000Z</time>
      </trkpt>
      <trkpt lat="45.88101" lon="4.63252">
        <ele>213.5986</ele>
        <time>2023-12-07T13:01:02.000Z</time>
      </trkpt>
      <trkpt lat="45.88101" lon="4.63246">
        <ele>213.68832</ele>
        <time>2023-12-07T13:01:03.000Z</time>
      </trkpt>
      <trkpt lat="45.88101" lon="4.6324">
        <ele>213.75888</ele>
        <time>2023-12-07T13:01:04.000Z</time>
      </trkpt>
      <trkpt lat="45.88101" lon="4.63234">
        <ele>213.84518</ele>
        <time>2023-12-07T13:01:05.000Z</time>
      </trkpt>
      <trkpt lat="45.881" lon="4.63229">
        <ele>213.90276</ele>
        <time>2023-12-07T13:01:06.000Z</time>
      </trkpt>
      <trkpt lat="45.881" lon="4.63223">
        <ele>213.93481</ele>
        <time>2023-12-07T13:01:07.000Z</time>
      </trkpt>
      <trkpt lat="45.881" lon="4.63217">
        <ele>213.96077</ele>
        <time>2023-12-07T13:01:08.000Z</time>
      </trkpt>
      <trkpt lat="45.881" lon="4.63212">
        <ele>214.02136</ele>
        <time>2023-12-07T13:01:09.000Z</time>
      </trkpt>
      <trkpt lat="45.881" lon="4.63207">
        <ele>214.05086</ele>
        <time>2023-12-07T13:01:10.000Z</time>
      </trkpt>
      <trkpt lat="45.881" lon="4.63201">
        <ele>214.12155</ele>
        <time>2023-12-07T13:01:11.000Z</time>
      </trkpt>
      <trkpt lat="45.881" lon="4.63196">
        <ele>214.13242</ele>
        <time>2023-12-07T13:01:12.000Z</time>
      </trkpt>
      <trkpt lat="45.881" lon="4.6319">
        <ele>214.13574</ele>
        <time>2023-12-07T13:01:13.000Z</time>
      </trkpt>
      <trkpt lat="45.881" lon="4.63184">
        <ele>214.15933</ele>
        <time>2023-12-07T13:01:14.000Z</time>
      </trkpt>
      <trkpt lat="45.881" lon="4.63178">
        <ele>214.17696</ele>
        <time>2023-12-07T13:01:15.000Z</time>
      </trkpt>
      <trkpt lat="45.881" lon="4.63172">
        <ele>214.21382</ele>
        <time>2023-12-07T13:01:16.000Z</time>
      </trkpt>
      <trkpt lat="45.88099" lon="4.63166">
        <ele>214.25864</ele>
        <time>2023-12-07T13:01:17.000Z</time>
      </trkpt>
      <trkpt lat="45.88099" lon="4.63161">
        <ele>214.39243</ele>
        <time>2023-12-07T13:01:18.000Z</time>
      </trkpt>
      <trkpt lat="45.88098" lon="4.63156">
        <ele>214.50537</ele>
        <time>2023-12-07T13:01:19.000Z</time>
      </trkpt>
      <trkpt lat="45.88097" lon="4.63151">
        <ele>214.61722</ele>
        <time>2023-12-07T13:01:20.000Z</time>
      </trkpt>
      <trkpt lat="45.88096" lon="4.63145">
        <ele>214.72464</ele>
        <time>2023-12-07T13:01:21.000Z</time>
      </trkpt>
      <trkpt lat="45.88094" lon="4.6314">
        <ele>214.83525</ele>
        <time>2023-12-07T13:01:22.000Z</time>
      </trkpt>
      <trkpt lat="45.88092" lon="4.63136">
        <ele>214.97563</ele>
        <time>2023-12-07T13:01:23.000Z</time>
      </trkpt>
      <trkpt lat="45.88091" lon="4.63131">
        <ele>215.17461</ele>
        <time>2023-12-07T13:01:24.000Z</time>
      </trkpt>
      <trkpt lat="45.88089" lon="4.63126">
        <ele>215.37048</ele>
        <time>2023-12-07T13:01:25.000Z</time>
      </trkpt>
      <trkpt lat="45.88087" lon="4.63121">
        <ele>215.54106</ele>
        <time>2023-12-07T13:01:26.000Z</time>
      </trkpt>
      <trkpt lat="45.88086" lon="4.63115">
        <ele>215.69946</ele>
        <time>2023-12-07T13:01:27.000Z</time>
      </trkpt>
      <trkpt lat="45.88084" lon="4.6311">
        <ele>215.81616</ele>
        <time>2023-12-07T13:01:28.000Z</time>
      </trkpt>
      <trkpt lat="45.88083" lon="4.63105">
        <ele>215.89133</ele>
        <time>2023-12-07T13:01:29.000Z</time>
      </trkpt>
      <trkpt lat="45.88081" lon="4.63101">
        <ele>216.05428</ele>
        <time>2023-12-07T13:01:30.000Z</time>
      </trkpt>
      <trkpt lat="45.88079" lon="4.63096">
        <ele>216.15988</ele>
        <time>2023-12-07T13:01:31.000Z</time>
      </trkpt>
      <trkpt lat="45.88078" lon="4.63092">
        <ele>216.2747</ele>
        <time>2023-12-07T13:01:32.000Z</time>
      </trkpt>
      <trkpt lat="45.88076" lon="4.63087">
        <ele>216.3663</ele>
        <time>2023-12-07T13:01:33.000Z</time>
      </trkpt>
      <trkpt lat="45.88074" lon="4.63082">
        <ele>216.46582</ele>
        <time>2023-12-07T13:01:34.000Z</time>
      </trkpt>
      <trkpt lat="45.88072" lon="4.63077">
        <ele>216.56316</ele>
        <time>2023-12-07T13:01:35.000Z</time>
      </trkpt>
      <trkpt lat="45.8807" lon="4.63074">
        <ele>216.65121</ele>
        <time>2023-12-07T13:01:36.000Z</time>
      </trkpt>
      <trkpt lat="45.88069" lon="4.6307">
        <ele>216.74593</ele>
        <time>2023-12-07T13:01:37.000Z</time>
      </trkpt>
      <trkpt lat="45.88068" lon="4.63066">
        <ele>216.76286</ele>
        <time>2023-12-07T13:01:38.000Z</time>
      </trkpt>
      <trkpt lat="45.88067" lon="4.63063">
        <ele>216.76221</ele>
        <time>2023-12-07T13:01:39.000Z</time>
      </trkpt>
      <trkpt lat="45.88065" lon="4.63059">
        <ele>216.77632</ele>
        <time>2023-12-07T13:01:40.000Z</time>
      </trkpt>
      <trkpt lat="45.88063" lon="4.63054">
        <ele>216.82085</ele>
        <time>2023-12-07T13:01:41.000Z</time>
      </trkpt>
      <trkpt lat="45.88061" lon="4.6305">
        <ele>216.83109</ele>
        <time>2023-12-07T13:01:42.000Z</time>
      </trkpt>
      <trkpt lat="45.8806" lon="4.63046">
        <ele>216.82903</ele>
        <time>2023-12-07T13:01:43.000Z</time>
      </trkpt>
      <trkpt lat="45.88059" lon="4.63042">
        <ele>216.86922</ele>
        <time>2023-12-07T13:01:44.000Z</time>
      </trkpt>
      <trkpt lat="45.88058" lon="4.63037">
        <ele>216.88925</ele>
        <time>2023-12-07T13:01:45.000Z</time>
      </trkpt>
      <trkpt lat="45.88057" lon="4.63031">
        <ele>216.84091</ele>
        <time>2023-12-07T13:01:46.000Z</time>
      </trkpt>
      <trkpt lat="45.88056" lon="4.63026">
        <ele>216.80843</ele>
        <time>2023-12-07T13:01:47.000Z</time>
      </trkpt>
      <trkpt lat="45.88055" lon="4.63021">
        <ele>216.8497</ele>
        <time>2023-12-07T13:01:48.000Z</time>
      </trkpt>
      <trkpt lat="45.88054" lon="4.63016">
        <ele>216.83347</ele>
        <time>2023-12-07T13:01:49.000Z</time>
      </trkpt>
      <trkpt lat="45.88054" lon="4.63012">
        <ele>216.7393</ele>
        <time>2023-12-07T13:01:50.000Z</time>
      </trkpt>
      <trkpt lat="45.88053" lon="4.63007">
        <ele>216.63577</ele>
        <time>2023-12-07T13:01:51.000Z</time>
      </trkpt>
      <trkpt lat="45.88053" lon="4.63001">
        <ele>216.54219</ele>
        <time>2023-12-07T13:01:52.000Z</time>
      </trkpt>
      <trkpt lat="45.88053" lon="4.62996">
        <ele>216.45425</ele>
        <time>2023-12-07T13:01:53.000Z</time>
      </trkpt>
      <trkpt lat="45.88053" lon="4.62991">
        <ele>216.34879</ele>
        <time>2023-12-07T13:01:54.000Z</time>
      </trkpt>
      <trkpt lat="45.88055" lon="4.62987">
        <ele>216.20786</ele>
        <time>2023-12-07T13:01:55.000Z</time>
      </trkpt>
      <trkpt lat="45.88057" lon="4.62983">
        <ele>216.07422</ele>
        <time>2023-12-07T13:01:56.000Z</time>
      </trkpt>
      <trkpt lat="45.88061" lon="4.6298">
        <ele>215.93314</ele>
        <time>2023-12-07T13:01:57.000Z</time>
      </trkpt>
      <trkpt lat="45.88065" lon="4.62979">
        <ele>215.82739</ele>
        <time>2023-12-07T13:01:58.000Z</time>
      </trkpt>
      <trkpt lat="45.88068" lon="4.62979">
        <ele>215.74329</ele>
        <time>2023-12-07T13:01:59.000Z</time>
      </trkpt>
      <trkpt lat="45.88072" lon="4.62979">
        <ele>215.6646</ele>
        <time>2023-12-07T13:02:00.000Z</time>
      </trkpt>
      <trkpt lat="45.88076" lon="4.62979">
        <ele>215.56966</ele>
        <time>2023-12-07T13:02:01.000Z</time>
      </trkpt>
      <trkpt lat="45.88079" lon="4.6298">
        <ele>215.49641</ele>
        <time>2023-12-07T13:02:02.000Z</time>
      </trkpt>
      <trkpt lat="45.88082" lon="4.6298">
        <ele>215.43436</ele>
        <time>2023-12-07T13:02:03.000Z</time>
      </trkpt>
      <trkpt lat="45.88085" lon="4.6298">
        <ele>215.30838</ele>
        <time>2023-12-07T13:02:04.000Z</time>
      </trkpt>
      <trkpt lat="45.88088" lon="4.6298">
        <ele>215.22041</ele>
        <time>2023-12-07T13:02:05.000Z</time>
      </trkpt>
      <trkpt lat="45.88091" lon="4.62981">
        <ele>215.22246</ele>
        <time>2023-12-07T13:02:06.000Z</time>
      </trkpt>
      <trkpt lat="45.88094" lon="4.62981">
        <ele>215.20564</ele>
        <time>2023-12-07T13:02:07.000Z</time>
      </trkpt>
      <trkpt lat="45.88096" lon="4.62982">
        <ele>215.11714</ele>
        <time>2023-12-07T13:02:08.000Z</time>
      </trkpt>
      <trkpt lat="45.88098" lon="4.62983">
        <ele>215.11975</ele>
        <time>2023-12-07T13:02:09.000Z</time>
      </trkpt>
      <trkpt lat="45.88101" lon="4.62984">
        <ele>215.18164</ele>
        <time>2023-12-07T13:02:10.000Z</time>
      </trkpt>
      <trkpt lat="45.88104" lon="4.62985">
        <ele>215.21957</ele>
        <time>2023-12-07T13:02:11.000Z</time>
      </trkpt>
      <trkpt lat="45.88107" lon="4.62987">
        <ele>215.27274</ele>
        <time>2023-12-07T13:02:12.000Z</time>
      </trkpt>
      <trkpt lat="45.88111" lon="4.62988">
        <ele>215.31242</ele>
        <time>2023-12-07T13:02:13.000Z</time>
      </trkpt>
      <trkpt lat="45.88115" lon="4.62989">
        <ele>215.31546</ele>
        <time>2023-12-07T13:02:14.000Z</time>
      </trkpt>
      <trkpt lat="45.88121" lon="4.62991">
        <ele>215.33736</ele>
        <time>2023-12-07T13:02:15.000Z</time>
      </trkpt>
      <trkpt lat="45.88127" lon="4.62992">
        <ele>215.33345</ele>
        <time>2023-12-07T13:02:16.000Z</time>
      </trkpt>
      <trkpt lat="45.88131" lon="4.62994">
        <ele>215.31018</ele>
        <time>2023-12-07T13:02:17.000Z</time>
      </trkpt>
      <trkpt lat="45.88137" lon="4.62996">
        <ele>215.29568</ele>
        <time>2023-12-07T13:02:18.000Z</time>
      </trkpt>
      <trkpt lat="45.88141" lon="4.62997">
        <ele>215.22832</ele>
        <time>2023-12-07T13:02:19.000Z</time>
      </trkpt>
      <trkpt lat="45.88145" lon="4.62998">
        <ele>215.19353</ele>
        <time>2023-12-07T13:02:20.000Z</time>
      </trkpt>
      <trkpt lat="45.8815" lon="4.63">
        <ele>215.1395</ele>
        <time>2023-12-07T13:02:21.000Z</time>
      </trkpt>
      <trkpt lat="45.88154" lon="4.63001">
        <ele>215.07173</ele>
        <time>2023-12-07T13:02:22.000Z</time>
      </trkpt>
      <trkpt lat="45.88158" lon="4.63003">
        <ele>214.98434</ele>
        <time>2023-12-07T13:02:23.000Z</time>
      </trkpt>
      <trkpt lat="45.88162" lon="4.63003">
        <ele>214.89908</ele>
        <time>2023-12-07T13:02:24.000Z</time>
      </trkpt>
      <trkpt lat="45.88165" lon="4.63004">
        <ele>214.79936</ele>
        <time>2023-12-07T13:02:25.000Z</time>
      </trkpt>
      <trkpt lat="45.88169" lon="4.63005">
        <ele>214.69577</ele>
        <time>2023-12-07T13:02:26.000Z</time>
      </trkpt>
      <trkpt lat="45.88172" lon="4.63005">
        <ele>214.62387</ele>
        <time>2023-12-07T13:02:27.000Z</time>
      </trkpt>
      <trkpt lat="45.88175" lon="4.63006">
        <ele>214.61551</ele>
        <time>2023-12-07T13:02:28.000Z</time>
      </trkpt>
      <trkpt lat="45.88178" lon="4.63007">
        <ele>214.59848</ele>
        <time>2023-12-07T13:02:29.000Z</time>
      </trkpt>
      <trkpt lat="45.88181" lon="4.63008">
        <ele>214.58054</ele>
        <time>2023-12-07T13:02:30.000Z</time>
      </trkpt>
      <trkpt lat="45.88184" lon="4.63009">
        <ele>214.6095</ele>
        <time>2023-12-07T13:02:31.000Z</time>
      </trkpt>
      <trkpt lat="45.88187" lon="4.63009">
        <ele>214.65242</ele>
        <time>2023-12-07T13:02:32.000Z</time>
      </trkpt>
      <trkpt lat="45.88189" lon="4.63009">
        <ele>214.71257</ele>
        <time>2023-12-07T13:02:33.000Z</time>
      </trkpt>
      <trkpt lat="45.88191" lon="4.63007">
        <ele>214.74936</ele>
        <time>2023-12-07T13:02:34.000Z</time>
      </trkpt>
      <trkpt lat="45.88193" lon="4.63004">
        <ele>214.78169</ele>
        <time>2023-12-07T13:02:35.000Z</time>
      </trkpt>
      <trkpt lat="45.88194" lon="4.63">
        <ele>214.83401</ele>
        <time>2023-12-07T13:02:36.000Z</time>
      </trkpt>
      <trkpt lat="45.88196" lon="4.62995">
        <ele>214.9001</ele>
        <time>2023-12-07T13:02:37.000Z</time>
      </trkpt>
      <trkpt lat="45.88198" lon="4.6299">
        <ele>214.96602</ele>
        <time>2023-12-07T13:02:38.000Z</time>
      </trkpt>
      <trkpt lat="45.882" lon="4.62984">
        <ele>215.06682</ele>
        <time>2023-12-07T13:02:39.000Z</time>
      </trkpt>
      <trkpt lat="45.88203" lon="4.62978">
        <ele>215.12964</ele>
        <time>2023-12-07T13:02:40.000Z</time>
      </trkpt>
      <trkpt lat="45.88205" lon="4.62972">
        <ele>215.18571</ele>
        <time>2023-12-07T13:02:41.000Z</time>
      </trkpt>
      <trkpt lat="45.88207" lon="4.62966">
        <ele>215.25591</ele>
        <time>2023-12-07T13:02:42.000Z</time>
      </trkpt>
      <trkpt lat="45.88211" lon="4.6296">
        <ele>215.32854</ele>
        <time>2023-12-07T13:02:43.000Z</time>
      </trkpt>
      <trkpt lat="45.88213" lon="4.62954">
        <ele>215.3656</ele>
        <time>2023-12-07T13:02:44.000Z</time>
      </trkpt>
      <trkpt lat="45.88216" lon="4.62949">
        <ele>215.41687</ele>
        <time>2023-12-07T13:02:45.000Z</time>
      </trkpt>
      <trkpt lat="45.8822" lon="4.62944">
        <ele>215.4689</ele>
        <time>2023-12-07T13:02:46.000Z</time>
      </trkpt>
      <trkpt lat="45.88224" lon="4.62938">
        <ele>215.49785</ele>
        <time>2023-12-07T13:02:47.000Z</time>
      </trkpt>
      <trkpt lat="45.88227" lon="4.62933">
        <ele>215.48759</ele>
        <time>2023-12-07T13:02:48.000Z</time>
      </trkpt>
      <trkpt lat="45.88231" lon="4.62928">
        <ele>215.47403</ele>
        <time>2023-12-07T13:02:49.000Z</time>
      </trkpt>
      <trkpt lat="45.88235" lon="4.62923">
        <ele>215.49345</ele>
        <time>2023-12-07T13:02:50.000Z</time>
      </trkpt>
      <trkpt lat="45.88238" lon="4.62918">
        <ele>215.5146</ele>
        <time>2023-12-07T13:02:51.000Z</time>
      </trkpt>
      <trkpt lat="45.88241" lon="4.62913">
        <ele>215.5136</ele>
        <time>2023-12-07T13:02:52.000Z</time>
      </trkpt>
      <trkpt lat="45.88244" lon="4.62909">
        <ele>215.5033</ele>
        <time>2023-12-07T13:02:53.000Z</time>
      </trkpt>
      <trkpt lat="45.88247" lon="4.62905">
        <ele>215.4987</ele>
        <time>2023-12-07T13:02:54.000Z</time>
      </trkpt>
      <trkpt lat="45.8825" lon="4.629">
        <ele>215.48035</ele>
        <time>2023-12-07T13:02:55.000Z</time>
      </trkpt>
      <trkpt lat="45.88252" lon="4.62896">
        <ele>215.42825</ele>
        <time>2023-12-07T13:02:56.000Z</time>
      </trkpt>
      <trkpt lat="45.88255" lon="4.62891">
        <ele>215.37395</ele>
        <time>2023-12-07T13:02:57.000Z</time>
      </trkpt>
      <trkpt lat="45.88258" lon="4.62887">
        <ele>215.28983</ele>
        <time>2023-12-07T13:02:58.000Z</time>
      </trkpt>
      <trkpt lat="45.88261" lon="4.62883">
        <ele>215.19031</ele>
        <time>2023-12-07T13:02:59.000Z</time>
      </trkpt>
      <trkpt lat="45.88263" lon="4.62878">
        <ele>215.09013</ele>
        <time>2023-12-07T13:03:00.000Z</time>
      </trkpt>
      <trkpt lat="45.88265" lon="4.62873">
        <ele>214.9948</ele>
        <time>2023-12-07T13:03:01.000Z</time>
      </trkpt>
      <trkpt lat="45.88266" lon="4.62868">
        <ele>214.90637</ele>
        <time>2023-12-07T13:03:02.000Z</time>
      </trkpt>
      <trkpt lat="45.88266" lon="4.62863">
        <ele>214.8031</ele>
        <time>2023-12-07T13:03:03.000Z</time>
      </trkpt>
      <trkpt lat="45.88264" lon="4.62857">
        <ele>214.72026</ele>
        <time>2023-12-07T13:03:04.000Z</time>
      </trkpt>
      <trkpt lat="45.88262" lon="4.62853">
        <ele>214.57564</ele>
        <time>2023-12-07T13:03:05.000Z</time>
      </trkpt>
      <trkpt lat="45.88258" lon="4.6285">
        <ele>214.41458</ele>
        <time>2023-12-07T13:03:06.000Z</time>
      </trkpt>
      <trkpt lat="45.88255" lon="4.62847">
        <ele>214.27705</ele>
        <time>2023-12-07T13:03:07.000Z</time>
      </trkpt>
      <trkpt lat="45.88251" lon="4.62844">
        <ele>214.09229</ele>
        <time>2023-12-07T13:03:08.000Z</time>
      </trkpt>
      <trkpt lat="45.88248" lon="4.62841">
        <ele>213.91006</ele>
        <time>2023-12-07T13:03:09.000Z</time>
      </trkpt>
      <trkpt lat="45.88245" lon="4.62837">
        <ele>213.67203</ele>
        <time>2023-12-07T13:03:10.000Z</time>
      </trkpt>
      <trkpt lat="45.88243" lon="4.62833">
        <ele>213.4231</ele>
        <time>2023-12-07T13:03:11.000Z</time>
      </trkpt>
      <trkpt lat="45.88242" lon="4.62828">
        <ele>213.22359</ele>
        <time>2023-12-07T13:03:12.000Z</time>
      </trkpt>
      <trkpt lat="45.88242" lon="4.62823">
        <ele>213.05254</ele>
        <time>2023-12-07T13:03:13.000Z</time>
      </trkpt>
      <trkpt lat="45.88242" lon="4.62817">
        <ele>212.8968</ele>
        <time>2023-12-07T13:03:14.000Z</time>
      </trkpt>
      <trkpt lat="45.88243" lon="4.62812">
        <ele>212.77824</ele>
        <time>2023-12-07T13:03:15.000Z</time>
      </trkpt>
      <trkpt lat="45.88243" lon="4.62806">
        <ele>212.72636</ele>
        <time>2023-12-07T13:03:16.000Z</time>
      </trkpt>
      <trkpt lat="45.88244" lon="4.628">
        <ele>212.68155</ele>
        <time>2023-12-07T13:03:17.000Z</time>
      </trkpt>
      <trkpt lat="45.88245" lon="4.62795">
        <ele>212.65012</ele>
        <time>2023-12-07T13:03:18.000Z</time>
      </trkpt>
      <trkpt lat="45.88245" lon="4.62789">
        <ele>212.61482</ele>
        <time>2023-12-07T13:03:19.000Z</time>
      </trkpt>
      <trkpt lat="45.88246" lon="4.62784">
        <ele>212.54082</ele>
        <time>2023-12-07T13:03:20.000Z</time>
      </trkpt>
      <trkpt lat="45.88247" lon="4.62778">
        <ele>212.46721</ele>
        <time>2023-12-07T13:03:21.000Z</time>
      </trkpt>
      <trkpt lat="45.88248" lon="4.62772">
        <ele>212.35391</ele>
        <time>2023-12-07T13:03:22.000Z</time>
      </trkpt>
      <trkpt lat="45.88249" lon="4.62767">
        <ele>212.27795</ele>
        <time>2023-12-07T13:03:23.000Z</time>
      </trkpt>
      <trkpt lat="45.8825" lon="4.62761">
        <ele>212.20918</ele>
        <time>2023-12-07T13:03:24.000Z</time>
      </trkpt>
      <trkpt lat="45.88251" lon="4.62755">
        <ele>212.15854</ele>
        <time>2023-12-07T13:03:25.000Z</time>
      </trkpt>
      <trkpt lat="45.88251" lon="4.62749">
        <ele>212.11052</ele>
        <time>2023-12-07T13:03:26.000Z</time>
      </trkpt>
      <trkpt lat="45.88252" lon="4.62744">
        <ele>212.07137</ele>
        <time>2023-12-07T13:03:27.000Z</time>
      </trkpt>
      <trkpt lat="45.88254" lon="4.62738">
        <ele>212.07388</ele>
        <time>2023-12-07T13:03:28.000Z</time>
      </trkpt>
      <trkpt lat="45.88255" lon="4.62732">
        <ele>212.07597</ele>
        <time>2023-12-07T13:03:29.000Z</time>
      </trkpt>
      <trkpt lat="45.88256" lon="4.62726">
        <ele>212.06589</ele>
        <time>2023-12-07T13:03:30.000Z</time>
      </trkpt>
      <trkpt lat="45.88257" lon="4.6272">
        <ele>212.04048</ele>
        <time>2023-12-07T13:03:31.000Z</time>
      </trkpt>
      <trkpt lat="45.88258" lon="4.62713">
        <ele>211.96494</ele>
        <time>2023-12-07T13:03:32.000Z</time>
      </trkpt>
      <trkpt lat="45.88259" lon="4.62707">
        <ele>211.86491</ele>
        <time>2023-12-07T13:03:33.000Z</time>
      </trkpt>
      <trkpt lat="45.8826" lon="4.62702">
        <ele>211.80928</ele>
        <time>2023-12-07T13:03:34.000Z</time>
      </trkpt>
      <trkpt lat="45.88261" lon="4.62696">
        <ele>211.75082</ele>
        <time>2023-12-07T13:03:35.000Z</time>
      </trkpt>
      <trkpt lat="45.88261" lon="4.6269">
        <ele>211.65573</ele>
        <time>2023-12-07T13:03:36.000Z</time>
      </trkpt>
      <trkpt lat="45.88262" lon="4.62685">
        <ele>211.54538</ele>
        <time>2023-12-07T13:03:37.000Z</time>
      </trkpt>
      <trkpt lat="45.88262" lon="4.62679">
        <ele>211.43584</ele>
        <time>2023-12-07T13:03:38.000Z</time>
      </trkpt>
      <trkpt lat="45.88263" lon="4.62673">
        <ele>211.34363</ele>
        <time>2023-12-07T13:03:39.000Z</time>
      </trkpt>
      <trkpt lat="45.88263" lon="4.62668">
        <ele>211.2946</ele>
        <time>2023-12-07T13:03:40.000Z</time>
      </trkpt>
      <trkpt lat="45.88264" lon="4.62662">
        <ele>211.26509</ele>
        <time>2023-12-07T13:03:41.000Z</time>
      </trkpt>
      <trkpt lat="45.88265" lon="4.62657">
        <ele>211.23685</ele>
        <time>2023-12-07T13:03:42.000Z</time>
      </trkpt>
      <trkpt lat="45.88266" lon="4.62651">
        <ele>211.2021</ele>
        <time>2023-12-07T13:03:43.000Z</time>
      </trkpt>
      <trkpt lat="45.88267" lon="4.62646">
        <ele>211.15681</ele>
        <time>2023-12-07T13:03:44.000Z</time>
      </trkpt>
      <trkpt lat="45.88268" lon="4.6264">
        <ele>211.1326</ele>
        <time>2023-12-07T13:03:45.000Z</time>
      </trkpt>
      <trkpt lat="45.88269" lon="4.62635">
        <ele>211.13406</ele>
        <time>2023-12-07T13:03:46.000Z</time>
      </trkpt>
      <trkpt lat="45.8827" lon="4.62629">
        <ele>211.11894</ele>
        <time>2023-12-07T13:03:47.000Z</time>
      </trkpt>
      <trkpt lat="45.88271" lon="4.62624">
        <ele>211.13803</ele>
        <time>2023-12-07T13:03:48.000Z</time>
      </trkpt>
      <trkpt lat="45.88272" lon="4.62618">
        <ele>211.19431</ele>
        <time>2023-12-07T13:03:49.000Z</time>
      </trkpt>
      <trkpt lat="45.88273" lon="4.62613">
        <ele>211.26633</ele>
        <time>2023-12-07T13:03:50.000Z</time>
      </trkpt>
      <trkpt lat="45.88274" lon="4.62607">
        <ele>211.35791</ele>
        <time>2023-12-07T13:03:51.000Z</time>
      </trkpt>
      <trkpt lat="45.88276" lon="4.62602">
        <ele>211.4753</ele>
        <time>2023-12-07T13:03:52.000Z</time>
      </trkpt>
      <trkpt lat="45.88278" lon="4.62596">
        <ele>211.62126</ele>
        <time>2023-12-07T13:03:53.000Z</time>
      </trkpt>
      <trkpt lat="45.88279" lon="4.62591">
        <ele>211.7373</ele>
        <time>2023-12-07T13:03:54.000Z</time>
      </trkpt>
      <trkpt lat="45.88281" lon="4.62586">
        <ele>211.8519</ele>
        <time>2023-12-07T13:03:55.000Z</time>
      </trkpt>
      <trkpt lat="45.88282" lon="4.6258">
        <ele>211.98466</ele>
        <time>2023-12-07T13:03:56.000Z</time>
      </trkpt>
      <trkpt lat="45.88283" lon="4.62575">
        <ele>212.13943</ele>
        <time>2023-12-07T13:03:57.000Z</time>
      </trkpt>
      <trkpt lat="45.88284" lon="4.62569">
        <ele>212.29204</ele>
        <time>2023-12-07T13:03:58.000Z</time>
      </trkpt>
      <trkpt lat="45.88286" lon="4.62563">
        <ele>212.4545</ele>
        <time>2023-12-07T13:03:59.000Z</time>
      </trkpt>
      <trkpt lat="45.88287" lon="4.62558">
        <ele>212.60909</ele>
        <time>2023-12-07T13:04:00.000Z</time>
      </trkpt>
      <trkpt lat="45.88288" lon="4.62552">
        <ele>212.74435</ele>
        <time>2023-12-07T13:04:01.000Z</time>
      </trkpt>
      <trkpt lat="45.8829" lon="4.62547">
        <ele>212.89519</ele>
        <time>2023-12-07T13:04:02.000Z</time>
      </trkpt>
      <trkpt lat="45.88291" lon="4.62541">
        <ele>213.06235</ele>
        <time>2023-12-07T13:04:03.000Z</time>
      </trkpt>
      <trkpt lat="45.88293" lon="4.62535">
        <ele>213.24704</ele>
        <time>2023-12-07T13:04:04.000Z</time>
      </trkpt>
      <trkpt lat="45.88295" lon="4.6253">
        <ele>213.45755</ele>
        <time>2023-12-07T13:04:05.000Z</time>
      </trkpt>
      <trkpt lat="45.88296" lon="4.62524">
        <ele>213.65891</ele>
        <time>2023-12-07T13:04:06.000Z</time>
      </trkpt>
      <trkpt lat="45.88298" lon="4.62518">
        <ele>213.87308</ele>
        <time>2023-12-07T13:04:07.000Z</time>
      </trkpt>
      <trkpt lat="45.88299" lon="4.62512">
        <ele>214.05844</ele>
        <time>2023-12-07T13:04:08.000Z</time>
      </trkpt>
      <trkpt lat="45.88301" lon="4.62507">
        <ele>214.2094</ele>
        <time>2023-12-07T13:04:09.000Z</time>
      </trkpt>
      <trkpt lat="45.88302" lon="4.62501">
        <ele>214.37456</ele>
        <time>2023-12-07T13:04:10.000Z</time>
      </trkpt>
      <trkpt lat="45.88304" lon="4.62495">
        <ele>214.53401</ele>
        <time>2023-12-07T13:04:11.000Z</time>
      </trkpt>
      <trkpt lat="45.88306" lon="4.6249">
        <ele>214.70154</ele>
        <time>2023-12-07T13:04:12.000Z</time>
      </trkpt>
      <trkpt lat="45.88308" lon="4.62485">
        <ele>214.84444</ele>
        <time>2023-12-07T13:04:13.000Z</time>
      </trkpt>
      <trkpt lat="45.88309" lon="4.6248">
        <ele>214.95975</ele>
        <time>2023-12-07T13:04:14.000Z</time>
      </trkpt>
      <trkpt lat="45.88311" lon="4.62474">
        <ele>215.06787</ele>
        <time>2023-12-07T13:04:15.000Z</time>
      </trkpt>
      <trkpt lat="45.88313" lon="4.62468">
        <ele>215.12776</ele>
        <time>2023-12-07T13:04:16.000Z</time>
      </trkpt>
      <trkpt lat="45.88314" lon="4.62462">
        <ele>215.15881</ele>
        <time>2023-12-07T13:04:17.000Z</time>
      </trkpt>
      <trkpt lat="45.88316" lon="4.62455">
        <ele>215.19885</ele>
        <time>2023-12-07T13:04:18.000Z</time>
      </trkpt>
      <trkpt lat="45.88318" lon="4.6245">
        <ele>215.23389</ele>
        <time>2023-12-07T13:04:19.000Z</time>
      </trkpt>
      <trkpt lat="45.8832" lon="4.62444">
        <ele>215.27571</ele>
        <time>2023-12-07T13:04:20.000Z</time>
      </trkpt>
      <trkpt lat="45.88321" lon="4.62438">
        <ele>215.32434</ele>
        <time>2023-12-07T13:04:21.000Z</time>
      </trkpt>
      <trkpt lat="45.88322" lon="4.62432">
        <ele>215.3663</ele>
        <time>2023-12-07T13:04:22.000Z</time>
      </trkpt>
      <trkpt lat="45.88324" lon="4.62425">
        <ele>215.38301</ele>
        <time>2023-12-07T13:04:23.000Z</time>
      </trkpt>
      <trkpt lat="45.88325" lon="4.62419">
        <ele>215.392</ele>
        <time>2023-12-07T13:04:24.000Z</time>
      </trkpt>
      <trkpt lat="45.88327" lon="4.62413">
        <ele>215.39511</ele>
        <time>2023-12-07T13:04:25.000Z</time>
      </trkpt>
      <trkpt lat="45.88329" lon="4.62408">
        <ele>215.36577</ele>
        <time>2023-12-07T13:04:26.000Z</time>
      </trkpt>
      <trkpt lat="45.88331" lon="4.62402">
        <ele>215.31677</ele>
        <time>2023-12-07T13:04:27.000Z</time>
      </trkpt>
      <trkpt lat="45.88332" lon="4.62396">
        <ele>215.27242</ele>
        <time>2023-12-07T13:04:28.000Z</time>
      </trkpt>
      <trkpt lat="45.88334" lon="4.6239">
        <ele>215.22888</ele>
        <time>2023-12-07T13:04:29.000Z</time>
      </trkpt>
      <trkpt lat="45.88335" lon="4.62383">
        <ele>215.17422</ele>
        <time>2023-12-07T13:04:30.000Z</time>
      </trkpt>
      <trkpt lat="45.88336" lon="4.62378">
        <ele>215.1274</ele>
        <time>2023-12-07T13:04:31.000Z</time>
      </trkpt>
      <trkpt lat="45.88337" lon="4.62372">
        <ele>215.06389</ele>
        <time>2023-12-07T13:04:32.000Z</time>
      </trkpt>
      <trkpt lat="45.88339" lon="4.62366">
        <ele>214.98526</ele>
        <time>2023-12-07T13:04:33.000Z</time>
      </trkpt>
      <trkpt lat="45.8834" lon="4.6236">
        <ele>214.93124</ele>
        <time>2023-12-07T13:04:34.000Z</time>
      </trkpt>
      <trkpt lat="45.88342" lon="4.62355">
        <ele>214.88506</ele>
        <time>2023-12-07T13:04:35.000Z</time>
      </trkpt>
      <trkpt lat="45.88344" lon="4.62349">
        <ele>214.90988</ele>
        <time>2023-12-07T13:04:36.000Z</time>
      </trkpt>
      <trkpt lat="45.88345" lon="4.62344">
        <ele>214.95676</ele>
        <time>2023-12-07T13:04:37.000Z</time>
      </trkpt>
      <trkpt lat="45.88346" lon="4.62338">
        <ele>214.97566</ele>
        <time>2023-12-07T13:04:38.000Z</time>
      </trkpt>
      <trkpt lat="45.88347" lon="4.62332">
        <ele>214.97978</ele>
        <time>2023-12-07T13:04:39.000Z</time>
      </trkpt>
      <trkpt lat="45.88348" lon="4.62327">
        <ele>214.9841</ele>
        <time>2023-12-07T13:04:40.000Z</time>
      </trkpt>
      <trkpt lat="45.8835" lon="4.62321">
        <ele>214.99448</ele>
        <time>2023-12-07T13:04:41.000Z</time>
      </trkpt>
      <trkpt lat="45.88351" lon="4.62315">
        <ele>214.9958</ele>
        <time>2023-12-07T13:04:42.000Z</time>
      </trkpt>
      <trkpt lat="45.88352" lon="4.62309">
        <ele>215.02002</ele>
        <time>2023-12-07T13:04:43.000Z</time>
      </trkpt>
      <trkpt lat="45.88354" lon="4.62303">
        <ele>215.04373</ele>
        <time>2023-12-07T13:04:44.000Z</time>
      </trkpt>
      <trkpt lat="45.88355" lon="4.62298">
        <ele>215.05081</ele>
        <time>2023-12-07T13:04:45.000Z</time>
      </trkpt>
      <trkpt lat="45.88357" lon="4.62291">
        <ele>215.08994</ele>
        <time>2023-12-07T13:04:46.000Z</time>
      </trkpt>
      <trkpt lat="45.88358" lon="4.62286">
        <ele>215.13004</ele>
        <time>2023-12-07T13:04:47.000Z</time>
      </trkpt>
      <trkpt lat="45.8836" lon="4.6228">
        <ele>215.16809</ele>
        <time>2023-12-07T13:04:48.000Z</time>
      </trkpt>
      <trkpt lat="45.88363" lon="4.62274">
        <ele>215.17595</ele>
        <time>2023-12-07T13:04:49.000Z</time>
      </trkpt>
      <trkpt lat="45.88365" lon="4.62268">
        <ele>215.16782</ele>
        <time>2023-12-07T13:04:50.000Z</time>
      </trkpt>
      <trkpt lat="45.88366" lon="4.62263">
        <ele>215.14014</ele>
        <time>2023-12-07T13:04:51.000Z</time>
      </trkpt>
      <trkpt lat="45.88367" lon="4.62257">
        <ele>215.11812</ele>
        <time>2023-12-07T13:04:52.000Z</time>
      </trkpt>
      <trkpt lat="45.88368" lon="4.62251">
        <ele>215.1095</ele>
        <time>2023-12-07T13:04:53.000Z</time>
      </trkpt>
      <trkpt lat="45.88368" lon="4.62246">
        <ele>215.09045</ele>
        <time>2023-12-07T13:04:54.000Z</time>
      </trkpt>
      <trkpt lat="45.88369" lon="4.6224">
        <ele>215.07083</ele>
        <time>2023-12-07T13:04:55.000Z</time>
      </trkpt>
      <trkpt lat="45.88371" lon="4.62235">
        <ele>215.01997</ele>
        <time>2023-12-07T13:04:56.000Z</time>
      </trkpt>
      <trkpt lat="45.88372" lon="4.6223">
        <ele>214.9753</ele>
        <time>2023-12-07T13:04:57.000Z</time>
      </trkpt>
      <trkpt lat="45.88373" lon="4.62224">
        <ele>214.96072</ele>
        <time>2023-12-07T13:04:58.000Z</time>
      </trkpt>
      <trkpt lat="45.88375" lon="4.62219">
        <ele>214.95248</ele>
        <time>2023-12-07T13:04:59.000Z</time>
      </trkpt>
      <trkpt lat="45.88377" lon="4.62213">
        <ele>214.93033</ele>
        <time>2023-12-07T13:05:00.000Z</time>
      </trkpt>
      <trkpt lat="45.88378" lon="4.62208">
        <ele>214.89876</ele>
        <time>2023-12-07T13:05:01.000Z</time>
      </trkpt>
      <trkpt lat="45.8838" lon="4.62202">
        <ele>214.87119</ele>
        <time>2023-12-07T13:05:02.000Z</time>
      </trkpt>
      <trkpt lat="45.88381" lon="4.62197">
        <ele>214.84688</ele>
        <time>2023-12-07T13:05:03.000Z</time>
      </trkpt>
      <trkpt lat="45.88382" lon="4.62192">
        <ele>214.82759</ele>
        <time>2023-12-07T13:05:04.000Z</time>
      </trkpt>
      <trkpt lat="45.88384" lon="4.62187">
        <ele>214.80534</ele>
        <time>2023-12-07T13:05:05.000Z</time>
      </trkpt>
      <trkpt lat="45.88385" lon="4.62182">
        <ele>214.7653</ele>
        <time>2023-12-07T13:05:06.000Z</time>
      </trkpt>
      <trkpt lat="45.88386" lon="4.62176">
        <ele>214.71468</ele>
        <time>2023-12-07T13:05:07.000Z</time>
      </trkpt>
      <trkpt lat="45.88387" lon="4.62171">
        <ele>214.63618</ele>
        <time>2023-12-07T13:05:08.000Z</time>
      </trkpt>
      <trkpt lat="45.88388" lon="4.62165">
        <ele>214.5845</ele>
        <time>2023-12-07T13:05:09.000Z</time>
      </trkpt>
      <trkpt lat="45.88389" lon="4.6216">
        <ele>214.56599</ele>
        <time>2023-12-07T13:05:10.000Z</time>
      </trkpt>
      <trkpt lat="45.88389" lon="4.62154">
        <ele>214.55966</ele>
        <time>2023-12-07T13:05:11.000Z</time>
      </trkpt>
      <trkpt lat="45.88391" lon="4.62147">
        <ele>214.52446</ele>
        <time>2023-12-07T13:05:12.000Z</time>
      </trkpt>
      <trkpt lat="45.88393" lon="4.62142">
        <ele>214.49011</ele>
        <time>2023-12-07T13:05:13.000Z</time>
      </trkpt>
      <trkpt lat="45.88394" lon="4.62138">
        <ele>214.48572</ele>
        <time>2023-12-07T13:05:14.000Z</time>
      </trkpt>
      <trkpt lat="45.88396" lon="4.62133">
        <ele>214.48788</ele>
        <time>2023-12-07T13:05:15.000Z</time>
      </trkpt>
      <trkpt lat="45.88397" lon="4.6213">
        <ele>214.46016</ele>
        <time>2023-12-07T13:05:16.000Z</time>
      </trkpt>
      <trkpt lat="45.88398" lon="4.62126">
        <ele>214.42473</ele>
        <time>2023-12-07T13:05:17.000Z</time>
      </trkpt>
      <trkpt lat="45.884" lon="4.62122">
        <ele>214.37886</ele>
        <time>2023-12-07T13:05:18.000Z</time>
      </trkpt>
      <trkpt lat="45.88402" lon="4.62119">
        <ele>214.33093</ele>
        <time>2023-12-07T13:05:19.000Z</time>
      </trkpt>
      <trkpt lat="45.88404" lon="4.62115">
        <ele>214.29839</ele>
        <time>2023-12-07T13:05:20.000Z</time>
      </trkpt>
      <trkpt lat="45.88407" lon="4.62111">
        <ele>214.28377</ele>
        <time>2023-12-07T13:05:21.000Z</time>
      </trkpt>
      <trkpt lat="45.8841" lon="4.62109">
        <ele>214.2791</ele>
        <time>2023-12-07T13:05:22.000Z</time>
      </trkpt>
      <trkpt lat="45.88413" lon="4.62106">
        <ele>214.24532</ele>
        <time>2023-12-07T13:05:23.000Z</time>
      </trkpt>
      <trkpt lat="45.88416" lon="4.62104">
        <ele>214.20808</ele>
        <time>2023-12-07T13:05:24.000Z</time>
      </trkpt>
      <trkpt lat="45.88419" lon="4.62102">
        <ele>214.18112</ele>
        <time>2023-12-07T13:05:25.000Z</time>
      </trkpt>
      <trkpt lat="45.8842" lon="4.62101">
        <ele>214.17929</ele>
        <time>2023-12-07T13:05:26.000Z</time>
      </trkpt>
      <trkpt lat="45.88422" lon="4.62101">
        <ele>214.20625</ele>
        <time>2023-12-07T13:05:28.000Z</time>
      </trkpt>
      <trkpt lat="45.88424" lon="4.62102">
        <ele>214.23503</ele>
        <time>2023-12-07T13:05:32.000Z</time>
      </trkpt>
      <trkpt lat="45.88426" lon="4.62103">
        <ele>214.22348</ele>
        <time>2023-12-07T13:05:36.000Z</time>
      </trkpt>
      <trkpt lat="45.88426" lon="4.62101">
        <ele>214.19006</ele>
        <time>2023-12-07T13:10:47.000Z</time>
      </trkpt>
      <trkpt lat="45.88428" lon="4.62099">
        <ele>214.17163</ele>
        <time>2023-12-07T13:10:48.000Z</time>
      </trkpt>
      <trkpt lat="45.88429" lon="4.62096">
        <ele>214.16768</ele>
        <time>2023-12-07T13:10:49.000Z</time>
      </trkpt>
      <trkpt lat="45.88431" lon="4.62094">
        <ele>214.17761</ele>
        <time>2023-12-07T13:10:50.000Z</time>
      </trkpt>
      <trkpt lat="45.88434" lon="4.62092">
        <ele>214.18169</ele>
        <time>2023-12-07T13:10:51.000Z</time>
      </trkpt>
      <trkpt lat="45.88436" lon="4.62089">
        <ele>214.19547</ele>
        <time>2023-12-07T13:10:52.000Z</time>
      </trkpt>
      <trkpt lat="45.88438" lon="4.62087">
        <ele>214.24197</ele>
        <time>2023-12-07T13:10:53.000Z</time>
      </trkpt>
      <trkpt lat="45.8844" lon="4.62085">
        <ele>214.2825</ele>
        <time>2023-12-07T13:10:54.000Z</time>
      </trkpt>
      <trkpt lat="45.88443" lon="4.62083">
        <ele>214.32999</ele>
        <time>2023-12-07T13:10:55.000Z</time>
      </trkpt>
      <trkpt lat="45.88445" lon="4.6208">
        <ele>214.38347</ele>
        <time>2023-12-07T13:10:56.000Z</time>
      </trkpt>
      <trkpt lat="45.88447" lon="4.62077">
        <ele>214.47774</ele>
        <time>2023-12-07T13:10:57.000Z</time>
      </trkpt>
      <trkpt lat="45.88449" lon="4.62074">
        <ele>214.57693</ele>
        <time>2023-12-07T13:10:58.000Z</time>
      </trkpt>
      <trkpt lat="45.88452" lon="4.62071">
        <ele>214.67514</ele>
        <time>2023-12-07T13:10:59.000Z</time>
      </trkpt>
      <trkpt lat="45.88454" lon="4.62068">
        <ele>214.78362</ele>
        <time>2023-12-07T13:11:00.000Z</time>
      </trkpt>
      <trkpt lat="45.88457" lon="4.62065">
        <ele>214.90518</ele>
        <time>2023-12-07T13:11:01.000Z</time>
      </trkpt>
      <trkpt lat="45.88459" lon="4.62063">
        <ele>215.01331</ele>
        <time>2023-12-07T13:11:02.000Z</time>
      </trkpt>
      <trkpt lat="45.88462" lon="4.6206">
        <ele>215.11673</ele>
        <time>2023-12-07T13:11:03.000Z</time>
      </trkpt>
      <trkpt lat="45.88465" lon="4.62057">
        <ele>215.21219</ele>
        <time>2023-12-07T13:11:04.000Z</time>
      </trkpt>
      <trkpt lat="45.88467" lon="4.62054">
        <ele>215.33247</ele>
        <time>2023-12-07T13:11:05.000Z</time>
      </trkpt>
      <trkpt lat="45.8847" lon="4.62051">
        <ele>215.50334</ele>
        <time>2023-12-07T13:11:06.000Z</time>
      </trkpt>
      <trkpt lat="45.88472" lon="4.62049">
        <ele>215.64494</ele>
        <time>2023-12-07T13:11:07.000Z</time>
      </trkpt>
      <trkpt lat="45.88474" lon="4.62047">
        <ele>215.76582</ele>
        <time>2023-12-07T13:11:08.000Z</time>
      </trkpt>
      <trkpt lat="45.88477" lon="4.62045">
        <ele>215.90327</ele>
        <time>2023-12-07T13:11:09.000Z</time>
      </trkpt>
      <trkpt lat="45.88479" lon="4.62043">
        <ele>216.04167</ele>
        <time>2023-12-07T13:11:10.000Z</time>
      </trkpt>
      <trkpt lat="45.88481" lon="4.62041">
        <ele>216.17822</ele>
        <time>2023-12-07T13:11:11.000Z</time>
      </trkpt>
      <trkpt lat="45.88482" lon="4.62039">
        <ele>216.28259</ele>
        <time>2023-12-07T13:11:12.000Z</time>
      </trkpt>
      <trkpt lat="45.88483" lon="4.62037">
        <ele>216.37634</ele>
        <time>2023-12-07T13:11:13.000Z</time>
      </trkpt>
      <trkpt lat="45.88484" lon="4.62035">
        <ele>216.45515</ele>
        <time>2023-12-07T13:11:14.000Z</time>
      </trkpt>
      <trkpt lat="45.88485" lon="4.62032">
        <ele>216.52368</ele>
        <time>2023-12-07T13:11:15.000Z</time>
      </trkpt>
      <trkpt lat="45.88486" lon="4.6203">
        <ele>216.58646</ele>
        <time>2023-12-07T13:11:16.000Z</time>
      </trkpt>
      <trkpt lat="45.88488" lon="4.62031">
        <ele>216.68936</ele>
        <time>2023-12-07T13:11:25.000Z</time>
      </trkpt>
      <trkpt lat="45.8849" lon="4.62027">
        <ele>216.79465</ele>
        <time>2023-12-07T13:11:46.000Z</time>
      </trkpt>
      <trkpt lat="45.8849" lon="4.62024">
        <ele>216.90274</ele>
        <time>2023-12-07T13:11:47.000Z</time>
      </trkpt>
      <trkpt lat="45.88489" lon="4.62021">
        <ele>217.01485</ele>
        <time>2023-12-07T13:11:48.000Z</time>
      </trkpt>
      <trkpt lat="45.88487" lon="4.62018">
        <ele>217.10501</ele>
        <time>2023-12-07T13:11:49.000Z</time>
      </trkpt>
      <trkpt lat="45.88484" lon="4.62016">
        <ele>217.1937</ele>
        <time>2023-12-07T13:11:50.000Z</time>
      </trkpt>
      <trkpt lat="45.88481" lon="4.62014">
        <ele>217.26909</ele>
        <time>2023-12-07T13:11:51.000Z</time>
      </trkpt>
      <trkpt lat="45.88478" lon="4.62011">
        <ele>217.35379</ele>
        <time>2023-12-07T13:11:52.000Z</time>
      </trkpt>
      <trkpt lat="45.88475" lon="4.62009">
        <ele>217.42281</ele>
        <time>2023-12-07T13:11:53.000Z</time>
      </trkpt>
      <trkpt lat="45.88472" lon="4.62006">
        <ele>217.47713</ele>
        <time>2023-12-07T13:11:54.000Z</time>
      </trkpt>
      <trkpt lat="45.88469" lon="4.62004">
        <ele>217.55881</ele>
        <time>2023-12-07T13:11:55.000Z</time>
      </trkpt>
      <trkpt lat="45.88466" lon="4.62002">
        <ele>217.65366</ele>
        <time>2023-12-07T13:11:56.000Z</time>
      </trkpt>
      <trkpt lat="45.88463" lon="4.61999">
        <ele>217.72415</ele>
        <time>2023-12-07T13:11:57.000Z</time>
      </trkpt>
      <trkpt lat="45.88459" lon="4.61996">
        <ele>217.77116</ele>
        <time>2023-12-07T13:11:58.000Z</time>
      </trkpt>
      <trkpt lat="45.88456" lon="4.61993">
        <ele>217.82114</ele>
        <time>2023-12-07T13:11:59.000Z</time>
      </trkpt>
      <trkpt lat="45.88452" lon="4.6199">
        <ele>217.90457</ele>
        <time>2023-12-07T13:12:00.000Z</time>
      </trkpt>
      <trkpt lat="45.88448" lon="4.61987">
        <ele>217.98819</ele>
        <time>2023-12-07T13:12:01.000Z</time>
      </trkpt>
      <trkpt lat="45.88445" lon="4.61983">
        <ele>218.12061</ele>
        <time>2023-12-07T13:12:02.000Z</time>
      </trkpt>
      <trkpt lat="45.88442" lon="4.6198">
        <ele>218.22964</ele>
        <time>2023-12-07T13:12:03.000Z</time>
      </trkpt>
      <trkpt lat="45.88438" lon="4.61977">
        <ele>218.34331</ele>
        <time>2023-12-07T13:12:04.000Z</time>
      </trkpt>
      <trkpt lat="45.88435" lon="4.61974">
        <ele>218.36954</ele>
        <time>2023-12-07T13:12:05.000Z</time>
      </trkpt>
      <trkpt lat="45.88432" lon="4.61971">
        <ele>218.38797</ele>
        <time>2023-12-07T13:12:06.000Z</time>
      </trkpt>
      <trkpt lat="45.88429" lon="4.61968">
        <ele>218.40451</ele>
        <time>2023-12-07T13:12:07.000Z</time>
      </trkpt>
      <trkpt lat="45.88425" lon="4.61964">
        <ele>218.45964</ele>
        <time>2023-12-07T13:12:08.000Z</time>
      </trkpt>
      <trkpt lat="45.88422" lon="4.61961">
        <ele>218.51559</ele>
        <time>2023-12-07T13:12:09.000Z</time>
      </trkpt>
      <trkpt lat="45.88418" lon="4.61958">
        <ele>218.57101</ele>
        <time>2023-12-07T13:12:10.000Z</time>
      </trkpt>
      <trkpt lat="45.88415" lon="4.61955">
        <ele>218.63</ele>
        <time>2023-12-07T13:12:11.000Z</time>
      </trkpt>
      <trkpt lat="45.88411" lon="4.61952">
        <ele>218.68327</ele>
        <time>2023-12-07T13:12:12.000Z</time>
      </trkpt>
      <trkpt lat="45.88407" lon="4.6195">
        <ele>218.75098</ele>
        <time>2023-12-07T13:12:13.000Z</time>
      </trkpt>
      <trkpt lat="45.88404" lon="4.61948">
        <ele>218.81575</ele>
        <time>2023-12-07T13:12:14.000Z</time>
      </trkpt>
      <trkpt lat="45.884" lon="4.61946">
        <ele>218.91263</ele>
        <time>2023-12-07T13:12:15.000Z</time>
      </trkpt>
      <trkpt lat="45.88397" lon="4.61945">
        <ele>218.98624</ele>
        <time>2023-12-07T13:12:16.000Z</time>
      </trkpt>
      <trkpt lat="45.88394" lon="4.61942">
        <ele>219.0463</ele>
        <time>2023-12-07T13:12:17.000Z</time>
      </trkpt>
      <trkpt lat="45.88393" lon="4.61939">
        <ele>219.12097</ele>
        <time>2023-12-07T13:12:19.000Z</time>
      </trkpt>
      <trkpt lat="45.8839" lon="4.61941">
        <ele>219.20374</ele>
        <time>2023-12-07T13:12:21.000Z</time>
      </trkpt>
      <trkpt lat="45.88387" lon="4.61944">
        <ele>219.26607</ele>
        <time>2023-12-07T13:12:23.000Z</time>
      </trkpt>
      <trkpt lat="45.88385" lon="4.61944">
        <ele>219.33276</ele>
        <time>2023-12-07T13:12:24.000Z</time>
      </trkpt>
      <trkpt lat="45.88382" lon="4.61944">
        <ele>219.36894</ele>
        <time>2023-12-07T13:12:25.000Z</time>
      </trkpt>
      <trkpt lat="45.8838" lon="4.61943">
        <ele>219.41187</ele>
        <time>2023-12-07T13:12:26.000Z</time>
      </trkpt>
      <trkpt lat="45.88377" lon="4.61942">
        <ele>219.46945</ele>
        <time>2023-12-07T13:12:27.000Z</time>
      </trkpt>
      <trkpt lat="45.88374" lon="4.61942">
        <ele>219.5052</ele>
        <time>2023-12-07T13:12:28.000Z</time>
      </trkpt>
      <trkpt lat="45.88371" lon="4.61941">
        <ele>219.53439</ele>
        <time>2023-12-07T13:12:29.000Z</time>
      </trkpt>
      <trkpt lat="45.88367" lon="4.61941">
        <ele>219.55167</ele>
        <time>2023-12-07T13:12:30.000Z</time>
      </trkpt>
      <trkpt lat="45.88364" lon="4.6194">
        <ele>219.54082</ele>
        <time>2023-12-07T13:12:31.000Z</time>
      </trkpt>
      <trkpt lat="45.8836" lon="4.61939">
        <ele>219.54434</ele>
        <time>2023-12-07T13:12:32.000Z</time>
      </trkpt>
      <trkpt lat="45.88357" lon="4.61938">
        <ele>219.56265</ele>
        <time>2023-12-07T13:12:33.000Z</time>
      </trkpt>
      <trkpt lat="45.88354" lon="4.61937">
        <ele>219.58102</ele>
        <time>2023-12-07T13:12:34.000Z</time>
      </trkpt>
      <trkpt lat="45.88351" lon="4.61935">
        <ele>219.57285</ele>
        <time>2023-12-07T13:12:35.000Z</time>
      </trkpt>
      <trkpt lat="45.88348" lon="4.61934">
        <ele>219.56401</ele>
        <time>2023-12-07T13:12:36.000Z</time>
      </trkpt>
      <trkpt lat="45.88346" lon="4.61933">
        <ele>219.55515</ele>
        <time>2023-12-07T13:12:37.000Z</time>
      </trkpt>
      <trkpt lat="45.88344" lon="4.61931">
        <ele>219.50822</ele>
        <time>2023-12-07T13:12:38.000Z</time>
      </trkpt>
      <trkpt lat="45.88342" lon="4.61929">
        <ele>219.54187</ele>
        <time>2023-12-07T13:12:39.000Z</time>
      </trkpt>
      <trkpt lat="45.88341" lon="4.61926">
        <ele>219.55733</ele>
        <time>2023-12-07T13:12:40.000Z</time>
      </trkpt>
      <trkpt lat="45.8834" lon="4.61922">
        <ele>219.56172</ele>
        <time>2023-12-07T13:12:41.000Z</time>
      </trkpt>
      <trkpt lat="45.8834" lon="4.61917">
        <ele>219.53589</ele>
        <time>2023-12-07T13:12:42.000Z</time>
      </trkpt>
      <trkpt lat="45.8834" lon="4.61913">
        <ele>219.51807</ele>
        <time>2023-12-07T13:12:43.000Z</time>
      </trkpt>
      <trkpt lat="45.88341" lon="4.61908">
        <ele>219.51843</ele>
        <time>2023-12-07T13:12:44.000Z</time>
      </trkpt>
      <trkpt lat="45.88343" lon="4.61902">
        <ele>219.48389</ele>
        <time>2023-12-07T13:12:45.000Z</time>
      </trkpt>
      <trkpt lat="45.88344" lon="4.61896">
        <ele>219.4794</ele>
        <time>2023-12-07T13:12:46.000Z</time>
      </trkpt>
      <trkpt lat="45.88346" lon="4.61888">
        <ele>219.42021</ele>
        <time>2023-12-07T13:12:47.000Z</time>
      </trkpt>
      <trkpt lat="45.88347" lon="4.61882">
        <ele>219.41899</ele>
        <time>2023-12-07T13:12:48.000Z</time>
      </trkpt>
      <trkpt lat="45.88348" lon="4.61876">
        <ele>219.43579</ele>
        <time>2023-12-07T13:12:49.000Z</time>
      </trkpt>
      <trkpt lat="45.88349" lon="4.6187">
        <ele>219.46394</ele>
        <time>2023-12-07T13:12:50.000Z</time>
      </trkpt>
      <trkpt lat="45.8835" lon="4.61864">
        <ele>219.46346</ele>
        <time>2023-12-07T13:12:51.000Z</time>
      </trkpt>
      <trkpt lat="45.88351" lon="4.61858">
        <ele>219.472</ele>
        <time>2023-12-07T13:12:52.000Z</time>
      </trkpt>
      <trkpt lat="45.88351" lon="4.61853">
        <ele>219.47021</ele>
        <time>2023-12-07T13:12:53.000Z</time>
      </trkpt>
      <trkpt lat="45.88352" lon="4.61848">
        <ele>219.48315</ele>
        <time>2023-12-07T13:12:54.000Z</time>
      </trkpt>
      <trkpt lat="45.88353" lon="4.61842">
        <ele>219.52356</ele>
        <time>2023-12-07T13:12:55.000Z</time>
      </trkpt>
      <trkpt lat="45.88355" lon="4.61835">
        <ele>219.55069</ele>
        <time>2023-12-07T13:12:56.000Z</time>
      </trkpt>
      <trkpt lat="45.88356" lon="4.6183">
        <ele>219.57268</ele>
        <time>2023-12-07T13:12:57.000Z</time>
      </trkpt>
      <trkpt lat="45.88357" lon="4.61823">
        <ele>219.58757</ele>
        <time>2023-12-07T13:12:58.000Z</time>
      </trkpt>
      <trkpt lat="45.88358" lon="4.61817">
        <ele>219.54964</ele>
        <time>2023-12-07T13:12:59.000Z</time>
      </trkpt>
      <trkpt lat="45.8836" lon="4.61812">
        <ele>219.58846</ele>
        <time>2023-12-07T13:13:00.000Z</time>
      </trkpt>
      <trkpt lat="45.88361" lon="4.61807">
        <ele>219.6324</ele>
        <time>2023-12-07T13:13:01.000Z</time>
      </trkpt>
      <trkpt lat="45.88364" lon="4.61801">
        <ele>219.66541</ele>
        <time>2023-12-07T13:13:02.000Z</time>
      </trkpt>
      <trkpt lat="45.88366" lon="4.61796">
        <ele>219.67793</ele>
        <time>2023-12-07T13:13:03.000Z</time>
      </trkpt>
      <trkpt lat="45.88368" lon="4.6179">
        <ele>219.67912</ele>
        <time>2023-12-07T13:13:04.000Z</time>
      </trkpt>
      <trkpt lat="45.8837" lon="4.61785">
        <ele>219.68558</ele>
        <time>2023-12-07T13:13:05.000Z</time>
      </trkpt>
      <trkpt lat="45.88373" lon="4.61776">
        <ele>219.71396</ele>
        <time>2023-12-07T13:13:06.000Z</time>
      </trkpt>
      <trkpt lat="45.88374" lon="4.61769">
        <ele>219.81123</ele>
        <time>2023-12-07T13:13:07.000Z</time>
      </trkpt>
      <trkpt lat="45.88376" lon="4.61762">
        <ele>219.84721</ele>
        <time>2023-12-07T13:13:08.000Z</time>
      </trkpt>
      <trkpt lat="45.88376" lon="4.61756">
        <ele>219.88533</ele>
        <time>2023-12-07T13:13:09.000Z</time>
      </trkpt>
      <trkpt lat="45.88377" lon="4.6175">
        <ele>219.92392</ele>
        <time>2023-12-07T13:13:10.000Z</time>
      </trkpt>
      <trkpt lat="45.8838" lon="4.61744">
        <ele>219.99492</ele>
        <time>2023-12-07T13:13:11.000Z</time>
      </trkpt>
      <trkpt lat="45.88383" lon="4.61737">
        <ele>220.00781</ele>
        <time>2023-12-07T13:13:12.000Z</time>
      </trkpt>
      <trkpt lat="45.88384" lon="4.61729">
        <ele>220.03508</ele>
        <time>2023-12-07T13:13:13.000Z</time>
      </trkpt>
      <trkpt lat="45.88387" lon="4.61723">
        <ele>220.06123</ele>
        <time>2023-12-07T13:13:14.000Z</time>
      </trkpt>
      <trkpt lat="45.8839" lon="4.61717">
        <ele>220.07646</ele>
        <time>2023-12-07T13:13:15.000Z</time>
      </trkpt>
      <trkpt lat="45.88392" lon="4.61711">
        <ele>220.13846</ele>
        <time>2023-12-07T13:13:16.000Z</time>
      </trkpt>
      <trkpt lat="45.88394" lon="4.61705">
        <ele>220.24167</ele>
        <time>2023-12-07T13:13:17.000Z</time>
      </trkpt>
      <trkpt lat="45.88395" lon="4.617">
        <ele>220.37138</ele>
        <time>2023-12-07T13:13:18.000Z</time>
      </trkpt>
      <trkpt lat="45.88398" lon="4.61693">
        <ele>220.46606</ele>
        <time>2023-12-07T13:13:19.000Z</time>
      </trkpt>
      <trkpt lat="45.884" lon="4.61688">
        <ele>220.52266</ele>
        <time>2023-12-07T13:13:20.000Z</time>
      </trkpt>
      <trkpt lat="45.88403" lon="4.61682">
        <ele>220.57706</ele>
        <time>2023-12-07T13:13:21.000Z</time>
      </trkpt>
      <trkpt lat="45.88405" lon="4.61675">
        <ele>220.65433</ele>
        <time>2023-12-07T13:13:22.000Z</time>
      </trkpt>
      <trkpt lat="45.88408" lon="4.61669">
        <ele>220.76973</ele>
        <time>2023-12-07T13:13:23.000Z</time>
      </trkpt>
      <trkpt lat="45.8841" lon="4.61662">
        <ele>220.88252</ele>
        <time>2023-12-07T13:13:24.000Z</time>
      </trkpt>
      <trkpt lat="45.88413" lon="4.61655">
        <ele>221.02669</ele>
        <time>2023-12-07T13:13:25.000Z</time>
      </trkpt>
      <trkpt lat="45.88416" lon="4.61649">
        <ele>221.14615</ele>
        <time>2023-12-07T13:13:26.000Z</time>
      </trkpt>
      <trkpt lat="45.88418" lon="4.61643">
        <ele>221.22839</ele>
        <time>2023-12-07T13:13:27.000Z</time>
      </trkpt>
      <trkpt lat="45.88421" lon="4.61638">
        <ele>221.34148</ele>
        <time>2023-12-07T13:13:28.000Z</time>
      </trkpt>
      <trkpt lat="45.88423" lon="4.61632">
        <ele>221.44604</ele>
        <time>2023-12-07T13:13:29.000Z</time>
      </trkpt>
      <trkpt lat="45.88426" lon="4.61625">
        <ele>221.51265</ele>
        <time>2023-12-07T13:13:30.000Z</time>
      </trkpt>
      <trkpt lat="45.88428" lon="4.61619">
        <ele>221.58684</ele>
        <time>2023-12-07T13:13:31.000Z</time>
      </trkpt>
      <trkpt lat="45.8843" lon="4.61613">
        <ele>221.68735</ele>
        <time>2023-12-07T13:13:32.000Z</time>
      </trkpt>
      <trkpt lat="45.88433" lon="4.61607">
        <ele>221.79565</ele>
        <time>2023-12-07T13:13:33.000Z</time>
      </trkpt>
      <trkpt lat="45.88435" lon="4.61602">
        <ele>221.86739</ele>
        <time>2023-12-07T13:13:34.000Z</time>
      </trkpt>
      <trkpt lat="45.88438" lon="4.61597">
        <ele>221.93767</ele>
        <time>2023-12-07T13:13:35.000Z</time>
      </trkpt>
      <trkpt lat="45.88441" lon="4.61593">
        <ele>221.96216</ele>
        <time>2023-12-07T13:13:36.000Z</time>
      </trkpt>
      <trkpt lat="45.88442" lon="4.61588">
        <ele>221.95662</ele>
        <time>2023-12-07T13:13:37.000Z</time>
      </trkpt>
      <trkpt lat="45.88445" lon="4.61584">
        <ele>221.90862</ele>
        <time>2023-12-07T13:13:38.000Z</time>
      </trkpt>
      <trkpt lat="45.88446" lon="4.61579">
        <ele>221.91782</ele>
        <time>2023-12-07T13:13:39.000Z</time>
      </trkpt>
      <trkpt lat="45.88449" lon="4.61575">
        <ele>221.93086</ele>
        <time>2023-12-07T13:13:40.000Z</time>
      </trkpt>
      <trkpt lat="45.88452" lon="4.61571">
        <ele>221.9648</ele>
        <time>2023-12-07T13:13:41.000Z</time>
      </trkpt>
      <trkpt lat="45.88455" lon="4.61568">
        <ele>221.99869</ele>
        <time>2023-12-07T13:13:42.000Z</time>
      </trkpt>
      <trkpt lat="45.88457" lon="4.61565">
        <ele>222.0009</ele>
        <time>2023-12-07T13:13:43.000Z</time>
      </trkpt>
      <trkpt lat="45.88459" lon="4.61561">
        <ele>222.06433</ele>
        <time>2023-12-07T13:13:44.000Z</time>
      </trkpt>
      <trkpt lat="45.88461" lon="4.61557">
        <ele>222.10709</ele>
        <time>2023-12-07T13:13:45.000Z</time>
      </trkpt>
      <trkpt lat="45.88464" lon="4.61553">
        <ele>222.1674</ele>
        <time>2023-12-07T13:13:46.000Z</time>
      </trkpt>
      <trkpt lat="45.88467" lon="4.6155">
        <ele>222.22641</ele>
        <time>2023-12-07T13:13:47.000Z</time>
      </trkpt>
      <trkpt lat="45.88469" lon="4.61546">
        <ele>222.30014</ele>
        <time>2023-12-07T13:13:48.000Z</time>
      </trkpt>
      <trkpt lat="45.88471" lon="4.61542">
        <ele>222.35239</ele>
        <time>2023-12-07T13:13:49.000Z</time>
      </trkpt>
      <trkpt lat="45.88474" lon="4.61538">
        <ele>222.45476</ele>
        <time>2023-12-07T13:13:50.000Z</time>
      </trkpt>
      <trkpt lat="45.88476" lon="4.61534">
        <ele>222.51846</ele>
        <time>2023-12-07T13:13:51.000Z</time>
      </trkpt>
      <trkpt lat="45.88478" lon="4.61531">
        <ele>222.59354</ele>
        <time>2023-12-07T13:13:52.000Z</time>
      </trkpt>
      <trkpt lat="45.88481" lon="4.61527">
        <ele>222.66235</ele>
        <time>2023-12-07T13:13:53.000Z</time>
      </trkpt>
      <trkpt lat="45.88483" lon="4.61523">
        <ele>222.76688</ele>
        <time>2023-12-07T13:13:54.000Z</time>
      </trkpt>
      <trkpt lat="45.88486" lon="4.61519">
        <ele>222.87308</ele>
        <time>2023-12-07T13:13:55.000Z</time>
      </trkpt>
      <trkpt lat="45.88488" lon="4.61516">
        <ele>223.00529</ele>
        <time>2023-12-07T13:13:56.000Z</time>
      </trkpt>
      <trkpt lat="45.8849" lon="4.61512">
        <ele>223.12573</ele>
        <time>2023-12-07T13:13:57.000Z</time>
      </trkpt>
      <trkpt lat="45.88493" lon="4.61509">
        <ele>223.28755</ele>
        <time>2023-12-07T13:13:58.000Z</time>
      </trkpt>
      <trkpt lat="45.88496" lon="4.61505">
        <ele>223.41965</ele>
        <time>2023-12-07T13:13:59.000Z</time>
      </trkpt>
      <trkpt lat="45.88498" lon="4.61501">
        <ele>223.58025</ele>
        <time>2023-12-07T13:14:00.000Z</time>
      </trkpt>
      <trkpt lat="45.885" lon="4.61496">
        <ele>223.72119</ele>
        <time>2023-12-07T13:14:01.000Z</time>
      </trkpt>
      <trkpt lat="45.885" lon="4.61491">
        <ele>223.89676</ele>
        <time>2023-12-07T13:14:02.000Z</time>
      </trkpt>
      <trkpt lat="45.885" lon="4.61486">
        <ele>224.10379</ele>
        <time>2023-12-07T13:14:03.000Z</time>
      </trkpt>
      <trkpt lat="45.88498" lon="4.61481">
        <ele>224.24858</ele>
        <time>2023-12-07T13:14:04.000Z</time>
      </trkpt>
      <trkpt lat="45.88496" lon="4.61476">
        <ele>224.41269</ele>
        <time>2023-12-07T13:14:05.000Z</time>
      </trkpt>
      <trkpt lat="45.88494" lon="4.61472">
        <ele>224.556</ele>
        <time>2023-12-07T13:14:06.000Z</time>
      </trkpt>
      <trkpt lat="45.88493" lon="4.61469">
        <ele>224.71738</ele>
        <time>2023-12-07T13:14:07.000Z</time>
      </trkpt>
      <trkpt lat="45.88493" lon="4.61465">
        <ele>224.89462</ele>
        <time>2023-12-07T13:14:08.000Z</time>
      </trkpt>
      <trkpt lat="45.88493" lon="4.61462">
        <ele>225.11191</ele>
        <time>2023-12-07T13:14:09.000Z</time>
      </trkpt>
      <trkpt lat="45.88494" lon="4.61458">
        <ele>225.2657</ele>
        <time>2023-12-07T13:14:10.000Z</time>
      </trkpt>
      <trkpt lat="45.88495" lon="4.61455">
        <ele>225.46213</ele>
        <time>2023-12-07T13:14:11.000Z</time>
      </trkpt>
      <trkpt lat="45.88496" lon="4.61451">
        <ele>225.68562</ele>
        <time>2023-12-07T13:14:12.000Z</time>
      </trkpt>
      <trkpt lat="45.88496" lon="4.61448">
        <ele>225.90829</ele>
        <time>2023-12-07T13:14:13.000Z</time>
      </trkpt>
      <trkpt lat="45.88496" lon="4.61444">
        <ele>226.08621</ele>
        <time>2023-12-07T13:14:14.000Z</time>
      </trkpt>
      <trkpt lat="45.88496" lon="4.6144">
        <ele>226.39774</ele>
        <time>2023-12-07T13:14:15.000Z</time>
      </trkpt>
      <trkpt lat="45.88496" lon="4.61436">
        <ele>226.67618</ele>
        <time>2023-12-07T13:14:16.000Z</time>
      </trkpt>
      <trkpt lat="45.88497" lon="4.61432">
        <ele>226.95049</ele>
        <time>2023-12-07T13:14:17.000Z</time>
      </trkpt>
      <trkpt lat="45.88497" lon="4.61428">
        <ele>227.1947</ele>
        <time>2023-12-07T13:14:18.000Z</time>
      </trkpt>
      <trkpt lat="45.88497" lon="4.61424">
        <ele>227.40234</ele>
        <time>2023-12-07T13:14:19.000Z</time>
      </trkpt>
      <trkpt lat="45.88497" lon="4.6142">
        <ele>227.5394</ele>
        <time>2023-12-07T13:14:20.000Z</time>
      </trkpt>
      <trkpt lat="45.88497" lon="4.61416">
        <ele>227.70239</ele>
        <time>2023-12-07T13:14:21.000Z</time>
      </trkpt>
      <trkpt lat="45.88497" lon="4.61413">
        <ele>227.82581</ele>
        <time>2023-12-07T13:14:22.000Z</time>
      </trkpt>
      <trkpt lat="45.88497" lon="4.61409">
        <ele>227.92896</ele>
        <time>2023-12-07T13:14:23.000Z</time>
      </trkpt>
      <trkpt lat="45.88496" lon="4.61406">
        <ele>227.97958</ele>
        <time>2023-12-07T13:14:24.000Z</time>
      </trkpt>
      <trkpt lat="45.88496" lon="4.61403">
        <ele>228.05746</ele>
        <time>2023-12-07T13:14:25.000Z</time>
      </trkpt>
      <trkpt lat="45.88495" lon="4.61399">
        <ele>228.02888</ele>
        <time>2023-12-07T13:14:26.000Z</time>
      </trkpt>
      <trkpt lat="45.88494" lon="4.61394">
        <ele>227.97774</ele>
        <time>2023-12-07T13:14:27.000Z</time>
      </trkpt>
      <trkpt lat="45.88494" lon="4.6139">
        <ele>227.87268</ele>
        <time>2023-12-07T13:14:28.000Z</time>
      </trkpt>
      <trkpt lat="45.88494" lon="4.61386">
        <ele>227.68843</ele>
        <time>2023-12-07T13:14:29.000Z</time>
      </trkpt>
      <trkpt lat="45.88494" lon="4.61382">
        <ele>227.51315</ele>
        <time>2023-12-07T13:14:30.000Z</time>
      </trkpt>
      <trkpt lat="45.88494" lon="4.61377">
        <ele>227.28894</ele>
        <time>2023-12-07T13:14:31.000Z</time>
      </trkpt>
      <trkpt lat="45.88494" lon="4.61373">
        <ele>227.22046</ele>
        <time>2023-12-07T13:14:32.000Z</time>
      </trkpt>
      <trkpt lat="45.88494" lon="4.61368">
        <ele>227.06482</ele>
        <time>2023-12-07T13:14:33.000Z</time>
      </trkpt>
      <trkpt lat="45.88493" lon="4.61363">
        <ele>226.97005</ele>
        <time>2023-12-07T13:14:34.000Z</time>
      </trkpt>
      <trkpt lat="45.88493" lon="4.61359">
        <ele>226.6834</ele>
        <time>2023-12-07T13:14:35.000Z</time>
      </trkpt>
      <trkpt lat="45.88492" lon="4.61355">
        <ele>226.42252</ele>
        <time>2023-12-07T13:14:36.000Z</time>
      </trkpt>
      <trkpt lat="45.88491" lon="4.61351">
        <ele>226.1694</ele>
        <time>2023-12-07T13:14:37.000Z</time>
      </trkpt>
      <trkpt lat="45.8849" lon="4.61346">
        <ele>225.94576</ele>
        <time>2023-12-07T13:14:38.000Z</time>
      </trkpt>
      <trkpt lat="45.88489" lon="4.61341">
        <ele>225.75879</ele>
        <time>2023-12-07T13:14:39.000Z</time>
      </trkpt>
      <trkpt lat="45.88488" lon="4.61336">
        <ele>225.65669</ele>
        <time>2023-12-07T13:14:40.000Z</time>
      </trkpt>
      <trkpt lat="45.88487" lon="4.61331">
        <ele>225.5197</ele>
        <time>2023-12-07T13:14:41.000Z</time>
      </trkpt>
      <trkpt lat="45.88486" lon="4.61327">
        <ele>225.30022</ele>
        <time>2023-12-07T13:14:42.000Z</time>
      </trkpt>
      <trkpt lat="45.88485" lon="4.61323">
        <ele>225.03374</ele>
        <time>2023-12-07T13:14:43.000Z</time>
      </trkpt>
      <trkpt lat="45.88485" lon="4.61318">
        <ele>224.847</ele>
        <time>2023-12-07T13:14:44.000Z</time>
      </trkpt>
      <trkpt lat="45.88484" lon="4.61314">
        <ele>224.63005</ele>
        <time>2023-12-07T13:14:45.000Z</time>
      </trkpt>
      <trkpt lat="45.88484" lon="4.61309">
        <ele>224.48528</ele>
        <time>2023-12-07T13:14:46.000Z</time>
      </trkpt>
      <trkpt lat="45.88484" lon="4.61304">
        <ele>224.54175</ele>
        <time>2023-12-07T13:14:47.000Z</time>
      </trkpt>
      <trkpt lat="45.88483" lon="4.61299">
        <ele>224.57661</ele>
        <time>2023-12-07T13:14:48.000Z</time>
      </trkpt>
      <trkpt lat="45.88481" lon="4.61294">
        <ele>224.65121</ele>
        <time>2023-12-07T13:14:49.000Z</time>
      </trkpt>
      <trkpt lat="45.8848" lon="4.61289">
        <ele>224.76895</ele>
        <time>2023-12-07T13:14:50.000Z</time>
      </trkpt>
      <trkpt lat="45.88478" lon="4.61284">
        <ele>224.93623</ele>
        <time>2023-12-07T13:14:51.000Z</time>
      </trkpt>
      <trkpt lat="45.88476" lon="4.6128">
        <ele>224.98184</ele>
        <time>2023-12-07T13:14:52.000Z</time>
      </trkpt>
      <trkpt lat="45.88474" lon="4.61277">
        <ele>225.15048</ele>
        <time>2023-12-07T13:14:53.000Z</time>
      </trkpt>
      <trkpt lat="45.88473" lon="4.61273">
        <ele>225.29427</ele>
        <time>2023-12-07T13:14:54.000Z</time>
      </trkpt>
      <trkpt lat="45.88471" lon="4.61268">
        <ele>225.53401</ele>
        <time>2023-12-07T13:14:55.000Z</time>
      </trkpt>
      <trkpt lat="45.8847" lon="4.61264">
        <ele>225.77078</ele>
        <time>2023-12-07T13:14:56.000Z</time>
      </trkpt>
      <trkpt lat="45.88469" lon="4.6126">
        <ele>226.05135</ele>
        <time>2023-12-07T13:14:57.000Z</time>
      </trkpt>
      <trkpt lat="45.88469" lon="4.61256">
        <ele>226.25908</ele>
        <time>2023-12-07T13:14:58.000Z</time>
      </trkpt>
      <trkpt lat="45.88468" lon="4.61252">
        <ele>226.4805</ele>
        <time>2023-12-07T13:15:00.000Z</time>
      </trkpt>
      <trkpt lat="45.88467" lon="4.61248">
        <ele>226.60098</ele>
        <time>2023-12-07T13:15:01.000Z</time>
      </trkpt>
      <trkpt lat="45.88466" lon="4.61244">
        <ele>226.65775</ele>
        <time>2023-12-07T13:15:02.000Z</time>
      </trkpt>
      <trkpt lat="45.88465" lon="4.61241">
        <ele>226.84033</ele>
        <time>2023-12-07T13:15:03.000Z</time>
      </trkpt>
      <trkpt lat="45.88464" lon="4.61237">
        <ele>227.1124</ele>
        <time>2023-12-07T13:15:04.000Z</time>
      </trkpt>
      <trkpt lat="45.88462" lon="4.61233">
        <ele>227.58154</ele>
        <time>2023-12-07T13:15:05.000Z</time>
      </trkpt>
      <trkpt lat="45.88461" lon="4.6123">
        <ele>228.01135</ele>
        <time>2023-12-07T13:15:06.000Z</time>
      </trkpt>
      <trkpt lat="45.88459" lon="4.61226">
        <ele>228.51126</ele>
        <time>2023-12-07T13:15:07.000Z</time>
      </trkpt>
      <trkpt lat="45.88458" lon="4.61223">
        <ele>228.76147</ele>
        <time>2023-12-07T13:15:08.000Z</time>
      </trkpt>
      <trkpt lat="45.88456" lon="4.6122">
        <ele>229.02165</ele>
        <time>2023-12-07T13:15:09.000Z</time>
      </trkpt>
      <trkpt lat="45.88455" lon="4.61217">
        <ele>229.203</ele>
        <time>2023-12-07T13:15:10.000Z</time>
      </trkpt>
      <trkpt lat="45.88453" lon="4.61214">
        <ele>229.42952</ele>
        <time>2023-12-07T13:15:11.000Z</time>
      </trkpt>
      <trkpt lat="45.88452" lon="4.61212">
        <ele>229.66885</ele>
        <time>2023-12-07T13:15:12.000Z</time>
      </trkpt>
      <trkpt lat="45.88451" lon="4.61208">
        <ele>229.90396</ele>
        <time>2023-12-07T13:15:14.000Z</time>
      </trkpt>
      <trkpt lat="45.8845" lon="4.61205">
        <ele>230.07748</ele>
        <time>2023-12-07T13:15:15.000Z</time>
      </trkpt>
      <trkpt lat="45.88449" lon="4.61203">
        <ele>230.23262</ele>
        <time>2023-12-07T13:15:16.000Z</time>
      </trkpt>
      <trkpt lat="45.88447" lon="4.61197">
        <ele>230.76021</ele>
        <time>2023-12-07T13:15:18.000Z</time>
      </trkpt>
      <trkpt lat="45.88446" lon="4.61194">
        <ele>231.37744</ele>
        <time>2023-12-07T13:15:19.000Z</time>
      </trkpt>
      <trkpt lat="45.88446" lon="4.61192">
        <ele>231.93025</ele>
        <time>2023-12-07T13:15:20.000Z</time>
      </trkpt>
      <trkpt lat="45.88444" lon="4.61189">
        <ele>232.53601</ele>
        <time>2023-12-07T13:15:21.000Z</time>
      </trkpt>
      <trkpt lat="45.88443" lon="4.61185">
        <ele>233.16702</ele>
        <time>2023-12-07T13:15:23.000Z</time>
      </trkpt>
      <trkpt lat="45.88442" lon="4.6118">
        <ele>233.80452</ele>
        <time>2023-12-07T13:15:25.000Z</time>
      </trkpt>
      <trkpt lat="45.88441" lon="4.61177">
        <ele>234.505</ele>
        <time>2023-12-07T13:15:26.000Z</time>
      </trkpt>
      <trkpt lat="45.8844" lon="4.61174">
        <ele>235.19536</ele>
        <time>2023-12-07T13:15:27.000Z</time>
      </trkpt>
      <trkpt lat="45.8844" lon="4.61171">
        <ele>235.85281</ele>
        <time>2023-12-07T13:15:28.000Z</time>
      </trkpt>
      <trkpt lat="45.88439" lon="4.61168">
        <ele>236.28316</ele>
        <time>2023-12-07T13:15:29.000Z</time>
      </trkpt>
      <trkpt lat="45.88439" lon="4.61166">
        <ele>236.71423</ele>
        <time>2023-12-07T13:15:30.000Z</time>
      </trkpt>
      <trkpt lat="45.88437" lon="4.61163">
        <ele>237.10017</ele>
        <time>2023-12-07T13:15:31.000Z</time>
      </trkpt>
      <trkpt lat="45.88436" lon="4.61161">
        <ele>237.556</ele>
        <time>2023-12-07T13:15:32.000Z</time>
      </trkpt>
      <trkpt lat="45.88434" lon="4.61158">
        <ele>238.09256</ele>
        <time>2023-12-07T13:15:33.000Z</time>
      </trkpt>
      <trkpt lat="45.88433" lon="4.61156">
        <ele>238.75822</ele>
        <time>2023-12-07T13:15:34.000Z</time>
      </trkpt>
      <trkpt lat="45.88431" lon="4.61153">
        <ele>239.40889</ele>
        <time>2023-12-07T13:15:35.000Z</time>
      </trkpt>
      <trkpt lat="45.8843" lon="4.61151">
        <ele>239.94022</ele>
        <time>2023-12-07T13:15:36.000Z</time>
      </trkpt>
      <trkpt lat="45.88429" lon="4.61148">
        <ele>240.41531</ele>
        <time>2023-12-07T13:15:37.000Z</time>
      </trkpt>
      <trkpt lat="45.88428" lon="4.61144">
        <ele>240.87056</ele>
        <time>2023-12-07T13:15:39.000Z</time>
      </trkpt>
      <trkpt lat="45.88428" lon="4.61141">
        <ele>241.32744</ele>
        <time>2023-12-07T13:15:40.000Z</time>
      </trkpt>
      <trkpt lat="45.88427" lon="4.61138">
        <ele>241.37114</ele>
        <time>2023-12-07T13:15:41.000Z</time>
      </trkpt>
      <trkpt lat="45.88426" lon="4.61134">
        <ele>241.31111</ele>
        <time>2023-12-07T13:15:42.000Z</time>
      </trkpt>
      <trkpt lat="45.88425" lon="4.61131">
        <ele>241.27556</ele>
        <time>2023-12-07T13:15:43.000Z</time>
      </trkpt>
      <trkpt lat="45.88423" lon="4.61128">
        <ele>241.43118</ele>
        <time>2023-12-07T13:15:44.000Z</time>
      </trkpt>
      <trkpt lat="45.88422" lon="4.61123">
        <ele>241.52808</ele>
        <time>2023-12-07T13:15:45.000Z</time>
      </trkpt>
      <trkpt lat="45.88421" lon="4.61119">
        <ele>241.72795</ele>
        <time>2023-12-07T13:15:46.000Z</time>
      </trkpt>
      <trkpt lat="45.8842" lon="4.61115">
        <ele>241.96829</ele>
        <time>2023-12-07T13:15:47.000Z</time>
      </trkpt>
      <trkpt lat="45.88419" lon="4.61111">
        <ele>242.15207</ele>
        <time>2023-12-07T13:15:48.000Z</time>
      </trkpt>
      <trkpt lat="45.88418" lon="4.61107">
        <ele>242.32507</ele>
        <time>2023-12-07T13:15:49.000Z</time>
      </trkpt>
      <trkpt lat="45.88417" lon="4.61103">
        <ele>242.50916</ele>
        <time>2023-12-07T13:15:50.000Z</time>
      </trkpt>
      <trkpt lat="45.88415" lon="4.61099">
        <ele>242.76859</ele>
        <time>2023-12-07T13:15:51.000Z</time>
      </trkpt>
      <trkpt lat="45.88413" lon="4.61095">
        <ele>243.03922</ele>
        <time>2023-12-07T13:15:52.000Z</time>
      </trkpt>
      <trkpt lat="45.88411" lon="4.61093">
        <ele>243.28398</ele>
        <time>2023-12-07T13:15:53.000Z</time>
      </trkpt>
      <trkpt lat="45.88409" lon="4.6109">
        <ele>243.37834</ele>
        <time>2023-12-07T13:15:54.000Z</time>
      </trkpt>
      <trkpt lat="45.88407" lon="4.61087">
        <ele>243.4576</ele>
        <time>2023-12-07T13:15:55.000Z</time>
      </trkpt>
      <trkpt lat="45.88404" lon="4.61085">
        <ele>243.52266</ele>
        <time>2023-12-07T13:15:56.000Z</time>
      </trkpt>
      <trkpt lat="45.88402" lon="4.61082">
        <ele>243.71004</ele>
        <time>2023-12-07T13:15:57.000Z</time>
      </trkpt>
      <trkpt lat="45.884" lon="4.6108">
        <ele>243.83492</ele>
        <time>2023-12-07T13:15:58.000Z</time>
      </trkpt>
      <trkpt lat="45.88397" lon="4.61078">
        <ele>244.16785</ele>
        <time>2023-12-07T13:15:59.000Z</time>
      </trkpt>
      <trkpt lat="45.88395" lon="4.61077">
        <ele>244.49283</ele>
        <time>2023-12-07T13:16:00.000Z</time>
      </trkpt>
      <trkpt lat="45.88393" lon="4.61075">
        <ele>244.76738</ele>
        <time>2023-12-07T13:16:01.000Z</time>
      </trkpt>
      <trkpt lat="45.88391" lon="4.61073">
        <ele>245.08109</ele>
        <time>2023-12-07T13:16:02.000Z</time>
      </trkpt>
      <trkpt lat="45.88388" lon="4.61071">
        <ele>245.37959</ele>
        <time>2023-12-07T13:16:03.000Z</time>
      </trkpt>
      <trkpt lat="45.88385" lon="4.61069">
        <ele>245.51749</ele>
        <time>2023-12-07T13:16:04.000Z</time>
      </trkpt>
      <trkpt lat="45.88383" lon="4.61067">
        <ele>245.64844</ele>
        <time>2023-12-07T13:16:05.000Z</time>
      </trkpt>
      <trkpt lat="45.88381" lon="4.61064">
        <ele>245.74748</ele>
        <time>2023-12-07T13:16:06.000Z</time>
      </trkpt>
      <trkpt lat="45.88379" lon="4.61061">
        <ele>245.80569</ele>
        <time>2023-12-07T13:16:07.000Z</time>
      </trkpt>
      <trkpt lat="45.88377" lon="4.61056">
        <ele>245.89291</ele>
        <time>2023-12-07T13:16:08.000Z</time>
      </trkpt>
      <trkpt lat="45.88375" lon="4.61051">
        <ele>245.85635</ele>
        <time>2023-12-07T13:16:09.000Z</time>
      </trkpt>
      <trkpt lat="45.88374" lon="4.61046">
        <ele>246.1987</ele>
        <time>2023-12-07T13:16:10.000Z</time>
      </trkpt>
      <trkpt lat="45.88374" lon="4.61041">
        <ele>246.54208</ele>
        <time>2023-12-07T13:16:11.000Z</time>
      </trkpt>
      <trkpt lat="45.88374" lon="4.61036">
        <ele>246.94272</ele>
        <time>2023-12-07T13:16:12.000Z</time>
      </trkpt>
      <trkpt lat="45.88374" lon="4.61027">
        <ele>247.28166</ele>
        <time>2023-12-07T13:16:13.000Z</time>
      </trkpt>
      <trkpt lat="45.88374" lon="4.61022">
        <ele>247.64023</ele>
        <time>2023-12-07T13:16:14.000Z</time>
      </trkpt>
      <trkpt lat="45.88375" lon="4.61018">
        <ele>247.99495</ele>
        <time>2023-12-07T13:16:15.000Z</time>
      </trkpt>
      <trkpt lat="45.88377" lon="4.61012">
        <ele>248.37411</ele>
        <time>2023-12-07T13:16:16.000Z</time>
      </trkpt>
      <trkpt lat="45.88379" lon="4.61008">
        <ele>248.73129</ele>
        <time>2023-12-07T13:16:17.000Z</time>
      </trkpt>
      <trkpt lat="45.8838" lon="4.61004">
        <ele>249.18481</ele>
        <time>2023-12-07T13:16:18.000Z</time>
      </trkpt>
      <trkpt lat="45.88382" lon="4.61001">
        <ele>249.45432</ele>
        <time>2023-12-07T13:16:19.000Z</time>
      </trkpt>
      <trkpt lat="45.88385" lon="4.60998">
        <ele>249.74429</ele>
        <time>2023-12-07T13:16:20.000Z</time>
      </trkpt>
      <trkpt lat="45.88387" lon="4.60994">
        <ele>250.04753</ele>
        <time>2023-12-07T13:16:21.000Z</time>
      </trkpt>
      <trkpt lat="45.8839" lon="4.60991">
        <ele>250.29434</ele>
        <time>2023-12-07T13:16:22.000Z</time>
      </trkpt>
      <trkpt lat="45.88392" lon="4.60988">
        <ele>250.55917</ele>
        <time>2023-12-07T13:16:23.000Z</time>
      </trkpt>
      <trkpt lat="45.88395" lon="4.60984">
        <ele>250.80989</ele>
        <time>2023-12-07T13:16:24.000Z</time>
      </trkpt>
      <trkpt lat="45.88397" lon="4.60982">
        <ele>251.07693</ele>
        <time>2023-12-07T13:16:25.000Z</time>
      </trkpt>
      <trkpt lat="45.884" lon="4.60979">
        <ele>251.32834</ele>
        <time>2023-12-07T13:16:26.000Z</time>
      </trkpt>
      <trkpt lat="45.88402" lon="4.60977">
        <ele>251.70139</ele>
        <time>2023-12-07T13:16:27.000Z</time>
      </trkpt>
      <trkpt lat="45.88405" lon="4.60974">
        <ele>252.05667</ele>
        <time>2023-12-07T13:16:28.000Z</time>
      </trkpt>
      <trkpt lat="45.88407" lon="4.60972">
        <ele>252.51553</ele>
        <time>2023-12-07T13:16:29.000Z</time>
      </trkpt>
      <trkpt lat="45.8841" lon="4.6097">
        <ele>252.5657</ele>
        <time>2023-12-07T13:16:30.000Z</time>
      </trkpt>
      <trkpt lat="45.88412" lon="4.60968">
        <ele>252.58664</ele>
        <time>2023-12-07T13:16:31.000Z</time>
      </trkpt>
      <trkpt lat="45.88415" lon="4.60967">
        <ele>252.53833</ele>
        <time>2023-12-07T13:16:32.000Z</time>
      </trkpt>
      <trkpt lat="45.88418" lon="4.60965">
        <ele>252.57431</ele>
        <time>2023-12-07T13:16:33.000Z</time>
      </trkpt>
      <trkpt lat="45.8842" lon="4.60963">
        <ele>252.70132</ele>
        <time>2023-12-07T13:16:34.000Z</time>
      </trkpt>
      <trkpt lat="45.88423" lon="4.60961">
        <ele>252.82065</ele>
        <time>2023-12-07T13:16:35.000Z</time>
      </trkpt>
      <trkpt lat="45.88425" lon="4.60959">
        <ele>252.89775</ele>
        <time>2023-12-07T13:16:36.000Z</time>
      </trkpt>
      <trkpt lat="45.88428" lon="4.60958">
        <ele>252.96895</ele>
        <time>2023-12-07T13:16:37.000Z</time>
      </trkpt>
      <trkpt lat="45.88431" lon="4.60956">
        <ele>252.92155</ele>
        <time>2023-12-07T13:16:38.000Z</time>
      </trkpt>
      <trkpt lat="45.88434" lon="4.60954">
        <ele>252.62915</ele>
        <time>2023-12-07T13:16:39.000Z</time>
      </trkpt>
      <trkpt lat="45.88437" lon="4.60952">
        <ele>252.33235</ele>
        <time>2023-12-07T13:16:40.000Z</time>
      </trkpt>
      <trkpt lat="45.88441" lon="4.60951">
        <ele>252.07288</ele>
        <time>2023-12-07T13:16:41.000Z</time>
      </trkpt>
      <trkpt lat="45.88444" lon="4.60949">
        <ele>251.88855</ele>
        <time>2023-12-07T13:16:42.000Z</time>
      </trkpt>
      <trkpt lat="45.88448" lon="4.60948">
        <ele>251.68356</ele>
        <time>2023-12-07T13:16:43.000Z</time>
      </trkpt>
      <trkpt lat="45.88451" lon="4.60947">
        <ele>251.48726</ele>
        <time>2023-12-07T13:16:44.000Z</time>
      </trkpt>
      <trkpt lat="45.88454" lon="4.60945">
        <ele>251.3085</ele>
        <time>2023-12-07T13:16:45.000Z</time>
      </trkpt>
      <trkpt lat="45.88457" lon="4.60943">
        <ele>251.1136</ele>
        <time>2023-12-07T13:16:46.000Z</time>
      </trkpt>
      <trkpt lat="45.8846" lon="4.60941">
        <ele>250.81511</ele>
        <time>2023-12-07T13:16:47.000Z</time>
      </trkpt>
      <trkpt lat="45.88463" lon="4.60938">
        <ele>250.45125</ele>
        <time>2023-12-07T13:16:48.000Z</time>
      </trkpt>
      <trkpt lat="45.88466" lon="4.60935">
        <ele>250.17749</ele>
        <time>2023-12-07T13:16:49.000Z</time>
      </trkpt>
      <trkpt lat="45.88469" lon="4.60933">
        <ele>249.93347</ele>
        <time>2023-12-07T13:16:50.000Z</time>
      </trkpt>
      <trkpt lat="45.88473" lon="4.6093">
        <ele>249.6748</ele>
        <time>2023-12-07T13:16:51.000Z</time>
      </trkpt>
      <trkpt lat="45.88476" lon="4.60927">
        <ele>249.40247</ele>
        <time>2023-12-07T13:16:52.000Z</time>
      </trkpt>
      <trkpt lat="45.88478" lon="4.60924">
        <ele>249.11076</ele>
        <time>2023-12-07T13:16:53.000Z</time>
      </trkpt>
      <trkpt lat="45.88481" lon="4.60921">
        <ele>248.80339</ele>
        <time>2023-12-07T13:16:54.000Z</time>
      </trkpt>
      <trkpt lat="45.88485" lon="4.60918">
        <ele>248.50838</ele>
        <time>2023-12-07T13:16:55.000Z</time>
      </trkpt>
      <trkpt lat="45.88488" lon="4.60915">
        <ele>247.98531</ele>
        <time>2023-12-07T13:16:56.000Z</time>
      </trkpt>
      <trkpt lat="45.88491" lon="4.60913">
        <ele>247.44913</ele>
        <time>2023-12-07T13:16:57.000Z</time>
      </trkpt>
      <trkpt lat="45.88494" lon="4.6091">
        <ele>246.96176</ele>
        <time>2023-12-07T13:16:58.000Z</time>
      </trkpt>
      <trkpt lat="45.88497" lon="4.60907">
        <ele>247.09985</ele>
        <time>2023-12-07T13:16:59.000Z</time>
      </trkpt>
      <trkpt lat="45.885" lon="4.60904">
        <ele>247.1512</ele>
        <time>2023-12-07T13:17:00.000Z</time>
      </trkpt>
      <trkpt lat="45.88502" lon="4.60901">
        <ele>247.21846</ele>
        <time>2023-12-07T13:17:01.000Z</time>
      </trkpt>
      <trkpt lat="45.88505" lon="4.60898">
        <ele>247.23947</ele>
        <time>2023-12-07T13:17:02.000Z</time>
      </trkpt>
      <trkpt lat="45.88508" lon="4.60896">
        <ele>247.28354</ele>
        <time>2023-12-07T13:17:03.000Z</time>
      </trkpt>
      <trkpt lat="45.88511" lon="4.60894">
        <ele>247.30786</ele>
        <time>2023-12-07T13:17:04.000Z</time>
      </trkpt>
      <trkpt lat="45.88514" lon="4.60891">
        <ele>247.30859</ele>
        <time>2023-12-07T13:17:05.000Z</time>
      </trkpt>
      <trkpt lat="45.88517" lon="4.60888">
        <ele>247.3374</ele>
        <time>2023-12-07T13:17:06.000Z</time>
      </trkpt>
      <trkpt lat="45.88521" lon="4.60885">
        <ele>247.33118</ele>
        <time>2023-12-07T13:17:07.000Z</time>
      </trkpt>
      <trkpt lat="45.88524" lon="4.60882">
        <ele>247.4073</ele>
        <time>2023-12-07T13:17:08.000Z</time>
      </trkpt>
      <trkpt lat="45.88527" lon="4.60878">
        <ele>247.3916</ele>
        <time>2023-12-07T13:17:09.000Z</time>
      </trkpt>
      <trkpt lat="45.8853" lon="4.60875">
        <ele>247.37021</ele>
        <time>2023-12-07T13:17:10.000Z</time>
      </trkpt>
      <trkpt lat="45.88533" lon="4.60873">
        <ele>247.37651</ele>
        <time>2023-12-07T13:17:11.000Z</time>
      </trkpt>
      <trkpt lat="45.88536" lon="4.6087">
        <ele>247.38647</ele>
        <time>2023-12-07T13:17:12.000Z</time>
      </trkpt>
      <trkpt lat="45.88539" lon="4.60868">
        <ele>247.41231</ele>
        <time>2023-12-07T13:17:13.000Z</time>
      </trkpt>
      <trkpt lat="45.88543" lon="4.60865">
        <ele>247.46976</ele>
        <time>2023-12-07T13:17:14.000Z</time>
      </trkpt>
      <trkpt lat="45.88546" lon="4.60862">
        <ele>247.50508</ele>
        <time>2023-12-07T13:17:15.000Z</time>
      </trkpt>
      <trkpt lat="45.88549" lon="4.60859">
        <ele>247.74475</ele>
        <time>2023-12-07T13:17:16.000Z</time>
      </trkpt>
      <trkpt lat="45.88552" lon="4.60857">
        <ele>247.99344</ele>
        <time>2023-12-07T13:17:17.000Z</time>
      </trkpt>
      <trkpt lat="45.88554" lon="4.60854">
        <ele>248.28268</ele>
        <time>2023-12-07T13:17:18.000Z</time>
      </trkpt>
      <trkpt lat="45.88557" lon="4.60851">
        <ele>248.19353</ele>
        <time>2023-12-07T13:17:19.000Z</time>
      </trkpt>
      <trkpt lat="45.8856" lon="4.60848">
        <ele>247.95923</ele>
        <time>2023-12-07T13:17:20.000Z</time>
      </trkpt>
      <trkpt lat="45.88563" lon="4.60845">
        <ele>247.70085</ele>
        <time>2023-12-07T13:17:21.000Z</time>
      </trkpt>
      <trkpt lat="45.88565" lon="4.60842">
        <ele>247.44304</ele>
        <time>2023-12-07T13:17:22.000Z</time>
      </trkpt>
      <trkpt lat="45.88568" lon="4.60838">
        <ele>247.07942</ele>
        <time>2023-12-07T13:17:23.000Z</time>
      </trkpt>
      <trkpt lat="45.88571" lon="4.60835">
        <ele>247.09099</ele>
        <time>2023-12-07T13:17:24.000Z</time>
      </trkpt>
      <trkpt lat="45.88573" lon="4.60831">
        <ele>247.07442</ele>
        <time>2023-12-07T13:17:25.000Z</time>
      </trkpt>
      <trkpt lat="45.88575" lon="4.60827">
        <ele>247.05005</ele>
        <time>2023-12-07T13:17:26.000Z</time>
      </trkpt>
      <trkpt lat="45.88577" lon="4.60823">
        <ele>247.0629</ele>
        <time>2023-12-07T13:17:27.000Z</time>
      </trkpt>
      <trkpt lat="45.88579" lon="4.60819">
        <ele>247.09331</ele>
        <time>2023-12-07T13:17:28.000Z</time>
      </trkpt>
      <trkpt lat="45.88581" lon="4.60814">
        <ele>247.12405</ele>
        <time>2023-12-07T13:17:29.000Z</time>
      </trkpt>
      <trkpt lat="45.88582" lon="4.6081">
        <ele>247.13791</ele>
        <time>2023-12-07T13:17:30.000Z</time>
      </trkpt>
      <trkpt lat="45.88583" lon="4.60805">
        <ele>247.12947</ele>
        <time>2023-12-07T13:17:31.000Z</time>
      </trkpt>
      <trkpt lat="45.88583" lon="4.608">
        <ele>247.16399</ele>
        <time>2023-12-07T13:17:32.000Z</time>
      </trkpt>
      <trkpt lat="45.88583" lon="4.60795">
        <ele>247.20683</ele>
        <time>2023-12-07T13:17:33.000Z</time>
      </trkpt>
      <trkpt lat="45.88582" lon="4.6079">
        <ele>247.22061</ele>
        <time>2023-12-07T13:17:34.000Z</time>
      </trkpt>
      <trkpt lat="45.88582" lon="4.60784">
        <ele>247.22554</ele>
        <time>2023-12-07T13:17:35.000Z</time>
      </trkpt>
      <trkpt lat="45.88581" lon="4.60779">
        <ele>247.03189</ele>
        <time>2023-12-07T13:17:36.000Z</time>
      </trkpt>
      <trkpt lat="45.8858" lon="4.60774">
        <ele>246.75883</ele>
        <time>2023-12-07T13:17:37.000Z</time>
      </trkpt>
      <trkpt lat="45.88579" lon="4.6077">
        <ele>246.47893</ele>
        <time>2023-12-07T13:17:38.000Z</time>
      </trkpt>
      <trkpt lat="45.88578" lon="4.60765">
        <ele>246.56912</ele>
        <time>2023-12-07T13:17:39.000Z</time>
      </trkpt>
      <trkpt lat="45.88576" lon="4.6076">
        <ele>246.84354</ele>
        <time>2023-12-07T13:17:40.000Z</time>
      </trkpt>
      <trkpt lat="45.88575" lon="4.60755">
        <ele>247.12732</ele>
        <time>2023-12-07T13:17:41.000Z</time>
      </trkpt>
      <trkpt lat="45.88573" lon="4.6075">
        <ele>247.41765</ele>
        <time>2023-12-07T13:17:42.000Z</time>
      </trkpt>
      <trkpt lat="45.88572" lon="4.60746">
        <ele>247.85771</ele>
        <time>2023-12-07T13:17:43.000Z</time>
      </trkpt>
      <trkpt lat="45.8857" lon="4.60741">
        <ele>247.88545</ele>
        <time>2023-12-07T13:17:44.000Z</time>
      </trkpt>
      <trkpt lat="45.88568" lon="4.60736">
        <ele>247.97952</ele>
        <time>2023-12-07T13:17:45.000Z</time>
      </trkpt>
      <trkpt lat="45.88567" lon="4.60732">
        <ele>248.07846</ele>
        <time>2023-12-07T13:17:46.000Z</time>
      </trkpt>
      <trkpt lat="45.88566" lon="4.60729">
        <ele>248.17355</ele>
        <time>2023-12-07T13:17:47.000Z</time>
      </trkpt>
      <trkpt lat="45.88564" lon="4.60724">
        <ele>248.23499</ele>
        <time>2023-12-07T13:17:48.000Z</time>
      </trkpt>
      <trkpt lat="45.88563" lon="4.6072">
        <ele>248.29492</ele>
        <time>2023-12-07T13:17:49.000Z</time>
      </trkpt>
      <trkpt lat="45.88562" lon="4.60716">
        <ele>248.38423</ele>
        <time>2023-12-07T13:17:50.000Z</time>
      </trkpt>
      <trkpt lat="45.8856" lon="4.60712">
        <ele>248.47559</ele>
        <time>2023-12-07T13:17:51.000Z</time>
      </trkpt>
      <trkpt lat="45.88559" lon="4.60708">
        <ele>248.54263</ele>
        <time>2023-12-07T13:17:52.000Z</time>
      </trkpt>
      <trkpt lat="45.88557" lon="4.60704">
        <ele>248.59537</ele>
        <time>2023-12-07T13:17:53.000Z</time>
      </trkpt>
      <trkpt lat="45.88555" lon="4.60701">
        <ele>248.44165</ele>
        <time>2023-12-07T13:17:54.000Z</time>
      </trkpt>
      <trkpt lat="45.88554" lon="4.60697">
        <ele>248.2446</ele>
        <time>2023-12-07T13:17:55.000Z</time>
      </trkpt>
      <trkpt lat="45.88552" lon="4.60693">
        <ele>248.28691</ele>
        <time>2023-12-07T13:17:56.000Z</time>
      </trkpt>
      <trkpt lat="45.8855" lon="4.60689">
        <ele>248.42412</ele>
        <time>2023-12-07T13:17:57.000Z</time>
      </trkpt>
      <trkpt lat="45.88548" lon="4.60685">
        <ele>248.62053</ele>
        <time>2023-12-07T13:17:58.000Z</time>
      </trkpt>
      <trkpt lat="45.88546" lon="4.60681">
        <ele>248.48694</ele>
        <time>2023-12-07T13:17:59.000Z</time>
      </trkpt>
      <trkpt lat="45.88544" lon="4.60677">
        <ele>248.29024</ele>
        <time>2023-12-07T13:18:00.000Z</time>
      </trkpt>
      <trkpt lat="45.88543" lon="4.60674">
        <ele>248.09319</ele>
        <time>2023-12-07T13:18:01.000Z</time>
      </trkpt>
      <trkpt lat="45.88541" lon="4.6067">
        <ele>248.24968</ele>
        <time>2023-12-07T13:18:02.000Z</time>
      </trkpt>
      <trkpt lat="45.88539" lon="4.60667">
        <ele>248.27946</ele>
        <time>2023-12-07T13:18:03.000Z</time>
      </trkpt>
      <trkpt lat="45.88538" lon="4.60663">
        <ele>248.3726</ele>
        <time>2023-12-07T13:18:04.000Z</time>
      </trkpt>
      <trkpt lat="45.88536" lon="4.6066">
        <ele>248.45621</ele>
        <time>2023-12-07T13:18:05.000Z</time>
      </trkpt>
      <trkpt lat="45.88534" lon="4.60656">
        <ele>248.52808</ele>
        <time>2023-12-07T13:18:06.000Z</time>
      </trkpt>
      <trkpt lat="45.88533" lon="4.60653">
        <ele>248.59795</ele>
        <time>2023-12-07T13:18:07.000Z</time>
      </trkpt>
      <trkpt lat="45.88531" lon="4.60649">
        <ele>248.7196</ele>
        <time>2023-12-07T13:18:08.000Z</time>
      </trkpt>
      <trkpt lat="45.8853" lon="4.60646">
        <ele>248.87161</ele>
        <time>2023-12-07T13:18:09.000Z</time>
      </trkpt>
      <trkpt lat="45.88529" lon="4.60642">
        <ele>249.01807</ele>
        <time>2023-12-07T13:18:10.000Z</time>
      </trkpt>
      <trkpt lat="45.88528" lon="4.60639">
        <ele>249.17407</ele>
        <time>2023-12-07T13:18:11.000Z</time>
      </trkpt>
      <trkpt lat="45.88526" lon="4.60635">
        <ele>249.35056</ele>
        <time>2023-12-07T13:18:12.000Z</time>
      </trkpt>
      <trkpt lat="45.88525" lon="4.60632">
        <ele>249.5334</ele>
        <time>2023-12-07T13:18:13.000Z</time>
      </trkpt>
      <trkpt lat="45.88524" lon="4.60628">
        <ele>249.90536</ele>
        <time>2023-12-07T13:18:14.000Z</time>
      </trkpt>
      <trkpt lat="45.88522" lon="4.60624">
        <ele>250.31621</ele>
        <time>2023-12-07T13:18:15.000Z</time>
      </trkpt>
      <trkpt lat="45.8852" lon="4.6062">
        <ele>250.53906</ele>
        <time>2023-12-07T13:18:16.000Z</time>
      </trkpt>
      <trkpt lat="45.88518" lon="4.60616">
        <ele>250.7292</ele>
        <time>2023-12-07T13:18:17.000Z</time>
      </trkpt>
      <trkpt lat="45.88516" lon="4.60612">
        <ele>250.86035</ele>
        <time>2023-12-07T13:18:18.000Z</time>
      </trkpt>
      <trkpt lat="45.88514" lon="4.60609">
        <ele>250.93962</ele>
        <time>2023-12-07T13:18:19.000Z</time>
      </trkpt>
      <trkpt lat="45.88512" lon="4.60605">
        <ele>251.1414</ele>
        <time>2023-12-07T13:18:20.000Z</time>
      </trkpt>
      <trkpt lat="45.88511" lon="4.60601">
        <ele>251.21375</ele>
        <time>2023-12-07T13:18:21.000Z</time>
      </trkpt>
      <trkpt lat="45.88509" lon="4.60597">
        <ele>252.65596</ele>
        <time>2023-12-07T13:18:22.000Z</time>
      </trkpt>
      <trkpt lat="45.88507" lon="4.60593">
        <ele>254.18982</ele>
        <time>2023-12-07T13:18:23.000Z</time>
      </trkpt>
      <trkpt lat="45.88505" lon="4.60589">
        <ele>255.34805</ele>
        <time>2023-12-07T13:18:24.000Z</time>
      </trkpt>
      <trkpt lat="45.88503" lon="4.60585">
        <ele>256.55563</ele>
        <time>2023-12-07T13:18:25.000Z</time>
      </trkpt>
      <trkpt lat="45.88501" lon="4.60582">
        <ele>257.78998</ele>
        <time>2023-12-07T13:18:26.000Z</time>
      </trkpt>
      <trkpt lat="45.88499" lon="4.60578">
        <ele>259.02304</ele>
        <time>2023-12-07T13:18:27.000Z</time>
      </trkpt>
      <trkpt lat="45.88497" lon="4.60575">
        <ele>260.23434</ele>
        <time>2023-12-07T13:18:28.000Z</time>
      </trkpt>
      <trkpt lat="45.88496" lon="4.60572">
        <ele>261.44162</ele>
        <time>2023-12-07T13:18:29.000Z</time>
      </trkpt>
      <trkpt lat="45.88494" lon="4.60568">
        <ele>262.63919</ele>
        <time>2023-12-07T13:18:30.000Z</time>
      </trkpt>
      <trkpt lat="45.88493" lon="4.60565">
        <ele>263.74567</ele>
        <time>2023-12-07T13:18:31.000Z</time>
      </trkpt>
      <trkpt lat="45.88491" lon="4.60561">
        <ele>264.83932</ele>
        <time>2023-12-07T13:18:32.000Z</time>
      </trkpt>
      <trkpt lat="45.8849" lon="4.60558">
        <ele>265.94287</ele>
        <time>2023-12-07T13:18:33.000Z</time>
      </trkpt>
      <trkpt lat="45.88488" lon="4.60554">
        <ele>267.06415</ele>
        <time>2023-12-07T13:18:34.000Z</time>
      </trkpt>
      <trkpt lat="45.88486" lon="4.6055">
        <ele>268.17999</ele>
        <time>2023-12-07T13:18:35.000Z</time>
      </trkpt>
      <trkpt lat="45.88485" lon="4.60546">
        <ele>269.46124</ele>
        <time>2023-12-07T13:18:36.000Z</time>
      </trkpt>
      <trkpt lat="45.88483" lon="4.60542">
        <ele>270.75885</ele>
        <time>2023-12-07T13:18:37.000Z</time>
      </trkpt>
      <trkpt lat="45.88481" lon="4.60539">
        <ele>272.06604</ele>
        <time>2023-12-07T13:18:38.000Z</time>
      </trkpt>
      <trkpt lat="45.88479" lon="4.60535">
        <ele>273.39465</ele>
        <time>2023-12-07T13:18:39.000Z</time>
      </trkpt>
      <trkpt lat="45.88477" lon="4.60531">
        <ele>274.71967</ele>
        <time>2023-12-07T13:18:40.000Z</time>
      </trkpt>
      <trkpt lat="45.88476" lon="4.60527">
        <ele>276.16217</ele>
        <time>2023-12-07T13:18:41.000Z</time>
      </trkpt>
      <trkpt lat="45.88474" lon="4.60523">
        <ele>275.87247</ele>
        <time>2023-12-07T13:18:42.000Z</time>
      </trkpt>
      <trkpt lat="45.88472" lon="4.60519">
        <ele>275.57974</ele>
        <time>2023-12-07T13:18:43.000Z</time>
      </trkpt>
      <trkpt lat="45.8847" lon="4.60516">
        <ele>275.64188</ele>
        <time>2023-12-07T13:18:44.000Z</time>
      </trkpt>
      <trkpt lat="45.88468" lon="4.60512">
        <ele>275.64612</ele>
        <time>2023-12-07T13:18:45.000Z</time>
      </trkpt>
      <trkpt lat="45.88466" lon="4.60508">
        <ele>275.6286</ele>
        <time>2023-12-07T13:18:46.000Z</time>
      </trkpt>
      <trkpt lat="45.88464" lon="4.60504">
        <ele>275.61383</ele>
        <time>2023-12-07T13:18:47.000Z</time>
      </trkpt>
      <trkpt lat="45.88463" lon="4.605">
        <ele>275.59491</ele>
        <time>2023-12-07T13:18:48.000Z</time>
      </trkpt>
      <trkpt lat="45.88461" lon="4.60496">
        <ele>275.56427</ele>
        <time>2023-12-07T13:18:49.000Z</time>
      </trkpt>
      <trkpt lat="45.88459" lon="4.60492">
        <ele>275.63428</ele>
        <time>2023-12-07T13:18:50.000Z</time>
      </trkpt>
      <trkpt lat="45.88458" lon="4.60489">
        <ele>275.79865</ele>
        <time>2023-12-07T13:18:51.000Z</time>
      </trkpt>
      <trkpt lat="45.88456" lon="4.60485">
        <ele>275.95096</ele>
        <time>2023-12-07T13:18:52.000Z</time>
      </trkpt>
      <trkpt lat="45.88455" lon="4.60481">
        <ele>276.07962</ele>
        <time>2023-12-07T13:18:53.000Z</time>
      </trkpt>
      <trkpt lat="45.88453" lon="4.60477">
        <ele>276.19907</ele>
        <time>2023-12-07T13:18:54.000Z</time>
      </trkpt>
      <trkpt lat="45.88451" lon="4.60474">
        <ele>276.34134</ele>
        <time>2023-12-07T13:18:55.000Z</time>
      </trkpt>
      <trkpt lat="45.8845" lon="4.6047">
        <ele>276.50974</ele>
        <time>2023-12-07T13:18:56.000Z</time>
      </trkpt>
      <trkpt lat="45.88448" lon="4.60467">
        <ele>276.6694</ele>
        <time>2023-12-07T13:18:57.000Z</time>
      </trkpt>
      <trkpt lat="45.88446" lon="4.60463">
        <ele>276.81937</ele>
        <time>2023-12-07T13:18:58.000Z</time>
      </trkpt>
      <trkpt lat="45.88445" lon="4.6046">
        <ele>276.98645</ele>
        <time>2023-12-07T13:18:59.000Z</time>
      </trkpt>
      <trkpt lat="45.88443" lon="4.60456">
        <ele>277.14755</ele>
        <time>2023-12-07T13:19:00.000Z</time>
      </trkpt>
      <trkpt lat="45.88441" lon="4.60452">
        <ele>277.29828</ele>
        <time>2023-12-07T13:19:01.000Z</time>
      </trkpt>
      <trkpt lat="45.8844" lon="4.60449">
        <ele>277.44464</ele>
        <time>2023-12-07T13:19:02.000Z</time>
      </trkpt>
      <trkpt lat="45.88439" lon="4.60445">
        <ele>277.59601</ele>
        <time>2023-12-07T13:19:03.000Z</time>
      </trkpt>
      <trkpt lat="45.88437" lon="4.60442">
        <ele>277.74597</ele>
        <time>2023-12-07T13:19:04.000Z</time>
      </trkpt>
      <trkpt lat="45.88436" lon="4.60438">
        <ele>277.88483</ele>
        <time>2023-12-07T13:19:05.000Z</time>
      </trkpt>
      <trkpt lat="45.88434" lon="4.60435">
        <ele>278.01251</ele>
        <time>2023-12-07T13:19:06.000Z</time>
      </trkpt>
      <trkpt lat="45.88433" lon="4.60432">
        <ele>278.13876</ele>
        <time>2023-12-07T13:19:07.000Z</time>
      </trkpt>
      <trkpt lat="45.88432" lon="4.60429">
        <ele>278.26886</ele>
        <time>2023-12-07T13:19:08.000Z</time>
      </trkpt>
      <trkpt lat="45.8843" lon="4.60426">
        <ele>278.40372</ele>
        <time>2023-12-07T13:19:09.000Z</time>
      </trkpt>
      <trkpt lat="45.88429" lon="4.60423">
        <ele>278.40875</ele>
        <time>2023-12-07T13:19:10.000Z</time>
      </trkpt>
      <trkpt lat="45.88427" lon="4.60421">
        <ele>278.39651</ele>
        <time>2023-12-07T13:19:11.000Z</time>
      </trkpt>
      <trkpt lat="45.88425" lon="4.60417">
        <ele>278.39581</ele>
        <time>2023-12-07T13:19:12.000Z</time>
      </trkpt>
      <trkpt lat="45.88423" lon="4.60414">
        <ele>278.39407</ele>
        <time>2023-12-07T13:19:13.000Z</time>
      </trkpt>
      <trkpt lat="45.88421" lon="4.6041">
        <ele>278.38406</ele>
        <time>2023-12-07T13:19:14.000Z</time>
      </trkpt>
      <trkpt lat="45.8842" lon="4.60407">
        <ele>278.34195</ele>
        <time>2023-12-07T13:19:15.000Z</time>
      </trkpt>
      <trkpt lat="45.88418" lon="4.60403">
        <ele>278.26349</ele>
        <time>2023-12-07T13:19:16.000Z</time>
      </trkpt>
      <trkpt lat="45.88417" lon="4.60399">
        <ele>278.16092</ele>
        <time>2023-12-07T13:19:17.000Z</time>
      </trkpt>
      <trkpt lat="45.88416" lon="4.60396">
        <ele>278.06995</ele>
        <time>2023-12-07T13:19:18.000Z</time>
      </trkpt>
      <trkpt lat="45.88415" lon="4.60394">
        <ele>277.96735</ele>
        <time>2023-12-07T13:19:19.000Z</time>
      </trkpt>
      <trkpt lat="45.88413" lon="4.60392">
        <ele>277.85583</ele>
        <time>2023-12-07T13:19:20.000Z</time>
      </trkpt>
      <trkpt lat="45.88409" lon="4.60391">
        <ele>277.80157</ele>
        <time>2023-12-07T13:19:21.000Z</time>
      </trkpt>
      <trkpt lat="45.88406" lon="4.60392">
        <ele>277.76263</ele>
        <time>2023-12-07T13:19:22.000Z</time>
      </trkpt>
      <trkpt lat="45.88403" lon="4.60394">
        <ele>277.7243</ele>
        <time>2023-12-07T13:19:23.000Z</time>
      </trkpt>
      <trkpt lat="45.884" lon="4.60397">
        <ele>277.69754</ele>
        <time>2023-12-07T13:19:24.000Z</time>
      </trkpt>
      <trkpt lat="45.88397" lon="4.604">
        <ele>277.7121</ele>
        <time>2023-12-07T13:19:25.000Z</time>
      </trkpt>
      <trkpt lat="45.88394" lon="4.60402">
        <ele>277.75739</ele>
        <time>2023-12-07T13:19:26.000Z</time>
      </trkpt>
      <trkpt lat="45.88391" lon="4.60405">
        <ele>277.78839</ele>
        <time>2023-12-07T13:19:27.000Z</time>
      </trkpt>
      <trkpt lat="45.88388" lon="4.60407">
        <ele>277.81122</ele>
        <time>2023-12-07T13:19:28.000Z</time>
      </trkpt>
      <trkpt lat="45.88386" lon="4.6041">
        <ele>277.84564</ele>
        <time>2023-12-07T13:19:29.000Z</time>
      </trkpt>
      <trkpt lat="45.88383" lon="4.60412">
        <ele>278.0643</ele>
        <time>2023-12-07T13:19:30.000Z</time>
      </trkpt>
      <trkpt lat="45.88381" lon="4.60414">
        <ele>278.41425</ele>
        <time>2023-12-07T13:19:31.000Z</time>
      </trkpt>
      <trkpt lat="45.88378" lon="4.60415">
        <ele>277.37531</ele>
        <time>2023-12-07T13:19:32.000Z</time>
      </trkpt>
      <trkpt lat="45.88375" lon="4.60416">
        <ele>276.34775</ele>
        <time>2023-12-07T13:19:33.000Z</time>
      </trkpt>
      <trkpt lat="45.88372" lon="4.60416">
        <ele>275.33475</ele>
        <time>2023-12-07T13:19:34.000Z</time>
      </trkpt>
      <trkpt lat="45.88369" lon="4.60417">
        <ele>274.65936</ele>
        <time>2023-12-07T13:19:35.000Z</time>
      </trkpt>
      <trkpt lat="45.88364" lon="4.60416">
        <ele>273.92609</ele>
        <time>2023-12-07T13:19:36.000Z</time>
      </trkpt>
      <trkpt lat="45.8836" lon="4.60415">
        <ele>273.23367</ele>
        <time>2023-12-07T13:19:37.000Z</time>
      </trkpt>
      <trkpt lat="45.88355" lon="4.60412">
        <ele>272.51251</ele>
        <time>2023-12-07T13:19:38.000Z</time>
      </trkpt>
      <trkpt lat="45.88351" lon="4.6041">
        <ele>271.76785</ele>
        <time>2023-12-07T13:19:39.000Z</time>
      </trkpt>
      <trkpt lat="45.88346" lon="4.60406">
        <ele>271.03976</ele>
        <time>2023-12-07T13:19:40.000Z</time>
      </trkpt>
      <trkpt lat="45.88341" lon="4.60402">
        <ele>270.26288</ele>
        <time>2023-12-07T13:19:41.000Z</time>
      </trkpt>
      <trkpt lat="45.88336" lon="4.60398">
        <ele>269.47028</ele>
        <time>2023-12-07T13:19:42.000Z</time>
      </trkpt>
      <trkpt lat="45.88331" lon="4.60395">
        <ele>268.64542</ele>
        <time>2023-12-07T13:19:43.000Z</time>
      </trkpt>
      <trkpt lat="45.88326" lon="4.60393">
        <ele>267.80231</ele>
        <time>2023-12-07T13:19:44.000Z</time>
      </trkpt>
      <trkpt lat="45.8832" lon="4.60391">
        <ele>266.79669</ele>
        <time>2023-12-07T13:19:45.000Z</time>
      </trkpt>
      <trkpt lat="45.88315" lon="4.6039">
        <ele>265.72699</ele>
        <time>2023-12-07T13:19:46.000Z</time>
      </trkpt>
      <trkpt lat="45.88309" lon="4.60388">
        <ele>264.67215</ele>
        <time>2023-12-07T13:19:47.000Z</time>
      </trkpt>
      <trkpt lat="45.88304" lon="4.60388">
        <ele>263.6188</ele>
        <time>2023-12-07T13:19:48.000Z</time>
      </trkpt>
      <trkpt lat="45.88299" lon="4.60387">
        <ele>262.55685</ele>
        <time>2023-12-07T13:19:49.000Z</time>
      </trkpt>
      <trkpt lat="45.88294" lon="4.60389">
        <ele>261.27115</ele>
        <time>2023-12-07T13:19:50.000Z</time>
      </trkpt>
      <trkpt lat="45.88289" lon="4.6039">
        <ele>259.85556</ele>
        <time>2023-12-07T13:19:51.000Z</time>
      </trkpt>
      <trkpt lat="45.88286" lon="4.6039">
        <ele>260.06775</ele>
        <time>2023-12-07T13:19:52.000Z</time>
      </trkpt>
      <trkpt lat="45.88282" lon="4.6039">
        <ele>260.12341</ele>
        <time>2023-12-07T13:19:53.000Z</time>
      </trkpt>
      <trkpt lat="45.88279" lon="4.60392">
        <ele>260.13821</ele>
        <time>2023-12-07T13:19:54.000Z</time>
      </trkpt>
      <trkpt lat="45.88274" lon="4.60391">
        <ele>259.82941</ele>
        <time>2023-12-07T13:19:55.000Z</time>
      </trkpt>
      <trkpt lat="45.8827" lon="4.60392">
        <ele>259.44849</ele>
        <time>2023-12-07T13:19:56.000Z</time>
      </trkpt>
      <trkpt lat="45.88266" lon="4.60392">
        <ele>259.09747</ele>
        <time>2023-12-07T13:19:57.000Z</time>
      </trkpt>
      <trkpt lat="45.88262" lon="4.60394">
        <ele>258.68921</ele>
        <time>2023-12-07T13:19:58.000Z</time>
      </trkpt>
      <trkpt lat="45.88258" lon="4.60394">
        <ele>258.27173</ele>
        <time>2023-12-07T13:19:59.000Z</time>
      </trkpt>
      <trkpt lat="45.88254" lon="4.60394">
        <ele>258.15097</ele>
        <time>2023-12-07T13:20:00.000Z</time>
      </trkpt>
      <trkpt lat="45.8825" lon="4.60395">
        <ele>258.02829</ele>
        <time>2023-12-07T13:20:01.000Z</time>
      </trkpt>
      <trkpt lat="45.88247" lon="4.60395">
        <ele>257.91534</ele>
        <time>2023-12-07T13:20:02.000Z</time>
      </trkpt>
      <trkpt lat="45.88243" lon="4.60395">
        <ele>257.8183</ele>
        <time>2023-12-07T13:20:03.000Z</time>
      </trkpt>
      <trkpt lat="45.88239" lon="4.60395">
        <ele>257.77371</ele>
        <time>2023-12-07T13:20:04.000Z</time>
      </trkpt>
      <trkpt lat="45.88235" lon="4.60395">
        <ele>257.87335</ele>
        <time>2023-12-07T13:20:05.000Z</time>
      </trkpt>
      <trkpt lat="45.88231" lon="4.60395">
        <ele>257.97827</ele>
        <time>2023-12-07T13:20:06.000Z</time>
      </trkpt>
      <trkpt lat="45.88228" lon="4.60394">
        <ele>258.10129</ele>
        <time>2023-12-07T13:20:07.000Z</time>
      </trkpt>
      <trkpt lat="45.88224" lon="4.60393">
        <ele>258.16705</ele>
        <time>2023-12-07T13:20:08.000Z</time>
      </trkpt>
      <trkpt lat="45.88221" lon="4.60392">
        <ele>258.19025</ele>
        <time>2023-12-07T13:20:09.000Z</time>
      </trkpt>
      <trkpt lat="45.88217" lon="4.60391">
        <ele>258.34897</ele>
        <time>2023-12-07T13:20:10.000Z</time>
      </trkpt>
      <trkpt lat="45.88213" lon="4.60389">
        <ele>258.43073</ele>
        <time>2023-12-07T13:20:11.000Z</time>
      </trkpt>
      <trkpt lat="45.88209" lon="4.60388">
        <ele>258.29456</ele>
        <time>2023-12-07T13:20:12.000Z</time>
      </trkpt>
      <trkpt lat="45.88203" lon="4.60384">
        <ele>258.46552</ele>
        <time>2023-12-07T13:20:13.000Z</time>
      </trkpt>
      <trkpt lat="45.88198" lon="4.60381">
        <ele>258.77539</ele>
        <time>2023-12-07T13:20:14.000Z</time>
      </trkpt>
      <trkpt lat="45.88194" lon="4.60378">
        <ele>259.13553</ele>
        <time>2023-12-07T13:20:15.000Z</time>
      </trkpt>
      <trkpt lat="45.88189" lon="4.60376">
        <ele>259.64886</ele>
        <time>2023-12-07T13:20:16.000Z</time>
      </trkpt>
      <trkpt lat="45.88185" lon="4.60373">
        <ele>260.12527</ele>
        <time>2023-12-07T13:20:17.000Z</time>
      </trkpt>
      <trkpt lat="45.88181" lon="4.60371">
        <ele>260.69974</ele>
        <time>2023-12-07T13:20:18.000Z</time>
      </trkpt>
      <trkpt lat="45.88178" lon="4.60367">
        <ele>261.24078</ele>
        <time>2023-12-07T13:20:19.000Z</time>
      </trkpt>
      <trkpt lat="45.88174" lon="4.60363">
        <ele>261.57135</ele>
        <time>2023-12-07T13:20:20.000Z</time>
      </trkpt>
      <trkpt lat="45.8817" lon="4.60358">
        <ele>261.94305</ele>
        <time>2023-12-07T13:20:21.000Z</time>
      </trkpt>
      <trkpt lat="45.88167" lon="4.60354">
        <ele>262.3689</ele>
        <time>2023-12-07T13:20:22.000Z</time>
      </trkpt>
      <trkpt lat="45.88164" lon="4.6035">
        <ele>262.79373</ele>
        <time>2023-12-07T13:20:23.000Z</time>
      </trkpt>
      <trkpt lat="45.88162" lon="4.60345">
        <ele>263.13556</ele>
        <time>2023-12-07T13:20:24.000Z</time>
      </trkpt>
      <trkpt lat="45.8816" lon="4.60339">
        <ele>263.50601</ele>
        <time>2023-12-07T13:20:25.000Z</time>
      </trkpt>
      <trkpt lat="45.8816" lon="4.60334">
        <ele>263.7514</ele>
        <time>2023-12-07T13:20:26.000Z</time>
      </trkpt>
      <trkpt lat="45.88159" lon="4.60329">
        <ele>264.00128</ele>
        <time>2023-12-07T13:20:27.000Z</time>
      </trkpt>
      <trkpt lat="45.8816" lon="4.60323">
        <ele>264.30923</ele>
        <time>2023-12-07T13:20:28.000Z</time>
      </trkpt>
      <trkpt lat="45.88161" lon="4.60318">
        <ele>264.68851</ele>
        <time>2023-12-07T13:20:29.000Z</time>
      </trkpt>
      <trkpt lat="45.88163" lon="4.60314">
        <ele>264.91187</ele>
        <time>2023-12-07T13:20:30.000Z</time>
      </trkpt>
      <trkpt lat="45.88166" lon="4.6031">
        <ele>265.20804</ele>
        <time>2023-12-07T13:20:31.000Z</time>
      </trkpt>
      <trkpt lat="45.88169" lon="4.60306">
        <ele>265.76349</ele>
        <time>2023-12-07T13:20:32.000Z</time>
      </trkpt>
      <trkpt lat="45.88171" lon="4.60303">
        <ele>266.09247</ele>
        <time>2023-12-07T13:20:33.000Z</time>
      </trkpt>
      <trkpt lat="45.88174" lon="4.60299">
        <ele>266.37332</ele>
        <time>2023-12-07T13:20:34.000Z</time>
      </trkpt>
      <trkpt lat="45.88176" lon="4.60295">
        <ele>266.62292</ele>
        <time>2023-12-07T13:20:35.000Z</time>
      </trkpt>
      <trkpt lat="45.88178" lon="4.60292">
        <ele>266.88773</ele>
        <time>2023-12-07T13:20:36.000Z</time>
      </trkpt>
      <trkpt lat="45.88181" lon="4.60289">
        <ele>267.14453</ele>
        <time>2023-12-07T13:20:37.000Z</time>
      </trkpt>
      <trkpt lat="45.88183" lon="4.60286">
        <ele>267.36798</ele>
        <time>2023-12-07T13:20:38.000Z</time>
      </trkpt>
      <trkpt lat="45.88185" lon="4.60283">
        <ele>267.6936</ele>
        <time>2023-12-07T13:20:39.000Z</time>
      </trkpt>
      <trkpt lat="45.88186" lon="4.6028">
        <ele>267.89963</ele>
        <time>2023-12-07T13:20:40.000Z</time>
      </trkpt>
      <trkpt lat="45.88187" lon="4.60277">
        <ele>268.10562</ele>
        <time>2023-12-07T13:20:41.000Z</time>
      </trkpt>
      <trkpt lat="45.88189" lon="4.60273">
        <ele>268.24411</ele>
        <time>2023-12-07T13:20:42.000Z</time>
      </trkpt>
      <trkpt lat="45.8819" lon="4.60271">
        <ele>268.36697</ele>
        <time>2023-12-07T13:20:43.000Z</time>
      </trkpt>
      <trkpt lat="45.88191" lon="4.60268">
        <ele>268.52307</ele>
        <time>2023-12-07T13:20:44.000Z</time>
      </trkpt>
      <trkpt lat="45.88192" lon="4.60266">
        <ele>268.48795</ele>
        <time>2023-12-07T13:20:45.000Z</time>
      </trkpt>
      <trkpt lat="45.88194" lon="4.60264">
        <ele>268.53394</ele>
        <time>2023-12-07T13:20:46.000Z</time>
      </trkpt>
      <trkpt lat="45.88196" lon="4.60262">
        <ele>268.55267</ele>
        <time>2023-12-07T13:20:47.000Z</time>
      </trkpt>
      <trkpt lat="45.88199" lon="4.6026">
        <ele>268.53751</ele>
        <time>2023-12-07T13:20:48.000Z</time>
      </trkpt>
      <trkpt lat="45.88203" lon="4.60258">
        <ele>268.40109</ele>
        <time>2023-12-07T13:20:49.000Z</time>
      </trkpt>
      <trkpt lat="45.88207" lon="4.60257">
        <ele>268.64798</ele>
        <time>2023-12-07T13:20:50.000Z</time>
      </trkpt>
      <trkpt lat="45.88211" lon="4.60256">
        <ele>268.84698</ele>
        <time>2023-12-07T13:20:51.000Z</time>
      </trkpt>
      <trkpt lat="45.88215" lon="4.60254">
        <ele>268.71094</ele>
        <time>2023-12-07T13:20:52.000Z</time>
      </trkpt>
      <trkpt lat="45.8822" lon="4.60255">
        <ele>268.6817</ele>
        <time>2023-12-07T13:20:53.000Z</time>
      </trkpt>
      <trkpt lat="45.88224" lon="4.60252">
        <ele>268.60483</ele>
        <time>2023-12-07T13:20:54.000Z</time>
      </trkpt>
      <trkpt lat="45.88226" lon="4.60247">
        <ele>268.50833</ele>
        <time>2023-12-07T13:20:55.000Z</time>
      </trkpt>
      <trkpt lat="45.88227" lon="4.60242">
        <ele>268.37158</ele>
        <time>2023-12-07T13:20:56.000Z</time>
      </trkpt>
      <trkpt lat="45.88228" lon="4.60237">
        <ele>268.21967</ele>
        <time>2023-12-07T13:20:57.000Z</time>
      </trkpt>
      <trkpt lat="45.88227" lon="4.60231">
        <ele>268.08395</ele>
        <time>2023-12-07T13:20:58.000Z</time>
      </trkpt>
      <trkpt lat="45.88226" lon="4.60225">
        <ele>267.92038</ele>
        <time>2023-12-07T13:20:59.000Z</time>
      </trkpt>
      <trkpt lat="45.88224" lon="4.6022">
        <ele>267.77469</ele>
        <time>2023-12-07T13:21:00.000Z</time>
      </trkpt>
      <trkpt lat="45.88223" lon="4.60214">
        <ele>267.5517</ele>
        <time>2023-12-07T13:21:01.000Z</time>
      </trkpt>
      <trkpt lat="45.88222" lon="4.60209">
        <ele>267.29135</ele>
        <time>2023-12-07T13:21:02.000Z</time>
      </trkpt>
      <trkpt lat="45.88222" lon="4.60203">
        <ele>267.06659</ele>
        <time>2023-12-07T13:21:03.000Z</time>
      </trkpt>
      <trkpt lat="45.88221" lon="4.60196">
        <ele>266.85126</ele>
        <time>2023-12-07T13:21:04.000Z</time>
      </trkpt>
      <trkpt lat="45.8822" lon="4.6019">
        <ele>266.77283</ele>
        <time>2023-12-07T13:21:05.000Z</time>
      </trkpt>
      <trkpt lat="45.88218" lon="4.60184">
        <ele>266.65054</ele>
        <time>2023-12-07T13:21:06.000Z</time>
      </trkpt>
      <trkpt lat="45.88217" lon="4.60178">
        <ele>266.4498</ele>
        <time>2023-12-07T13:21:07.000Z</time>
      </trkpt>
      <trkpt lat="45.88215" lon="4.60173">
        <ele>266.24731</ele>
        <time>2023-12-07T13:21:08.000Z</time>
      </trkpt>
      <trkpt lat="45.88213" lon="4.60167">
        <ele>266.11047</ele>
        <time>2023-12-07T13:21:09.000Z</time>
      </trkpt>
      <trkpt lat="45.88209" lon="4.60163">
        <ele>265.9025</ele>
        <time>2023-12-07T13:21:10.000Z</time>
      </trkpt>
      <trkpt lat="45.88205" lon="4.60158">
        <ele>265.68146</ele>
        <time>2023-12-07T13:21:11.000Z</time>
      </trkpt>
      <trkpt lat="45.882" lon="4.60154">
        <ele>265.4823</ele>
        <time>2023-12-07T13:21:12.000Z</time>
      </trkpt>
      <trkpt lat="45.88194" lon="4.6015">
        <ele>265.1889</ele>
        <time>2023-12-07T13:21:13.000Z</time>
      </trkpt>
      <trkpt lat="45.88188" lon="4.60144">
        <ele>264.81094</ele>
        <time>2023-12-07T13:21:14.000Z</time>
      </trkpt>
      <trkpt lat="45.88182" lon="4.60141">
        <ele>264.44781</ele>
        <time>2023-12-07T13:21:15.000Z</time>
      </trkpt>
      <trkpt lat="45.88175" lon="4.60136">
        <ele>263.96613</ele>
        <time>2023-12-07T13:21:16.000Z</time>
      </trkpt>
      <trkpt lat="45.88169" lon="4.60131">
        <ele>263.46893</ele>
        <time>2023-12-07T13:21:17.000Z</time>
      </trkpt>
      <trkpt lat="45.88162" lon="4.60126">
        <ele>262.9082</ele>
        <time>2023-12-07T13:21:18.000Z</time>
      </trkpt>
      <trkpt lat="45.88155" lon="4.60121">
        <ele>262.33771</ele>
        <time>2023-12-07T13:21:19.000Z</time>
      </trkpt>
      <trkpt lat="45.88149" lon="4.60118">
        <ele>261.92303</ele>
        <time>2023-12-07T13:21:20.000Z</time>
      </trkpt>
      <trkpt lat="45.88143" lon="4.60113">
        <ele>261.5192</ele>
        <time>2023-12-07T13:21:21.000Z</time>
      </trkpt>
      <trkpt lat="45.88139" lon="4.60109">
        <ele>261.13712</ele>
        <time>2023-12-07T13:21:22.000Z</time>
      </trkpt>
      <trkpt lat="45.88136" lon="4.60104">
        <ele>260.64142</ele>
        <time>2023-12-07T13:21:23.000Z</time>
      </trkpt>
      <trkpt lat="45.88132" lon="4.60101">
        <ele>260.16769</ele>
        <time>2023-12-07T13:21:24.000Z</time>
      </trkpt>
      <trkpt lat="45.88128" lon="4.601">
        <ele>259.69397</ele>
        <time>2023-12-07T13:21:25.000Z</time>
      </trkpt>
      <trkpt lat="45.88125" lon="4.60098">
        <ele>259.34674</ele>
        <time>2023-12-07T13:21:26.000Z</time>
      </trkpt>
      <trkpt lat="45.88121" lon="4.60096">
        <ele>259.03461</ele>
        <time>2023-12-07T13:21:27.000Z</time>
      </trkpt>
      <trkpt lat="45.88117" lon="4.60093">
        <ele>258.75671</ele>
        <time>2023-12-07T13:21:28.000Z</time>
      </trkpt>
      <trkpt lat="45.88113" lon="4.60089">
        <ele>258.50943</ele>
        <time>2023-12-07T13:21:29.000Z</time>
      </trkpt>
      <trkpt lat="45.88109" lon="4.60087">
        <ele>258.00998</ele>
        <time>2023-12-07T13:21:30.000Z</time>
      </trkpt>
      <trkpt lat="45.88104" lon="4.60082">
        <ele>257.53448</ele>
        <time>2023-12-07T13:21:31.000Z</time>
      </trkpt>
      <trkpt lat="45.88099" lon="4.60077">
        <ele>257.07678</ele>
        <time>2023-12-07T13:21:32.000Z</time>
      </trkpt>
      <trkpt lat="45.88094" lon="4.60073">
        <ele>256.66229</ele>
        <time>2023-12-07T13:21:33.000Z</time>
      </trkpt>
      <trkpt lat="45.88091" lon="4.60067">
        <ele>256.33929</ele>
        <time>2023-12-07T13:21:34.000Z</time>
      </trkpt>
      <trkpt lat="45.88086" lon="4.60061">
        <ele>255.96252</ele>
        <time>2023-12-07T13:21:35.000Z</time>
      </trkpt>
      <trkpt lat="45.88081" lon="4.60058">
        <ele>255.67549</ele>
        <time>2023-12-07T13:21:36.000Z</time>
      </trkpt>
      <trkpt lat="45.88076" lon="4.60053">
        <ele>255.36667</ele>
        <time>2023-12-07T13:21:37.000Z</time>
      </trkpt>
      <trkpt lat="45.88072" lon="4.6005">
        <ele>255.13077</ele>
        <time>2023-12-07T13:21:38.000Z</time>
      </trkpt>
      <trkpt lat="45.88069" lon="4.60046">
        <ele>254.87505</ele>
        <time>2023-12-07T13:21:39.000Z</time>
      </trkpt>
      <trkpt lat="45.88064" lon="4.60042">
        <ele>254.44563</ele>
        <time>2023-12-07T13:21:40.000Z</time>
      </trkpt>
      <trkpt lat="45.88061" lon="4.60035">
        <ele>254.09383</ele>
        <time>2023-12-07T13:21:41.000Z</time>
      </trkpt>
      <trkpt lat="45.88058" lon="4.60032">
        <ele>253.72102</ele>
        <time>2023-12-07T13:21:42.000Z</time>
      </trkpt>
      <trkpt lat="45.88054" lon="4.60026">
        <ele>253.58867</ele>
        <time>2023-12-07T13:21:43.000Z</time>
      </trkpt>
      <trkpt lat="45.88051" lon="4.6002">
        <ele>253.46201</ele>
        <time>2023-12-07T13:21:44.000Z</time>
      </trkpt>
      <trkpt lat="45.88046" lon="4.60014">
        <ele>253.32581</ele>
        <time>2023-12-07T13:21:45.000Z</time>
      </trkpt>
      <trkpt lat="45.88043" lon="4.60009">
        <ele>253.11829</ele>
        <time>2023-12-07T13:21:46.000Z</time>
      </trkpt>
      <trkpt lat="45.88041" lon="4.60004">
        <ele>252.93657</ele>
        <time>2023-12-07T13:21:47.000Z</time>
      </trkpt>
      <trkpt lat="45.8804" lon="4.59997">
        <ele>252.73935</ele>
        <time>2023-12-07T13:21:48.000Z</time>
      </trkpt>
      <trkpt lat="45.88039" lon="4.59991">
        <ele>252.53415</ele>
        <time>2023-12-07T13:21:49.000Z</time>
      </trkpt>
      <trkpt lat="45.88038" lon="4.59987">
        <ele>252.31131</ele>
        <time>2023-12-07T13:21:50.000Z</time>
      </trkpt>
      <trkpt lat="45.88039" lon="4.59983">
        <ele>252.10405</ele>
        <time>2023-12-07T13:21:51.000Z</time>
      </trkpt>
      <trkpt lat="45.88039" lon="4.5998">
        <ele>251.86703</ele>
        <time>2023-12-07T13:21:52.000Z</time>
      </trkpt>
      <trkpt lat="45.8804" lon="4.59976">
        <ele>251.6373</ele>
        <time>2023-12-07T13:21:53.000Z</time>
      </trkpt>
      <trkpt lat="45.8804" lon="4.59971">
        <ele>251.54317</ele>
        <time>2023-12-07T13:21:54.000Z</time>
      </trkpt>
      <trkpt lat="45.88041" lon="4.59967">
        <ele>251.49585</ele>
        <time>2023-12-07T13:21:55.000Z</time>
      </trkpt>
      <trkpt lat="45.88042" lon="4.59962">
        <ele>251.502</ele>
        <time>2023-12-07T13:21:56.000Z</time>
      </trkpt>
      <trkpt lat="45.88045" lon="4.59959">
        <ele>251.71704</ele>
        <time>2023-12-07T13:21:57.000Z</time>
      </trkpt>
      <trkpt lat="45.88046" lon="4.59957">
        <ele>252.00497</ele>
        <time>2023-12-07T13:21:58.000Z</time>
      </trkpt>
      <trkpt lat="45.88049" lon="4.59955">
        <ele>252.33603</ele>
        <time>2023-12-07T13:21:59.000Z</time>
      </trkpt>
      <trkpt lat="45.88052" lon="4.59953">
        <ele>252.73837</ele>
        <time>2023-12-07T13:22:00.000Z</time>
      </trkpt>
      <trkpt lat="45.88055" lon="4.59951">
        <ele>253.1329</ele>
        <time>2023-12-07T13:22:01.000Z</time>
      </trkpt>
      <trkpt lat="45.88058" lon="4.5995">
        <ele>253.57947</ele>
        <time>2023-12-07T13:22:02.000Z</time>
      </trkpt>
      <trkpt lat="45.88061" lon="4.59949">
        <ele>253.85999</ele>
        <time>2023-12-07T13:22:03.000Z</time>
      </trkpt>
      <trkpt lat="45.88064" lon="4.59948">
        <ele>254.09915</ele>
        <time>2023-12-07T13:22:04.000Z</time>
      </trkpt>
      <trkpt lat="45.88067" lon="4.59948">
        <ele>254.36263</ele>
        <time>2023-12-07T13:22:05.000Z</time>
      </trkpt>
      <trkpt lat="45.8807" lon="4.59947">
        <ele>254.69998</ele>
        <time>2023-12-07T13:22:06.000Z</time>
      </trkpt>
      <trkpt lat="45.88073" lon="4.59947">
        <ele>255.04143</ele>
        <time>2023-12-07T13:22:07.000Z</time>
      </trkpt>
      <trkpt lat="45.88075" lon="4.59947">
        <ele>255.40938</ele>
        <time>2023-12-07T13:22:08.000Z</time>
      </trkpt>
      <trkpt lat="45.88078" lon="4.59947">
        <ele>255.7876</ele>
        <time>2023-12-07T13:22:09.000Z</time>
      </trkpt>
      <trkpt lat="45.88081" lon="4.59948">
        <ele>256.23145</ele>
        <time>2023-12-07T13:22:10.000Z</time>
      </trkpt>
      <trkpt lat="45.88084" lon="4.59948">
        <ele>256.70282</ele>
        <time>2023-12-07T13:22:11.000Z</time>
      </trkpt>
      <trkpt lat="45.88088" lon="4.59948">
        <ele>257.24969</ele>
        <time>2023-12-07T13:22:12.000Z</time>
      </trkpt>
      <trkpt lat="45.88091" lon="4.59949">
        <ele>257.83319</ele>
        <time>2023-12-07T13:22:13.000Z</time>
      </trkpt>
      <trkpt lat="45.88095" lon="4.59949">
        <ele>258.22821</ele>
        <time>2023-12-07T13:22:14.000Z</time>
      </trkpt>
      <trkpt lat="45.88098" lon="4.5995">
        <ele>258.62555</ele>
        <time>2023-12-07T13:22:15.000Z</time>
      </trkpt>
      <trkpt lat="45.88101" lon="4.59951">
        <ele>259.04642</ele>
        <time>2023-12-07T13:22:16.000Z</time>
      </trkpt>
      <trkpt lat="45.88104" lon="4.59951">
        <ele>259.33508</ele>
        <time>2023-12-07T13:22:17.000Z</time>
      </trkpt>
      <trkpt lat="45.88108" lon="4.59952">
        <ele>259.52481</ele>
        <time>2023-12-07T13:22:18.000Z</time>
      </trkpt>
      <trkpt lat="45.88111" lon="4.59953">
        <ele>259.69171</ele>
        <time>2023-12-07T13:22:19.000Z</time>
      </trkpt>
      <trkpt lat="45.88114" lon="4.59953">
        <ele>259.82651</ele>
        <time>2023-12-07T13:22:20.000Z</time>
      </trkpt>
      <trkpt lat="45.88117" lon="4.59954">
        <ele>259.95798</ele>
        <time>2023-12-07T13:22:21.000Z</time>
      </trkpt>
      <trkpt lat="45.8812" lon="4.59953">
        <ele>260.14676</ele>
        <time>2023-12-07T13:22:22.000Z</time>
      </trkpt>
      <trkpt lat="45.88123" lon="4.59952">
        <ele>260.34424</ele>
        <time>2023-12-07T13:22:23.000Z</time>
      </trkpt>
      <trkpt lat="45.88126" lon="4.59951">
        <ele>260.55029</ele>
        <time>2023-12-07T13:22:24.000Z</time>
      </trkpt>
      <trkpt lat="45.88129" lon="4.5995">
        <ele>260.76025</ele>
        <time>2023-12-07T13:22:25.000Z</time>
      </trkpt>
      <trkpt lat="45.88131" lon="4.59948">
        <ele>260.97107</ele>
        <time>2023-12-07T13:22:26.000Z</time>
      </trkpt>
      <trkpt lat="45.88134" lon="4.59947">
        <ele>261.22351</ele>
        <time>2023-12-07T13:22:27.000Z</time>
      </trkpt>
      <trkpt lat="45.88137" lon="4.59945">
        <ele>261.51251</ele>
        <time>2023-12-07T13:22:28.000Z</time>
      </trkpt>
      <trkpt lat="45.8814" lon="4.59944">
        <ele>261.80515</ele>
        <time>2023-12-07T13:22:29.000Z</time>
      </trkpt>
      <trkpt lat="45.88143" lon="4.59942">
        <ele>262.0777</ele>
        <time>2023-12-07T13:22:30.000Z</time>
      </trkpt>
      <trkpt lat="45.88147" lon="4.59941">
        <ele>262.3721</ele>
        <time>2023-12-07T13:22:31.000Z</time>
      </trkpt>
      <trkpt lat="45.8815" lon="4.5994">
        <ele>262.63837</ele>
        <time>2023-12-07T13:22:32.000Z</time>
      </trkpt>
      <trkpt lat="45.88153" lon="4.59938">
        <ele>262.83881</ele>
        <time>2023-12-07T13:22:33.000Z</time>
      </trkpt>
      <trkpt lat="45.88155" lon="4.59937">
        <ele>263.23947</ele>
        <time>2023-12-07T13:22:34.000Z</time>
      </trkpt>
      <trkpt lat="45.88158" lon="4.59936">
        <ele>263.61749</ele>
        <time>2023-12-07T13:22:35.000Z</time>
      </trkpt>
      <trkpt lat="45.88161" lon="4.59934">
        <ele>263.92651</ele>
        <time>2023-12-07T13:22:36.000Z</time>
      </trkpt>
      <trkpt lat="45.88164" lon="4.59933">
        <ele>264.20343</ele>
        <time>2023-12-07T13:22:37.000Z</time>
      </trkpt>
      <trkpt lat="45.88166" lon="4.59931">
        <ele>264.52011</ele>
        <time>2023-12-07T13:22:38.000Z</time>
      </trkpt>
      <trkpt lat="45.88168" lon="4.59931">
        <ele>264.84534</ele>
        <time>2023-12-07T13:22:39.000Z</time>
      </trkpt>
      <trkpt lat="45.8817" lon="4.5993">
        <ele>265.18301</ele>
        <time>2023-12-07T13:22:40.000Z</time>
      </trkpt>
      <trkpt lat="45.88173" lon="4.59928">
        <ele>265.50934</ele>
        <time>2023-12-07T13:22:41.000Z</time>
      </trkpt>
      <trkpt lat="45.88176" lon="4.59927">
        <ele>265.81357</ele>
        <time>2023-12-07T13:22:42.000Z</time>
      </trkpt>
      <trkpt lat="45.88179" lon="4.59926">
        <ele>266.12372</ele>
        <time>2023-12-07T13:22:43.000Z</time>
      </trkpt>
      <trkpt lat="45.88181" lon="4.59925">
        <ele>266.42548</ele>
        <time>2023-12-07T13:22:44.000Z</time>
      </trkpt>
      <trkpt lat="45.88184" lon="4.59924">
        <ele>266.74036</ele>
        <time>2023-12-07T13:22:45.000Z</time>
      </trkpt>
      <trkpt lat="45.88187" lon="4.59924">
        <ele>267.07025</ele>
        <time>2023-12-07T13:22:46.000Z</time>
      </trkpt>
      <trkpt lat="45.8819" lon="4.59923">
        <ele>267.4024</ele>
        <time>2023-12-07T13:22:47.000Z</time>
      </trkpt>
      <trkpt lat="45.88193" lon="4.59922">
        <ele>267.69287</ele>
        <time>2023-12-07T13:22:48.000Z</time>
      </trkpt>
      <trkpt lat="45.88196" lon="4.59922">
        <ele>267.98502</ele>
        <time>2023-12-07T13:22:49.000Z</time>
      </trkpt>
      <trkpt lat="45.88198" lon="4.59921">
        <ele>268.26978</ele>
        <time>2023-12-07T13:22:50.000Z</time>
      </trkpt>
      <trkpt lat="45.88201" lon="4.59919">
        <ele>268.57465</ele>
        <time>2023-12-07T13:22:51.000Z</time>
      </trkpt>
      <trkpt lat="45.88204" lon="4.59918">
        <ele>268.91837</ele>
        <time>2023-12-07T13:22:52.000Z</time>
      </trkpt>
      <trkpt lat="45.88206" lon="4.59917">
        <ele>269.30304</ele>
        <time>2023-12-07T13:22:53.000Z</time>
      </trkpt>
      <trkpt lat="45.88208" lon="4.59915">
        <ele>269.57336</ele>
        <time>2023-12-07T13:22:54.000Z</time>
      </trkpt>
      <trkpt lat="45.88211" lon="4.59914">
        <ele>269.89999</ele>
        <time>2023-12-07T13:22:55.000Z</time>
      </trkpt>
      <trkpt lat="45.88214" lon="4.59912">
        <ele>270.27628</ele>
        <time>2023-12-07T13:22:56.000Z</time>
      </trkpt>
      <trkpt lat="45.88216" lon="4.59911">
        <ele>270.67099</ele>
        <time>2023-12-07T13:22:57.000Z</time>
      </trkpt>
      <trkpt lat="45.88219" lon="4.59909">
        <ele>270.59888</ele>
        <time>2023-12-07T13:22:58.000Z</time>
      </trkpt>
      <trkpt lat="45.88222" lon="4.59908">
        <ele>270.65765</ele>
        <time>2023-12-07T13:22:59.000Z</time>
      </trkpt>
      <trkpt lat="45.88225" lon="4.59907">
        <ele>270.71127</ele>
        <time>2023-12-07T13:23:00.000Z</time>
      </trkpt>
      <trkpt lat="45.88228" lon="4.59905">
        <ele>270.78741</ele>
        <time>2023-12-07T13:23:01.000Z</time>
      </trkpt>
      <trkpt lat="45.88231" lon="4.59904">
        <ele>270.82263</ele>
        <time>2023-12-07T13:23:02.000Z</time>
      </trkpt>
      <trkpt lat="45.88234" lon="4.59902">
        <ele>270.85895</ele>
        <time>2023-12-07T13:23:03.000Z</time>
      </trkpt>
      <trkpt lat="45.88236" lon="4.59901">
        <ele>270.92255</ele>
        <time>2023-12-07T13:23:04.000Z</time>
      </trkpt>
      <trkpt lat="45.88239" lon="4.59899">
        <ele>270.91916</ele>
        <time>2023-12-07T13:23:05.000Z</time>
      </trkpt>
      <trkpt lat="45.88241" lon="4.59897">
        <ele>270.93243</ele>
        <time>2023-12-07T13:23:06.000Z</time>
      </trkpt>
      <trkpt lat="45.88244" lon="4.59896">
        <ele>270.92798</ele>
        <time>2023-12-07T13:23:07.000Z</time>
      </trkpt>
      <trkpt lat="45.88247" lon="4.59894">
        <ele>270.89035</ele>
        <time>2023-12-07T13:23:08.000Z</time>
      </trkpt>
      <trkpt lat="45.8825" lon="4.59892">
        <ele>270.82501</ele>
        <time>2023-12-07T13:23:09.000Z</time>
      </trkpt>
      <trkpt lat="45.88253" lon="4.5989">
        <ele>270.745</ele>
        <time>2023-12-07T13:23:10.000Z</time>
      </trkpt>
      <trkpt lat="45.88256" lon="4.59887">
        <ele>270.62512</ele>
        <time>2023-12-07T13:23:11.000Z</time>
      </trkpt>
      <trkpt lat="45.88259" lon="4.59885">
        <ele>270.47998</ele>
        <time>2023-12-07T13:23:12.000Z</time>
      </trkpt>
      <trkpt lat="45.88261" lon="4.59882">
        <ele>270.36078</ele>
        <time>2023-12-07T13:23:13.000Z</time>
      </trkpt>
      <trkpt lat="45.88263" lon="4.59879">
        <ele>270.20123</ele>
        <time>2023-12-07T13:23:14.000Z</time>
      </trkpt>
      <trkpt lat="45.88265" lon="4.59876">
        <ele>270.00604</ele>
        <time>2023-12-07T13:23:15.000Z</time>
      </trkpt>
      <trkpt lat="45.88267" lon="4.59873">
        <ele>269.81723</ele>
        <time>2023-12-07T13:23:16.000Z</time>
      </trkpt>
      <trkpt lat="45.88269" lon="4.5987">
        <ele>269.6416</ele>
        <time>2023-12-07T13:23:17.000Z</time>
      </trkpt>
      <trkpt lat="45.88271" lon="4.59867">
        <ele>269.91876</ele>
        <time>2023-12-07T13:23:18.000Z</time>
      </trkpt>
      <trkpt lat="45.88272" lon="4.59863">
        <ele>270.11835</ele>
        <time>2023-12-07T13:23:19.000Z</time>
      </trkpt>
      <trkpt lat="45.88273" lon="4.59861">
        <ele>270.3085</ele>
        <time>2023-12-07T13:23:20.000Z</time>
      </trkpt>
      <trkpt lat="45.88274" lon="4.59858">
        <ele>270.45135</ele>
        <time>2023-12-07T13:23:21.000Z</time>
      </trkpt>
      <trkpt lat="45.88276" lon="4.59855">
        <ele>270.60934</ele>
        <time>2023-12-07T13:23:22.000Z</time>
      </trkpt>
      <trkpt lat="45.88277" lon="4.59852">
        <ele>270.74811</ele>
        <time>2023-12-07T13:23:23.000Z</time>
      </trkpt>
      <trkpt lat="45.88278" lon="4.59848">
        <ele>270.86914</ele>
        <time>2023-12-07T13:23:24.000Z</time>
      </trkpt>
      <trkpt lat="45.88279" lon="4.59845">
        <ele>271.05991</ele>
        <time>2023-12-07T13:23:25.000Z</time>
      </trkpt>
      <trkpt lat="45.8828" lon="4.59841">
        <ele>271.21268</ele>
        <time>2023-12-07T13:23:26.000Z</time>
      </trkpt>
      <trkpt lat="45.88281" lon="4.59838">
        <ele>271.3811</ele>
        <time>2023-12-07T13:23:27.000Z</time>
      </trkpt>
      <trkpt lat="45.88281" lon="4.59834">
        <ele>271.58948</ele>
        <time>2023-12-07T13:23:28.000Z</time>
      </trkpt>
      <trkpt lat="45.88282" lon="4.59831">
        <ele>271.82574</ele>
        <time>2023-12-07T13:23:29.000Z</time>
      </trkpt>
      <trkpt lat="45.88283" lon="4.59828">
        <ele>272.09198</ele>
        <time>2023-12-07T13:23:30.000Z</time>
      </trkpt>
      <trkpt lat="45.88284" lon="4.59824">
        <ele>272.36432</ele>
        <time>2023-12-07T13:23:32.000Z</time>
      </trkpt>
      <trkpt lat="45.88286" lon="4.59819">
        <ele>272.61362</ele>
        <time>2023-12-07T13:23:34.000Z</time>
      </trkpt>
      <trkpt lat="45.88287" lon="4.59817">
        <ele>272.84872</ele>
        <time>2023-12-07T13:23:35.000Z</time>
      </trkpt>
      <trkpt lat="45.88289" lon="4.59814">
        <ele>273.05511</ele>
        <time>2023-12-07T13:23:37.000Z</time>
      </trkpt>
      <trkpt lat="45.88292" lon="4.59812">
        <ele>273.21777</ele>
        <time>2023-12-07T13:23:39.000Z</time>
      </trkpt>
      <trkpt lat="45.88295" lon="4.59809">
        <ele>273.37985</ele>
        <time>2023-12-07T13:23:41.000Z</time>
      </trkpt>
      <trkpt lat="45.88297" lon="4.59807">
        <ele>273.52246</ele>
        <time>2023-12-07T13:23:42.000Z</time>
      </trkpt>
      <trkpt lat="45.88298" lon="4.59804">
        <ele>273.6283</ele>
        <time>2023-12-07T13:23:43.000Z</time>
      </trkpt>
      <trkpt lat="45.883" lon="4.59801">
        <ele>273.62234</ele>
        <time>2023-12-07T13:23:44.000Z</time>
      </trkpt>
      <trkpt lat="45.88301" lon="4.59799">
        <ele>273.62201</ele>
        <time>2023-12-07T13:23:45.000Z</time>
      </trkpt>
      <trkpt lat="45.88303" lon="4.59796">
        <ele>273.65182</ele>
        <time>2023-12-07T13:23:46.000Z</time>
      </trkpt>
      <trkpt lat="45.88305" lon="4.59794">
        <ele>273.65643</ele>
        <time>2023-12-07T13:23:47.000Z</time>
      </trkpt>
      <trkpt lat="45.88306" lon="4.59792">
        <ele>273.70844</ele>
        <time>2023-12-07T13:23:48.000Z</time>
      </trkpt>
      <trkpt lat="45.88308" lon="4.5979">
        <ele>273.72556</ele>
        <time>2023-12-07T13:23:49.000Z</time>
      </trkpt>
      <trkpt lat="45.88309" lon="4.59787">
        <ele>273.7345</ele>
        <time>2023-12-07T13:23:50.000Z</time>
      </trkpt>
      <trkpt lat="45.88311" lon="4.59785">
        <ele>273.72675</ele>
        <time>2023-12-07T13:23:51.000Z</time>
      </trkpt>
      <trkpt lat="45.88313" lon="4.59782">
        <ele>273.69086</ele>
        <time>2023-12-07T13:23:52.000Z</time>
      </trkpt>
      <trkpt lat="45.88315" lon="4.5978">
        <ele>273.64377</ele>
        <time>2023-12-07T13:23:53.000Z</time>
      </trkpt>
      <trkpt lat="45.88317" lon="4.59778">
        <ele>273.59033</ele>
        <time>2023-12-07T13:23:54.000Z</time>
      </trkpt>
      <trkpt lat="45.88319" lon="4.59777">
        <ele>273.50348</ele>
        <time>2023-12-07T13:23:55.000Z</time>
      </trkpt>
      <trkpt lat="45.88322" lon="4.59775">
        <ele>273.4035</ele>
        <time>2023-12-07T13:23:56.000Z</time>
      </trkpt>
      <trkpt lat="45.88325" lon="4.59773">
        <ele>273.29626</ele>
        <time>2023-12-07T13:23:57.000Z</time>
      </trkpt>
      <trkpt lat="45.88327" lon="4.5977">
        <ele>273.16476</ele>
        <time>2023-12-07T13:23:58.000Z</time>
      </trkpt>
      <trkpt lat="45.88329" lon="4.59765">
        <ele>273.0293</ele>
        <time>2023-12-07T13:23:59.000Z</time>
      </trkpt>
      <trkpt lat="45.8833" lon="4.59761">
        <ele>272.90567</ele>
        <time>2023-12-07T13:24:00.000Z</time>
      </trkpt>
      <trkpt lat="45.8833" lon="4.59756">
        <ele>272.80209</ele>
        <time>2023-12-07T13:24:01.000Z</time>
      </trkpt>
      <trkpt lat="45.88329" lon="4.59753">
        <ele>272.68692</ele>
        <time>2023-12-07T13:24:02.000Z</time>
      </trkpt>
      <trkpt lat="45.88329" lon="4.5975">
        <ele>272.5863</ele>
        <time>2023-12-07T13:24:03.000Z</time>
      </trkpt>
      <trkpt lat="45.88328" lon="4.59746">
        <ele>272.5506</ele>
        <time>2023-12-07T13:24:04.000Z</time>
      </trkpt>
      <trkpt lat="45.88328" lon="4.59743">
        <ele>272.51678</ele>
        <time>2023-12-07T13:24:05.000Z</time>
      </trkpt>
      <trkpt lat="45.88327" lon="4.5974">
        <ele>272.46545</ele>
        <time>2023-12-07T13:24:06.000Z</time>
      </trkpt>
      <trkpt lat="45.88327" lon="4.59737">
        <ele>272.43448</ele>
        <time>2023-12-07T13:24:07.000Z</time>
      </trkpt>
      <trkpt lat="45.88326" lon="4.59733">
        <ele>272.38864</ele>
        <time>2023-12-07T13:24:08.000Z</time>
      </trkpt>
      <trkpt lat="45.88326" lon="4.59729">
        <ele>272.36407</ele>
        <time>2023-12-07T13:24:09.000Z</time>
      </trkpt>
      <trkpt lat="45.88325" lon="4.59726">
        <ele>272.35648</ele>
        <time>2023-12-07T13:24:10.000Z</time>
      </trkpt>
      <trkpt lat="45.88324" lon="4.59723">
        <ele>272.34418</ele>
        <time>2023-12-07T13:24:11.000Z</time>
      </trkpt>
      <trkpt lat="45.88324" lon="4.59719">
        <ele>272.34979</ele>
        <time>2023-12-07T13:24:12.000Z</time>
      </trkpt>
      <trkpt lat="45.88323" lon="4.59715">
        <ele>272.32703</ele>
        <time>2023-12-07T13:24:13.000Z</time>
      </trkpt>
      <trkpt lat="45.88322" lon="4.59711">
        <ele>272.28119</ele>
        <time>2023-12-07T13:24:14.000Z</time>
      </trkpt>
      <trkpt lat="45.88322" lon="4.59707">
        <ele>272.27774</ele>
        <time>2023-12-07T13:24:15.000Z</time>
      </trkpt>
      <trkpt lat="45.8832" lon="4.59703">
        <ele>272.3205</ele>
        <time>2023-12-07T13:24:16.000Z</time>
      </trkpt>
      <trkpt lat="45.88319" lon="4.59699">
        <ele>272.35687</ele>
        <time>2023-12-07T13:24:17.000Z</time>
      </trkpt>
      <trkpt lat="45.88318" lon="4.59695">
        <ele>272.44531</ele>
        <time>2023-12-07T13:24:18.000Z</time>
      </trkpt>
      <trkpt lat="45.88317" lon="4.59691">
        <ele>272.52997</ele>
        <time>2023-12-07T13:24:19.000Z</time>
      </trkpt>
      <trkpt lat="45.88316" lon="4.59688">
        <ele>272.66269</ele>
        <time>2023-12-07T13:24:20.000Z</time>
      </trkpt>
      <trkpt lat="45.88315" lon="4.59684">
        <ele>272.76654</ele>
        <time>2023-12-07T13:24:21.000Z</time>
      </trkpt>
      <trkpt lat="45.88314" lon="4.5968">
        <ele>272.8624</ele>
        <time>2023-12-07T13:24:22.000Z</time>
      </trkpt>
      <trkpt lat="45.88313" lon="4.59676">
        <ele>272.99402</ele>
        <time>2023-12-07T13:24:23.000Z</time>
      </trkpt>
      <trkpt lat="45.88312" lon="4.59671">
        <ele>273.09583</ele>
        <time>2023-12-07T13:24:24.000Z</time>
      </trkpt>
      <trkpt lat="45.88311" lon="4.59667">
        <ele>273.18756</ele>
        <time>2023-12-07T13:24:25.000Z</time>
      </trkpt>
      <trkpt lat="45.8831" lon="4.59662">
        <ele>273.26929</ele>
        <time>2023-12-07T13:24:26.000Z</time>
      </trkpt>
      <trkpt lat="45.88309" lon="4.59658">
        <ele>273.34818</ele>
        <time>2023-12-07T13:24:27.000Z</time>
      </trkpt>
      <trkpt lat="45.88308" lon="4.59653">
        <ele>273.42679</ele>
        <time>2023-12-07T13:24:28.000Z</time>
      </trkpt>
      <trkpt lat="45.88307" lon="4.59648">
        <ele>273.52499</ele>
        <time>2023-12-07T13:24:29.000Z</time>
      </trkpt>
      <trkpt lat="45.88306" lon="4.59643">
        <ele>273.59085</ele>
        <time>2023-12-07T13:24:30.000Z</time>
      </trkpt>
      <trkpt lat="45.88305" lon="4.59639">
        <ele>273.6983</ele>
        <time>2023-12-07T13:24:31.000Z</time>
      </trkpt>
      <trkpt lat="45.88303" lon="4.59634">
        <ele>273.78619</ele>
        <time>2023-12-07T13:24:32.000Z</time>
      </trkpt>
      <trkpt lat="45.88302" lon="4.59629">
        <ele>273.84686</ele>
        <time>2023-12-07T13:24:33.000Z</time>
      </trkpt>
      <trkpt lat="45.88301" lon="4.59625">
        <ele>273.96182</ele>
        <time>2023-12-07T13:24:34.000Z</time>
      </trkpt>
      <trkpt lat="45.883" lon="4.5962">
        <ele>274.05417</ele>
        <time>2023-12-07T13:24:35.000Z</time>
      </trkpt>
      <trkpt lat="45.88299" lon="4.59616">
        <ele>274.11884</ele>
        <time>2023-12-07T13:24:36.000Z</time>
      </trkpt>
      <trkpt lat="45.88298" lon="4.59611">
        <ele>274.21222</ele>
        <time>2023-12-07T13:24:37.000Z</time>
      </trkpt>
      <trkpt lat="45.88296" lon="4.59607">
        <ele>274.31143</ele>
        <time>2023-12-07T13:24:38.000Z</time>
      </trkpt>
      <trkpt lat="45.88295" lon="4.59603">
        <ele>274.42429</ele>
        <time>2023-12-07T13:24:39.000Z</time>
      </trkpt>
      <trkpt lat="45.88294" lon="4.59598">
        <ele>274.56049</ele>
        <time>2023-12-07T13:24:40.000Z</time>
      </trkpt>
      <trkpt lat="45.88293" lon="4.59594">
        <ele>274.70441</ele>
        <time>2023-12-07T13:24:41.000Z</time>
      </trkpt>
      <trkpt lat="45.88292" lon="4.59589">
        <ele>274.87003</ele>
        <time>2023-12-07T13:24:42.000Z</time>
      </trkpt>
      <trkpt lat="45.88291" lon="4.59585">
        <ele>275.00504</ele>
        <time>2023-12-07T13:24:43.000Z</time>
      </trkpt>
      <trkpt lat="45.8829" lon="4.59581">
        <ele>275.12207</ele>
        <time>2023-12-07T13:24:44.000Z</time>
      </trkpt>
      <trkpt lat="45.8829" lon="4.59578">
        <ele>275.19305</ele>
        <time>2023-12-07T13:24:45.000Z</time>
      </trkpt>
      <trkpt lat="45.88291" lon="4.59574">
        <ele>275.31</ele>
        <time>2023-12-07T13:24:46.000Z</time>
      </trkpt>
      <trkpt lat="45.88291" lon="4.5957">
        <ele>275.43442</ele>
        <time>2023-12-07T13:24:47.000Z</time>
      </trkpt>
      <trkpt lat="45.88292" lon="4.59566">
        <ele>275.52649</ele>
        <time>2023-12-07T13:24:48.000Z</time>
      </trkpt>
      <trkpt lat="45.88292" lon="4.59562">
        <ele>275.57715</ele>
        <time>2023-12-07T13:24:49.000Z</time>
      </trkpt>
      <trkpt lat="45.88293" lon="4.59557">
        <ele>275.6001</ele>
        <time>2023-12-07T13:24:50.000Z</time>
      </trkpt>
      <trkpt lat="45.88293" lon="4.59553">
        <ele>275.60995</ele>
        <time>2023-12-07T13:24:51.000Z</time>
      </trkpt>
      <trkpt lat="45.88294" lon="4.59548">
        <ele>275.59781</ele>
        <time>2023-12-07T13:24:52.000Z</time>
      </trkpt>
      <trkpt lat="45.88295" lon="4.59543">
        <ele>275.65662</ele>
        <time>2023-12-07T13:24:53.000Z</time>
      </trkpt>
      <trkpt lat="45.88295" lon="4.59538">
        <ele>275.67163</ele>
        <time>2023-12-07T13:24:54.000Z</time>
      </trkpt>
      <trkpt lat="45.88296" lon="4.59532">
        <ele>275.64639</ele>
        <time>2023-12-07T13:24:55.000Z</time>
      </trkpt>
      <trkpt lat="45.88296" lon="4.59527">
        <ele>275.60004</ele>
        <time>2023-12-07T13:24:56.000Z</time>
      </trkpt>
      <trkpt lat="45.88295" lon="4.59521">
        <ele>275.55927</ele>
        <time>2023-12-07T13:24:57.000Z</time>
      </trkpt>
      <trkpt lat="45.88295" lon="4.59515">
        <ele>275.47968</ele>
        <time>2023-12-07T13:24:58.000Z</time>
      </trkpt>
      <trkpt lat="45.88295" lon="4.5951">
        <ele>275.41791</ele>
        <time>2023-12-07T13:24:59.000Z</time>
      </trkpt>
      <trkpt lat="45.88295" lon="4.59504">
        <ele>275.29639</ele>
        <time>2023-12-07T13:25:00.000Z</time>
      </trkpt>
      <trkpt lat="45.88295" lon="4.59499">
        <ele>275.15918</ele>
        <time>2023-12-07T13:25:01.000Z</time>
      </trkpt>
      <trkpt lat="45.88295" lon="4.59493">
        <ele>274.97412</ele>
        <time>2023-12-07T13:25:02.000Z</time>
      </trkpt>
      <trkpt lat="45.88295" lon="4.59488">
        <ele>274.83035</ele>
        <time>2023-12-07T13:25:03.000Z</time>
      </trkpt>
      <trkpt lat="45.88296" lon="4.59483">
        <ele>274.65805</ele>
        <time>2023-12-07T13:25:04.000Z</time>
      </trkpt>
      <trkpt lat="45.88296" lon="4.59478">
        <ele>274.48325</ele>
        <time>2023-12-07T13:25:05.000Z</time>
      </trkpt>
      <trkpt lat="45.88297" lon="4.59472">
        <ele>274.30353</ele>
        <time>2023-12-07T13:25:06.000Z</time>
      </trkpt>
      <trkpt lat="45.88297" lon="4.59466">
        <ele>274.07733</ele>
        <time>2023-12-07T13:25:07.000Z</time>
      </trkpt>
      <trkpt lat="45.88297" lon="4.59461">
        <ele>273.86069</ele>
        <time>2023-12-07T13:25:08.000Z</time>
      </trkpt>
      <trkpt lat="45.88298" lon="4.59455">
        <ele>273.58603</ele>
        <time>2023-12-07T13:25:09.000Z</time>
      </trkpt>
      <trkpt lat="45.88298" lon="4.5945">
        <ele>273.28122</ele>
        <time>2023-12-07T13:25:10.000Z</time>
      </trkpt>
      <trkpt lat="45.88297" lon="4.59445">
        <ele>273.05414</ele>
        <time>2023-12-07T13:25:11.000Z</time>
      </trkpt>
      <trkpt lat="45.88298" lon="4.59439">
        <ele>272.93335</ele>
        <time>2023-12-07T13:25:12.000Z</time>
      </trkpt>
      <trkpt lat="45.88298" lon="4.59434">
        <ele>272.73703</ele>
        <time>2023-12-07T13:25:13.000Z</time>
      </trkpt>
      <trkpt lat="45.88298" lon="4.59428">
        <ele>272.48007</ele>
        <time>2023-12-07T13:25:14.000Z</time>
      </trkpt>
      <trkpt lat="45.88299" lon="4.59423">
        <ele>272.28455</ele>
        <time>2023-12-07T13:25:15.000Z</time>
      </trkpt>
      <trkpt lat="45.883" lon="4.59417">
        <ele>272.10843</ele>
        <time>2023-12-07T13:25:16.000Z</time>
      </trkpt>
      <trkpt lat="45.88301" lon="4.5941">
        <ele>271.94745</ele>
        <time>2023-12-07T13:25:17.000Z</time>
      </trkpt>
      <trkpt lat="45.88301" lon="4.59404">
        <ele>271.85629</ele>
        <time>2023-12-07T13:25:18.000Z</time>
      </trkpt>
      <trkpt lat="45.88302" lon="4.59399">
        <ele>271.78818</ele>
        <time>2023-12-07T13:25:19.000Z</time>
      </trkpt>
      <trkpt lat="45.88303" lon="4.59393">
        <ele>271.758</ele>
        <time>2023-12-07T13:25:20.000Z</time>
      </trkpt>
      <trkpt lat="45.88305" lon="4.59387">
        <ele>271.74719</ele>
        <time>2023-12-07T13:25:21.000Z</time>
      </trkpt>
      <trkpt lat="45.88306" lon="4.59381">
        <ele>271.78091</ele>
        <time>2023-12-07T13:25:22.000Z</time>
      </trkpt>
      <trkpt lat="45.88308" lon="4.59372">
        <ele>271.78745</ele>
        <time>2023-12-07T13:25:23.000Z</time>
      </trkpt>
      <trkpt lat="45.88309" lon="4.59365">
        <ele>271.83728</ele>
        <time>2023-12-07T13:25:24.000Z</time>
      </trkpt>
      <trkpt lat="45.8831" lon="4.59359">
        <ele>271.90652</ele>
        <time>2023-12-07T13:25:25.000Z</time>
      </trkpt>
      <trkpt lat="45.88311" lon="4.59352">
        <ele>271.78073</ele>
        <time>2023-12-07T13:25:26.000Z</time>
      </trkpt>
      <trkpt lat="45.88312" lon="4.59347">
        <ele>271.69061</ele>
        <time>2023-12-07T13:25:27.000Z</time>
      </trkpt>
      <trkpt lat="45.88313" lon="4.59342">
        <ele>271.59192</ele>
        <time>2023-12-07T13:25:28.000Z</time>
      </trkpt>
      <trkpt lat="45.88313" lon="4.59336">
        <ele>271.44614</ele>
        <time>2023-12-07T13:25:29.000Z</time>
      </trkpt>
      <trkpt lat="45.88315" lon="4.59331">
        <ele>271.69168</ele>
        <time>2023-12-07T13:25:30.000Z</time>
      </trkpt>
      <trkpt lat="45.88316" lon="4.59325">
        <ele>271.7941</ele>
        <time>2023-12-07T13:25:31.000Z</time>
      </trkpt>
      <trkpt lat="45.88317" lon="4.5932">
        <ele>271.80286</ele>
        <time>2023-12-07T13:25:32.000Z</time>
      </trkpt>
      <trkpt lat="45.88319" lon="4.59314">
        <ele>271.84711</ele>
        <time>2023-12-07T13:25:33.000Z</time>
      </trkpt>
      <trkpt lat="45.88321" lon="4.59308">
        <ele>271.95123</ele>
        <time>2023-12-07T13:25:34.000Z</time>
      </trkpt>
      <trkpt lat="45.88324" lon="4.59301">
        <ele>272.01077</ele>
        <time>2023-12-07T13:25:35.000Z</time>
      </trkpt>
      <trkpt lat="45.88328" lon="4.59293">
        <ele>271.88107</ele>
        <time>2023-12-07T13:25:36.000Z</time>
      </trkpt>
      <trkpt lat="45.88331" lon="4.59286">
        <ele>271.68506</ele>
        <time>2023-12-07T13:25:37.000Z</time>
      </trkpt>
      <trkpt lat="45.88335" lon="4.59279">
        <ele>271.42044</ele>
        <time>2023-12-07T13:25:38.000Z</time>
      </trkpt>
      <trkpt lat="45.8834" lon="4.5927">
        <ele>271.1293</ele>
        <time>2023-12-07T13:25:39.000Z</time>
      </trkpt>
      <trkpt lat="45.88344" lon="4.59261">
        <ele>270.80334</ele>
        <time>2023-12-07T13:25:40.000Z</time>
      </trkpt>
      <trkpt lat="45.88348" lon="4.59252">
        <ele>270.4512</ele>
        <time>2023-12-07T13:25:41.000Z</time>
      </trkpt>
      <trkpt lat="45.88352" lon="4.59244">
        <ele>270.00311</ele>
        <time>2023-12-07T13:25:42.000Z</time>
      </trkpt>
      <trkpt lat="45.88356" lon="4.59235">
        <ele>269.4921</ele>
        <time>2023-12-07T13:25:43.000Z</time>
      </trkpt>
      <trkpt lat="45.88361" lon="4.59227">
        <ele>268.98297</ele>
        <time>2023-12-07T13:25:44.000Z</time>
      </trkpt>
      <trkpt lat="45.88366" lon="4.5922">
        <ele>268.77972</ele>
        <time>2023-12-07T13:25:45.000Z</time>
      </trkpt>
      <trkpt lat="45.88371" lon="4.59214">
        <ele>268.68353</ele>
        <time>2023-12-07T13:25:46.000Z</time>
      </trkpt>
      <trkpt lat="45.88377" lon="4.59208">
        <ele>268.37009</ele>
        <time>2023-12-07T13:25:47.000Z</time>
      </trkpt>
      <trkpt lat="45.88382" lon="4.59203">
        <ele>268.53647</ele>
        <time>2023-12-07T13:25:48.000Z</time>
      </trkpt>
      <trkpt lat="45.88388" lon="4.59199">
        <ele>268.83365</ele>
        <time>2023-12-07T13:25:49.000Z</time>
      </trkpt>
      <trkpt lat="45.88393" lon="4.59196">
        <ele>268.79425</ele>
        <time>2023-12-07T13:25:50.000Z</time>
      </trkpt>
      <trkpt lat="45.88398" lon="4.59193">
        <ele>268.83688</ele>
        <time>2023-12-07T13:25:51.000Z</time>
      </trkpt>
      <trkpt lat="45.88402" lon="4.59191">
        <ele>268.89032</ele>
        <time>2023-12-07T13:25:52.000Z</time>
      </trkpt>
      <trkpt lat="45.88406" lon="4.59187">
        <ele>268.96332</ele>
        <time>2023-12-07T13:25:53.000Z</time>
      </trkpt>
      <trkpt lat="45.88409" lon="4.59185">
        <ele>269.0451</ele>
        <time>2023-12-07T13:25:54.000Z</time>
      </trkpt>
      <trkpt lat="45.88412" lon="4.59181">
        <ele>269.10141</ele>
        <time>2023-12-07T13:25:55.000Z</time>
      </trkpt>
      <trkpt lat="45.88416" lon="4.59179">
        <ele>269.34018</ele>
        <time>2023-12-07T13:25:56.000Z</time>
      </trkpt>
      <trkpt lat="45.8842" lon="4.59177">
        <ele>269.64523</ele>
        <time>2023-12-07T13:25:57.000Z</time>
      </trkpt>
      <trkpt lat="45.88423" lon="4.59174">
        <ele>269.93915</ele>
        <time>2023-12-07T13:25:58.000Z</time>
      </trkpt>
      <trkpt lat="45.88425" lon="4.59171">
        <ele>270.28381</ele>
        <time>2023-12-07T13:25:59.000Z</time>
      </trkpt>
      <trkpt lat="45.88428" lon="4.59167">
        <ele>270.67288</ele>
        <time>2023-12-07T13:26:00.000Z</time>
      </trkpt>
      <trkpt lat="45.8843" lon="4.59165">
        <ele>271.07599</ele>
        <time>2023-12-07T13:26:01.000Z</time>
      </trkpt>
      <trkpt lat="45.88432" lon="4.59162">
        <ele>271.57977</ele>
        <time>2023-12-07T13:26:02.000Z</time>
      </trkpt>
      <trkpt lat="45.88433" lon="4.5916">
        <ele>271.52692</ele>
        <time>2023-12-07T13:26:03.000Z</time>
      </trkpt>
      <trkpt lat="45.88435" lon="4.59158">
        <ele>271.53317</ele>
        <time>2023-12-07T13:26:04.000Z</time>
      </trkpt>
      <trkpt lat="45.88436" lon="4.59155">
        <ele>271.16733</ele>
        <time>2023-12-07T13:26:06.000Z</time>
      </trkpt>
      <trkpt lat="45.88437" lon="4.59151">
        <ele>270.88455</ele>
        <time>2023-12-07T13:26:08.000Z</time>
      </trkpt>
      <trkpt lat="45.88438" lon="4.59149">
        <ele>270.49213</ele>
        <time>2023-12-07T13:26:10.000Z</time>
      </trkpt>
      <trkpt lat="45.88438" lon="4.59144">
        <ele>269.59979</ele>
        <time>2023-12-07T13:26:12.000Z</time>
      </trkpt>
      <trkpt lat="45.88438" lon="4.59141">
        <ele>268.6507</ele>
        <time>2023-12-07T13:26:13.000Z</time>
      </trkpt>
      <trkpt lat="45.88439" lon="4.59138">
        <ele>267.60028</ele>
        <time>2023-12-07T13:26:14.000Z</time>
      </trkpt>
      <trkpt lat="45.88439" lon="4.59135">
        <ele>266.59613</ele>
        <time>2023-12-07T13:26:15.000Z</time>
      </trkpt>
      <trkpt lat="45.8844" lon="4.59131">
        <ele>265.59781</ele>
        <time>2023-12-07T13:26:16.000Z</time>
      </trkpt>
      <trkpt lat="45.88441" lon="4.59128">
        <ele>264.68317</ele>
        <time>2023-12-07T13:26:17.000Z</time>
      </trkpt>
      <trkpt lat="45.88442" lon="4.59125">
        <ele>263.85675</ele>
        <time>2023-12-07T13:26:18.000Z</time>
      </trkpt>
      <trkpt lat="45.88442" lon="4.59121">
        <ele>263.18201</ele>
        <time>2023-12-07T13:26:19.000Z</time>
      </trkpt>
      <trkpt lat="45.88443" lon="4.59117">
        <ele>262.44751</ele>
        <time>2023-12-07T13:26:20.000Z</time>
      </trkpt>
      <trkpt lat="45.88444" lon="4.59113">
        <ele>261.68536</ele>
        <time>2023-12-07T13:26:21.000Z</time>
      </trkpt>
      <trkpt lat="45.88445" lon="4.59109">
        <ele>260.90735</ele>
        <time>2023-12-07T13:26:22.000Z</time>
      </trkpt>
      <trkpt lat="45.88446" lon="4.59106">
        <ele>260.08694</ele>
        <time>2023-12-07T13:26:23.000Z</time>
      </trkpt>
      <trkpt lat="45.88447" lon="4.59101">
        <ele>259.21637</ele>
        <time>2023-12-07T13:26:24.000Z</time>
      </trkpt>
      <trkpt lat="45.88448" lon="4.59097">
        <ele>258.05374</ele>
        <time>2023-12-07T13:26:25.000Z</time>
      </trkpt>
      <trkpt lat="45.88448" lon="4.59093">
        <ele>256.56912</ele>
        <time>2023-12-07T13:26:26.000Z</time>
      </trkpt>
      <trkpt lat="45.88449" lon="4.59087">
        <ele>256.46002</ele>
        <time>2023-12-07T13:26:27.000Z</time>
      </trkpt>
      <trkpt lat="45.8845" lon="4.59081">
        <ele>256.10962</ele>
        <time>2023-12-07T13:26:28.000Z</time>
      </trkpt>
      <trkpt lat="45.88451" lon="4.59075">
        <ele>256.03262</ele>
        <time>2023-12-07T13:26:29.000Z</time>
      </trkpt>
      <trkpt lat="45.88451" lon="4.5907">
        <ele>256.0079</ele>
        <time>2023-12-07T13:26:30.000Z</time>
      </trkpt>
      <trkpt lat="45.88452" lon="4.59064">
        <ele>256.31674</ele>
        <time>2023-12-07T13:26:31.000Z</time>
      </trkpt>
      <trkpt lat="45.88452" lon="4.59059">
        <ele>256.64847</ele>
        <time>2023-12-07T13:26:32.000Z</time>
      </trkpt>
      <trkpt lat="45.88453" lon="4.59054">
        <ele>257.11267</ele>
        <time>2023-12-07T13:26:33.000Z</time>
      </trkpt>
      <trkpt lat="45.88453" lon="4.59049">
        <ele>257.67578</ele>
        <time>2023-12-07T13:26:34.000Z</time>
      </trkpt>
      <trkpt lat="45.88453" lon="4.59044">
        <ele>258.16803</ele>
        <time>2023-12-07T13:26:35.000Z</time>
      </trkpt>
      <trkpt lat="45.88454" lon="4.59039">
        <ele>258.44513</ele>
        <time>2023-12-07T13:26:36.000Z</time>
      </trkpt>
      <trkpt lat="45.88455" lon="4.59035">
        <ele>258.7193</ele>
        <time>2023-12-07T13:26:37.000Z</time>
      </trkpt>
      <trkpt lat="45.88457" lon="4.5903">
        <ele>259.01645</ele>
        <time>2023-12-07T13:26:38.000Z</time>
      </trkpt>
      <trkpt lat="45.88457" lon="4.59026">
        <ele>259.22198</ele>
        <time>2023-12-07T13:26:39.000Z</time>
      </trkpt>
      <trkpt lat="45.88459" lon="4.59022">
        <ele>259.48111</ele>
        <time>2023-12-07T13:26:40.000Z</time>
      </trkpt>
      <trkpt lat="45.8846" lon="4.59019">
        <ele>259.76337</ele>
        <time>2023-12-07T13:26:41.000Z</time>
      </trkpt>
      <trkpt lat="45.88461" lon="4.59015">
        <ele>260.03452</ele>
        <time>2023-12-07T13:26:42.000Z</time>
      </trkpt>
      <trkpt lat="45.88462" lon="4.5901">
        <ele>260.11462</ele>
        <time>2023-12-07T13:26:43.000Z</time>
      </trkpt>
      <trkpt lat="45.88463" lon="4.59006">
        <ele>260.20468</ele>
        <time>2023-12-07T13:26:44.000Z</time>
      </trkpt>
      <trkpt lat="45.88464" lon="4.59001">
        <ele>261.08441</ele>
        <time>2023-12-07T13:26:45.000Z</time>
      </trkpt>
      <trkpt lat="45.88465" lon="4.58997">
        <ele>261.97589</ele>
        <time>2023-12-07T13:26:46.000Z</time>
      </trkpt>
      <trkpt lat="45.88466" lon="4.58992">
        <ele>262.11594</ele>
        <time>2023-12-07T13:26:47.000Z</time>
      </trkpt>
      <trkpt lat="45.88468" lon="4.58988">
        <ele>262.54132</ele>
        <time>2023-12-07T13:26:48.000Z</time>
      </trkpt>
      <trkpt lat="45.88469" lon="4.58983">
        <ele>262.66949</ele>
        <time>2023-12-07T13:26:49.000Z</time>
      </trkpt>
      <trkpt lat="45.88471" lon="4.58978">
        <ele>262.8421</ele>
        <time>2023-12-07T13:26:50.000Z</time>
      </trkpt>
      <trkpt lat="45.88472" lon="4.58973">
        <ele>262.94098</ele>
        <time>2023-12-07T13:26:51.000Z</time>
      </trkpt>
      <trkpt lat="45.88473" lon="4.5897">
        <ele>262.84454</ele>
        <time>2023-12-07T13:26:52.000Z</time>
      </trkpt>
      <trkpt lat="45.88473" lon="4.58966">
        <ele>262.76901</ele>
        <time>2023-12-07T13:26:53.000Z</time>
      </trkpt>
      <trkpt lat="45.88474" lon="4.58961">
        <ele>262.66675</ele>
        <time>2023-12-07T13:26:54.000Z</time>
      </trkpt>
      <trkpt lat="45.88473" lon="4.58956">
        <ele>262.37292</ele>
        <time>2023-12-07T13:26:55.000Z</time>
      </trkpt>
      <trkpt lat="45.88473" lon="4.58951">
        <ele>261.88379</ele>
        <time>2023-12-07T13:26:56.000Z</time>
      </trkpt>
      <trkpt lat="45.88472" lon="4.58947">
        <ele>261.15314</ele>
        <time>2023-12-07T13:26:57.000Z</time>
      </trkpt>
      <trkpt lat="45.88472" lon="4.58942">
        <ele>260.24362</ele>
        <time>2023-12-07T13:26:58.000Z</time>
      </trkpt>
      <trkpt lat="45.88472" lon="4.58937">
        <ele>259.35587</ele>
        <time>2023-12-07T13:26:59.000Z</time>
      </trkpt>
      <trkpt lat="45.88472" lon="4.58932">
        <ele>258.48776</ele>
        <time>2023-12-07T13:27:00.000Z</time>
      </trkpt>
      <trkpt lat="45.88473" lon="4.58926">
        <ele>257.58945</ele>
        <time>2023-12-07T13:27:01.000Z</time>
      </trkpt>
      <trkpt lat="45.88474" lon="4.5892">
        <ele>256.38382</ele>
        <time>2023-12-07T13:27:02.000Z</time>
      </trkpt>
      <trkpt lat="45.88476" lon="4.58915">
        <ele>256.43176</ele>
        <time>2023-12-07T13:27:03.000Z</time>
      </trkpt>
      <trkpt lat="45.88477" lon="4.58909">
        <ele>256.65903</ele>
        <time>2023-12-07T13:27:04.000Z</time>
      </trkpt>
      <trkpt lat="45.88478" lon="4.58903">
        <ele>256.37949</ele>
        <time>2023-12-07T13:27:05.000Z</time>
      </trkpt>
      <trkpt lat="45.88478" lon="4.58896">
        <ele>256.17621</ele>
        <time>2023-12-07T13:27:06.000Z</time>
      </trkpt>
      <trkpt lat="45.88477" lon="4.58891">
        <ele>255.95828</ele>
        <time>2023-12-07T13:27:07.000Z</time>
      </trkpt>
      <trkpt lat="45.88477" lon="4.58886">
        <ele>255.70012</ele>
        <time>2023-12-07T13:27:08.000Z</time>
      </trkpt>
      <trkpt lat="45.88477" lon="4.58879">
        <ele>255.54501</ele>
        <time>2023-12-07T13:27:09.000Z</time>
      </trkpt>
      <trkpt lat="45.88477" lon="4.58865">
        <ele>255.13887</ele>
        <time>2023-12-07T13:27:10.000Z</time>
      </trkpt>
      <trkpt lat="45.88476" lon="4.58858">
        <ele>254.74536</ele>
        <time>2023-12-07T13:27:11.000Z</time>
      </trkpt>
      <trkpt lat="45.88476" lon="4.58848">
        <ele>254.93884</ele>
        <time>2023-12-07T13:27:12.000Z</time>
      </trkpt>
      <trkpt lat="45.88473" lon="4.5884">
        <ele>254.89792</ele>
        <time>2023-12-07T13:27:13.000Z</time>
      </trkpt>
      <trkpt lat="45.88471" lon="4.58832">
        <ele>254.89497</ele>
        <time>2023-12-07T13:27:14.000Z</time>
      </trkpt>
      <trkpt lat="45.88469" lon="4.58823">
        <ele>255.03572</ele>
        <time>2023-12-07T13:27:15.000Z</time>
      </trkpt>
      <trkpt lat="45.88468" lon="4.58813">
        <ele>255.63445</ele>
        <time>2023-12-07T13:27:16.000Z</time>
      </trkpt>
      <trkpt lat="45.88468" lon="4.58807">
        <ele>256.25092</ele>
        <time>2023-12-07T13:27:17.000Z</time>
      </trkpt>
      <trkpt lat="45.88466" lon="4.588">
        <ele>256.90076</ele>
        <time>2023-12-07T13:27:18.000Z</time>
      </trkpt>
      <trkpt lat="45.88464" lon="4.58792">
        <ele>257.57245</ele>
        <time>2023-12-07T13:27:19.000Z</time>
      </trkpt>
      <trkpt lat="45.88463" lon="4.58784">
        <ele>258.14911</ele>
        <time>2023-12-07T13:27:20.000Z</time>
      </trkpt>
      <trkpt lat="45.8846" lon="4.58777">
        <ele>258.64047</ele>
        <time>2023-12-07T13:27:21.000Z</time>
      </trkpt>
      <trkpt lat="45.88462" lon="4.5877">
        <ele>259.52704</ele>
        <time>2023-12-07T13:27:22.000Z</time>
      </trkpt>
      <trkpt lat="45.88464" lon="4.58762">
        <ele>259.34378</ele>
        <time>2023-12-07T13:27:23.000Z</time>
      </trkpt>
      <trkpt lat="45.88466" lon="4.58753">
        <ele>258.95132</ele>
        <time>2023-12-07T13:27:24.000Z</time>
      </trkpt>
      <trkpt lat="45.88467" lon="4.58745">
        <ele>258.97577</ele>
        <time>2023-12-07T13:27:25.000Z</time>
      </trkpt>
      <trkpt lat="45.88471" lon="4.58736">
        <ele>259.19568</ele>
        <time>2023-12-07T13:27:26.000Z</time>
      </trkpt>
      <trkpt lat="45.88475" lon="4.58731">
        <ele>259.49567</ele>
        <time>2023-12-07T13:27:27.000Z</time>
      </trkpt>
      <trkpt lat="45.8848" lon="4.58727">
        <ele>259.82404</ele>
        <time>2023-12-07T13:27:28.000Z</time>
      </trkpt>
      <trkpt lat="45.88485" lon="4.58724">
        <ele>260.12515</ele>
        <time>2023-12-07T13:27:29.000Z</time>
      </trkpt>
      <trkpt lat="45.8849" lon="4.58723">
        <ele>260.48709</ele>
        <time>2023-12-07T13:27:30.000Z</time>
      </trkpt>
      <trkpt lat="45.88495" lon="4.58724">
        <ele>260.83627</ele>
        <time>2023-12-07T13:27:31.000Z</time>
      </trkpt>
      <trkpt lat="45.88499" lon="4.58724">
        <ele>260.84308</ele>
        <time>2023-12-07T13:27:32.000Z</time>
      </trkpt>
      <trkpt lat="45.88503" lon="4.58724">
        <ele>260.99139</ele>
        <time>2023-12-07T13:27:33.000Z</time>
      </trkpt>
      <trkpt lat="45.88507" lon="4.58725">
        <ele>261.15076</ele>
        <time>2023-12-07T13:27:34.000Z</time>
      </trkpt>
      <trkpt lat="45.88512" lon="4.58724">
        <ele>261.44656</ele>
        <time>2023-12-07T13:27:36.000Z</time>
      </trkpt>
      <trkpt lat="45.88514" lon="4.58723">
        <ele>261.46875</ele>
        <time>2023-12-07T13:27:37.000Z</time>
      </trkpt>
      <trkpt lat="45.88516" lon="4.58722">
        <ele>261.66901</ele>
        <time>2023-12-07T13:27:38.000Z</time>
      </trkpt>
      <trkpt lat="45.88518" lon="4.58723">
        <ele>261.84747</ele>
        <time>2023-12-07T13:27:39.000Z</time>
      </trkpt>
      <trkpt lat="45.88521" lon="4.58721">
        <ele>261.96399</ele>
        <time>2023-12-07T13:27:41.000Z</time>
      </trkpt>
      <trkpt lat="45.88523" lon="4.58721">
        <ele>262.05688</ele>
        <time>2023-12-07T13:27:42.000Z</time>
      </trkpt>
      <trkpt lat="45.88525" lon="4.5872">
        <ele>262.63776</ele>
        <time>2023-12-07T13:27:43.000Z</time>
      </trkpt>
      <trkpt lat="45.88527" lon="4.5872">
        <ele>263.09659</ele>
        <time>2023-12-07T13:27:44.000Z</time>
      </trkpt>
      <trkpt lat="45.8853" lon="4.5872">
        <ele>263.52621</ele>
        <time>2023-12-07T13:27:45.000Z</time>
      </trkpt>
      <trkpt lat="45.88533" lon="4.58719">
        <ele>263.95508</ele>
        <time>2023-12-07T13:27:46.000Z</time>
      </trkpt>
      <trkpt lat="45.88537" lon="4.58718">
        <ele>264.01993</ele>
        <time>2023-12-07T13:27:47.000Z</time>
      </trkpt>
      <trkpt lat="45.88541" lon="4.58717">
        <ele>264.16788</ele>
        <time>2023-12-07T13:27:48.000Z</time>
      </trkpt>
      <trkpt lat="45.88545" lon="4.58716">
        <ele>264.22659</ele>
        <time>2023-12-07T13:27:49.000Z</time>
      </trkpt>
      <trkpt lat="45.88549" lon="4.58715">
        <ele>264.29794</ele>
        <time>2023-12-07T13:27:50.000Z</time>
      </trkpt>
      <trkpt lat="45.88552" lon="4.58714">
        <ele>264.43872</ele>
        <time>2023-12-07T13:27:51.000Z</time>
      </trkpt>
      <trkpt lat="45.88556" lon="4.58713">
        <ele>264.6308</ele>
        <time>2023-12-07T13:27:52.000Z</time>
      </trkpt>
      <trkpt lat="45.8856" lon="4.58713">
        <ele>264.86615</ele>
        <time>2023-12-07T13:27:53.000Z</time>
      </trkpt>
      <trkpt lat="45.88563" lon="4.58712">
        <ele>265.03442</ele>
        <time>2023-12-07T13:27:54.000Z</time>
      </trkpt>
      <trkpt lat="45.88567" lon="4.58712">
        <ele>265.2189</ele>
        <time>2023-12-07T13:27:55.000Z</time>
      </trkpt>
      <trkpt lat="45.88571" lon="4.58711">
        <ele>265.42987</ele>
        <time>2023-12-07T13:27:56.000Z</time>
      </trkpt>
      <trkpt lat="45.88575" lon="4.5871">
        <ele>265.25333</ele>
        <time>2023-12-07T13:27:57.000Z</time>
      </trkpt>
      <trkpt lat="45.88579" lon="4.58708">
        <ele>265.32101</ele>
        <time>2023-12-07T13:27:58.000Z</time>
      </trkpt>
      <trkpt lat="45.88583" lon="4.58706">
        <ele>265.38092</ele>
        <time>2023-12-07T13:27:59.000Z</time>
      </trkpt>
      <trkpt lat="45.88587" lon="4.58703">
        <ele>265.46051</ele>
        <time>2023-12-07T13:28:00.000Z</time>
      </trkpt>
      <trkpt lat="45.88591" lon="4.58701">
        <ele>265.56689</ele>
        <time>2023-12-07T13:28:01.000Z</time>
      </trkpt>
      <trkpt lat="45.88594" lon="4.58698">
        <ele>265.83636</ele>
        <time>2023-12-07T13:28:02.000Z</time>
      </trkpt>
      <trkpt lat="45.88598" lon="4.58694">
        <ele>265.7258</ele>
        <time>2023-12-07T13:28:03.000Z</time>
      </trkpt>
      <trkpt lat="45.88601" lon="4.5869">
        <ele>265.67239</ele>
        <time>2023-12-07T13:28:04.000Z</time>
      </trkpt>
      <trkpt lat="45.88604" lon="4.58686">
        <ele>266.02765</ele>
        <time>2023-12-07T13:28:05.000Z</time>
      </trkpt>
      <trkpt lat="45.88607" lon="4.58682">
        <ele>266.40094</ele>
        <time>2023-12-07T13:28:06.000Z</time>
      </trkpt>
      <trkpt lat="45.8861" lon="4.58677">
        <ele>266.70007</ele>
        <time>2023-12-07T13:28:07.000Z</time>
      </trkpt>
      <trkpt lat="45.88613" lon="4.58673">
        <ele>267.02176</ele>
        <time>2023-12-07T13:28:08.000Z</time>
      </trkpt>
      <trkpt lat="45.88616" lon="4.58669">
        <ele>267.35468</ele>
        <time>2023-12-07T13:28:09.000Z</time>
      </trkpt>
      <trkpt lat="45.88619" lon="4.58665">
        <ele>267.58875</ele>
        <time>2023-12-07T13:28:10.000Z</time>
      </trkpt>
      <trkpt lat="45.88621" lon="4.58661">
        <ele>267.80087</ele>
        <time>2023-12-07T13:28:11.000Z</time>
      </trkpt>
      <trkpt lat="45.88624" lon="4.58658">
        <ele>268.0018</ele>
        <time>2023-12-07T13:28:12.000Z</time>
      </trkpt>
      <trkpt lat="45.88628" lon="4.58656">
        <ele>268.19824</ele>
        <time>2023-12-07T13:28:13.000Z</time>
      </trkpt>
      <trkpt lat="45.88632" lon="4.58655">
        <ele>268.38779</ele>
        <time>2023-12-07T13:28:14.000Z</time>
      </trkpt>
      <trkpt lat="45.88636" lon="4.58653">
        <ele>268.62213</ele>
        <time>2023-12-07T13:28:15.000Z</time>
      </trkpt>
      <trkpt lat="45.88641" lon="4.58651">
        <ele>268.79633</ele>
        <time>2023-12-07T13:28:16.000Z</time>
      </trkpt>
      <trkpt lat="45.88645" lon="4.58649">
        <ele>269.29135</ele>
        <time>2023-12-07T13:28:17.000Z</time>
      </trkpt>
      <trkpt lat="45.88649" lon="4.58646">
        <ele>269.79254</ele>
        <time>2023-12-07T13:28:18.000Z</time>
      </trkpt>
      <trkpt lat="45.88653" lon="4.58643">
        <ele>270.28366</ele>
        <time>2023-12-07T13:28:19.000Z</time>
      </trkpt>
      <trkpt lat="45.88657" lon="4.58641">
        <ele>270.79535</ele>
        <time>2023-12-07T13:28:20.000Z</time>
      </trkpt>
      <trkpt lat="45.88661" lon="4.58638">
        <ele>271.30548</ele>
        <time>2023-12-07T13:28:21.000Z</time>
      </trkpt>
      <trkpt lat="45.88665" lon="4.58635">
        <ele>271.7417</ele>
        <time>2023-12-07T13:28:22.000Z</time>
      </trkpt>
      <trkpt lat="45.8867" lon="4.58633">
        <ele>272.15781</ele>
        <time>2023-12-07T13:28:23.000Z</time>
      </trkpt>
      <trkpt lat="45.88674" lon="4.58631">
        <ele>272.57602</ele>
        <time>2023-12-07T13:28:24.000Z</time>
      </trkpt>
      <trkpt lat="45.88678" lon="4.58631">
        <ele>272.62677</ele>
        <time>2023-12-07T13:28:25.000Z</time>
      </trkpt>
      <trkpt lat="45.88682" lon="4.58629">
        <ele>272.45609</ele>
        <time>2023-12-07T13:28:26.000Z</time>
      </trkpt>
      <trkpt lat="45.88685" lon="4.58627">
        <ele>272.23578</ele>
        <time>2023-12-07T13:28:27.000Z</time>
      </trkpt>
      <trkpt lat="45.88689" lon="4.58624">
        <ele>272.29681</ele>
        <time>2023-12-07T13:28:28.000Z</time>
      </trkpt>
      <trkpt lat="45.88693" lon="4.58621">
        <ele>272.32562</ele>
        <time>2023-12-07T13:28:29.000Z</time>
      </trkpt>
      <trkpt lat="45.88695" lon="4.58618">
        <ele>272.3465</ele>
        <time>2023-12-07T13:28:30.000Z</time>
      </trkpt>
      <trkpt lat="45.88698" lon="4.58613">
        <ele>272.39435</ele>
        <time>2023-12-07T13:28:31.000Z</time>
      </trkpt>
      <trkpt lat="45.88699" lon="4.58607">
        <ele>272.46945</ele>
        <time>2023-12-07T13:28:32.000Z</time>
      </trkpt>
      <trkpt lat="45.887" lon="4.58601">
        <ele>272.56168</ele>
        <time>2023-12-07T13:28:33.000Z</time>
      </trkpt>
      <trkpt lat="45.88703" lon="4.58594">
        <ele>272.67505</ele>
        <time>2023-12-07T13:28:34.000Z</time>
      </trkpt>
      <trkpt lat="45.88705" lon="4.58588">
        <ele>272.72833</ele>
        <time>2023-12-07T13:28:35.000Z</time>
      </trkpt>
      <trkpt lat="45.88706" lon="4.58582">
        <ele>272.78604</ele>
        <time>2023-12-07T13:28:36.000Z</time>
      </trkpt>
      <trkpt lat="45.88707" lon="4.58576">
        <ele>272.83392</ele>
        <time>2023-12-07T13:28:37.000Z</time>
      </trkpt>
      <trkpt lat="45.88709" lon="4.58571">
        <ele>272.86328</ele>
        <time>2023-12-07T13:28:38.000Z</time>
      </trkpt>
      <trkpt lat="45.8871" lon="4.58564">
        <ele>272.83884</ele>
        <time>2023-12-07T13:28:39.000Z</time>
      </trkpt>
      <trkpt lat="45.88712" lon="4.5856">
        <ele>272.85364</ele>
        <time>2023-12-07T13:28:40.000Z</time>
      </trkpt>
      <trkpt lat="45.88714" lon="4.58554">
        <ele>272.85376</ele>
        <time>2023-12-07T13:28:41.000Z</time>
      </trkpt>
      <trkpt lat="45.88716" lon="4.58549">
        <ele>272.90213</ele>
        <time>2023-12-07T13:28:42.000Z</time>
      </trkpt>
      <trkpt lat="45.88718" lon="4.58544">
        <ele>272.66516</ele>
        <time>2023-12-07T13:28:43.000Z</time>
      </trkpt>
      <trkpt lat="45.8872" lon="4.58541">
        <ele>272.42148</ele>
        <time>2023-12-07T13:28:44.000Z</time>
      </trkpt>
      <trkpt lat="45.88723" lon="4.58538">
        <ele>272.18637</ele>
        <time>2023-12-07T13:28:45.000Z</time>
      </trkpt>
      <trkpt lat="45.88727" lon="4.58537">
        <ele>272.12436</ele>
        <time>2023-12-07T13:28:46.000Z</time>
      </trkpt>
      <trkpt lat="45.8873" lon="4.58538">
        <ele>272.50656</ele>
        <time>2023-12-07T13:28:47.000Z</time>
      </trkpt>
      <trkpt lat="45.88734" lon="4.58539">
        <ele>272.4494</ele>
        <time>2023-12-07T13:28:48.000Z</time>
      </trkpt>
      <trkpt lat="45.88737" lon="4.58541">
        <ele>272.422</ele>
        <time>2023-12-07T13:28:49.000Z</time>
      </trkpt>
      <trkpt lat="45.8874" lon="4.58543">
        <ele>272.40558</ele>
        <time>2023-12-07T13:28:50.000Z</time>
      </trkpt>
      <trkpt lat="45.88744" lon="4.58544">
        <ele>272.34186</ele>
        <time>2023-12-07T13:28:51.000Z</time>
      </trkpt>
      <trkpt lat="45.88748" lon="4.58546">
        <ele>272.25516</ele>
        <time>2023-12-07T13:28:52.000Z</time>
      </trkpt>
      <trkpt lat="45.88752" lon="4.58548">
        <ele>272.18256</ele>
        <time>2023-12-07T13:28:53.000Z</time>
      </trkpt>
      <trkpt lat="45.88756" lon="4.5855">
        <ele>272.14566</ele>
        <time>2023-12-07T13:28:54.000Z</time>
      </trkpt>
      <trkpt lat="45.8876" lon="4.58553">
        <ele>272.09637</ele>
        <time>2023-12-07T13:28:55.000Z</time>
      </trkpt>
      <trkpt lat="45.88764" lon="4.58554">
        <ele>272.03552</ele>
        <time>2023-12-07T13:28:56.000Z</time>
      </trkpt>
      <trkpt lat="45.88768" lon="4.58556">
        <ele>271.95154</ele>
        <time>2023-12-07T13:28:57.000Z</time>
      </trkpt>
      <trkpt lat="45.88772" lon="4.58557">
        <ele>271.84174</ele>
        <time>2023-12-07T13:28:58.000Z</time>
      </trkpt>
      <trkpt lat="45.88776" lon="4.58559">
        <ele>271.77676</ele>
        <time>2023-12-07T13:28:59.000Z</time>
      </trkpt>
      <trkpt lat="45.8878" lon="4.5856">
        <ele>271.72025</ele>
        <time>2023-12-07T13:29:00.000Z</time>
      </trkpt>
      <trkpt lat="45.88785" lon="4.58561">
        <ele>271.65033</ele>
        <time>2023-12-07T13:29:01.000Z</time>
      </trkpt>
      <trkpt lat="45.88789" lon="4.58562">
        <ele>271.56033</ele>
        <time>2023-12-07T13:29:02.000Z</time>
      </trkpt>
      <trkpt lat="45.88793" lon="4.58563">
        <ele>271.76019</ele>
        <time>2023-12-07T13:29:03.000Z</time>
      </trkpt>
      <trkpt lat="45.88797" lon="4.58564">
        <ele>271.99911</ele>
        <time>2023-12-07T13:29:04.000Z</time>
      </trkpt>
      <trkpt lat="45.88801" lon="4.58565">
        <ele>271.98468</ele>
        <time>2023-12-07T13:29:05.000Z</time>
      </trkpt>
      <trkpt lat="45.88805" lon="4.58566">
        <ele>272.04593</ele>
        <time>2023-12-07T13:29:06.000Z</time>
      </trkpt>
      <trkpt lat="45.88809" lon="4.58568">
        <ele>271.76492</ele>
        <time>2023-12-07T13:29:07.000Z</time>
      </trkpt>
      <trkpt lat="45.88813" lon="4.5857">
        <ele>271.52161</ele>
        <time>2023-12-07T13:29:08.000Z</time>
      </trkpt>
      <trkpt lat="45.88817" lon="4.58571">
        <ele>271.25116</ele>
        <time>2023-12-07T13:29:09.000Z</time>
      </trkpt>
      <trkpt lat="45.8882" lon="4.58572">
        <ele>271.36835</ele>
        <time>2023-12-07T13:29:10.000Z</time>
      </trkpt>
      <trkpt lat="45.88824" lon="4.58573">
        <ele>271.41525</ele>
        <time>2023-12-07T13:29:11.000Z</time>
      </trkpt>
      <trkpt lat="45.88828" lon="4.58574">
        <ele>271.46945</ele>
        <time>2023-12-07T13:29:12.000Z</time>
      </trkpt>
      <trkpt lat="45.88831" lon="4.58575">
        <ele>271.51547</ele>
        <time>2023-12-07T13:29:13.000Z</time>
      </trkpt>
      <trkpt lat="45.88835" lon="4.58575">
        <ele>271.5582</ele>
        <time>2023-12-07T13:29:14.000Z</time>
      </trkpt>
      <trkpt lat="45.88839" lon="4.58576">
        <ele>271.62918</ele>
        <time>2023-12-07T13:29:15.000Z</time>
      </trkpt>
      <trkpt lat="45.88844" lon="4.58577">
        <ele>271.74188</ele>
        <time>2023-12-07T13:29:16.000Z</time>
      </trkpt>
      <trkpt lat="45.88848" lon="4.58579">
        <ele>271.84464</ele>
        <time>2023-12-07T13:29:17.000Z</time>
      </trkpt>
      <trkpt lat="45.88852" lon="4.5858">
        <ele>271.96359</ele>
        <time>2023-12-07T13:29:18.000Z</time>
      </trkpt>
      <trkpt lat="45.88856" lon="4.58581">
        <ele>272.06406</ele>
        <time>2023-12-07T13:29:19.000Z</time>
      </trkpt>
      <trkpt lat="45.88861" lon="4.58583">
        <ele>272.12659</ele>
        <time>2023-12-07T13:29:20.000Z</time>
      </trkpt>
      <trkpt lat="45.88865" lon="4.58585">
        <ele>272.17822</ele>
        <time>2023-12-07T13:29:21.000Z</time>
      </trkpt>
      <trkpt lat="45.88869" lon="4.58587">
        <ele>271.96744</ele>
        <time>2023-12-07T13:29:22.000Z</time>
      </trkpt>
      <trkpt lat="45.88873" lon="4.58589">
        <ele>271.64755</ele>
        <time>2023-12-07T13:29:23.000Z</time>
      </trkpt>
      <trkpt lat="45.88877" lon="4.58591">
        <ele>271.64761</ele>
        <time>2023-12-07T13:29:24.000Z</time>
      </trkpt>
      <trkpt lat="45.88882" lon="4.58593">
        <ele>271.84882</ele>
        <time>2023-12-07T13:29:25.000Z</time>
      </trkpt>
      <trkpt lat="45.88886" lon="4.58594">
        <ele>272.03943</ele>
        <time>2023-12-07T13:29:26.000Z</time>
      </trkpt>
      <trkpt lat="45.8889" lon="4.58596">
        <ele>272.21399</ele>
        <time>2023-12-07T13:29:27.000Z</time>
      </trkpt>
      <trkpt lat="45.88895" lon="4.58597">
        <ele>272.42859</ele>
        <time>2023-12-07T13:29:28.000Z</time>
      </trkpt>
      <trkpt lat="45.88899" lon="4.586">
        <ele>272.67429</ele>
        <time>2023-12-07T13:29:29.000Z</time>
      </trkpt>
      <trkpt lat="45.88903" lon="4.58602">
        <ele>272.53772</ele>
        <time>2023-12-07T13:29:30.000Z</time>
      </trkpt>
      <trkpt lat="45.88908" lon="4.58605">
        <ele>272.47998</ele>
        <time>2023-12-07T13:29:31.000Z</time>
      </trkpt>
      <trkpt lat="45.88912" lon="4.58606">
        <ele>272.40375</ele>
        <time>2023-12-07T13:29:32.000Z</time>
      </trkpt>
      <trkpt lat="45.88917" lon="4.58609">
        <ele>272.33905</ele>
        <time>2023-12-07T13:29:33.000Z</time>
      </trkpt>
      <trkpt lat="45.88921" lon="4.58611">
        <ele>272.2562</ele>
        <time>2023-12-07T13:29:34.000Z</time>
      </trkpt>
      <trkpt lat="45.88925" lon="4.58614">
        <ele>272.1658</ele>
        <time>2023-12-07T13:29:35.000Z</time>
      </trkpt>
      <trkpt lat="45.88929" lon="4.58617">
        <ele>272.08057</ele>
        <time>2023-12-07T13:29:36.000Z</time>
      </trkpt>
      <trkpt lat="45.88932" lon="4.5862">
        <ele>271.77045</ele>
        <time>2023-12-07T13:29:37.000Z</time>
      </trkpt>
      <trkpt lat="45.88936" lon="4.58622">
        <ele>271.44049</ele>
        <time>2023-12-07T13:29:38.000Z</time>
      </trkpt>
      <trkpt lat="45.8894" lon="4.58624">
        <ele>271.07034</ele>
        <time>2023-12-07T13:29:39.000Z</time>
      </trkpt>
      <trkpt lat="45.88944" lon="4.58625">
        <ele>271.00867</ele>
        <time>2023-12-07T13:29:40.000Z</time>
      </trkpt>
      <trkpt lat="45.88948" lon="4.58627">
        <ele>270.90689</ele>
        <time>2023-12-07T13:29:41.000Z</time>
      </trkpt>
      <trkpt lat="45.88953" lon="4.58629">
        <ele>271.05698</ele>
        <time>2023-12-07T13:29:42.000Z</time>
      </trkpt>
      <trkpt lat="45.88957" lon="4.58631">
        <ele>271.33051</ele>
        <time>2023-12-07T13:29:43.000Z</time>
      </trkpt>
      <trkpt lat="45.88961" lon="4.58634">
        <ele>271.22824</ele>
        <time>2023-12-07T13:29:44.000Z</time>
      </trkpt>
      <trkpt lat="45.88965" lon="4.58634">
        <ele>271.15887</ele>
        <time>2023-12-07T13:29:45.000Z</time>
      </trkpt>
      <trkpt lat="45.8897" lon="4.58636">
        <ele>271.0943</ele>
        <time>2023-12-07T13:29:46.000Z</time>
      </trkpt>
      <trkpt lat="45.88975" lon="4.58638">
        <ele>271.0069</ele>
        <time>2023-12-07T13:29:47.000Z</time>
      </trkpt>
      <trkpt lat="45.88979" lon="4.58641">
        <ele>270.91721</ele>
        <time>2023-12-07T13:29:48.000Z</time>
      </trkpt>
      <trkpt lat="45.88984" lon="4.58644">
        <ele>270.80978</ele>
        <time>2023-12-07T13:29:49.000Z</time>
      </trkpt>
      <trkpt lat="45.88988" lon="4.58647">
        <ele>270.69348</ele>
        <time>2023-12-07T13:29:50.000Z</time>
      </trkpt>
      <trkpt lat="45.88992" lon="4.58649">
        <ele>270.58118</ele>
        <time>2023-12-07T13:29:51.000Z</time>
      </trkpt>
      <trkpt lat="45.88996" lon="4.58651">
        <ele>270.30939</ele>
        <time>2023-12-07T13:29:52.000Z</time>
      </trkpt>
      <trkpt lat="45.89" lon="4.58653">
        <ele>270.01154</ele>
        <time>2023-12-07T13:29:53.000Z</time>
      </trkpt>
      <trkpt lat="45.89004" lon="4.58655">
        <ele>269.66864</ele>
        <time>2023-12-07T13:29:54.000Z</time>
      </trkpt>
      <trkpt lat="45.89008" lon="4.58657">
        <ele>269.64786</ele>
        <time>2023-12-07T13:29:55.000Z</time>
      </trkpt>
      <trkpt lat="45.89012" lon="4.5866">
        <ele>269.54584</ele>
        <time>2023-12-07T13:29:56.000Z</time>
      </trkpt>
      <trkpt lat="45.89016" lon="4.58663">
        <ele>269.69626</ele>
        <time>2023-12-07T13:29:57.000Z</time>
      </trkpt>
      <trkpt lat="45.89021" lon="4.58666">
        <ele>269.84467</ele>
        <time>2023-12-07T13:29:58.000Z</time>
      </trkpt>
      <trkpt lat="45.89025" lon="4.58668">
        <ele>270.03598</ele>
        <time>2023-12-07T13:29:59.000Z</time>
      </trkpt>
      <trkpt lat="45.89029" lon="4.5867">
        <ele>269.9321</ele>
        <time>2023-12-07T13:30:00.000Z</time>
      </trkpt>
      <trkpt lat="45.89033" lon="4.58672">
        <ele>269.87112</ele>
        <time>2023-12-07T13:30:01.000Z</time>
      </trkpt>
      <trkpt lat="45.89037" lon="4.58675">
        <ele>269.79596</ele>
        <time>2023-12-07T13:30:02.000Z</time>
      </trkpt>
      <trkpt lat="45.89042" lon="4.58678">
        <ele>269.66873</ele>
        <time>2023-12-07T13:30:03.000Z</time>
      </trkpt>
      <trkpt lat="45.89046" lon="4.58681">
        <ele>269.56622</ele>
        <time>2023-12-07T13:30:04.000Z</time>
      </trkpt>
      <trkpt lat="45.89049" lon="4.58683">
        <ele>269.47192</ele>
        <time>2023-12-07T13:30:05.000Z</time>
      </trkpt>
      <trkpt lat="45.89053" lon="4.58685">
        <ele>269.35696</ele>
        <time>2023-12-07T13:30:06.000Z</time>
      </trkpt>
      <trkpt lat="45.89057" lon="4.58688">
        <ele>269.2511</ele>
        <time>2023-12-07T13:30:07.000Z</time>
      </trkpt>
      <trkpt lat="45.89061" lon="4.5869">
        <ele>269.15494</ele>
        <time>2023-12-07T13:30:08.000Z</time>
      </trkpt>
      <trkpt lat="45.89065" lon="4.58692">
        <ele>269.08795</ele>
        <time>2023-12-07T13:30:09.000Z</time>
      </trkpt>
      <trkpt lat="45.8907" lon="4.58693">
        <ele>269.02167</ele>
        <time>2023-12-07T13:30:10.000Z</time>
      </trkpt>
      <trkpt lat="45.89073" lon="4.58694">
        <ele>268.96185</ele>
        <time>2023-12-07T13:30:11.000Z</time>
      </trkpt>
      <trkpt lat="45.89077" lon="4.58696">
        <ele>269.10907</ele>
        <time>2023-12-07T13:30:12.000Z</time>
      </trkpt>
      <trkpt lat="45.89082" lon="4.58698">
        <ele>269.28806</ele>
        <time>2023-12-07T13:30:13.000Z</time>
      </trkpt>
      <trkpt lat="45.89086" lon="4.587">
        <ele>269.49762</ele>
        <time>2023-12-07T13:30:14.000Z</time>
      </trkpt>
      <trkpt lat="45.89089" lon="4.58702">
        <ele>269.39661</ele>
        <time>2023-12-07T13:30:15.000Z</time>
      </trkpt>
      <trkpt lat="45.89094" lon="4.58704">
        <ele>269.35248</ele>
        <time>2023-12-07T13:30:16.000Z</time>
      </trkpt>
      <trkpt lat="45.89099" lon="4.58707">
        <ele>269.09723</ele>
        <time>2023-12-07T13:30:17.000Z</time>
      </trkpt>
      <trkpt lat="45.89103" lon="4.5871">
        <ele>268.87708</ele>
        <time>2023-12-07T13:30:18.000Z</time>
      </trkpt>
      <trkpt lat="45.89107" lon="4.58712">
        <ele>268.57471</ele>
        <time>2023-12-07T13:30:19.000Z</time>
      </trkpt>
      <trkpt lat="45.89111" lon="4.58715">
        <ele>268.58432</ele>
        <time>2023-12-07T13:30:20.000Z</time>
      </trkpt>
      <trkpt lat="45.89115" lon="4.58718">
        <ele>268.6004</ele>
        <time>2023-12-07T13:30:21.000Z</time>
      </trkpt>
      <trkpt lat="45.89119" lon="4.58721">
        <ele>268.59781</ele>
        <time>2023-12-07T13:30:22.000Z</time>
      </trkpt>
      <trkpt lat="45.89122" lon="4.58723">
        <ele>268.61844</ele>
        <time>2023-12-07T13:30:23.000Z</time>
      </trkpt>
      <trkpt lat="45.89126" lon="4.58726">
        <ele>268.62372</ele>
        <time>2023-12-07T13:30:24.000Z</time>
      </trkpt>
      <trkpt lat="45.89129" lon="4.58728">
        <ele>268.63498</ele>
        <time>2023-12-07T13:30:25.000Z</time>
      </trkpt>
      <trkpt lat="45.89133" lon="4.5873">
        <ele>268.64044</ele>
        <time>2023-12-07T13:30:26.000Z</time>
      </trkpt>
      <trkpt lat="45.89137" lon="4.58732">
        <ele>268.64719</ele>
        <time>2023-12-07T13:30:27.000Z</time>
      </trkpt>
      <trkpt lat="45.89141" lon="4.58734">
        <ele>268.66245</ele>
        <time>2023-12-07T13:30:28.000Z</time>
      </trkpt>
      <trkpt lat="45.89145" lon="4.58737">
        <ele>268.65109</ele>
        <time>2023-12-07T13:30:29.000Z</time>
      </trkpt>
      <trkpt lat="45.89149" lon="4.5874">
        <ele>268.61972</ele>
        <time>2023-12-07T13:30:30.000Z</time>
      </trkpt>
      <trkpt lat="45.89153" lon="4.58744">
        <ele>268.56104</ele>
        <time>2023-12-07T13:30:31.000Z</time>
      </trkpt>
      <trkpt lat="45.89158" lon="4.58748">
        <ele>268.49167</ele>
        <time>2023-12-07T13:30:32.000Z</time>
      </trkpt>
      <trkpt lat="45.89162" lon="4.58751">
        <ele>268.39111</ele>
        <time>2023-12-07T13:30:33.000Z</time>
      </trkpt>
      <trkpt lat="45.89168" lon="4.58755">
        <ele>268.28745</ele>
        <time>2023-12-07T13:30:34.000Z</time>
      </trkpt>
      <trkpt lat="45.89173" lon="4.58759">
        <ele>268.14169</ele>
        <time>2023-12-07T13:30:35.000Z</time>
      </trkpt>
      <trkpt lat="45.89179" lon="4.58763">
        <ele>267.95621</ele>
        <time>2023-12-07T13:30:36.000Z</time>
      </trkpt>
      <trkpt lat="45.89186" lon="4.58767">
        <ele>267.81512</ele>
        <time>2023-12-07T13:30:37.000Z</time>
      </trkpt>
      <trkpt lat="45.89192" lon="4.58771">
        <ele>267.56186</ele>
        <time>2023-12-07T13:30:38.000Z</time>
      </trkpt>
      <trkpt lat="45.89199" lon="4.58774">
        <ele>267.36981</ele>
        <time>2023-12-07T13:30:39.000Z</time>
      </trkpt>
      <trkpt lat="45.89205" lon="4.58776">
        <ele>267.03497</ele>
        <time>2023-12-07T13:30:40.000Z</time>
      </trkpt>
      <trkpt lat="45.89212" lon="4.58775">
        <ele>266.63226</ele>
        <time>2023-12-07T13:30:41.000Z</time>
      </trkpt>
      <trkpt lat="45.89219" lon="4.58774">
        <ele>266.21503</ele>
        <time>2023-12-07T13:30:42.000Z</time>
      </trkpt>
      <trkpt lat="45.89226" lon="4.58774">
        <ele>265.75308</ele>
        <time>2023-12-07T13:30:43.000Z</time>
      </trkpt>
      <trkpt lat="45.89233" lon="4.58772">
        <ele>265.28217</ele>
        <time>2023-12-07T13:30:44.000Z</time>
      </trkpt>
      <trkpt lat="45.8924" lon="4.5877">
        <ele>264.7587</ele>
        <time>2023-12-07T13:30:45.000Z</time>
      </trkpt>
      <trkpt lat="45.89245" lon="4.58765">
        <ele>264.20111</ele>
        <time>2023-12-07T13:30:46.000Z</time>
      </trkpt>
      <trkpt lat="45.89249" lon="4.58761">
        <ele>263.61517</ele>
        <time>2023-12-07T13:30:47.000Z</time>
      </trkpt>
      <trkpt lat="45.89253" lon="4.58756">
        <ele>262.96063</ele>
        <time>2023-12-07T13:30:48.000Z</time>
      </trkpt>
      <trkpt lat="45.89257" lon="4.58753">
        <ele>262.27353</ele>
        <time>2023-12-07T13:30:49.000Z</time>
      </trkpt>
      <trkpt lat="45.89261" lon="4.5875">
        <ele>261.565</ele>
        <time>2023-12-07T13:30:50.000Z</time>
      </trkpt>
      <trkpt lat="45.89266" lon="4.5875">
        <ele>260.83524</ele>
        <time>2023-12-07T13:30:51.000Z</time>
      </trkpt>
      <trkpt lat="45.89271" lon="4.58753">
        <ele>260.05734</ele>
        <time>2023-12-07T13:30:52.000Z</time>
      </trkpt>
      <trkpt lat="45.89277" lon="4.5876">
        <ele>259.23401</ele>
        <time>2023-12-07T13:30:53.000Z</time>
      </trkpt>
      <trkpt lat="45.89283" lon="4.58768">
        <ele>258.37369</ele>
        <time>2023-12-07T13:30:54.000Z</time>
      </trkpt>
      <trkpt lat="45.8929" lon="4.58777">
        <ele>257.50455</ele>
        <time>2023-12-07T13:30:55.000Z</time>
      </trkpt>
      <trkpt lat="45.89297" lon="4.58784">
        <ele>256.64682</ele>
        <time>2023-12-07T13:30:56.000Z</time>
      </trkpt>
      <trkpt lat="45.89304" lon="4.58791">
        <ele>255.88611</ele>
        <time>2023-12-07T13:30:57.000Z</time>
      </trkpt>
      <trkpt lat="45.89311" lon="4.58798">
        <ele>255.18332</ele>
        <time>2023-12-07T13:30:58.000Z</time>
      </trkpt>
      <trkpt lat="45.89317" lon="4.58804">
        <ele>254.48001</ele>
        <time>2023-12-07T13:30:59.000Z</time>
      </trkpt>
      <trkpt lat="45.89322" lon="4.5881">
        <ele>253.57076</ele>
        <time>2023-12-07T13:31:00.000Z</time>
      </trkpt>
      <trkpt lat="45.89328" lon="4.58816">
        <ele>252.71992</ele>
        <time>2023-12-07T13:31:01.000Z</time>
      </trkpt>
      <trkpt lat="45.89332" lon="4.58822">
        <ele>251.84741</ele>
        <time>2023-12-07T13:31:02.000Z</time>
      </trkpt>
      <trkpt lat="45.89338" lon="4.58828">
        <ele>250.99516</ele>
        <time>2023-12-07T13:31:03.000Z</time>
      </trkpt>
      <trkpt lat="45.89341" lon="4.58834">
        <ele>250.12112</ele>
        <time>2023-12-07T13:31:04.000Z</time>
      </trkpt>
      <trkpt lat="45.89346" lon="4.5884">
        <ele>249.27214</ele>
        <time>2023-12-07T13:31:05.000Z</time>
      </trkpt>
      <trkpt lat="45.89348" lon="4.58848">
        <ele>248.43527</ele>
        <time>2023-12-07T13:31:06.000Z</time>
      </trkpt>
      <trkpt lat="45.8935" lon="4.58856">
        <ele>247.58765</ele>
        <time>2023-12-07T13:31:07.000Z</time>
      </trkpt>
      <trkpt lat="45.89352" lon="4.58863">
        <ele>246.75349</ele>
        <time>2023-12-07T13:31:08.000Z</time>
      </trkpt>
      <trkpt lat="45.89355" lon="4.58868">
        <ele>245.95163</ele>
        <time>2023-12-07T13:31:09.000Z</time>
      </trkpt>
      <trkpt lat="45.89359" lon="4.58872">
        <ele>245.18489</ele>
        <time>2023-12-07T13:31:10.000Z</time>
      </trkpt>
      <trkpt lat="45.89362" lon="4.58874">
        <ele>244.42439</ele>
        <time>2023-12-07T13:31:11.000Z</time>
      </trkpt>
      <trkpt lat="45.89366" lon="4.58874">
        <ele>243.67822</ele>
        <time>2023-12-07T13:31:12.000Z</time>
      </trkpt>
      <trkpt lat="45.8937" lon="4.58871">
        <ele>242.99236</ele>
        <time>2023-12-07T13:31:13.000Z</time>
      </trkpt>
      <trkpt lat="45.89376" lon="4.58868">
        <ele>242.35806</ele>
        <time>2023-12-07T13:31:14.000Z</time>
      </trkpt>
      <trkpt lat="45.89382" lon="4.58864">
        <ele>241.7592</ele>
        <time>2023-12-07T13:31:15.000Z</time>
      </trkpt>
      <trkpt lat="45.89388" lon="4.58864">
        <ele>241.20508</ele>
        <time>2023-12-07T13:31:16.000Z</time>
      </trkpt>
      <trkpt lat="45.89394" lon="4.58863">
        <ele>240.76016</ele>
        <time>2023-12-07T13:31:17.000Z</time>
      </trkpt>
      <trkpt lat="45.894" lon="4.58861">
        <ele>240.41187</ele>
        <time>2023-12-07T13:31:18.000Z</time>
      </trkpt>
      <trkpt lat="45.89404" lon="4.5886">
        <ele>240.11809</ele>
        <time>2023-12-07T13:31:19.000Z</time>
      </trkpt>
      <trkpt lat="45.89409" lon="4.58858">
        <ele>239.8403</ele>
        <time>2023-12-07T13:31:20.000Z</time>
      </trkpt>
      <trkpt lat="45.89414" lon="4.58857">
        <ele>239.60197</ele>
        <time>2023-12-07T13:31:21.000Z</time>
      </trkpt>
      <trkpt lat="45.89417" lon="4.58856">
        <ele>239.43237</ele>
        <time>2023-12-07T13:31:22.000Z</time>
      </trkpt>
      <trkpt lat="45.8942" lon="4.58856">
        <ele>239.31027</ele>
        <time>2023-12-07T13:31:23.000Z</time>
      </trkpt>
      <trkpt lat="45.89423" lon="4.58858">
        <ele>239.22485</ele>
        <time>2023-12-07T13:31:24.000Z</time>
      </trkpt>
      <trkpt lat="45.89427" lon="4.5886">
        <ele>239.15872</ele>
        <time>2023-12-07T13:31:25.000Z</time>
      </trkpt>
      <trkpt lat="45.89431" lon="4.58858">
        <ele>239.14311</ele>
        <time>2023-12-07T13:31:26.000Z</time>
      </trkpt>
      <trkpt lat="45.89434" lon="4.58857">
        <ele>239.18387</ele>
        <time>2023-12-07T13:31:27.000Z</time>
      </trkpt>
      <trkpt lat="45.89436" lon="4.58854">
        <ele>239.23149</ele>
        <time>2023-12-07T13:31:28.000Z</time>
      </trkpt>
      <trkpt lat="45.89438" lon="4.5885">
        <ele>239.24089</ele>
        <time>2023-12-07T13:31:29.000Z</time>
      </trkpt>
      <trkpt lat="45.89441" lon="4.58845">
        <ele>239.27451</ele>
        <time>2023-12-07T13:31:30.000Z</time>
      </trkpt>
      <trkpt lat="45.89443" lon="4.58841">
        <ele>239.35864</ele>
        <time>2023-12-07T13:31:31.000Z</time>
      </trkpt>
      <trkpt lat="45.89446" lon="4.58838">
        <ele>239.48242</ele>
        <time>2023-12-07T13:31:32.000Z</time>
      </trkpt>
      <trkpt lat="45.89448" lon="4.58835">
        <ele>239.60905</ele>
        <time>2023-12-07T13:31:33.000Z</time>
      </trkpt>
      <trkpt lat="45.8945" lon="4.58831">
        <ele>239.74576</ele>
        <time>2023-12-07T13:31:34.000Z</time>
      </trkpt>
      <trkpt lat="45.89453" lon="4.58827">
        <ele>239.90215</ele>
        <time>2023-12-07T13:31:35.000Z</time>
      </trkpt>
      <trkpt lat="45.89455" lon="4.58823">
        <ele>240.04587</ele>
        <time>2023-12-07T13:31:36.000Z</time>
      </trkpt>
      <trkpt lat="45.89457" lon="4.5882">
        <ele>240.13159</ele>
        <time>2023-12-07T13:31:37.000Z</time>
      </trkpt>
      <trkpt lat="45.8946" lon="4.58816">
        <ele>240.15515</ele>
        <time>2023-12-07T13:31:38.000Z</time>
      </trkpt>
      <trkpt lat="45.89463" lon="4.58812">
        <ele>240.14914</ele>
        <time>2023-12-07T13:31:39.000Z</time>
      </trkpt>
      <trkpt lat="45.89465" lon="4.58808">
        <ele>240.17146</ele>
        <time>2023-12-07T13:31:40.000Z</time>
      </trkpt>
      <trkpt lat="45.89467" lon="4.58804">
        <ele>240.19475</ele>
        <time>2023-12-07T13:31:41.000Z</time>
      </trkpt>
      <trkpt lat="45.89469" lon="4.588">
        <ele>240.21451</ele>
        <time>2023-12-07T13:31:42.000Z</time>
      </trkpt>
      <trkpt lat="45.89471" lon="4.58796">
        <ele>240.18784</ele>
        <time>2023-12-07T13:31:43.000Z</time>
      </trkpt>
      <trkpt lat="45.89473" lon="4.58791">
        <ele>240.18982</ele>
        <time>2023-12-07T13:31:44.000Z</time>
      </trkpt>
      <trkpt lat="45.89475" lon="4.58786">
        <ele>240.19287</ele>
        <time>2023-12-07T13:31:45.000Z</time>
      </trkpt>
      <trkpt lat="45.89476" lon="4.58781">
        <ele>240.18388</ele>
        <time>2023-12-07T13:31:46.000Z</time>
      </trkpt>
      <trkpt lat="45.89478" lon="4.58776">
        <ele>240.15849</ele>
        <time>2023-12-07T13:31:47.000Z</time>
      </trkpt>
      <trkpt lat="45.89479" lon="4.58771">
        <ele>240.19072</ele>
        <time>2023-12-07T13:31:48.000Z</time>
      </trkpt>
      <trkpt lat="45.8948" lon="4.58765">
        <ele>240.23311</ele>
        <time>2023-12-07T13:31:49.000Z</time>
      </trkpt>
      <trkpt lat="45.89481" lon="4.58759">
        <ele>240.28459</ele>
        <time>2023-12-07T13:31:50.000Z</time>
      </trkpt>
      <trkpt lat="45.89481" lon="4.58754">
        <ele>240.33308</ele>
        <time>2023-12-07T13:31:51.000Z</time>
      </trkpt>
      <trkpt lat="45.89481" lon="4.58748">
        <ele>240.41277</ele>
        <time>2023-12-07T13:31:52.000Z</time>
      </trkpt>
      <trkpt lat="45.8948" lon="4.58743">
        <ele>240.50015</ele>
        <time>2023-12-07T13:31:53.000Z</time>
      </trkpt>
      <trkpt lat="45.8948" lon="4.58738">
        <ele>240.6066</ele>
        <time>2023-12-07T13:31:54.000Z</time>
      </trkpt>
      <trkpt lat="45.89479" lon="4.58734">
        <ele>240.73853</ele>
        <time>2023-12-07T13:31:55.000Z</time>
      </trkpt>
      <trkpt lat="45.89478" lon="4.58731">
        <ele>240.87317</ele>
        <time>2023-12-07T13:31:56.000Z</time>
      </trkpt>
      <trkpt lat="45.89478" lon="4.58728">
        <ele>241.04733</ele>
        <time>2023-12-07T13:31:57.000Z</time>
      </trkpt>
      <trkpt lat="45.89479" lon="4.58724">
        <ele>241.18063</ele>
        <time>2023-12-07T13:31:59.000Z</time>
      </trkpt>
      <trkpt lat="45.89481" lon="4.58721">
        <ele>241.3381</ele>
        <time>2023-12-07T13:32:00.000Z</time>
      </trkpt>
      <trkpt lat="45.89484" lon="4.5872">
        <ele>241.45093</ele>
        <time>2023-12-07T13:32:01.000Z</time>
      </trkpt>
      <trkpt lat="45.89488" lon="4.58718">
        <ele>241.54253</ele>
        <time>2023-12-07T13:32:02.000Z</time>
      </trkpt>
      <trkpt lat="45.89492" lon="4.58716">
        <ele>241.63342</ele>
        <time>2023-12-07T13:32:03.000Z</time>
      </trkpt>
      <trkpt lat="45.89498" lon="4.58711">
        <ele>241.66699</ele>
        <time>2023-12-07T13:32:04.000Z</time>
      </trkpt>
      <trkpt lat="45.89503" lon="4.58704">
        <ele>241.64462</ele>
        <time>2023-12-07T13:32:05.000Z</time>
      </trkpt>
      <trkpt lat="45.89507" lon="4.58697">
        <ele>241.58191</ele>
        <time>2023-12-07T13:32:06.000Z</time>
      </trkpt>
      <trkpt lat="45.89511" lon="4.58688">
        <ele>241.50285</ele>
        <time>2023-12-07T13:32:07.000Z</time>
      </trkpt>
      <trkpt lat="45.89514" lon="4.58679">
        <ele>241.4072</ele>
        <time>2023-12-07T13:32:08.000Z</time>
      </trkpt>
      <trkpt lat="45.89518" lon="4.5867">
        <ele>241.28293</ele>
        <time>2023-12-07T13:32:09.000Z</time>
      </trkpt>
      <trkpt lat="45.89523" lon="4.58665">
        <ele>241.19853</ele>
        <time>2023-12-07T13:32:10.000Z</time>
      </trkpt>
      <trkpt lat="45.89528" lon="4.58661">
        <ele>241.07199</ele>
        <time>2023-12-07T13:32:11.000Z</time>
      </trkpt>
      <trkpt lat="45.89536" lon="4.58659">
        <ele>240.9449</ele>
        <time>2023-12-07T13:32:12.000Z</time>
      </trkpt>
      <trkpt lat="45.89541" lon="4.58659">
        <ele>240.84445</ele>
        <time>2023-12-07T13:32:13.000Z</time>
      </trkpt>
      <trkpt lat="45.89548" lon="4.5866">
        <ele>240.76132</ele>
        <time>2023-12-07T13:32:14.000Z</time>
      </trkpt>
      <trkpt lat="45.89555" lon="4.58661">
        <ele>240.57365</ele>
        <time>2023-12-07T13:32:15.000Z</time>
      </trkpt>
      <trkpt lat="45.8956" lon="4.58664">
        <ele>240.37077</ele>
        <time>2023-12-07T13:32:16.000Z</time>
      </trkpt>
      <trkpt lat="45.89565" lon="4.58665">
        <ele>240.15079</ele>
        <time>2023-12-07T13:32:17.000Z</time>
      </trkpt>
      <trkpt lat="45.89569" lon="4.58666">
        <ele>239.88252</ele>
        <time>2023-12-07T13:32:18.000Z</time>
      </trkpt>
      <trkpt lat="45.89572" lon="4.58666">
        <ele>239.64839</ele>
        <time>2023-12-07T13:32:19.000Z</time>
      </trkpt>
      <trkpt lat="45.89573" lon="4.58663">
        <ele>239.49316</ele>
        <time>2023-12-07T13:32:30.000Z</time>
      </trkpt>
      <trkpt lat="45.89575" lon="4.58662">
        <ele>239.36092</ele>
        <time>2023-12-07T13:32:37.000Z</time>
      </trkpt>
      <trkpt lat="45.89578" lon="4.58661">
        <ele>239.22961</ele>
        <time>2023-12-07T13:32:39.000Z</time>
      </trkpt>
      <trkpt lat="45.89578" lon="4.58657">
        <ele>239.03362</ele>
        <time>2023-12-07T13:32:41.000Z</time>
      </trkpt>
      <trkpt lat="45.89578" lon="4.58654">
        <ele>238.86572</ele>
        <time>2023-12-07T13:32:55.000Z</time>
      </trkpt>
      <trkpt lat="45.89579" lon="4.58651">
        <ele>238.74837</ele>
        <time>2023-12-07T13:32:56.000Z</time>
      </trkpt>
      <trkpt lat="45.89579" lon="4.58647">
        <ele>238.66365</ele>
        <time>2023-12-07T13:32:57.000Z</time>
      </trkpt>
      <trkpt lat="45.89578" lon="4.58643">
        <ele>238.57932</ele>
        <time>2023-12-07T13:32:58.000Z</time>
      </trkpt>
      <trkpt lat="45.89578" lon="4.58639">
        <ele>238.52518</ele>
        <time>2023-12-07T13:32:59.000Z</time>
      </trkpt>
      <trkpt lat="45.89577" lon="4.58634">
        <ele>238.48157</ele>
        <time>2023-12-07T13:33:00.000Z</time>
      </trkpt>
      <trkpt lat="45.89576" lon="4.5863">
        <ele>238.45676</ele>
        <time>2023-12-07T13:33:01.000Z</time>
      </trkpt>
      <trkpt lat="45.89575" lon="4.58625">
        <ele>238.4886</ele>
        <time>2023-12-07T13:33:02.000Z</time>
      </trkpt>
      <trkpt lat="45.89574" lon="4.58621">
        <ele>238.54704</ele>
        <time>2023-12-07T13:33:03.000Z</time>
      </trkpt>
      <trkpt lat="45.89572" lon="4.58617">
        <ele>238.55237</ele>
        <time>2023-12-07T13:33:04.000Z</time>
      </trkpt>
      <trkpt lat="45.89571" lon="4.58613">
        <ele>238.57292</ele>
        <time>2023-12-07T13:33:05.000Z</time>
      </trkpt>
      <trkpt lat="45.8957" lon="4.58609">
        <ele>238.72124</ele>
        <time>2023-12-07T13:33:06.000Z</time>
      </trkpt>
      <trkpt lat="45.89569" lon="4.58605">
        <ele>238.86279</ele>
        <time>2023-12-07T13:33:07.000Z</time>
      </trkpt>
      <trkpt lat="45.89568" lon="4.58602">
        <ele>239.01126</ele>
        <time>2023-12-07T13:33:08.000Z</time>
      </trkpt>
      <trkpt lat="45.89567" lon="4.58598">
        <ele>239.21049</ele>
        <time>2023-12-07T13:33:09.000Z</time>
      </trkpt>
      <trkpt lat="45.89566" lon="4.58595">
        <ele>239.4617</ele>
        <time>2023-12-07T13:33:10.000Z</time>
      </trkpt>
      <trkpt lat="45.89564" lon="4.58591">
        <ele>239.58899</ele>
        <time>2023-12-07T13:33:11.000Z</time>
      </trkpt>
      <trkpt lat="45.89562" lon="4.58588">
        <ele>239.71585</ele>
        <time>2023-12-07T13:33:12.000Z</time>
      </trkpt>
      <trkpt lat="45.89561" lon="4.58584">
        <ele>239.87302</ele>
        <time>2023-12-07T13:33:13.000Z</time>
      </trkpt>
      <trkpt lat="45.8956" lon="4.58581">
        <ele>240.10495</ele>
        <time>2023-12-07T13:33:14.000Z</time>
      </trkpt>
      <trkpt lat="45.89559" lon="4.58579">
        <ele>240.40767</ele>
        <time>2023-12-07T13:33:15.000Z</time>
      </trkpt>
      <trkpt lat="45.89557" lon="4.58577">
        <ele>240.72647</ele>
        <time>2023-12-07T13:33:17.000Z</time>
      </trkpt>
      <trkpt lat="45.89557" lon="4.58581">
        <ele>241.04822</ele>
        <time>2023-12-07T13:33:19.000Z</time>
      </trkpt>
      <trkpt lat="45.89558" lon="4.58585">
        <ele>241.34042</ele>
        <time>2023-12-07T13:33:20.000Z</time>
      </trkpt>
      <trkpt lat="45.89564" lon="4.58593">
        <ele>241.59053</ele>
        <time>2023-12-07T13:33:21.000Z</time>
      </trkpt>
      <trkpt lat="45.89566" lon="4.586">
        <ele>241.82706</ele>
        <time>2023-12-07T13:33:22.000Z</time>
      </trkpt>
      <trkpt lat="45.89568" lon="4.58604">
        <ele>242.04594</ele>
        <time>2023-12-07T13:33:23.000Z</time>
      </trkpt>
      <trkpt lat="45.89569" lon="4.58609">
        <ele>242.24654</ele>
        <time>2023-12-07T13:33:24.000Z</time>
      </trkpt>
      <trkpt lat="45.89569" lon="4.58614">
        <ele>242.39133</ele>
        <time>2023-12-07T13:33:25.000Z</time>
      </trkpt>
      <trkpt lat="45.89571" lon="4.5862">
        <ele>242.49988</ele>
        <time>2023-12-07T13:33:26.000Z</time>
      </trkpt>
      <trkpt lat="45.89573" lon="4.58628">
        <ele>242.56152</ele>
        <time>2023-12-07T13:33:27.000Z</time>
      </trkpt>
      <trkpt lat="45.89575" lon="4.58635">
        <ele>242.58479</ele>
        <time>2023-12-07T13:33:28.000Z</time>
      </trkpt>
      <trkpt lat="45.89576" lon="4.58639">
        <ele>242.578</ele>
        <time>2023-12-07T13:33:29.000Z</time>
      </trkpt>
      <trkpt lat="45.89578" lon="4.58643">
        <ele>242.55025</ele>
        <time>2023-12-07T13:33:30.000Z</time>
      </trkpt>
      <trkpt lat="45.8958" lon="4.58647">
        <ele>242.46809</ele>
        <time>2023-12-07T13:33:31.000Z</time>
      </trkpt>
      <trkpt lat="45.89583" lon="4.5865">
        <ele>242.35359</ele>
        <time>2023-12-07T13:33:32.000Z</time>
      </trkpt>
      <trkpt lat="45.89587" lon="4.58652">
        <ele>242.24356</ele>
        <time>2023-12-07T13:33:33.000Z</time>
      </trkpt>
      <trkpt lat="45.8959" lon="4.58652">
        <ele>242.16438</ele>
        <time>2023-12-07T13:33:34.000Z</time>
      </trkpt>
      <trkpt lat="45.89594" lon="4.5865">
        <ele>242.04443</ele>
        <time>2023-12-07T13:33:36.000Z</time>
      </trkpt>
      <trkpt lat="45.89596" lon="4.58648">
        <ele>241.92545</ele>
        <time>2023-12-07T13:33:37.000Z</time>
      </trkpt>
      <trkpt lat="45.89599" lon="4.58646">
        <ele>241.82144</ele>
        <time>2023-12-07T13:33:38.000Z</time>
      </trkpt>
      <trkpt lat="45.89601" lon="4.58644">
        <ele>241.70503</ele>
        <time>2023-12-07T13:33:39.000Z</time>
      </trkpt>
      <trkpt lat="45.89604" lon="4.58642">
        <ele>241.60429</ele>
        <time>2023-12-07T13:33:40.000Z</time>
      </trkpt>
      <trkpt lat="45.89607" lon="4.5864">
        <ele>241.52209</ele>
        <time>2023-12-07T13:33:41.000Z</time>
      </trkpt>
      <trkpt lat="45.89609" lon="4.58637">
        <ele>241.44365</ele>
        <time>2023-12-07T13:33:42.000Z</time>
      </trkpt>
      <trkpt lat="45.89612" lon="4.58635">
        <ele>241.39755</ele>
        <time>2023-12-07T13:33:43.000Z</time>
      </trkpt>
      <trkpt lat="45.89614" lon="4.58632">
        <ele>241.34859</ele>
        <time>2023-12-07T13:33:44.000Z</time>
      </trkpt>
      <trkpt lat="45.89616" lon="4.58629">
        <ele>241.28679</ele>
        <time>2023-12-07T13:33:45.000Z</time>
      </trkpt>
      <trkpt lat="45.89618" lon="4.58626">
        <ele>241.27434</ele>
        <time>2023-12-07T13:33:46.000Z</time>
      </trkpt>
      <trkpt lat="45.8962" lon="4.58622">
        <ele>241.29143</ele>
        <time>2023-12-07T13:33:47.000Z</time>
      </trkpt>
      <trkpt lat="45.89623" lon="4.58619">
        <ele>241.34335</ele>
        <time>2023-12-07T13:33:48.000Z</time>
      </trkpt>
      <trkpt lat="45.89625" lon="4.58615">
        <ele>241.3968</ele>
        <time>2023-12-07T13:33:49.000Z</time>
      </trkpt>
      <trkpt lat="45.89627" lon="4.58611">
        <ele>241.44858</ele>
        <time>2023-12-07T13:33:50.000Z</time>
      </trkpt>
      <trkpt lat="45.89629" lon="4.58608">
        <ele>241.52605</ele>
        <time>2023-12-07T13:33:51.000Z</time>
      </trkpt>
      <trkpt lat="45.89631" lon="4.58604">
        <ele>241.64995</ele>
        <time>2023-12-07T13:33:52.000Z</time>
      </trkpt>
      <trkpt lat="45.89633" lon="4.586">
        <ele>241.75667</ele>
        <time>2023-12-07T13:33:53.000Z</time>
      </trkpt>
      <trkpt lat="45.89635" lon="4.58597">
        <ele>241.90755</ele>
        <time>2023-12-07T13:33:54.000Z</time>
      </trkpt>
      <trkpt lat="45.89637" lon="4.58594">
        <ele>242.02921</ele>
        <time>2023-12-07T13:33:55.000Z</time>
      </trkpt>
      <trkpt lat="45.89638" lon="4.58591">
        <ele>242.15854</ele>
        <time>2023-12-07T13:33:56.000Z</time>
      </trkpt>
      <trkpt lat="45.8964" lon="4.58587">
        <ele>242.24992</ele>
        <time>2023-12-07T13:33:57.000Z</time>
      </trkpt>
      <trkpt lat="45.89642" lon="4.58584">
        <ele>242.32251</ele>
        <time>2023-12-07T13:33:58.000Z</time>
      </trkpt>
      <trkpt lat="45.89645" lon="4.58581">
        <ele>242.37695</ele>
        <time>2023-12-07T13:33:59.000Z</time>
      </trkpt>
      <trkpt lat="45.89647" lon="4.58577">
        <ele>242.45291</ele>
        <time>2023-12-07T13:34:00.000Z</time>
      </trkpt>
      <trkpt lat="45.89649" lon="4.58574">
        <ele>242.58945</ele>
        <time>2023-12-07T13:34:01.000Z</time>
      </trkpt>
      <trkpt lat="45.89652" lon="4.58571">
        <ele>242.73926</ele>
        <time>2023-12-07T13:34:02.000Z</time>
      </trkpt>
      <trkpt lat="45.89654" lon="4.58568">
        <ele>242.87451</ele>
        <time>2023-12-07T13:34:03.000Z</time>
      </trkpt>
      <trkpt lat="45.89657" lon="4.58566">
        <ele>243.01797</ele>
        <time>2023-12-07T13:34:04.000Z</time>
      </trkpt>
      <trkpt lat="45.89659" lon="4.58562">
        <ele>243.17642</ele>
        <time>2023-12-07T13:34:05.000Z</time>
      </trkpt>
      <trkpt lat="45.8966" lon="4.58559">
        <ele>243.29639</ele>
        <time>2023-12-07T13:34:06.000Z</time>
      </trkpt>
      <trkpt lat="45.89662" lon="4.58556">
        <ele>243.44058</ele>
        <time>2023-12-07T13:34:07.000Z</time>
      </trkpt>
      <trkpt lat="45.89663" lon="4.58552">
        <ele>243.55997</ele>
        <time>2023-12-07T13:34:08.000Z</time>
      </trkpt>
      <trkpt lat="45.89665" lon="4.58548">
        <ele>243.67957</ele>
        <time>2023-12-07T13:34:09.000Z</time>
      </trkpt>
      <trkpt lat="45.89667" lon="4.58545">
        <ele>243.8503</ele>
        <time>2023-12-07T13:34:10.000Z</time>
      </trkpt>
      <trkpt lat="45.89669" lon="4.58541">
        <ele>244.01346</ele>
        <time>2023-12-07T13:34:11.000Z</time>
      </trkpt>
      <trkpt lat="45.89671" lon="4.58537">
        <ele>244.15178</ele>
        <time>2023-12-07T13:34:12.000Z</time>
      </trkpt>
      <trkpt lat="45.89672" lon="4.58534">
        <ele>244.33977</ele>
        <time>2023-12-07T13:34:13.000Z</time>
      </trkpt>
      <trkpt lat="45.89674" lon="4.5853">
        <ele>244.49899</ele>
        <time>2023-12-07T13:34:14.000Z</time>
      </trkpt>
      <trkpt lat="45.89676" lon="4.58527">
        <ele>244.69266</ele>
        <time>2023-12-07T13:34:15.000Z</time>
      </trkpt>
      <trkpt lat="45.89678" lon="4.58524">
        <ele>244.88892</ele>
        <time>2023-12-07T13:34:16.000Z</time>
      </trkpt>
      <trkpt lat="45.89679" lon="4.5852">
        <ele>245.12057</ele>
        <time>2023-12-07T13:34:17.000Z</time>
      </trkpt>
      <trkpt lat="45.89681" lon="4.58517">
        <ele>245.36862</ele>
        <time>2023-12-07T13:34:18.000Z</time>
      </trkpt>
      <trkpt lat="45.89682" lon="4.58513">
        <ele>245.64319</ele>
        <time>2023-12-07T13:34:19.000Z</time>
      </trkpt>
      <trkpt lat="45.89683" lon="4.58509">
        <ele>245.89865</ele>
        <time>2023-12-07T13:34:20.000Z</time>
      </trkpt>
      <trkpt lat="45.89684" lon="4.58505">
        <ele>246.15691</ele>
        <time>2023-12-07T13:34:21.000Z</time>
      </trkpt>
      <trkpt lat="45.89686" lon="4.58501">
        <ele>246.4325</ele>
        <time>2023-12-07T13:34:22.000Z</time>
      </trkpt>
      <trkpt lat="45.89687" lon="4.58497">
        <ele>246.80209</ele>
        <time>2023-12-07T13:34:23.000Z</time>
      </trkpt>
      <trkpt lat="45.89689" lon="4.58493">
        <ele>247.1685</ele>
        <time>2023-12-07T13:34:24.000Z</time>
      </trkpt>
      <trkpt lat="45.8969" lon="4.58489">
        <ele>247.52783</ele>
        <time>2023-12-07T13:34:25.000Z</time>
      </trkpt>
      <trkpt lat="45.89691" lon="4.58485">
        <ele>247.90454</ele>
        <time>2023-12-07T13:34:26.000Z</time>
      </trkpt>
      <trkpt lat="45.89692" lon="4.5848">
        <ele>248.25256</ele>
        <time>2023-12-07T13:34:27.000Z</time>
      </trkpt>
      <trkpt lat="45.89693" lon="4.58475">
        <ele>248.59732</ele>
        <time>2023-12-07T13:34:28.000Z</time>
      </trkpt>
      <trkpt lat="45.89694" lon="4.58471">
        <ele>248.98636</ele>
        <time>2023-12-07T13:34:29.000Z</time>
      </trkpt>
      <trkpt lat="45.89695" lon="4.58467">
        <ele>249.34917</ele>
        <time>2023-12-07T13:34:30.000Z</time>
      </trkpt>
      <trkpt lat="45.89696" lon="4.58462">
        <ele>249.72598</ele>
        <time>2023-12-07T13:34:31.000Z</time>
      </trkpt>
      <trkpt lat="45.89697" lon="4.58458">
        <ele>250.10349</ele>
        <time>2023-12-07T13:34:32.000Z</time>
      </trkpt>
      <trkpt lat="45.89698" lon="4.58454">
        <ele>250.45215</ele>
        <time>2023-12-07T13:34:33.000Z</time>
      </trkpt>
      <trkpt lat="45.89698" lon="4.58451">
        <ele>250.74991</ele>
        <time>2023-12-07T13:34:34.000Z</time>
      </trkpt>
      <trkpt lat="45.89699" lon="4.58447">
        <ele>251.02206</ele>
        <time>2023-12-07T13:34:35.000Z</time>
      </trkpt>
      <trkpt lat="45.897" lon="4.58443">
        <ele>251.30746</ele>
        <time>2023-12-07T13:34:36.000Z</time>
      </trkpt>
      <trkpt lat="45.897" lon="4.58439">
        <ele>251.59415</ele>
        <time>2023-12-07T13:34:37.000Z</time>
      </trkpt>
      <trkpt lat="45.89701" lon="4.58435">
        <ele>251.87903</ele>
        <time>2023-12-07T13:34:38.000Z</time>
      </trkpt>
      <trkpt lat="45.89702" lon="4.5843">
        <ele>252.153</ele>
        <time>2023-12-07T13:34:39.000Z</time>
      </trkpt>
      <trkpt lat="45.89703" lon="4.58426">
        <ele>252.42159</ele>
        <time>2023-12-07T13:34:40.000Z</time>
      </trkpt>
      <trkpt lat="45.89703" lon="4.58422">
        <ele>252.6709</ele>
        <time>2023-12-07T13:34:41.000Z</time>
      </trkpt>
      <trkpt lat="45.89704" lon="4.58418">
        <ele>252.91743</ele>
        <time>2023-12-07T13:34:42.000Z</time>
      </trkpt>
      <trkpt lat="45.89705" lon="4.58414">
        <ele>253.05098</ele>
        <time>2023-12-07T13:34:43.000Z</time>
      </trkpt>
      <trkpt lat="45.89706" lon="4.58409">
        <ele>253.3403</ele>
        <time>2023-12-07T13:34:44.000Z</time>
      </trkpt>
      <trkpt lat="45.89707" lon="4.58405">
        <ele>253.63748</ele>
        <time>2023-12-07T13:34:45.000Z</time>
      </trkpt>
      <trkpt lat="45.89708" lon="4.584">
        <ele>253.93913</ele>
        <time>2023-12-07T13:34:46.000Z</time>
      </trkpt>
      <trkpt lat="45.89709" lon="4.58397">
        <ele>254.2012</ele>
        <time>2023-12-07T13:34:47.000Z</time>
      </trkpt>
      <trkpt lat="45.8971" lon="4.58393">
        <ele>254.4895</ele>
        <time>2023-12-07T13:34:48.000Z</time>
      </trkpt>
      <trkpt lat="45.89711" lon="4.58388">
        <ele>254.7612</ele>
        <time>2023-12-07T13:34:49.000Z</time>
      </trkpt>
      <trkpt lat="45.89712" lon="4.58384">
        <ele>255.03543</ele>
        <time>2023-12-07T13:34:50.000Z</time>
      </trkpt>
      <trkpt lat="45.89713" lon="4.58381">
        <ele>255.28816</ele>
        <time>2023-12-07T13:34:51.000Z</time>
      </trkpt>
      <trkpt lat="45.89715" lon="4.58377">
        <ele>255.52507</ele>
        <time>2023-12-07T13:34:52.000Z</time>
      </trkpt>
      <trkpt lat="45.89717" lon="4.58374">
        <ele>255.74759</ele>
        <time>2023-12-07T13:34:53.000Z</time>
      </trkpt>
      <trkpt lat="45.89719" lon="4.58371">
        <ele>256.00864</ele>
        <time>2023-12-07T13:34:54.000Z</time>
      </trkpt>
      <trkpt lat="45.89721" lon="4.58368">
        <ele>256.27643</ele>
        <time>2023-12-07T13:34:55.000Z</time>
      </trkpt>
      <trkpt lat="45.89723" lon="4.58365">
        <ele>256.43097</ele>
        <time>2023-12-07T13:34:56.000Z</time>
      </trkpt>
      <trkpt lat="45.89724" lon="4.58362">
        <ele>256.56873</ele>
        <time>2023-12-07T13:34:57.000Z</time>
      </trkpt>
      <trkpt lat="45.89726" lon="4.58359">
        <ele>256.69656</ele>
        <time>2023-12-07T13:34:58.000Z</time>
      </trkpt>
      <trkpt lat="45.89728" lon="4.58356">
        <ele>256.79306</ele>
        <time>2023-12-07T13:34:59.000Z</time>
      </trkpt>
      <trkpt lat="45.8973" lon="4.58352">
        <ele>257.05353</ele>
        <time>2023-12-07T13:35:00.000Z</time>
      </trkpt>
      <trkpt lat="45.89731" lon="4.58349">
        <ele>257.30588</ele>
        <time>2023-12-07T13:35:01.000Z</time>
      </trkpt>
      <trkpt lat="45.89733" lon="4.58346">
        <ele>257.54758</ele>
        <time>2023-12-07T13:35:02.000Z</time>
      </trkpt>
      <trkpt lat="45.89735" lon="4.58342">
        <ele>257.78375</ele>
        <time>2023-12-07T13:35:03.000Z</time>
      </trkpt>
      <trkpt lat="45.89737" lon="4.58339">
        <ele>257.89188</ele>
        <time>2023-12-07T13:35:04.000Z</time>
      </trkpt>
      <trkpt lat="45.89739" lon="4.58335">
        <ele>257.97687</ele>
        <time>2023-12-07T13:35:05.000Z</time>
      </trkpt>
      <trkpt lat="45.89741" lon="4.58332">
        <ele>258.02716</ele>
        <time>2023-12-07T13:35:06.000Z</time>
      </trkpt>
      <trkpt lat="45.89742" lon="4.58328">
        <ele>258.14008</ele>
        <time>2023-12-07T13:35:07.000Z</time>
      </trkpt>
      <trkpt lat="45.89744" lon="4.58325">
        <ele>258.20407</ele>
        <time>2023-12-07T13:35:08.000Z</time>
      </trkpt>
      <trkpt lat="45.89746" lon="4.58322">
        <ele>258.24451</ele>
        <time>2023-12-07T13:35:09.000Z</time>
      </trkpt>
      <trkpt lat="45.89747" lon="4.5832">
        <ele>258.20313</ele>
        <time>2023-12-07T13:35:10.000Z</time>
      </trkpt>
      <trkpt lat="45.89749" lon="4.58317">
        <ele>258.18579</ele>
        <time>2023-12-07T13:35:11.000Z</time>
      </trkpt>
      <trkpt lat="45.89751" lon="4.58315">
        <ele>258.19397</ele>
        <time>2023-12-07T13:35:12.000Z</time>
      </trkpt>
      <trkpt lat="45.89753" lon="4.58312">
        <ele>258.19424</ele>
        <time>2023-12-07T13:35:13.000Z</time>
      </trkpt>
      <trkpt lat="45.89755" lon="4.58311">
        <ele>258.23022</ele>
        <time>2023-12-07T13:35:14.000Z</time>
      </trkpt>
      <trkpt lat="45.89758" lon="4.58309">
        <ele>258.20667</ele>
        <time>2023-12-07T13:35:15.000Z</time>
      </trkpt>
      <trkpt lat="45.8976" lon="4.58308">
        <ele>258.33231</ele>
        <time>2023-12-07T13:35:16.000Z</time>
      </trkpt>
      <trkpt lat="45.89762" lon="4.58306">
        <ele>258.45798</ele>
        <time>2023-12-07T13:35:17.000Z</time>
      </trkpt>
      <trkpt lat="45.89765" lon="4.58304">
        <ele>258.57333</ele>
        <time>2023-12-07T13:35:18.000Z</time>
      </trkpt>
      <trkpt lat="45.89767" lon="4.58301">
        <ele>258.69852</ele>
        <time>2023-12-07T13:35:19.000Z</time>
      </trkpt>
      <trkpt lat="45.8977" lon="4.58299">
        <ele>258.6662</ele>
        <time>2023-12-07T13:35:20.000Z</time>
      </trkpt>
      <trkpt lat="45.89773" lon="4.58297">
        <ele>258.66531</ele>
        <time>2023-12-07T13:35:21.000Z</time>
      </trkpt>
      <trkpt lat="45.89776" lon="4.58295">
        <ele>258.67886</ele>
        <time>2023-12-07T13:35:22.000Z</time>
      </trkpt>
      <trkpt lat="45.89779" lon="4.58292">
        <ele>258.67447</ele>
        <time>2023-12-07T13:35:23.000Z</time>
      </trkpt>
      <trkpt lat="45.89782" lon="4.5829">
        <ele>258.63983</ele>
        <time>2023-12-07T13:35:24.000Z</time>
      </trkpt>
      <trkpt lat="45.89785" lon="4.58287">
        <ele>258.61813</ele>
        <time>2023-12-07T13:35:25.000Z</time>
      </trkpt>
      <trkpt lat="45.89788" lon="4.58285">
        <ele>258.61469</ele>
        <time>2023-12-07T13:35:26.000Z</time>
      </trkpt>
      <trkpt lat="45.89791" lon="4.58283">
        <ele>258.57147</ele>
        <time>2023-12-07T13:35:27.000Z</time>
      </trkpt>
      <trkpt lat="45.89794" lon="4.58279">
        <ele>258.49872</ele>
        <time>2023-12-07T13:35:28.000Z</time>
      </trkpt>
      <trkpt lat="45.89796" lon="4.58276">
        <ele>258.41925</ele>
        <time>2023-12-07T13:35:29.000Z</time>
      </trkpt>
      <trkpt lat="45.89799" lon="4.58272">
        <ele>258.41751</ele>
        <time>2023-12-07T13:35:30.000Z</time>
      </trkpt>
      <trkpt lat="45.89801" lon="4.58269">
        <ele>258.39728</ele>
        <time>2023-12-07T13:35:31.000Z</time>
      </trkpt>
      <trkpt lat="45.89805" lon="4.58267">
        <ele>258.35373</ele>
        <time>2023-12-07T13:35:32.000Z</time>
      </trkpt>
      <trkpt lat="45.89808" lon="4.58264">
        <ele>258.31131</ele>
        <time>2023-12-07T13:35:33.000Z</time>
      </trkpt>
      <trkpt lat="45.89811" lon="4.58262">
        <ele>258.25424</ele>
        <time>2023-12-07T13:35:34.000Z</time>
      </trkpt>
      <trkpt lat="45.89815" lon="4.58259">
        <ele>258.23322</ele>
        <time>2023-12-07T13:35:35.000Z</time>
      </trkpt>
      <trkpt lat="45.89818" lon="4.58256">
        <ele>258.16666</ele>
        <time>2023-12-07T13:35:36.000Z</time>
      </trkpt>
      <trkpt lat="45.89822" lon="4.58254">
        <ele>258.08136</ele>
        <time>2023-12-07T13:35:37.000Z</time>
      </trkpt>
      <trkpt lat="45.89826" lon="4.58251">
        <ele>257.87152</ele>
        <time>2023-12-07T13:35:38.000Z</time>
      </trkpt>
      <trkpt lat="45.8983" lon="4.58248">
        <ele>257.64499</ele>
        <time>2023-12-07T13:35:39.000Z</time>
      </trkpt>
      <trkpt lat="45.89833" lon="4.58245">
        <ele>257.38388</ele>
        <time>2023-12-07T13:35:40.000Z</time>
      </trkpt>
      <trkpt lat="45.89836" lon="4.58241">
        <ele>257.07584</ele>
        <time>2023-12-07T13:35:41.000Z</time>
      </trkpt>
      <trkpt lat="45.89839" lon="4.58237">
        <ele>256.87881</ele>
        <time>2023-12-07T13:35:42.000Z</time>
      </trkpt>
      <trkpt lat="45.89842" lon="4.58235">
        <ele>256.6246</ele>
        <time>2023-12-07T13:35:43.000Z</time>
      </trkpt>
      <trkpt lat="45.89846" lon="4.58232">
        <ele>256.3779</ele>
        <time>2023-12-07T13:35:44.000Z</time>
      </trkpt>
      <trkpt lat="45.8985" lon="4.5823">
        <ele>256.14014</ele>
        <time>2023-12-07T13:35:45.000Z</time>
      </trkpt>
      <trkpt lat="45.89854" lon="4.58228">
        <ele>255.84627</ele>
        <time>2023-12-07T13:35:46.000Z</time>
      </trkpt>
      <trkpt lat="45.89857" lon="4.58226">
        <ele>255.54697</ele>
        <time>2023-12-07T13:35:47.000Z</time>
      </trkpt>
      <trkpt lat="45.89861" lon="4.58223">
        <ele>255.32071</ele>
        <time>2023-12-07T13:35:48.000Z</time>
      </trkpt>
      <trkpt lat="45.89864" lon="4.5822">
        <ele>255.20337</ele>
        <time>2023-12-07T13:35:49.000Z</time>
      </trkpt>
      <trkpt lat="45.89868" lon="4.58217">
        <ele>255.08923</ele>
        <time>2023-12-07T13:35:50.000Z</time>
      </trkpt>
      <trkpt lat="45.8987" lon="4.58213">
        <ele>255.01675</ele>
        <time>2023-12-07T13:35:51.000Z</time>
      </trkpt>
      <trkpt lat="45.89873" lon="4.5821">
        <ele>254.98177</ele>
        <time>2023-12-07T13:35:52.000Z</time>
      </trkpt>
      <trkpt lat="45.89876" lon="4.58206">
        <ele>254.98189</ele>
        <time>2023-12-07T13:35:53.000Z</time>
      </trkpt>
      <trkpt lat="45.8988" lon="4.58203">
        <ele>254.99683</ele>
        <time>2023-12-07T13:35:54.000Z</time>
      </trkpt>
      <trkpt lat="45.89883" lon="4.58201">
        <ele>254.9716</ele>
        <time>2023-12-07T13:35:55.000Z</time>
      </trkpt>
      <trkpt lat="45.89886" lon="4.58198">
        <ele>254.97563</ele>
        <time>2023-12-07T13:35:56.000Z</time>
      </trkpt>
      <trkpt lat="45.8989" lon="4.58196">
        <ele>254.87871</ele>
        <time>2023-12-07T13:35:57.000Z</time>
      </trkpt>
      <trkpt lat="45.89893" lon="4.58192">
        <ele>254.8999</ele>
        <time>2023-12-07T13:35:58.000Z</time>
      </trkpt>
      <trkpt lat="45.89896" lon="4.58189">
        <ele>254.93025</ele>
        <time>2023-12-07T13:35:59.000Z</time>
      </trkpt>
      <trkpt lat="45.89899" lon="4.58185">
        <ele>254.96379</ele>
        <time>2023-12-07T13:36:00.000Z</time>
      </trkpt>
      <trkpt lat="45.89902" lon="4.58181">
        <ele>255.19662</ele>
        <time>2023-12-07T13:36:01.000Z</time>
      </trkpt>
      <trkpt lat="45.89906" lon="4.58178">
        <ele>255.29074</ele>
        <time>2023-12-07T13:36:02.000Z</time>
      </trkpt>
      <trkpt lat="45.8991" lon="4.58174">
        <ele>255.46626</ele>
        <time>2023-12-07T13:36:03.000Z</time>
      </trkpt>
      <trkpt lat="45.89913" lon="4.58171">
        <ele>255.61284</ele>
        <time>2023-12-07T13:36:04.000Z</time>
      </trkpt>
      <trkpt lat="45.89918" lon="4.5817">
        <ele>255.73763</ele>
        <time>2023-12-07T13:36:05.000Z</time>
      </trkpt>
      <trkpt lat="45.89921" lon="4.58166">
        <ele>255.90633</ele>
        <time>2023-12-07T13:36:06.000Z</time>
      </trkpt>
      <trkpt lat="45.89925" lon="4.58162">
        <ele>256.08359</ele>
        <time>2023-12-07T13:36:07.000Z</time>
      </trkpt>
      <trkpt lat="45.89929" lon="4.58159">
        <ele>256.25299</ele>
        <time>2023-12-07T13:36:08.000Z</time>
      </trkpt>
      <trkpt lat="45.89932" lon="4.58157">
        <ele>256.34174</ele>
        <time>2023-12-07T13:36:09.000Z</time>
      </trkpt>
      <trkpt lat="45.89935" lon="4.58156">
        <ele>256.41388</ele>
        <time>2023-12-07T13:36:10.000Z</time>
      </trkpt>
      <trkpt lat="45.89938" lon="4.58155">
        <ele>256.4852</ele>
        <time>2023-12-07T13:36:11.000Z</time>
      </trkpt>
      <trkpt lat="45.89941" lon="4.58154">
        <ele>256.55832</ele>
        <time>2023-12-07T13:36:12.000Z</time>
      </trkpt>
      <trkpt lat="45.89944" lon="4.58153">
        <ele>256.63898</ele>
        <time>2023-12-07T13:36:13.000Z</time>
      </trkpt>
      <trkpt lat="45.89947" lon="4.58152">
        <ele>256.6839</ele>
        <time>2023-12-07T13:36:14.000Z</time>
      </trkpt>
      <trkpt lat="45.8995" lon="4.5815">
        <ele>256.73389</ele>
        <time>2023-12-07T13:36:15.000Z</time>
      </trkpt>
      <trkpt lat="45.89953" lon="4.58148">
        <ele>256.76913</ele>
        <time>2023-12-07T13:36:16.000Z</time>
      </trkpt>
      <trkpt lat="45.89956" lon="4.58147">
        <ele>256.87341</ele>
        <time>2023-12-07T13:36:17.000Z</time>
      </trkpt>
      <trkpt lat="45.89959" lon="4.58145">
        <ele>256.94379</ele>
        <time>2023-12-07T13:36:18.000Z</time>
      </trkpt>
      <trkpt lat="45.89962" lon="4.58144">
        <ele>257.0043</ele>
        <time>2023-12-07T13:36:19.000Z</time>
      </trkpt>
      <trkpt lat="45.89965" lon="4.58142">
        <ele>257.23615</ele>
        <time>2023-12-07T13:36:20.000Z</time>
      </trkpt>
      <trkpt lat="45.89968" lon="4.58141">
        <ele>257.25394</ele>
        <time>2023-12-07T13:36:21.000Z</time>
      </trkpt>
      <trkpt lat="45.89972" lon="4.58139">
        <ele>257.30917</ele>
        <time>2023-12-07T13:36:22.000Z</time>
      </trkpt>
      <trkpt lat="45.89975" lon="4.58137">
        <ele>257.39029</ele>
        <time>2023-12-07T13:36:23.000Z</time>
      </trkpt>
      <trkpt lat="45.89978" lon="4.58136">
        <ele>257.46967</ele>
        <time>2023-12-07T13:36:24.000Z</time>
      </trkpt>
      <trkpt lat="45.8998" lon="4.58134">
        <ele>257.55161</ele>
        <time>2023-12-07T13:36:25.000Z</time>
      </trkpt>
      <trkpt lat="45.89983" lon="4.58132">
        <ele>257.66525</ele>
        <time>2023-12-07T13:36:26.000Z</time>
      </trkpt>
      <trkpt lat="45.89985" lon="4.5813">
        <ele>257.79767</ele>
        <time>2023-12-07T13:36:27.000Z</time>
      </trkpt>
      <trkpt lat="45.89988" lon="4.58128">
        <ele>257.9325</ele>
        <time>2023-12-07T13:36:28.000Z</time>
      </trkpt>
      <trkpt lat="45.8999" lon="4.58125">
        <ele>258.06299</ele>
        <time>2023-12-07T13:36:29.000Z</time>
      </trkpt>
      <trkpt lat="45.89992" lon="4.58123">
        <ele>258.18011</ele>
        <time>2023-12-07T13:36:30.000Z</time>
      </trkpt>
      <trkpt lat="45.89994" lon="4.5812">
        <ele>258.2973</ele>
        <time>2023-12-07T13:36:31.000Z</time>
      </trkpt>
      <trkpt lat="45.89997" lon="4.58118">
        <ele>258.39661</ele>
        <time>2023-12-07T13:36:32.000Z</time>
      </trkpt>
      <trkpt lat="45.9" lon="4.58115">
        <ele>258.49084</ele>
        <time>2023-12-07T13:36:33.000Z</time>
      </trkpt>
      <trkpt lat="45.90002" lon="4.58113">
        <ele>258.60602</ele>
        <time>2023-12-07T13:36:34.000Z</time>
      </trkpt>
      <trkpt lat="45.90005" lon="4.58111">
        <ele>258.80682</ele>
        <time>2023-12-07T13:36:35.000Z</time>
      </trkpt>
      <trkpt lat="45.90008" lon="4.58109">
        <ele>258.98074</ele>
        <time>2023-12-07T13:36:36.000Z</time>
      </trkpt>
      <trkpt lat="45.90011" lon="4.58107">
        <ele>258.99683</ele>
        <time>2023-12-07T13:36:37.000Z</time>
      </trkpt>
      <trkpt lat="45.90014" lon="4.58105">
        <ele>258.86014</ele>
        <time>2023-12-07T13:36:38.000Z</time>
      </trkpt>
      <trkpt lat="45.90016" lon="4.58102">
        <ele>258.77237</ele>
        <time>2023-12-07T13:36:39.000Z</time>
      </trkpt>
      <trkpt lat="45.90018" lon="4.58098">
        <ele>258.81845</ele>
        <time>2023-12-07T13:36:40.000Z</time>
      </trkpt>
      <trkpt lat="45.9002" lon="4.58094">
        <ele>258.86728</ele>
        <time>2023-12-07T13:36:41.000Z</time>
      </trkpt>
      <trkpt lat="45.90022" lon="4.58091">
        <ele>258.89032</ele>
        <time>2023-12-07T13:36:42.000Z</time>
      </trkpt>
      <trkpt lat="45.90024" lon="4.58087">
        <ele>258.88461</ele>
        <time>2023-12-07T13:36:43.000Z</time>
      </trkpt>
      <trkpt lat="45.90026" lon="4.58084">
        <ele>258.90793</ele>
        <time>2023-12-07T13:36:44.000Z</time>
      </trkpt>
      <trkpt lat="45.90028" lon="4.5808">
        <ele>258.94257</ele>
        <time>2023-12-07T13:36:45.000Z</time>
      </trkpt>
      <trkpt lat="45.9003" lon="4.58076">
        <ele>258.95392</ele>
        <time>2023-12-07T13:36:46.000Z</time>
      </trkpt>
      <trkpt lat="45.90033" lon="4.58073">
        <ele>258.95923</ele>
        <time>2023-12-07T13:36:47.000Z</time>
      </trkpt>
      <trkpt lat="45.90035" lon="4.58069">
        <ele>258.86209</ele>
        <time>2023-12-07T13:36:48.000Z</time>
      </trkpt>
      <trkpt lat="45.90037" lon="4.58066">
        <ele>258.73804</ele>
        <time>2023-12-07T13:36:49.000Z</time>
      </trkpt>
      <trkpt lat="45.9004" lon="4.58062">
        <ele>258.59204</ele>
        <time>2023-12-07T13:36:50.000Z</time>
      </trkpt>
      <trkpt lat="45.90042" lon="4.58058">
        <ele>258.33112</ele>
        <time>2023-12-07T13:36:51.000Z</time>
      </trkpt>
      <trkpt lat="45.90045" lon="4.58055">
        <ele>258.0896</ele>
        <time>2023-12-07T13:36:52.000Z</time>
      </trkpt>
      <trkpt lat="45.90047" lon="4.58051">
        <ele>258.1001</ele>
        <time>2023-12-07T13:36:53.000Z</time>
      </trkpt>
      <trkpt lat="45.90049" lon="4.58048">
        <ele>258.04681</ele>
        <time>2023-12-07T13:36:54.000Z</time>
      </trkpt>
      <trkpt lat="45.90052" lon="4.58045">
        <ele>257.91205</ele>
        <time>2023-12-07T13:36:55.000Z</time>
      </trkpt>
      <trkpt lat="45.90054" lon="4.58041">
        <ele>257.82117</ele>
        <time>2023-12-07T13:36:56.000Z</time>
      </trkpt>
      <trkpt lat="45.90056" lon="4.58037">
        <ele>257.93842</ele>
        <time>2023-12-07T13:36:57.000Z</time>
      </trkpt>
      <trkpt lat="45.90057" lon="4.58033">
        <ele>258.26523</ele>
        <time>2023-12-07T13:36:58.000Z</time>
      </trkpt>
      <trkpt lat="45.90059" lon="4.58029">
        <ele>258.54105</ele>
        <time>2023-12-07T13:36:59.000Z</time>
      </trkpt>
      <trkpt lat="45.90062" lon="4.58025">
        <ele>258.53461</ele>
        <time>2023-12-07T13:37:00.000Z</time>
      </trkpt>
      <trkpt lat="45.90064" lon="4.58021">
        <ele>258.57986</ele>
        <time>2023-12-07T13:37:01.000Z</time>
      </trkpt>
      <trkpt lat="45.90067" lon="4.58017">
        <ele>258.65097</ele>
        <time>2023-12-07T13:37:02.000Z</time>
      </trkpt>
      <trkpt lat="45.90069" lon="4.58013">
        <ele>258.7272</ele>
        <time>2023-12-07T13:37:03.000Z</time>
      </trkpt>
      <trkpt lat="45.90071" lon="4.58009">
        <ele>258.79846</ele>
        <time>2023-12-07T13:37:04.000Z</time>
      </trkpt>
      <trkpt lat="45.90074" lon="4.58005">
        <ele>258.85187</ele>
        <time>2023-12-07T13:37:05.000Z</time>
      </trkpt>
      <trkpt lat="45.90077" lon="4.58001">
        <ele>258.88876</ele>
        <time>2023-12-07T13:37:06.000Z</time>
      </trkpt>
      <trkpt lat="45.90079" lon="4.57997">
        <ele>258.94214</ele>
        <time>2023-12-07T13:37:07.000Z</time>
      </trkpt>
      <trkpt lat="45.90081" lon="4.57993">
        <ele>259.09851</ele>
        <time>2023-12-07T13:37:08.000Z</time>
      </trkpt>
      <trkpt lat="45.90081" lon="4.57987">
        <ele>259.25992</ele>
        <time>2023-12-07T13:37:09.000Z</time>
      </trkpt>
      <trkpt lat="45.9008" lon="4.57982">
        <ele>259.4509</ele>
        <time>2023-12-07T13:37:10.000Z</time>
      </trkpt>
      <trkpt lat="45.90078" lon="4.57978">
        <ele>259.72858</ele>
        <time>2023-12-07T13:37:11.000Z</time>
      </trkpt>
      <trkpt lat="45.90075" lon="4.57975">
        <ele>259.99994</ele>
        <time>2023-12-07T13:37:12.000Z</time>
      </trkpt>
      <trkpt lat="45.90072" lon="4.57971">
        <ele>260.05847</ele>
        <time>2023-12-07T13:37:13.000Z</time>
      </trkpt>
      <trkpt lat="45.90069" lon="4.57968">
        <ele>259.96976</ele>
        <time>2023-12-07T13:37:14.000Z</time>
      </trkpt>
      <trkpt lat="45.90066" lon="4.57965">
        <ele>259.93353</ele>
        <time>2023-12-07T13:37:15.000Z</time>
      </trkpt>
      <trkpt lat="45.90063" lon="4.57961">
        <ele>259.81998</ele>
        <time>2023-12-07T13:37:16.000Z</time>
      </trkpt>
      <trkpt lat="45.9006" lon="4.57958">
        <ele>259.66245</ele>
        <time>2023-12-07T13:37:17.000Z</time>
      </trkpt>
      <trkpt lat="45.90058" lon="4.57954">
        <ele>259.48825</ele>
        <time>2023-12-07T13:37:18.000Z</time>
      </trkpt>
      <trkpt lat="45.90055" lon="4.5795">
        <ele>259.64798</ele>
        <time>2023-12-07T13:37:19.000Z</time>
      </trkpt>
      <trkpt lat="45.90053" lon="4.57946">
        <ele>259.75723</ele>
        <time>2023-12-07T13:37:20.000Z</time>
      </trkpt>
      <trkpt lat="45.9005" lon="4.57942">
        <ele>259.79788</ele>
        <time>2023-12-07T13:37:21.000Z</time>
      </trkpt>
      <trkpt lat="45.90047" lon="4.57938">
        <ele>259.64081</ele>
        <time>2023-12-07T13:37:22.000Z</time>
      </trkpt>
      <trkpt lat="45.90044" lon="4.57935">
        <ele>259.43915</ele>
        <time>2023-12-07T13:37:23.000Z</time>
      </trkpt>
      <trkpt lat="45.90042" lon="4.57931">
        <ele>259.57831</ele>
        <time>2023-12-07T13:37:24.000Z</time>
      </trkpt>
      <trkpt lat="45.90039" lon="4.57928">
        <ele>259.70349</ele>
        <time>2023-12-07T13:37:25.000Z</time>
      </trkpt>
      <trkpt lat="45.90036" lon="4.57924">
        <ele>259.88495</ele>
        <time>2023-12-07T13:37:26.000Z</time>
      </trkpt>
      <trkpt lat="45.90033" lon="4.57921">
        <ele>260.02979</ele>
        <time>2023-12-07T13:37:27.000Z</time>
      </trkpt>
      <trkpt lat="45.9003" lon="4.57917">
        <ele>260.1651</ele>
        <time>2023-12-07T13:37:28.000Z</time>
      </trkpt>
      <trkpt lat="45.90027" lon="4.57913">
        <ele>260.29938</ele>
        <time>2023-12-07T13:37:29.000Z</time>
      </trkpt>
      <trkpt lat="45.90024" lon="4.5791">
        <ele>260.42847</ele>
        <time>2023-12-07T13:37:30.000Z</time>
      </trkpt>
      <trkpt lat="45.90021" lon="4.57906">
        <ele>260.5719</ele>
        <time>2023-12-07T13:37:31.000Z</time>
      </trkpt>
      <trkpt lat="45.90019" lon="4.57903">
        <ele>260.70508</ele>
        <time>2023-12-07T13:37:32.000Z</time>
      </trkpt>
      <trkpt lat="45.90016" lon="4.57899">
        <ele>260.78705</ele>
        <time>2023-12-07T13:37:33.000Z</time>
      </trkpt>
      <trkpt lat="45.90014" lon="4.57896">
        <ele>261.1676</ele>
        <time>2023-12-07T13:37:34.000Z</time>
      </trkpt>
      <trkpt lat="45.90011" lon="4.57892">
        <ele>261.53937</ele>
        <time>2023-12-07T13:37:35.000Z</time>
      </trkpt>
      <trkpt lat="45.90008" lon="4.57888">
        <ele>261.95093</ele>
        <time>2023-12-07T13:37:36.000Z</time>
      </trkpt>
      <trkpt lat="45.90006" lon="4.57885">
        <ele>262.25247</ele>
        <time>2023-12-07T13:37:37.000Z</time>
      </trkpt>
      <trkpt lat="45.90003" lon="4.57881">
        <ele>262.52597</ele>
        <time>2023-12-07T13:37:38.000Z</time>
      </trkpt>
      <trkpt lat="45.90001" lon="4.57877">
        <ele>262.76736</ele>
        <time>2023-12-07T13:37:39.000Z</time>
      </trkpt>
      <trkpt lat="45.89998" lon="4.57872">
        <ele>263.00156</ele>
        <time>2023-12-07T13:37:40.000Z</time>
      </trkpt>
      <trkpt lat="45.89997" lon="4.57867">
        <ele>263.3067</ele>
        <time>2023-12-07T13:37:41.000Z</time>
      </trkpt>
      <trkpt lat="45.89997" lon="4.57861">
        <ele>263.74936</ele>
        <time>2023-12-07T13:37:42.000Z</time>
      </trkpt>
      <trkpt lat="45.89998" lon="4.57856">
        <ele>264.24976</ele>
        <time>2023-12-07T13:37:43.000Z</time>
      </trkpt>
      <trkpt lat="45.9" lon="4.5785">
        <ele>264.38922</ele>
        <time>2023-12-07T13:37:44.000Z</time>
      </trkpt>
      <trkpt lat="45.90002" lon="4.57845">
        <ele>264.55893</ele>
        <time>2023-12-07T13:37:45.000Z</time>
      </trkpt>
      <trkpt lat="45.90004" lon="4.5784">
        <ele>264.69952</ele>
        <time>2023-12-07T13:37:46.000Z</time>
      </trkpt>
      <trkpt lat="45.90005" lon="4.57835">
        <ele>264.8526</ele>
        <time>2023-12-07T13:37:47.000Z</time>
      </trkpt>
      <trkpt lat="45.90007" lon="4.57829">
        <ele>264.94028</ele>
        <time>2023-12-07T13:37:48.000Z</time>
      </trkpt>
      <trkpt lat="45.9001" lon="4.57824">
        <ele>265.01544</ele>
        <time>2023-12-07T13:37:49.000Z</time>
      </trkpt>
      <trkpt lat="45.90011" lon="4.57819">
        <ele>265.077</ele>
        <time>2023-12-07T13:37:50.000Z</time>
      </trkpt>
      <trkpt lat="45.90014" lon="4.57813">
        <ele>265.1568</ele>
        <time>2023-12-07T13:37:51.000Z</time>
      </trkpt>
      <trkpt lat="45.90016" lon="4.57808">
        <ele>265.26993</ele>
        <time>2023-12-07T13:37:52.000Z</time>
      </trkpt>
      <trkpt lat="45.90018" lon="4.57803">
        <ele>265.35275</ele>
        <time>2023-12-07T13:37:53.000Z</time>
      </trkpt>
      <trkpt lat="45.90019" lon="4.57798">
        <ele>265.32663</ele>
        <time>2023-12-07T13:37:54.000Z</time>
      </trkpt>
      <trkpt lat="45.90021" lon="4.57792">
        <ele>265.36383</ele>
        <time>2023-12-07T13:37:55.000Z</time>
      </trkpt>
      <trkpt lat="45.90023" lon="4.57787">
        <ele>265.36481</ele>
        <time>2023-12-07T13:37:56.000Z</time>
      </trkpt>
      <trkpt lat="45.90025" lon="4.57781">
        <ele>265.54199</ele>
        <time>2023-12-07T13:37:57.000Z</time>
      </trkpt>
      <trkpt lat="45.90026" lon="4.57776">
        <ele>265.74722</ele>
        <time>2023-12-07T13:37:58.000Z</time>
      </trkpt>
      <trkpt lat="45.90028" lon="4.5777">
        <ele>265.65631</ele>
        <time>2023-12-07T13:37:59.000Z</time>
      </trkpt>
      <trkpt lat="45.9003" lon="4.57765">
        <ele>265.61801</ele>
        <time>2023-12-07T13:38:00.000Z</time>
      </trkpt>
      <trkpt lat="45.90031" lon="4.57759">
        <ele>265.53232</ele>
        <time>2023-12-07T13:38:01.000Z</time>
      </trkpt>
      <trkpt lat="45.90033" lon="4.57753">
        <ele>265.42639</ele>
        <time>2023-12-07T13:38:02.000Z</time>
      </trkpt>
      <trkpt lat="45.90035" lon="4.57748">
        <ele>265.33514</ele>
        <time>2023-12-07T13:38:03.000Z</time>
      </trkpt>
      <trkpt lat="45.90037" lon="4.57742">
        <ele>265.26495</ele>
        <time>2023-12-07T13:38:04.000Z</time>
      </trkpt>
      <trkpt lat="45.90039" lon="4.57735">
        <ele>265.2034</ele>
        <time>2023-12-07T13:38:05.000Z</time>
      </trkpt>
      <trkpt lat="45.9004" lon="4.5773">
        <ele>265.12427</ele>
        <time>2023-12-07T13:38:06.000Z</time>
      </trkpt>
      <trkpt lat="45.90043" lon="4.57723">
        <ele>265.0137</ele>
        <time>2023-12-07T13:38:07.000Z</time>
      </trkpt>
      <trkpt lat="45.90045" lon="4.57716">
        <ele>264.95114</ele>
        <time>2023-12-07T13:38:08.000Z</time>
      </trkpt>
      <trkpt lat="45.90047" lon="4.5771">
        <ele>264.88641</ele>
        <time>2023-12-07T13:38:09.000Z</time>
      </trkpt>
      <trkpt lat="45.90049" lon="4.57705">
        <ele>264.82489</ele>
        <time>2023-12-07T13:38:10.000Z</time>
      </trkpt>
      <trkpt lat="45.90051" lon="4.57698">
        <ele>264.72052</ele>
        <time>2023-12-07T13:38:11.000Z</time>
      </trkpt>
      <trkpt lat="45.90053" lon="4.57692">
        <ele>264.5766</ele>
        <time>2023-12-07T13:38:12.000Z</time>
      </trkpt>
      <trkpt lat="45.90055" lon="4.57685">
        <ele>264.47177</ele>
        <time>2023-12-07T13:38:13.000Z</time>
      </trkpt>
      <trkpt lat="45.90057" lon="4.57679">
        <ele>264.39557</ele>
        <time>2023-12-07T13:38:14.000Z</time>
      </trkpt>
      <trkpt lat="45.9006" lon="4.57673">
        <ele>264.25961</ele>
        <time>2023-12-07T13:38:15.000Z</time>
      </trkpt>
      <trkpt lat="45.90062" lon="4.57667">
        <ele>264.19217</ele>
        <time>2023-12-07T13:38:16.000Z</time>
      </trkpt>
      <trkpt lat="45.90063" lon="4.57661">
        <ele>264.01166</ele>
        <time>2023-12-07T13:38:17.000Z</time>
      </trkpt>
      <trkpt lat="45.90065" lon="4.57656">
        <ele>263.81812</ele>
        <time>2023-12-07T13:38:18.000Z</time>
      </trkpt>
      <trkpt lat="45.90067" lon="4.57649">
        <ele>263.60956</ele>
        <time>2023-12-07T13:38:19.000Z</time>
      </trkpt>
      <trkpt lat="45.90069" lon="4.57642">
        <ele>263.4006</ele>
        <time>2023-12-07T13:38:20.000Z</time>
      </trkpt>
      <trkpt lat="45.9007" lon="4.57636">
        <ele>263.20367</ele>
        <time>2023-12-07T13:38:21.000Z</time>
      </trkpt>
      <trkpt lat="45.90072" lon="4.57631">
        <ele>263.31595</ele>
        <time>2023-12-07T13:38:22.000Z</time>
      </trkpt>
      <trkpt lat="45.90074" lon="4.57624">
        <ele>263.34317</ele>
        <time>2023-12-07T13:38:23.000Z</time>
      </trkpt>
      <trkpt lat="45.90076" lon="4.57618">
        <ele>263.38864</ele>
        <time>2023-12-07T13:38:24.000Z</time>
      </trkpt>
      <trkpt lat="45.90078" lon="4.57612">
        <ele>263.4126</ele>
        <time>2023-12-07T13:38:25.000Z</time>
      </trkpt>
      <trkpt lat="45.90081" lon="4.57606">
        <ele>263.35278</ele>
        <time>2023-12-07T13:38:26.000Z</time>
      </trkpt>
      <trkpt lat="45.90084" lon="4.57601">
        <ele>263.32254</ele>
        <time>2023-12-07T13:38:27.000Z</time>
      </trkpt>
      <trkpt lat="45.90087" lon="4.57596">
        <ele>263.30511</ele>
        <time>2023-12-07T13:38:28.000Z</time>
      </trkpt>
      <trkpt lat="45.90091" lon="4.57593">
        <ele>263.31107</ele>
        <time>2023-12-07T13:38:29.000Z</time>
      </trkpt>
      <trkpt lat="45.90095" lon="4.57589">
        <ele>263.29205</ele>
        <time>2023-12-07T13:38:30.000Z</time>
      </trkpt>
      <trkpt lat="45.90098" lon="4.57585">
        <ele>263.30499</ele>
        <time>2023-12-07T13:38:31.000Z</time>
      </trkpt>
      <trkpt lat="45.90102" lon="4.57582">
        <ele>263.24988</ele>
        <time>2023-12-07T13:38:32.000Z</time>
      </trkpt>
      <trkpt lat="45.90105" lon="4.57578">
        <ele>263.44504</ele>
        <time>2023-12-07T13:38:33.000Z</time>
      </trkpt>
      <trkpt lat="45.90109" lon="4.57575">
        <ele>263.59412</ele>
        <time>2023-12-07T13:38:34.000Z</time>
      </trkpt>
      <trkpt lat="45.90113" lon="4.57572">
        <ele>263.73785</ele>
        <time>2023-12-07T13:38:35.000Z</time>
      </trkpt>
      <trkpt lat="45.90116" lon="4.57569">
        <ele>263.84433</ele>
        <time>2023-12-07T13:38:36.000Z</time>
      </trkpt>
      <trkpt lat="45.9012" lon="4.57567">
        <ele>264.02234</ele>
        <time>2023-12-07T13:38:37.000Z</time>
      </trkpt>
      <trkpt lat="45.90125" lon="4.57564">
        <ele>264.23029</ele>
        <time>2023-12-07T13:38:38.000Z</time>
      </trkpt>
      <trkpt lat="45.90129" lon="4.57562">
        <ele>264.48505</ele>
        <time>2023-12-07T13:38:39.000Z</time>
      </trkpt>
      <trkpt lat="45.90132" lon="4.5756">
        <ele>264.74805</ele>
        <time>2023-12-07T13:38:40.000Z</time>
      </trkpt>
      <trkpt lat="45.90136" lon="4.57558">
        <ele>265.01431</ele>
        <time>2023-12-07T13:38:41.000Z</time>
      </trkpt>
      <trkpt lat="45.9014" lon="4.57555">
        <ele>265.03281</ele>
        <time>2023-12-07T13:38:42.000Z</time>
      </trkpt>
      <trkpt lat="45.90145" lon="4.57553">
        <ele>265.10574</ele>
        <time>2023-12-07T13:38:43.000Z</time>
      </trkpt>
      <trkpt lat="45.90149" lon="4.5755">
        <ele>265.17413</ele>
        <time>2023-12-07T13:38:44.000Z</time>
      </trkpt>
      <trkpt lat="45.90153" lon="4.57547">
        <ele>265.23444</ele>
        <time>2023-12-07T13:38:45.000Z</time>
      </trkpt>
      <trkpt lat="45.90158" lon="4.57545">
        <ele>265.38519</ele>
        <time>2023-12-07T13:38:46.000Z</time>
      </trkpt>
      <trkpt lat="45.90162" lon="4.57542">
        <ele>265.54938</ele>
        <time>2023-12-07T13:38:47.000Z</time>
      </trkpt>
      <trkpt lat="45.90166" lon="4.57541">
        <ele>265.68201</ele>
        <time>2023-12-07T13:38:48.000Z</time>
      </trkpt>
      <trkpt lat="45.90171" lon="4.57539">
        <ele>265.79327</ele>
        <time>2023-12-07T13:38:49.000Z</time>
      </trkpt>
      <trkpt lat="45.90175" lon="4.57537">
        <ele>265.73877</ele>
        <time>2023-12-07T13:38:50.000Z</time>
      </trkpt>
      <trkpt lat="45.90178" lon="4.57535">
        <ele>265.63513</ele>
        <time>2023-12-07T13:38:51.000Z</time>
      </trkpt>
      <trkpt lat="45.90183" lon="4.57532">
        <ele>265.60486</ele>
        <time>2023-12-07T13:38:52.000Z</time>
      </trkpt>
      <trkpt lat="45.90186" lon="4.57529">
        <ele>265.54327</ele>
        <time>2023-12-07T13:38:53.000Z</time>
      </trkpt>
      <trkpt lat="45.9019" lon="4.57526">
        <ele>265.46207</ele>
        <time>2023-12-07T13:38:54.000Z</time>
      </trkpt>
      <trkpt lat="45.90195" lon="4.57524">
        <ele>265.38232</ele>
        <time>2023-12-07T13:38:55.000Z</time>
      </trkpt>
      <trkpt lat="45.90198" lon="4.57522">
        <ele>265.30121</ele>
        <time>2023-12-07T13:38:56.000Z</time>
      </trkpt>
      <trkpt lat="45.90203" lon="4.57521">
        <ele>265.1665</ele>
        <time>2023-12-07T13:38:57.000Z</time>
      </trkpt>
      <trkpt lat="45.90208" lon="4.57518">
        <ele>265.01172</ele>
        <time>2023-12-07T13:38:58.000Z</time>
      </trkpt>
      <trkpt lat="45.90212" lon="4.57515">
        <ele>264.86188</ele>
        <time>2023-12-07T13:38:59.000Z</time>
      </trkpt>
      <trkpt lat="45.90216" lon="4.57512">
        <ele>264.73624</ele>
        <time>2023-12-07T13:39:00.000Z</time>
      </trkpt>
      <trkpt lat="45.9022" lon="4.5751">
        <ele>264.57852</ele>
        <time>2023-12-07T13:39:01.000Z</time>
      </trkpt>
      <trkpt lat="45.90225" lon="4.57507">
        <ele>264.36395</ele>
        <time>2023-12-07T13:39:02.000Z</time>
      </trkpt>
      <trkpt lat="45.90229" lon="4.57505">
        <ele>264.26279</ele>
        <time>2023-12-07T13:39:03.000Z</time>
      </trkpt>
      <trkpt lat="45.90233" lon="4.57502">
        <ele>264.1012</ele>
        <time>2023-12-07T13:39:04.000Z</time>
      </trkpt>
      <trkpt lat="45.90237" lon="4.575">
        <ele>263.9411</ele>
        <time>2023-12-07T13:39:05.000Z</time>
      </trkpt>
      <trkpt lat="45.90241" lon="4.57498">
        <ele>263.68915</ele>
        <time>2023-12-07T13:39:06.000Z</time>
      </trkpt>
      <trkpt lat="45.90246" lon="4.57495">
        <ele>263.33679</ele>
        <time>2023-12-07T13:39:07.000Z</time>
      </trkpt>
      <trkpt lat="45.9025" lon="4.57493">
        <ele>263.02063</ele>
        <time>2023-12-07T13:39:08.000Z</time>
      </trkpt>
      <trkpt lat="45.90254" lon="4.57491">
        <ele>262.72653</ele>
        <time>2023-12-07T13:39:09.000Z</time>
      </trkpt>
      <trkpt lat="45.90258" lon="4.57489">
        <ele>262.54797</ele>
        <time>2023-12-07T13:39:10.000Z</time>
      </trkpt>
      <trkpt lat="45.90264" lon="4.57487">
        <ele>262.6796</ele>
        <time>2023-12-07T13:39:11.000Z</time>
      </trkpt>
      <trkpt lat="45.90268" lon="4.57485">
        <ele>262.75122</ele>
        <time>2023-12-07T13:39:12.000Z</time>
      </trkpt>
      <trkpt lat="45.90272" lon="4.57483">
        <ele>262.56311</ele>
        <time>2023-12-07T13:39:13.000Z</time>
      </trkpt>
      <trkpt lat="45.90277" lon="4.5748">
        <ele>262.37424</ele>
        <time>2023-12-07T13:39:14.000Z</time>
      </trkpt>
      <trkpt lat="45.9028" lon="4.57478">
        <ele>262.2446</ele>
        <time>2023-12-07T13:39:15.000Z</time>
      </trkpt>
      <trkpt lat="45.90284" lon="4.57476">
        <ele>262.0799</ele>
        <time>2023-12-07T13:39:16.000Z</time>
      </trkpt>
      <trkpt lat="45.90289" lon="4.57474">
        <ele>261.91473</ele>
        <time>2023-12-07T13:39:17.000Z</time>
      </trkpt>
      <trkpt lat="45.90294" lon="4.57472">
        <ele>261.63702</ele>
        <time>2023-12-07T13:39:18.000Z</time>
      </trkpt>
      <trkpt lat="45.90298" lon="4.5747">
        <ele>261.3342</ele>
        <time>2023-12-07T13:39:19.000Z</time>
      </trkpt>
      <trkpt lat="45.90302" lon="4.57467">
        <ele>261.29172</ele>
        <time>2023-12-07T13:39:20.000Z</time>
      </trkpt>
      <trkpt lat="45.90306" lon="4.57465">
        <ele>261.23969</ele>
        <time>2023-12-07T13:39:21.000Z</time>
      </trkpt>
      <trkpt lat="45.9031" lon="4.57462">
        <ele>261.25803</ele>
        <time>2023-12-07T13:39:22.000Z</time>
      </trkpt>
      <trkpt lat="45.90314" lon="4.5746">
        <ele>261.2049</ele>
        <time>2023-12-07T13:39:23.000Z</time>
      </trkpt>
      <trkpt lat="45.90317" lon="4.57457">
        <ele>261.19083</ele>
        <time>2023-12-07T13:39:24.000Z</time>
      </trkpt>
      <trkpt lat="45.90321" lon="4.57455">
        <ele>261.20428</ele>
        <time>2023-12-07T13:39:25.000Z</time>
      </trkpt>
      <trkpt lat="45.90325" lon="4.57452">
        <ele>261.29913</ele>
        <time>2023-12-07T13:39:26.000Z</time>
      </trkpt>
      <trkpt lat="45.90328" lon="4.57449">
        <ele>261.49619</ele>
        <time>2023-12-07T13:39:27.000Z</time>
      </trkpt>
      <trkpt lat="45.90331" lon="4.57447">
        <ele>261.66409</ele>
        <time>2023-12-07T13:39:28.000Z</time>
      </trkpt>
      <trkpt lat="45.90335" lon="4.57446">
        <ele>261.82706</ele>
        <time>2023-12-07T13:39:29.000Z</time>
      </trkpt>
      <trkpt lat="45.90339" lon="4.57444">
        <ele>261.86636</ele>
        <time>2023-12-07T13:39:30.000Z</time>
      </trkpt>
      <trkpt lat="45.90342" lon="4.5744">
        <ele>261.57468</ele>
        <time>2023-12-07T13:39:31.000Z</time>
      </trkpt>
      <trkpt lat="45.90345" lon="4.57437">
        <ele>261.33054</ele>
        <time>2023-12-07T13:39:32.000Z</time>
      </trkpt>
      <trkpt lat="45.90349" lon="4.57433">
        <ele>261.38431</ele>
        <time>2023-12-07T13:39:33.000Z</time>
      </trkpt>
      <trkpt lat="45.90353" lon="4.57429">
        <ele>261.4397</ele>
        <time>2023-12-07T13:39:34.000Z</time>
      </trkpt>
      <trkpt lat="45.90357" lon="4.57425">
        <ele>261.42523</ele>
        <time>2023-12-07T13:39:35.000Z</time>
      </trkpt>
      <trkpt lat="45.90361" lon="4.5742">
        <ele>261.46564</ele>
        <time>2023-12-07T13:39:36.000Z</time>
      </trkpt>
      <trkpt lat="45.90365" lon="4.57415">
        <ele>261.37216</ele>
        <time>2023-12-07T13:39:37.000Z</time>
      </trkpt>
      <trkpt lat="45.9037" lon="4.5741">
        <ele>261.35394</ele>
        <time>2023-12-07T13:39:38.000Z</time>
      </trkpt>
      <trkpt lat="45.90374" lon="4.57405">
        <ele>261.62589</ele>
        <time>2023-12-07T13:39:39.000Z</time>
      </trkpt>
      <trkpt lat="45.90379" lon="4.57399">
        <ele>261.51517</ele>
        <time>2023-12-07T13:39:40.000Z</time>
      </trkpt>
      <trkpt lat="45.90384" lon="4.57394">
        <ele>261.45273</ele>
        <time>2023-12-07T13:39:41.000Z</time>
      </trkpt>
      <trkpt lat="45.90389" lon="4.57388">
        <ele>261.37009</ele>
        <time>2023-12-07T13:39:42.000Z</time>
      </trkpt>
      <trkpt lat="45.90394" lon="4.57382">
        <ele>261.23029</ele>
        <time>2023-12-07T13:39:43.000Z</time>
      </trkpt>
      <trkpt lat="45.90399" lon="4.57376">
        <ele>261.07617</ele>
        <time>2023-12-07T13:39:44.000Z</time>
      </trkpt>
      <trkpt lat="45.90404" lon="4.57371">
        <ele>260.88446</ele>
        <time>2023-12-07T13:39:45.000Z</time>
      </trkpt>
      <trkpt lat="45.90407" lon="4.57366">
        <ele>260.65366</ele>
        <time>2023-12-07T13:39:46.000Z</time>
      </trkpt>
      <trkpt lat="45.90411" lon="4.57362">
        <ele>260.39969</ele>
        <time>2023-12-07T13:39:47.000Z</time>
      </trkpt>
      <trkpt lat="45.90414" lon="4.57357">
        <ele>260.12082</ele>
        <time>2023-12-07T13:39:48.000Z</time>
      </trkpt>
      <trkpt lat="45.90417" lon="4.57354">
        <ele>259.82999</ele>
        <time>2023-12-07T13:39:49.000Z</time>
      </trkpt>
      <trkpt lat="45.9042" lon="4.5735">
        <ele>259.71747</ele>
        <time>2023-12-07T13:39:50.000Z</time>
      </trkpt>
      <trkpt lat="45.90422" lon="4.57346">
        <ele>259.62289</ele>
        <time>2023-12-07T13:39:51.000Z</time>
      </trkpt>
      <trkpt lat="45.90422" lon="4.57343">
        <ele>259.47195</ele>
        <time>2023-12-07T13:39:52.000Z</time>
      </trkpt>
      <trkpt lat="45.90423" lon="4.5734">
        <ele>259.01294</ele>
        <time>2023-12-07T13:39:53.000Z</time>
      </trkpt>
      <trkpt lat="45.90423" lon="4.57335">
        <ele>258.40948</ele>
        <time>2023-12-07T13:39:54.000Z</time>
      </trkpt>
      <trkpt lat="45.90423" lon="4.57331">
        <ele>257.79922</ele>
        <time>2023-12-07T13:39:55.000Z</time>
      </trkpt>
      <trkpt lat="45.90425" lon="4.57329">
        <ele>257.07675</ele>
        <time>2023-12-07T13:39:56.000Z</time>
      </trkpt>
      <trkpt lat="45.90427" lon="4.57328">
        <ele>256.49942</ele>
        <time>2023-12-07T13:39:57.000Z</time>
      </trkpt>
      <trkpt lat="45.9043" lon="4.57326">
        <ele>256.14053</ele>
        <time>2023-12-07T13:39:58.000Z</time>
      </trkpt>
      <trkpt lat="45.90432" lon="4.57324">
        <ele>255.46106</ele>
        <time>2023-12-07T13:39:59.000Z</time>
      </trkpt>
      <trkpt lat="45.90435" lon="4.57324">
        <ele>254.80948</ele>
        <time>2023-12-07T13:40:00.000Z</time>
      </trkpt>
      <trkpt lat="45.90439" lon="4.57324">
        <ele>254.11929</ele>
        <time>2023-12-07T13:40:01.000Z</time>
      </trkpt>
      <trkpt lat="45.90442" lon="4.57322">
        <ele>253.41544</ele>
        <time>2023-12-07T13:40:02.000Z</time>
      </trkpt>
      <trkpt lat="45.90445" lon="4.57319">
        <ele>252.73636</ele>
        <time>2023-12-07T13:40:03.000Z</time>
      </trkpt>
      <trkpt lat="45.90447" lon="4.57315">
        <ele>252.02078</ele>
        <time>2023-12-07T13:40:04.000Z</time>
      </trkpt>
      <trkpt lat="45.90447" lon="4.573">
        <ele>251.31674</ele>
        <time>2023-12-07T13:40:05.000Z</time>
      </trkpt>
      <trkpt lat="45.9045" lon="4.57291">
        <ele>250.6617</ele>
        <time>2023-12-07T13:40:06.000Z</time>
      </trkpt>
      <trkpt lat="45.90448" lon="4.57284">
        <ele>250.01184</ele>
        <time>2023-12-07T13:40:07.000Z</time>
      </trkpt>
      <trkpt lat="45.90447" lon="4.57277">
        <ele>249.41838</ele>
        <time>2023-12-07T13:40:08.000Z</time>
      </trkpt>
      <trkpt lat="45.90445" lon="4.57272">
        <ele>248.78423</ele>
        <time>2023-12-07T13:40:09.000Z</time>
      </trkpt>
      <trkpt lat="45.90449" lon="4.57273">
        <ele>248.22578</ele>
        <time>2023-12-07T13:40:10.000Z</time>
      </trkpt>
      <trkpt lat="45.90452" lon="4.57275">
        <ele>247.67996</ele>
        <time>2023-12-07T13:40:12.000Z</time>
      </trkpt>
      <trkpt lat="45.90455" lon="4.57277">
        <ele>247.14603</ele>
        <time>2023-12-07T13:40:13.000Z</time>
      </trkpt>
      <trkpt lat="45.90458" lon="4.57282">
        <ele>246.57339</ele>
        <time>2023-12-07T13:40:14.000Z</time>
      </trkpt>
      <trkpt lat="45.90462" lon="4.57287">
        <ele>246.20529</ele>
        <time>2023-12-07T13:40:15.000Z</time>
      </trkpt>
      <trkpt lat="45.90465" lon="4.57293">
        <ele>245.81763</ele>
        <time>2023-12-07T13:40:16.000Z</time>
      </trkpt>
      <trkpt lat="45.9047" lon="4.57299">
        <ele>245.53545</ele>
        <time>2023-12-07T13:40:17.000Z</time>
      </trkpt>
      <trkpt lat="45.90473" lon="4.57307">
        <ele>245.30586</ele>
        <time>2023-12-07T13:40:18.000Z</time>
      </trkpt>
      <trkpt lat="45.90478" lon="4.57315">
        <ele>244.8925</ele>
        <time>2023-12-07T13:40:19.000Z</time>
      </trkpt>
      <trkpt lat="45.90483" lon="4.57321">
        <ele>244.51921</ele>
        <time>2023-12-07T13:40:20.000Z</time>
      </trkpt>
      <trkpt lat="45.90488" lon="4.57328">
        <ele>244.17586</ele>
        <time>2023-12-07T13:40:21.000Z</time>
      </trkpt>
      <trkpt lat="45.90493" lon="4.57332">
        <ele>243.83243</ele>
        <time>2023-12-07T13:40:22.000Z</time>
      </trkpt>
      <trkpt lat="45.90497" lon="4.57335">
        <ele>243.50058</ele>
        <time>2023-12-07T13:40:23.000Z</time>
      </trkpt>
      <trkpt lat="45.90502" lon="4.57337">
        <ele>243.13992</ele>
        <time>2023-12-07T13:40:24.000Z</time>
      </trkpt>
      <trkpt lat="45.90507" lon="4.57338">
        <ele>242.74939</ele>
        <time>2023-12-07T13:40:25.000Z</time>
      </trkpt>
      <trkpt lat="45.90512" lon="4.57338">
        <ele>242.33475</ele>
        <time>2023-12-07T13:40:26.000Z</time>
      </trkpt>
      <trkpt lat="45.90519" lon="4.57338">
        <ele>241.91267</ele>
        <time>2023-12-07T13:40:27.000Z</time>
      </trkpt>
      <trkpt lat="45.90525" lon="4.57337">
        <ele>241.51852</ele>
        <time>2023-12-07T13:40:28.000Z</time>
      </trkpt>
      <trkpt lat="45.9053" lon="4.57337">
        <ele>241.09998</ele>
        <time>2023-12-07T13:40:29.000Z</time>
      </trkpt>
      <trkpt lat="45.90534" lon="4.57337">
        <ele>240.72067</ele>
        <time>2023-12-07T13:40:30.000Z</time>
      </trkpt>
      <trkpt lat="45.90537" lon="4.57336">
        <ele>240.30966</ele>
        <time>2023-12-07T13:40:31.000Z</time>
      </trkpt>
      <trkpt lat="45.90541" lon="4.57337">
        <ele>239.9416</ele>
        <time>2023-12-07T13:40:32.000Z</time>
      </trkpt>
      <trkpt lat="45.90544" lon="4.57338">
        <ele>239.62344</ele>
        <time>2023-12-07T13:40:35.000Z</time>
      </trkpt>
      <trkpt lat="45.90542" lon="4.57338">
        <ele>239.3844</ele>
        <time>2023-12-07T13:40:37.000Z</time>
      </trkpt>
      <trkpt lat="45.90542" lon="4.57335">
        <ele>239.17253</ele>
        <time>2023-12-07T13:43:30.000Z</time>
      </trkpt>
      <trkpt lat="45.90542" lon="4.57332">
        <ele>239.01416</ele>
        <time>2023-12-07T13:46:12.000Z</time>
      </trkpt>
      <trkpt lat="45.90544" lon="4.57329">
        <ele>238.84741</ele>
        <time>2023-12-07T13:46:13.000Z</time>
      </trkpt>
      <trkpt lat="45.90548" lon="4.57331">
        <ele>238.68054</ele>
        <time>2023-12-07T13:46:15.000Z</time>
      </trkpt>
      <trkpt lat="45.9055" lon="4.57332">
        <ele>238.51791</ele>
        <time>2023-12-07T13:46:16.000Z</time>
      </trkpt>
      <trkpt lat="45.90554" lon="4.57332">
        <ele>238.35129</ele>
        <time>2023-12-07T13:46:17.000Z</time>
      </trkpt>
      <trkpt lat="45.90557" lon="4.57332">
        <ele>238.20695</ele>
        <time>2023-12-07T13:46:18.000Z</time>
      </trkpt>
      <trkpt lat="45.9056" lon="4.57332">
        <ele>238.09668</ele>
        <time>2023-12-07T13:46:19.000Z</time>
      </trkpt>
      <trkpt lat="45.90563" lon="4.57332">
        <ele>237.99991</ele>
        <time>2023-12-07T13:46:20.000Z</time>
      </trkpt>
      <trkpt lat="45.90567" lon="4.57333">
        <ele>237.95627</ele>
        <time>2023-12-07T13:46:21.000Z</time>
      </trkpt>
      <trkpt lat="45.9057" lon="4.57333">
        <ele>237.97061</ele>
        <time>2023-12-07T13:46:22.000Z</time>
      </trkpt>
      <trkpt lat="45.90574" lon="4.57335">
        <ele>237.99529</ele>
        <time>2023-12-07T13:46:23.000Z</time>
      </trkpt>
      <trkpt lat="45.90578" lon="4.57336">
        <ele>238.02332</ele>
        <time>2023-12-07T13:46:24.000Z</time>
      </trkpt>
      <trkpt lat="45.90583" lon="4.57338">
        <ele>238.01273</ele>
        <time>2023-12-07T13:46:25.000Z</time>
      </trkpt>
      <trkpt lat="45.90587" lon="4.5734">
        <ele>238.02718</ele>
        <time>2023-12-07T13:46:26.000Z</time>
      </trkpt>
      <trkpt lat="45.90591" lon="4.5734">
        <ele>238.06421</ele>
        <time>2023-12-07T13:46:27.000Z</time>
      </trkpt>
      <trkpt lat="45.90595" lon="4.57341">
        <ele>238.06868</ele>
        <time>2023-12-07T13:46:28.000Z</time>
      </trkpt>
      <trkpt lat="45.90599" lon="4.57341">
        <ele>238.03447</ele>
        <time>2023-12-07T13:46:29.000Z</time>
      </trkpt>
      <trkpt lat="45.90602" lon="4.57342">
        <ele>238.00735</ele>
        <time>2023-12-07T13:46:30.000Z</time>
      </trkpt>
      <trkpt lat="45.90606" lon="4.57343">
        <ele>237.98312</ele>
        <time>2023-12-07T13:46:31.000Z</time>
      </trkpt>
      <trkpt lat="45.9061" lon="4.57343">
        <ele>237.90471</ele>
        <time>2023-12-07T13:46:32.000Z</time>
      </trkpt>
      <trkpt lat="45.90614" lon="4.57344">
        <ele>237.78474</ele>
        <time>2023-12-07T13:46:33.000Z</time>
      </trkpt>
      <trkpt lat="45.90617" lon="4.57344">
        <ele>237.67851</ele>
        <time>2023-12-07T13:46:34.000Z</time>
      </trkpt>
      <trkpt lat="45.90621" lon="4.57345">
        <ele>237.56255</ele>
        <time>2023-12-07T13:46:35.000Z</time>
      </trkpt>
      <trkpt lat="45.90625" lon="4.57346">
        <ele>237.43497</ele>
        <time>2023-12-07T13:46:36.000Z</time>
      </trkpt>
      <trkpt lat="45.90629" lon="4.57348">
        <ele>237.29654</ele>
        <time>2023-12-07T13:46:37.000Z</time>
      </trkpt>
      <trkpt lat="45.90632" lon="4.5735">
        <ele>237.1506</ele>
        <time>2023-12-07T13:46:38.000Z</time>
      </trkpt>
      <trkpt lat="45.90635" lon="4.57352">
        <ele>237.04037</ele>
        <time>2023-12-07T13:46:39.000Z</time>
      </trkpt>
      <trkpt lat="45.90638" lon="4.57355">
        <ele>236.92331</ele>
        <time>2023-12-07T13:46:40.000Z</time>
      </trkpt>
      <trkpt lat="45.90641" lon="4.57358">
        <ele>236.79092</ele>
        <time>2023-12-07T13:46:41.000Z</time>
      </trkpt>
      <trkpt lat="45.90644" lon="4.57361">
        <ele>236.67159</ele>
        <time>2023-12-07T13:46:42.000Z</time>
      </trkpt>
      <trkpt lat="45.90647" lon="4.57363">
        <ele>236.5972</ele>
        <time>2023-12-07T13:46:43.000Z</time>
      </trkpt>
      <trkpt lat="45.90651" lon="4.57366">
        <ele>236.52234</ele>
        <time>2023-12-07T13:46:44.000Z</time>
      </trkpt>
      <trkpt lat="45.90654" lon="4.57368">
        <ele>236.46953</ele>
        <time>2023-12-07T13:46:45.000Z</time>
      </trkpt>
      <trkpt lat="45.90657" lon="4.57371">
        <ele>236.401</ele>
        <time>2023-12-07T13:46:46.000Z</time>
      </trkpt>
      <trkpt lat="45.9066" lon="4.57374">
        <ele>236.30103</ele>
        <time>2023-12-07T13:46:47.000Z</time>
      </trkpt>
      <trkpt lat="45.90664" lon="4.57377">
        <ele>236.19397</ele>
        <time>2023-12-07T13:46:48.000Z</time>
      </trkpt>
      <trkpt lat="45.90668" lon="4.5738">
        <ele>236.08414</ele>
        <time>2023-12-07T13:46:49.000Z</time>
      </trkpt>
      <trkpt lat="45.90672" lon="4.57383">
        <ele>235.94687</ele>
        <time>2023-12-07T13:46:50.000Z</time>
      </trkpt>
      <trkpt lat="45.90675" lon="4.57385">
        <ele>235.77747</ele>
        <time>2023-12-07T13:46:51.000Z</time>
      </trkpt>
      <trkpt lat="45.90679" lon="4.57388">
        <ele>235.64236</ele>
        <time>2023-12-07T13:46:52.000Z</time>
      </trkpt>
      <trkpt lat="45.90684" lon="4.5739">
        <ele>235.53999</ele>
        <time>2023-12-07T13:46:53.000Z</time>
      </trkpt>
      <trkpt lat="45.90689" lon="4.57393">
        <ele>235.4296</ele>
        <time>2023-12-07T13:46:54.000Z</time>
      </trkpt>
      <trkpt lat="45.90693" lon="4.57397">
        <ele>235.32597</ele>
        <time>2023-12-07T13:46:55.000Z</time>
      </trkpt>
      <trkpt lat="45.90696" lon="4.574">
        <ele>235.20943</ele>
        <time>2023-12-07T13:46:56.000Z</time>
      </trkpt>
      <trkpt lat="45.90699" lon="4.57406">
        <ele>235.12381</ele>
        <time>2023-12-07T13:46:57.000Z</time>
      </trkpt>
      <trkpt lat="45.90701" lon="4.57414">
        <ele>235.09138</ele>
        <time>2023-12-07T13:46:58.000Z</time>
      </trkpt>
      <trkpt lat="45.90702" lon="4.5742">
        <ele>235.01448</ele>
        <time>2023-12-07T13:46:59.000Z</time>
      </trkpt>
      <trkpt lat="45.90702" lon="4.57426">
        <ele>234.90738</ele>
        <time>2023-12-07T13:47:00.000Z</time>
      </trkpt>
      <trkpt lat="45.90701" lon="4.57432">
        <ele>234.78586</ele>
        <time>2023-12-07T13:47:01.000Z</time>
      </trkpt>
      <trkpt lat="45.907" lon="4.57437">
        <ele>234.60873</ele>
        <time>2023-12-07T13:47:02.000Z</time>
      </trkpt>
      <trkpt lat="45.90699" lon="4.57443">
        <ele>234.4281</ele>
        <time>2023-12-07T13:47:03.000Z</time>
      </trkpt>
      <trkpt lat="45.90698" lon="4.57449">
        <ele>234.27251</ele>
        <time>2023-12-07T13:47:04.000Z</time>
      </trkpt>
      <trkpt lat="45.90697" lon="4.57455">
        <ele>234.103</ele>
        <time>2023-12-07T13:47:05.000Z</time>
      </trkpt>
      <trkpt lat="45.90695" lon="4.57461">
        <ele>233.94307</ele>
        <time>2023-12-07T13:47:06.000Z</time>
      </trkpt>
      <trkpt lat="45.90693" lon="4.57466">
        <ele>233.78146</ele>
        <time>2023-12-07T13:47:07.000Z</time>
      </trkpt>
      <trkpt lat="45.90692" lon="4.57472">
        <ele>233.66739</ele>
        <time>2023-12-07T13:47:08.000Z</time>
      </trkpt>
      <trkpt lat="45.90691" lon="4.57477">
        <ele>233.55656</ele>
        <time>2023-12-07T13:47:09.000Z</time>
      </trkpt>
      <trkpt lat="45.9069" lon="4.57481">
        <ele>233.478</ele>
        <time>2023-12-07T13:47:10.000Z</time>
      </trkpt>
      <trkpt lat="45.90689" lon="4.57486">
        <ele>233.43462</ele>
        <time>2023-12-07T13:47:11.000Z</time>
      </trkpt>
      <trkpt lat="45.90688" lon="4.5749">
        <ele>233.36894</ele>
        <time>2023-12-07T13:47:12.000Z</time>
      </trkpt>
      <trkpt lat="45.90687" lon="4.57494">
        <ele>233.29858</ele>
        <time>2023-12-07T13:47:13.000Z</time>
      </trkpt>
      <trkpt lat="45.90687" lon="4.57499">
        <ele>233.21069</ele>
        <time>2023-12-07T13:47:14.000Z</time>
      </trkpt>
      <trkpt lat="45.90687" lon="4.57503">
        <ele>233.13925</ele>
        <time>2023-12-07T13:47:15.000Z</time>
      </trkpt>
      <trkpt lat="45.90688" lon="4.57506">
        <ele>233.10344</ele>
        <time>2023-12-07T13:47:16.000Z</time>
      </trkpt>
      <trkpt lat="45.90691" lon="4.57507">
        <ele>233.05949</ele>
        <time>2023-12-07T13:47:17.000Z</time>
      </trkpt>
      <trkpt lat="45.90695" lon="4.57506">
        <ele>233.01599</ele>
        <time>2023-12-07T13:47:18.000Z</time>
      </trkpt>
      <trkpt lat="45.90698" lon="4.57507">
        <ele>232.95703</ele>
        <time>2023-12-07T13:47:19.000Z</time>
      </trkpt>
      <trkpt lat="45.90701" lon="4.5751">
        <ele>232.94771</ele>
        <time>2023-12-07T13:47:20.000Z</time>
      </trkpt>
      <trkpt lat="45.90702" lon="4.57514">
        <ele>232.87344</ele>
        <time>2023-12-07T13:47:21.000Z</time>
      </trkpt>
      <trkpt lat="45.90701" lon="4.57518">
        <ele>232.92801</ele>
        <time>2023-12-07T13:47:22.000Z</time>
      </trkpt>
      <trkpt lat="45.907" lon="4.57522">
        <ele>232.95659</ele>
        <time>2023-12-07T13:47:23.000Z</time>
      </trkpt>
      <trkpt lat="45.90699" lon="4.57527">
        <ele>232.99736</ele>
        <time>2023-12-07T13:47:24.000Z</time>
      </trkpt>
      <trkpt lat="45.90698" lon="4.57531">
        <ele>233.0518</ele>
        <time>2023-12-07T13:47:25.000Z</time>
      </trkpt>
      <trkpt lat="45.90697" lon="4.57535">
        <ele>233.06575</ele>
        <time>2023-12-07T13:47:26.000Z</time>
      </trkpt>
      <trkpt lat="45.90696" lon="4.5754">
        <ele>233.12997</ele>
        <time>2023-12-07T13:47:27.000Z</time>
      </trkpt>
      <trkpt lat="45.90695" lon="4.57545">
        <ele>233.14568</ele>
        <time>2023-12-07T13:47:28.000Z</time>
      </trkpt>
      <trkpt lat="45.90694" lon="4.57549">
        <ele>233.1342</ele>
        <time>2023-12-07T13:47:29.000Z</time>
      </trkpt>
      <trkpt lat="45.90694" lon="4.57552">
        <ele>233.17154</ele>
        <time>2023-12-07T13:47:30.000Z</time>
      </trkpt>
      <trkpt lat="45.90693" lon="4.57557">
        <ele>233.22079</ele>
        <time>2023-12-07T13:47:31.000Z</time>
      </trkpt>
      <trkpt lat="45.90692" lon="4.57562">
        <ele>233.30405</ele>
        <time>2023-12-07T13:47:32.000Z</time>
      </trkpt>
      <trkpt lat="45.9069" lon="4.57566">
        <ele>233.27837</ele>
        <time>2023-12-07T13:47:33.000Z</time>
      </trkpt>
      <trkpt lat="45.90687" lon="4.57569">
        <ele>233.29593</ele>
        <time>2023-12-07T13:47:34.000Z</time>
      </trkpt>
      <trkpt lat="45.90685" lon="4.57572">
        <ele>233.32715</ele>
        <time>2023-12-07T13:47:35.000Z</time>
      </trkpt>
      <trkpt lat="45.90684" lon="4.57574">
        <ele>233.34415</ele>
        <time>2023-12-07T13:47:36.000Z</time>
      </trkpt>
      <trkpt lat="45.90682" lon="4.57577">
        <ele>233.35782</ele>
        <time>2023-12-07T13:47:37.000Z</time>
      </trkpt>
      <trkpt lat="45.9068" lon="4.57581">
        <ele>233.33235</ele>
        <time>2023-12-07T13:47:38.000Z</time>
      </trkpt>
      <trkpt lat="45.90678" lon="4.57585">
        <ele>233.37418</ele>
        <time>2023-12-07T13:47:39.000Z</time>
      </trkpt>
      <trkpt lat="45.90675" lon="4.5759">
        <ele>233.39494</ele>
        <time>2023-12-07T13:47:40.000Z</time>
      </trkpt>
      <trkpt lat="45.90673" lon="4.57595">
        <ele>233.46802</ele>
        <time>2023-12-07T13:47:41.000Z</time>
      </trkpt>
      <trkpt lat="45.90671" lon="4.576">
        <ele>233.472</ele>
        <time>2023-12-07T13:47:42.000Z</time>
      </trkpt>
      <trkpt lat="45.9067" lon="4.57606">
        <ele>233.47469</ele>
        <time>2023-12-07T13:47:43.000Z</time>
      </trkpt>
      <trkpt lat="45.90669" lon="4.57612">
        <ele>233.41866</ele>
        <time>2023-12-07T13:47:44.000Z</time>
      </trkpt>
      <trkpt lat="45.90669" lon="4.57618">
        <ele>233.35214</ele>
        <time>2023-12-07T13:47:45.000Z</time>
      </trkpt>
      <trkpt lat="45.90668" lon="4.57625">
        <ele>233.31548</ele>
        <time>2023-12-07T13:47:46.000Z</time>
      </trkpt>
      <trkpt lat="45.90668" lon="4.57631">
        <ele>233.26033</ele>
        <time>2023-12-07T13:47:47.000Z</time>
      </trkpt>
      <trkpt lat="45.90667" lon="4.57637">
        <ele>233.23264</ele>
        <time>2023-12-07T13:47:48.000Z</time>
      </trkpt>
      <trkpt lat="45.90666" lon="4.57643">
        <ele>233.23909</ele>
        <time>2023-12-07T13:47:49.000Z</time>
      </trkpt>
      <trkpt lat="45.90665" lon="4.57649">
        <ele>233.2115</ele>
        <time>2023-12-07T13:47:50.000Z</time>
      </trkpt>
      <trkpt lat="45.90664" lon="4.57654">
        <ele>233.16382</ele>
        <time>2023-12-07T13:47:51.000Z</time>
      </trkpt>
      <trkpt lat="45.90663" lon="4.57659">
        <ele>233.12154</ele>
        <time>2023-12-07T13:47:52.000Z</time>
      </trkpt>
      <trkpt lat="45.90663" lon="4.57663">
        <ele>233.19841</ele>
        <time>2023-12-07T13:47:53.000Z</time>
      </trkpt>
      <trkpt lat="45.90662" lon="4.57666">
        <ele>233.26509</ele>
        <time>2023-12-07T13:47:54.000Z</time>
      </trkpt>
      <trkpt lat="45.90661" lon="4.5767">
        <ele>233.32126</ele>
        <time>2023-12-07T13:47:56.000Z</time>
      </trkpt>
      <trkpt lat="45.90661" lon="4.57674">
        <ele>233.36784</ele>
        <time>2023-12-07T13:47:58.000Z</time>
      </trkpt>
      <trkpt lat="45.9066" lon="4.57677">
        <ele>233.40239</ele>
        <time>2023-12-07T13:47:59.000Z</time>
      </trkpt>
      <trkpt lat="45.9066" lon="4.5768">
        <ele>233.44107</ele>
        <time>2023-12-07T13:48:00.000Z</time>
      </trkpt>
      <trkpt lat="45.9066" lon="4.57683">
        <ele>233.47575</ele>
        <time>2023-12-07T13:48:01.000Z</time>
      </trkpt>
      <trkpt lat="45.90661" lon="4.57686">
        <ele>233.46648</ele>
        <time>2023-12-07T13:48:02.000Z</time>
      </trkpt>
      <trkpt lat="45.90661" lon="4.57689">
        <ele>233.47478</ele>
        <time>2023-12-07T13:48:03.000Z</time>
      </trkpt>
      <trkpt lat="45.90661" lon="4.57693">
        <ele>233.50595</ele>
        <time>2023-12-07T13:48:04.000Z</time>
      </trkpt>
      <trkpt lat="45.9066" lon="4.57696">
        <ele>233.53581</ele>
        <time>2023-12-07T13:48:05.000Z</time>
      </trkpt>
      <trkpt lat="45.9066" lon="4.577">
        <ele>233.61533</ele>
        <time>2023-12-07T13:48:06.000Z</time>
      </trkpt>
      <trkpt lat="45.90659" lon="4.57704">
        <ele>233.69485</ele>
        <time>2023-12-07T13:48:07.000Z</time>
      </trkpt>
      <trkpt lat="45.90659" lon="4.57708">
        <ele>233.77078</ele>
        <time>2023-12-07T13:48:08.000Z</time>
      </trkpt>
      <trkpt lat="45.90659" lon="4.57712">
        <ele>233.84233</ele>
        <time>2023-12-07T13:48:09.000Z</time>
      </trkpt>
      <trkpt lat="45.90659" lon="4.57717">
        <ele>233.90962</ele>
        <time>2023-12-07T13:48:10.000Z</time>
      </trkpt>
      <trkpt lat="45.90659" lon="4.57722">
        <ele>233.978</ele>
        <time>2023-12-07T13:48:11.000Z</time>
      </trkpt>
      <trkpt lat="45.9066" lon="4.57728">
        <ele>233.99443</ele>
        <time>2023-12-07T13:48:12.000Z</time>
      </trkpt>
      <trkpt lat="45.90661" lon="4.57732">
        <ele>234.00269</ele>
        <time>2023-12-07T13:48:13.000Z</time>
      </trkpt>
      <trkpt lat="45.90664" lon="4.57736">
        <ele>233.97957</ele>
        <time>2023-12-07T13:48:14.000Z</time>
      </trkpt>
      <trkpt lat="45.90667" lon="4.57739">
        <ele>233.93575</ele>
        <time>2023-12-07T13:48:15.000Z</time>
      </trkpt>
      <trkpt lat="45.9067" lon="4.57741">
        <ele>233.89963</ele>
        <time>2023-12-07T13:48:16.000Z</time>
      </trkpt>
      <trkpt lat="45.90673" lon="4.57744">
        <ele>233.87573</ele>
        <time>2023-12-07T13:48:17.000Z</time>
      </trkpt>
      <trkpt lat="45.90676" lon="4.57748">
        <ele>233.89502</ele>
        <time>2023-12-07T13:48:18.000Z</time>
      </trkpt>
      <trkpt lat="45.90678" lon="4.5775">
        <ele>233.94278</ele>
        <time>2023-12-07T13:48:19.000Z</time>
      </trkpt>
      <trkpt lat="45.90681" lon="4.57751">
        <ele>233.98116</ele>
        <time>2023-12-07T13:48:20.000Z</time>
      </trkpt>
      <trkpt lat="45.90684" lon="4.5775">
        <ele>233.96211</ele>
        <time>2023-12-07T13:48:21.000Z</time>
      </trkpt>
      <trkpt lat="45.90686" lon="4.57747">
        <ele>234.00735</ele>
        <time>2023-12-07T13:48:22.000Z</time>
      </trkpt>
      <trkpt lat="45.90688" lon="4.57742">
        <ele>234.06055</ele>
        <time>2023-12-07T13:48:23.000Z</time>
      </trkpt>
      <trkpt lat="45.9069" lon="4.57736">
        <ele>234.11282</ele>
        <time>2023-12-07T13:48:24.000Z</time>
      </trkpt>
      <trkpt lat="45.90691" lon="4.5773">
        <ele>234.16617</ele>
        <time>2023-12-07T13:48:25.000Z</time>
      </trkpt>
      <trkpt lat="45.90693" lon="4.57724">
        <ele>234.24348</ele>
        <time>2023-12-07T13:48:26.000Z</time>
      </trkpt>
      <trkpt lat="45.90694" lon="4.57719">
        <ele>234.31917</ele>
        <time>2023-12-07T13:48:27.000Z</time>
      </trkpt>
      <trkpt lat="45.90696" lon="4.57713">
        <ele>234.43192</ele>
        <time>2023-12-07T13:48:28.000Z</time>
      </trkpt>
      <trkpt lat="45.90697" lon="4.57707">
        <ele>234.53967</ele>
        <time>2023-12-07T13:48:29.000Z</time>
      </trkpt>
      <trkpt lat="45.90699" lon="4.57701">
        <ele>234.63443</ele>
        <time>2023-12-07T13:48:30.000Z</time>
      </trkpt>
      <trkpt lat="45.907" lon="4.57695">
        <ele>234.74577</ele>
        <time>2023-12-07T13:48:31.000Z</time>
      </trkpt>
      <trkpt lat="45.90702" lon="4.57688">
        <ele>234.88846</ele>
        <time>2023-12-07T13:48:32.000Z</time>
      </trkpt>
      <trkpt lat="45.90704" lon="4.57682">
        <ele>235.00949</ele>
        <time>2023-12-07T13:48:33.000Z</time>
      </trkpt>
      <trkpt lat="45.90705" lon="4.57676">
        <ele>235.16435</ele>
        <time>2023-12-07T13:48:34.000Z</time>
      </trkpt>
      <trkpt lat="45.90707" lon="4.5767">
        <ele>235.31828</ele>
        <time>2023-12-07T13:48:35.000Z</time>
      </trkpt>
      <trkpt lat="45.90708" lon="4.57664">
        <ele>235.45996</ele>
        <time>2023-12-07T13:48:36.000Z</time>
      </trkpt>
      <trkpt lat="45.90709" lon="4.57659">
        <ele>235.58914</ele>
        <time>2023-12-07T13:48:37.000Z</time>
      </trkpt>
      <trkpt lat="45.9071" lon="4.57653">
        <ele>235.71008</ele>
        <time>2023-12-07T13:48:38.000Z</time>
      </trkpt>
      <trkpt lat="45.90712" lon="4.57647">
        <ele>235.80969</ele>
        <time>2023-12-07T13:48:39.000Z</time>
      </trkpt>
      <trkpt lat="45.90713" lon="4.57642">
        <ele>235.91992</ele>
        <time>2023-12-07T13:48:40.000Z</time>
      </trkpt>
      <trkpt lat="45.90714" lon="4.57636">
        <ele>236.05478</ele>
        <time>2023-12-07T13:48:41.000Z</time>
      </trkpt>
      <trkpt lat="45.90714" lon="4.5763">
        <ele>236.1252</ele>
        <time>2023-12-07T13:48:42.000Z</time>
      </trkpt>
      <trkpt lat="45.90715" lon="4.57624">
        <ele>236.16336</ele>
        <time>2023-12-07T13:48:43.000Z</time>
      </trkpt>
      <trkpt lat="45.90716" lon="4.57617">
        <ele>236.19482</ele>
        <time>2023-12-07T13:48:44.000Z</time>
      </trkpt>
      <trkpt lat="45.90717" lon="4.57611">
        <ele>236.24121</ele>
        <time>2023-12-07T13:48:45.000Z</time>
      </trkpt>
      <trkpt lat="45.90718" lon="4.57605">
        <ele>236.25522</ele>
        <time>2023-12-07T13:48:46.000Z</time>
      </trkpt>
      <trkpt lat="45.90719" lon="4.576">
        <ele>236.31079</ele>
        <time>2023-12-07T13:48:47.000Z</time>
      </trkpt>
      <trkpt lat="45.90719" lon="4.57595">
        <ele>236.33594</ele>
        <time>2023-12-07T13:48:48.000Z</time>
      </trkpt>
      <trkpt lat="45.9072" lon="4.5759">
        <ele>236.35495</ele>
        <time>2023-12-07T13:48:49.000Z</time>
      </trkpt>
      <trkpt lat="45.90721" lon="4.57584">
        <ele>236.41281</ele>
        <time>2023-12-07T13:48:50.000Z</time>
      </trkpt>
      <trkpt lat="45.90722" lon="4.57578">
        <ele>236.45674</ele>
        <time>2023-12-07T13:48:51.000Z</time>
      </trkpt>
      <trkpt lat="45.90723" lon="4.57572">
        <ele>236.47534</ele>
        <time>2023-12-07T13:48:52.000Z</time>
      </trkpt>
      <trkpt lat="45.90724" lon="4.57567">
        <ele>236.48589</ele>
        <time>2023-12-07T13:48:53.000Z</time>
      </trkpt>
      <trkpt lat="45.90725" lon="4.57561">
        <ele>236.46371</ele>
        <time>2023-12-07T13:48:54.000Z</time>
      </trkpt>
      <trkpt lat="45.90727" lon="4.57555">
        <ele>236.4631</ele>
        <time>2023-12-07T13:48:55.000Z</time>
      </trkpt>
      <trkpt lat="45.90728" lon="4.57549">
        <ele>236.44644</ele>
        <time>2023-12-07T13:48:56.000Z</time>
      </trkpt>
      <trkpt lat="45.90729" lon="4.57543">
        <ele>236.43265</ele>
        <time>2023-12-07T13:48:57.000Z</time>
      </trkpt>
      <trkpt lat="45.9073" lon="4.57537">
        <ele>236.39023</ele>
        <time>2023-12-07T13:48:58.000Z</time>
      </trkpt>
      <trkpt lat="45.90731" lon="4.57531">
        <ele>236.36784</ele>
        <time>2023-12-07T13:48:59.000Z</time>
      </trkpt>
      <trkpt lat="45.90732" lon="4.57524">
        <ele>236.32626</ele>
        <time>2023-12-07T13:49:00.000Z</time>
      </trkpt>
      <trkpt lat="45.90734" lon="4.57518">
        <ele>236.30515</ele>
        <time>2023-12-07T13:49:01.000Z</time>
      </trkpt>
      <trkpt lat="45.90737" lon="4.57511">
        <ele>236.3127</ele>
        <time>2023-12-07T13:49:02.000Z</time>
      </trkpt>
      <trkpt lat="45.90738" lon="4.57507">
        <ele>236.35164</ele>
        <time>2023-12-07T13:49:03.000Z</time>
      </trkpt>
      <trkpt lat="45.90739" lon="4.57501">
        <ele>236.38655</ele>
        <time>2023-12-07T13:49:04.000Z</time>
      </trkpt>
      <trkpt lat="45.90741" lon="4.57494">
        <ele>236.39409</ele>
        <time>2023-12-07T13:49:05.000Z</time>
      </trkpt>
      <trkpt lat="45.90743" lon="4.57488">
        <ele>236.3831</ele>
        <time>2023-12-07T13:49:06.000Z</time>
      </trkpt>
      <trkpt lat="45.90744" lon="4.57483">
        <ele>236.35303</ele>
        <time>2023-12-07T13:49:07.000Z</time>
      </trkpt>
      <trkpt lat="45.90745" lon="4.57478">
        <ele>236.30496</ele>
        <time>2023-12-07T13:49:08.000Z</time>
      </trkpt>
      <trkpt lat="45.90747" lon="4.57472">
        <ele>236.26395</ele>
        <time>2023-12-07T13:49:09.000Z</time>
      </trkpt>
      <trkpt lat="45.90748" lon="4.57466">
        <ele>236.18192</ele>
        <time>2023-12-07T13:49:10.000Z</time>
      </trkpt>
      <trkpt lat="45.90748" lon="4.57461">
        <ele>236.10794</ele>
        <time>2023-12-07T13:49:11.000Z</time>
      </trkpt>
      <trkpt lat="45.90749" lon="4.57457">
        <ele>236.05159</ele>
        <time>2023-12-07T13:49:12.000Z</time>
      </trkpt>
      <trkpt lat="45.9075" lon="4.57456">
        <ele>235.97339</ele>
        <time>2023-12-07T13:49:18.000Z</time>
      </trkpt>
      <trkpt lat="45.90751" lon="4.57453">
        <ele>235.90079</ele>
        <time>2023-12-07T13:49:23.000Z</time>
      </trkpt>
      <trkpt lat="45.90749" lon="4.57453">
        <ele>235.8154</ele>
        <time>2023-12-07T13:49:28.000Z</time>
      </trkpt>
      <trkpt lat="45.9075" lon="4.57457">
        <ele>235.66635</ele>
        <time>2023-12-07T13:49:43.000Z</time>
      </trkpt>
      <trkpt lat="45.90751" lon="4.5746">
        <ele>235.53242</ele>
        <time>2023-12-07T13:49:45.000Z</time>
      </trkpt>
      <trkpt lat="45.90752" lon="4.57464">
        <ele>235.4368</ele>
        <time>2023-12-07T13:49:47.000Z</time>
      </trkpt>
      <trkpt lat="45.90752" lon="4.57468">
        <ele>235.34969</ele>
        <time>2023-12-07T13:49:49.000Z</time>
      </trkpt>
      <trkpt lat="45.90752" lon="4.57471">
        <ele>235.26242</ele>
        <time>2023-12-07T13:49:51.000Z</time>
      </trkpt>
      <trkpt lat="45.90753" lon="4.57473">
        <ele>235.17697</ele>
        <time>2023-12-07T13:49:59.000Z</time>
      </trkpt>
      <trkpt lat="45.90753" lon="4.57476">
        <ele>235.11182</ele>
        <time>2023-12-07T13:50:22.000Z</time>
      </trkpt>
      <trkpt lat="45.90753" lon="4.57479">
        <ele>235.07854</ele>
        <time>2023-12-07T13:50:24.000Z</time>
      </trkpt>
      <trkpt lat="45.90754" lon="4.57482">
        <ele>235.04367</ele>
        <time>2023-12-07T13:50:27.000Z</time>
      </trkpt>
      <trkpt lat="45.90754" lon="4.57486">
        <ele>235.0834</ele>
        <time>2023-12-07T13:50:30.000Z</time>
      </trkpt>
      <trkpt lat="45.90754" lon="4.5749">
        <ele>235.10686</ele>
        <time>2023-12-07T13:50:33.000Z</time>
      </trkpt>
      <trkpt lat="45.90754" lon="4.57493">
        <ele>235.16373</ele>
        <time>2023-12-07T13:50:43.000Z</time>
      </trkpt>
      <trkpt lat="45.90755" lon="4.57497">
        <ele>235.26706</ele>
        <time>2023-12-07T13:50:45.000Z</time>
      </trkpt>
      <trkpt lat="45.90755" lon="4.575">
        <ele>235.38574</ele>
        <time>2023-12-07T13:50:46.000Z</time>
      </trkpt>
      <trkpt lat="45.90755" lon="4.57504">
        <ele>235.52083</ele>
        <time>2023-12-07T13:50:47.000Z</time>
      </trkpt>
      <trkpt lat="45.90755" lon="4.57507">
        <ele>235.67322</ele>
        <time>2023-12-07T13:50:48.000Z</time>
      </trkpt>
      <trkpt lat="45.90755" lon="4.57512">
        <ele>235.79752</ele>
        <time>2023-12-07T13:50:49.000Z</time>
      </trkpt>
      <trkpt lat="45.90756" lon="4.57516">
        <ele>235.99773</ele>
        <time>2023-12-07T13:50:50.000Z</time>
      </trkpt>
      <trkpt lat="45.90756" lon="4.5752">
        <ele>236.2092</ele>
        <time>2023-12-07T13:50:51.000Z</time>
      </trkpt>
      <trkpt lat="45.90756" lon="4.57524">
        <ele>236.46338</ele>
        <time>2023-12-07T13:50:52.000Z</time>
      </trkpt>
      <trkpt lat="45.90757" lon="4.57529">
        <ele>236.74861</ele>
        <time>2023-12-07T13:50:53.000Z</time>
      </trkpt>
      <trkpt lat="45.90758" lon="4.57534">
        <ele>237.01941</ele>
        <time>2023-12-07T13:50:54.000Z</time>
      </trkpt>
      <trkpt lat="45.90759" lon="4.57537">
        <ele>237.28423</ele>
        <time>2023-12-07T13:50:55.000Z</time>
      </trkpt>
      <trkpt lat="45.90761" lon="4.57539">
        <ele>237.53203</ele>
        <time>2023-12-07T13:50:56.000Z</time>
      </trkpt>
      <trkpt lat="45.90763" lon="4.57542">
        <ele>237.83427</ele>
        <time>2023-12-07T13:50:57.000Z</time>
      </trkpt>
      <trkpt lat="45.90765" lon="4.57544">
        <ele>238.09445</ele>
        <time>2023-12-07T13:50:58.000Z</time>
      </trkpt>
      <trkpt lat="45.90768" lon="4.57547">
        <ele>238.37183</ele>
        <time>2023-12-07T13:50:59.000Z</time>
      </trkpt>
      <trkpt lat="45.9077" lon="4.5755">
        <ele>238.65144</ele>
        <time>2023-12-07T13:51:00.000Z</time>
      </trkpt>
      <trkpt lat="45.90773" lon="4.57554">
        <ele>238.94034</ele>
        <time>2023-12-07T13:51:01.000Z</time>
      </trkpt>
      <trkpt lat="45.90775" lon="4.57557">
        <ele>239.20908</ele>
        <time>2023-12-07T13:51:02.000Z</time>
      </trkpt>
      <trkpt lat="45.90777" lon="4.57561">
        <ele>239.50626</ele>
        <time>2023-12-07T13:51:03.000Z</time>
      </trkpt>
      <trkpt lat="45.90779" lon="4.57565">
        <ele>239.79733</ele>
        <time>2023-12-07T13:51:04.000Z</time>
      </trkpt>
      <trkpt lat="45.90781" lon="4.57569">
        <ele>240.06882</ele>
        <time>2023-12-07T13:51:05.000Z</time>
      </trkpt>
      <trkpt lat="45.90782" lon="4.57573">
        <ele>240.34232</ele>
        <time>2023-12-07T13:51:06.000Z</time>
      </trkpt>
      <trkpt lat="45.90784" lon="4.57577">
        <ele>240.61763</ele>
        <time>2023-12-07T13:51:07.000Z</time>
      </trkpt>
      <trkpt lat="45.90786" lon="4.57582">
        <ele>240.85367</ele>
        <time>2023-12-07T13:51:08.000Z</time>
      </trkpt>
      <trkpt lat="45.90788" lon="4.57586">
        <ele>241.13672</ele>
        <time>2023-12-07T13:51:09.000Z</time>
      </trkpt>
      <trkpt lat="45.90789" lon="4.57591">
        <ele>241.40051</ele>
        <time>2023-12-07T13:51:10.000Z</time>
      </trkpt>
      <trkpt lat="45.9079" lon="4.57595">
        <ele>241.67366</ele>
        <time>2023-12-07T13:51:11.000Z</time>
      </trkpt>
      <trkpt lat="45.9079" lon="4.57599">
        <ele>241.89629</ele>
        <time>2023-12-07T13:51:12.000Z</time>
      </trkpt>
      <trkpt lat="45.90791" lon="4.57604">
        <ele>242.19461</ele>
        <time>2023-12-07T13:51:13.000Z</time>
      </trkpt>
      <trkpt lat="45.90792" lon="4.57608">
        <ele>242.52153</ele>
        <time>2023-12-07T13:51:14.000Z</time>
      </trkpt>
      <trkpt lat="45.90792" lon="4.57612">
        <ele>242.81247</ele>
        <time>2023-12-07T13:51:15.000Z</time>
      </trkpt>
      <trkpt lat="45.90793" lon="4.57617">
        <ele>243.10608</ele>
        <time>2023-12-07T13:51:16.000Z</time>
      </trkpt>
      <trkpt lat="45.90794" lon="4.57621">
        <ele>243.32715</ele>
        <time>2023-12-07T13:51:17.000Z</time>
      </trkpt>
      <trkpt lat="45.90795" lon="4.57625">
        <ele>243.52954</ele>
        <time>2023-12-07T13:51:18.000Z</time>
      </trkpt>
      <trkpt lat="45.90796" lon="4.57629">
        <ele>243.71794</ele>
        <time>2023-12-07T13:51:19.000Z</time>
      </trkpt>
      <trkpt lat="45.90797" lon="4.57634">
        <ele>243.84685</ele>
        <time>2023-12-07T13:51:20.000Z</time>
      </trkpt>
      <trkpt lat="45.90798" lon="4.57638">
        <ele>243.96188</ele>
        <time>2023-12-07T13:51:21.000Z</time>
      </trkpt>
      <trkpt lat="45.90799" lon="4.57643">
        <ele>244.18729</ele>
        <time>2023-12-07T13:51:22.000Z</time>
      </trkpt>
      <trkpt lat="45.908" lon="4.57648">
        <ele>244.35796</ele>
        <time>2023-12-07T13:51:23.000Z</time>
      </trkpt>
      <trkpt lat="45.90801" lon="4.57653">
        <ele>244.54948</ele>
        <time>2023-12-07T13:51:24.000Z</time>
      </trkpt>
      <trkpt lat="45.90802" lon="4.57658">
        <ele>244.7585</ele>
        <time>2023-12-07T13:51:25.000Z</time>
      </trkpt>
      <trkpt lat="45.90803" lon="4.57662">
        <ele>244.93803</ele>
        <time>2023-12-07T13:51:26.000Z</time>
      </trkpt>
      <trkpt lat="45.90804" lon="4.57666">
        <ele>245.07849</ele>
        <time>2023-12-07T13:51:27.000Z</time>
      </trkpt>
      <trkpt lat="45.90806" lon="4.57671">
        <ele>245.25874</ele>
        <time>2023-12-07T13:51:28.000Z</time>
      </trkpt>
      <trkpt lat="45.90807" lon="4.57675">
        <ele>245.39107</ele>
        <time>2023-12-07T13:51:29.000Z</time>
      </trkpt>
      <trkpt lat="45.90809" lon="4.5768">
        <ele>245.51701</ele>
        <time>2023-12-07T13:51:30.000Z</time>
      </trkpt>
      <trkpt lat="45.90811" lon="4.57685">
        <ele>245.6198</ele>
        <time>2023-12-07T13:51:31.000Z</time>
      </trkpt>
      <trkpt lat="45.90812" lon="4.5769">
        <ele>245.73843</ele>
        <time>2023-12-07T13:51:32.000Z</time>
      </trkpt>
      <trkpt lat="45.90814" lon="4.57694">
        <ele>245.88016</ele>
        <time>2023-12-07T13:51:33.000Z</time>
      </trkpt>
      <trkpt lat="45.90815" lon="4.57698">
        <ele>245.95822</ele>
        <time>2023-12-07T13:51:34.000Z</time>
      </trkpt>
      <trkpt lat="45.90817" lon="4.57703">
        <ele>246.21712</ele>
        <time>2023-12-07T13:51:35.000Z</time>
      </trkpt>
      <trkpt lat="45.90818" lon="4.57708">
        <ele>246.44304</ele>
        <time>2023-12-07T13:51:36.000Z</time>
      </trkpt>
      <trkpt lat="45.9082" lon="4.57712">
        <ele>246.62805</ele>
        <time>2023-12-07T13:51:37.000Z</time>
      </trkpt>
      <trkpt lat="45.90821" lon="4.57716">
        <ele>246.89909</ele>
        <time>2023-12-07T13:51:38.000Z</time>
      </trkpt>
      <trkpt lat="45.90823" lon="4.57721">
        <ele>247.18489</ele>
        <time>2023-12-07T13:51:39.000Z</time>
      </trkpt>
      <trkpt lat="45.90825" lon="4.57726">
        <ele>247.47578</ele>
        <time>2023-12-07T13:51:40.000Z</time>
      </trkpt>
      <trkpt lat="45.90827" lon="4.5773">
        <ele>247.82487</ele>
        <time>2023-12-07T13:51:41.000Z</time>
      </trkpt>
      <trkpt lat="45.90829" lon="4.57734">
        <ele>248.07431</ele>
        <time>2023-12-07T13:51:42.000Z</time>
      </trkpt>
      <trkpt lat="45.90831" lon="4.57738">
        <ele>248.38701</ele>
        <time>2023-12-07T13:51:43.000Z</time>
      </trkpt>
      <trkpt lat="45.90833" lon="4.57742">
        <ele>248.60185</ele>
        <time>2023-12-07T13:51:44.000Z</time>
      </trkpt>
      <trkpt lat="45.90835" lon="4.57745">
        <ele>248.7834</ele>
        <time>2023-12-07T13:51:45.000Z</time>
      </trkpt>
      <trkpt lat="45.90837" lon="4.57749">
        <ele>248.96245</ele>
        <time>2023-12-07T13:51:46.000Z</time>
      </trkpt>
      <trkpt lat="45.9084" lon="4.57752">
        <ele>249.19344</ele>
        <time>2023-12-07T13:51:47.000Z</time>
      </trkpt>
      <trkpt lat="45.90842" lon="4.57756">
        <ele>249.41008</ele>
        <time>2023-12-07T13:51:48.000Z</time>
      </trkpt>
      <trkpt lat="45.90844" lon="4.57759">
        <ele>249.68437</ele>
        <time>2023-12-07T13:51:49.000Z</time>
      </trkpt>
      <trkpt lat="45.90846" lon="4.57763">
        <ele>249.91306</ele>
        <time>2023-12-07T13:51:50.000Z</time>
      </trkpt>
      <trkpt lat="45.90848" lon="4.57766">
        <ele>250.17905</ele>
        <time>2023-12-07T13:51:51.000Z</time>
      </trkpt>
      <trkpt lat="45.9085" lon="4.57771">
        <ele>250.39287</ele>
        <time>2023-12-07T13:51:52.000Z</time>
      </trkpt>
      <trkpt lat="45.90852" lon="4.57775">
        <ele>250.51009</ele>
        <time>2023-12-07T13:51:53.000Z</time>
      </trkpt>
      <trkpt lat="45.90854" lon="4.57779">
        <ele>250.65059</ele>
        <time>2023-12-07T13:51:54.000Z</time>
      </trkpt>
      <trkpt lat="45.90855" lon="4.57784">
        <ele>250.62479</ele>
        <time>2023-12-07T13:51:55.000Z</time>
      </trkpt>
      <trkpt lat="45.90857" lon="4.57789">
        <ele>250.66829</ele>
        <time>2023-12-07T13:51:56.000Z</time>
      </trkpt>
      <trkpt lat="45.90859" lon="4.57794">
        <ele>250.77898</ele>
        <time>2023-12-07T13:51:57.000Z</time>
      </trkpt>
      <trkpt lat="45.90861" lon="4.57798">
        <ele>250.81218</ele>
        <time>2023-12-07T13:51:58.000Z</time>
      </trkpt>
      <trkpt lat="45.90862" lon="4.57802">
        <ele>250.84695</ele>
        <time>2023-12-07T13:51:59.000Z</time>
      </trkpt>
      <trkpt lat="45.90863" lon="4.57807">
        <ele>250.96805</ele>
        <time>2023-12-07T13:52:00.000Z</time>
      </trkpt>
      <trkpt lat="45.90864" lon="4.57812">
        <ele>250.88867</ele>
        <time>2023-12-07T13:52:01.000Z</time>
      </trkpt>
      <trkpt lat="45.90865" lon="4.57817">
        <ele>250.8046</ele>
        <time>2023-12-07T13:52:02.000Z</time>
      </trkpt>
      <trkpt lat="45.90866" lon="4.57821">
        <ele>250.69633</ele>
        <time>2023-12-07T13:52:03.000Z</time>
      </trkpt>
      <trkpt lat="45.90867" lon="4.57825">
        <ele>250.6689</ele>
        <time>2023-12-07T13:52:04.000Z</time>
      </trkpt>
      <trkpt lat="45.90867" lon="4.5783">
        <ele>250.66641</ele>
        <time>2023-12-07T13:52:05.000Z</time>
      </trkpt>
      <trkpt lat="45.90868" lon="4.57835">
        <ele>250.70329</ele>
        <time>2023-12-07T13:52:06.000Z</time>
      </trkpt>
      <trkpt lat="45.90869" lon="4.57841">
        <ele>250.79939</ele>
        <time>2023-12-07T13:52:07.000Z</time>
      </trkpt>
      <trkpt lat="45.90869" lon="4.57846">
        <ele>250.8223</ele>
        <time>2023-12-07T13:52:08.000Z</time>
      </trkpt>
      <trkpt lat="45.9087" lon="4.57851">
        <ele>250.85095</ele>
        <time>2023-12-07T13:52:09.000Z</time>
      </trkpt>
      <trkpt lat="45.90871" lon="4.57856">
        <ele>250.95981</ele>
        <time>2023-12-07T13:52:10.000Z</time>
      </trkpt>
      <trkpt lat="45.90871" lon="4.57862">
        <ele>251.02876</ele>
        <time>2023-12-07T13:52:11.000Z</time>
      </trkpt>
      <trkpt lat="45.90872" lon="4.57867">
        <ele>251.19365</ele>
        <time>2023-12-07T13:52:12.000Z</time>
      </trkpt>
      <trkpt lat="45.90872" lon="4.57872">
        <ele>251.37976</ele>
        <time>2023-12-07T13:52:13.000Z</time>
      </trkpt>
      <trkpt lat="45.90873" lon="4.57877">
        <ele>251.4519</ele>
        <time>2023-12-07T13:52:14.000Z</time>
      </trkpt>
      <trkpt lat="45.90873" lon="4.57882">
        <ele>251.77377</ele>
        <time>2023-12-07T13:52:15.000Z</time>
      </trkpt>
      <trkpt lat="45.90874" lon="4.57887">
        <ele>252.02718</ele>
        <time>2023-12-07T13:52:16.000Z</time>
      </trkpt>
      <trkpt lat="45.90875" lon="4.57893">
        <ele>252.33157</ele>
        <time>2023-12-07T13:52:17.000Z</time>
      </trkpt>
      <trkpt lat="45.90876" lon="4.57898">
        <ele>252.72421</ele>
        <time>2023-12-07T13:52:18.000Z</time>
      </trkpt>
      <trkpt lat="45.90877" lon="4.57903">
        <ele>253.08841</ele>
        <time>2023-12-07T13:52:19.000Z</time>
      </trkpt>
      <trkpt lat="45.90879" lon="4.57908">
        <ele>253.37296</ele>
        <time>2023-12-07T13:52:20.000Z</time>
      </trkpt>
      <trkpt lat="45.9088" lon="4.57912">
        <ele>253.79741</ele>
        <time>2023-12-07T13:52:21.000Z</time>
      </trkpt>
      <trkpt lat="45.90881" lon="4.57917">
        <ele>254.11252</ele>
        <time>2023-12-07T13:52:22.000Z</time>
      </trkpt>
      <trkpt lat="45.90883" lon="4.57921">
        <ele>254.44746</ele>
        <time>2023-12-07T13:52:23.000Z</time>
      </trkpt>
      <trkpt lat="45.90885" lon="4.57925">
        <ele>254.6862</ele>
        <time>2023-12-07T13:52:24.000Z</time>
      </trkpt>
      <trkpt lat="45.90887" lon="4.57929">
        <ele>254.89694</ele>
        <time>2023-12-07T13:52:25.000Z</time>
      </trkpt>
      <trkpt lat="45.90889" lon="4.57933">
        <ele>255.08691</ele>
        <time>2023-12-07T13:52:26.000Z</time>
      </trkpt>
      <trkpt lat="45.90891" lon="4.57937">
        <ele>255.20926</ele>
        <time>2023-12-07T13:52:27.000Z</time>
      </trkpt>
      <trkpt lat="45.90892" lon="4.57941">
        <ele>255.39835</ele>
        <time>2023-12-07T13:52:28.000Z</time>
      </trkpt>
      <trkpt lat="45.90894" lon="4.57945">
        <ele>255.58627</ele>
        <time>2023-12-07T13:52:29.000Z</time>
      </trkpt>
      <trkpt lat="45.90896" lon="4.5795">
        <ele>255.70093</ele>
        <time>2023-12-07T13:52:30.000Z</time>
      </trkpt>
      <trkpt lat="45.90897" lon="4.57955">
        <ele>255.80852</ele>
        <time>2023-12-07T13:52:31.000Z</time>
      </trkpt>
      <trkpt lat="45.90899" lon="4.57959">
        <ele>255.84468</ele>
        <time>2023-12-07T13:52:32.000Z</time>
      </trkpt>
      <trkpt lat="45.909" lon="4.57963">
        <ele>255.82458</ele>
        <time>2023-12-07T13:52:33.000Z</time>
      </trkpt>
      <trkpt lat="45.90901" lon="4.57968">
        <ele>255.80148</ele>
        <time>2023-12-07T13:52:34.000Z</time>
      </trkpt>
      <trkpt lat="45.90903" lon="4.57973">
        <ele>255.49248</ele>
        <time>2023-12-07T13:52:35.000Z</time>
      </trkpt>
      <trkpt lat="45.90904" lon="4.57977">
        <ele>255.48642</ele>
        <time>2023-12-07T13:52:36.000Z</time>
      </trkpt>
      <trkpt lat="45.90905" lon="4.57982">
        <ele>255.41292</ele>
        <time>2023-12-07T13:52:37.000Z</time>
      </trkpt>
      <trkpt lat="45.90906" lon="4.57987">
        <ele>255.29314</ele>
        <time>2023-12-07T13:52:38.000Z</time>
      </trkpt>
      <trkpt lat="45.90907" lon="4.57991">
        <ele>255.22092</ele>
        <time>2023-12-07T13:52:39.000Z</time>
      </trkpt>
      <trkpt lat="45.90908" lon="4.57995">
        <ele>255.16861</ele>
        <time>2023-12-07T13:52:40.000Z</time>
      </trkpt>
      <trkpt lat="45.90909" lon="4.58">
        <ele>255.17888</ele>
        <time>2023-12-07T13:52:41.000Z</time>
      </trkpt>
      <trkpt lat="45.9091" lon="4.58004">
        <ele>255.26022</ele>
        <time>2023-12-07T13:52:42.000Z</time>
      </trkpt>
      <trkpt lat="45.9091" lon="4.58008">
        <ele>255.35046</ele>
        <time>2023-12-07T13:52:43.000Z</time>
      </trkpt>
      <trkpt lat="45.90911" lon="4.58013">
        <ele>255.51083</ele>
        <time>2023-12-07T13:52:44.000Z</time>
      </trkpt>
      <trkpt lat="45.90911" lon="4.58017">
        <ele>255.70149</ele>
        <time>2023-12-07T13:52:45.000Z</time>
      </trkpt>
      <trkpt lat="45.90911" lon="4.58022">
        <ele>255.90788</ele>
        <time>2023-12-07T13:52:46.000Z</time>
      </trkpt>
      <trkpt lat="45.9091" lon="4.58026">
        <ele>256.15186</ele>
        <time>2023-12-07T13:52:47.000Z</time>
      </trkpt>
      <trkpt lat="45.9091" lon="4.58031">
        <ele>256.41452</ele>
        <time>2023-12-07T13:52:48.000Z</time>
      </trkpt>
      <trkpt lat="45.9091" lon="4.58035">
        <ele>256.6434</ele>
        <time>2023-12-07T13:52:49.000Z</time>
      </trkpt>
      <trkpt lat="45.9091" lon="4.5804">
        <ele>256.90759</ele>
        <time>2023-12-07T13:52:50.000Z</time>
      </trkpt>
      <trkpt lat="45.90909" lon="4.58044">
        <ele>257.18143</ele>
        <time>2023-12-07T13:52:51.000Z</time>
      </trkpt>
      <trkpt lat="45.90909" lon="4.58048">
        <ele>257.51764</ele>
        <time>2023-12-07T13:52:52.000Z</time>
      </trkpt>
      <trkpt lat="45.90909" lon="4.58053">
        <ele>257.94193</ele>
        <time>2023-12-07T13:52:53.000Z</time>
      </trkpt>
      <trkpt lat="45.90909" lon="4.58057">
        <ele>258.52911</ele>
        <time>2023-12-07T13:52:54.000Z</time>
      </trkpt>
      <trkpt lat="45.90908" lon="4.58061">
        <ele>259.16193</ele>
        <time>2023-12-07T13:52:55.000Z</time>
      </trkpt>
      <trkpt lat="45.90908" lon="4.58066">
        <ele>259.51566</ele>
        <time>2023-12-07T13:52:56.000Z</time>
      </trkpt>
      <trkpt lat="45.90908" lon="4.58071">
        <ele>259.94003</ele>
        <time>2023-12-07T13:52:57.000Z</time>
      </trkpt>
      <trkpt lat="45.90908" lon="4.58075">
        <ele>260.33133</ele>
        <time>2023-12-07T13:52:58.000Z</time>
      </trkpt>
      <trkpt lat="45.90908" lon="4.58079">
        <ele>260.71808</ele>
        <time>2023-12-07T13:52:59.000Z</time>
      </trkpt>
      <trkpt lat="45.90908" lon="4.58083">
        <ele>261.1178</ele>
        <time>2023-12-07T13:53:00.000Z</time>
      </trkpt>
      <trkpt lat="45.90908" lon="4.58087">
        <ele>261.48761</ele>
        <time>2023-12-07T13:53:01.000Z</time>
      </trkpt>
      <trkpt lat="45.90908" lon="4.58092">
        <ele>261.89206</ele>
        <time>2023-12-07T13:53:02.000Z</time>
      </trkpt>
      <trkpt lat="45.90907" lon="4.58096">
        <ele>262.30566</ele>
        <time>2023-12-07T13:53:03.000Z</time>
      </trkpt>
      <trkpt lat="45.90907" lon="4.581">
        <ele>262.69342</ele>
        <time>2023-12-07T13:53:04.000Z</time>
      </trkpt>
      <trkpt lat="45.90907" lon="4.58105">
        <ele>263.08466</ele>
        <time>2023-12-07T13:53:05.000Z</time>
      </trkpt>
      <trkpt lat="45.90908" lon="4.58109">
        <ele>263.41373</ele>
        <time>2023-12-07T13:53:06.000Z</time>
      </trkpt>
      <trkpt lat="45.90908" lon="4.58114">
        <ele>263.73013</ele>
        <time>2023-12-07T13:53:07.000Z</time>
      </trkpt>
      <trkpt lat="45.90908" lon="4.58119">
        <ele>264.04431</ele>
        <time>2023-12-07T13:53:08.000Z</time>
      </trkpt>
      <trkpt lat="45.90908" lon="4.58123">
        <ele>264.37262</ele>
        <time>2023-12-07T13:53:09.000Z</time>
      </trkpt>
      <trkpt lat="45.90908" lon="4.58127">
        <ele>264.74097</ele>
        <time>2023-12-07T13:53:10.000Z</time>
      </trkpt>
      <trkpt lat="45.90908" lon="4.58131">
        <ele>265.09543</ele>
        <time>2023-12-07T13:53:11.000Z</time>
      </trkpt>
      <trkpt lat="45.90908" lon="4.58135">
        <ele>265.40054</ele>
        <time>2023-12-07T13:53:12.000Z</time>
      </trkpt>
      <trkpt lat="45.90908" lon="4.58138">
        <ele>265.71948</ele>
        <time>2023-12-07T13:53:13.000Z</time>
      </trkpt>
      <trkpt lat="45.90908" lon="4.58141">
        <ele>265.99884</ele>
        <time>2023-12-07T13:53:14.000Z</time>
      </trkpt>
      <trkpt lat="45.90908" lon="4.58146">
        <ele>266.29288</ele>
        <time>2023-12-07T13:53:16.000Z</time>
      </trkpt>
      <trkpt lat="45.90907" lon="4.58149">
        <ele>266.61838</ele>
        <time>2023-12-07T13:53:17.000Z</time>
      </trkpt>
      <trkpt lat="45.90907" lon="4.58152">
        <ele>266.88156</ele>
        <time>2023-12-07T13:53:18.000Z</time>
      </trkpt>
      <trkpt lat="45.90907" lon="4.58156">
        <ele>267.1673</ele>
        <time>2023-12-07T13:53:19.000Z</time>
      </trkpt>
      <trkpt lat="45.90906" lon="4.58159">
        <ele>267.43484</ele>
        <time>2023-12-07T13:53:20.000Z</time>
      </trkpt>
      <trkpt lat="45.90905" lon="4.58162">
        <ele>267.66776</ele>
        <time>2023-12-07T13:53:21.000Z</time>
      </trkpt>
      <trkpt lat="45.90905" lon="4.58165">
        <ele>267.82458</ele>
        <time>2023-12-07T13:53:22.000Z</time>
      </trkpt>
      <trkpt lat="45.90905" lon="4.58168">
        <ele>268.00177</ele>
        <time>2023-12-07T13:53:23.000Z</time>
      </trkpt>
      <trkpt lat="45.90905" lon="4.58172">
        <ele>268.15961</ele>
        <time>2023-12-07T13:53:24.000Z</time>
      </trkpt>
      <trkpt lat="45.90905" lon="4.58176">
        <ele>268.33057</ele>
        <time>2023-12-07T13:53:25.000Z</time>
      </trkpt>
      <trkpt lat="45.90905" lon="4.58179">
        <ele>268.48569</ele>
        <time>2023-12-07T13:53:26.000Z</time>
      </trkpt>
      <trkpt lat="45.90905" lon="4.58183">
        <ele>268.68204</ele>
        <time>2023-12-07T13:53:27.000Z</time>
      </trkpt>
      <trkpt lat="45.90905" lon="4.58186">
        <ele>268.80661</ele>
        <time>2023-12-07T13:53:28.000Z</time>
      </trkpt>
      <trkpt lat="45.90905" lon="4.5819">
        <ele>268.86548</ele>
        <time>2023-12-07T13:53:29.000Z</time>
      </trkpt>
      <trkpt lat="45.90905" lon="4.58193">
        <ele>268.91525</ele>
        <time>2023-12-07T13:53:30.000Z</time>
      </trkpt>
      <trkpt lat="45.90905" lon="4.58197">
        <ele>268.90244</ele>
        <time>2023-12-07T13:53:31.000Z</time>
      </trkpt>
      <trkpt lat="45.90905" lon="4.58201">
        <ele>268.88599</ele>
        <time>2023-12-07T13:53:32.000Z</time>
      </trkpt>
      <trkpt lat="45.90905" lon="4.58206">
        <ele>268.74286</ele>
        <time>2023-12-07T13:53:33.000Z</time>
      </trkpt>
      <trkpt lat="45.90905" lon="4.5821">
        <ele>268.69</ele>
        <time>2023-12-07T13:53:34.000Z</time>
      </trkpt>
      <trkpt lat="45.90905" lon="4.58214">
        <ele>268.34833</ele>
        <time>2023-12-07T13:53:35.000Z</time>
      </trkpt>
      <trkpt lat="45.90906" lon="4.58218">
        <ele>267.94943</ele>
        <time>2023-12-07T13:53:36.000Z</time>
      </trkpt>
      <trkpt lat="45.90907" lon="4.58222">
        <ele>267.58606</ele>
        <time>2023-12-07T13:53:37.000Z</time>
      </trkpt>
      <trkpt lat="45.90907" lon="4.58226">
        <ele>267.29965</ele>
        <time>2023-12-07T13:53:38.000Z</time>
      </trkpt>
      <trkpt lat="45.90908" lon="4.58229">
        <ele>267.05673</ele>
        <time>2023-12-07T13:53:39.000Z</time>
      </trkpt>
      <trkpt lat="45.90909" lon="4.58233">
        <ele>266.77997</ele>
        <time>2023-12-07T13:53:40.000Z</time>
      </trkpt>
      <trkpt lat="45.9091" lon="4.58237">
        <ele>267.00266</ele>
        <time>2023-12-07T13:53:41.000Z</time>
      </trkpt>
      <trkpt lat="45.90911" lon="4.58241">
        <ele>267.08444</ele>
        <time>2023-12-07T13:53:42.000Z</time>
      </trkpt>
      <trkpt lat="45.90912" lon="4.58246">
        <ele>267.24857</ele>
        <time>2023-12-07T13:53:43.000Z</time>
      </trkpt>
      <trkpt lat="45.90912" lon="4.5825">
        <ele>267.4007</ele>
        <time>2023-12-07T13:53:44.000Z</time>
      </trkpt>
      <trkpt lat="45.90913" lon="4.58254">
        <ele>267.58868</ele>
        <time>2023-12-07T13:53:45.000Z</time>
      </trkpt>
      <trkpt lat="45.90913" lon="4.58257">
        <ele>267.79218</ele>
        <time>2023-12-07T13:53:46.000Z</time>
      </trkpt>
      <trkpt lat="45.90914" lon="4.5826">
        <ele>267.9754</ele>
        <time>2023-12-07T13:53:47.000Z</time>
      </trkpt>
      <trkpt lat="45.90914" lon="4.58262">
        <ele>268.21204</ele>
        <time>2023-12-07T13:53:48.000Z</time>
      </trkpt>
      <trkpt lat="45.90914" lon="4.58266">
        <ele>268.31943</ele>
        <time>2023-12-07T13:53:50.000Z</time>
      </trkpt>
      <trkpt lat="45.90913" lon="4.58269">
        <ele>268.45786</ele>
        <time>2023-12-07T13:53:51.000Z</time>
      </trkpt>
      <trkpt lat="45.90912" lon="4.58272">
        <ele>268.68146</ele>
        <time>2023-12-07T13:53:52.000Z</time>
      </trkpt>
      <trkpt lat="45.9091" lon="4.58274">
        <ele>268.99905</ele>
        <time>2023-12-07T13:53:53.000Z</time>
      </trkpt>
      <trkpt lat="45.90908" lon="4.58276">
        <ele>269.28226</ele>
        <time>2023-12-07T13:53:54.000Z</time>
      </trkpt>
      <trkpt lat="45.90906" lon="4.58278">
        <ele>269.46393</ele>
        <time>2023-12-07T13:53:55.000Z</time>
      </trkpt>
      <trkpt lat="45.90903" lon="4.5828">
        <ele>269.95209</ele>
        <time>2023-12-07T13:53:56.000Z</time>
      </trkpt>
      <trkpt lat="45.90901" lon="4.58281">
        <ele>270.44098</ele>
        <time>2023-12-07T13:53:57.000Z</time>
      </trkpt>
      <trkpt lat="45.90899" lon="4.58283">
        <ele>270.66556</ele>
        <time>2023-12-07T13:53:58.000Z</time>
      </trkpt>
      <trkpt lat="45.90897" lon="4.58284">
        <ele>270.77426</ele>
        <time>2023-12-07T13:53:59.000Z</time>
      </trkpt>
      <trkpt lat="45.90894" lon="4.58286">
        <ele>270.87311</ele>
        <time>2023-12-07T13:54:00.000Z</time>
      </trkpt>
      <trkpt lat="45.90892" lon="4.58288">
        <ele>271.57037</ele>
        <time>2023-12-07T13:54:01.000Z</time>
      </trkpt>
      <trkpt lat="45.90889" lon="4.58291">
        <ele>271.60446</ele>
        <time>2023-12-07T13:54:02.000Z</time>
      </trkpt>
      <trkpt lat="45.90887" lon="4.58293">
        <ele>271.81589</ele>
        <time>2023-12-07T13:54:03.000Z</time>
      </trkpt>
      <trkpt lat="45.90884" lon="4.58296">
        <ele>271.81537</ele>
        <time>2023-12-07T13:54:04.000Z</time>
      </trkpt>
      <trkpt lat="45.90882" lon="4.58298">
        <ele>271.89853</ele>
        <time>2023-12-07T13:54:05.000Z</time>
      </trkpt>
      <trkpt lat="45.90879" lon="4.58301">
        <ele>271.91049</ele>
        <time>2023-12-07T13:54:06.000Z</time>
      </trkpt>
      <trkpt lat="45.90877" lon="4.58305">
        <ele>271.89786</ele>
        <time>2023-12-07T13:54:07.000Z</time>
      </trkpt>
      <trkpt lat="45.90875" lon="4.58308">
        <ele>271.97385</ele>
        <time>2023-12-07T13:54:08.000Z</time>
      </trkpt>
      <trkpt lat="45.90872" lon="4.5831">
        <ele>272.00842</ele>
        <time>2023-12-07T13:54:09.000Z</time>
      </trkpt>
      <trkpt lat="45.90869" lon="4.58313">
        <ele>271.92792</ele>
        <time>2023-12-07T13:54:10.000Z</time>
      </trkpt>
      <trkpt lat="45.90867" lon="4.58316">
        <ele>271.86584</ele>
        <time>2023-12-07T13:54:11.000Z</time>
      </trkpt>
      <trkpt lat="45.90865" lon="4.58318">
        <ele>271.82352</ele>
        <time>2023-12-07T13:54:12.000Z</time>
      </trkpt>
      <trkpt lat="45.90863" lon="4.58321">
        <ele>271.75092</ele>
        <time>2023-12-07T13:54:13.000Z</time>
      </trkpt>
      <trkpt lat="45.90861" lon="4.58325">
        <ele>271.63281</ele>
        <time>2023-12-07T13:54:14.000Z</time>
      </trkpt>
      <trkpt lat="45.90859" lon="4.58328">
        <ele>271.54837</ele>
        <time>2023-12-07T13:54:15.000Z</time>
      </trkpt>
      <trkpt lat="45.90858" lon="4.58332">
        <ele>272.02597</ele>
        <time>2023-12-07T13:54:16.000Z</time>
      </trkpt>
      <trkpt lat="45.90856" lon="4.58336">
        <ele>272.46967</ele>
        <time>2023-12-07T13:54:17.000Z</time>
      </trkpt>
      <trkpt lat="45.90854" lon="4.5834">
        <ele>273.0228</ele>
        <time>2023-12-07T13:54:18.000Z</time>
      </trkpt>
      <trkpt lat="45.90853" lon="4.58343">
        <ele>273.50986</ele>
        <time>2023-12-07T13:54:19.000Z</time>
      </trkpt>
      <trkpt lat="45.90851" lon="4.58347">
        <ele>273.94464</ele>
        <time>2023-12-07T13:54:20.000Z</time>
      </trkpt>
      <trkpt lat="45.9085" lon="4.58351">
        <ele>273.85849</ele>
        <time>2023-12-07T13:54:21.000Z</time>
      </trkpt>
      <trkpt lat="45.90848" lon="4.58355">
        <ele>273.94232</ele>
        <time>2023-12-07T13:54:22.000Z</time>
      </trkpt>
      <trkpt lat="45.90846" lon="4.58359">
        <ele>274.11804</ele>
        <time>2023-12-07T13:54:23.000Z</time>
      </trkpt>
      <trkpt lat="45.90844" lon="4.58363">
        <ele>274.34183</ele>
        <time>2023-12-07T13:54:24.000Z</time>
      </trkpt>
      <trkpt lat="45.90842" lon="4.58367">
        <ele>274.43015</ele>
        <time>2023-12-07T13:54:25.000Z</time>
      </trkpt>
      <trkpt lat="45.9084" lon="4.58372">
        <ele>274.44162</ele>
        <time>2023-12-07T13:54:26.000Z</time>
      </trkpt>
      <trkpt lat="45.90839" lon="4.58377">
        <ele>274.42114</ele>
        <time>2023-12-07T13:54:27.000Z</time>
      </trkpt>
      <trkpt lat="45.90838" lon="4.58381">
        <ele>274.28058</ele>
        <time>2023-12-07T13:54:28.000Z</time>
      </trkpt>
      <trkpt lat="45.90837" lon="4.58386">
        <ele>274.17401</ele>
        <time>2023-12-07T13:54:29.000Z</time>
      </trkpt>
      <trkpt lat="45.90837" lon="4.5839">
        <ele>274.24338</ele>
        <time>2023-12-07T13:54:30.000Z</time>
      </trkpt>
      <trkpt lat="45.90836" lon="4.58393">
        <ele>274.31851</ele>
        <time>2023-12-07T13:54:31.000Z</time>
      </trkpt>
      <trkpt lat="45.90835" lon="4.58397">
        <ele>274.34653</ele>
        <time>2023-12-07T13:54:32.000Z</time>
      </trkpt>
      <trkpt lat="45.90837" lon="4.58399">
        <ele>274.38556</ele>
        <time>2023-12-07T13:54:38.000Z</time>
      </trkpt>
      <trkpt lat="45.90834" lon="4.584">
        <ele>274.80353</ele>
        <time>2023-12-07T13:54:58.000Z</time>
      </trkpt>
      <trkpt lat="45.90832" lon="4.58399">
        <ele>274.99521</ele>
        <time>2023-12-07T13:54:59.000Z</time>
      </trkpt>
      <trkpt lat="45.90828" lon="4.584">
        <ele>274.51019</ele>
        <time>2023-12-07T13:55:01.000Z</time>
      </trkpt>
      <trkpt lat="45.90825" lon="4.584">
        <ele>274.03644</ele>
        <time>2023-12-07T13:55:02.000Z</time>
      </trkpt>
      <trkpt lat="45.90822" lon="4.58401">
        <ele>273.621</ele>
        <time>2023-12-07T13:55:03.000Z</time>
      </trkpt>
      <trkpt lat="45.90819" lon="4.58401">
        <ele>273.38055</ele>
        <time>2023-12-07T13:55:04.000Z</time>
      </trkpt>
      <trkpt lat="45.90816" lon="4.58401">
        <ele>273.13901</ele>
        <time>2023-12-07T13:55:05.000Z</time>
      </trkpt>
      <trkpt lat="45.90812" lon="4.58402">
        <ele>272.92377</ele>
        <time>2023-12-07T13:55:06.000Z</time>
      </trkpt>
      <trkpt lat="45.90806" lon="4.58404">
        <ele>272.67432</ele>
        <time>2023-12-07T13:55:07.000Z</time>
      </trkpt>
      <trkpt lat="45.90802" lon="4.58406">
        <ele>272.43292</ele>
        <time>2023-12-07T13:55:08.000Z</time>
      </trkpt>
      <trkpt lat="45.90797" lon="4.58409">
        <ele>272.30075</ele>
        <time>2023-12-07T13:55:09.000Z</time>
      </trkpt>
      <trkpt lat="45.90791" lon="4.58412">
        <ele>272.20343</ele>
        <time>2023-12-07T13:55:10.000Z</time>
      </trkpt>
      <trkpt lat="45.90786" lon="4.58415">
        <ele>272.17825</ele>
        <time>2023-12-07T13:55:11.000Z</time>
      </trkpt>
      <trkpt lat="45.90781" lon="4.58418">
        <ele>272.20782</ele>
        <time>2023-12-07T13:55:12.000Z</time>
      </trkpt>
      <trkpt lat="45.90776" lon="4.5842">
        <ele>272.23218</ele>
        <time>2023-12-07T13:55:13.000Z</time>
      </trkpt>
      <trkpt lat="45.90771" lon="4.58421">
        <ele>272.25098</ele>
        <time>2023-12-07T13:55:14.000Z</time>
      </trkpt>
      <trkpt lat="45.90766" lon="4.58423">
        <ele>272.36722</ele>
        <time>2023-12-07T13:55:15.000Z</time>
      </trkpt>
      <trkpt lat="45.90763" lon="4.58424">
        <ele>272.22113</ele>
        <time>2023-12-07T13:55:16.000Z</time>
      </trkpt>
      <trkpt lat="45.90759" lon="4.58426">
        <ele>271.95795</ele>
        <time>2023-12-07T13:55:17.000Z</time>
      </trkpt>
      <trkpt lat="45.90756" lon="4.58428">
        <ele>271.56946</ele>
        <time>2023-12-07T13:55:18.000Z</time>
      </trkpt>
      <trkpt lat="45.90751" lon="4.58431">
        <ele>270.9964</ele>
        <time>2023-12-07T13:55:19.000Z</time>
      </trkpt>
      <trkpt lat="45.90747" lon="4.58434">
        <ele>271.00229</ele>
        <time>2023-12-07T13:55:20.000Z</time>
      </trkpt>
      <trkpt lat="45.90742" lon="4.58437">
        <ele>270.95905</ele>
        <time>2023-12-07T13:55:21.000Z</time>
      </trkpt>
      <trkpt lat="45.90737" lon="4.58441">
        <ele>270.95026</ele>
        <time>2023-12-07T13:55:22.000Z</time>
      </trkpt>
      <trkpt lat="45.90733" lon="4.58446">
        <ele>270.94196</ele>
        <time>2023-12-07T13:55:23.000Z</time>
      </trkpt>
      <trkpt lat="45.90728" lon="4.5845">
        <ele>270.815</ele>
        <time>2023-12-07T13:55:24.000Z</time>
      </trkpt>
      <trkpt lat="45.90723" lon="4.58453">
        <ele>270.68582</ele>
        <time>2023-12-07T13:55:25.000Z</time>
      </trkpt>
      <trkpt lat="45.90717" lon="4.58458">
        <ele>270.43561</ele>
        <time>2023-12-07T13:55:26.000Z</time>
      </trkpt>
      <trkpt lat="45.90712" lon="4.58461">
        <ele>270.19153</ele>
        <time>2023-12-07T13:55:27.000Z</time>
      </trkpt>
      <trkpt lat="45.90709" lon="4.58464">
        <ele>269.9093</ele>
        <time>2023-12-07T13:55:28.000Z</time>
      </trkpt>
      <trkpt lat="45.90704" lon="4.58467">
        <ele>269.55966</ele>
        <time>2023-12-07T13:55:29.000Z</time>
      </trkpt>
      <trkpt lat="45.907" lon="4.5847">
        <ele>269.20908</ele>
        <time>2023-12-07T13:55:30.000Z</time>
      </trkpt>
      <trkpt lat="45.90696" lon="4.58473">
        <ele>268.88324</ele>
        <time>2023-12-07T13:55:31.000Z</time>
      </trkpt>
      <trkpt lat="45.90691" lon="4.58476">
        <ele>268.50342</ele>
        <time>2023-12-07T13:55:32.000Z</time>
      </trkpt>
      <trkpt lat="45.90686" lon="4.58478">
        <ele>268.17188</ele>
        <time>2023-12-07T13:55:33.000Z</time>
      </trkpt>
      <trkpt lat="45.90681" lon="4.58481">
        <ele>267.83682</ele>
        <time>2023-12-07T13:55:34.000Z</time>
      </trkpt>
      <trkpt lat="45.90676" lon="4.58483">
        <ele>267.31479</ele>
        <time>2023-12-07T13:55:35.000Z</time>
      </trkpt>
      <trkpt lat="45.90672" lon="4.58484">
        <ele>266.99066</ele>
        <time>2023-12-07T13:55:36.000Z</time>
      </trkpt>
      <trkpt lat="45.90668" lon="4.58486">
        <ele>266.74463</ele>
        <time>2023-12-07T13:55:37.000Z</time>
      </trkpt>
      <trkpt lat="45.90664" lon="4.58488">
        <ele>266.54483</ele>
        <time>2023-12-07T13:55:38.000Z</time>
      </trkpt>
      <trkpt lat="45.9066" lon="4.58488">
        <ele>266.30695</ele>
        <time>2023-12-07T13:55:39.000Z</time>
      </trkpt>
      <trkpt lat="45.90655" lon="4.58489">
        <ele>265.65128</ele>
        <time>2023-12-07T13:55:40.000Z</time>
      </trkpt>
      <trkpt lat="45.90651" lon="4.58491">
        <ele>265.10922</ele>
        <time>2023-12-07T13:55:41.000Z</time>
      </trkpt>
      <trkpt lat="45.90646" lon="4.58493">
        <ele>264.56418</ele>
        <time>2023-12-07T13:55:42.000Z</time>
      </trkpt>
      <trkpt lat="45.90642" lon="4.58494">
        <ele>264.03552</ele>
        <time>2023-12-07T13:55:43.000Z</time>
      </trkpt>
      <trkpt lat="45.90637" lon="4.58495">
        <ele>263.56244</ele>
        <time>2023-12-07T13:55:44.000Z</time>
      </trkpt>
      <trkpt lat="45.90633" lon="4.58495">
        <ele>263.09454</ele>
        <time>2023-12-07T13:55:45.000Z</time>
      </trkpt>
      <trkpt lat="45.90629" lon="4.58497">
        <ele>262.6441</ele>
        <time>2023-12-07T13:55:46.000Z</time>
      </trkpt>
      <trkpt lat="45.90622" lon="4.58497">
        <ele>262.3988</ele>
        <time>2023-12-07T13:55:47.000Z</time>
      </trkpt>
      <trkpt lat="45.90619" lon="4.58498">
        <ele>261.97739</ele>
        <time>2023-12-07T13:55:48.000Z</time>
      </trkpt>
      <trkpt lat="45.90615" lon="4.58501">
        <ele>261.53876</ele>
        <time>2023-12-07T13:55:49.000Z</time>
      </trkpt>
      <trkpt lat="45.90612" lon="4.58503">
        <ele>261.1109</ele>
        <time>2023-12-07T13:55:50.000Z</time>
      </trkpt>
      <trkpt lat="45.90609" lon="4.58503">
        <ele>260.68109</ele>
        <time>2023-12-07T13:55:51.000Z</time>
      </trkpt>
      <trkpt lat="45.90605" lon="4.58504">
        <ele>260.22925</ele>
        <time>2023-12-07T13:55:52.000Z</time>
      </trkpt>
      <trkpt lat="45.90603" lon="4.58506">
        <ele>259.76825</ele>
        <time>2023-12-07T13:55:53.000Z</time>
      </trkpt>
      <trkpt lat="45.90601" lon="4.58507">
        <ele>259.22391</ele>
        <time>2023-12-07T13:55:54.000Z</time>
      </trkpt>
      <trkpt lat="45.90596" lon="4.58509">
        <ele>258.83292</ele>
        <time>2023-12-07T13:55:55.000Z</time>
      </trkpt>
      <trkpt lat="45.90591" lon="4.5851">
        <ele>258.40863</ele>
        <time>2023-12-07T13:55:56.000Z</time>
      </trkpt>
      <trkpt lat="45.90588" lon="4.58512">
        <ele>257.98486</ele>
        <time>2023-12-07T13:55:57.000Z</time>
      </trkpt>
      <trkpt lat="45.90584" lon="4.58512">
        <ele>257.55524</ele>
        <time>2023-12-07T13:55:58.000Z</time>
      </trkpt>
      <trkpt lat="45.90581" lon="4.58514">
        <ele>257.13062</ele>
        <time>2023-12-07T13:55:59.000Z</time>
      </trkpt>
      <trkpt lat="45.90578" lon="4.58515">
        <ele>256.74902</ele>
        <time>2023-12-07T13:56:00.000Z</time>
      </trkpt>
      <trkpt lat="45.90576" lon="4.58516">
        <ele>256.49832</ele>
        <time>2023-12-07T13:56:02.000Z</time>
      </trkpt>
      <trkpt lat="45.90572" lon="4.58518">
        <ele>256.23785</ele>
        <time>2023-12-07T13:56:06.000Z</time>
      </trkpt>
      <trkpt lat="45.90569" lon="4.5852">
        <ele>255.97293</ele>
        <time>2023-12-07T13:56:07.000Z</time>
      </trkpt>
      <trkpt lat="45.90566" lon="4.58522">
        <ele>255.67342</ele>
        <time>2023-12-07T13:56:08.000Z</time>
      </trkpt>
      <trkpt lat="45.90563" lon="4.58524">
        <ele>255.3801</ele>
        <time>2023-12-07T13:56:09.000Z</time>
      </trkpt>
      <trkpt lat="45.9056" lon="4.58525">
        <ele>254.95816</ele>
        <time>2023-12-07T13:56:10.000Z</time>
      </trkpt>
      <trkpt lat="45.90558" lon="4.58526">
        <ele>254.33047</ele>
        <time>2023-12-07T13:56:11.000Z</time>
      </trkpt>
      <trkpt lat="45.90555" lon="4.58527">
        <ele>253.84224</ele>
        <time>2023-12-07T13:56:13.000Z</time>
      </trkpt>
      <trkpt lat="45.90553" lon="4.58527">
        <ele>253.35196</ele>
        <time>2023-12-07T13:56:15.000Z</time>
      </trkpt>
      <trkpt lat="45.90552" lon="4.58529">
        <ele>252.88089</ele>
        <time>2023-12-07T13:56:17.000Z</time>
      </trkpt>
      <trkpt lat="45.9055" lon="4.58533">
        <ele>252.45381</ele>
        <time>2023-12-07T13:56:28.000Z</time>
      </trkpt>
      <trkpt lat="45.90549" lon="4.58536">
        <ele>252.07939</ele>
        <time>2023-12-07T13:56:29.000Z</time>
      </trkpt>
      <trkpt lat="45.9055" lon="4.5854">
        <ele>251.71062</ele>
        <time>2023-12-07T13:56:30.000Z</time>
      </trkpt>
      <trkpt lat="45.90553" lon="4.58544">
        <ele>251.39853</ele>
        <time>2023-12-07T13:56:31.000Z</time>
      </trkpt>
      <trkpt lat="45.90556" lon="4.58548">
        <ele>251.11311</ele>
        <time>2023-12-07T13:56:32.000Z</time>
      </trkpt>
      <trkpt lat="45.90559" lon="4.58552">
        <ele>250.86919</ele>
        <time>2023-12-07T13:56:33.000Z</time>
      </trkpt>
      <trkpt lat="45.90564" lon="4.58557">
        <ele>250.55998</ele>
        <time>2023-12-07T13:56:34.000Z</time>
      </trkpt>
      <trkpt lat="45.90566" lon="4.58562">
        <ele>250.24594</ele>
        <time>2023-12-07T13:56:35.000Z</time>
      </trkpt>
      <trkpt lat="45.90569" lon="4.58566">
        <ele>249.94833</ele>
        <time>2023-12-07T13:56:36.000Z</time>
      </trkpt>
      <trkpt lat="45.90572" lon="4.5857">
        <ele>249.61584</ele>
        <time>2023-12-07T13:56:37.000Z</time>
      </trkpt>
      <trkpt lat="45.90574" lon="4.58574">
        <ele>249.19344</ele>
        <time>2023-12-07T13:56:38.000Z</time>
      </trkpt>
      <trkpt lat="45.90577" lon="4.58576">
        <ele>248.82272</ele>
        <time>2023-12-07T13:56:39.000Z</time>
      </trkpt>
      <trkpt lat="45.90579" lon="4.58578">
        <ele>248.46243</ele>
        <time>2023-12-07T13:56:40.000Z</time>
      </trkpt>
      <trkpt lat="45.90581" lon="4.5858">
        <ele>248.12418</ele>
        <time>2023-12-07T13:56:41.000Z</time>
      </trkpt>
      <trkpt lat="45.90584" lon="4.58581">
        <ele>247.78728</ele>
        <time>2023-12-07T13:56:42.000Z</time>
      </trkpt>
      <trkpt lat="45.90587" lon="4.58582">
        <ele>247.59428</ele>
        <time>2023-12-07T13:56:43.000Z</time>
      </trkpt>
      <trkpt lat="45.90589" lon="4.58582">
        <ele>247.37759</ele>
        <time>2023-12-07T13:56:44.000Z</time>
      </trkpt>
      <trkpt lat="45.90592" lon="4.58584">
        <ele>247.18221</ele>
        <time>2023-12-07T13:56:45.000Z</time>
      </trkpt>
      <trkpt lat="45.90595" lon="4.58585">
        <ele>246.94852</ele>
        <time>2023-12-07T13:56:46.000Z</time>
      </trkpt>
      <trkpt lat="45.90599" lon="4.58586">
        <ele>246.83476</ele>
        <time>2023-12-07T13:56:47.000Z</time>
      </trkpt>
      <trkpt lat="45.90601" lon="4.58587">
        <ele>246.66841</ele>
        <time>2023-12-07T13:56:48.000Z</time>
      </trkpt>
      <trkpt lat="45.90604" lon="4.58588">
        <ele>246.51242</ele>
        <time>2023-12-07T13:56:49.000Z</time>
      </trkpt>
      <trkpt lat="45.90608" lon="4.58588">
        <ele>246.29143</ele>
        <time>2023-12-07T13:56:50.000Z</time>
      </trkpt>
      <trkpt lat="45.90611" lon="4.58588">
        <ele>246.10564</ele>
        <time>2023-12-07T13:56:51.000Z</time>
      </trkpt>
      <trkpt lat="45.90614" lon="4.58588">
        <ele>245.87894</ele>
        <time>2023-12-07T13:56:52.000Z</time>
      </trkpt>
      <trkpt lat="45.90617" lon="4.58589">
        <ele>245.64932</ele>
        <time>2023-12-07T13:56:53.000Z</time>
      </trkpt>
      <trkpt lat="45.9062" lon="4.5859">
        <ele>245.49643</ele>
        <time>2023-12-07T13:56:54.000Z</time>
      </trkpt>
      <trkpt lat="45.90622" lon="4.58591">
        <ele>245.37671</ele>
        <time>2023-12-07T13:56:55.000Z</time>
      </trkpt>
      <trkpt lat="45.90626" lon="4.58593">
        <ele>245.31308</ele>
        <time>2023-12-07T13:56:56.000Z</time>
      </trkpt>
      <trkpt lat="45.90629" lon="4.58596">
        <ele>245.24947</ele>
        <time>2023-12-07T13:56:57.000Z</time>
      </trkpt>
      <trkpt lat="45.90632" lon="4.58599">
        <ele>245.19719</ele>
        <time>2023-12-07T13:56:58.000Z</time>
      </trkpt>
      <trkpt lat="45.90635" lon="4.58602">
        <ele>245.1171</ele>
        <time>2023-12-07T13:56:59.000Z</time>
      </trkpt>
      <trkpt lat="45.90639" lon="4.58605">
        <ele>245.06099</ele>
        <time>2023-12-07T13:57:00.000Z</time>
      </trkpt>
      <trkpt lat="45.90642" lon="4.58607">
        <ele>245.04675</ele>
        <time>2023-12-07T13:57:01.000Z</time>
      </trkpt>
      <trkpt lat="45.90646" lon="4.58609">
        <ele>245.00557</ele>
        <time>2023-12-07T13:57:02.000Z</time>
      </trkpt>
      <trkpt lat="45.90649" lon="4.58612">
        <ele>245.06763</ele>
        <time>2023-12-07T13:57:03.000Z</time>
      </trkpt>
      <trkpt lat="45.90652" lon="4.58614">
        <ele>245.15129</ele>
        <time>2023-12-07T13:57:04.000Z</time>
      </trkpt>
      <trkpt lat="45.90655" lon="4.58616">
        <ele>245.23433</ele>
        <time>2023-12-07T13:57:05.000Z</time>
      </trkpt>
      <trkpt lat="45.90659" lon="4.58618">
        <ele>245.35767</ele>
        <time>2023-12-07T13:57:06.000Z</time>
      </trkpt>
      <trkpt lat="45.90662" lon="4.58621">
        <ele>245.33273</ele>
        <time>2023-12-07T13:57:07.000Z</time>
      </trkpt>
      <trkpt lat="45.90664" lon="4.58623">
        <ele>245.28067</ele>
        <time>2023-12-07T13:57:08.000Z</time>
      </trkpt>
      <trkpt lat="45.90667" lon="4.58625">
        <ele>245.19238</ele>
        <time>2023-12-07T13:57:09.000Z</time>
      </trkpt>
      <trkpt lat="45.9067" lon="4.58628">
        <ele>245.2011</ele>
        <time>2023-12-07T13:57:10.000Z</time>
      </trkpt>
      <trkpt lat="45.90673" lon="4.58632">
        <ele>245.22041</ele>
        <time>2023-12-07T13:57:11.000Z</time>
      </trkpt>
      <trkpt lat="45.90676" lon="4.58636">
        <ele>245.31155</ele>
        <time>2023-12-07T13:57:12.000Z</time>
      </trkpt>
      <trkpt lat="45.90679" lon="4.58639">
        <ele>245.40678</ele>
        <time>2023-12-07T13:57:13.000Z</time>
      </trkpt>
      <trkpt lat="45.90683" lon="4.58643">
        <ele>245.51575</ele>
        <time>2023-12-07T13:57:14.000Z</time>
      </trkpt>
      <trkpt lat="45.90687" lon="4.58646">
        <ele>245.63213</ele>
        <time>2023-12-07T13:57:15.000Z</time>
      </trkpt>
      <trkpt lat="45.9069" lon="4.5865">
        <ele>245.61421</ele>
        <time>2023-12-07T13:57:16.000Z</time>
      </trkpt>
      <trkpt lat="45.90694" lon="4.58653">
        <ele>245.62688</ele>
        <time>2023-12-07T13:57:17.000Z</time>
      </trkpt>
      <trkpt lat="45.90697" lon="4.58656">
        <ele>245.54208</ele>
        <time>2023-12-07T13:57:18.000Z</time>
      </trkpt>
      <trkpt lat="45.907" lon="4.5866">
        <ele>245.47958</ele>
        <time>2023-12-07T13:57:19.000Z</time>
      </trkpt>
      <trkpt lat="45.90704" lon="4.58663">
        <ele>245.38394</ele>
        <time>2023-12-07T13:57:20.000Z</time>
      </trkpt>
      <trkpt lat="45.90709" lon="4.58668">
        <ele>245.24112</ele>
        <time>2023-12-07T13:57:21.000Z</time>
      </trkpt>
      <trkpt lat="45.90713" lon="4.58672">
        <ele>245.13281</ele>
        <time>2023-12-07T13:57:22.000Z</time>
      </trkpt>
      <trkpt lat="45.90717" lon="4.58676">
        <ele>244.92839</ele>
        <time>2023-12-07T13:57:23.000Z</time>
      </trkpt>
      <trkpt lat="45.9072" lon="4.58679">
        <ele>244.80014</ele>
        <time>2023-12-07T13:57:24.000Z</time>
      </trkpt>
      <trkpt lat="45.90723" lon="4.58681">
        <ele>244.67928</ele>
        <time>2023-12-07T13:57:25.000Z</time>
      </trkpt>
      <trkpt lat="45.90726" lon="4.58683">
        <ele>244.46573</ele>
        <time>2023-12-07T13:57:26.000Z</time>
      </trkpt>
      <trkpt lat="45.90729" lon="4.58686">
        <ele>244.48453</ele>
        <time>2023-12-07T13:57:27.000Z</time>
      </trkpt>
      <trkpt lat="45.90734" lon="4.58689">
        <ele>244.549</ele>
        <time>2023-12-07T13:57:28.000Z</time>
      </trkpt>
      <trkpt lat="45.90738" lon="4.58693">
        <ele>244.62283</ele>
        <time>2023-12-07T13:57:29.000Z</time>
      </trkpt>
      <trkpt lat="45.90741" lon="4.58696">
        <ele>244.62045</ele>
        <time>2023-12-07T13:57:30.000Z</time>
      </trkpt>
      <trkpt lat="45.90745" lon="4.58699">
        <ele>244.60617</ele>
        <time>2023-12-07T13:57:31.000Z</time>
      </trkpt>
      <trkpt lat="45.9075" lon="4.58703">
        <ele>244.6071</ele>
        <time>2023-12-07T13:57:32.000Z</time>
      </trkpt>
      <trkpt lat="45.90754" lon="4.58707">
        <ele>244.61356</ele>
        <time>2023-12-07T13:57:33.000Z</time>
      </trkpt>
      <trkpt lat="45.90758" lon="4.5871">
        <ele>244.54294</ele>
        <time>2023-12-07T13:57:34.000Z</time>
      </trkpt>
      <trkpt lat="45.90762" lon="4.58714">
        <ele>244.408</ele>
        <time>2023-12-07T13:57:35.000Z</time>
      </trkpt>
      <trkpt lat="45.90766" lon="4.58718">
        <ele>244.63762</ele>
        <time>2023-12-07T13:57:36.000Z</time>
      </trkpt>
      <trkpt lat="45.9077" lon="4.58722">
        <ele>244.85141</ele>
        <time>2023-12-07T13:57:37.000Z</time>
      </trkpt>
      <trkpt lat="45.90774" lon="4.58726">
        <ele>245.14375</ele>
        <time>2023-12-07T13:57:38.000Z</time>
      </trkpt>
      <trkpt lat="45.90778" lon="4.5873">
        <ele>245.46123</ele>
        <time>2023-12-07T13:57:39.000Z</time>
      </trkpt>
      <trkpt lat="45.90783" lon="4.58736">
        <ele>245.78629</ele>
        <time>2023-12-07T13:57:40.000Z</time>
      </trkpt>
      <trkpt lat="45.90787" lon="4.5874">
        <ele>246.19299</ele>
        <time>2023-12-07T13:57:41.000Z</time>
      </trkpt>
      <trkpt lat="45.9079" lon="4.58743">
        <ele>246.58997</ele>
        <time>2023-12-07T13:57:42.000Z</time>
      </trkpt>
      <trkpt lat="45.90794" lon="4.58748">
        <ele>247.03049</ele>
        <time>2023-12-07T13:57:43.000Z</time>
      </trkpt>
      <trkpt lat="45.90798" lon="4.58749">
        <ele>247.42911</ele>
        <time>2023-12-07T13:57:44.000Z</time>
      </trkpt>
      <trkpt lat="45.90801" lon="4.58754">
        <ele>247.79941</ele>
        <time>2023-12-07T13:57:45.000Z</time>
      </trkpt>
      <trkpt lat="45.90806" lon="4.58758">
        <ele>248.30698</ele>
        <time>2023-12-07T13:57:46.000Z</time>
      </trkpt>
      <trkpt lat="45.9081" lon="4.5876">
        <ele>248.56816</ele>
        <time>2023-12-07T13:57:47.000Z</time>
      </trkpt>
      <trkpt lat="45.90814" lon="4.58763">
        <ele>248.87534</ele>
        <time>2023-12-07T13:57:48.000Z</time>
      </trkpt>
      <trkpt lat="45.90818" lon="4.58767">
        <ele>249.23128</ele>
        <time>2023-12-07T13:57:49.000Z</time>
      </trkpt>
      <trkpt lat="45.90823" lon="4.58771">
        <ele>249.67188</ele>
        <time>2023-12-07T13:57:50.000Z</time>
      </trkpt>
      <trkpt lat="45.90826" lon="4.58775">
        <ele>250.25435</ele>
        <time>2023-12-07T13:57:51.000Z</time>
      </trkpt>
      <trkpt lat="45.90829" lon="4.58779">
        <ele>250.86894</ele>
        <time>2023-12-07T13:57:52.000Z</time>
      </trkpt>
      <trkpt lat="45.90833" lon="4.58783">
        <ele>251.47685</ele>
        <time>2023-12-07T13:57:53.000Z</time>
      </trkpt>
      <trkpt lat="45.90837" lon="4.58785">
        <ele>252.07341</ele>
        <time>2023-12-07T13:57:54.000Z</time>
      </trkpt>
      <trkpt lat="45.9084" lon="4.58789">
        <ele>252.75919</ele>
        <time>2023-12-07T13:57:55.000Z</time>
      </trkpt>
      <trkpt lat="45.90844" lon="4.58793">
        <ele>253.20488</ele>
        <time>2023-12-07T13:57:56.000Z</time>
      </trkpt>
      <trkpt lat="45.90847" lon="4.58799">
        <ele>253.65952</ele>
        <time>2023-12-07T13:57:57.000Z</time>
      </trkpt>
      <trkpt lat="45.90851" lon="4.58803">
        <ele>254.11722</ele>
        <time>2023-12-07T13:57:58.000Z</time>
      </trkpt>
      <trkpt lat="45.90855" lon="4.58806">
        <ele>254.5094</ele>
        <time>2023-12-07T13:57:59.000Z</time>
      </trkpt>
      <trkpt lat="45.90859" lon="4.5881">
        <ele>254.91446</ele>
        <time>2023-12-07T13:58:00.000Z</time>
      </trkpt>
      <trkpt lat="45.90862" lon="4.58814">
        <ele>255.27695</ele>
        <time>2023-12-07T13:58:01.000Z</time>
      </trkpt>
      <trkpt lat="45.90866" lon="4.58816">
        <ele>255.63301</ele>
        <time>2023-12-07T13:58:02.000Z</time>
      </trkpt>
      <trkpt lat="45.9087" lon="4.5882">
        <ele>255.96651</ele>
        <time>2023-12-07T13:58:03.000Z</time>
      </trkpt>
      <trkpt lat="45.90874" lon="4.58822">
        <ele>256.29965</ele>
        <time>2023-12-07T13:58:04.000Z</time>
      </trkpt>
      <trkpt lat="45.90878" lon="4.58824">
        <ele>256.61371</ele>
        <time>2023-12-07T13:58:05.000Z</time>
      </trkpt>
      <trkpt lat="45.90882" lon="4.58827">
        <ele>256.88068</ele>
        <time>2023-12-07T13:58:06.000Z</time>
      </trkpt>
      <trkpt lat="45.90887" lon="4.58829">
        <ele>257.17484</ele>
        <time>2023-12-07T13:58:07.000Z</time>
      </trkpt>
      <trkpt lat="45.9089" lon="4.58831">
        <ele>257.38828</ele>
        <time>2023-12-07T13:58:08.000Z</time>
      </trkpt>
      <trkpt lat="45.90893" lon="4.58835">
        <ele>257.55835</ele>
        <time>2023-12-07T13:58:09.000Z</time>
      </trkpt>
      <trkpt lat="45.90896" lon="4.58838">
        <ele>257.6561</ele>
        <time>2023-12-07T13:58:10.000Z</time>
      </trkpt>
      <trkpt lat="45.90899" lon="4.58841">
        <ele>257.62012</ele>
        <time>2023-12-07T13:58:11.000Z</time>
      </trkpt>
      <trkpt lat="45.90903" lon="4.58844">
        <ele>257.52466</ele>
        <time>2023-12-07T13:58:12.000Z</time>
      </trkpt>
      <trkpt lat="45.90907" lon="4.58847">
        <ele>257.42706</ele>
        <time>2023-12-07T13:58:13.000Z</time>
      </trkpt>
      <trkpt lat="45.9091" lon="4.58851">
        <ele>257.43231</ele>
        <time>2023-12-07T13:58:14.000Z</time>
      </trkpt>
      <trkpt lat="45.90914" lon="4.58855">
        <ele>257.39722</ele>
        <time>2023-12-07T13:58:15.000Z</time>
      </trkpt>
      <trkpt lat="45.90918" lon="4.5886">
        <ele>257.35236</ele>
        <time>2023-12-07T13:58:16.000Z</time>
      </trkpt>
      <trkpt lat="45.90922" lon="4.58864">
        <ele>257.29398</ele>
        <time>2023-12-07T13:58:17.000Z</time>
      </trkpt>
      <trkpt lat="45.90926" lon="4.58868">
        <ele>257.17694</ele>
        <time>2023-12-07T13:58:18.000Z</time>
      </trkpt>
      <trkpt lat="45.9093" lon="4.58871">
        <ele>257.10992</ele>
        <time>2023-12-07T13:58:19.000Z</time>
      </trkpt>
      <trkpt lat="45.90934" lon="4.58872">
        <ele>256.99838</ele>
        <time>2023-12-07T13:58:20.000Z</time>
      </trkpt>
      <trkpt lat="45.90938" lon="4.58877">
        <ele>256.8447</ele>
        <time>2023-12-07T13:58:21.000Z</time>
      </trkpt>
      <trkpt lat="45.90942" lon="4.58882">
        <ele>256.91986</ele>
        <time>2023-12-07T13:58:22.000Z</time>
      </trkpt>
      <trkpt lat="45.90945" lon="4.58885">
        <ele>256.97629</ele>
        <time>2023-12-07T13:58:23.000Z</time>
      </trkpt>
      <trkpt lat="45.90948" lon="4.58888">
        <ele>257.03906</ele>
        <time>2023-12-07T13:58:24.000Z</time>
      </trkpt>
      <trkpt lat="45.90951" lon="4.58893">
        <ele>257.13721</ele>
        <time>2023-12-07T13:58:25.000Z</time>
      </trkpt>
      <trkpt lat="45.90954" lon="4.58897">
        <ele>257.26154</ele>
        <time>2023-12-07T13:58:26.000Z</time>
      </trkpt>
      <trkpt lat="45.90957" lon="4.58902">
        <ele>257.35724</ele>
        <time>2023-12-07T13:58:27.000Z</time>
      </trkpt>
      <trkpt lat="45.9096" lon="4.58905">
        <ele>257.4588</ele>
        <time>2023-12-07T13:58:28.000Z</time>
      </trkpt>
      <trkpt lat="45.90964" lon="4.58909">
        <ele>257.63483</ele>
        <time>2023-12-07T13:58:29.000Z</time>
      </trkpt>
      <trkpt lat="45.90967" lon="4.58914">
        <ele>257.76898</ele>
        <time>2023-12-07T13:58:30.000Z</time>
      </trkpt>
      <trkpt lat="45.90971" lon="4.58918">
        <ele>257.93536</ele>
        <time>2023-12-07T13:58:31.000Z</time>
      </trkpt>
      <trkpt lat="45.90976" lon="4.58923">
        <ele>258.09674</ele>
        <time>2023-12-07T13:58:32.000Z</time>
      </trkpt>
      <trkpt lat="45.90979" lon="4.58926">
        <ele>258.25171</ele>
        <time>2023-12-07T13:58:33.000Z</time>
      </trkpt>
      <trkpt lat="45.90983" lon="4.58929">
        <ele>258.37253</ele>
        <time>2023-12-07T13:58:34.000Z</time>
      </trkpt>
      <trkpt lat="45.90986" lon="4.5893">
        <ele>258.48456</ele>
        <time>2023-12-07T13:58:35.000Z</time>
      </trkpt>
      <trkpt lat="45.9099" lon="4.58931">
        <ele>258.53784</ele>
        <time>2023-12-07T13:58:36.000Z</time>
      </trkpt>
      <trkpt lat="45.90993" lon="4.58937">
        <ele>258.51923</ele>
        <time>2023-12-07T13:58:37.000Z</time>
      </trkpt>
      <trkpt lat="45.90996" lon="4.5894">
        <ele>258.54312</ele>
        <time>2023-12-07T13:58:38.000Z</time>
      </trkpt>
      <trkpt lat="45.91001" lon="4.58941">
        <ele>258.47977</ele>
        <time>2023-12-07T13:58:39.000Z</time>
      </trkpt>
      <trkpt lat="45.91005" lon="4.58943">
        <ele>258.39154</ele>
        <time>2023-12-07T13:58:40.000Z</time>
      </trkpt>
      <trkpt lat="45.91009" lon="4.58945">
        <ele>258.33646</ele>
        <time>2023-12-07T13:58:41.000Z</time>
      </trkpt>
      <trkpt lat="45.91013" lon="4.58948">
        <ele>258.33185</ele>
        <time>2023-12-07T13:58:42.000Z</time>
      </trkpt>
      <trkpt lat="45.91017" lon="4.58949">
        <ele>258.32614</ele>
        <time>2023-12-07T13:58:43.000Z</time>
      </trkpt>
      <trkpt lat="45.91021" lon="4.58948">
        <ele>258.32086</ele>
        <time>2023-12-07T13:58:44.000Z</time>
      </trkpt>
      <trkpt lat="45.91025" lon="4.58948">
        <ele>258.32095</ele>
        <time>2023-12-07T13:58:45.000Z</time>
      </trkpt>
      <trkpt lat="45.91029" lon="4.58948">
        <ele>258.30582</ele>
        <time>2023-12-07T13:58:46.000Z</time>
      </trkpt>
      <trkpt lat="45.91034" lon="4.58949">
        <ele>258.26086</ele>
        <time>2023-12-07T13:58:47.000Z</time>
      </trkpt>
      <trkpt lat="45.91039" lon="4.58949">
        <ele>258.32358</ele>
        <time>2023-12-07T13:58:48.000Z</time>
      </trkpt>
      <trkpt lat="45.91043" lon="4.58951">
        <ele>258.33636</ele>
        <time>2023-12-07T13:58:49.000Z</time>
      </trkpt>
      <trkpt lat="45.91049" lon="4.5895">
        <ele>258.37869</ele>
        <time>2023-12-07T13:58:50.000Z</time>
      </trkpt>
      <trkpt lat="45.91052" lon="4.58951">
        <ele>258.38992</ele>
        <time>2023-12-07T13:58:51.000Z</time>
      </trkpt>
      <trkpt lat="45.91057" lon="4.58951">
        <ele>258.42508</ele>
        <time>2023-12-07T13:58:52.000Z</time>
      </trkpt>
      <trkpt lat="45.9106" lon="4.58951">
        <ele>258.53732</ele>
        <time>2023-12-07T13:58:53.000Z</time>
      </trkpt>
      <trkpt lat="45.91063" lon="4.58952">
        <ele>258.62814</ele>
        <time>2023-12-07T13:58:54.000Z</time>
      </trkpt>
      <trkpt lat="45.91069" lon="4.58954">
        <ele>258.72906</ele>
        <time>2023-12-07T13:58:55.000Z</time>
      </trkpt>
      <trkpt lat="45.91074" lon="4.58952">
        <ele>258.8526</ele>
        <time>2023-12-07T13:58:57.000Z</time>
      </trkpt>
      <trkpt lat="45.91077" lon="4.58951">
        <ele>258.89325</ele>
        <time>2023-12-07T13:58:58.000Z</time>
      </trkpt>
      <trkpt lat="45.91081" lon="4.58952">
        <ele>258.83829</ele>
        <time>2023-12-07T13:58:59.000Z</time>
      </trkpt>
      <trkpt lat="45.91086" lon="4.58953">
        <ele>258.93024</ele>
        <time>2023-12-07T13:59:00.000Z</time>
      </trkpt>
      <trkpt lat="45.9109" lon="4.58953">
        <ele>259.11691</ele>
        <time>2023-12-07T13:59:01.000Z</time>
      </trkpt>
      <trkpt lat="45.91094" lon="4.58954">
        <ele>259.24051</ele>
        <time>2023-12-07T13:59:02.000Z</time>
      </trkpt>
      <trkpt lat="45.91097" lon="4.58956">
        <ele>259.37268</ele>
        <time>2023-12-07T13:59:03.000Z</time>
      </trkpt>
      <trkpt lat="45.91101" lon="4.58958">
        <ele>259.38217</ele>
        <time>2023-12-07T13:59:04.000Z</time>
      </trkpt>
      <trkpt lat="45.91105" lon="4.5896">
        <ele>259.4313</ele>
        <time>2023-12-07T13:59:05.000Z</time>
      </trkpt>
      <trkpt lat="45.91109" lon="4.58962">
        <ele>259.34824</ele>
        <time>2023-12-07T13:59:06.000Z</time>
      </trkpt>
      <trkpt lat="45.91113" lon="4.58964">
        <ele>259.23822</ele>
        <time>2023-12-07T13:59:07.000Z</time>
      </trkpt>
      <trkpt lat="45.91117" lon="4.58965">
        <ele>259.22784</ele>
        <time>2023-12-07T13:59:08.000Z</time>
      </trkpt>
      <trkpt lat="45.91121" lon="4.58967">
        <ele>259.19269</ele>
        <time>2023-12-07T13:59:09.000Z</time>
      </trkpt>
      <trkpt lat="45.91124" lon="4.58969">
        <ele>259.07098</ele>
        <time>2023-12-07T13:59:10.000Z</time>
      </trkpt>
      <trkpt lat="45.91128" lon="4.5897">
        <ele>258.88132</ele>
        <time>2023-12-07T13:59:11.000Z</time>
      </trkpt>
      <trkpt lat="45.91132" lon="4.58972">
        <ele>258.94107</ele>
        <time>2023-12-07T13:59:12.000Z</time>
      </trkpt>
      <trkpt lat="45.91136" lon="4.58975">
        <ele>258.86566</ele>
        <time>2023-12-07T13:59:13.000Z</time>
      </trkpt>
      <trkpt lat="45.91141" lon="4.58977">
        <ele>258.60898</ele>
        <time>2023-12-07T13:59:14.000Z</time>
      </trkpt>
      <trkpt lat="45.91144" lon="4.58979">
        <ele>258.31961</ele>
        <time>2023-12-07T13:59:15.000Z</time>
      </trkpt>
      <trkpt lat="45.91148" lon="4.58981">
        <ele>258.07007</ele>
        <time>2023-12-07T13:59:16.000Z</time>
      </trkpt>
      <trkpt lat="45.91152" lon="4.58983">
        <ele>257.86325</ele>
        <time>2023-12-07T13:59:17.000Z</time>
      </trkpt>
      <trkpt lat="45.91157" lon="4.58985">
        <ele>257.84125</ele>
        <time>2023-12-07T13:59:18.000Z</time>
      </trkpt>
      <trkpt lat="45.9116" lon="4.58986">
        <ele>258.00677</ele>
        <time>2023-12-07T13:59:19.000Z</time>
      </trkpt>
      <trkpt lat="45.91163" lon="4.58987">
        <ele>258.09146</ele>
        <time>2023-12-07T13:59:20.000Z</time>
      </trkpt>
      <trkpt lat="45.91166" lon="4.58987">
        <ele>258.09891</ele>
        <time>2023-12-07T13:59:21.000Z</time>
      </trkpt>
      <trkpt lat="45.91169" lon="4.58988">
        <ele>258.25891</ele>
        <time>2023-12-07T13:59:22.000Z</time>
      </trkpt>
      <trkpt lat="45.91171" lon="4.58988">
        <ele>258.40863</ele>
        <time>2023-12-07T13:59:23.000Z</time>
      </trkpt>
      <trkpt lat="45.91174" lon="4.58987">
        <ele>258.62848</ele>
        <time>2023-12-07T13:59:25.000Z</time>
      </trkpt>
      <trkpt lat="45.91176" lon="4.58985">
        <ele>258.56436</ele>
        <time>2023-12-07T13:59:28.000Z</time>
      </trkpt>
      <trkpt lat="45.91178" lon="4.58984">
        <ele>258.91666</ele>
        <time>2023-12-07T14:00:25.000Z</time>
      </trkpt>
      <trkpt lat="45.91179" lon="4.58982">
        <ele>259.23886</ele>
        <time>2023-12-07T14:00:27.000Z</time>
      </trkpt>
      <trkpt lat="45.91177" lon="4.58978">
        <ele>259.44766</ele>
        <time>2023-12-07T14:00:29.000Z</time>
      </trkpt>
      <trkpt lat="45.91173" lon="4.58976">
        <ele>259.58746</ele>
        <time>2023-12-07T14:00:30.000Z</time>
      </trkpt>
      <trkpt lat="45.91167" lon="4.58975">
        <ele>259.81622</ele>
        <time>2023-12-07T14:00:31.000Z</time>
      </trkpt>
      <trkpt lat="45.91164" lon="4.58973">
        <ele>260.12531</ele>
        <time>2023-12-07T14:00:32.000Z</time>
      </trkpt>
      <trkpt lat="45.91161" lon="4.58972">
        <ele>260.19492</ele>
        <time>2023-12-07T14:00:33.000Z</time>
      </trkpt>
      <trkpt lat="45.91159" lon="4.5897">
        <ele>260.21124</ele>
        <time>2023-12-07T14:00:34.000Z</time>
      </trkpt>
      <trkpt lat="45.91157" lon="4.58967">
        <ele>260.29156</ele>
        <time>2023-12-07T14:00:35.000Z</time>
      </trkpt>
      <trkpt lat="45.91154" lon="4.58963">
        <ele>260.46597</ele>
        <time>2023-12-07T14:00:36.000Z</time>
      </trkpt>
      <trkpt lat="45.91151" lon="4.58961">
        <ele>260.64456</ele>
        <time>2023-12-07T14:00:37.000Z</time>
      </trkpt>
      <trkpt lat="45.91148" lon="4.58958">
        <ele>260.85089</ele>
        <time>2023-12-07T14:00:38.000Z</time>
      </trkpt>
      <trkpt lat="45.91144" lon="4.58955">
        <ele>261.03461</ele>
        <time>2023-12-07T14:00:39.000Z</time>
      </trkpt>
      <trkpt lat="45.91141" lon="4.58952">
        <ele>261.13004</ele>
        <time>2023-12-07T14:00:40.000Z</time>
      </trkpt>
      <trkpt lat="45.91137" lon="4.5895">
        <ele>261.2388</ele>
        <time>2023-12-07T14:00:41.000Z</time>
      </trkpt>
      <trkpt lat="45.91134" lon="4.58947">
        <ele>261.43073</ele>
        <time>2023-12-07T14:00:42.000Z</time>
      </trkpt>
      <trkpt lat="45.9113" lon="4.58944">
        <ele>261.49728</ele>
        <time>2023-12-07T14:00:43.000Z</time>
      </trkpt>
      <trkpt lat="45.91127" lon="4.58941">
        <ele>261.27841</ele>
        <time>2023-12-07T14:00:44.000Z</time>
      </trkpt>
      <trkpt lat="45.91125" lon="4.58937">
        <ele>261.24536</ele>
        <time>2023-12-07T14:00:45.000Z</time>
      </trkpt>
      <trkpt lat="45.91122" lon="4.58934">
        <ele>261.34644</ele>
        <time>2023-12-07T14:00:46.000Z</time>
      </trkpt>
      <trkpt lat="45.91119" lon="4.5893">
        <ele>261.44745</ele>
        <time>2023-12-07T14:00:47.000Z</time>
      </trkpt>
      <trkpt lat="45.91117" lon="4.58927">
        <ele>261.47931</ele>
        <time>2023-12-07T14:00:48.000Z</time>
      </trkpt>
      <trkpt lat="45.91114" lon="4.58924">
        <ele>261.46356</ele>
        <time>2023-12-07T14:00:49.000Z</time>
      </trkpt>
      <trkpt lat="45.91112" lon="4.58921">
        <ele>261.48575</ele>
        <time>2023-12-07T14:00:50.000Z</time>
      </trkpt>
      <trkpt lat="45.9111" lon="4.58918">
        <ele>261.49463</ele>
        <time>2023-12-07T14:00:51.000Z</time>
      </trkpt>
      <trkpt lat="45.91107" lon="4.58915">
        <ele>261.47955</ele>
        <time>2023-12-07T14:00:52.000Z</time>
      </trkpt>
      <trkpt lat="45.91105" lon="4.58912">
        <ele>261.44635</ele>
        <time>2023-12-07T14:00:53.000Z</time>
      </trkpt>
      <trkpt lat="45.91104" lon="4.58909">
        <ele>261.62573</ele>
        <time>2023-12-07T14:00:54.000Z</time>
      </trkpt>
      <trkpt lat="45.91101" lon="4.58905">
        <ele>261.81085</ele>
        <time>2023-12-07T14:00:55.000Z</time>
      </trkpt>
      <trkpt lat="45.91098" lon="4.58901">
        <ele>261.9501</ele>
        <time>2023-12-07T14:00:56.000Z</time>
      </trkpt>
      <trkpt lat="45.91096" lon="4.58898">
        <ele>262.07477</ele>
        <time>2023-12-07T14:00:57.000Z</time>
      </trkpt>
      <trkpt lat="45.91093" lon="4.58894">
        <ele>262.03964</ele>
        <time>2023-12-07T14:00:58.000Z</time>
      </trkpt>
      <trkpt lat="45.9109" lon="4.5889">
        <ele>262.08401</ele>
        <time>2023-12-07T14:00:59.000Z</time>
      </trkpt>
      <trkpt lat="45.91087" lon="4.58886">
        <ele>262.20172</ele>
        <time>2023-12-07T14:01:00.000Z</time>
      </trkpt>
      <trkpt lat="45.91084" lon="4.58882">
        <ele>262.39758</ele>
        <time>2023-12-07T14:01:01.000Z</time>
      </trkpt>
      <trkpt lat="45.91081" lon="4.58879">
        <ele>262.48358</ele>
        <time>2023-12-07T14:01:02.000Z</time>
      </trkpt>
      <trkpt lat="45.91079" lon="4.58875">
        <ele>263.02911</ele>
        <time>2023-12-07T14:01:03.000Z</time>
      </trkpt>
      <trkpt lat="45.91076" lon="4.58872">
        <ele>263.6109</ele>
        <time>2023-12-07T14:01:04.000Z</time>
      </trkpt>
      <trkpt lat="45.91073" lon="4.58869">
        <ele>264.05713</ele>
        <time>2023-12-07T14:01:05.000Z</time>
      </trkpt>
      <trkpt lat="45.9107" lon="4.58866">
        <ele>264.68146</ele>
        <time>2023-12-07T14:01:06.000Z</time>
      </trkpt>
      <trkpt lat="45.91067" lon="4.58863">
        <ele>264.96402</ele>
        <time>2023-12-07T14:01:07.000Z</time>
      </trkpt>
      <trkpt lat="45.91065" lon="4.5886">
        <ele>265.37457</ele>
        <time>2023-12-07T14:01:08.000Z</time>
      </trkpt>
      <trkpt lat="45.91062" lon="4.58856">
        <ele>265.89417</ele>
        <time>2023-12-07T14:01:09.000Z</time>
      </trkpt>
      <trkpt lat="45.9106" lon="4.58852">
        <ele>266.39764</ele>
        <time>2023-12-07T14:01:10.000Z</time>
      </trkpt>
      <trkpt lat="45.91057" lon="4.58849">
        <ele>266.97421</ele>
        <time>2023-12-07T14:01:11.000Z</time>
      </trkpt>
      <trkpt lat="45.91054" lon="4.58845">
        <ele>267.5694</ele>
        <time>2023-12-07T14:01:12.000Z</time>
      </trkpt>
      <trkpt lat="45.91052" lon="4.58842">
        <ele>268.22476</ele>
        <time>2023-12-07T14:01:13.000Z</time>
      </trkpt>
      <trkpt lat="45.91049" lon="4.58838">
        <ele>268.82629</ele>
        <time>2023-12-07T14:01:14.000Z</time>
      </trkpt>
      <trkpt lat="45.91046" lon="4.58835">
        <ele>269.49146</ele>
        <time>2023-12-07T14:01:15.000Z</time>
      </trkpt>
      <trkpt lat="45.91044" lon="4.58832">
        <ele>270.20468</ele>
        <time>2023-12-07T14:01:16.000Z</time>
      </trkpt>
      <trkpt lat="45.91041" lon="4.58829">
        <ele>270.89343</ele>
        <time>2023-12-07T14:01:17.000Z</time>
      </trkpt>
      <trkpt lat="45.91038" lon="4.58826">
        <ele>271.71823</ele>
        <time>2023-12-07T14:01:18.000Z</time>
      </trkpt>
      <trkpt lat="45.91035" lon="4.58823">
        <ele>272.50903</ele>
        <time>2023-12-07T14:01:19.000Z</time>
      </trkpt>
      <trkpt lat="45.91032" lon="4.58819">
        <ele>273.18036</ele>
        <time>2023-12-07T14:01:20.000Z</time>
      </trkpt>
      <trkpt lat="45.91029" lon="4.58816">
        <ele>273.68637</ele>
        <time>2023-12-07T14:01:21.000Z</time>
      </trkpt>
      <trkpt lat="45.91027" lon="4.58813">
        <ele>274.33591</ele>
        <time>2023-12-07T14:01:22.000Z</time>
      </trkpt>
      <trkpt lat="45.91024" lon="4.58809">
        <ele>274.60391</ele>
        <time>2023-12-07T14:01:23.000Z</time>
      </trkpt>
      <trkpt lat="45.91021" lon="4.58806">
        <ele>274.91324</ele>
        <time>2023-12-07T14:01:24.000Z</time>
      </trkpt>
      <trkpt lat="45.91019" lon="4.58802">
        <ele>275.28146</ele>
        <time>2023-12-07T14:01:25.000Z</time>
      </trkpt>
      <trkpt lat="45.91016" lon="4.58798">
        <ele>275.59262</ele>
        <time>2023-12-07T14:01:26.000Z</time>
      </trkpt>
      <trkpt lat="45.91013" lon="4.58795">
        <ele>275.9425</ele>
        <time>2023-12-07T14:01:27.000Z</time>
      </trkpt>
      <trkpt lat="45.91011" lon="4.58791">
        <ele>275.99475</ele>
        <time>2023-12-07T14:01:28.000Z</time>
      </trkpt>
      <trkpt lat="45.91008" lon="4.58788">
        <ele>276.02246</ele>
        <time>2023-12-07T14:01:29.000Z</time>
      </trkpt>
      <trkpt lat="45.91005" lon="4.58784">
        <ele>276.05316</ele>
        <time>2023-12-07T14:01:30.000Z</time>
      </trkpt>
      <trkpt lat="45.91003" lon="4.58781">
        <ele>276.46494</ele>
        <time>2023-12-07T14:01:31.000Z</time>
      </trkpt>
      <trkpt lat="45.91" lon="4.58777">
        <ele>276.78848</ele>
        <time>2023-12-07T14:01:32.000Z</time>
      </trkpt>
      <trkpt lat="45.90997" lon="4.58774">
        <ele>277.10535</ele>
        <time>2023-12-07T14:01:33.000Z</time>
      </trkpt>
      <trkpt lat="45.90994" lon="4.58771">
        <ele>277.44818</ele>
        <time>2023-12-07T14:01:34.000Z</time>
      </trkpt>
      <trkpt lat="45.90992" lon="4.58768">
        <ele>277.73557</ele>
        <time>2023-12-07T14:01:35.000Z</time>
      </trkpt>
      <trkpt lat="45.90989" lon="4.58765">
        <ele>277.97382</ele>
        <time>2023-12-07T14:01:36.000Z</time>
      </trkpt>
      <trkpt lat="45.90986" lon="4.58762">
        <ele>278.26151</ele>
        <time>2023-12-07T14:01:37.000Z</time>
      </trkpt>
      <trkpt lat="45.90983" lon="4.58759">
        <ele>278.34116</ele>
        <time>2023-12-07T14:01:38.000Z</time>
      </trkpt>
      <trkpt lat="45.9098" lon="4.58756">
        <ele>278.37619</ele>
        <time>2023-12-07T14:01:39.000Z</time>
      </trkpt>
      <trkpt lat="45.90977" lon="4.58753">
        <ele>278.4527</ele>
        <time>2023-12-07T14:01:40.000Z</time>
      </trkpt>
      <trkpt lat="45.90974" lon="4.58749">
        <ele>278.60626</ele>
        <time>2023-12-07T14:01:41.000Z</time>
      </trkpt>
      <trkpt lat="45.90971" lon="4.58746">
        <ele>278.54498</ele>
        <time>2023-12-07T14:01:42.000Z</time>
      </trkpt>
      <trkpt lat="45.90969" lon="4.58742">
        <ele>278.89896</ele>
        <time>2023-12-07T14:01:43.000Z</time>
      </trkpt>
      <trkpt lat="45.90966" lon="4.58739">
        <ele>279.13812</ele>
        <time>2023-12-07T14:01:44.000Z</time>
      </trkpt>
      <trkpt lat="45.90963" lon="4.58736">
        <ele>279.29913</ele>
        <time>2023-12-07T14:01:45.000Z</time>
      </trkpt>
      <trkpt lat="45.9096" lon="4.58732">
        <ele>279.44894</ele>
        <time>2023-12-07T14:01:46.000Z</time>
      </trkpt>
      <trkpt lat="45.90958" lon="4.58729">
        <ele>279.62128</ele>
        <time>2023-12-07T14:01:47.000Z</time>
      </trkpt>
      <trkpt lat="45.90955" lon="4.58726">
        <ele>280.09335</ele>
        <time>2023-12-07T14:01:48.000Z</time>
      </trkpt>
      <trkpt lat="45.90953" lon="4.58723">
        <ele>280.59235</ele>
        <time>2023-12-07T14:01:49.000Z</time>
      </trkpt>
      <trkpt lat="45.90951" lon="4.5872">
        <ele>281.0451</ele>
        <time>2023-12-07T14:01:50.000Z</time>
      </trkpt>
      <trkpt lat="45.90949" lon="4.58717">
        <ele>281.03549</ele>
        <time>2023-12-07T14:01:51.000Z</time>
      </trkpt>
      <trkpt lat="45.90947" lon="4.58714">
        <ele>281.16058</ele>
        <time>2023-12-07T14:01:52.000Z</time>
      </trkpt>
      <trkpt lat="45.90945" lon="4.5871">
        <ele>281.1413</ele>
        <time>2023-12-07T14:01:53.000Z</time>
      </trkpt>
      <trkpt lat="45.90943" lon="4.58707">
        <ele>281.15286</ele>
        <time>2023-12-07T14:01:54.000Z</time>
      </trkpt>
      <trkpt lat="45.90941" lon="4.58703">
        <ele>281.21191</ele>
        <time>2023-12-07T14:01:55.000Z</time>
      </trkpt>
      <trkpt lat="45.9094" lon="4.58699">
        <ele>281.29041</ele>
        <time>2023-12-07T14:01:56.000Z</time>
      </trkpt>
      <trkpt lat="45.90938" lon="4.58695">
        <ele>281.34515</ele>
        <time>2023-12-07T14:01:57.000Z</time>
      </trkpt>
      <trkpt lat="45.90937" lon="4.58691">
        <ele>281.45636</ele>
        <time>2023-12-07T14:01:58.000Z</time>
      </trkpt>
      <trkpt lat="45.90936" lon="4.58687">
        <ele>281.48553</ele>
        <time>2023-12-07T14:01:59.000Z</time>
      </trkpt>
      <trkpt lat="45.90935" lon="4.58683">
        <ele>281.65686</ele>
        <time>2023-12-07T14:02:00.000Z</time>
      </trkpt>
      <trkpt lat="45.90934" lon="4.58678">
        <ele>281.84534</ele>
        <time>2023-12-07T14:02:01.000Z</time>
      </trkpt>
      <trkpt lat="45.90933" lon="4.58673">
        <ele>282.13443</ele>
        <time>2023-12-07T14:02:02.000Z</time>
      </trkpt>
      <trkpt lat="45.90932" lon="4.58668">
        <ele>281.97504</ele>
        <time>2023-12-07T14:02:03.000Z</time>
      </trkpt>
      <trkpt lat="45.90931" lon="4.58664">
        <ele>281.96124</ele>
        <time>2023-12-07T14:02:04.000Z</time>
      </trkpt>
      <trkpt lat="45.90929" lon="4.58659">
        <ele>282.02881</ele>
        <time>2023-12-07T14:02:05.000Z</time>
      </trkpt>
      <trkpt lat="45.90928" lon="4.58653">
        <ele>282.04129</ele>
        <time>2023-12-07T14:02:06.000Z</time>
      </trkpt>
      <trkpt lat="45.90927" lon="4.58648">
        <ele>281.95242</ele>
        <time>2023-12-07T14:02:07.000Z</time>
      </trkpt>
      <trkpt lat="45.90926" lon="4.58643">
        <ele>281.80795</ele>
        <time>2023-12-07T14:02:08.000Z</time>
      </trkpt>
      <trkpt lat="45.90926" lon="4.58638">
        <ele>281.71625</ele>
        <time>2023-12-07T14:02:09.000Z</time>
      </trkpt>
      <trkpt lat="45.90925" lon="4.58633">
        <ele>281.38794</ele>
        <time>2023-12-07T14:02:10.000Z</time>
      </trkpt>
      <trkpt lat="45.90924" lon="4.58628">
        <ele>280.97925</ele>
        <time>2023-12-07T14:02:11.000Z</time>
      </trkpt>
      <trkpt lat="45.90923" lon="4.58622">
        <ele>280.46899</ele>
        <time>2023-12-07T14:02:12.000Z</time>
      </trkpt>
      <trkpt lat="45.90922" lon="4.58617">
        <ele>280.61621</ele>
        <time>2023-12-07T14:02:13.000Z</time>
      </trkpt>
      <trkpt lat="45.90921" lon="4.58612">
        <ele>280.27094</ele>
        <time>2023-12-07T14:02:14.000Z</time>
      </trkpt>
      <trkpt lat="45.9092" lon="4.58607">
        <ele>280.13873</ele>
        <time>2023-12-07T14:02:15.000Z</time>
      </trkpt>
      <trkpt lat="45.90919" lon="4.58602">
        <ele>279.95688</ele>
        <time>2023-12-07T14:02:16.000Z</time>
      </trkpt>
      <trkpt lat="45.90919" lon="4.58598">
        <ele>279.74982</ele>
        <time>2023-12-07T14:02:17.000Z</time>
      </trkpt>
      <trkpt lat="45.90918" lon="4.58593">
        <ele>279.8129</ele>
        <time>2023-12-07T14:02:18.000Z</time>
      </trkpt>
      <trkpt lat="45.90918" lon="4.58588">
        <ele>279.46429</ele>
        <time>2023-12-07T14:02:19.000Z</time>
      </trkpt>
      <trkpt lat="45.90917" lon="4.58583">
        <ele>279.01178</ele>
        <time>2023-12-07T14:02:20.000Z</time>
      </trkpt>
      <trkpt lat="45.90917" lon="4.58579">
        <ele>278.87717</ele>
        <time>2023-12-07T14:02:21.000Z</time>
      </trkpt>
      <trkpt lat="45.90916" lon="4.58574">
        <ele>278.78058</ele>
        <time>2023-12-07T14:02:22.000Z</time>
      </trkpt>
      <trkpt lat="45.90916" lon="4.58569">
        <ele>278.66577</ele>
        <time>2023-12-07T14:02:23.000Z</time>
      </trkpt>
      <trkpt lat="45.90915" lon="4.58565">
        <ele>278.46045</ele>
        <time>2023-12-07T14:02:24.000Z</time>
      </trkpt>
      <trkpt lat="45.90915" lon="4.58561">
        <ele>278.18091</ele>
        <time>2023-12-07T14:02:25.000Z</time>
      </trkpt>
      <trkpt lat="45.90914" lon="4.58556">
        <ele>279.12531</ele>
        <time>2023-12-07T14:02:26.000Z</time>
      </trkpt>
      <trkpt lat="45.90914" lon="4.58552">
        <ele>280.13593</ele>
        <time>2023-12-07T14:02:27.000Z</time>
      </trkpt>
      <trkpt lat="45.90913" lon="4.58548">
        <ele>281.18658</ele>
        <time>2023-12-07T14:02:28.000Z</time>
      </trkpt>
      <trkpt lat="45.90912" lon="4.58545">
        <ele>282.17987</ele>
        <time>2023-12-07T14:02:29.000Z</time>
      </trkpt>
      <trkpt lat="45.90912" lon="4.58541">
        <ele>283.48288</ele>
        <time>2023-12-07T14:02:30.000Z</time>
      </trkpt>
      <trkpt lat="45.90911" lon="4.58538">
        <ele>284.90186</ele>
        <time>2023-12-07T14:02:31.000Z</time>
      </trkpt>
      <trkpt lat="45.9091" lon="4.58535">
        <ele>286.42133</ele>
        <time>2023-12-07T14:02:32.000Z</time>
      </trkpt>
      <trkpt lat="45.9091" lon="4.58531">
        <ele>287.3757</ele>
        <time>2023-12-07T14:02:33.000Z</time>
      </trkpt>
      <trkpt lat="45.9091" lon="4.58528">
        <ele>288.78961</ele>
        <time>2023-12-07T14:02:34.000Z</time>
      </trkpt>
      <trkpt lat="45.9091" lon="4.58525">
        <ele>289.98291</ele>
        <time>2023-12-07T14:02:35.000Z</time>
      </trkpt>
      <trkpt lat="45.90909" lon="4.58522">
        <ele>289.86624</ele>
        <time>2023-12-07T14:02:36.000Z</time>
      </trkpt>
      <trkpt lat="45.90909" lon="4.58519">
        <ele>290.15753</ele>
        <time>2023-12-07T14:02:37.000Z</time>
      </trkpt>
      <trkpt lat="45.90909" lon="4.58515">
        <ele>290.30646</ele>
        <time>2023-12-07T14:02:38.000Z</time>
      </trkpt>
      <trkpt lat="45.90909" lon="4.58512">
        <ele>290.57565</ele>
        <time>2023-12-07T14:02:39.000Z</time>
      </trkpt>
      <trkpt lat="45.90909" lon="4.58509">
        <ele>290.78073</ele>
        <time>2023-12-07T14:02:40.000Z</time>
      </trkpt>
      <trkpt lat="45.90908" lon="4.58506">
        <ele>290.58017</ele>
        <time>2023-12-07T14:02:41.000Z</time>
      </trkpt>
      <trkpt lat="45.90908" lon="4.58503">
        <ele>290.33246</ele>
        <time>2023-12-07T14:02:42.000Z</time>
      </trkpt>
      <trkpt lat="45.90908" lon="4.585">
        <ele>290.70074</ele>
        <time>2023-12-07T14:02:43.000Z</time>
      </trkpt>
      <trkpt lat="45.90908" lon="4.58498">
        <ele>291.0209</ele>
        <time>2023-12-07T14:02:44.000Z</time>
      </trkpt>
      <trkpt lat="45.90908" lon="4.58495">
        <ele>291.3399</ele>
        <time>2023-12-07T14:02:45.000Z</time>
      </trkpt>
      <trkpt lat="45.90908" lon="4.58492">
        <ele>290.39496</ele>
        <time>2023-12-07T14:02:46.000Z</time>
      </trkpt>
      <trkpt lat="45.90907" lon="4.58489">
        <ele>289.46469</ele>
        <time>2023-12-07T14:02:47.000Z</time>
      </trkpt>
      <trkpt lat="45.90907" lon="4.58486">
        <ele>288.57178</ele>
        <time>2023-12-07T14:02:48.000Z</time>
      </trkpt>
      <trkpt lat="45.90907" lon="4.58482">
        <ele>287.61212</ele>
        <time>2023-12-07T14:02:49.000Z</time>
      </trkpt>
      <trkpt lat="45.90907" lon="4.5848">
        <ele>286.19446</ele>
        <time>2023-12-07T14:02:51.000Z</time>
      </trkpt>
      <trkpt lat="45.90873" lon="4.58429">
        <ele>286.4588</ele>
        <time>2023-12-07T14:04:49.813Z</time>
      </trkpt>
      <trkpt lat="45.90878" lon="4.58432">
        <ele>284.69211</ele>
        <time>2023-12-07T14:04:52.000Z</time>
      </trkpt>
      <trkpt lat="45.9088" lon="4.58435">
        <ele>283.21231</ele>
        <time>2023-12-07T14:04:53.000Z</time>
      </trkpt>
      <trkpt lat="45.90882" lon="4.58437">
        <ele>281.86441</ele>
        <time>2023-12-07T14:04:54.000Z</time>
      </trkpt>
      <trkpt lat="45.90884" lon="4.58441">
        <ele>280.58051</ele>
        <time>2023-12-07T14:04:55.000Z</time>
      </trkpt>
      <trkpt lat="45.90886" lon="4.58445">
        <ele>280.76321</ele>
        <time>2023-12-07T14:04:56.000Z</time>
      </trkpt>
      <trkpt lat="45.90891" lon="4.58452">
        <ele>280.54465</ele>
        <time>2023-12-07T14:04:57.000Z</time>
      </trkpt>
      <trkpt lat="45.90893" lon="4.58456">
        <ele>280.49011</ele>
        <time>2023-12-07T14:04:58.000Z</time>
      </trkpt>
      <trkpt lat="45.90895" lon="4.58462">
        <ele>281.25577</ele>
        <time>2023-12-07T14:04:59.000Z</time>
      </trkpt>
      <trkpt lat="45.90899" lon="4.58465">
        <ele>281.89648</ele>
        <time>2023-12-07T14:05:00.000Z</time>
      </trkpt>
      <trkpt lat="45.90902" lon="4.58468">
        <ele>282.58862</ele>
        <time>2023-12-07T14:05:01.000Z</time>
      </trkpt>
      <trkpt lat="45.90906" lon="4.58469">
        <ele>283.37637</ele>
        <time>2023-12-07T14:05:02.000Z</time>
      </trkpt>
      <trkpt lat="45.9091" lon="4.58468">
        <ele>283.53833</ele>
        <time>2023-12-07T14:05:03.000Z</time>
      </trkpt>
      <trkpt lat="45.90915" lon="4.58468">
        <ele>283.79791</ele>
        <time>2023-12-07T14:05:04.000Z</time>
      </trkpt>
      <trkpt lat="45.9092" lon="4.58468">
        <ele>284.07346</ele>
        <time>2023-12-07T14:05:05.000Z</time>
      </trkpt>
      <trkpt lat="45.90924" lon="4.58469">
        <ele>284.47153</ele>
        <time>2023-12-07T14:05:06.000Z</time>
      </trkpt>
      <trkpt lat="45.90927" lon="4.58468">
        <ele>284.81512</ele>
        <time>2023-12-07T14:05:07.000Z</time>
      </trkpt>
      <trkpt lat="45.90931" lon="4.5847">
        <ele>285.12244</ele>
        <time>2023-12-07T14:05:08.000Z</time>
      </trkpt>
      <trkpt lat="45.90935" lon="4.58471">
        <ele>285.5155</ele>
        <time>2023-12-07T14:05:09.000Z</time>
      </trkpt>
      <trkpt lat="45.90939" lon="4.58473">
        <ele>286.3266</ele>
        <time>2023-12-07T14:05:10.000Z</time>
      </trkpt>
      <trkpt lat="45.90944" lon="4.58472">
        <ele>285.40982</ele>
        <time>2023-12-07T14:05:11.000Z</time>
      </trkpt>
      <trkpt lat="45.90946" lon="4.58472">
        <ele>286.46945</ele>
        <time>2023-12-07T14:05:12.000Z</time>
      </trkpt>
      <trkpt lat="45.90951" lon="4.58473">
        <ele>287.3299</ele>
        <time>2023-12-07T14:05:13.000Z</time>
      </trkpt>
      <trkpt lat="45.90955" lon="4.58475">
        <ele>288.02362</ele>
        <time>2023-12-07T14:05:14.000Z</time>
      </trkpt>
      <trkpt lat="45.9096" lon="4.58475">
        <ele>288.67926</ele>
        <time>2023-12-07T14:05:15.000Z</time>
      </trkpt>
      <trkpt lat="45.90964" lon="4.58476">
        <ele>289.22098</ele>
        <time>2023-12-07T14:05:16.000Z</time>
      </trkpt>
      <trkpt lat="45.90969" lon="4.58477">
        <ele>289.76724</ele>
        <time>2023-12-07T14:05:17.000Z</time>
      </trkpt>
      <trkpt lat="45.90972" lon="4.58475">
        <ele>290.18066</ele>
        <time>2023-12-07T14:05:18.000Z</time>
      </trkpt>
      <trkpt lat="45.90976" lon="4.58475">
        <ele>290.17761</ele>
        <time>2023-12-07T14:05:19.000Z</time>
      </trkpt>
      <trkpt lat="45.9098" lon="4.58473">
        <ele>290.12384</ele>
        <time>2023-12-07T14:05:20.000Z</time>
      </trkpt>
      <trkpt lat="45.90984" lon="4.58471">
        <ele>290.13422</ele>
        <time>2023-12-07T14:05:21.000Z</time>
      </trkpt>
      <trkpt lat="45.90988" lon="4.58469">
        <ele>290.11542</ele>
        <time>2023-12-07T14:05:22.000Z</time>
      </trkpt>
      <trkpt lat="45.90991" lon="4.58467">
        <ele>290.15131</ele>
        <time>2023-12-07T14:05:23.000Z</time>
      </trkpt>
      <trkpt lat="45.90994" lon="4.58465">
        <ele>290.185</ele>
        <time>2023-12-07T14:05:24.000Z</time>
      </trkpt>
      <trkpt lat="45.90997" lon="4.58463">
        <ele>290.2326</ele>
        <time>2023-12-07T14:05:25.000Z</time>
      </trkpt>
      <trkpt lat="45.91001" lon="4.58461">
        <ele>290.25497</ele>
        <time>2023-12-07T14:05:26.000Z</time>
      </trkpt>
      <trkpt lat="45.91004" lon="4.58459">
        <ele>290.32928</ele>
        <time>2023-12-07T14:05:27.000Z</time>
      </trkpt>
      <trkpt lat="45.91007" lon="4.58457">
        <ele>290.38721</ele>
        <time>2023-12-07T14:05:28.000Z</time>
      </trkpt>
      <trkpt lat="45.9101" lon="4.58455">
        <ele>290.42316</ele>
        <time>2023-12-07T14:05:29.000Z</time>
      </trkpt>
      <trkpt lat="45.91013" lon="4.58452">
        <ele>290.53021</ele>
        <time>2023-12-07T14:05:30.000Z</time>
      </trkpt>
      <trkpt lat="45.91016" lon="4.5845">
        <ele>290.66293</ele>
        <time>2023-12-07T14:05:31.000Z</time>
      </trkpt>
      <trkpt lat="45.91019" lon="4.58447">
        <ele>290.8847</ele>
        <time>2023-12-07T14:05:32.000Z</time>
      </trkpt>
      <trkpt lat="45.91022" lon="4.58444">
        <ele>290.91974</ele>
        <time>2023-12-07T14:05:33.000Z</time>
      </trkpt>
      <trkpt lat="45.91024" lon="4.58441">
        <ele>291.16727</ele>
        <time>2023-12-07T14:05:34.000Z</time>
      </trkpt>
      <trkpt lat="45.91027" lon="4.58439">
        <ele>291.36932</ele>
        <time>2023-12-07T14:05:35.000Z</time>
      </trkpt>
      <trkpt lat="45.9103" lon="4.58438">
        <ele>291.59506</ele>
        <time>2023-12-07T14:05:36.000Z</time>
      </trkpt>
      <trkpt lat="45.91033" lon="4.58438">
        <ele>291.79282</ele>
        <time>2023-12-07T14:05:37.000Z</time>
      </trkpt>
      <trkpt lat="45.91036" lon="4.58437">
        <ele>291.82858</ele>
        <time>2023-12-07T14:05:38.000Z</time>
      </trkpt>
      <trkpt lat="45.9104" lon="4.58437">
        <ele>291.87527</ele>
        <time>2023-12-07T14:05:39.000Z</time>
      </trkpt>
      <trkpt lat="45.91044" lon="4.58436">
        <ele>292.14133</ele>
        <time>2023-12-07T14:05:40.000Z</time>
      </trkpt>
      <trkpt lat="45.91048" lon="4.58436">
        <ele>292.31754</ele>
        <time>2023-12-07T14:05:41.000Z</time>
      </trkpt>
      <trkpt lat="45.91052" lon="4.58436">
        <ele>292.50485</ele>
        <time>2023-12-07T14:05:42.000Z</time>
      </trkpt>
      <trkpt lat="45.91056" lon="4.58437">
        <ele>292.59955</ele>
        <time>2023-12-07T14:05:43.000Z</time>
      </trkpt>
      <trkpt lat="45.9106" lon="4.58437">
        <ele>292.65414</ele>
        <time>2023-12-07T14:05:44.000Z</time>
      </trkpt>
      <trkpt lat="45.91065" lon="4.58437">
        <ele>292.76297</ele>
        <time>2023-12-07T14:05:45.000Z</time>
      </trkpt>
      <trkpt lat="45.91069" lon="4.58438">
        <ele>292.89972</ele>
        <time>2023-12-07T14:05:46.000Z</time>
      </trkpt>
      <trkpt lat="45.91074" lon="4.58437">
        <ele>293.01581</ele>
        <time>2023-12-07T14:05:47.000Z</time>
      </trkpt>
      <trkpt lat="45.91078" lon="4.58437">
        <ele>293.14536</ele>
        <time>2023-12-07T14:05:48.000Z</time>
      </trkpt>
      <trkpt lat="45.91082" lon="4.58437">
        <ele>293.29291</ele>
        <time>2023-12-07T14:05:49.000Z</time>
      </trkpt>
      <trkpt lat="45.91086" lon="4.58437">
        <ele>293.34949</ele>
        <time>2023-12-07T14:05:50.000Z</time>
      </trkpt>
      <trkpt lat="45.91091" lon="4.58437">
        <ele>293.39767</ele>
        <time>2023-12-07T14:05:51.000Z</time>
      </trkpt>
      <trkpt lat="45.91095" lon="4.58436">
        <ele>293.41882</ele>
        <time>2023-12-07T14:05:52.000Z</time>
      </trkpt>
      <trkpt lat="45.91099" lon="4.58436">
        <ele>293.56067</ele>
        <time>2023-12-07T14:05:53.000Z</time>
      </trkpt>
      <trkpt lat="45.91104" lon="4.58435">
        <ele>293.49716</ele>
        <time>2023-12-07T14:05:54.000Z</time>
      </trkpt>
      <trkpt lat="45.91109" lon="4.58437">
        <ele>293.4231</ele>
        <time>2023-12-07T14:05:55.000Z</time>
      </trkpt>
      <trkpt lat="45.91113" lon="4.58436">
        <ele>293.33679</ele>
        <time>2023-12-07T14:05:56.000Z</time>
      </trkpt>
      <trkpt lat="45.91117" lon="4.58436">
        <ele>293.25485</ele>
        <time>2023-12-07T14:05:57.000Z</time>
      </trkpt>
      <trkpt lat="45.91122" lon="4.58436">
        <ele>293.32294</ele>
        <time>2023-12-07T14:05:58.000Z</time>
      </trkpt>
      <trkpt lat="45.91127" lon="4.58437">
        <ele>293.37103</ele>
        <time>2023-12-07T14:05:59.000Z</time>
      </trkpt>
      <trkpt lat="45.91131" lon="4.58437">
        <ele>293.42999</ele>
        <time>2023-12-07T14:06:00.000Z</time>
      </trkpt>
      <trkpt lat="45.91136" lon="4.58438">
        <ele>293.55469</ele>
        <time>2023-12-07T14:06:01.000Z</time>
      </trkpt>
      <trkpt lat="45.9114" lon="4.58438">
        <ele>293.67072</ele>
        <time>2023-12-07T14:06:02.000Z</time>
      </trkpt>
      <trkpt lat="45.91145" lon="4.58439">
        <ele>293.83838</ele>
        <time>2023-12-07T14:06:03.000Z</time>
      </trkpt>
      <trkpt lat="45.9115" lon="4.58438">
        <ele>294.00214</ele>
        <time>2023-12-07T14:06:04.000Z</time>
      </trkpt>
      <trkpt lat="45.91154" lon="4.58438">
        <ele>294.11087</ele>
        <time>2023-12-07T14:06:05.000Z</time>
      </trkpt>
      <trkpt lat="45.91159" lon="4.58437">
        <ele>294.1904</ele>
        <time>2023-12-07T14:06:06.000Z</time>
      </trkpt>
      <trkpt lat="45.91164" lon="4.58436">
        <ele>294.30914</ele>
        <time>2023-12-07T14:06:07.000Z</time>
      </trkpt>
      <trkpt lat="45.91168" lon="4.58435">
        <ele>294.45636</ele>
        <time>2023-12-07T14:06:08.000Z</time>
      </trkpt>
      <trkpt lat="45.91173" lon="4.58435">
        <ele>294.62158</ele>
        <time>2023-12-07T14:06:09.000Z</time>
      </trkpt>
      <trkpt lat="45.91177" lon="4.58434">
        <ele>294.76385</ele>
        <time>2023-12-07T14:06:10.000Z</time>
      </trkpt>
      <trkpt lat="45.91181" lon="4.58434">
        <ele>294.91644</ele>
        <time>2023-12-07T14:06:11.000Z</time>
      </trkpt>
      <trkpt lat="45.91186" lon="4.58434">
        <ele>295.11755</ele>
        <time>2023-12-07T14:06:12.000Z</time>
      </trkpt>
      <trkpt lat="45.91191" lon="4.58432">
        <ele>295.28549</ele>
        <time>2023-12-07T14:06:13.000Z</time>
      </trkpt>
      <trkpt lat="45.91195" lon="4.58429">
        <ele>295.49677</ele>
        <time>2023-12-07T14:06:14.000Z</time>
      </trkpt>
      <trkpt lat="45.912" lon="4.58428">
        <ele>295.7713</ele>
        <time>2023-12-07T14:06:15.000Z</time>
      </trkpt>
      <trkpt lat="45.91205" lon="4.58425">
        <ele>296.02063</ele>
        <time>2023-12-07T14:06:16.000Z</time>
      </trkpt>
      <trkpt lat="45.91209" lon="4.58423">
        <ele>296.28131</ele>
        <time>2023-12-07T14:06:17.000Z</time>
      </trkpt>
      <trkpt lat="45.91214" lon="4.58421">
        <ele>296.5224</ele>
        <time>2023-12-07T14:06:18.000Z</time>
      </trkpt>
      <trkpt lat="45.91219" lon="4.58418">
        <ele>296.72653</ele>
        <time>2023-12-07T14:06:19.000Z</time>
      </trkpt>
      <trkpt lat="45.91223" lon="4.58416">
        <ele>296.91144</ele>
        <time>2023-12-07T14:06:20.000Z</time>
      </trkpt>
      <trkpt lat="45.91227" lon="4.58414">
        <ele>296.97479</ele>
        <time>2023-12-07T14:06:21.000Z</time>
      </trkpt>
      <trkpt lat="45.91232" lon="4.58411">
        <ele>296.8913</ele>
        <time>2023-12-07T14:06:22.000Z</time>
      </trkpt>
      <trkpt lat="45.91236" lon="4.58409">
        <ele>296.80576</ele>
        <time>2023-12-07T14:06:23.000Z</time>
      </trkpt>
      <trkpt lat="45.91241" lon="4.58405">
        <ele>296.79041</ele>
        <time>2023-12-07T14:06:24.000Z</time>
      </trkpt>
      <trkpt lat="45.91245" lon="4.58403">
        <ele>296.76385</ele>
        <time>2023-12-07T14:06:25.000Z</time>
      </trkpt>
      <trkpt lat="45.91248" lon="4.58401">
        <ele>296.78879</ele>
        <time>2023-12-07T14:06:26.000Z</time>
      </trkpt>
      <trkpt lat="45.91253" lon="4.58398">
        <ele>296.77054</ele>
        <time>2023-12-07T14:06:27.000Z</time>
      </trkpt>
      <trkpt lat="45.91257" lon="4.58396">
        <ele>296.69073</ele>
        <time>2023-12-07T14:06:28.000Z</time>
      </trkpt>
      <trkpt lat="45.91261" lon="4.58394">
        <ele>296.45996</ele>
        <time>2023-12-07T14:06:29.000Z</time>
      </trkpt>
      <trkpt lat="45.91265" lon="4.58391">
        <ele>296.19208</ele>
        <time>2023-12-07T14:06:30.000Z</time>
      </trkpt>
      <trkpt lat="45.91269" lon="4.58389">
        <ele>295.90918</ele>
        <time>2023-12-07T14:06:31.000Z</time>
      </trkpt>
      <trkpt lat="45.91273" lon="4.58389">
        <ele>295.53516</ele>
        <time>2023-12-07T14:06:32.000Z</time>
      </trkpt>
      <trkpt lat="45.91276" lon="4.58387">
        <ele>294.72681</ele>
        <time>2023-12-07T14:06:33.000Z</time>
      </trkpt>
      <trkpt lat="45.91277" lon="4.58383">
        <ele>293.84064</ele>
        <time>2023-12-07T14:06:34.000Z</time>
      </trkpt>
      <trkpt lat="45.91278" lon="4.5838">
        <ele>292.88776</ele>
        <time>2023-12-07T14:06:35.000Z</time>
      </trkpt>
      <trkpt lat="45.91279" lon="4.58375">
        <ele>291.93832</ele>
        <time>2023-12-07T14:06:36.000Z</time>
      </trkpt>
      <trkpt lat="45.9128" lon="4.5837">
        <ele>291.70792</ele>
        <time>2023-12-07T14:06:37.000Z</time>
      </trkpt>
      <trkpt lat="45.91283" lon="4.58365">
        <ele>291.43948</ele>
        <time>2023-12-07T14:06:38.000Z</time>
      </trkpt>
      <trkpt lat="45.91285" lon="4.5836">
        <ele>291.20209</ele>
        <time>2023-12-07T14:06:39.000Z</time>
      </trkpt>
      <trkpt lat="45.91288" lon="4.58355">
        <ele>290.89349</ele>
        <time>2023-12-07T14:06:40.000Z</time>
      </trkpt>
      <trkpt lat="45.91292" lon="4.58351">
        <ele>290.75504</ele>
        <time>2023-12-07T14:06:41.000Z</time>
      </trkpt>
      <trkpt lat="45.91296" lon="4.58347">
        <ele>290.75873</ele>
        <time>2023-12-07T14:06:42.000Z</time>
      </trkpt>
      <trkpt lat="45.91301" lon="4.58345">
        <ele>290.25574</ele>
        <time>2023-12-07T14:06:43.000Z</time>
      </trkpt>
      <trkpt lat="45.91306" lon="4.58342">
        <ele>289.42621</ele>
        <time>2023-12-07T14:06:44.000Z</time>
      </trkpt>
      <trkpt lat="45.91311" lon="4.58342">
        <ele>289.50119</ele>
        <time>2023-12-07T14:06:45.000Z</time>
      </trkpt>
      <trkpt lat="45.91315" lon="4.58341">
        <ele>289.48636</ele>
        <time>2023-12-07T14:06:46.000Z</time>
      </trkpt>
      <trkpt lat="45.91318" lon="4.58338">
        <ele>289.5567</ele>
        <time>2023-12-07T14:06:47.000Z</time>
      </trkpt>
      <trkpt lat="45.91321" lon="4.58335">
        <ele>289.68472</ele>
        <time>2023-12-07T14:06:48.000Z</time>
      </trkpt>
      <trkpt lat="45.91325" lon="4.58333">
        <ele>289.95215</ele>
        <time>2023-12-07T14:06:49.000Z</time>
      </trkpt>
      <trkpt lat="45.91329" lon="4.58331">
        <ele>290.31476</ele>
        <time>2023-12-07T14:06:50.000Z</time>
      </trkpt>
      <trkpt lat="45.91333" lon="4.5833">
        <ele>290.65579</ele>
        <time>2023-12-07T14:06:51.000Z</time>
      </trkpt>
      <trkpt lat="45.91336" lon="4.58327">
        <ele>291.0275</ele>
        <time>2023-12-07T14:06:52.000Z</time>
      </trkpt>
      <trkpt lat="45.91339" lon="4.58323">
        <ele>291.87933</ele>
        <time>2023-12-07T14:06:53.000Z</time>
      </trkpt>
      <trkpt lat="45.91342" lon="4.5832">
        <ele>292.70496</ele>
        <time>2023-12-07T14:06:54.000Z</time>
      </trkpt>
      <trkpt lat="45.91345" lon="4.58319">
        <ele>293.54254</ele>
        <time>2023-12-07T14:06:55.000Z</time>
      </trkpt>
      <trkpt lat="45.91349" lon="4.58316">
        <ele>294.35199</ele>
        <time>2023-12-07T14:06:56.000Z</time>
      </trkpt>
      <trkpt lat="45.91352" lon="4.58313">
        <ele>294.47559</ele>
        <time>2023-12-07T14:06:57.000Z</time>
      </trkpt>
      <trkpt lat="45.91355" lon="4.58309">
        <ele>294.34515</ele>
        <time>2023-12-07T14:06:58.000Z</time>
      </trkpt>
      <trkpt lat="45.91358" lon="4.58308">
        <ele>294.25461</ele>
        <time>2023-12-07T14:06:59.000Z</time>
      </trkpt>
      <trkpt lat="45.91361" lon="4.58308">
        <ele>294.24811</ele>
        <time>2023-12-07T14:07:00.000Z</time>
      </trkpt>
      <trkpt lat="45.91363" lon="4.5831">
        <ele>294.17554</ele>
        <time>2023-12-07T14:07:01.000Z</time>
      </trkpt>
      <trkpt lat="45.91366" lon="4.58312">
        <ele>293.95917</ele>
        <time>2023-12-07T14:07:02.000Z</time>
      </trkpt>
      <trkpt lat="45.91369" lon="4.58314">
        <ele>294.25195</ele>
        <time>2023-12-07T14:07:03.000Z</time>
      </trkpt>
      <trkpt lat="45.91371" lon="4.58314">
        <ele>294.70868</ele>
        <time>2023-12-07T14:07:04.000Z</time>
      </trkpt>
      <trkpt lat="45.91374" lon="4.58314">
        <ele>294.96301</ele>
        <time>2023-12-07T14:07:05.000Z</time>
      </trkpt>
      <trkpt lat="45.91375" lon="4.58314">
        <ele>295.12787</ele>
        <time>2023-12-07T14:07:06.000Z</time>
      </trkpt>
      <trkpt lat="45.91377" lon="4.58313">
        <ele>295.21683</ele>
        <time>2023-12-07T14:07:07.000Z</time>
      </trkpt>
      <trkpt lat="45.91379" lon="4.58312">
        <ele>295.31125</ele>
        <time>2023-12-07T14:07:08.000Z</time>
      </trkpt>
      <trkpt lat="45.91381" lon="4.5831">
        <ele>295.39362</ele>
        <time>2023-12-07T14:07:09.000Z</time>
      </trkpt>
      <trkpt lat="45.91382" lon="4.58307">
        <ele>295.45331</ele>
        <time>2023-12-07T14:07:10.000Z</time>
      </trkpt>
      <trkpt lat="45.91383" lon="4.58304">
        <ele>295.54276</ele>
        <time>2023-12-07T14:07:11.000Z</time>
      </trkpt>
      <trkpt lat="45.91385" lon="4.583">
        <ele>295.62073</ele>
        <time>2023-12-07T14:07:12.000Z</time>
      </trkpt>
      <trkpt lat="45.91386" lon="4.58297">
        <ele>295.65863</ele>
        <time>2023-12-07T14:07:13.000Z</time>
      </trkpt>
      <trkpt lat="45.91387" lon="4.58293">
        <ele>295.77451</ele>
        <time>2023-12-07T14:07:14.000Z</time>
      </trkpt>
      <trkpt lat="45.91389" lon="4.58289">
        <ele>295.94809</ele>
        <time>2023-12-07T14:07:15.000Z</time>
      </trkpt>
      <trkpt lat="45.9139" lon="4.58284">
        <ele>296.12134</ele>
        <time>2023-12-07T14:07:16.000Z</time>
      </trkpt>
      <trkpt lat="45.91392" lon="4.58279">
        <ele>296.2749</ele>
        <time>2023-12-07T14:07:17.000Z</time>
      </trkpt>
      <trkpt lat="45.91393" lon="4.58274">
        <ele>296.72601</ele>
        <time>2023-12-07T14:07:18.000Z</time>
      </trkpt>
      <trkpt lat="45.91395" lon="4.58269">
        <ele>297.09982</ele>
        <time>2023-12-07T14:07:19.000Z</time>
      </trkpt>
      <trkpt lat="45.91396" lon="4.58264">
        <ele>297.47693</ele>
        <time>2023-12-07T14:07:20.000Z</time>
      </trkpt>
      <trkpt lat="45.91397" lon="4.58259">
        <ele>297.82288</ele>
        <time>2023-12-07T14:07:21.000Z</time>
      </trkpt>
      <trkpt lat="45.91398" lon="4.58253">
        <ele>298.31549</ele>
        <time>2023-12-07T14:07:22.000Z</time>
      </trkpt>
      <trkpt lat="45.91398" lon="4.58249">
        <ele>298.75348</ele>
        <time>2023-12-07T14:07:23.000Z</time>
      </trkpt>
      <trkpt lat="45.91398" lon="4.58245">
        <ele>299.31561</ele>
        <time>2023-12-07T14:07:25.000Z</time>
      </trkpt>
      <trkpt lat="45.91396" lon="4.58244">
        <ele>299.21674</ele>
        <time>2023-12-07T14:07:27.000Z</time>
      </trkpt>
      <trkpt lat="45.91393" lon="4.5824">
        <ele>299.23346</ele>
        <time>2023-12-07T14:07:29.000Z</time>
      </trkpt>
      <trkpt lat="45.91393" lon="4.58238">
        <ele>299.25302</ele>
        <time>2023-12-07T14:07:30.000Z</time>
      </trkpt>
      <trkpt lat="45.91394" lon="4.58234">
        <ele>299.23151</ele>
        <time>2023-12-07T14:07:31.000Z</time>
      </trkpt>
      <trkpt lat="45.91395" lon="4.58232">
        <ele>299.20123</ele>
        <time>2023-12-07T14:07:32.000Z</time>
      </trkpt>
      <trkpt lat="45.91396" lon="4.58229">
        <ele>299.1734</ele>
        <time>2023-12-07T14:07:33.000Z</time>
      </trkpt>
      <trkpt lat="45.91397" lon="4.58224">
        <ele>299.11826</ele>
        <time>2023-12-07T14:07:35.000Z</time>
      </trkpt>
      <trkpt lat="45.91396" lon="4.58222">
        <ele>299.11371</ele>
        <time>2023-12-07T14:07:36.000Z</time>
      </trkpt>
      <trkpt lat="45.91393" lon="4.58222">
        <ele>298.81122</ele>
        <time>2023-12-07T14:07:38.000Z</time>
      </trkpt>
      <trkpt lat="45.91391" lon="4.58224">
        <ele>298.50586</ele>
        <time>2023-12-07T14:07:39.000Z</time>
      </trkpt>
      <trkpt lat="45.91392" lon="4.58229">
        <ele>298.18976</ele>
        <time>2023-12-07T14:07:41.000Z</time>
      </trkpt>
      <trkpt lat="45.91395" lon="4.58226">
        <ele>297.67218</ele>
        <time>2023-12-07T14:07:43.000Z</time>
      </trkpt>
      <trkpt lat="45.91395" lon="4.58223">
        <ele>297.76025</ele>
        <time>2023-12-07T14:07:44.000Z</time>
      </trkpt>
      <trkpt lat="45.91394" lon="4.5822">
        <ele>297.72861</ele>
        <time>2023-12-07T14:07:45.000Z</time>
      </trkpt>
      <trkpt lat="45.91391" lon="4.58217">
        <ele>297.6575</ele>
        <time>2023-12-07T14:07:46.000Z</time>
      </trkpt>
      <trkpt lat="45.91388" lon="4.58215">
        <ele>297.50928</ele>
        <time>2023-12-07T14:07:47.000Z</time>
      </trkpt>
      <trkpt lat="45.91385" lon="4.58212">
        <ele>297.41074</ele>
        <time>2023-12-07T14:07:48.000Z</time>
      </trkpt>
      <trkpt lat="45.91382" lon="4.58207">
        <ele>297.29419</ele>
        <time>2023-12-07T14:07:49.000Z</time>
      </trkpt>
      <trkpt lat="45.91381" lon="4.582">
        <ele>297.19159</ele>
        <time>2023-12-07T14:07:50.000Z</time>
      </trkpt>
      <trkpt lat="45.9138" lon="4.58194">
        <ele>296.9274</ele>
        <time>2023-12-07T14:07:51.000Z</time>
      </trkpt>
      <trkpt lat="45.91379" lon="4.58186">
        <ele>296.68201</ele>
        <time>2023-12-07T14:07:52.000Z</time>
      </trkpt>
      <trkpt lat="45.91377" lon="4.58178">
        <ele>296.32147</ele>
        <time>2023-12-07T14:07:53.000Z</time>
      </trkpt>
      <trkpt lat="45.91376" lon="4.5817">
        <ele>295.95715</ele>
        <time>2023-12-07T14:07:54.000Z</time>
      </trkpt>
      <trkpt lat="45.91374" lon="4.58163">
        <ele>295.61713</ele>
        <time>2023-12-07T14:07:55.000Z</time>
      </trkpt>
      <trkpt lat="45.91373" lon="4.58156">
        <ele>295.27011</ele>
        <time>2023-12-07T14:07:56.000Z</time>
      </trkpt>
      <trkpt lat="45.9137" lon="4.58151">
        <ele>294.4119</ele>
        <time>2023-12-07T14:07:57.000Z</time>
      </trkpt>
      <trkpt lat="45.91367" lon="4.58145">
        <ele>294.02869</ele>
        <time>2023-12-07T14:07:58.000Z</time>
      </trkpt>
      <trkpt lat="45.91365" lon="4.58138">
        <ele>293.56818</ele>
        <time>2023-12-07T14:07:59.000Z</time>
      </trkpt>
      <trkpt lat="45.91363" lon="4.58132">
        <ele>293.427</ele>
        <time>2023-12-07T14:08:00.000Z</time>
      </trkpt>
      <trkpt lat="45.91362" lon="4.58125">
        <ele>293.23633</ele>
        <time>2023-12-07T14:08:01.000Z</time>
      </trkpt>
      <trkpt lat="45.91361" lon="4.58118">
        <ele>293.06259</ele>
        <time>2023-12-07T14:08:02.000Z</time>
      </trkpt>
      <trkpt lat="45.9136" lon="4.5811">
        <ele>293.22684</ele>
        <time>2023-12-07T14:08:03.000Z</time>
      </trkpt>
      <trkpt lat="45.91361" lon="4.58104">
        <ele>292.72031</ele>
        <time>2023-12-07T14:08:04.000Z</time>
      </trkpt>
      <trkpt lat="45.91361" lon="4.58098">
        <ele>292.33145</ele>
        <time>2023-12-07T14:08:05.000Z</time>
      </trkpt>
      <trkpt lat="45.91363" lon="4.58093">
        <ele>292.02155</ele>
        <time>2023-12-07T14:08:06.000Z</time>
      </trkpt>
      <trkpt lat="45.91363" lon="4.58086">
        <ele>291.72076</ele>
        <time>2023-12-07T14:08:07.000Z</time>
      </trkpt>
      <trkpt lat="45.91364" lon="4.5808">
        <ele>291.40805</ele>
        <time>2023-12-07T14:08:08.000Z</time>
      </trkpt>
      <trkpt lat="45.91364" lon="4.58075">
        <ele>291.15201</ele>
        <time>2023-12-07T14:08:09.000Z</time>
      </trkpt>
      <trkpt lat="45.91363" lon="4.5807">
        <ele>290.90298</ele>
        <time>2023-12-07T14:08:10.000Z</time>
      </trkpt>
      <trkpt lat="45.91362" lon="4.58065">
        <ele>290.79092</ele>
        <time>2023-12-07T14:08:11.000Z</time>
      </trkpt>
      <trkpt lat="45.9136" lon="4.5806">
        <ele>290.6261</ele>
        <time>2023-12-07T14:08:12.000Z</time>
      </trkpt>
      <trkpt lat="45.91358" lon="4.58054">
        <ele>290.56702</ele>
        <time>2023-12-07T14:08:13.000Z</time>
      </trkpt>
      <trkpt lat="45.91356" lon="4.58049">
        <ele>290.52182</ele>
        <time>2023-12-07T14:08:14.000Z</time>
      </trkpt>
      <trkpt lat="45.91354" lon="4.58042">
        <ele>290.4548</ele>
        <time>2023-12-07T14:08:15.000Z</time>
      </trkpt>
      <trkpt lat="45.91351" lon="4.58037">
        <ele>290.44745</ele>
        <time>2023-12-07T14:08:16.000Z</time>
      </trkpt>
      <trkpt lat="45.91349" lon="4.5803">
        <ele>290.83661</ele>
        <time>2023-12-07T14:08:17.000Z</time>
      </trkpt>
      <trkpt lat="45.91346" lon="4.58025">
        <ele>290.54175</ele>
        <time>2023-12-07T14:08:18.000Z</time>
      </trkpt>
      <trkpt lat="45.91344" lon="4.5802">
        <ele>290.17142</ele>
        <time>2023-12-07T14:08:19.000Z</time>
      </trkpt>
      <trkpt lat="45.91341" lon="4.58015">
        <ele>289.74951</ele>
        <time>2023-12-07T14:08:20.000Z</time>
      </trkpt>
      <trkpt lat="45.91339" lon="4.58012">
        <ele>289.22632</ele>
        <time>2023-12-07T14:08:21.000Z</time>
      </trkpt>
      <trkpt lat="45.91335" lon="4.58007">
        <ele>289.30634</ele>
        <time>2023-12-07T14:08:22.000Z</time>
      </trkpt>
      <trkpt lat="45.91333" lon="4.58003">
        <ele>289.18781</ele>
        <time>2023-12-07T14:08:23.000Z</time>
      </trkpt>
      <trkpt lat="45.91329" lon="4.58">
        <ele>289.10953</ele>
        <time>2023-12-07T14:08:24.000Z</time>
      </trkpt>
      <trkpt lat="45.91325" lon="4.57996">
        <ele>289.0885</ele>
        <time>2023-12-07T14:08:25.000Z</time>
      </trkpt>
      <trkpt lat="45.91321" lon="4.57993">
        <ele>289.02328</ele>
        <time>2023-12-07T14:08:26.000Z</time>
      </trkpt>
      <trkpt lat="45.91318" lon="4.57988">
        <ele>289.0296</ele>
        <time>2023-12-07T14:08:27.000Z</time>
      </trkpt>
      <trkpt lat="45.91313" lon="4.57983">
        <ele>289.022</ele>
        <time>2023-12-07T14:08:28.000Z</time>
      </trkpt>
      <trkpt lat="45.9131" lon="4.5798">
        <ele>288.95493</ele>
        <time>2023-12-07T14:08:29.000Z</time>
      </trkpt>
      <trkpt lat="45.91307" lon="4.57977">
        <ele>288.93475</ele>
        <time>2023-12-07T14:08:30.000Z</time>
      </trkpt>
      <trkpt lat="45.91304" lon="4.57974">
        <ele>289.14246</ele>
        <time>2023-12-07T14:08:31.000Z</time>
      </trkpt>
      <trkpt lat="45.91301" lon="4.5797">
        <ele>289.33377</ele>
        <time>2023-12-07T14:08:32.000Z</time>
      </trkpt>
      <trkpt lat="45.91297" lon="4.57967">
        <ele>289.55176</ele>
        <time>2023-12-07T14:08:33.000Z</time>
      </trkpt>
      <trkpt lat="45.91294" lon="4.57963">
        <ele>289.7576</ele>
        <time>2023-12-07T14:08:34.000Z</time>
      </trkpt>
      <trkpt lat="45.9129" lon="4.57959">
        <ele>289.98795</ele>
        <time>2023-12-07T14:08:35.000Z</time>
      </trkpt>
      <trkpt lat="45.91287" lon="4.57955">
        <ele>290.20013</ele>
        <time>2023-12-07T14:08:36.000Z</time>
      </trkpt>
      <trkpt lat="45.91284" lon="4.57951">
        <ele>290.55325</ele>
        <time>2023-12-07T14:08:37.000Z</time>
      </trkpt>
      <trkpt lat="45.91281" lon="4.57946">
        <ele>291.14777</ele>
        <time>2023-12-07T14:08:38.000Z</time>
      </trkpt>
      <trkpt lat="45.91278" lon="4.57942">
        <ele>291.86688</ele>
        <time>2023-12-07T14:08:39.000Z</time>
      </trkpt>
      <trkpt lat="45.91275" lon="4.57937">
        <ele>292.69373</ele>
        <time>2023-12-07T14:08:40.000Z</time>
      </trkpt>
      <trkpt lat="45.91272" lon="4.57931">
        <ele>293.67889</ele>
        <time>2023-12-07T14:08:41.000Z</time>
      </trkpt>
      <trkpt lat="45.9127" lon="4.57926">
        <ele>294.01801</ele>
        <time>2023-12-07T14:08:42.000Z</time>
      </trkpt>
      <trkpt lat="45.91267" lon="4.57921">
        <ele>294.45682</ele>
        <time>2023-12-07T14:08:43.000Z</time>
      </trkpt>
      <trkpt lat="45.91265" lon="4.57915">
        <ele>294.91223</ele>
        <time>2023-12-07T14:08:44.000Z</time>
      </trkpt>
      <trkpt lat="45.91262" lon="4.5791">
        <ele>295.31845</ele>
        <time>2023-12-07T14:08:45.000Z</time>
      </trkpt>
      <trkpt lat="45.9126" lon="4.57904">
        <ele>295.74252</ele>
        <time>2023-12-07T14:08:46.000Z</time>
      </trkpt>
      <trkpt lat="45.91257" lon="4.57898">
        <ele>296.1503</ele>
        <time>2023-12-07T14:08:47.000Z</time>
      </trkpt>
      <trkpt lat="45.91255" lon="4.57892">
        <ele>296.55585</ele>
        <time>2023-12-07T14:08:48.000Z</time>
      </trkpt>
      <trkpt lat="45.91251" lon="4.57885">
        <ele>296.97382</ele>
        <time>2023-12-07T14:08:49.000Z</time>
      </trkpt>
      <trkpt lat="45.91248" lon="4.57879">
        <ele>297.17215</ele>
        <time>2023-12-07T14:08:50.000Z</time>
      </trkpt>
      <trkpt lat="45.91244" lon="4.57874">
        <ele>297.11057</ele>
        <time>2023-12-07T14:08:51.000Z</time>
      </trkpt>
      <trkpt lat="45.91241" lon="4.57869">
        <ele>297.05243</ele>
        <time>2023-12-07T14:08:52.000Z</time>
      </trkpt>
      <trkpt lat="45.91237" lon="4.57865">
        <ele>296.96796</ele>
        <time>2023-12-07T14:08:53.000Z</time>
      </trkpt>
      <trkpt lat="45.91234" lon="4.57858">
        <ele>296.87491</ele>
        <time>2023-12-07T14:08:54.000Z</time>
      </trkpt>
      <trkpt lat="45.91231" lon="4.57854">
        <ele>296.79462</ele>
        <time>2023-12-07T14:08:55.000Z</time>
      </trkpt>
      <trkpt lat="45.91227" lon="4.57851">
        <ele>296.7038</ele>
        <time>2023-12-07T14:08:56.000Z</time>
      </trkpt>
      <trkpt lat="45.91223" lon="4.57847">
        <ele>296.60922</ele>
        <time>2023-12-07T14:08:57.000Z</time>
      </trkpt>
      <trkpt lat="45.9122" lon="4.57844">
        <ele>296.50015</ele>
        <time>2023-12-07T14:08:58.000Z</time>
      </trkpt>
      <trkpt lat="45.91216" lon="4.57841">
        <ele>296.36252</ele>
        <time>2023-12-07T14:08:59.000Z</time>
      </trkpt>
      <trkpt lat="45.91211" lon="4.57837">
        <ele>296.16229</ele>
        <time>2023-12-07T14:09:00.000Z</time>
      </trkpt>
      <trkpt lat="45.91207" lon="4.57832">
        <ele>295.9024</ele>
        <time>2023-12-07T14:09:01.000Z</time>
      </trkpt>
      <trkpt lat="45.91202" lon="4.57828">
        <ele>295.62335</ele>
        <time>2023-12-07T14:09:02.000Z</time>
      </trkpt>
      <trkpt lat="45.91197" lon="4.57823">
        <ele>295.315</ele>
        <time>2023-12-07T14:09:03.000Z</time>
      </trkpt>
      <trkpt lat="45.91192" lon="4.5782">
        <ele>294.98367</ele>
        <time>2023-12-07T14:09:04.000Z</time>
      </trkpt>
      <trkpt lat="45.91186" lon="4.5782">
        <ele>294.25696</ele>
        <time>2023-12-07T14:09:05.000Z</time>
      </trkpt>
      <trkpt lat="45.9118" lon="4.57819">
        <ele>293.5274</ele>
        <time>2023-12-07T14:09:06.000Z</time>
      </trkpt>
      <trkpt lat="45.91175" lon="4.57819">
        <ele>292.62866</ele>
        <time>2023-12-07T14:09:07.000Z</time>
      </trkpt>
      <trkpt lat="45.9117" lon="4.57819">
        <ele>291.60297</ele>
        <time>2023-12-07T14:09:08.000Z</time>
      </trkpt>
      <trkpt lat="45.91165" lon="4.57819">
        <ele>291.21854</ele>
        <time>2023-12-07T14:09:09.000Z</time>
      </trkpt>
      <trkpt lat="45.9116" lon="4.57819">
        <ele>290.91251</ele>
        <time>2023-12-07T14:09:10.000Z</time>
      </trkpt>
      <trkpt lat="45.91154" lon="4.57819">
        <ele>290.60941</ele>
        <time>2023-12-07T14:09:11.000Z</time>
      </trkpt>
      <trkpt lat="45.91149" lon="4.57819">
        <ele>290.2735</ele>
        <time>2023-12-07T14:09:12.000Z</time>
      </trkpt>
      <trkpt lat="45.91143" lon="4.57819">
        <ele>289.96268</ele>
        <time>2023-12-07T14:09:13.000Z</time>
      </trkpt>
      <trkpt lat="45.91139" lon="4.57817">
        <ele>289.62628</ele>
        <time>2023-12-07T14:09:14.000Z</time>
      </trkpt>
      <trkpt lat="45.91134" lon="4.57814">
        <ele>289.24603</ele>
        <time>2023-12-07T14:09:15.000Z</time>
      </trkpt>
      <trkpt lat="45.91129" lon="4.57811">
        <ele>288.81143</ele>
        <time>2023-12-07T14:09:16.000Z</time>
      </trkpt>
      <trkpt lat="45.91124" lon="4.57808">
        <ele>288.32983</ele>
        <time>2023-12-07T14:09:17.000Z</time>
      </trkpt>
      <trkpt lat="45.9112" lon="4.57805">
        <ele>287.82999</ele>
        <time>2023-12-07T14:09:18.000Z</time>
      </trkpt>
      <trkpt lat="45.91115" lon="4.57803">
        <ele>287.10385</ele>
        <time>2023-12-07T14:09:19.000Z</time>
      </trkpt>
      <trkpt lat="45.9111" lon="4.578">
        <ele>286.21307</ele>
        <time>2023-12-07T14:09:20.000Z</time>
      </trkpt>
      <trkpt lat="45.91104" lon="4.57797">
        <ele>285.86591</ele>
        <time>2023-12-07T14:09:21.000Z</time>
      </trkpt>
      <trkpt lat="45.91099" lon="4.57794">
        <ele>285.3125</ele>
        <time>2023-12-07T14:09:22.000Z</time>
      </trkpt>
      <trkpt lat="45.91093" lon="4.57792">
        <ele>284.76129</ele>
        <time>2023-12-07T14:09:23.000Z</time>
      </trkpt>
      <trkpt lat="45.91086" lon="4.57789">
        <ele>284.18454</ele>
        <time>2023-12-07T14:09:24.000Z</time>
      </trkpt>
      <trkpt lat="45.91079" lon="4.57786">
        <ele>283.99872</ele>
        <time>2023-12-07T14:09:25.000Z</time>
      </trkpt>
      <trkpt lat="45.91072" lon="4.57784">
        <ele>283.74512</ele>
        <time>2023-12-07T14:09:26.000Z</time>
      </trkpt>
      <trkpt lat="45.91065" lon="4.57781">
        <ele>283.60458</ele>
        <time>2023-12-07T14:09:27.000Z</time>
      </trkpt>
      <trkpt lat="45.91057" lon="4.57778">
        <ele>283.56607</ele>
        <time>2023-12-07T14:09:28.000Z</time>
      </trkpt>
      <trkpt lat="45.91048" lon="4.57774">
        <ele>282.88211</ele>
        <time>2023-12-07T14:09:29.000Z</time>
      </trkpt>
      <trkpt lat="45.9104" lon="4.57771">
        <ele>282.26801</ele>
        <time>2023-12-07T14:09:30.000Z</time>
      </trkpt>
      <trkpt lat="45.91032" lon="4.57768">
        <ele>281.63995</ele>
        <time>2023-12-07T14:09:31.000Z</time>
      </trkpt>
      <trkpt lat="45.91023" lon="4.57763">
        <ele>280.98093</ele>
        <time>2023-12-07T14:09:32.000Z</time>
      </trkpt>
      <trkpt lat="45.91014" lon="4.57759">
        <ele>280.25537</ele>
        <time>2023-12-07T14:09:33.000Z</time>
      </trkpt>
      <trkpt lat="45.91004" lon="4.57755">
        <ele>279.49106</ele>
        <time>2023-12-07T14:09:34.000Z</time>
      </trkpt>
      <trkpt lat="45.90995" lon="4.5775">
        <ele>278.7308</ele>
        <time>2023-12-07T14:09:35.000Z</time>
      </trkpt>
      <trkpt lat="45.90986" lon="4.57745">
        <ele>277.97214</ele>
        <time>2023-12-07T14:09:36.000Z</time>
      </trkpt>
      <trkpt lat="45.90977" lon="4.57741">
        <ele>277.22327</ele>
        <time>2023-12-07T14:09:37.000Z</time>
      </trkpt>
      <trkpt lat="45.90968" lon="4.57738">
        <ele>276.4465</ele>
        <time>2023-12-07T14:09:38.000Z</time>
      </trkpt>
      <trkpt lat="45.9096" lon="4.57735">
        <ele>275.8548</ele>
        <time>2023-12-07T14:09:39.000Z</time>
      </trkpt>
      <trkpt lat="45.90952" lon="4.57732">
        <ele>275.39114</ele>
        <time>2023-12-07T14:09:40.000Z</time>
      </trkpt>
      <trkpt lat="45.90945" lon="4.57728">
        <ele>274.38385</ele>
        <time>2023-12-07T14:09:41.000Z</time>
      </trkpt>
      <trkpt lat="45.90939" lon="4.57724">
        <ele>273.59369</ele>
        <time>2023-12-07T14:09:42.000Z</time>
      </trkpt>
      <trkpt lat="45.90934" lon="4.57722">
        <ele>272.81873</ele>
        <time>2023-12-07T14:09:43.000Z</time>
      </trkpt>
      <trkpt lat="45.90929" lon="4.57718">
        <ele>272.05325</ele>
        <time>2023-12-07T14:09:44.000Z</time>
      </trkpt>
      <trkpt lat="45.90923" lon="4.57714">
        <ele>271.21719</ele>
        <time>2023-12-07T14:09:45.000Z</time>
      </trkpt>
      <trkpt lat="45.90919" lon="4.57711">
        <ele>270.43472</ele>
        <time>2023-12-07T14:09:46.000Z</time>
      </trkpt>
      <trkpt lat="45.90915" lon="4.57707">
        <ele>269.74988</ele>
        <time>2023-12-07T14:09:47.000Z</time>
      </trkpt>
      <trkpt lat="45.9091" lon="4.57702">
        <ele>268.9928</ele>
        <time>2023-12-07T14:09:48.000Z</time>
      </trkpt>
      <trkpt lat="45.90907" lon="4.57696">
        <ele>268.18622</ele>
        <time>2023-12-07T14:09:49.000Z</time>
      </trkpt>
      <trkpt lat="45.90904" lon="4.57693">
        <ele>267.40598</ele>
        <time>2023-12-07T14:09:50.000Z</time>
      </trkpt>
      <trkpt lat="45.909" lon="4.57689">
        <ele>266.58115</ele>
        <time>2023-12-07T14:09:51.000Z</time>
      </trkpt>
      <trkpt lat="45.90896" lon="4.57685">
        <ele>265.81927</ele>
        <time>2023-12-07T14:09:52.000Z</time>
      </trkpt>
      <trkpt lat="45.90893" lon="4.5768">
        <ele>265.07224</ele>
        <time>2023-12-07T14:09:53.000Z</time>
      </trkpt>
      <trkpt lat="45.90891" lon="4.57677">
        <ele>264.28262</ele>
        <time>2023-12-07T14:09:54.000Z</time>
      </trkpt>
      <trkpt lat="45.90888" lon="4.57676">
        <ele>263.56647</ele>
        <time>2023-12-07T14:09:55.000Z</time>
      </trkpt>
      <trkpt lat="45.90886" lon="4.57675">
        <ele>262.74164</ele>
        <time>2023-12-07T14:09:57.000Z</time>
      </trkpt>
      <trkpt lat="45.90884" lon="4.57672">
        <ele>261.88089</ele>
        <time>2023-12-07T14:10:16.000Z</time>
      </trkpt>
      <trkpt lat="45.90884" lon="4.57667">
        <ele>261.10724</ele>
        <time>2023-12-07T14:10:18.000Z</time>
      </trkpt>
      <trkpt lat="45.90883" lon="4.57664">
        <ele>260.7019</ele>
        <time>2023-12-07T14:10:19.000Z</time>
      </trkpt>
      <trkpt lat="45.90884" lon="4.57659">
        <ele>260.23895</ele>
        <time>2023-12-07T14:10:20.000Z</time>
      </trkpt>
      <trkpt lat="45.90885" lon="4.57655">
        <ele>259.87335</ele>
        <time>2023-12-07T14:10:21.000Z</time>
      </trkpt>
      <trkpt lat="45.90886" lon="4.57651">
        <ele>259.49921</ele>
        <time>2023-12-07T14:10:22.000Z</time>
      </trkpt>
      <trkpt lat="45.90887" lon="4.57648">
        <ele>259.14316</ele>
        <time>2023-12-07T14:10:23.000Z</time>
      </trkpt>
      <trkpt lat="45.90887" lon="4.57645">
        <ele>258.82553</ele>
        <time>2023-12-07T14:10:24.000Z</time>
      </trkpt>
      <trkpt lat="45.90887" lon="4.57641">
        <ele>258.59418</ele>
        <time>2023-12-07T14:10:25.000Z</time>
      </trkpt>
      <trkpt lat="45.90887" lon="4.57638">
        <ele>258.38751</ele>
        <time>2023-12-07T14:10:26.000Z</time>
      </trkpt>
      <trkpt lat="45.90885" lon="4.57636">
        <ele>258.16437</ele>
        <time>2023-12-07T14:10:27.000Z</time>
      </trkpt>
      <trkpt lat="45.90883" lon="4.57635">
        <ele>258.03351</ele>
        <time>2023-12-07T14:10:28.000Z</time>
      </trkpt>
      <trkpt lat="45.90881" lon="4.57634">
        <ele>257.94867</ele>
        <time>2023-12-07T14:10:30.000Z</time>
      </trkpt>
      <trkpt lat="45.90883" lon="4.57633">
        <ele>257.75113</ele>
        <time>2023-12-07T14:10:39.000Z</time>
      </trkpt>
      <trkpt lat="45.90887" lon="4.57637">
        <ele>257.88596</ele>
        <time>2023-12-07T14:10:41.000Z</time>
      </trkpt>
      <trkpt lat="45.90888" lon="4.5764">
        <ele>258.0094</ele>
        <time>2023-12-07T14:10:42.000Z</time>
      </trkpt>
      <trkpt lat="45.90888" lon="4.57643">
        <ele>258.15344</ele>
        <time>2023-12-07T14:10:43.000Z</time>
      </trkpt>
      <trkpt lat="45.90888" lon="4.57647">
        <ele>258.38898</ele>
        <time>2023-12-07T14:10:44.000Z</time>
      </trkpt>
      <trkpt lat="45.90887" lon="4.57651">
        <ele>258.57544</ele>
        <time>2023-12-07T14:10:45.000Z</time>
      </trkpt>
      <trkpt lat="45.90886" lon="4.57656">
        <ele>258.93155</ele>
        <time>2023-12-07T14:10:46.000Z</time>
      </trkpt>
      <trkpt lat="45.90886" lon="4.57662">
        <ele>259.33954</ele>
        <time>2023-12-07T14:10:47.000Z</time>
      </trkpt>
      <trkpt lat="45.90885" lon="4.57668">
        <ele>259.75638</ele>
        <time>2023-12-07T14:10:48.000Z</time>
      </trkpt>
      <trkpt lat="45.90885" lon="4.57673">
        <ele>259.86368</ele>
        <time>2023-12-07T14:10:49.000Z</time>
      </trkpt>
      <trkpt lat="45.90884" lon="4.57678">
        <ele>260.07037</ele>
        <time>2023-12-07T14:10:50.000Z</time>
      </trkpt>
      <trkpt lat="45.90883" lon="4.57683">
        <ele>260.21503</ele>
        <time>2023-12-07T14:10:51.000Z</time>
      </trkpt>
      <trkpt lat="45.90882" lon="4.57688">
        <ele>260.36359</ele>
        <time>2023-12-07T14:10:52.000Z</time>
      </trkpt>
      <trkpt lat="45.9088" lon="4.57694">
        <ele>260.50552</ele>
        <time>2023-12-07T14:10:53.000Z</time>
      </trkpt>
      <trkpt lat="45.90879" lon="4.57699">
        <ele>260.63974</ele>
        <time>2023-12-07T14:10:54.000Z</time>
      </trkpt>
      <trkpt lat="45.90877" lon="4.57705">
        <ele>260.73285</ele>
        <time>2023-12-07T14:10:55.000Z</time>
      </trkpt>
      <trkpt lat="45.90876" lon="4.57711">
        <ele>260.81488</ele>
        <time>2023-12-07T14:10:56.000Z</time>
      </trkpt>
      <trkpt lat="45.90875" lon="4.57717">
        <ele>260.86911</ele>
        <time>2023-12-07T14:10:57.000Z</time>
      </trkpt>
      <trkpt lat="45.90873" lon="4.57722">
        <ele>260.75824</ele>
        <time>2023-12-07T14:10:58.000Z</time>
      </trkpt>
      <trkpt lat="45.90871" lon="4.57728">
        <ele>260.65149</ele>
        <time>2023-12-07T14:10:59.000Z</time>
      </trkpt>
      <trkpt lat="45.9087" lon="4.57734">
        <ele>260.94189</ele>
        <time>2023-12-07T14:11:00.000Z</time>
      </trkpt>
      <trkpt lat="45.90869" lon="4.57739">
        <ele>260.90472</ele>
        <time>2023-12-07T14:11:01.000Z</time>
      </trkpt>
      <trkpt lat="45.90868" lon="4.57746">
        <ele>260.88669</ele>
        <time>2023-12-07T14:11:02.000Z</time>
      </trkpt>
      <trkpt lat="45.90868" lon="4.57753">
        <ele>260.88596</ele>
        <time>2023-12-07T14:11:03.000Z</time>
      </trkpt>
      <trkpt lat="45.90868" lon="4.5776">
        <ele>260.90869</ele>
        <time>2023-12-07T14:11:04.000Z</time>
      </trkpt>
      <trkpt lat="45.90869" lon="4.57767">
        <ele>260.9166</ele>
        <time>2023-12-07T14:11:05.000Z</time>
      </trkpt>
      <trkpt lat="45.9087" lon="4.57774">
        <ele>260.89816</ele>
        <time>2023-12-07T14:11:06.000Z</time>
      </trkpt>
      <trkpt lat="45.90871" lon="4.5778">
        <ele>260.86395</ele>
        <time>2023-12-07T14:11:07.000Z</time>
      </trkpt>
      <trkpt lat="45.90873" lon="4.57784">
        <ele>260.79517</ele>
        <time>2023-12-07T14:11:08.000Z</time>
      </trkpt>
      <trkpt lat="45.90875" lon="4.5779">
        <ele>260.72113</ele>
        <time>2023-12-07T14:11:09.000Z</time>
      </trkpt>
      <trkpt lat="45.90876" lon="4.57795">
        <ele>260.63184</ele>
        <time>2023-12-07T14:11:10.000Z</time>
      </trkpt>
      <trkpt lat="45.90876" lon="4.57798">
        <ele>260.52191</ele>
        <time>2023-12-07T14:11:11.000Z</time>
      </trkpt>
      <trkpt lat="45.90873" lon="4.57799">
        <ele>260.39337</ele>
        <time>2023-12-07T14:11:12.000Z</time>
      </trkpt>
      <trkpt lat="45.9087" lon="4.57796">
        <ele>260.23407</ele>
        <time>2023-12-07T14:11:13.000Z</time>
      </trkpt>
      <trkpt lat="45.90868" lon="4.57792">
        <ele>260.08759</ele>
        <time>2023-12-07T14:11:14.000Z</time>
      </trkpt>
      <trkpt lat="45.90866" lon="4.57786">
        <ele>259.95547</ele>
        <time>2023-12-07T14:11:15.000Z</time>
      </trkpt>
      <trkpt lat="45.90864" lon="4.57782">
        <ele>259.83896</ele>
        <time>2023-12-07T14:11:16.000Z</time>
      </trkpt>
      <trkpt lat="45.90863" lon="4.57777">
        <ele>259.7197</ele>
        <time>2023-12-07T14:11:17.000Z</time>
      </trkpt>
      <trkpt lat="45.90861" lon="4.57774">
        <ele>259.73697</ele>
        <time>2023-12-07T14:11:18.000Z</time>
      </trkpt>
      <trkpt lat="45.9086" lon="4.57771">
        <ele>259.62646</ele>
        <time>2023-12-07T14:11:19.000Z</time>
      </trkpt>
      <trkpt lat="45.90858" lon="4.57768">
        <ele>259.26331</ele>
        <time>2023-12-07T14:11:20.000Z</time>
      </trkpt>
      <trkpt lat="45.90856" lon="4.57766">
        <ele>258.98334</ele>
        <time>2023-12-07T14:11:21.000Z</time>
      </trkpt>
      <trkpt lat="45.90855" lon="4.57763">
        <ele>258.69452</ele>
        <time>2023-12-07T14:11:22.000Z</time>
      </trkpt>
      <trkpt lat="45.90853" lon="4.57761">
        <ele>258.36786</ele>
        <time>2023-12-07T14:11:23.000Z</time>
      </trkpt>
      <trkpt lat="45.90852" lon="4.57759">
        <ele>258.03745</ele>
        <time>2023-12-07T14:11:24.000Z</time>
      </trkpt>
      <trkpt lat="45.9085" lon="4.57757">
        <ele>257.70837</ele>
        <time>2023-12-07T14:11:25.000Z</time>
      </trkpt>
      <trkpt lat="45.90851" lon="4.57754">
        <ele>257.50983</ele>
        <time>2023-12-07T14:11:27.000Z</time>
      </trkpt>
      <trkpt lat="45.90854" lon="4.57755">
        <ele>257.31583</ele>
        <time>2023-12-07T14:11:29.000Z</time>
      </trkpt>
      <trkpt lat="45.90855" lon="4.57759">
        <ele>257.10406</ele>
        <time>2023-12-07T14:11:30.000Z</time>
      </trkpt>
      <trkpt lat="45.90856" lon="4.57763">
        <ele>256.91132</ele>
        <time>2023-12-07T14:11:31.000Z</time>
      </trkpt>
      <trkpt lat="45.90857" lon="4.57767">
        <ele>256.66354</ele>
        <time>2023-12-07T14:11:32.000Z</time>
      </trkpt>
      <trkpt lat="45.90858" lon="4.57771">
        <ele>256.44968</ele>
        <time>2023-12-07T14:11:33.000Z</time>
      </trkpt>
      <trkpt lat="45.90859" lon="4.57775">
        <ele>256.29822</ele>
        <time>2023-12-07T14:11:34.000Z</time>
      </trkpt>
      <trkpt lat="45.90861" lon="4.5778">
        <ele>256.19315</ele>
        <time>2023-12-07T14:11:35.000Z</time>
      </trkpt>
      <trkpt lat="45.90863" lon="4.57784">
        <ele>256.04114</ele>
        <time>2023-12-07T14:11:36.000Z</time>
      </trkpt>
      <trkpt lat="45.90864" lon="4.57789">
        <ele>255.84343</ele>
        <time>2023-12-07T14:11:37.000Z</time>
      </trkpt>
      <trkpt lat="45.90865" lon="4.57793">
        <ele>255.51816</ele>
        <time>2023-12-07T14:11:38.000Z</time>
      </trkpt>
      <trkpt lat="45.90867" lon="4.57798">
        <ele>255.21204</ele>
        <time>2023-12-07T14:11:39.000Z</time>
      </trkpt>
      <trkpt lat="45.90869" lon="4.57803">
        <ele>254.95992</ele>
        <time>2023-12-07T14:11:40.000Z</time>
      </trkpt>
      <trkpt lat="45.9087" lon="4.57808">
        <ele>254.8934</ele>
        <time>2023-12-07T14:11:41.000Z</time>
      </trkpt>
      <trkpt lat="45.90872" lon="4.57813">
        <ele>254.7421</ele>
        <time>2023-12-07T14:11:42.000Z</time>
      </trkpt>
      <trkpt lat="45.90875" lon="4.57819">
        <ele>254.84814</ele>
        <time>2023-12-07T14:11:43.000Z</time>
      </trkpt>
      <trkpt lat="45.90876" lon="4.57824">
        <ele>254.87991</ele>
        <time>2023-12-07T14:11:44.000Z</time>
      </trkpt>
      <trkpt lat="45.90878" lon="4.57829">
        <ele>254.93938</ele>
        <time>2023-12-07T14:11:45.000Z</time>
      </trkpt>
      <trkpt lat="45.9088" lon="4.57833">
        <ele>254.96762</ele>
        <time>2023-12-07T14:11:46.000Z</time>
      </trkpt>
      <trkpt lat="45.90881" lon="4.57837">
        <ele>254.98569</ele>
        <time>2023-12-07T14:11:47.000Z</time>
      </trkpt>
      <trkpt lat="45.90881" lon="4.57841">
        <ele>254.89006</ele>
        <time>2023-12-07T14:11:48.000Z</time>
      </trkpt>
      <trkpt lat="45.90882" lon="4.57844">
        <ele>254.76363</ele>
        <time>2023-12-07T14:11:49.000Z</time>
      </trkpt>
      <trkpt lat="45.90883" lon="4.57849">
        <ele>254.63606</ele>
        <time>2023-12-07T14:11:50.000Z</time>
      </trkpt>
      <trkpt lat="45.90883" lon="4.57854">
        <ele>254.53889</ele>
        <time>2023-12-07T14:11:51.000Z</time>
      </trkpt>
      <trkpt lat="45.90884" lon="4.5786">
        <ele>254.56204</ele>
        <time>2023-12-07T14:11:52.000Z</time>
      </trkpt>
      <trkpt lat="45.90885" lon="4.57864">
        <ele>254.6105</ele>
        <time>2023-12-07T14:11:53.000Z</time>
      </trkpt>
      <trkpt lat="45.90886" lon="4.57868">
        <ele>254.50703</ele>
        <time>2023-12-07T14:11:54.000Z</time>
      </trkpt>
      <trkpt lat="45.90887" lon="4.57872">
        <ele>254.34843</ele>
        <time>2023-12-07T14:11:55.000Z</time>
      </trkpt>
      <trkpt lat="45.90889" lon="4.57877">
        <ele>254.28439</ele>
        <time>2023-12-07T14:11:56.000Z</time>
      </trkpt>
      <trkpt lat="45.90889" lon="4.57882">
        <ele>254.33987</ele>
        <time>2023-12-07T14:11:57.000Z</time>
      </trkpt>
      <trkpt lat="45.9089" lon="4.57887">
        <ele>254.48103</ele>
        <time>2023-12-07T14:11:58.000Z</time>
      </trkpt>
      <trkpt lat="45.9089" lon="4.5789">
        <ele>254.5994</ele>
        <time>2023-12-07T14:11:59.000Z</time>
      </trkpt>
      <trkpt lat="45.90893" lon="4.57891">
        <ele>254.78308</ele>
        <time>2023-12-07T14:12:01.000Z</time>
      </trkpt>
      <trkpt lat="45.90894" lon="4.57887">
        <ele>254.92171</ele>
        <time>2023-12-07T14:12:02.000Z</time>
      </trkpt>
      <trkpt lat="45.90894" lon="4.57882">
        <ele>255.09641</ele>
        <time>2023-12-07T14:12:03.000Z</time>
      </trkpt>
      <trkpt lat="45.90892" lon="4.57878">
        <ele>254.95915</ele>
        <time>2023-12-07T14:12:04.000Z</time>
      </trkpt>
      <trkpt lat="45.9089" lon="4.57873">
        <ele>255.16666</ele>
        <time>2023-12-07T14:12:05.000Z</time>
      </trkpt>
      <trkpt lat="45.90888" lon="4.57869">
        <ele>255.33467</ele>
        <time>2023-12-07T14:12:06.000Z</time>
      </trkpt>
      <trkpt lat="45.90888" lon="4.57865">
        <ele>255.56136</ele>
        <time>2023-12-07T14:12:07.000Z</time>
      </trkpt>
      <trkpt lat="45.90887" lon="4.57861">
        <ele>255.78906</ele>
        <time>2023-12-07T14:12:08.000Z</time>
      </trkpt>
      <trkpt lat="45.90887" lon="4.57858">
        <ele>256.01935</ele>
        <time>2023-12-07T14:12:09.000Z</time>
      </trkpt>
      <trkpt lat="45.90885" lon="4.57856">
        <ele>256.29297</ele>
        <time>2023-12-07T14:12:10.000Z</time>
      </trkpt>
      <trkpt lat="45.90882" lon="4.57856">
        <ele>256.59665</ele>
        <time>2023-12-07T14:12:12.000Z</time>
      </trkpt>
      <trkpt lat="45.90881" lon="4.57858">
        <ele>256.72427</ele>
        <time>2023-12-07T14:12:16.000Z</time>
      </trkpt>
      <trkpt lat="45.9088" lon="4.57862">
        <ele>256.50409</ele>
        <time>2023-12-07T14:12:19.000Z</time>
      </trkpt>
      <trkpt lat="45.90879" lon="4.57866">
        <ele>256.50452</ele>
        <time>2023-12-07T14:12:21.000Z</time>
      </trkpt>
      <trkpt lat="45.90879" lon="4.5787">
        <ele>256.56183</ele>
        <time>2023-12-07T14:12:24.000Z</time>
      </trkpt>
      <trkpt lat="45.90878" lon="4.57873">
        <ele>256.6192</ele>
        <time>2023-12-07T14:12:27.000Z</time>
      </trkpt>
      <trkpt lat="45.90877" lon="4.57876">
        <ele>256.57251</ele>
        <time>2023-12-07T14:12:28.000Z</time>
      </trkpt>
      <trkpt lat="45.90875" lon="4.57879">
        <ele>256.40363</ele>
        <time>2023-12-07T14:12:29.000Z</time>
      </trkpt>
      <trkpt lat="45.90874" lon="4.57883">
        <ele>256.3154</ele>
        <time>2023-12-07T14:12:30.000Z</time>
      </trkpt>
      <trkpt lat="45.90874" lon="4.57887">
        <ele>256.27234</ele>
        <time>2023-12-07T14:12:31.000Z</time>
      </trkpt>
      <trkpt lat="45.90874" lon="4.5789">
        <ele>256.1203</ele>
        <time>2023-12-07T14:12:32.000Z</time>
      </trkpt>
      <trkpt lat="45.90873" lon="4.57887">
        <ele>255.86226</ele>
        <time>2023-12-07T14:12:38.000Z</time>
      </trkpt>
      <trkpt lat="45.90873" lon="4.57884">
        <ele>255.5751</ele>
        <time>2023-12-07T14:12:39.000Z</time>
      </trkpt>
      <trkpt lat="45.90872" lon="4.5788">
        <ele>255.63142</ele>
        <time>2023-12-07T14:12:40.000Z</time>
      </trkpt>
      <trkpt lat="45.90872" lon="4.57876">
        <ele>255.41423</ele>
        <time>2023-12-07T14:12:41.000Z</time>
      </trkpt>
      <trkpt lat="45.90872" lon="4.57872">
        <ele>255.28879</ele>
        <time>2023-12-07T14:12:42.000Z</time>
      </trkpt>
      <trkpt lat="45.90872" lon="4.57868">
        <ele>255.13142</ele>
        <time>2023-12-07T14:12:43.000Z</time>
      </trkpt>
      <trkpt lat="45.90872" lon="4.57864">
        <ele>254.96484</ele>
        <time>2023-12-07T14:12:44.000Z</time>
      </trkpt>
      <trkpt lat="45.90871" lon="4.5786">
        <ele>254.78629</ele>
        <time>2023-12-07T14:12:45.000Z</time>
      </trkpt>
      <trkpt lat="45.90871" lon="4.57856">
        <ele>254.62558</ele>
        <time>2023-12-07T14:12:46.000Z</time>
      </trkpt>
      <trkpt lat="45.9087" lon="4.57851">
        <ele>254.44055</ele>
        <time>2023-12-07T14:12:47.000Z</time>
      </trkpt>
      <trkpt lat="45.9087" lon="4.57847">
        <ele>254.39433</ele>
        <time>2023-12-07T14:12:48.000Z</time>
      </trkpt>
      <trkpt lat="45.90869" lon="4.57843">
        <ele>254.61264</ele>
        <time>2023-12-07T14:12:49.000Z</time>
      </trkpt>
      <trkpt lat="45.90869" lon="4.57838">
        <ele>254.59004</ele>
        <time>2023-12-07T14:12:50.000Z</time>
      </trkpt>
      <trkpt lat="45.90868" lon="4.57833">
        <ele>254.60718</ele>
        <time>2023-12-07T14:12:51.000Z</time>
      </trkpt>
      <trkpt lat="45.90868" lon="4.57829">
        <ele>254.6489</ele>
        <time>2023-12-07T14:12:52.000Z</time>
      </trkpt>
      <trkpt lat="45.90867" lon="4.57824">
        <ele>254.70195</ele>
        <time>2023-12-07T14:12:53.000Z</time>
      </trkpt>
      <trkpt lat="45.90866" lon="4.57819">
        <ele>254.78085</ele>
        <time>2023-12-07T14:12:54.000Z</time>
      </trkpt>
      <trkpt lat="45.90865" lon="4.57814">
        <ele>254.77754</ele>
        <time>2023-12-07T14:12:55.000Z</time>
      </trkpt>
      <trkpt lat="45.90863" lon="4.57809">
        <ele>254.69815</ele>
        <time>2023-12-07T14:12:56.000Z</time>
      </trkpt>
      <trkpt lat="45.90862" lon="4.57804">
        <ele>254.62411</ele>
        <time>2023-12-07T14:12:57.000Z</time>
      </trkpt>
      <trkpt lat="45.9086" lon="4.57799">
        <ele>254.46915</ele>
        <time>2023-12-07T14:12:58.000Z</time>
      </trkpt>
      <trkpt lat="45.90859" lon="4.57795">
        <ele>254.41922</ele>
        <time>2023-12-07T14:12:59.000Z</time>
      </trkpt>
      <trkpt lat="45.90857" lon="4.57789">
        <ele>254.05484</ele>
        <time>2023-12-07T14:13:00.000Z</time>
      </trkpt>
      <trkpt lat="45.90855" lon="4.57784">
        <ele>253.71094</ele>
        <time>2023-12-07T14:13:01.000Z</time>
      </trkpt>
      <trkpt lat="45.90853" lon="4.57779">
        <ele>253.30022</ele>
        <time>2023-12-07T14:13:02.000Z</time>
      </trkpt>
      <trkpt lat="45.90851" lon="4.57774">
        <ele>252.8409</ele>
        <time>2023-12-07T14:13:03.000Z</time>
      </trkpt>
      <trkpt lat="45.90849" lon="4.57769">
        <ele>252.39359</ele>
        <time>2023-12-07T14:13:04.000Z</time>
      </trkpt>
      <trkpt lat="45.90847" lon="4.57764">
        <ele>251.9709</ele>
        <time>2023-12-07T14:13:05.000Z</time>
      </trkpt>
      <trkpt lat="45.90845" lon="4.57759">
        <ele>251.52078</ele>
        <time>2023-12-07T14:13:06.000Z</time>
      </trkpt>
      <trkpt lat="45.90843" lon="4.57754">
        <ele>251.08113</ele>
        <time>2023-12-07T14:13:07.000Z</time>
      </trkpt>
      <trkpt lat="45.9084" lon="4.57749">
        <ele>250.61201</ele>
        <time>2023-12-07T14:13:08.000Z</time>
      </trkpt>
      <trkpt lat="45.90837" lon="4.57744">
        <ele>250.13399</ele>
        <time>2023-12-07T14:13:09.000Z</time>
      </trkpt>
      <trkpt lat="45.90835" lon="4.5774">
        <ele>249.63249</ele>
        <time>2023-12-07T14:13:10.000Z</time>
      </trkpt>
      <trkpt lat="45.90832" lon="4.57735">
        <ele>249.35051</ele>
        <time>2023-12-07T14:13:11.000Z</time>
      </trkpt>
      <trkpt lat="45.9083" lon="4.57731">
        <ele>249.082</ele>
        <time>2023-12-07T14:13:12.000Z</time>
      </trkpt>
      <trkpt lat="45.90827" lon="4.57727">
        <ele>248.86824</ele>
        <time>2023-12-07T14:13:13.000Z</time>
      </trkpt>
      <trkpt lat="45.90824" lon="4.5772">
        <ele>248.65112</ele>
        <time>2023-12-07T14:13:14.000Z</time>
      </trkpt>
      <trkpt lat="45.90821" lon="4.57715">
        <ele>248.50598</ele>
        <time>2023-12-07T14:13:15.000Z</time>
      </trkpt>
      <trkpt lat="45.90817" lon="4.57708">
        <ele>248.38696</ele>
        <time>2023-12-07T14:13:16.000Z</time>
      </trkpt>
      <trkpt lat="45.90815" lon="4.57699">
        <ele>248.19186</ele>
        <time>2023-12-07T14:13:17.000Z</time>
      </trkpt>
      <trkpt lat="45.90812" lon="4.57691">
        <ele>248.11462</ele>
        <time>2023-12-07T14:13:18.000Z</time>
      </trkpt>
      <trkpt lat="45.9081" lon="4.57683">
        <ele>248.1429</ele>
        <time>2023-12-07T14:13:19.000Z</time>
      </trkpt>
      <trkpt lat="45.90808" lon="4.57673">
        <ele>248.14043</ele>
        <time>2023-12-07T14:13:20.000Z</time>
      </trkpt>
      <trkpt lat="45.90806" lon="4.57666">
        <ele>248.04776</ele>
        <time>2023-12-07T14:13:21.000Z</time>
      </trkpt>
      <trkpt lat="45.90803" lon="4.57656">
        <ele>247.9614</ele>
        <time>2023-12-07T14:13:22.000Z</time>
      </trkpt>
      <trkpt lat="45.908" lon="4.57647">
        <ele>247.9104</ele>
        <time>2023-12-07T14:13:23.000Z</time>
      </trkpt>
      <trkpt lat="45.90797" lon="4.57636">
        <ele>247.85388</ele>
        <time>2023-12-07T14:13:24.000Z</time>
      </trkpt>
      <trkpt lat="45.90796" lon="4.57624">
        <ele>247.71506</ele>
        <time>2023-12-07T14:13:25.000Z</time>
      </trkpt>
      <trkpt lat="45.90794" lon="4.57614">
        <ele>247.65317</ele>
        <time>2023-12-07T14:13:26.000Z</time>
      </trkpt>
      <trkpt lat="45.9079" lon="4.57604">
        <ele>247.56094</ele>
        <time>2023-12-07T14:13:27.000Z</time>
      </trkpt>
      <trkpt lat="45.90788" lon="4.57595">
        <ele>247.46944</ele>
        <time>2023-12-07T14:13:28.000Z</time>
      </trkpt>
      <trkpt lat="45.90786" lon="4.57584">
        <ele>247.35135</ele>
        <time>2023-12-07T14:13:29.000Z</time>
      </trkpt>
      <trkpt lat="45.90782" lon="4.57576">
        <ele>247.21927</ele>
        <time>2023-12-07T14:13:30.000Z</time>
      </trkpt>
      <trkpt lat="45.90778" lon="4.57567">
        <ele>246.85901</ele>
        <time>2023-12-07T14:13:31.000Z</time>
      </trkpt>
      <trkpt lat="45.90773" lon="4.5756">
        <ele>246.46899</ele>
        <time>2023-12-07T14:13:32.000Z</time>
      </trkpt>
      <trkpt lat="45.90768" lon="4.57553">
        <ele>246.04379</ele>
        <time>2023-12-07T14:13:33.000Z</time>
      </trkpt>
      <trkpt lat="45.90764" lon="4.57547">
        <ele>245.62679</ele>
        <time>2023-12-07T14:13:34.000Z</time>
      </trkpt>
      <trkpt lat="45.9076" lon="4.57539">
        <ele>245.15897</ele>
        <time>2023-12-07T14:13:35.000Z</time>
      </trkpt>
      <trkpt lat="45.90757" lon="4.57532">
        <ele>244.65775</ele>
        <time>2023-12-07T14:13:36.000Z</time>
      </trkpt>
      <trkpt lat="45.90755" lon="4.57523">
        <ele>244.23442</ele>
        <time>2023-12-07T14:13:37.000Z</time>
      </trkpt>
      <trkpt lat="45.90753" lon="4.57515">
        <ele>243.83516</ele>
        <time>2023-12-07T14:13:38.000Z</time>
      </trkpt>
      <trkpt lat="45.90752" lon="4.57507">
        <ele>243.29163</ele>
        <time>2023-12-07T14:13:39.000Z</time>
      </trkpt>
      <trkpt lat="45.90752" lon="4.57499">
        <ele>242.80161</ele>
        <time>2023-12-07T14:13:40.000Z</time>
      </trkpt>
      <trkpt lat="45.90752" lon="4.57491">
        <ele>242.38904</ele>
        <time>2023-12-07T14:13:41.000Z</time>
      </trkpt>
      <trkpt lat="45.90752" lon="4.57485">
        <ele>241.98906</ele>
        <time>2023-12-07T14:13:42.000Z</time>
      </trkpt>
      <trkpt lat="45.90752" lon="4.5748">
        <ele>241.61014</ele>
        <time>2023-12-07T14:13:43.000Z</time>
      </trkpt>
      <trkpt lat="45.90753" lon="4.57474">
        <ele>241.22495</ele>
        <time>2023-12-07T14:13:44.000Z</time>
      </trkpt>
      <trkpt lat="45.90752" lon="4.57468">
        <ele>240.88469</ele>
        <time>2023-12-07T14:13:45.000Z</time>
      </trkpt>
      <trkpt lat="45.90752" lon="4.57463">
        <ele>240.44963</ele>
        <time>2023-12-07T14:13:46.000Z</time>
      </trkpt>
      <trkpt lat="45.90752" lon="4.57459">
        <ele>240.02536</ele>
        <time>2023-12-07T14:13:47.000Z</time>
      </trkpt>
      <trkpt lat="45.90751" lon="4.57456">
        <ele>239.62459</ele>
        <time>2023-12-07T14:13:48.000Z</time>
      </trkpt>
      <trkpt lat="45.90749" lon="4.57453">
        <ele>239.27609</ele>
        <time>2023-12-07T14:13:49.000Z</time>
      </trkpt>
      <trkpt lat="45.90747" lon="4.57451">
        <ele>238.94702</ele>
        <time>2023-12-07T14:13:50.000Z</time>
      </trkpt>
      <trkpt lat="45.90745" lon="4.57448">
        <ele>238.65381</ele>
        <time>2023-12-07T14:13:51.000Z</time>
      </trkpt>
      <trkpt lat="45.90743" lon="4.57445">
        <ele>238.37871</ele>
        <time>2023-12-07T14:13:52.000Z</time>
      </trkpt>
      <trkpt lat="45.9074" lon="4.57442">
        <ele>238.13225</ele>
        <time>2023-12-07T14:13:53.000Z</time>
      </trkpt>
      <trkpt lat="45.90737" lon="4.57437">
        <ele>237.92924</ele>
        <time>2023-12-07T14:13:54.000Z</time>
      </trkpt>
      <trkpt lat="45.90735" lon="4.57433">
        <ele>237.72794</ele>
        <time>2023-12-07T14:13:55.000Z</time>
      </trkpt>
      <trkpt lat="45.90733" lon="4.57428">
        <ele>237.54349</ele>
        <time>2023-12-07T14:13:56.000Z</time>
      </trkpt>
      <trkpt lat="45.9073" lon="4.57423">
        <ele>237.34082</ele>
        <time>2023-12-07T14:13:57.000Z</time>
      </trkpt>
      <trkpt lat="45.90729" lon="4.57419">
        <ele>237.16879</ele>
        <time>2023-12-07T14:13:58.000Z</time>
      </trkpt>
      <trkpt lat="45.90727" lon="4.57416">
        <ele>237.01985</ele>
        <time>2023-12-07T14:13:59.000Z</time>
      </trkpt>
      <trkpt lat="45.90725" lon="4.57414">
        <ele>236.86519</ele>
        <time>2023-12-07T14:14:00.000Z</time>
      </trkpt>
      <trkpt lat="45.90723" lon="4.5741">
        <ele>236.71062</ele>
        <time>2023-12-07T14:14:01.000Z</time>
      </trkpt>
      <trkpt lat="45.90721" lon="4.57406">
        <ele>236.56137</ele>
        <time>2023-12-07T14:14:02.000Z</time>
      </trkpt>
      <trkpt lat="45.90718" lon="4.57403">
        <ele>236.39713</ele>
        <time>2023-12-07T14:14:03.000Z</time>
      </trkpt>
      <trkpt lat="45.90715" lon="4.574">
        <ele>236.23018</ele>
        <time>2023-12-07T14:14:04.000Z</time>
      </trkpt>
      <trkpt lat="45.9071" lon="4.57399">
        <ele>236.08557</ele>
        <time>2023-12-07T14:14:05.000Z</time>
      </trkpt>
      <trkpt lat="45.90707" lon="4.57408">
        <ele>235.98579</ele>
        <time>2023-12-07T14:14:06.000Z</time>
      </trkpt>
      <trkpt lat="45.90705" lon="4.57414">
        <ele>235.89265</ele>
        <time>2023-12-07T14:14:07.000Z</time>
      </trkpt>
      <trkpt lat="45.90703" lon="4.5742">
        <ele>235.80664</ele>
        <time>2023-12-07T14:14:08.000Z</time>
      </trkpt>
      <trkpt lat="45.90701" lon="4.57425">
        <ele>235.7225</ele>
        <time>2023-12-07T14:14:09.000Z</time>
      </trkpt>
      <trkpt lat="45.90699" lon="4.5743">
        <ele>235.63168</ele>
        <time>2023-12-07T14:14:10.000Z</time>
      </trkpt>
      <trkpt lat="45.907" lon="4.57433">
        <ele>235.49182</ele>
        <time>2023-12-07T14:14:11.000Z</time>
      </trkpt>
      <trkpt lat="45.90699" lon="4.57436">
        <ele>235.36758</ele>
        <time>2023-12-07T14:14:12.000Z</time>
      </trkpt>
      <trkpt lat="45.90699" lon="4.57438">
        <ele>235.22388</ele>
        <time>2023-12-07T14:14:13.000Z</time>
      </trkpt>
      <trkpt lat="45.90701" lon="4.57439">
        <ele>235.06082</ele>
        <time>2023-12-07T14:14:14.000Z</time>
      </trkpt>
      <trkpt lat="45.90703" lon="4.57433">
        <ele>234.91702</ele>
        <time>2023-12-07T14:14:16.000Z</time>
      </trkpt>
      <trkpt lat="45.90702" lon="4.5743">
        <ele>234.82718</ele>
        <time>2023-12-07T14:14:17.000Z</time>
      </trkpt>
      <trkpt lat="45.90701" lon="4.57426">
        <ele>234.74924</ele>
        <time>2023-12-07T14:14:18.000Z</time>
      </trkpt>
      <trkpt lat="45.90701" lon="4.57423">
        <ele>234.69107</ele>
        <time>2023-12-07T14:14:19.000Z</time>
      </trkpt>
      <trkpt lat="45.90701" lon="4.57419">
        <ele>234.61362</ele>
        <time>2023-12-07T14:14:20.000Z</time>
      </trkpt>
      <trkpt lat="45.90701" lon="4.57416">
        <ele>234.55588</ele>
        <time>2023-12-07T14:14:21.000Z</time>
      </trkpt>
      <trkpt lat="45.90701" lon="4.57413">
        <ele>234.50504</ele>
        <time>2023-12-07T14:14:22.000Z</time>
      </trkpt>
      <trkpt lat="45.907" lon="4.57409">
        <ele>234.41879</ele>
        <time>2023-12-07T14:14:23.000Z</time>
      </trkpt>
      <trkpt lat="45.90698" lon="4.57406">
        <ele>234.32703</ele>
        <time>2023-12-07T14:14:24.000Z</time>
      </trkpt>
      <trkpt lat="45.90695" lon="4.57401">
        <ele>234.29166</ele>
        <time>2023-12-07T14:14:25.000Z</time>
      </trkpt>
      <trkpt lat="45.90692" lon="4.57397">
        <ele>234.26595</ele>
        <time>2023-12-07T14:14:26.000Z</time>
      </trkpt>
      <trkpt lat="45.90689" lon="4.57393">
        <ele>234.24112</ele>
        <time>2023-12-07T14:14:27.000Z</time>
      </trkpt>
      <trkpt lat="45.90685" lon="4.5739">
        <ele>234.2354</ele>
        <time>2023-12-07T14:14:28.000Z</time>
      </trkpt>
      <trkpt lat="45.90679" lon="4.57388">
        <ele>234.25261</ele>
        <time>2023-12-07T14:14:29.000Z</time>
      </trkpt>
      <trkpt lat="45.90674" lon="4.57385">
        <ele>234.25752</ele>
        <time>2023-12-07T14:14:30.000Z</time>
      </trkpt>
      <trkpt lat="45.90671" lon="4.57383">
        <ele>234.28384</ele>
        <time>2023-12-07T14:14:31.000Z</time>
      </trkpt>
      <trkpt lat="45.90667" lon="4.57378">
        <ele>234.38431</ele>
        <time>2023-12-07T14:14:32.000Z</time>
      </trkpt>
      <trkpt lat="45.90662" lon="4.57373">
        <ele>234.50647</ele>
        <time>2023-12-07T14:14:33.000Z</time>
      </trkpt>
      <trkpt lat="45.90659" lon="4.57368">
        <ele>234.65579</ele>
        <time>2023-12-07T14:14:34.000Z</time>
      </trkpt>
      <trkpt lat="45.90656" lon="4.57364">
        <ele>234.78433</ele>
        <time>2023-12-07T14:14:35.000Z</time>
      </trkpt>
      <trkpt lat="45.90651" lon="4.5736">
        <ele>234.89714</ele>
        <time>2023-12-07T14:14:36.000Z</time>
      </trkpt>
      <trkpt lat="45.90647" lon="4.57356">
        <ele>235.00278</ele>
        <time>2023-12-07T14:14:37.000Z</time>
      </trkpt>
      <trkpt lat="45.90643" lon="4.57352">
        <ele>235.14575</ele>
        <time>2023-12-07T14:14:38.000Z</time>
      </trkpt>
      <trkpt lat="45.90637" lon="4.57349">
        <ele>235.2675</ele>
        <time>2023-12-07T14:14:39.000Z</time>
      </trkpt>
      <trkpt lat="45.90632" lon="4.57346">
        <ele>235.39543</ele>
        <time>2023-12-07T14:14:40.000Z</time>
      </trkpt>
      <trkpt lat="45.90626" lon="4.57343">
        <ele>235.47958</ele>
        <time>2023-12-07T14:14:41.000Z</time>
      </trkpt>
      <trkpt lat="45.90621" lon="4.57341">
        <ele>235.57088</ele>
        <time>2023-12-07T14:14:42.000Z</time>
      </trkpt>
      <trkpt lat="45.90616" lon="4.57339">
        <ele>235.71204</ele>
        <time>2023-12-07T14:14:43.000Z</time>
      </trkpt>
      <trkpt lat="45.90611" lon="4.57338">
        <ele>235.8521</ele>
        <time>2023-12-07T14:14:44.000Z</time>
      </trkpt>
      <trkpt lat="45.90606" lon="4.57338">
        <ele>235.95454</ele>
        <time>2023-12-07T14:14:45.000Z</time>
      </trkpt>
      <trkpt lat="45.906" lon="4.57338">
        <ele>236.04468</ele>
        <time>2023-12-07T14:14:46.000Z</time>
      </trkpt>
      <trkpt lat="45.90595" lon="4.57337">
        <ele>236.10747</ele>
        <time>2023-12-07T14:14:47.000Z</time>
      </trkpt>
      <trkpt lat="45.9059" lon="4.57337">
        <ele>236.13518</ele>
        <time>2023-12-07T14:14:48.000Z</time>
      </trkpt>
      <trkpt lat="45.90585" lon="4.57336">
        <ele>236.14539</ele>
        <time>2023-12-07T14:14:49.000Z</time>
      </trkpt>
      <trkpt lat="45.9058" lon="4.57333">
        <ele>236.18747</ele>
        <time>2023-12-07T14:14:50.000Z</time>
      </trkpt>
      <trkpt lat="45.90575" lon="4.57331">
        <ele>236.2225</ele>
        <time>2023-12-07T14:14:51.000Z</time>
      </trkpt>
      <trkpt lat="45.90571" lon="4.57327">
        <ele>236.21577</ele>
        <time>2023-12-07T14:14:52.000Z</time>
      </trkpt>
      <trkpt lat="45.90566" lon="4.57326">
        <ele>236.18042</ele>
        <time>2023-12-07T14:14:53.000Z</time>
      </trkpt>
      <trkpt lat="45.90561" lon="4.57327">
        <ele>236.08472</ele>
        <time>2023-12-07T14:14:54.000Z</time>
      </trkpt>
      <trkpt lat="45.90557" lon="4.57327">
        <ele>236.03413</ele>
        <time>2023-12-07T14:14:55.000Z</time>
      </trkpt>
      <trkpt lat="45.90553" lon="4.57327">
        <ele>235.98886</ele>
        <time>2023-12-07T14:14:56.000Z</time>
      </trkpt>
      <trkpt lat="45.9055" lon="4.57326">
        <ele>235.90559</ele>
        <time>2023-12-07T14:14:57.000Z</time>
      </trkpt>
      <trkpt lat="45.90546" lon="4.57327">
        <ele>235.84407</ele>
        <time>2023-12-07T14:14:58.000Z</time>
      </trkpt>
      <trkpt lat="45.90543" lon="4.57332">
        <ele>235.81577</ele>
        <time>2023-12-07T14:14:59.000Z</time>
      </trkpt>
      <trkpt lat="45.9054" lon="4.57334">
        <ele>235.8011</ele>
        <time>2023-12-07T14:15:00.000Z</time>
      </trkpt>
      <trkpt lat="45.90536" lon="4.57335">
        <ele>235.80432</ele>
        <time>2023-12-07T14:15:01.000Z</time>
      </trkpt>
      <trkpt lat="45.9053" lon="4.57337">
        <ele>235.81253</ele>
        <time>2023-12-07T14:15:02.000Z</time>
      </trkpt>
      <trkpt lat="45.90526" lon="4.57339">
        <ele>235.81375</ele>
        <time>2023-12-07T14:15:03.000Z</time>
      </trkpt>
      <trkpt lat="45.90521" lon="4.57338">
        <ele>235.84875</ele>
        <time>2023-12-07T14:15:04.000Z</time>
      </trkpt>
      <trkpt lat="45.90517" lon="4.57338">
        <ele>235.90683</ele>
        <time>2023-12-07T14:15:05.000Z</time>
      </trkpt>
      <trkpt lat="45.90513" lon="4.57338">
        <ele>235.9583</ele>
        <time>2023-12-07T14:15:06.000Z</time>
      </trkpt>
      <trkpt lat="45.90508" lon="4.57337">
        <ele>236.02669</ele>
        <time>2023-12-07T14:15:07.000Z</time>
      </trkpt>
      <trkpt lat="45.90505" lon="4.57336">
        <ele>236.14021</ele>
        <time>2023-12-07T14:15:08.000Z</time>
      </trkpt>
      <trkpt lat="45.90499" lon="4.57334">
        <ele>236.24271</ele>
        <time>2023-12-07T14:15:09.000Z</time>
      </trkpt>
      <trkpt lat="45.90496" lon="4.57334">
        <ele>236.35519</ele>
        <time>2023-12-07T14:15:10.000Z</time>
      </trkpt>
      <trkpt lat="45.90492" lon="4.57332">
        <ele>236.4939</ele>
        <time>2023-12-07T14:15:11.000Z</time>
      </trkpt>
      <trkpt lat="45.90489" lon="4.57329">
        <ele>236.62085</ele>
        <time>2023-12-07T14:15:12.000Z</time>
      </trkpt>
      <trkpt lat="45.90486" lon="4.57325">
        <ele>236.73941</ele>
        <time>2023-12-07T14:15:13.000Z</time>
      </trkpt>
      <trkpt lat="45.90483" lon="4.57323">
        <ele>236.89185</ele>
        <time>2023-12-07T14:15:14.000Z</time>
      </trkpt>
      <trkpt lat="45.90481" lon="4.57321">
        <ele>237.0511</ele>
        <time>2023-12-07T14:15:15.000Z</time>
      </trkpt>
      <trkpt lat="45.90479" lon="4.57317">
        <ele>237.23152</ele>
        <time>2023-12-07T14:15:16.000Z</time>
      </trkpt>
      <trkpt lat="45.90477" lon="4.57313">
        <ele>237.44402</ele>
        <time>2023-12-07T14:15:17.000Z</time>
      </trkpt>
      <trkpt lat="45.90475" lon="4.5731">
        <ele>237.61382</ele>
        <time>2023-12-07T14:15:18.000Z</time>
      </trkpt>
      <trkpt lat="45.90474" lon="4.57307">
        <ele>237.80283</ele>
        <time>2023-12-07T14:15:19.000Z</time>
      </trkpt>
      <trkpt lat="45.90472" lon="4.57304">
        <ele>238.01791</ele>
        <time>2023-12-07T14:15:20.000Z</time>
      </trkpt>
      <trkpt lat="45.9047" lon="4.573">
        <ele>238.21481</ele>
        <time>2023-12-07T14:15:21.000Z</time>
      </trkpt>
      <trkpt lat="45.90468" lon="4.57297">
        <ele>238.40828</ele>
        <time>2023-12-07T14:15:22.000Z</time>
      </trkpt>
      <trkpt lat="45.90466" lon="4.57293">
        <ele>238.61858</ele>
        <time>2023-12-07T14:15:23.000Z</time>
      </trkpt>
      <trkpt lat="45.90463" lon="4.57289">
        <ele>238.86145</ele>
        <time>2023-12-07T14:15:24.000Z</time>
      </trkpt>
      <trkpt lat="45.9046" lon="4.57286">
        <ele>239.09343</ele>
        <time>2023-12-07T14:15:25.000Z</time>
      </trkpt>
      <trkpt lat="45.90457" lon="4.57284">
        <ele>239.326</ele>
        <time>2023-12-07T14:15:26.000Z</time>
      </trkpt>
      <trkpt lat="45.90455" lon="4.57281">
        <ele>239.55913</ele>
        <time>2023-12-07T14:15:27.000Z</time>
      </trkpt>
      <trkpt lat="45.90452" lon="4.57278">
        <ele>239.74814</ele>
        <time>2023-12-07T14:15:28.000Z</time>
      </trkpt>
      <trkpt lat="45.9045" lon="4.57276">
        <ele>239.92883</ele>
        <time>2023-12-07T14:15:29.000Z</time>
      </trkpt>
      <trkpt lat="45.90447" lon="4.57273">
        <ele>240.06633</ele>
        <time>2023-12-07T14:15:31.000Z</time>
      </trkpt>
      <trkpt lat="45.90444" lon="4.57274">
        <ele>240.16162</ele>
        <time>2023-12-07T14:15:33.000Z</time>
      </trkpt>
      <trkpt lat="45.90444" lon="4.57279">
        <ele>240.25034</ele>
        <time>2023-12-07T14:15:35.000Z</time>
      </trkpt>
      <trkpt lat="45.90445" lon="4.57283">
        <ele>240.38266</ele>
        <time>2023-12-07T14:15:36.000Z</time>
      </trkpt>
      <trkpt lat="45.90447" lon="4.57287">
        <ele>240.48459</ele>
        <time>2023-12-07T14:15:37.000Z</time>
      </trkpt>
      <trkpt lat="45.90447" lon="4.5729">
        <ele>240.59578</ele>
        <time>2023-12-07T14:15:38.000Z</time>
      </trkpt>
      <trkpt lat="45.90448" lon="4.57294">
        <ele>240.70891</ele>
        <time>2023-12-07T14:15:39.000Z</time>
      </trkpt>
      <trkpt lat="45.90448" lon="4.57297">
        <ele>240.84079</ele>
        <time>2023-12-07T14:15:40.000Z</time>
      </trkpt>
      <trkpt lat="45.90448" lon="4.57301">
        <ele>240.96176</ele>
        <time>2023-12-07T14:15:41.000Z</time>
      </trkpt>
      <trkpt lat="45.90446" lon="4.57305">
        <ele>240.96005</ele>
        <time>2023-12-07T14:15:42.000Z</time>
      </trkpt>
      <trkpt lat="45.90445" lon="4.57309">
        <ele>240.89351</ele>
        <time>2023-12-07T14:15:43.000Z</time>
      </trkpt>
      <trkpt lat="45.90443" lon="4.57312">
        <ele>240.95108</ele>
        <time>2023-12-07T14:15:44.000Z</time>
      </trkpt>
      <trkpt lat="45.90441" lon="4.57314">
        <ele>241.02022</ele>
        <time>2023-12-07T14:15:45.000Z</time>
      </trkpt>
      <trkpt lat="45.90439" lon="4.57317">
        <ele>241.09351</ele>
        <time>2023-12-07T14:15:46.000Z</time>
      </trkpt>
      <trkpt lat="45.90438" lon="4.57319">
        <ele>241.12581</ele>
        <time>2023-12-07T14:15:47.000Z</time>
      </trkpt>
      <trkpt lat="45.90434" lon="4.57321">
        <ele>241.15166</ele>
        <time>2023-12-07T14:15:49.000Z</time>
      </trkpt>
      <trkpt lat="45.90432" lon="4.57321">
        <ele>241.15251</ele>
        <time>2023-12-07T14:15:50.000Z</time>
      </trkpt>
      <trkpt lat="45.9043" lon="4.57323">
        <ele>241.18152</ele>
        <time>2023-12-07T14:15:51.000Z</time>
      </trkpt>
      <trkpt lat="45.90428" lon="4.57325">
        <ele>241.25967</ele>
        <time>2023-12-07T14:15:52.000Z</time>
      </trkpt>
      <trkpt lat="45.90427" lon="4.5733">
        <ele>241.384</ele>
        <time>2023-12-07T14:15:54.000Z</time>
      </trkpt>
      <trkpt lat="45.90427" lon="4.57333">
        <ele>241.45659</ele>
        <time>2023-12-07T14:15:55.000Z</time>
      </trkpt>
      <trkpt lat="45.90426" lon="4.57336">
        <ele>241.54326</ele>
        <time>2023-12-07T14:15:56.000Z</time>
      </trkpt>
      <trkpt lat="45.90426" lon="4.57339">
        <ele>241.62959</ele>
        <time>2023-12-07T14:15:57.000Z</time>
      </trkpt>
      <trkpt lat="45.90425" lon="4.57343">
        <ele>241.69783</ele>
        <time>2023-12-07T14:15:58.000Z</time>
      </trkpt>
      <trkpt lat="45.90424" lon="4.57346">
        <ele>241.9487</ele>
        <time>2023-12-07T14:15:59.000Z</time>
      </trkpt>
      <trkpt lat="45.90423" lon="4.5735">
        <ele>242.14182</ele>
        <time>2023-12-07T14:16:00.000Z</time>
      </trkpt>
      <trkpt lat="45.90422" lon="4.57354">
        <ele>242.36316</ele>
        <time>2023-12-07T14:16:01.000Z</time>
      </trkpt>
      <trkpt lat="45.9042" lon="4.57357">
        <ele>242.49898</ele>
        <time>2023-12-07T14:16:02.000Z</time>
      </trkpt>
      <trkpt lat="45.90417" lon="4.5736">
        <ele>242.67041</ele>
        <time>2023-12-07T14:16:03.000Z</time>
      </trkpt>
      <trkpt lat="45.90415" lon="4.57362">
        <ele>242.97449</ele>
        <time>2023-12-07T14:16:04.000Z</time>
      </trkpt>
      <trkpt lat="45.90413" lon="4.57365">
        <ele>243.36435</ele>
        <time>2023-12-07T14:16:05.000Z</time>
      </trkpt>
      <trkpt lat="45.90412" lon="4.57367">
        <ele>243.84143</ele>
        <time>2023-12-07T14:16:06.000Z</time>
      </trkpt>
      <trkpt lat="45.9041" lon="4.57369">
        <ele>244.29202</ele>
        <time>2023-12-07T14:16:07.000Z</time>
      </trkpt>
      <trkpt lat="45.90408" lon="4.57371">
        <ele>244.77933</ele>
        <time>2023-12-07T14:16:08.000Z</time>
      </trkpt>
      <trkpt lat="45.90406" lon="4.57373">
        <ele>245.28296</ele>
        <time>2023-12-07T14:16:09.000Z</time>
      </trkpt>
      <trkpt lat="45.90404" lon="4.57374">
        <ele>245.74504</ele>
        <time>2023-12-07T14:16:10.000Z</time>
      </trkpt>
      <trkpt lat="45.90401" lon="4.57377">
        <ele>246.24686</ele>
        <time>2023-12-07T14:16:12.000Z</time>
      </trkpt>
      <trkpt lat="45.90399" lon="4.57378">
        <ele>246.71408</ele>
        <time>2023-12-07T14:16:13.000Z</time>
      </trkpt>
      <trkpt lat="45.90397" lon="4.5738">
        <ele>247.07864</ele>
        <time>2023-12-07T14:16:14.000Z</time>
      </trkpt>
      <trkpt lat="45.90395" lon="4.57381">
        <ele>247.35925</ele>
        <time>2023-12-07T14:16:15.000Z</time>
      </trkpt>
      <trkpt lat="45.90393" lon="4.57383">
        <ele>247.95337</ele>
        <time>2023-12-07T14:16:16.000Z</time>
      </trkpt>
      <trkpt lat="45.90391" lon="4.57384">
        <ele>248.51668</ele>
        <time>2023-12-07T14:16:17.000Z</time>
      </trkpt>
      <trkpt lat="45.90389" lon="4.57386">
        <ele>249.08997</ele>
        <time>2023-12-07T14:16:18.000Z</time>
      </trkpt>
      <trkpt lat="45.90387" lon="4.57388">
        <ele>249.63553</ele>
        <time>2023-12-07T14:16:19.000Z</time>
      </trkpt>
      <trkpt lat="45.90386" lon="4.5739">
        <ele>250.04805</ele>
        <time>2023-12-07T14:16:20.000Z</time>
      </trkpt>
      <trkpt lat="45.90384" lon="4.57392">
        <ele>250.55481</ele>
        <time>2023-12-07T14:16:21.000Z</time>
      </trkpt>
      <trkpt lat="45.90382" lon="4.57394">
        <ele>251.0385</ele>
        <time>2023-12-07T14:16:22.000Z</time>
      </trkpt>
      <trkpt lat="45.90381" lon="4.57396">
        <ele>251.5909</ele>
        <time>2023-12-07T14:16:23.000Z</time>
      </trkpt>
      <trkpt lat="45.90379" lon="4.57398">
        <ele>252.14421</ele>
        <time>2023-12-07T14:16:24.000Z</time>
      </trkpt>
      <trkpt lat="45.90377" lon="4.57399">
        <ele>252.62862</ele>
        <time>2023-12-07T14:16:25.000Z</time>
      </trkpt>
      <trkpt lat="45.90375" lon="4.574">
        <ele>253.03101</ele>
        <time>2023-12-07T14:16:26.000Z</time>
      </trkpt>
      <trkpt lat="45.90374" lon="4.57402">
        <ele>253.29231</ele>
        <time>2023-12-07T14:16:27.000Z</time>
      </trkpt>
      <trkpt lat="45.90372" lon="4.57403">
        <ele>253.56229</ele>
        <time>2023-12-07T14:16:28.000Z</time>
      </trkpt>
      <trkpt lat="45.9037" lon="4.57405">
        <ele>253.78064</ele>
        <time>2023-12-07T14:16:29.000Z</time>
      </trkpt>
      <trkpt lat="45.90368" lon="4.57407">
        <ele>254.02811</ele>
        <time>2023-12-07T14:16:30.000Z</time>
      </trkpt>
      <trkpt lat="45.90366" lon="4.57409">
        <ele>254.30782</ele>
        <time>2023-12-07T14:16:31.000Z</time>
      </trkpt>
      <trkpt lat="45.90364" lon="4.57411">
        <ele>254.55217</ele>
        <time>2023-12-07T14:16:32.000Z</time>
      </trkpt>
      <trkpt lat="45.90362" lon="4.57413">
        <ele>254.67502</ele>
        <time>2023-12-07T14:16:33.000Z</time>
      </trkpt>
      <trkpt lat="45.9036" lon="4.57415">
        <ele>254.88228</ele>
        <time>2023-12-07T14:16:34.000Z</time>
      </trkpt>
      <trkpt lat="45.90359" lon="4.57418">
        <ele>255.40894</ele>
        <time>2023-12-07T14:16:35.000Z</time>
      </trkpt>
      <trkpt lat="45.90357" lon="4.5742">
        <ele>255.65482</ele>
        <time>2023-12-07T14:16:36.000Z</time>
      </trkpt>
      <trkpt lat="45.90355" lon="4.57422">
        <ele>255.94145</ele>
        <time>2023-12-07T14:16:37.000Z</time>
      </trkpt>
      <trkpt lat="45.90353" lon="4.57424">
        <ele>256.23395</ele>
        <time>2023-12-07T14:16:38.000Z</time>
      </trkpt>
      <trkpt lat="45.90351" lon="4.57426">
        <ele>256.57138</ele>
        <time>2023-12-07T14:16:39.000Z</time>
      </trkpt>
      <trkpt lat="45.90349" lon="4.57428">
        <ele>256.85953</ele>
        <time>2023-12-07T14:16:40.000Z</time>
      </trkpt>
      <trkpt lat="45.90348" lon="4.5743">
        <ele>257.05734</ele>
        <time>2023-12-07T14:16:41.000Z</time>
      </trkpt>
      <trkpt lat="45.90346" lon="4.57432">
        <ele>257.26312</ele>
        <time>2023-12-07T14:16:42.000Z</time>
      </trkpt>
      <trkpt lat="45.90344" lon="4.57434">
        <ele>257.47528</ele>
        <time>2023-12-07T14:16:43.000Z</time>
      </trkpt>
      <trkpt lat="45.90342" lon="4.57436">
        <ele>257.65445</ele>
        <time>2023-12-07T14:16:44.000Z</time>
      </trkpt>
      <trkpt lat="45.90341" lon="4.57438">
        <ele>257.87463</ele>
        <time>2023-12-07T14:16:45.000Z</time>
      </trkpt>
      <trkpt lat="45.90339" lon="4.5744">
        <ele>258.1113</ele>
        <time>2023-12-07T14:16:46.000Z</time>
      </trkpt>
      <trkpt lat="45.90337" lon="4.57442">
        <ele>258.33636</ele>
        <time>2023-12-07T14:16:47.000Z</time>
      </trkpt>
      <trkpt lat="45.90335" lon="4.57444">
        <ele>258.56836</ele>
        <time>2023-12-07T14:16:48.000Z</time>
      </trkpt>
      <trkpt lat="45.90333" lon="4.57445">
        <ele>258.78387</ele>
        <time>2023-12-07T14:16:49.000Z</time>
      </trkpt>
      <trkpt lat="45.90331" lon="4.57447">
        <ele>258.76291</ele>
        <time>2023-12-07T14:16:50.000Z</time>
      </trkpt>
      <trkpt lat="45.90329" lon="4.57449">
        <ele>258.73099</ele>
        <time>2023-12-07T14:16:51.000Z</time>
      </trkpt>
      <trkpt lat="45.90327" lon="4.5745">
        <ele>258.72736</ele>
        <time>2023-12-07T14:16:52.000Z</time>
      </trkpt>
      <trkpt lat="45.90325" lon="4.57452">
        <ele>259.10855</ele>
        <time>2023-12-07T14:16:53.000Z</time>
      </trkpt>
      <trkpt lat="45.90322" lon="4.57454">
        <ele>259.42569</ele>
        <time>2023-12-07T14:16:54.000Z</time>
      </trkpt>
      <trkpt lat="45.9032" lon="4.57455">
        <ele>259.45963</ele>
        <time>2023-12-07T14:16:55.000Z</time>
      </trkpt>
      <trkpt lat="45.90318" lon="4.57457">
        <ele>259.54221</ele>
        <time>2023-12-07T14:16:56.000Z</time>
      </trkpt>
      <trkpt lat="45.90315" lon="4.57458">
        <ele>259.59158</ele>
        <time>2023-12-07T14:16:57.000Z</time>
      </trkpt>
      <trkpt lat="45.90312" lon="4.57459">
        <ele>259.672</ele>
        <time>2023-12-07T14:16:58.000Z</time>
      </trkpt>
      <trkpt lat="45.9031" lon="4.57461">
        <ele>259.7005</ele>
        <time>2023-12-07T14:16:59.000Z</time>
      </trkpt>
      <trkpt lat="45.90307" lon="4.57462">
        <ele>259.77072</ele>
        <time>2023-12-07T14:17:00.000Z</time>
      </trkpt>
      <trkpt lat="45.90304" lon="4.57464">
        <ele>259.85678</ele>
        <time>2023-12-07T14:17:01.000Z</time>
      </trkpt>
      <trkpt lat="45.90301" lon="4.57466">
        <ele>259.89758</ele>
        <time>2023-12-07T14:17:02.000Z</time>
      </trkpt>
      <trkpt lat="45.90299" lon="4.57468">
        <ele>259.93082</ele>
        <time>2023-12-07T14:17:03.000Z</time>
      </trkpt>
      <trkpt lat="45.90295" lon="4.57469">
        <ele>259.98749</ele>
        <time>2023-12-07T14:17:04.000Z</time>
      </trkpt>
      <trkpt lat="45.90292" lon="4.57471">
        <ele>260.00726</ele>
        <time>2023-12-07T14:17:05.000Z</time>
      </trkpt>
      <trkpt lat="45.90289" lon="4.57473">
        <ele>260.06964</ele>
        <time>2023-12-07T14:17:06.000Z</time>
      </trkpt>
      <trkpt lat="45.90286" lon="4.57474">
        <ele>260.09735</ele>
        <time>2023-12-07T14:17:07.000Z</time>
      </trkpt>
      <trkpt lat="45.90282" lon="4.57476">
        <ele>260.11005</ele>
        <time>2023-12-07T14:17:08.000Z</time>
      </trkpt>
      <trkpt lat="45.90279" lon="4.57478">
        <ele>260.11511</ele>
        <time>2023-12-07T14:17:09.000Z</time>
      </trkpt>
      <trkpt lat="45.90276" lon="4.5748">
        <ele>260.30563</ele>
        <time>2023-12-07T14:17:10.000Z</time>
      </trkpt>
      <trkpt lat="45.90272" lon="4.57481">
        <ele>260.53424</ele>
        <time>2023-12-07T14:17:11.000Z</time>
      </trkpt>
      <trkpt lat="45.90269" lon="4.57483">
        <ele>260.74237</ele>
        <time>2023-12-07T14:17:12.000Z</time>
      </trkpt>
      <trkpt lat="45.90266" lon="4.57484">
        <ele>260.7287</ele>
        <time>2023-12-07T14:17:13.000Z</time>
      </trkpt>
      <trkpt lat="45.90263" lon="4.57486">
        <ele>260.77377</ele>
        <time>2023-12-07T14:17:14.000Z</time>
      </trkpt>
      <trkpt lat="45.9026" lon="4.57487">
        <ele>260.83533</ele>
        <time>2023-12-07T14:17:15.000Z</time>
      </trkpt>
      <trkpt lat="45.90256" lon="4.57489">
        <ele>260.87485</ele>
        <time>2023-12-07T14:17:16.000Z</time>
      </trkpt>
      <trkpt lat="45.90253" lon="4.5749">
        <ele>260.94656</ele>
        <time>2023-12-07T14:17:17.000Z</time>
      </trkpt>
      <trkpt lat="45.9025" lon="4.57492">
        <ele>261.02902</ele>
        <time>2023-12-07T14:17:18.000Z</time>
      </trkpt>
      <trkpt lat="45.90246" lon="4.57493">
        <ele>261.11185</ele>
        <time>2023-12-07T14:17:19.000Z</time>
      </trkpt>
      <trkpt lat="45.90243" lon="4.57495">
        <ele>261.19275</ele>
        <time>2023-12-07T14:17:20.000Z</time>
      </trkpt>
      <trkpt lat="45.90239" lon="4.57497">
        <ele>261.28223</ele>
        <time>2023-12-07T14:17:21.000Z</time>
      </trkpt>
      <trkpt lat="45.90236" lon="4.57498">
        <ele>261.3631</ele>
        <time>2023-12-07T14:17:22.000Z</time>
      </trkpt>
      <trkpt lat="45.90232" lon="4.57501">
        <ele>261.41254</ele>
        <time>2023-12-07T14:17:23.000Z</time>
      </trkpt>
      <trkpt lat="45.90229" lon="4.57503">
        <ele>261.48492</ele>
        <time>2023-12-07T14:17:24.000Z</time>
      </trkpt>
      <trkpt lat="45.90225" lon="4.57505">
        <ele>261.56219</ele>
        <time>2023-12-07T14:17:25.000Z</time>
      </trkpt>
      <trkpt lat="45.90222" lon="4.57507">
        <ele>261.60043</ele>
        <time>2023-12-07T14:17:26.000Z</time>
      </trkpt>
      <trkpt lat="45.90218" lon="4.57509">
        <ele>261.64764</ele>
        <time>2023-12-07T14:17:27.000Z</time>
      </trkpt>
      <trkpt lat="45.90215" lon="4.57511">
        <ele>261.69553</ele>
        <time>2023-12-07T14:17:28.000Z</time>
      </trkpt>
      <trkpt lat="45.90211" lon="4.57514">
        <ele>261.77188</ele>
        <time>2023-12-07T14:17:29.000Z</time>
      </trkpt>
      <trkpt lat="45.90207" lon="4.57516">
        <ele>261.8548</ele>
        <time>2023-12-07T14:17:30.000Z</time>
      </trkpt>
      <trkpt lat="45.90203" lon="4.57519">
        <ele>261.91083</ele>
        <time>2023-12-07T14:17:31.000Z</time>
      </trkpt>
      <trkpt lat="45.902" lon="4.57521">
        <ele>261.9892</ele>
        <time>2023-12-07T14:17:32.000Z</time>
      </trkpt>
      <trkpt lat="45.90196" lon="4.57523">
        <ele>262.03616</ele>
        <time>2023-12-07T14:17:33.000Z</time>
      </trkpt>
      <trkpt lat="45.9019" lon="4.57525">
        <ele>262.06525</ele>
        <time>2023-12-07T14:17:34.000Z</time>
      </trkpt>
      <trkpt lat="45.90184" lon="4.57527">
        <ele>262.06012</ele>
        <time>2023-12-07T14:17:35.000Z</time>
      </trkpt>
      <trkpt lat="45.9018" lon="4.57529">
        <ele>262.06342</ele>
        <time>2023-12-07T14:17:36.000Z</time>
      </trkpt>
      <trkpt lat="45.90176" lon="4.57531">
        <ele>262.05005</ele>
        <time>2023-12-07T14:17:37.000Z</time>
      </trkpt>
      <trkpt lat="45.90171" lon="4.57533">
        <ele>261.88202</ele>
        <time>2023-12-07T14:17:38.000Z</time>
      </trkpt>
      <trkpt lat="45.90167" lon="4.57536">
        <ele>261.71896</ele>
        <time>2023-12-07T14:17:39.000Z</time>
      </trkpt>
      <trkpt lat="45.90163" lon="4.57539">
        <ele>261.54846</ele>
        <time>2023-12-07T14:17:40.000Z</time>
      </trkpt>
      <trkpt lat="45.90159" lon="4.5754">
        <ele>261.38095</ele>
        <time>2023-12-07T14:17:41.000Z</time>
      </trkpt>
      <trkpt lat="45.90154" lon="4.57543">
        <ele>261.25366</ele>
        <time>2023-12-07T14:17:42.000Z</time>
      </trkpt>
      <trkpt lat="45.9015" lon="4.57545">
        <ele>261.08792</ele>
        <time>2023-12-07T14:17:43.000Z</time>
      </trkpt>
      <trkpt lat="45.90145" lon="4.57548">
        <ele>260.85858</ele>
        <time>2023-12-07T14:17:44.000Z</time>
      </trkpt>
      <trkpt lat="45.90141" lon="4.5755">
        <ele>260.63541</ele>
        <time>2023-12-07T14:17:45.000Z</time>
      </trkpt>
      <trkpt lat="45.90137" lon="4.57553">
        <ele>260.73651</ele>
        <time>2023-12-07T14:17:46.000Z</time>
      </trkpt>
      <trkpt lat="45.90133" lon="4.57556">
        <ele>260.76172</ele>
        <time>2023-12-07T14:17:47.000Z</time>
      </trkpt>
      <trkpt lat="45.90127" lon="4.57559">
        <ele>260.78061</ele>
        <time>2023-12-07T14:17:48.000Z</time>
      </trkpt>
      <trkpt lat="45.90123" lon="4.57562">
        <ele>260.75882</ele>
        <time>2023-12-07T14:17:49.000Z</time>
      </trkpt>
      <trkpt lat="45.90118" lon="4.57566">
        <ele>260.73596</ele>
        <time>2023-12-07T14:17:50.000Z</time>
      </trkpt>
      <trkpt lat="45.90114" lon="4.57568">
        <ele>260.77841</ele>
        <time>2023-12-07T14:17:51.000Z</time>
      </trkpt>
      <trkpt lat="45.90109" lon="4.57572">
        <ele>260.83624</ele>
        <time>2023-12-07T14:17:52.000Z</time>
      </trkpt>
      <trkpt lat="45.90105" lon="4.57576">
        <ele>260.91129</ele>
        <time>2023-12-07T14:17:53.000Z</time>
      </trkpt>
      <trkpt lat="45.901" lon="4.57579">
        <ele>260.99597</ele>
        <time>2023-12-07T14:17:54.000Z</time>
      </trkpt>
      <trkpt lat="45.90096" lon="4.57583">
        <ele>261.07532</ele>
        <time>2023-12-07T14:17:55.000Z</time>
      </trkpt>
      <trkpt lat="45.90091" lon="4.57587">
        <ele>261.14984</ele>
        <time>2023-12-07T14:17:56.000Z</time>
      </trkpt>
      <trkpt lat="45.90087" lon="4.5759">
        <ele>261.23926</ele>
        <time>2023-12-07T14:17:57.000Z</time>
      </trkpt>
      <trkpt lat="45.90084" lon="4.57594">
        <ele>261.5228</ele>
        <time>2023-12-07T14:17:58.000Z</time>
      </trkpt>
      <trkpt lat="45.90082" lon="4.57599">
        <ele>261.81348</ele>
        <time>2023-12-07T14:17:59.000Z</time>
      </trkpt>
      <trkpt lat="45.90079" lon="4.57605">
        <ele>262.11554</ele>
        <time>2023-12-07T14:18:00.000Z</time>
      </trkpt>
      <trkpt lat="45.90077" lon="4.57611">
        <ele>262.36615</ele>
        <time>2023-12-07T14:18:01.000Z</time>
      </trkpt>
      <trkpt lat="45.90074" lon="4.5762">
        <ele>262.58881</ele>
        <time>2023-12-07T14:18:02.000Z</time>
      </trkpt>
      <trkpt lat="45.90073" lon="4.57625">
        <ele>262.84283</ele>
        <time>2023-12-07T14:18:03.000Z</time>
      </trkpt>
      <trkpt lat="45.9007" lon="4.57632">
        <ele>263.11551</ele>
        <time>2023-12-07T14:18:04.000Z</time>
      </trkpt>
      <trkpt lat="45.90069" lon="4.5764">
        <ele>263.40738</ele>
        <time>2023-12-07T14:18:05.000Z</time>
      </trkpt>
      <trkpt lat="45.90067" lon="4.57646">
        <ele>263.38995</ele>
        <time>2023-12-07T14:18:06.000Z</time>
      </trkpt>
      <trkpt lat="45.90064" lon="4.57652">
        <ele>263.41956</ele>
        <time>2023-12-07T14:18:07.000Z</time>
      </trkpt>
      <trkpt lat="45.90062" lon="4.57659">
        <ele>263.49585</ele>
        <time>2023-12-07T14:18:08.000Z</time>
      </trkpt>
      <trkpt lat="45.90061" lon="4.57665">
        <ele>263.60901</ele>
        <time>2023-12-07T14:18:09.000Z</time>
      </trkpt>
      <trkpt lat="45.90058" lon="4.57671">
        <ele>263.73981</ele>
        <time>2023-12-07T14:18:10.000Z</time>
      </trkpt>
      <trkpt lat="45.90056" lon="4.57678">
        <ele>263.86292</ele>
        <time>2023-12-07T14:18:11.000Z</time>
      </trkpt>
      <trkpt lat="45.90054" lon="4.57685">
        <ele>263.991</ele>
        <time>2023-12-07T14:18:12.000Z</time>
      </trkpt>
      <trkpt lat="45.90052" lon="4.57692">
        <ele>264.08658</ele>
        <time>2023-12-07T14:18:13.000Z</time>
      </trkpt>
      <trkpt lat="45.90049" lon="4.57699">
        <ele>264.20966</ele>
        <time>2023-12-07T14:18:14.000Z</time>
      </trkpt>
      <trkpt lat="45.90046" lon="4.57706">
        <ele>264.34204</ele>
        <time>2023-12-07T14:18:15.000Z</time>
      </trkpt>
      <trkpt lat="45.90045" lon="4.57713">
        <ele>264.47577</ele>
        <time>2023-12-07T14:18:16.000Z</time>
      </trkpt>
      <trkpt lat="45.90042" lon="4.57721">
        <ele>264.61423</ele>
        <time>2023-12-07T14:18:17.000Z</time>
      </trkpt>
      <trkpt lat="45.9004" lon="4.57727">
        <ele>264.6673</ele>
        <time>2023-12-07T14:18:18.000Z</time>
      </trkpt>
      <trkpt lat="45.90038" lon="4.57734">
        <ele>264.72205</ele>
        <time>2023-12-07T14:18:19.000Z</time>
      </trkpt>
      <trkpt lat="45.90036" lon="4.57741">
        <ele>264.78391</ele>
        <time>2023-12-07T14:18:20.000Z</time>
      </trkpt>
      <trkpt lat="45.90034" lon="4.57748">
        <ele>264.88092</ele>
        <time>2023-12-07T14:18:21.000Z</time>
      </trkpt>
      <trkpt lat="45.90031" lon="4.57755">
        <ele>264.98322</ele>
        <time>2023-12-07T14:18:22.000Z</time>
      </trkpt>
      <trkpt lat="45.90029" lon="4.57761">
        <ele>265.07706</ele>
        <time>2023-12-07T14:18:23.000Z</time>
      </trkpt>
      <trkpt lat="45.90027" lon="4.57767">
        <ele>265.17642</ele>
        <time>2023-12-07T14:18:24.000Z</time>
      </trkpt>
      <trkpt lat="45.90025" lon="4.57775">
        <ele>265.29706</ele>
        <time>2023-12-07T14:18:25.000Z</time>
      </trkpt>
      <trkpt lat="45.90022" lon="4.57782">
        <ele>265.37399</ele>
        <time>2023-12-07T14:18:26.000Z</time>
      </trkpt>
      <trkpt lat="45.9002" lon="4.57789">
        <ele>265.46869</ele>
        <time>2023-12-07T14:18:27.000Z</time>
      </trkpt>
      <trkpt lat="45.90018" lon="4.57796">
        <ele>265.53131</ele>
        <time>2023-12-07T14:18:28.000Z</time>
      </trkpt>
      <trkpt lat="45.90016" lon="4.57804">
        <ele>265.57465</ele>
        <time>2023-12-07T14:18:29.000Z</time>
      </trkpt>
      <trkpt lat="45.90013" lon="4.57811">
        <ele>265.58127</ele>
        <time>2023-12-07T14:18:30.000Z</time>
      </trkpt>
      <trkpt lat="45.90012" lon="4.57819">
        <ele>265.54813</ele>
        <time>2023-12-07T14:18:31.000Z</time>
      </trkpt>
      <trkpt lat="45.90009" lon="4.57827">
        <ele>265.4765</ele>
        <time>2023-12-07T14:18:32.000Z</time>
      </trkpt>
      <trkpt lat="45.90007" lon="4.57835">
        <ele>265.3956</ele>
        <time>2023-12-07T14:18:33.000Z</time>
      </trkpt>
      <trkpt lat="45.90004" lon="4.5784">
        <ele>265.30185</ele>
        <time>2023-12-07T14:18:34.000Z</time>
      </trkpt>
      <trkpt lat="45.90001" lon="4.57848">
        <ele>265.18771</ele>
        <time>2023-12-07T14:18:35.000Z</time>
      </trkpt>
      <trkpt lat="45.89998" lon="4.57854">
        <ele>265.09641</ele>
        <time>2023-12-07T14:18:36.000Z</time>
      </trkpt>
      <trkpt lat="45.89997" lon="4.57862">
        <ele>265.02182</ele>
        <time>2023-12-07T14:18:37.000Z</time>
      </trkpt>
      <trkpt lat="45.89998" lon="4.57869">
        <ele>264.96762</ele>
        <time>2023-12-07T14:18:38.000Z</time>
      </trkpt>
      <trkpt lat="45.9" lon="4.57876">
        <ele>264.92413</ele>
        <time>2023-12-07T14:18:39.000Z</time>
      </trkpt>
      <trkpt lat="45.90003" lon="4.57881">
        <ele>264.87753</ele>
        <time>2023-12-07T14:18:40.000Z</time>
      </trkpt>
      <trkpt lat="45.90007" lon="4.57887">
        <ele>264.83868</ele>
        <time>2023-12-07T14:18:41.000Z</time>
      </trkpt>
      <trkpt lat="45.90011" lon="4.57892">
        <ele>264.77643</ele>
        <time>2023-12-07T14:18:42.000Z</time>
      </trkpt>
      <trkpt lat="45.90014" lon="4.57897">
        <ele>264.7486</ele>
        <time>2023-12-07T14:18:43.000Z</time>
      </trkpt>
      <trkpt lat="45.90016" lon="4.57901">
        <ele>264.6879</ele>
        <time>2023-12-07T14:18:44.000Z</time>
      </trkpt>
      <trkpt lat="45.9002" lon="4.57905">
        <ele>264.55673</ele>
        <time>2023-12-07T14:18:45.000Z</time>
      </trkpt>
      <trkpt lat="45.90023" lon="4.57909">
        <ele>264.42426</ele>
        <time>2023-12-07T14:18:46.000Z</time>
      </trkpt>
      <trkpt lat="45.90027" lon="4.57913">
        <ele>264.28961</ele>
        <time>2023-12-07T14:18:47.000Z</time>
      </trkpt>
      <trkpt lat="45.9003" lon="4.57915">
        <ele>264.18539</ele>
        <time>2023-12-07T14:18:48.000Z</time>
      </trkpt>
      <trkpt lat="45.90033" lon="4.5792">
        <ele>264.1131</ele>
        <time>2023-12-07T14:18:49.000Z</time>
      </trkpt>
      <trkpt lat="45.90036" lon="4.57925">
        <ele>264.0181</ele>
        <time>2023-12-07T14:18:50.000Z</time>
      </trkpt>
      <trkpt lat="45.90039" lon="4.57927">
        <ele>263.9162</ele>
        <time>2023-12-07T14:18:51.000Z</time>
      </trkpt>
      <trkpt lat="45.90042" lon="4.57931">
        <ele>263.83466</ele>
        <time>2023-12-07T14:18:52.000Z</time>
      </trkpt>
      <trkpt lat="45.90044" lon="4.57934">
        <ele>263.79572</ele>
        <time>2023-12-07T14:18:53.000Z</time>
      </trkpt>
      <trkpt lat="45.90047" lon="4.57938">
        <ele>263.76917</ele>
        <time>2023-12-07T14:18:54.000Z</time>
      </trkpt>
      <trkpt lat="45.9005" lon="4.57941">
        <ele>263.81238</ele>
        <time>2023-12-07T14:18:55.000Z</time>
      </trkpt>
      <trkpt lat="45.90053" lon="4.57944">
        <ele>263.81866</ele>
        <time>2023-12-07T14:18:56.000Z</time>
      </trkpt>
      <trkpt lat="45.90055" lon="4.57948">
        <ele>263.81888</ele>
        <time>2023-12-07T14:18:57.000Z</time>
      </trkpt>
      <trkpt lat="45.90058" lon="4.57952">
        <ele>263.79132</ele>
        <time>2023-12-07T14:18:58.000Z</time>
      </trkpt>
      <trkpt lat="45.9006" lon="4.57956">
        <ele>263.75214</ele>
        <time>2023-12-07T14:18:59.000Z</time>
      </trkpt>
      <trkpt lat="45.90063" lon="4.57959">
        <ele>263.5546</ele>
        <time>2023-12-07T14:19:00.000Z</time>
      </trkpt>
      <trkpt lat="45.90066" lon="4.57962">
        <ele>263.35052</ele>
        <time>2023-12-07T14:19:01.000Z</time>
      </trkpt>
      <trkpt lat="45.90068" lon="4.57966">
        <ele>263.14932</ele>
        <time>2023-12-07T14:19:02.000Z</time>
      </trkpt>
      <trkpt lat="45.90071" lon="4.57969">
        <ele>262.94287</ele>
        <time>2023-12-07T14:19:03.000Z</time>
      </trkpt>
      <trkpt lat="45.90074" lon="4.57973">
        <ele>262.72891</ele>
        <time>2023-12-07T14:19:04.000Z</time>
      </trkpt>
      <trkpt lat="45.90077" lon="4.57976">
        <ele>262.54181</ele>
        <time>2023-12-07T14:19:05.000Z</time>
      </trkpt>
      <trkpt lat="45.90079" lon="4.5798">
        <ele>262.60941</ele>
        <time>2023-12-07T14:19:06.000Z</time>
      </trkpt>
      <trkpt lat="45.90081" lon="4.57985">
        <ele>262.64401</ele>
        <time>2023-12-07T14:19:07.000Z</time>
      </trkpt>
      <trkpt lat="45.90081" lon="4.57991">
        <ele>262.56964</ele>
        <time>2023-12-07T14:19:08.000Z</time>
      </trkpt>
      <trkpt lat="45.9008" lon="4.57996">
        <ele>262.49152</ele>
        <time>2023-12-07T14:19:09.000Z</time>
      </trkpt>
      <trkpt lat="45.90078" lon="4.58001">
        <ele>262.36597</ele>
        <time>2023-12-07T14:19:10.000Z</time>
      </trkpt>
      <trkpt lat="45.90076" lon="4.58005">
        <ele>262.26443</ele>
        <time>2023-12-07T14:19:11.000Z</time>
      </trkpt>
      <trkpt lat="45.90073" lon="4.58009">
        <ele>262.13892</ele>
        <time>2023-12-07T14:19:12.000Z</time>
      </trkpt>
      <trkpt lat="45.9007" lon="4.58013">
        <ele>262.00528</ele>
        <time>2023-12-07T14:19:13.000Z</time>
      </trkpt>
      <trkpt lat="45.90067" lon="4.58017">
        <ele>261.84888</ele>
        <time>2023-12-07T14:19:14.000Z</time>
      </trkpt>
      <trkpt lat="45.90065" lon="4.58021">
        <ele>261.67145</ele>
        <time>2023-12-07T14:19:15.000Z</time>
      </trkpt>
      <trkpt lat="45.90062" lon="4.58025">
        <ele>261.5217</ele>
        <time>2023-12-07T14:19:16.000Z</time>
      </trkpt>
      <trkpt lat="45.9006" lon="4.58029">
        <ele>261.35861</ele>
        <time>2023-12-07T14:19:17.000Z</time>
      </trkpt>
      <trkpt lat="45.90058" lon="4.58034">
        <ele>261.20282</ele>
        <time>2023-12-07T14:19:18.000Z</time>
      </trkpt>
      <trkpt lat="45.90055" lon="4.58038">
        <ele>261.04413</ele>
        <time>2023-12-07T14:19:19.000Z</time>
      </trkpt>
      <trkpt lat="45.90053" lon="4.58042">
        <ele>261.0307</ele>
        <time>2023-12-07T14:19:20.000Z</time>
      </trkpt>
      <trkpt lat="45.9005" lon="4.58047">
        <ele>261.02029</ele>
        <time>2023-12-07T14:19:21.000Z</time>
      </trkpt>
      <trkpt lat="45.90048" lon="4.58051">
        <ele>261.01807</ele>
        <time>2023-12-07T14:19:22.000Z</time>
      </trkpt>
      <trkpt lat="45.90045" lon="4.58056">
        <ele>261.01862</ele>
        <time>2023-12-07T14:19:23.000Z</time>
      </trkpt>
      <trkpt lat="45.90042" lon="4.5806">
        <ele>261.08429</ele>
        <time>2023-12-07T14:19:24.000Z</time>
      </trkpt>
      <trkpt lat="45.90039" lon="4.58064">
        <ele>261.12488</ele>
        <time>2023-12-07T14:19:25.000Z</time>
      </trkpt>
      <trkpt lat="45.90036" lon="4.58069">
        <ele>260.94125</ele>
        <time>2023-12-07T14:19:26.000Z</time>
      </trkpt>
      <trkpt lat="45.90033" lon="4.58074">
        <ele>260.78085</ele>
        <time>2023-12-07T14:19:27.000Z</time>
      </trkpt>
      <trkpt lat="45.9003" lon="4.58079">
        <ele>260.6828</ele>
        <time>2023-12-07T14:19:28.000Z</time>
      </trkpt>
      <trkpt lat="45.90027" lon="4.58084">
        <ele>260.56116</ele>
        <time>2023-12-07T14:19:29.000Z</time>
      </trkpt>
      <trkpt lat="45.90025" lon="4.5809">
        <ele>260.39209</ele>
        <time>2023-12-07T14:19:30.000Z</time>
      </trkpt>
      <trkpt lat="45.90022" lon="4.58095">
        <ele>260.18729</ele>
        <time>2023-12-07T14:19:31.000Z</time>
      </trkpt>
      <trkpt lat="45.90018" lon="4.58101">
        <ele>259.98581</ele>
        <time>2023-12-07T14:19:32.000Z</time>
      </trkpt>
      <trkpt lat="45.90015" lon="4.58106">
        <ele>259.7608</ele>
        <time>2023-12-07T14:19:33.000Z</time>
      </trkpt>
      <trkpt lat="45.90011" lon="4.58111">
        <ele>259.45435</ele>
        <time>2023-12-07T14:19:34.000Z</time>
      </trkpt>
      <trkpt lat="45.90007" lon="4.58113">
        <ele>259.11411</ele>
        <time>2023-12-07T14:19:35.000Z</time>
      </trkpt>
      <trkpt lat="45.90003" lon="4.58117">
        <ele>259.01572</ele>
        <time>2023-12-07T14:19:36.000Z</time>
      </trkpt>
      <trkpt lat="45.89999" lon="4.58119">
        <ele>258.87363</ele>
        <time>2023-12-07T14:19:37.000Z</time>
      </trkpt>
      <trkpt lat="45.89994" lon="4.58121">
        <ele>258.7641</ele>
        <time>2023-12-07T14:19:38.000Z</time>
      </trkpt>
      <trkpt lat="45.89989" lon="4.58125">
        <ele>258.66495</ele>
        <time>2023-12-07T14:19:39.000Z</time>
      </trkpt>
      <trkpt lat="45.89985" lon="4.58127">
        <ele>258.39059</ele>
        <time>2023-12-07T14:19:40.000Z</time>
      </trkpt>
      <trkpt lat="45.89981" lon="4.58131">
        <ele>258.20639</ele>
        <time>2023-12-07T14:19:41.000Z</time>
      </trkpt>
      <trkpt lat="45.89977" lon="4.58134">
        <ele>258.1922</ele>
        <time>2023-12-07T14:19:42.000Z</time>
      </trkpt>
      <trkpt lat="45.89973" lon="4.58137">
        <ele>258.1051</ele>
        <time>2023-12-07T14:19:43.000Z</time>
      </trkpt>
      <trkpt lat="45.89968" lon="4.58141">
        <ele>258.01764</ele>
        <time>2023-12-07T14:19:44.000Z</time>
      </trkpt>
      <trkpt lat="45.89963" lon="4.58143">
        <ele>257.96014</ele>
        <time>2023-12-07T14:19:45.000Z</time>
      </trkpt>
      <trkpt lat="45.89957" lon="4.58147">
        <ele>257.77734</ele>
        <time>2023-12-07T14:19:46.000Z</time>
      </trkpt>
      <trkpt lat="45.89952" lon="4.58149">
        <ele>257.56003</ele>
        <time>2023-12-07T14:19:47.000Z</time>
      </trkpt>
      <trkpt lat="45.89946" lon="4.58153">
        <ele>257.30951</ele>
        <time>2023-12-07T14:19:48.000Z</time>
      </trkpt>
      <trkpt lat="45.89939" lon="4.58156">
        <ele>257.19699</ele>
        <time>2023-12-07T14:19:49.000Z</time>
      </trkpt>
      <trkpt lat="45.89933" lon="4.58159">
        <ele>257.16049</ele>
        <time>2023-12-07T14:19:50.000Z</time>
      </trkpt>
      <trkpt lat="45.89925" lon="4.58163">
        <ele>257.11334</ele>
        <time>2023-12-07T14:19:51.000Z</time>
      </trkpt>
      <trkpt lat="45.89918" lon="4.58167">
        <ele>257.0679</ele>
        <time>2023-12-07T14:19:52.000Z</time>
      </trkpt>
      <trkpt lat="45.89913" lon="4.58172">
        <ele>257.05591</ele>
        <time>2023-12-07T14:19:53.000Z</time>
      </trkpt>
      <trkpt lat="45.89908" lon="4.58178">
        <ele>257.12296</ele>
        <time>2023-12-07T14:19:54.000Z</time>
      </trkpt>
      <trkpt lat="45.89902" lon="4.58182">
        <ele>257.20258</ele>
        <time>2023-12-07T14:19:55.000Z</time>
      </trkpt>
      <trkpt lat="45.89897" lon="4.58186">
        <ele>257.00568</ele>
        <time>2023-12-07T14:19:56.000Z</time>
      </trkpt>
      <trkpt lat="45.89892" lon="4.58192">
        <ele>256.84045</ele>
        <time>2023-12-07T14:19:57.000Z</time>
      </trkpt>
      <trkpt lat="45.89887" lon="4.58196">
        <ele>256.6507</ele>
        <time>2023-12-07T14:19:58.000Z</time>
      </trkpt>
      <trkpt lat="45.89883" lon="4.58201">
        <ele>256.44949</ele>
        <time>2023-12-07T14:19:59.000Z</time>
      </trkpt>
      <trkpt lat="45.89878" lon="4.58206">
        <ele>256.4375</ele>
        <time>2023-12-07T14:20:00.000Z</time>
      </trkpt>
      <trkpt lat="45.89874" lon="4.58209">
        <ele>256.33554</ele>
        <time>2023-12-07T14:20:01.000Z</time>
      </trkpt>
      <trkpt lat="45.89869" lon="4.58214">
        <ele>256.08191</ele>
        <time>2023-12-07T14:20:02.000Z</time>
      </trkpt>
      <trkpt lat="45.89863" lon="4.58218">
        <ele>255.89487</ele>
        <time>2023-12-07T14:20:03.000Z</time>
      </trkpt>
      <trkpt lat="45.89858" lon="4.58224">
        <ele>255.65874</ele>
        <time>2023-12-07T14:20:04.000Z</time>
      </trkpt>
      <trkpt lat="45.89852" lon="4.58227">
        <ele>255.39798</ele>
        <time>2023-12-07T14:20:05.000Z</time>
      </trkpt>
      <trkpt lat="45.89848" lon="4.58231">
        <ele>255.25716</ele>
        <time>2023-12-07T14:20:06.000Z</time>
      </trkpt>
      <trkpt lat="45.89842" lon="4.58234">
        <ele>255.18436</ele>
        <time>2023-12-07T14:20:07.000Z</time>
      </trkpt>
      <trkpt lat="45.89837" lon="4.58238">
        <ele>255.15112</ele>
        <time>2023-12-07T14:20:08.000Z</time>
      </trkpt>
      <trkpt lat="45.89832" lon="4.58242">
        <ele>254.97705</ele>
        <time>2023-12-07T14:20:09.000Z</time>
      </trkpt>
      <trkpt lat="45.89828" lon="4.58246">
        <ele>254.86763</ele>
        <time>2023-12-07T14:20:10.000Z</time>
      </trkpt>
      <trkpt lat="45.89824" lon="4.58251">
        <ele>254.7941</ele>
        <time>2023-12-07T14:20:11.000Z</time>
      </trkpt>
      <trkpt lat="45.89818" lon="4.58257">
        <ele>254.73669</ele>
        <time>2023-12-07T14:20:12.000Z</time>
      </trkpt>
      <trkpt lat="45.89813" lon="4.58261">
        <ele>254.64517</ele>
        <time>2023-12-07T14:20:13.000Z</time>
      </trkpt>
      <trkpt lat="45.8981" lon="4.58263">
        <ele>254.56718</ele>
        <time>2023-12-07T14:20:14.000Z</time>
      </trkpt>
      <trkpt lat="45.89806" lon="4.58267">
        <ele>254.4803</ele>
        <time>2023-12-07T14:20:15.000Z</time>
      </trkpt>
      <trkpt lat="45.89803" lon="4.5827">
        <ele>254.40385</ele>
        <time>2023-12-07T14:20:16.000Z</time>
      </trkpt>
      <trkpt lat="45.89798" lon="4.58273">
        <ele>254.30298</ele>
        <time>2023-12-07T14:20:17.000Z</time>
      </trkpt>
      <trkpt lat="45.89794" lon="4.58276">
        <ele>254.23067</ele>
        <time>2023-12-07T14:20:18.000Z</time>
      </trkpt>
      <trkpt lat="45.8979" lon="4.5828">
        <ele>254.14572</ele>
        <time>2023-12-07T14:20:19.000Z</time>
      </trkpt>
      <trkpt lat="45.89786" lon="4.58284">
        <ele>254.05278</ele>
        <time>2023-12-07T14:20:20.000Z</time>
      </trkpt>
      <trkpt lat="45.89784" lon="4.58289">
        <ele>253.93156</ele>
        <time>2023-12-07T14:20:21.000Z</time>
      </trkpt>
      <trkpt lat="45.89781" lon="4.58293">
        <ele>253.83887</ele>
        <time>2023-12-07T14:20:22.000Z</time>
      </trkpt>
      <trkpt lat="45.89778" lon="4.58296">
        <ele>253.76823</ele>
        <time>2023-12-07T14:20:23.000Z</time>
      </trkpt>
      <trkpt lat="45.89774" lon="4.58299">
        <ele>253.79068</ele>
        <time>2023-12-07T14:20:24.000Z</time>
      </trkpt>
      <trkpt lat="45.89771" lon="4.58302">
        <ele>253.86064</ele>
        <time>2023-12-07T14:20:25.000Z</time>
      </trkpt>
      <trkpt lat="45.89766" lon="4.58304">
        <ele>253.83298</ele>
        <time>2023-12-07T14:20:26.000Z</time>
      </trkpt>
      <trkpt lat="45.89762" lon="4.58306">
        <ele>253.76395</ele>
        <time>2023-12-07T14:20:27.000Z</time>
      </trkpt>
      <trkpt lat="45.89759" lon="4.58309">
        <ele>253.83627</ele>
        <time>2023-12-07T14:20:28.000Z</time>
      </trkpt>
      <trkpt lat="45.89756" lon="4.58313">
        <ele>253.90201</ele>
        <time>2023-12-07T14:20:29.000Z</time>
      </trkpt>
      <trkpt lat="45.89752" lon="4.58316">
        <ele>253.98413</ele>
        <time>2023-12-07T14:20:30.000Z</time>
      </trkpt>
      <trkpt lat="45.89748" lon="4.5832">
        <ele>254.08871</ele>
        <time>2023-12-07T14:20:31.000Z</time>
      </trkpt>
      <trkpt lat="45.89745" lon="4.58324">
        <ele>254.16512</ele>
        <time>2023-12-07T14:20:32.000Z</time>
      </trkpt>
      <trkpt lat="45.89742" lon="4.58328">
        <ele>254.24472</ele>
        <time>2023-12-07T14:20:33.000Z</time>
      </trkpt>
      <trkpt lat="45.89739" lon="4.58333">
        <ele>254.31857</ele>
        <time>2023-12-07T14:20:34.000Z</time>
      </trkpt>
      <trkpt lat="45.89736" lon="4.58338">
        <ele>254.41582</ele>
        <time>2023-12-07T14:20:35.000Z</time>
      </trkpt>
      <trkpt lat="45.89733" lon="4.58342">
        <ele>254.52751</ele>
        <time>2023-12-07T14:20:36.000Z</time>
      </trkpt>
      <trkpt lat="45.8973" lon="4.58347">
        <ele>254.64717</ele>
        <time>2023-12-07T14:20:37.000Z</time>
      </trkpt>
      <trkpt lat="45.89728" lon="4.58352">
        <ele>254.74556</ele>
        <time>2023-12-07T14:20:38.000Z</time>
      </trkpt>
      <trkpt lat="45.89724" lon="4.58356">
        <ele>254.86511</ele>
        <time>2023-12-07T14:20:39.000Z</time>
      </trkpt>
      <trkpt lat="45.89721" lon="4.58361">
        <ele>254.99185</ele>
        <time>2023-12-07T14:20:40.000Z</time>
      </trkpt>
      <trkpt lat="45.89718" lon="4.58367">
        <ele>255.12691</ele>
        <time>2023-12-07T14:20:41.000Z</time>
      </trkpt>
      <trkpt lat="45.89714" lon="4.58374">
        <ele>255.19308</ele>
        <time>2023-12-07T14:20:42.000Z</time>
      </trkpt>
      <trkpt lat="45.89711" lon="4.58381">
        <ele>255.24419</ele>
        <time>2023-12-07T14:20:43.000Z</time>
      </trkpt>
      <trkpt lat="45.89709" lon="4.58388">
        <ele>255.2251</ele>
        <time>2023-12-07T14:20:44.000Z</time>
      </trkpt>
      <trkpt lat="45.89706" lon="4.58394">
        <ele>255.14786</ele>
        <time>2023-12-07T14:20:45.000Z</time>
      </trkpt>
      <trkpt lat="45.89706" lon="4.58401">
        <ele>255.16321</ele>
        <time>2023-12-07T14:20:46.000Z</time>
      </trkpt>
      <trkpt lat="45.89704" lon="4.58409">
        <ele>255.20178</ele>
        <time>2023-12-07T14:20:47.000Z</time>
      </trkpt>
      <trkpt lat="45.89704" lon="4.58417">
        <ele>255.0704</ele>
        <time>2023-12-07T14:20:48.000Z</time>
      </trkpt>
      <trkpt lat="45.89703" lon="4.58426">
        <ele>254.9407</ele>
        <time>2023-12-07T14:20:49.000Z</time>
      </trkpt>
      <trkpt lat="45.89701" lon="4.58435">
        <ele>254.6862</ele>
        <time>2023-12-07T14:20:50.000Z</time>
      </trkpt>
      <trkpt lat="45.89699" lon="4.58444">
        <ele>254.35226</ele>
        <time>2023-12-07T14:20:51.000Z</time>
      </trkpt>
      <trkpt lat="45.89698" lon="4.58453">
        <ele>254.03947</ele>
        <time>2023-12-07T14:20:52.000Z</time>
      </trkpt>
      <trkpt lat="45.89695" lon="4.58462">
        <ele>253.68253</ele>
        <time>2023-12-07T14:20:53.000Z</time>
      </trkpt>
      <trkpt lat="45.89692" lon="4.58471">
        <ele>253.31229</ele>
        <time>2023-12-07T14:20:54.000Z</time>
      </trkpt>
      <trkpt lat="45.8969" lon="4.58479">
        <ele>252.90027</ele>
        <time>2023-12-07T14:20:55.000Z</time>
      </trkpt>
      <trkpt lat="45.89687" lon="4.58489">
        <ele>252.44063</ele>
        <time>2023-12-07T14:20:56.000Z</time>
      </trkpt>
      <trkpt lat="45.89684" lon="4.58498">
        <ele>251.96237</ele>
        <time>2023-12-07T14:20:57.000Z</time>
      </trkpt>
      <trkpt lat="45.89682" lon="4.58508">
        <ele>251.44174</ele>
        <time>2023-12-07T14:20:58.000Z</time>
      </trkpt>
      <trkpt lat="45.89678" lon="4.58516">
        <ele>250.89958</ele>
        <time>2023-12-07T14:20:59.000Z</time>
      </trkpt>
      <trkpt lat="45.89675" lon="4.58524">
        <ele>250.30685</ele>
        <time>2023-12-07T14:21:00.000Z</time>
      </trkpt>
      <trkpt lat="45.89672" lon="4.58533">
        <ele>249.71378</ele>
        <time>2023-12-07T14:21:01.000Z</time>
      </trkpt>
      <trkpt lat="45.89669" lon="4.58542">
        <ele>249.14568</ele>
        <time>2023-12-07T14:21:02.000Z</time>
      </trkpt>
      <trkpt lat="45.89664" lon="4.5855">
        <ele>248.55008</ele>
        <time>2023-12-07T14:21:03.000Z</time>
      </trkpt>
      <trkpt lat="45.8966" lon="4.58557">
        <ele>247.9344</ele>
        <time>2023-12-07T14:21:04.000Z</time>
      </trkpt>
      <trkpt lat="45.89655" lon="4.58565">
        <ele>247.33432</ele>
        <time>2023-12-07T14:21:05.000Z</time>
      </trkpt>
      <trkpt lat="45.8965" lon="4.58572">
        <ele>246.73563</ele>
        <time>2023-12-07T14:21:06.000Z</time>
      </trkpt>
      <trkpt lat="45.89645" lon="4.58579">
        <ele>246.11214</ele>
        <time>2023-12-07T14:21:07.000Z</time>
      </trkpt>
      <trkpt lat="45.8964" lon="4.58586">
        <ele>245.49295</ele>
        <time>2023-12-07T14:21:08.000Z</time>
      </trkpt>
      <trkpt lat="45.89635" lon="4.58594">
        <ele>244.88045</ele>
        <time>2023-12-07T14:21:09.000Z</time>
      </trkpt>
      <trkpt lat="45.8963" lon="4.58601">
        <ele>244.34854</ele>
        <time>2023-12-07T14:21:10.000Z</time>
      </trkpt>
      <trkpt lat="45.89627" lon="4.58609">
        <ele>243.86646</ele>
        <time>2023-12-07T14:21:11.000Z</time>
      </trkpt>
      <trkpt lat="45.89622" lon="4.58616">
        <ele>243.36057</ele>
        <time>2023-12-07T14:21:12.000Z</time>
      </trkpt>
      <trkpt lat="45.89618" lon="4.58623">
        <ele>242.88997</ele>
        <time>2023-12-07T14:21:13.000Z</time>
      </trkpt>
      <trkpt lat="45.89614" lon="4.5863">
        <ele>242.41187</ele>
        <time>2023-12-07T14:21:14.000Z</time>
      </trkpt>
      <trkpt lat="45.89611" lon="4.58635">
        <ele>241.97139</ele>
        <time>2023-12-07T14:21:15.000Z</time>
      </trkpt>
      <trkpt lat="45.89607" lon="4.5864">
        <ele>241.58594</ele>
        <time>2023-12-07T14:21:16.000Z</time>
      </trkpt>
      <trkpt lat="45.89603" lon="4.58644">
        <ele>241.22751</ele>
        <time>2023-12-07T14:21:17.000Z</time>
      </trkpt>
      <trkpt lat="45.896" lon="4.58648">
        <ele>240.90544</ele>
        <time>2023-12-07T14:21:18.000Z</time>
      </trkpt>
      <trkpt lat="45.89596" lon="4.5865">
        <ele>240.51587</ele>
        <time>2023-12-07T14:21:19.000Z</time>
      </trkpt>
      <trkpt lat="45.89591" lon="4.58654">
        <ele>240.15332</ele>
        <time>2023-12-07T14:21:20.000Z</time>
      </trkpt>
      <trkpt lat="45.89586" lon="4.58657">
        <ele>239.76936</ele>
        <time>2023-12-07T14:21:21.000Z</time>
      </trkpt>
      <trkpt lat="45.8958" lon="4.58661">
        <ele>239.37964</ele>
        <time>2023-12-07T14:21:22.000Z</time>
      </trkpt>
      <trkpt lat="45.89574" lon="4.58663">
        <ele>239.00259</ele>
        <time>2023-12-07T14:21:23.000Z</time>
      </trkpt>
      <trkpt lat="45.89566" lon="4.58662">
        <ele>238.59872</ele>
        <time>2023-12-07T14:21:24.000Z</time>
      </trkpt>
      <trkpt lat="45.89559" lon="4.58661">
        <ele>238.19795</ele>
        <time>2023-12-07T14:21:25.000Z</time>
      </trkpt>
      <trkpt lat="45.89552" lon="4.5866">
        <ele>237.77873</ele>
        <time>2023-12-07T14:21:26.000Z</time>
      </trkpt>
      <trkpt lat="45.89545" lon="4.58658">
        <ele>237.39107</ele>
        <time>2023-12-07T14:21:27.000Z</time>
      </trkpt>
      <trkpt lat="45.89539" lon="4.58657">
        <ele>237.02283</ele>
        <time>2023-12-07T14:21:28.000Z</time>
      </trkpt>
      <trkpt lat="45.89533" lon="4.58657">
        <ele>236.60918</ele>
        <time>2023-12-07T14:21:29.000Z</time>
      </trkpt>
      <trkpt lat="45.89527" lon="4.58657">
        <ele>236.28044</ele>
        <time>2023-12-07T14:21:30.000Z</time>
      </trkpt>
      <trkpt lat="45.89523" lon="4.58661">
        <ele>235.96182</ele>
        <time>2023-12-07T14:21:31.000Z</time>
      </trkpt>
      <trkpt lat="45.89521" lon="4.58664">
        <ele>235.7142</ele>
        <time>2023-12-07T14:21:32.000Z</time>
      </trkpt>
      <trkpt lat="45.89519" lon="4.58669">
        <ele>235.49417</ele>
        <time>2023-12-07T14:21:33.000Z</time>
      </trkpt>
      <trkpt lat="45.89515" lon="4.58676">
        <ele>235.31839</ele>
        <time>2023-12-07T14:21:34.000Z</time>
      </trkpt>
      <trkpt lat="45.89514" lon="4.58683">
        <ele>235.22632</ele>
        <time>2023-12-07T14:21:35.000Z</time>
      </trkpt>
      <trkpt lat="45.89512" lon="4.5869">
        <ele>235.02957</ele>
        <time>2023-12-07T14:21:36.000Z</time>
      </trkpt>
      <trkpt lat="45.89509" lon="4.58695">
        <ele>234.85454</ele>
        <time>2023-12-07T14:21:37.000Z</time>
      </trkpt>
      <trkpt lat="45.89506" lon="4.587">
        <ele>234.72812</ele>
        <time>2023-12-07T14:21:38.000Z</time>
      </trkpt>
      <trkpt lat="45.89502" lon="4.58705">
        <ele>234.72603</ele>
        <time>2023-12-07T14:21:39.000Z</time>
      </trkpt>
      <trkpt lat="45.895" lon="4.5871">
        <ele>234.77298</ele>
        <time>2023-12-07T14:21:40.000Z</time>
      </trkpt>
      <trkpt lat="45.89497" lon="4.58714">
        <ele>234.8898</ele>
        <time>2023-12-07T14:21:41.000Z</time>
      </trkpt>
      <trkpt lat="45.89494" lon="4.58717">
        <ele>235.03897</ele>
        <time>2023-12-07T14:21:42.000Z</time>
      </trkpt>
      <trkpt lat="45.89489" lon="4.58719">
        <ele>235.20528</ele>
        <time>2023-12-07T14:21:43.000Z</time>
      </trkpt>
      <trkpt lat="45.89486" lon="4.58721">
        <ele>235.44246</ele>
        <time>2023-12-07T14:21:44.000Z</time>
      </trkpt>
      <trkpt lat="45.89483" lon="4.58723">
        <ele>235.70486</ele>
        <time>2023-12-07T14:21:45.000Z</time>
      </trkpt>
      <trkpt lat="45.89481" lon="4.58725">
        <ele>235.9935</ele>
        <time>2023-12-07T14:21:46.000Z</time>
      </trkpt>
      <trkpt lat="45.89481" lon="4.5873">
        <ele>236.26762</ele>
        <time>2023-12-07T14:21:47.000Z</time>
      </trkpt>
      <trkpt lat="45.89481" lon="4.58735">
        <ele>236.54871</ele>
        <time>2023-12-07T14:21:48.000Z</time>
      </trkpt>
      <trkpt lat="45.89481" lon="4.58741">
        <ele>236.87289</ele>
        <time>2023-12-07T14:21:49.000Z</time>
      </trkpt>
      <trkpt lat="45.89481" lon="4.58747">
        <ele>237.08858</ele>
        <time>2023-12-07T14:21:50.000Z</time>
      </trkpt>
      <trkpt lat="45.89481" lon="4.58754">
        <ele>237.28665</ele>
        <time>2023-12-07T14:21:51.000Z</time>
      </trkpt>
      <trkpt lat="45.89481" lon="4.5876">
        <ele>237.43604</ele>
        <time>2023-12-07T14:21:52.000Z</time>
      </trkpt>
      <trkpt lat="45.89479" lon="4.58768">
        <ele>237.55498</ele>
        <time>2023-12-07T14:21:53.000Z</time>
      </trkpt>
      <trkpt lat="45.89477" lon="4.58776">
        <ele>237.62532</ele>
        <time>2023-12-07T14:21:54.000Z</time>
      </trkpt>
      <trkpt lat="45.89474" lon="4.58784">
        <ele>237.60275</ele>
        <time>2023-12-07T14:21:55.000Z</time>
      </trkpt>
      <trkpt lat="45.89471" lon="4.58792">
        <ele>237.64909</ele>
        <time>2023-12-07T14:21:56.000Z</time>
      </trkpt>
      <trkpt lat="45.89467" lon="4.588">
        <ele>237.66911</ele>
        <time>2023-12-07T14:21:57.000Z</time>
      </trkpt>
      <trkpt lat="45.89462" lon="4.58808">
        <ele>237.67786</ele>
        <time>2023-12-07T14:21:58.000Z</time>
      </trkpt>
      <trkpt lat="45.89457" lon="4.58816">
        <ele>237.63481</ele>
        <time>2023-12-07T14:21:59.000Z</time>
      </trkpt>
      <trkpt lat="45.89452" lon="4.58824">
        <ele>237.54053</ele>
        <time>2023-12-07T14:22:00.000Z</time>
      </trkpt>
      <trkpt lat="45.89448" lon="4.58833">
        <ele>237.39963</ele>
        <time>2023-12-07T14:22:01.000Z</time>
      </trkpt>
      <trkpt lat="45.89443" lon="4.58841">
        <ele>237.21887</ele>
        <time>2023-12-07T14:22:02.000Z</time>
      </trkpt>
      <trkpt lat="45.89439" lon="4.58848">
        <ele>237.02811</ele>
        <time>2023-12-07T14:22:03.000Z</time>
      </trkpt>
      <trkpt lat="45.89435" lon="4.58852">
        <ele>236.79172</ele>
        <time>2023-12-07T14:22:04.000Z</time>
      </trkpt>
      <trkpt lat="45.89429" lon="4.58854">
        <ele>236.49673</ele>
        <time>2023-12-07T14:22:05.000Z</time>
      </trkpt>
      <trkpt lat="45.89423" lon="4.58852">
        <ele>236.20956</ele>
        <time>2023-12-07T14:22:06.000Z</time>
      </trkpt>
      <trkpt lat="45.89417" lon="4.5885">
        <ele>235.95256</ele>
        <time>2023-12-07T14:22:07.000Z</time>
      </trkpt>
      <trkpt lat="45.89412" lon="4.58851">
        <ele>235.67538</ele>
        <time>2023-12-07T14:22:08.000Z</time>
      </trkpt>
      <trkpt lat="45.89405" lon="4.58855">
        <ele>235.23398</ele>
        <time>2023-12-07T14:22:09.000Z</time>
      </trkpt>
      <trkpt lat="45.89399" lon="4.58858">
        <ele>234.88338</ele>
        <time>2023-12-07T14:22:10.000Z</time>
      </trkpt>
      <trkpt lat="45.89394" lon="4.5886">
        <ele>234.53093</ele>
        <time>2023-12-07T14:22:11.000Z</time>
      </trkpt>
      <trkpt lat="45.89388" lon="4.58862">
        <ele>234.25203</ele>
        <time>2023-12-07T14:22:12.000Z</time>
      </trkpt>
      <trkpt lat="45.89383" lon="4.58864">
        <ele>234.00781</ele>
        <time>2023-12-07T14:22:13.000Z</time>
      </trkpt>
      <trkpt lat="45.89377" lon="4.58865">
        <ele>233.7812</ele>
        <time>2023-12-07T14:22:14.000Z</time>
      </trkpt>
      <trkpt lat="45.89373" lon="4.58866">
        <ele>233.55603</ele>
        <time>2023-12-07T14:22:15.000Z</time>
      </trkpt>
      <trkpt lat="45.89369" lon="4.58867">
        <ele>233.38782</ele>
        <time>2023-12-07T14:22:16.000Z</time>
      </trkpt>
      <trkpt lat="45.89365" lon="4.58869">
        <ele>233.27927</ele>
        <time>2023-12-07T14:22:17.000Z</time>
      </trkpt>
      <trkpt lat="45.89361" lon="4.58867">
        <ele>233.19351</ele>
        <time>2023-12-07T14:22:18.000Z</time>
      </trkpt>
      <trkpt lat="45.89358" lon="4.58865">
        <ele>233.09506</ele>
        <time>2023-12-07T14:22:19.000Z</time>
      </trkpt>
      <trkpt lat="45.89355" lon="4.5886">
        <ele>233.04732</ele>
        <time>2023-12-07T14:22:20.000Z</time>
      </trkpt>
      <trkpt lat="45.89354" lon="4.58853">
        <ele>233.04776</ele>
        <time>2023-12-07T14:22:21.000Z</time>
      </trkpt>
      <trkpt lat="45.89353" lon="4.58848">
        <ele>233.15535</ele>
        <time>2023-12-07T14:22:22.000Z</time>
      </trkpt>
      <trkpt lat="45.89351" lon="4.58842">
        <ele>233.16838</ele>
        <time>2023-12-07T14:22:23.000Z</time>
      </trkpt>
      <trkpt lat="45.89349" lon="4.58837">
        <ele>233.20212</ele>
        <time>2023-12-07T14:22:24.000Z</time>
      </trkpt>
      <trkpt lat="45.89346" lon="4.58833">
        <ele>233.29947</ele>
        <time>2023-12-07T14:22:25.000Z</time>
      </trkpt>
      <trkpt lat="45.89343" lon="4.58828">
        <ele>233.40813</ele>
        <time>2023-12-07T14:22:26.000Z</time>
      </trkpt>
      <trkpt lat="45.89339" lon="4.58824">
        <ele>233.51945</ele>
        <time>2023-12-07T14:22:27.000Z</time>
      </trkpt>
      <trkpt lat="45.89335" lon="4.58821">
        <ele>233.69173</ele>
        <time>2023-12-07T14:22:28.000Z</time>
      </trkpt>
      <trkpt lat="45.89332" lon="4.58818">
        <ele>234.06941</ele>
        <time>2023-12-07T14:22:29.000Z</time>
      </trkpt>
      <trkpt lat="45.89329" lon="4.58816">
        <ele>234.46005</ele>
        <time>2023-12-07T14:22:30.000Z</time>
      </trkpt>
      <trkpt lat="45.89325" lon="4.58811">
        <ele>234.86421</ele>
        <time>2023-12-07T14:22:31.000Z</time>
      </trkpt>
      <trkpt lat="45.89322" lon="4.58808">
        <ele>235.21175</ele>
        <time>2023-12-07T14:22:32.000Z</time>
      </trkpt>
      <trkpt lat="45.89318" lon="4.58805">
        <ele>235.52335</ele>
        <time>2023-12-07T14:22:33.000Z</time>
      </trkpt>
      <trkpt lat="45.89314" lon="4.58802">
        <ele>235.83603</ele>
        <time>2023-12-07T14:22:34.000Z</time>
      </trkpt>
      <trkpt lat="45.89311" lon="4.58799">
        <ele>236.17928</ele>
        <time>2023-12-07T14:22:35.000Z</time>
      </trkpt>
      <trkpt lat="45.89308" lon="4.58796">
        <ele>236.51425</ele>
        <time>2023-12-07T14:22:36.000Z</time>
      </trkpt>
      <trkpt lat="45.89304" lon="4.58792">
        <ele>236.80603</ele>
        <time>2023-12-07T14:22:37.000Z</time>
      </trkpt>
      <trkpt lat="45.89301" lon="4.58789">
        <ele>237.04993</ele>
        <time>2023-12-07T14:22:38.000Z</time>
      </trkpt>
      <trkpt lat="45.89298" lon="4.58785">
        <ele>237.3438</ele>
        <time>2023-12-07T14:22:39.000Z</time>
      </trkpt>
      <trkpt lat="45.89295" lon="4.58782">
        <ele>237.62019</ele>
        <time>2023-12-07T14:22:40.000Z</time>
      </trkpt>
      <trkpt lat="45.89292" lon="4.58778">
        <ele>237.9128</ele>
        <time>2023-12-07T14:22:41.000Z</time>
      </trkpt>
      <trkpt lat="45.89289" lon="4.58775">
        <ele>238.15564</ele>
        <time>2023-12-07T14:22:42.000Z</time>
      </trkpt>
      <trkpt lat="45.89286" lon="4.58773">
        <ele>238.51987</ele>
        <time>2023-12-07T14:22:43.000Z</time>
      </trkpt>
      <trkpt lat="45.89283" lon="4.5877">
        <ele>238.90613</ele>
        <time>2023-12-07T14:22:44.000Z</time>
      </trkpt>
      <trkpt lat="45.89281" lon="4.58768">
        <ele>239.30054</ele>
        <time>2023-12-07T14:22:45.000Z</time>
      </trkpt>
      <trkpt lat="45.89278" lon="4.58764">
        <ele>239.70169</ele>
        <time>2023-12-07T14:22:46.000Z</time>
      </trkpt>
      <trkpt lat="45.89276" lon="4.58761">
        <ele>240.10449</ele>
        <time>2023-12-07T14:22:47.000Z</time>
      </trkpt>
      <trkpt lat="45.89275" lon="4.58757">
        <ele>240.45442</ele>
        <time>2023-12-07T14:22:48.000Z</time>
      </trkpt>
      <trkpt lat="45.89273" lon="4.58754">
        <ele>240.76335</ele>
        <time>2023-12-07T14:22:49.000Z</time>
      </trkpt>
      <trkpt lat="45.89271" lon="4.58751">
        <ele>241.05167</ele>
        <time>2023-12-07T14:22:50.000Z</time>
      </trkpt>
      <trkpt lat="45.89269" lon="4.58749">
        <ele>241.33614</ele>
        <time>2023-12-07T14:22:51.000Z</time>
      </trkpt>
      <trkpt lat="45.89267" lon="4.58747">
        <ele>241.63062</ele>
        <time>2023-12-07T14:22:52.000Z</time>
      </trkpt>
      <trkpt lat="45.89265" lon="4.58746">
        <ele>241.9604</ele>
        <time>2023-12-07T14:22:53.000Z</time>
      </trkpt>
      <trkpt lat="45.89263" lon="4.58746">
        <ele>242.30913</ele>
        <time>2023-12-07T14:22:54.000Z</time>
      </trkpt>
      <trkpt lat="45.89261" lon="4.58746">
        <ele>242.64709</ele>
        <time>2023-12-07T14:22:55.000Z</time>
      </trkpt>
      <trkpt lat="45.89259" lon="4.58747">
        <ele>242.97563</ele>
        <time>2023-12-07T14:22:56.000Z</time>
      </trkpt>
      <trkpt lat="45.89257" lon="4.58749">
        <ele>243.30122</ele>
        <time>2023-12-07T14:22:57.000Z</time>
      </trkpt>
      <trkpt lat="45.89255" lon="4.58751">
        <ele>243.63095</ele>
        <time>2023-12-07T14:22:58.000Z</time>
      </trkpt>
      <trkpt lat="45.89253" lon="4.58753">
        <ele>243.97513</ele>
        <time>2023-12-07T14:22:59.000Z</time>
      </trkpt>
      <trkpt lat="45.89251" lon="4.58755">
        <ele>244.30327</ele>
        <time>2023-12-07T14:23:00.000Z</time>
      </trkpt>
      <trkpt lat="45.89249" lon="4.58757">
        <ele>244.60013</ele>
        <time>2023-12-07T14:23:01.000Z</time>
      </trkpt>
      <trkpt lat="45.89247" lon="4.58759">
        <ele>244.89009</ele>
        <time>2023-12-07T14:23:02.000Z</time>
      </trkpt>
      <trkpt lat="45.89245" lon="4.58761">
        <ele>245.13232</ele>
        <time>2023-12-07T14:23:03.000Z</time>
      </trkpt>
      <trkpt lat="45.89242" lon="4.58763">
        <ele>245.35751</ele>
        <time>2023-12-07T14:23:04.000Z</time>
      </trkpt>
      <trkpt lat="45.8924" lon="4.58764">
        <ele>245.62912</ele>
        <time>2023-12-07T14:23:05.000Z</time>
      </trkpt>
      <trkpt lat="45.89238" lon="4.58765">
        <ele>245.90311</ele>
        <time>2023-12-07T14:23:06.000Z</time>
      </trkpt>
      <trkpt lat="45.89236" lon="4.58766">
        <ele>246.16406</ele>
        <time>2023-12-07T14:23:07.000Z</time>
      </trkpt>
      <trkpt lat="45.89233" lon="4.58767">
        <ele>246.46811</ele>
        <time>2023-12-07T14:23:08.000Z</time>
      </trkpt>
      <trkpt lat="45.89231" lon="4.58768">
        <ele>246.81392</ele>
        <time>2023-12-07T14:23:09.000Z</time>
      </trkpt>
      <trkpt lat="45.89229" lon="4.58769">
        <ele>247.14023</ele>
        <time>2023-12-07T14:23:10.000Z</time>
      </trkpt>
      <trkpt lat="45.89227" lon="4.5877">
        <ele>247.47971</ele>
        <time>2023-12-07T14:23:11.000Z</time>
      </trkpt>
      <trkpt lat="45.89225" lon="4.5877">
        <ele>247.80734</ele>
        <time>2023-12-07T14:23:12.000Z</time>
      </trkpt>
      <trkpt lat="45.89223" lon="4.58771">
        <ele>248.14304</ele>
        <time>2023-12-07T14:23:13.000Z</time>
      </trkpt>
      <trkpt lat="45.89221" lon="4.58771">
        <ele>248.47083</ele>
        <time>2023-12-07T14:23:14.000Z</time>
      </trkpt>
      <trkpt lat="45.89219" lon="4.58772">
        <ele>248.81612</ele>
        <time>2023-12-07T14:23:15.000Z</time>
      </trkpt>
      <trkpt lat="45.89217" lon="4.58772">
        <ele>249.16797</ele>
        <time>2023-12-07T14:23:16.000Z</time>
      </trkpt>
      <trkpt lat="45.89214" lon="4.58772">
        <ele>249.54367</ele>
        <time>2023-12-07T14:23:17.000Z</time>
      </trkpt>
      <trkpt lat="45.89212" lon="4.58772">
        <ele>249.93465</ele>
        <time>2023-12-07T14:23:18.000Z</time>
      </trkpt>
      <trkpt lat="45.8921" lon="4.58773">
        <ele>250.31587</ele>
        <time>2023-12-07T14:23:19.000Z</time>
      </trkpt>
      <trkpt lat="45.89208" lon="4.58773">
        <ele>250.6774</ele>
        <time>2023-12-07T14:23:20.000Z</time>
      </trkpt>
      <trkpt lat="45.89206" lon="4.58772">
        <ele>251.03804</ele>
        <time>2023-12-07T14:23:21.000Z</time>
      </trkpt>
      <trkpt lat="45.89204" lon="4.58772">
        <ele>251.37846</ele>
        <time>2023-12-07T14:23:22.000Z</time>
      </trkpt>
      <trkpt lat="45.89202" lon="4.58772">
        <ele>251.77083</ele>
        <time>2023-12-07T14:23:23.000Z</time>
      </trkpt>
      <trkpt lat="45.89199" lon="4.58771">
        <ele>252.16435</ele>
        <time>2023-12-07T14:23:24.000Z</time>
      </trkpt>
      <trkpt lat="45.89197" lon="4.5877">
        <ele>252.48726</ele>
        <time>2023-12-07T14:23:25.000Z</time>
      </trkpt>
      <trkpt lat="45.89195" lon="4.58769">
        <ele>252.80002</ele>
        <time>2023-12-07T14:23:26.000Z</time>
      </trkpt>
      <trkpt lat="45.89193" lon="4.58768">
        <ele>253.13091</ele>
        <time>2023-12-07T14:23:27.000Z</time>
      </trkpt>
      <trkpt lat="45.89191" lon="4.58767">
        <ele>253.43079</ele>
        <time>2023-12-07T14:23:28.000Z</time>
      </trkpt>
      <trkpt lat="45.89189" lon="4.58766">
        <ele>253.70955</ele>
        <time>2023-12-07T14:23:29.000Z</time>
      </trkpt>
      <trkpt lat="45.89187" lon="4.58764">
        <ele>253.95975</ele>
        <time>2023-12-07T14:23:30.000Z</time>
      </trkpt>
      <trkpt lat="45.89185" lon="4.58763">
        <ele>254.19084</ele>
        <time>2023-12-07T14:23:31.000Z</time>
      </trkpt>
      <trkpt lat="45.89184" lon="4.58762">
        <ele>254.4259</ele>
        <time>2023-12-07T14:23:32.000Z</time>
      </trkpt>
      <trkpt lat="45.89182" lon="4.58762">
        <ele>254.32285</ele>
        <time>2023-12-07T14:23:33.000Z</time>
      </trkpt>
      <trkpt lat="45.8918" lon="4.58761">
        <ele>254.23965</ele>
        <time>2023-12-07T14:23:34.000Z</time>
      </trkpt>
      <trkpt lat="45.89177" lon="4.58759">
        <ele>254.14177</ele>
        <time>2023-12-07T14:23:35.000Z</time>
      </trkpt>
      <trkpt lat="45.89175" lon="4.58758">
        <ele>254.03067</ele>
        <time>2023-12-07T14:23:36.000Z</time>
      </trkpt>
      <trkpt lat="45.89174" lon="4.58757">
        <ele>253.90779</ele>
        <time>2023-12-07T14:23:37.000Z</time>
      </trkpt>
      <trkpt lat="45.89172" lon="4.58756">
        <ele>253.62451</ele>
        <time>2023-12-07T14:23:38.000Z</time>
      </trkpt>
      <trkpt lat="45.8917" lon="4.58755">
        <ele>253.255</ele>
        <time>2023-12-07T14:23:39.000Z</time>
      </trkpt>
      <trkpt lat="45.89168" lon="4.58754">
        <ele>252.86313</ele>
        <time>2023-12-07T14:23:40.000Z</time>
      </trkpt>
      <trkpt lat="45.89166" lon="4.58754">
        <ele>252.85294</ele>
        <time>2023-12-07T14:23:41.000Z</time>
      </trkpt>
      <trkpt lat="45.89164" lon="4.58752">
        <ele>252.74045</ele>
        <time>2023-12-07T14:23:42.000Z</time>
      </trkpt>
      <trkpt lat="45.89163" lon="4.58751">
        <ele>252.64038</ele>
        <time>2023-12-07T14:23:43.000Z</time>
      </trkpt>
      <trkpt lat="45.89161" lon="4.58749">
        <ele>252.55521</ele>
        <time>2023-12-07T14:23:44.000Z</time>
      </trkpt>
      <trkpt lat="45.8916" lon="4.58747">
        <ele>252.48178</ele>
        <time>2023-12-07T14:23:45.000Z</time>
      </trkpt>
      <trkpt lat="45.89158" lon="4.58746">
        <ele>252.40384</ele>
        <time>2023-12-07T14:23:46.000Z</time>
      </trkpt>
      <trkpt lat="45.89156" lon="4.58745">
        <ele>252.2926</ele>
        <time>2023-12-07T14:23:47.000Z</time>
      </trkpt>
      <trkpt lat="45.89154" lon="4.58743">
        <ele>252.19247</ele>
        <time>2023-12-07T14:23:48.000Z</time>
      </trkpt>
      <trkpt lat="45.89152" lon="4.58742">
        <ele>252.05441</ele>
        <time>2023-12-07T14:23:49.000Z</time>
      </trkpt>
      <trkpt lat="45.8915" lon="4.5874">
        <ele>251.92282</ele>
        <time>2023-12-07T14:23:50.000Z</time>
      </trkpt>
      <trkpt lat="45.89148" lon="4.58739">
        <ele>251.78799</ele>
        <time>2023-12-07T14:23:51.000Z</time>
      </trkpt>
      <trkpt lat="45.89146" lon="4.58738">
        <ele>251.65967</ele>
        <time>2023-12-07T14:23:52.000Z</time>
      </trkpt>
      <trkpt lat="45.89144" lon="4.58737">
        <ele>251.85037</ele>
        <time>2023-12-07T14:23:53.000Z</time>
      </trkpt>
      <trkpt lat="45.89143" lon="4.58735">
        <ele>252.05185</ele>
        <time>2023-12-07T14:23:54.000Z</time>
      </trkpt>
      <trkpt lat="45.89141" lon="4.58734">
        <ele>252.2282</ele>
        <time>2023-12-07T14:23:55.000Z</time>
      </trkpt>
      <trkpt lat="45.89139" lon="4.58733">
        <ele>252.40974</ele>
        <time>2023-12-07T14:23:56.000Z</time>
      </trkpt>
      <trkpt lat="45.89137" lon="4.58731">
        <ele>252.59854</ele>
        <time>2023-12-07T14:23:57.000Z</time>
      </trkpt>
      <trkpt lat="45.89135" lon="4.5873">
        <ele>252.94534</ele>
        <time>2023-12-07T14:23:58.000Z</time>
      </trkpt>
      <trkpt lat="45.89133" lon="4.58728">
        <ele>253.35181</ele>
        <time>2023-12-07T14:23:59.000Z</time>
      </trkpt>
      <trkpt lat="45.89132" lon="4.58727">
        <ele>253.8018</ele>
        <time>2023-12-07T14:24:00.000Z</time>
      </trkpt>
      <trkpt lat="45.8913" lon="4.58726">
        <ele>253.87</ele>
        <time>2023-12-07T14:24:01.000Z</time>
      </trkpt>
      <trkpt lat="45.89128" lon="4.58724">
        <ele>254.01472</ele>
        <time>2023-12-07T14:24:02.000Z</time>
      </trkpt>
      <trkpt lat="45.89126" lon="4.58723">
        <ele>254.10588</ele>
        <time>2023-12-07T14:24:03.000Z</time>
      </trkpt>
      <trkpt lat="45.89124" lon="4.58723">
        <ele>254.19128</ele>
        <time>2023-12-07T14:24:04.000Z</time>
      </trkpt>
      <trkpt lat="45.89122" lon="4.58722">
        <ele>254.2594</ele>
        <time>2023-12-07T14:24:05.000Z</time>
      </trkpt>
      <trkpt lat="45.8912" lon="4.5872">
        <ele>254.33762</ele>
        <time>2023-12-07T14:24:06.000Z</time>
      </trkpt>
      <trkpt lat="45.89118" lon="4.58719">
        <ele>254.42693</ele>
        <time>2023-12-07T14:24:07.000Z</time>
      </trkpt>
      <trkpt lat="45.89116" lon="4.58717">
        <ele>254.47639</ele>
        <time>2023-12-07T14:24:08.000Z</time>
      </trkpt>
      <trkpt lat="45.89114" lon="4.58716">
        <ele>254.58638</ele>
        <time>2023-12-07T14:24:09.000Z</time>
      </trkpt>
      <trkpt lat="45.89112" lon="4.58715">
        <ele>255.03629</ele>
        <time>2023-12-07T14:24:10.000Z</time>
      </trkpt>
      <trkpt lat="45.89109" lon="4.58714">
        <ele>255.47351</ele>
        <time>2023-12-07T14:24:11.000Z</time>
      </trkpt>
      <trkpt lat="45.89107" lon="4.58712">
        <ele>255.90555</ele>
        <time>2023-12-07T14:24:12.000Z</time>
      </trkpt>
      <trkpt lat="45.89104" lon="4.58711">
        <ele>256.32089</ele>
        <time>2023-12-07T14:24:13.000Z</time>
      </trkpt>
      <trkpt lat="45.89101" lon="4.5871">
        <ele>256.69241</ele>
        <time>2023-12-07T14:24:14.000Z</time>
      </trkpt>
      <trkpt lat="45.89099" lon="4.58708">
        <ele>257.09085</ele>
        <time>2023-12-07T14:24:15.000Z</time>
      </trkpt>
      <trkpt lat="45.89096" lon="4.58706">
        <ele>257.50369</ele>
        <time>2023-12-07T14:24:16.000Z</time>
      </trkpt>
      <trkpt lat="45.89094" lon="4.58704">
        <ele>257.92334</ele>
        <time>2023-12-07T14:24:17.000Z</time>
      </trkpt>
      <trkpt lat="45.89091" lon="4.58703">
        <ele>258.32745</ele>
        <time>2023-12-07T14:24:18.000Z</time>
      </trkpt>
      <trkpt lat="45.89089" lon="4.58701">
        <ele>258.72784</ele>
        <time>2023-12-07T14:24:19.000Z</time>
      </trkpt>
      <trkpt lat="45.89086" lon="4.587">
        <ele>259.02679</ele>
        <time>2023-12-07T14:24:20.000Z</time>
      </trkpt>
      <trkpt lat="45.89083" lon="4.58698">
        <ele>259.3092</ele>
        <time>2023-12-07T14:24:21.000Z</time>
      </trkpt>
      <trkpt lat="45.8908" lon="4.58697">
        <ele>259.55054</ele>
        <time>2023-12-07T14:24:22.000Z</time>
      </trkpt>
      <trkpt lat="45.89077" lon="4.58696">
        <ele>259.77911</ele>
        <time>2023-12-07T14:24:23.000Z</time>
      </trkpt>
      <trkpt lat="45.89074" lon="4.58695">
        <ele>259.9931</ele>
        <time>2023-12-07T14:24:24.000Z</time>
      </trkpt>
      <trkpt lat="45.89071" lon="4.58694">
        <ele>260.20465</ele>
        <time>2023-12-07T14:24:25.000Z</time>
      </trkpt>
      <trkpt lat="45.89069" lon="4.58693">
        <ele>260.61563</ele>
        <time>2023-12-07T14:24:26.000Z</time>
      </trkpt>
      <trkpt lat="45.89065" lon="4.58692">
        <ele>260.96042</ele>
        <time>2023-12-07T14:24:27.000Z</time>
      </trkpt>
      <trkpt lat="45.89062" lon="4.58691">
        <ele>261.33218</ele>
        <time>2023-12-07T14:24:28.000Z</time>
      </trkpt>
      <trkpt lat="45.89059" lon="4.5869">
        <ele>261.66595</ele>
        <time>2023-12-07T14:24:29.000Z</time>
      </trkpt>
      <trkpt lat="45.89056" lon="4.58689">
        <ele>261.69025</ele>
        <time>2023-12-07T14:24:30.000Z</time>
      </trkpt>
      <trkpt lat="45.89053" lon="4.58687">
        <ele>261.73444</ele>
        <time>2023-12-07T14:24:31.000Z</time>
      </trkpt>
      <trkpt lat="45.8905" lon="4.58685">
        <ele>261.78461</ele>
        <time>2023-12-07T14:24:32.000Z</time>
      </trkpt>
      <trkpt lat="45.89047" lon="4.58683">
        <ele>261.85168</ele>
        <time>2023-12-07T14:24:33.000Z</time>
      </trkpt>
      <trkpt lat="45.89044" lon="4.58681">
        <ele>261.8316</ele>
        <time>2023-12-07T14:24:34.000Z</time>
      </trkpt>
      <trkpt lat="45.89041" lon="4.5868">
        <ele>261.80194</ele>
        <time>2023-12-07T14:24:35.000Z</time>
      </trkpt>
      <trkpt lat="45.89038" lon="4.58678">
        <ele>261.69791</ele>
        <time>2023-12-07T14:24:36.000Z</time>
      </trkpt>
      <trkpt lat="45.89035" lon="4.58676">
        <ele>261.56097</ele>
        <time>2023-12-07T14:24:37.000Z</time>
      </trkpt>
      <trkpt lat="45.89032" lon="4.58674">
        <ele>261.38519</ele>
        <time>2023-12-07T14:24:38.000Z</time>
      </trkpt>
      <trkpt lat="45.89029" lon="4.58672">
        <ele>261.19052</ele>
        <time>2023-12-07T14:24:39.000Z</time>
      </trkpt>
      <trkpt lat="45.89026" lon="4.5867">
        <ele>261.34323</ele>
        <time>2023-12-07T14:24:40.000Z</time>
      </trkpt>
      <trkpt lat="45.89023" lon="4.58668">
        <ele>261.46164</ele>
        <time>2023-12-07T14:24:41.000Z</time>
      </trkpt>
      <trkpt lat="45.8902" lon="4.58667">
        <ele>261.66064</ele>
        <time>2023-12-07T14:24:42.000Z</time>
      </trkpt>
      <trkpt lat="45.89017" lon="4.58665">
        <ele>261.88593</ele>
        <time>2023-12-07T14:24:43.000Z</time>
      </trkpt>
      <trkpt lat="45.89014" lon="4.58663">
        <ele>262.13199</ele>
        <time>2023-12-07T14:24:44.000Z</time>
      </trkpt>
      <trkpt lat="45.89011" lon="4.58661">
        <ele>262.3793</ele>
        <time>2023-12-07T14:24:45.000Z</time>
      </trkpt>
      <trkpt lat="45.89008" lon="4.5866">
        <ele>262.37982</ele>
        <time>2023-12-07T14:24:46.000Z</time>
      </trkpt>
      <trkpt lat="45.89004" lon="4.58658">
        <ele>262.43506</ele>
        <time>2023-12-07T14:24:47.000Z</time>
      </trkpt>
      <trkpt lat="45.89001" lon="4.58656">
        <ele>262.34882</ele>
        <time>2023-12-07T14:24:48.000Z</time>
      </trkpt>
      <trkpt lat="45.88998" lon="4.58654">
        <ele>262.25958</ele>
        <time>2023-12-07T14:24:49.000Z</time>
      </trkpt>
      <trkpt lat="45.88994" lon="4.58653">
        <ele>262.14508</ele>
        <time>2023-12-07T14:24:50.000Z</time>
      </trkpt>
      <trkpt lat="45.88991" lon="4.58651">
        <ele>261.98422</ele>
        <time>2023-12-07T14:24:51.000Z</time>
      </trkpt>
      <trkpt lat="45.88988" lon="4.58649">
        <ele>261.77994</ele>
        <time>2023-12-07T14:24:52.000Z</time>
      </trkpt>
      <trkpt lat="45.88985" lon="4.58647">
        <ele>261.82843</ele>
        <time>2023-12-07T14:24:53.000Z</time>
      </trkpt>
      <trkpt lat="45.88981" lon="4.58645">
        <ele>261.94196</ele>
        <time>2023-12-07T14:24:54.000Z</time>
      </trkpt>
      <trkpt lat="45.88978" lon="4.58643">
        <ele>262.06781</ele>
        <time>2023-12-07T14:24:55.000Z</time>
      </trkpt>
      <trkpt lat="45.88975" lon="4.58641">
        <ele>262.23584</ele>
        <time>2023-12-07T14:24:56.000Z</time>
      </trkpt>
      <trkpt lat="45.88972" lon="4.58639">
        <ele>262.4129</ele>
        <time>2023-12-07T14:24:57.000Z</time>
      </trkpt>
      <trkpt lat="45.88969" lon="4.58637">
        <ele>262.61163</ele>
        <time>2023-12-07T14:24:58.000Z</time>
      </trkpt>
      <trkpt lat="45.88966" lon="4.58635">
        <ele>262.8299</ele>
        <time>2023-12-07T14:24:59.000Z</time>
      </trkpt>
      <trkpt lat="45.88962" lon="4.58634">
        <ele>262.79474</ele>
        <time>2023-12-07T14:25:00.000Z</time>
      </trkpt>
      <trkpt lat="45.88959" lon="4.58633">
        <ele>262.78668</ele>
        <time>2023-12-07T14:25:01.000Z</time>
      </trkpt>
      <trkpt lat="45.88956" lon="4.58632">
        <ele>262.75949</ele>
        <time>2023-12-07T14:25:02.000Z</time>
      </trkpt>
      <trkpt lat="45.88952" lon="4.5863">
        <ele>262.74747</ele>
        <time>2023-12-07T14:25:03.000Z</time>
      </trkpt>
      <trkpt lat="45.88949" lon="4.58629">
        <ele>262.69833</ele>
        <time>2023-12-07T14:25:04.000Z</time>
      </trkpt>
      <trkpt lat="45.88946" lon="4.58627">
        <ele>262.65652</ele>
        <time>2023-12-07T14:25:05.000Z</time>
      </trkpt>
      <trkpt lat="45.88943" lon="4.58626">
        <ele>262.64377</ele>
        <time>2023-12-07T14:25:06.000Z</time>
      </trkpt>
      <trkpt lat="45.88939" lon="4.58624">
        <ele>262.61853</ele>
        <time>2023-12-07T14:25:07.000Z</time>
      </trkpt>
      <trkpt lat="45.88936" lon="4.58622">
        <ele>262.73846</ele>
        <time>2023-12-07T14:25:08.000Z</time>
      </trkpt>
      <trkpt lat="45.88932" lon="4.58621">
        <ele>262.87292</ele>
        <time>2023-12-07T14:25:09.000Z</time>
      </trkpt>
      <trkpt lat="45.88929" lon="4.58619">
        <ele>262.99951</ele>
        <time>2023-12-07T14:25:10.000Z</time>
      </trkpt>
      <trkpt lat="45.88926" lon="4.58618">
        <ele>263.16107</ele>
        <time>2023-12-07T14:25:11.000Z</time>
      </trkpt>
      <trkpt lat="45.88923" lon="4.58616">
        <ele>263.34674</ele>
        <time>2023-12-07T14:25:12.000Z</time>
      </trkpt>
      <trkpt lat="45.88919" lon="4.58613">
        <ele>263.27899</ele>
        <time>2023-12-07T14:25:13.000Z</time>
      </trkpt>
      <trkpt lat="45.88916" lon="4.58611">
        <ele>263.22687</ele>
        <time>2023-12-07T14:25:14.000Z</time>
      </trkpt>
      <trkpt lat="45.88913" lon="4.58609">
        <ele>263.14136</ele>
        <time>2023-12-07T14:25:15.000Z</time>
      </trkpt>
      <trkpt lat="45.8891" lon="4.58607">
        <ele>263.06448</ele>
        <time>2023-12-07T14:25:16.000Z</time>
      </trkpt>
      <trkpt lat="45.88907" lon="4.58605">
        <ele>262.9856</ele>
        <time>2023-12-07T14:25:17.000Z</time>
      </trkpt>
      <trkpt lat="45.88903" lon="4.58603">
        <ele>262.91766</ele>
        <time>2023-12-07T14:25:18.000Z</time>
      </trkpt>
      <trkpt lat="45.889" lon="4.58601">
        <ele>262.86099</ele>
        <time>2023-12-07T14:25:19.000Z</time>
      </trkpt>
      <trkpt lat="45.88896" lon="4.58599">
        <ele>262.81375</ele>
        <time>2023-12-07T14:25:20.000Z</time>
      </trkpt>
      <trkpt lat="45.88892" lon="4.58598">
        <ele>262.77328</ele>
        <time>2023-12-07T14:25:21.000Z</time>
      </trkpt>
      <trkpt lat="45.88889" lon="4.58596">
        <ele>262.74445</ele>
        <time>2023-12-07T14:25:22.000Z</time>
      </trkpt>
      <trkpt lat="45.88885" lon="4.58595">
        <ele>262.68338</ele>
        <time>2023-12-07T14:25:23.000Z</time>
      </trkpt>
      <trkpt lat="45.88882" lon="4.58593">
        <ele>262.65518</ele>
        <time>2023-12-07T14:25:24.000Z</time>
      </trkpt>
      <trkpt lat="45.88878" lon="4.58591">
        <ele>262.62271</ele>
        <time>2023-12-07T14:25:25.000Z</time>
      </trkpt>
      <trkpt lat="45.88875" lon="4.5859">
        <ele>262.59991</ele>
        <time>2023-12-07T14:25:26.000Z</time>
      </trkpt>
      <trkpt lat="45.88871" lon="4.58588">
        <ele>262.60495</ele>
        <time>2023-12-07T14:25:27.000Z</time>
      </trkpt>
      <trkpt lat="45.88867" lon="4.58587">
        <ele>262.60077</ele>
        <time>2023-12-07T14:25:28.000Z</time>
      </trkpt>
      <trkpt lat="45.88864" lon="4.58585">
        <ele>262.5907</ele>
        <time>2023-12-07T14:25:29.000Z</time>
      </trkpt>
      <trkpt lat="45.8886" lon="4.58584">
        <ele>262.58148</ele>
        <time>2023-12-07T14:25:30.000Z</time>
      </trkpt>
      <trkpt lat="45.88857" lon="4.58583">
        <ele>262.5997</ele>
        <time>2023-12-07T14:25:31.000Z</time>
      </trkpt>
      <trkpt lat="45.88853" lon="4.58581">
        <ele>262.64511</ele>
        <time>2023-12-07T14:25:32.000Z</time>
      </trkpt>
      <trkpt lat="45.8885" lon="4.5858">
        <ele>262.69806</ele>
        <time>2023-12-07T14:25:33.000Z</time>
      </trkpt>
      <trkpt lat="45.88846" lon="4.58578">
        <ele>262.77832</ele>
        <time>2023-12-07T14:25:34.000Z</time>
      </trkpt>
      <trkpt lat="45.88842" lon="4.58577">
        <ele>262.86835</ele>
        <time>2023-12-07T14:25:35.000Z</time>
      </trkpt>
      <trkpt lat="45.88839" lon="4.58577">
        <ele>263.00012</ele>
        <time>2023-12-07T14:25:36.000Z</time>
      </trkpt>
      <trkpt lat="45.88835" lon="4.58576">
        <ele>263.1337</ele>
        <time>2023-12-07T14:25:37.000Z</time>
      </trkpt>
      <trkpt lat="45.88832" lon="4.58576">
        <ele>263.25659</ele>
        <time>2023-12-07T14:25:38.000Z</time>
      </trkpt>
      <trkpt lat="45.88828" lon="4.58575">
        <ele>263.38986</ele>
        <time>2023-12-07T14:25:39.000Z</time>
      </trkpt>
      <trkpt lat="45.88825" lon="4.58574">
        <ele>263.50189</ele>
        <time>2023-12-07T14:25:40.000Z</time>
      </trkpt>
      <trkpt lat="45.88821" lon="4.58573">
        <ele>263.63434</ele>
        <time>2023-12-07T14:25:41.000Z</time>
      </trkpt>
      <trkpt lat="45.88818" lon="4.58572">
        <ele>263.76474</ele>
        <time>2023-12-07T14:25:42.000Z</time>
      </trkpt>
      <trkpt lat="45.88814" lon="4.58571">
        <ele>263.93604</ele>
        <time>2023-12-07T14:25:43.000Z</time>
      </trkpt>
      <trkpt lat="45.8881" lon="4.58569">
        <ele>264.12109</ele>
        <time>2023-12-07T14:25:44.000Z</time>
      </trkpt>
      <trkpt lat="45.88807" lon="4.58568">
        <ele>264.31073</ele>
        <time>2023-12-07T14:25:45.000Z</time>
      </trkpt>
      <trkpt lat="45.88803" lon="4.58567">
        <ele>264.49948</ele>
        <time>2023-12-07T14:25:46.000Z</time>
      </trkpt>
      <trkpt lat="45.88799" lon="4.58565">
        <ele>264.67819</ele>
        <time>2023-12-07T14:25:47.000Z</time>
      </trkpt>
      <trkpt lat="45.88796" lon="4.58564">
        <ele>264.87033</ele>
        <time>2023-12-07T14:25:48.000Z</time>
      </trkpt>
      <trkpt lat="45.88792" lon="4.58563">
        <ele>265.03244</ele>
        <time>2023-12-07T14:25:49.000Z</time>
      </trkpt>
      <trkpt lat="45.88788" lon="4.58562">
        <ele>265.20972</ele>
        <time>2023-12-07T14:25:50.000Z</time>
      </trkpt>
      <trkpt lat="45.88784" lon="4.5856">
        <ele>265.38052</ele>
        <time>2023-12-07T14:25:51.000Z</time>
      </trkpt>
      <trkpt lat="45.88781" lon="4.58559">
        <ele>265.51263</ele>
        <time>2023-12-07T14:25:52.000Z</time>
      </trkpt>
      <trkpt lat="45.88777" lon="4.58558">
        <ele>265.64569</ele>
        <time>2023-12-07T14:25:53.000Z</time>
      </trkpt>
      <trkpt lat="45.88773" lon="4.58557">
        <ele>265.76694</ele>
        <time>2023-12-07T14:25:54.000Z</time>
      </trkpt>
      <trkpt lat="45.8877" lon="4.58556">
        <ele>265.91342</ele>
        <time>2023-12-07T14:25:55.000Z</time>
      </trkpt>
      <trkpt lat="45.88766" lon="4.58555">
        <ele>266.035</ele>
        <time>2023-12-07T14:25:56.000Z</time>
      </trkpt>
      <trkpt lat="45.88762" lon="4.58554">
        <ele>266.15591</ele>
        <time>2023-12-07T14:25:57.000Z</time>
      </trkpt>
      <trkpt lat="45.88758" lon="4.58553">
        <ele>266.2804</ele>
        <time>2023-12-07T14:25:58.000Z</time>
      </trkpt>
      <trkpt lat="45.88754" lon="4.58551">
        <ele>266.40903</ele>
        <time>2023-12-07T14:25:59.000Z</time>
      </trkpt>
      <trkpt lat="45.8875" lon="4.58549">
        <ele>266.38882</ele>
        <time>2023-12-07T14:26:00.000Z</time>
      </trkpt>
      <trkpt lat="45.88746" lon="4.58547">
        <ele>266.38129</ele>
        <time>2023-12-07T14:26:01.000Z</time>
      </trkpt>
      <trkpt lat="45.88742" lon="4.58545">
        <ele>266.37457</ele>
        <time>2023-12-07T14:26:02.000Z</time>
      </trkpt>
      <trkpt lat="45.88738" lon="4.58543">
        <ele>266.28799</ele>
        <time>2023-12-07T14:26:03.000Z</time>
      </trkpt>
      <trkpt lat="45.88734" lon="4.58542">
        <ele>266.50134</ele>
        <time>2023-12-07T14:26:04.000Z</time>
      </trkpt>
      <trkpt lat="45.8873" lon="4.58541">
        <ele>266.65353</ele>
        <time>2023-12-07T14:26:05.000Z</time>
      </trkpt>
      <trkpt lat="45.88726" lon="4.5854">
        <ele>266.80191</ele>
        <time>2023-12-07T14:26:06.000Z</time>
      </trkpt>
      <trkpt lat="45.88722" lon="4.5854">
        <ele>266.95432</ele>
        <time>2023-12-07T14:26:07.000Z</time>
      </trkpt>
      <trkpt lat="45.88718" lon="4.58541">
        <ele>267.10675</ele>
        <time>2023-12-07T14:26:08.000Z</time>
      </trkpt>
      <trkpt lat="45.88715" lon="4.58545">
        <ele>267.29205</ele>
        <time>2023-12-07T14:26:09.000Z</time>
      </trkpt>
      <trkpt lat="45.88713" lon="4.58549">
        <ele>267.45587</ele>
        <time>2023-12-07T14:26:10.000Z</time>
      </trkpt>
      <trkpt lat="45.88712" lon="4.58554">
        <ele>267.60458</ele>
        <time>2023-12-07T14:26:11.000Z</time>
      </trkpt>
      <trkpt lat="45.8871" lon="4.5856">
        <ele>267.76849</ele>
        <time>2023-12-07T14:26:12.000Z</time>
      </trkpt>
      <trkpt lat="45.88709" lon="4.58566">
        <ele>267.9198</ele>
        <time>2023-12-07T14:26:13.000Z</time>
      </trkpt>
      <trkpt lat="45.88707" lon="4.58571">
        <ele>268.06958</ele>
        <time>2023-12-07T14:26:14.000Z</time>
      </trkpt>
      <trkpt lat="45.88706" lon="4.58577">
        <ele>268.19855</ele>
        <time>2023-12-07T14:26:15.000Z</time>
      </trkpt>
      <trkpt lat="45.88705" lon="4.58583">
        <ele>268.28198</ele>
        <time>2023-12-07T14:26:16.000Z</time>
      </trkpt>
      <trkpt lat="45.88704" lon="4.58588">
        <ele>268.36584</ele>
        <time>2023-12-07T14:26:17.000Z</time>
      </trkpt>
      <trkpt lat="45.88703" lon="4.58593">
        <ele>268.24884</ele>
        <time>2023-12-07T14:26:18.000Z</time>
      </trkpt>
      <trkpt lat="45.88701" lon="4.58599">
        <ele>268.09946</ele>
        <time>2023-12-07T14:26:19.000Z</time>
      </trkpt>
      <trkpt lat="45.887" lon="4.58604">
        <ele>268.10431</ele>
        <time>2023-12-07T14:26:20.000Z</time>
      </trkpt>
      <trkpt lat="45.88698" lon="4.58609">
        <ele>268.09335</ele>
        <time>2023-12-07T14:26:21.000Z</time>
      </trkpt>
      <trkpt lat="45.88696" lon="4.58614">
        <ele>268.02982</ele>
        <time>2023-12-07T14:26:22.000Z</time>
      </trkpt>
      <trkpt lat="45.88694" lon="4.58618">
        <ele>268.37433</ele>
        <time>2023-12-07T14:26:23.000Z</time>
      </trkpt>
      <trkpt lat="45.88691" lon="4.58621">
        <ele>268.31778</ele>
        <time>2023-12-07T14:26:24.000Z</time>
      </trkpt>
      <trkpt lat="45.88687" lon="4.58624">
        <ele>268.31436</ele>
        <time>2023-12-07T14:26:25.000Z</time>
      </trkpt>
      <trkpt lat="45.88684" lon="4.58627">
        <ele>268.30191</ele>
        <time>2023-12-07T14:26:26.000Z</time>
      </trkpt>
      <trkpt lat="45.8868" lon="4.5863">
        <ele>268.30322</ele>
        <time>2023-12-07T14:26:27.000Z</time>
      </trkpt>
      <trkpt lat="45.88677" lon="4.58631">
        <ele>268.2326</ele>
        <time>2023-12-07T14:26:28.000Z</time>
      </trkpt>
      <trkpt lat="45.88673" lon="4.58632">
        <ele>268.17398</ele>
        <time>2023-12-07T14:26:29.000Z</time>
      </trkpt>
      <trkpt lat="45.8867" lon="4.58633">
        <ele>268.14758</ele>
        <time>2023-12-07T14:26:30.000Z</time>
      </trkpt>
      <trkpt lat="45.88666" lon="4.58635">
        <ele>268.0834</ele>
        <time>2023-12-07T14:26:31.000Z</time>
      </trkpt>
      <trkpt lat="45.88662" lon="4.58637">
        <ele>268.02264</ele>
        <time>2023-12-07T14:26:32.000Z</time>
      </trkpt>
      <trkpt lat="45.88658" lon="4.5864">
        <ele>267.95685</ele>
        <time>2023-12-07T14:26:33.000Z</time>
      </trkpt>
      <trkpt lat="45.88654" lon="4.58642">
        <ele>267.66547</ele>
        <time>2023-12-07T14:26:34.000Z</time>
      </trkpt>
      <trkpt lat="45.88651" lon="4.58644">
        <ele>267.38312</ele>
        <time>2023-12-07T14:26:35.000Z</time>
      </trkpt>
      <trkpt lat="45.88647" lon="4.58646">
        <ele>267.10583</ele>
        <time>2023-12-07T14:26:36.000Z</time>
      </trkpt>
      <trkpt lat="45.88643" lon="4.58649">
        <ele>266.78824</ele>
        <time>2023-12-07T14:26:37.000Z</time>
      </trkpt>
      <trkpt lat="45.88639" lon="4.58652">
        <ele>266.96115</ele>
        <time>2023-12-07T14:26:38.000Z</time>
      </trkpt>
      <trkpt lat="45.88635" lon="4.58655">
        <ele>267.09131</ele>
        <time>2023-12-07T14:26:39.000Z</time>
      </trkpt>
      <trkpt lat="45.88632" lon="4.58657">
        <ele>267.24393</ele>
        <time>2023-12-07T14:26:40.000Z</time>
      </trkpt>
      <trkpt lat="45.88628" lon="4.58659">
        <ele>267.39069</ele>
        <time>2023-12-07T14:26:41.000Z</time>
      </trkpt>
      <trkpt lat="45.88625" lon="4.5866">
        <ele>267.58926</ele>
        <time>2023-12-07T14:26:42.000Z</time>
      </trkpt>
      <trkpt lat="45.88621" lon="4.58662">
        <ele>267.41672</ele>
        <time>2023-12-07T14:26:43.000Z</time>
      </trkpt>
      <trkpt lat="45.88618" lon="4.58664">
        <ele>267.32144</ele>
        <time>2023-12-07T14:26:44.000Z</time>
      </trkpt>
      <trkpt lat="45.88615" lon="4.58667">
        <ele>267.23172</ele>
        <time>2023-12-07T14:26:45.000Z</time>
      </trkpt>
      <trkpt lat="45.88613" lon="4.58671">
        <ele>267.12628</ele>
        <time>2023-12-07T14:26:46.000Z</time>
      </trkpt>
      <trkpt lat="45.8861" lon="4.58675">
        <ele>266.99585</ele>
        <time>2023-12-07T14:26:47.000Z</time>
      </trkpt>
      <trkpt lat="45.88608" lon="4.58678">
        <ele>266.9165</ele>
        <time>2023-12-07T14:26:48.000Z</time>
      </trkpt>
      <trkpt lat="45.88605" lon="4.58681">
        <ele>266.84668</ele>
        <time>2023-12-07T14:28:28.000Z</time>
      </trkpt>
      <trkpt lat="45.88603" lon="4.58684">
        <ele>266.77704</ele>
        <time>2023-12-07T14:28:29.000Z</time>
      </trkpt>
      <trkpt lat="45.88601" lon="4.58687">
        <ele>266.72034</ele>
        <time>2023-12-07T14:28:30.000Z</time>
      </trkpt>
      <trkpt lat="45.88598" lon="4.5869">
        <ele>266.65982</ele>
        <time>2023-12-07T14:28:31.000Z</time>
      </trkpt>
      <trkpt lat="45.88595" lon="4.58693">
        <ele>266.5975</ele>
        <time>2023-12-07T14:28:32.000Z</time>
      </trkpt>
      <trkpt lat="45.88592" lon="4.58696">
        <ele>266.76096</ele>
        <time>2023-12-07T14:28:33.000Z</time>
      </trkpt>
      <trkpt lat="45.88589" lon="4.587">
        <ele>266.7486</ele>
        <time>2023-12-07T14:28:34.000Z</time>
      </trkpt>
      <trkpt lat="45.88585" lon="4.58703">
        <ele>266.75558</ele>
        <time>2023-12-07T14:28:35.000Z</time>
      </trkpt>
      <trkpt lat="45.88582" lon="4.58706">
        <ele>266.74072</ele>
        <time>2023-12-07T14:28:36.000Z</time>
      </trkpt>
      <trkpt lat="45.88578" lon="4.58707">
        <ele>266.72507</ele>
        <time>2023-12-07T14:28:37.000Z</time>
      </trkpt>
      <trkpt lat="45.88574" lon="4.58709">
        <ele>266.72385</ele>
        <time>2023-12-07T14:28:38.000Z</time>
      </trkpt>
      <trkpt lat="45.8857" lon="4.58711">
        <ele>266.68948</ele>
        <time>2023-12-07T14:28:39.000Z</time>
      </trkpt>
      <trkpt lat="45.88566" lon="4.58712">
        <ele>266.68967</ele>
        <time>2023-12-07T14:28:40.000Z</time>
      </trkpt>
      <trkpt lat="45.88561" lon="4.58713">
        <ele>266.65613</ele>
        <time>2023-12-07T14:28:41.000Z</time>
      </trkpt>
      <trkpt lat="45.88556" lon="4.58713">
        <ele>266.63983</ele>
        <time>2023-12-07T14:28:42.000Z</time>
      </trkpt>
      <trkpt lat="45.88553" lon="4.58714">
        <ele>266.61325</ele>
        <time>2023-12-07T14:28:43.000Z</time>
      </trkpt>
      <trkpt lat="45.88549" lon="4.58715">
        <ele>266.58649</ele>
        <time>2023-12-07T14:28:44.000Z</time>
      </trkpt>
      <trkpt lat="45.88546" lon="4.58715">
        <ele>266.50919</ele>
        <time>2023-12-07T14:28:45.000Z</time>
      </trkpt>
      <trkpt lat="45.88542" lon="4.58717">
        <ele>266.42807</ele>
        <time>2023-12-07T14:28:46.000Z</time>
      </trkpt>
      <trkpt lat="45.8854" lon="4.58718">
        <ele>266.35339</ele>
        <time>2023-12-07T14:28:47.000Z</time>
      </trkpt>
      <trkpt lat="45.88537" lon="4.58718">
        <ele>266.21848</ele>
        <time>2023-12-07T14:28:48.000Z</time>
      </trkpt>
      <trkpt lat="45.88534" lon="4.58718">
        <ele>266.00317</ele>
        <time>2023-12-07T14:28:50.000Z</time>
      </trkpt>
      <trkpt lat="45.88531" lon="4.58719">
        <ele>265.91705</ele>
        <time>2023-12-07T14:28:52.000Z</time>
      </trkpt>
      <trkpt lat="45.88528" lon="4.58719">
        <ele>265.84451</ele>
        <time>2023-12-07T14:28:54.000Z</time>
      </trkpt>
      <trkpt lat="45.88526" lon="4.58719">
        <ele>265.74744</ele>
        <time>2023-12-07T14:28:56.000Z</time>
      </trkpt>
      <trkpt lat="45.88522" lon="4.5872">
        <ele>265.4512</ele>
        <time>2023-12-07T14:28:58.000Z</time>
      </trkpt>
      <trkpt lat="45.8852" lon="4.5872">
        <ele>265.30853</ele>
        <time>2023-12-07T14:28:59.000Z</time>
      </trkpt>
      <trkpt lat="45.88518" lon="4.5872">
        <ele>265.16437</ele>
        <time>2023-12-07T14:29:00.000Z</time>
      </trkpt>
      <trkpt lat="45.88516" lon="4.58721">
        <ele>265.10324</ele>
        <time>2023-12-07T14:29:01.000Z</time>
      </trkpt>
      <trkpt lat="45.88514" lon="4.58721">
        <ele>264.67432</ele>
        <time>2023-12-07T14:29:02.000Z</time>
      </trkpt>
      <trkpt lat="45.8851" lon="4.58721">
        <ele>264.52164</ele>
        <time>2023-12-07T14:29:03.000Z</time>
      </trkpt>
      <trkpt lat="45.88507" lon="4.58721">
        <ele>264.33978</ele>
        <time>2023-12-07T14:29:04.000Z</time>
      </trkpt>
      <trkpt lat="45.88503" lon="4.58721">
        <ele>264.16019</ele>
        <time>2023-12-07T14:29:05.000Z</time>
      </trkpt>
      <trkpt lat="45.88499" lon="4.58721">
        <ele>263.94397</ele>
        <time>2023-12-07T14:29:06.000Z</time>
      </trkpt>
      <trkpt lat="45.88495" lon="4.58721">
        <ele>263.73856</ele>
        <time>2023-12-07T14:29:07.000Z</time>
      </trkpt>
      <trkpt lat="45.8849" lon="4.58722">
        <ele>263.46094</ele>
        <time>2023-12-07T14:29:08.000Z</time>
      </trkpt>
      <trkpt lat="45.88486" lon="4.58722">
        <ele>263.19202</ele>
        <time>2023-12-07T14:29:09.000Z</time>
      </trkpt>
      <trkpt lat="45.88482" lon="4.58724">
        <ele>262.92786</ele>
        <time>2023-12-07T14:29:10.000Z</time>
      </trkpt>
      <trkpt lat="45.88478" lon="4.58727">
        <ele>262.69006</ele>
        <time>2023-12-07T14:29:11.000Z</time>
      </trkpt>
      <trkpt lat="45.88475" lon="4.58731">
        <ele>262.51962</ele>
        <time>2023-12-07T14:29:12.000Z</time>
      </trkpt>
      <trkpt lat="45.88473" lon="4.58737">
        <ele>262.26236</ele>
        <time>2023-12-07T14:29:13.000Z</time>
      </trkpt>
      <trkpt lat="45.88472" lon="4.58742">
        <ele>262.07565</ele>
        <time>2023-12-07T14:29:14.000Z</time>
      </trkpt>
      <trkpt lat="45.88471" lon="4.58747">
        <ele>261.83606</ele>
        <time>2023-12-07T14:29:15.000Z</time>
      </trkpt>
      <trkpt lat="45.8847" lon="4.58752">
        <ele>261.5462</ele>
        <time>2023-12-07T14:29:16.000Z</time>
      </trkpt>
      <trkpt lat="45.88469" lon="4.58756">
        <ele>261.20435</ele>
        <time>2023-12-07T14:29:17.000Z</time>
      </trkpt>
      <trkpt lat="45.88469" lon="4.58759">
        <ele>260.93976</ele>
        <time>2023-12-07T14:29:18.000Z</time>
      </trkpt>
      <trkpt lat="45.88468" lon="4.58763">
        <ele>260.64618</ele>
        <time>2023-12-07T14:29:19.000Z</time>
      </trkpt>
      <trkpt lat="45.88467" lon="4.58768">
        <ele>260.60956</ele>
        <time>2023-12-07T14:29:20.000Z</time>
      </trkpt>
      <trkpt lat="45.88466" lon="4.58773">
        <ele>260.49423</ele>
        <time>2023-12-07T14:29:21.000Z</time>
      </trkpt>
      <trkpt lat="45.88466" lon="4.58777">
        <ele>260.48969</ele>
        <time>2023-12-07T14:29:22.000Z</time>
      </trkpt>
      <trkpt lat="45.88466" lon="4.58781">
        <ele>260.21664</ele>
        <time>2023-12-07T14:29:23.000Z</time>
      </trkpt>
      <trkpt lat="45.88467" lon="4.58786">
        <ele>259.96158</ele>
        <time>2023-12-07T14:29:24.000Z</time>
      </trkpt>
      <trkpt lat="45.88467" lon="4.58791">
        <ele>259.73694</ele>
        <time>2023-12-07T14:29:25.000Z</time>
      </trkpt>
      <trkpt lat="45.88468" lon="4.58796">
        <ele>259.65118</ele>
        <time>2023-12-07T14:29:26.000Z</time>
      </trkpt>
      <trkpt lat="45.8847" lon="4.58801">
        <ele>259.47821</ele>
        <time>2023-12-07T14:29:27.000Z</time>
      </trkpt>
      <trkpt lat="45.8847" lon="4.58805">
        <ele>259.38458</ele>
        <time>2023-12-07T14:29:28.000Z</time>
      </trkpt>
      <trkpt lat="45.8847" lon="4.58809">
        <ele>259.29776</ele>
        <time>2023-12-07T14:29:29.000Z</time>
      </trkpt>
      <trkpt lat="45.88471" lon="4.58814">
        <ele>259.2446</ele>
        <time>2023-12-07T14:29:30.000Z</time>
      </trkpt>
      <trkpt lat="45.88472" lon="4.58819">
        <ele>259.19257</ele>
        <time>2023-12-07T14:29:31.000Z</time>
      </trkpt>
      <trkpt lat="45.88473" lon="4.58825">
        <ele>259.04227</ele>
        <time>2023-12-07T14:29:32.000Z</time>
      </trkpt>
      <trkpt lat="45.88474" lon="4.5883">
        <ele>258.99585</ele>
        <time>2023-12-07T14:29:33.000Z</time>
      </trkpt>
      <trkpt lat="45.88475" lon="4.58835">
        <ele>258.90237</ele>
        <time>2023-12-07T14:29:34.000Z</time>
      </trkpt>
      <trkpt lat="45.88477" lon="4.58841">
        <ele>258.7496</ele>
        <time>2023-12-07T14:29:35.000Z</time>
      </trkpt>
      <trkpt lat="45.88477" lon="4.58846">
        <ele>258.89142</ele>
        <time>2023-12-07T14:29:36.000Z</time>
      </trkpt>
      <trkpt lat="45.88478" lon="4.58851">
        <ele>258.9725</ele>
        <time>2023-12-07T14:29:37.000Z</time>
      </trkpt>
      <trkpt lat="45.88479" lon="4.58856">
        <ele>259.18036</ele>
        <time>2023-12-07T14:29:38.000Z</time>
      </trkpt>
      <trkpt lat="45.88479" lon="4.58861">
        <ele>259.53802</ele>
        <time>2023-12-07T14:29:39.000Z</time>
      </trkpt>
      <trkpt lat="45.88479" lon="4.58866">
        <ele>259.5741</ele>
        <time>2023-12-07T14:29:40.000Z</time>
      </trkpt>
      <trkpt lat="45.88479" lon="4.5887">
        <ele>259.71506</ele>
        <time>2023-12-07T14:29:41.000Z</time>
      </trkpt>
      <trkpt lat="45.8848" lon="4.58875">
        <ele>259.83539</ele>
        <time>2023-12-07T14:29:42.000Z</time>
      </trkpt>
      <trkpt lat="45.8848" lon="4.5888">
        <ele>260.00452</ele>
        <time>2023-12-07T14:29:43.000Z</time>
      </trkpt>
      <trkpt lat="45.8848" lon="4.58885">
        <ele>260.20471</ele>
        <time>2023-12-07T14:29:44.000Z</time>
      </trkpt>
      <trkpt lat="45.8848" lon="4.58891">
        <ele>260.366</ele>
        <time>2023-12-07T14:29:45.000Z</time>
      </trkpt>
      <trkpt lat="45.8848" lon="4.58897">
        <ele>260.4505</ele>
        <time>2023-12-07T14:29:46.000Z</time>
      </trkpt>
      <trkpt lat="45.88479" lon="4.58904">
        <ele>260.56854</ele>
        <time>2023-12-07T14:29:47.000Z</time>
      </trkpt>
      <trkpt lat="45.88478" lon="4.5891">
        <ele>260.74954</ele>
        <time>2023-12-07T14:29:48.000Z</time>
      </trkpt>
      <trkpt lat="45.88478" lon="4.58916">
        <ele>260.72906</ele>
        <time>2023-12-07T14:29:49.000Z</time>
      </trkpt>
      <trkpt lat="45.88477" lon="4.58922">
        <ele>260.67938</ele>
        <time>2023-12-07T14:29:50.000Z</time>
      </trkpt>
      <trkpt lat="45.88476" lon="4.58927">
        <ele>260.93823</ele>
        <time>2023-12-07T14:29:51.000Z</time>
      </trkpt>
      <trkpt lat="45.88476" lon="4.58932">
        <ele>261.11499</ele>
        <time>2023-12-07T14:29:52.000Z</time>
      </trkpt>
      <trkpt lat="45.88475" lon="4.58938">
        <ele>261.25592</ele>
        <time>2023-12-07T14:29:53.000Z</time>
      </trkpt>
      <trkpt lat="45.88475" lon="4.58943">
        <ele>261.50363</ele>
        <time>2023-12-07T14:29:54.000Z</time>
      </trkpt>
      <trkpt lat="45.88475" lon="4.58947">
        <ele>261.80991</ele>
        <time>2023-12-07T14:29:55.000Z</time>
      </trkpt>
      <trkpt lat="45.88475" lon="4.58952">
        <ele>261.80322</ele>
        <time>2023-12-07T14:29:56.000Z</time>
      </trkpt>
      <trkpt lat="45.88475" lon="4.58957">
        <ele>261.86249</ele>
        <time>2023-12-07T14:29:57.000Z</time>
      </trkpt>
      <trkpt lat="45.88475" lon="4.58961">
        <ele>261.90491</ele>
        <time>2023-12-07T14:29:58.000Z</time>
      </trkpt>
      <trkpt lat="45.88474" lon="4.58965">
        <ele>261.88354</ele>
        <time>2023-12-07T14:29:59.000Z</time>
      </trkpt>
      <trkpt lat="45.88473" lon="4.58969">
        <ele>261.93854</ele>
        <time>2023-12-07T14:30:00.000Z</time>
      </trkpt>
      <trkpt lat="45.88471" lon="4.58973">
        <ele>261.94257</ele>
        <time>2023-12-07T14:30:01.000Z</time>
      </trkpt>
      <trkpt lat="45.8847" lon="4.58978">
        <ele>261.8898</ele>
        <time>2023-12-07T14:30:02.000Z</time>
      </trkpt>
      <trkpt lat="45.88469" lon="4.58982">
        <ele>261.8537</ele>
        <time>2023-12-07T14:30:03.000Z</time>
      </trkpt>
      <trkpt lat="45.88468" lon="4.58986">
        <ele>261.87469</ele>
        <time>2023-12-07T14:30:04.000Z</time>
      </trkpt>
      <trkpt lat="45.88467" lon="4.58991">
        <ele>261.83362</ele>
        <time>2023-12-07T14:30:05.000Z</time>
      </trkpt>
      <trkpt lat="45.88466" lon="4.58995">
        <ele>261.70709</ele>
        <time>2023-12-07T14:30:06.000Z</time>
      </trkpt>
      <trkpt lat="45.88465" lon="4.58998">
        <ele>261.64496</ele>
        <time>2023-12-07T14:30:07.000Z</time>
      </trkpt>
      <trkpt lat="45.88464" lon="4.59002">
        <ele>261.51651</ele>
        <time>2023-12-07T14:30:08.000Z</time>
      </trkpt>
      <trkpt lat="45.88463" lon="4.59006">
        <ele>261.57806</ele>
        <time>2023-12-07T14:30:09.000Z</time>
      </trkpt>
      <trkpt lat="45.88462" lon="4.5901">
        <ele>261.75076</ele>
        <time>2023-12-07T14:30:10.000Z</time>
      </trkpt>
      <trkpt lat="45.88461" lon="4.59014">
        <ele>261.64719</ele>
        <time>2023-12-07T14:30:11.000Z</time>
      </trkpt>
      <trkpt lat="45.8846" lon="4.59018">
        <ele>261.6192</ele>
        <time>2023-12-07T14:30:12.000Z</time>
      </trkpt>
      <trkpt lat="45.88459" lon="4.59021">
        <ele>261.64798</ele>
        <time>2023-12-07T14:30:13.000Z</time>
      </trkpt>
      <trkpt lat="45.88459" lon="4.59025">
        <ele>261.54544</ele>
        <time>2023-12-07T14:30:14.000Z</time>
      </trkpt>
      <trkpt lat="45.88458" lon="4.59029">
        <ele>261.3981</ele>
        <time>2023-12-07T14:30:15.000Z</time>
      </trkpt>
      <trkpt lat="45.88458" lon="4.59032">
        <ele>261.30182</ele>
        <time>2023-12-07T14:30:16.000Z</time>
      </trkpt>
      <trkpt lat="45.88457" lon="4.59036">
        <ele>261.32458</ele>
        <time>2023-12-07T14:30:17.000Z</time>
      </trkpt>
      <trkpt lat="45.88456" lon="4.59039">
        <ele>261.2652</ele>
        <time>2023-12-07T14:30:18.000Z</time>
      </trkpt>
      <trkpt lat="45.88455" lon="4.59042">
        <ele>261.215</ele>
        <time>2023-12-07T14:30:19.000Z</time>
      </trkpt>
      <trkpt lat="45.88455" lon="4.59045">
        <ele>261.18228</ele>
        <time>2023-12-07T14:30:20.000Z</time>
      </trkpt>
      <trkpt lat="45.88454" lon="4.5905">
        <ele>261.05328</ele>
        <time>2023-12-07T14:30:21.000Z</time>
      </trkpt>
      <trkpt lat="45.88453" lon="4.59055">
        <ele>260.95837</ele>
        <time>2023-12-07T14:30:22.000Z</time>
      </trkpt>
      <trkpt lat="45.88453" lon="4.5906">
        <ele>260.81577</ele>
        <time>2023-12-07T14:30:23.000Z</time>
      </trkpt>
      <trkpt lat="45.88453" lon="4.59065">
        <ele>260.60651</ele>
        <time>2023-12-07T14:30:24.000Z</time>
      </trkpt>
      <trkpt lat="45.88453" lon="4.59071">
        <ele>260.46506</ele>
        <time>2023-12-07T14:30:25.000Z</time>
      </trkpt>
      <trkpt lat="45.88453" lon="4.59076">
        <ele>260.36847</ele>
        <time>2023-12-07T14:30:26.000Z</time>
      </trkpt>
      <trkpt lat="45.88453" lon="4.59082">
        <ele>260.16962</ele>
        <time>2023-12-07T14:30:27.000Z</time>
      </trkpt>
      <trkpt lat="45.88453" lon="4.59088">
        <ele>260.00385</ele>
        <time>2023-12-07T14:30:28.000Z</time>
      </trkpt>
      <trkpt lat="45.88452" lon="4.59094">
        <ele>260.05069</ele>
        <time>2023-12-07T14:30:29.000Z</time>
      </trkpt>
      <trkpt lat="45.88451" lon="4.591">
        <ele>259.97437</ele>
        <time>2023-12-07T14:30:30.000Z</time>
      </trkpt>
      <trkpt lat="45.8845" lon="4.59108">
        <ele>259.47589</ele>
        <time>2023-12-07T14:30:31.000Z</time>
      </trkpt>
      <trkpt lat="45.88448" lon="4.59114">
        <ele>258.91583</ele>
        <time>2023-12-07T14:30:32.000Z</time>
      </trkpt>
      <trkpt lat="45.88447" lon="4.59119">
        <ele>258.38995</ele>
        <time>2023-12-07T14:30:33.000Z</time>
      </trkpt>
      <trkpt lat="45.88444" lon="4.59125">
        <ele>257.91058</ele>
        <time>2023-12-07T14:30:34.000Z</time>
      </trkpt>
      <trkpt lat="45.88443" lon="4.5913">
        <ele>257.39435</ele>
        <time>2023-12-07T14:30:35.000Z</time>
      </trkpt>
      <trkpt lat="45.88441" lon="4.59135">
        <ele>256.93396</ele>
        <time>2023-12-07T14:30:36.000Z</time>
      </trkpt>
      <trkpt lat="45.88438" lon="4.59143">
        <ele>256.43201</ele>
        <time>2023-12-07T14:30:37.000Z</time>
      </trkpt>
      <trkpt lat="45.88437" lon="4.59147">
        <ele>256.05194</ele>
        <time>2023-12-07T14:30:38.000Z</time>
      </trkpt>
      <trkpt lat="45.88434" lon="4.59153">
        <ele>255.65494</ele>
        <time>2023-12-07T14:30:39.000Z</time>
      </trkpt>
      <trkpt lat="45.88431" lon="4.59158">
        <ele>254.90189</ele>
        <time>2023-12-07T14:30:40.000Z</time>
      </trkpt>
      <trkpt lat="45.88428" lon="4.59164">
        <ele>254.30269</ele>
        <time>2023-12-07T14:30:41.000Z</time>
      </trkpt>
      <trkpt lat="45.88424" lon="4.5917">
        <ele>253.8571</ele>
        <time>2023-12-07T14:30:42.000Z</time>
      </trkpt>
      <trkpt lat="45.88419" lon="4.59175">
        <ele>253.4635</ele>
        <time>2023-12-07T14:30:43.000Z</time>
      </trkpt>
      <trkpt lat="45.88413" lon="4.59178">
        <ele>253.12309</ele>
        <time>2023-12-07T14:30:44.000Z</time>
      </trkpt>
      <trkpt lat="45.88408" lon="4.59183">
        <ele>252.73605</ele>
        <time>2023-12-07T14:30:45.000Z</time>
      </trkpt>
      <trkpt lat="45.884" lon="4.59186">
        <ele>252.15096</ele>
        <time>2023-12-07T14:30:46.000Z</time>
      </trkpt>
      <trkpt lat="45.88396" lon="4.59189">
        <ele>251.55708</ele>
        <time>2023-12-07T14:30:47.000Z</time>
      </trkpt>
      <trkpt lat="45.88391" lon="4.59191">
        <ele>251.37102</ele>
        <time>2023-12-07T14:30:48.000Z</time>
      </trkpt>
      <trkpt lat="45.88386" lon="4.59194">
        <ele>250.92183</ele>
        <time>2023-12-07T14:30:49.000Z</time>
      </trkpt>
      <trkpt lat="45.88382" lon="4.59198">
        <ele>250.55612</ele>
        <time>2023-12-07T14:30:50.000Z</time>
      </trkpt>
      <trkpt lat="45.88379" lon="4.59202">
        <ele>250.55424</ele>
        <time>2023-12-07T14:30:51.000Z</time>
      </trkpt>
      <trkpt lat="45.88375" lon="4.59206">
        <ele>250.6554</ele>
        <time>2023-12-07T14:30:52.000Z</time>
      </trkpt>
      <trkpt lat="45.88371" lon="4.59211">
        <ele>250.35982</ele>
        <time>2023-12-07T14:30:53.000Z</time>
      </trkpt>
      <trkpt lat="45.88367" lon="4.59216">
        <ele>250.99687</ele>
        <time>2023-12-07T14:30:54.000Z</time>
      </trkpt>
      <trkpt lat="45.88365" lon="4.59221">
        <ele>251.67526</ele>
        <time>2023-12-07T14:30:55.000Z</time>
      </trkpt>
      <trkpt lat="45.88362" lon="4.59226">
        <ele>252.31026</ele>
        <time>2023-12-07T14:30:56.000Z</time>
      </trkpt>
      <trkpt lat="45.88359" lon="4.59231">
        <ele>252.97256</ele>
        <time>2023-12-07T14:30:57.000Z</time>
      </trkpt>
      <trkpt lat="45.88357" lon="4.59236">
        <ele>253.6102</ele>
        <time>2023-12-07T14:30:58.000Z</time>
      </trkpt>
      <trkpt lat="45.88354" lon="4.5924">
        <ele>254.2334</ele>
        <time>2023-12-07T14:30:59.000Z</time>
      </trkpt>
      <trkpt lat="45.88352" lon="4.59245">
        <ele>255.21541</ele>
        <time>2023-12-07T14:31:00.000Z</time>
      </trkpt>
      <trkpt lat="45.8835" lon="4.5925">
        <ele>256.18619</ele>
        <time>2023-12-07T14:31:01.000Z</time>
      </trkpt>
      <trkpt lat="45.88347" lon="4.59253">
        <ele>257.00482</ele>
        <time>2023-12-07T14:31:02.000Z</time>
      </trkpt>
      <trkpt lat="45.88346" lon="4.59259">
        <ele>257.82709</ele>
        <time>2023-12-07T14:31:03.000Z</time>
      </trkpt>
      <trkpt lat="45.88344" lon="4.59263">
        <ele>258.58688</ele>
        <time>2023-12-07T14:31:04.000Z</time>
      </trkpt>
      <trkpt lat="45.88342" lon="4.59267">
        <ele>259.33429</ele>
        <time>2023-12-07T14:31:05.000Z</time>
      </trkpt>
      <trkpt lat="45.8834" lon="4.59271">
        <ele>260.27374</ele>
        <time>2023-12-07T14:31:06.000Z</time>
      </trkpt>
      <trkpt lat="45.88338" lon="4.59274">
        <ele>261.32098</ele>
        <time>2023-12-07T14:31:07.000Z</time>
      </trkpt>
      <trkpt lat="45.88336" lon="4.59277">
        <ele>261.94812</ele>
        <time>2023-12-07T14:31:08.000Z</time>
      </trkpt>
      <trkpt lat="45.88334" lon="4.5928">
        <ele>262.61569</ele>
        <time>2023-12-07T14:31:09.000Z</time>
      </trkpt>
      <trkpt lat="45.88333" lon="4.59283">
        <ele>263.26865</ele>
        <time>2023-12-07T14:31:10.000Z</time>
      </trkpt>
      <trkpt lat="45.88331" lon="4.59286">
        <ele>263.92764</ele>
        <time>2023-12-07T14:31:11.000Z</time>
      </trkpt>
      <trkpt lat="45.88331" lon="4.59289">
        <ele>264.62067</ele>
        <time>2023-12-07T14:31:12.000Z</time>
      </trkpt>
      <trkpt lat="45.8833" lon="4.59292">
        <ele>265.26733</ele>
        <time>2023-12-07T14:31:13.000Z</time>
      </trkpt>
      <trkpt lat="45.88329" lon="4.59295">
        <ele>264.99005</ele>
        <time>2023-12-07T14:31:14.000Z</time>
      </trkpt>
      <trkpt lat="45.88328" lon="4.59298">
        <ele>264.73624</ele>
        <time>2023-12-07T14:31:15.000Z</time>
      </trkpt>
      <trkpt lat="45.88328" lon="4.593">
        <ele>264.45932</ele>
        <time>2023-12-07T14:31:16.000Z</time>
      </trkpt>
      <trkpt lat="45.88327" lon="4.59303">
        <ele>264.27194</ele>
        <time>2023-12-07T14:31:17.000Z</time>
      </trkpt>
      <trkpt lat="45.88325" lon="4.59305">
        <ele>264.15875</ele>
        <time>2023-12-07T14:31:18.000Z</time>
      </trkpt>
      <trkpt lat="45.88323" lon="4.59309">
        <ele>264.09781</ele>
        <time>2023-12-07T14:31:20.000Z</time>
      </trkpt>
      <trkpt lat="45.88322" lon="4.59312">
        <ele>264.04529</ele>
        <time>2023-12-07T14:31:21.000Z</time>
      </trkpt>
      <trkpt lat="45.88321" lon="4.59314">
        <ele>263.98648</ele>
        <time>2023-12-07T14:31:22.000Z</time>
      </trkpt>
      <trkpt lat="45.88319" lon="4.59319">
        <ele>263.97736</ele>
        <time>2023-12-07T14:31:24.000Z</time>
      </trkpt>
      <trkpt lat="45.88319" lon="4.59322">
        <ele>263.97</ele>
        <time>2023-12-07T14:31:25.000Z</time>
      </trkpt>
      <trkpt lat="45.88319" lon="4.59324">
        <ele>264.004</ele>
        <time>2023-12-07T14:31:26.000Z</time>
      </trkpt>
      <trkpt lat="45.88318" lon="4.59327">
        <ele>264.08939</ele>
        <time>2023-12-07T14:31:27.000Z</time>
      </trkpt>
      <trkpt lat="45.88318" lon="4.5933">
        <ele>264.26422</ele>
        <time>2023-12-07T14:31:28.000Z</time>
      </trkpt>
      <trkpt lat="45.88317" lon="4.59332">
        <ele>264.42596</ele>
        <time>2023-12-07T14:31:29.000Z</time>
      </trkpt>
      <trkpt lat="45.88317" lon="4.59335">
        <ele>264.42889</ele>
        <time>2023-12-07T14:31:30.000Z</time>
      </trkpt>
      <trkpt lat="45.88317" lon="4.59338">
        <ele>264.35446</ele>
        <time>2023-12-07T14:31:31.000Z</time>
      </trkpt>
      <trkpt lat="45.88316" lon="4.59341">
        <ele>264.24634</ele>
        <time>2023-12-07T14:31:32.000Z</time>
      </trkpt>
      <trkpt lat="45.88316" lon="4.59344">
        <ele>264.43903</ele>
        <time>2023-12-07T14:31:33.000Z</time>
      </trkpt>
      <trkpt lat="45.88315" lon="4.59347">
        <ele>264.53653</ele>
        <time>2023-12-07T14:31:34.000Z</time>
      </trkpt>
      <trkpt lat="45.88315" lon="4.59351">
        <ele>265.05148</ele>
        <time>2023-12-07T14:31:35.000Z</time>
      </trkpt>
      <trkpt lat="45.88314" lon="4.59354">
        <ele>265.55951</ele>
        <time>2023-12-07T14:31:36.000Z</time>
      </trkpt>
      <trkpt lat="45.88313" lon="4.59358">
        <ele>266.01184</ele>
        <time>2023-12-07T14:31:37.000Z</time>
      </trkpt>
      <trkpt lat="45.88312" lon="4.59361">
        <ele>266.47421</ele>
        <time>2023-12-07T14:31:38.000Z</time>
      </trkpt>
      <trkpt lat="45.88311" lon="4.59365">
        <ele>266.81094</ele>
        <time>2023-12-07T14:31:39.000Z</time>
      </trkpt>
      <trkpt lat="45.8831" lon="4.59369">
        <ele>267.0578</ele>
        <time>2023-12-07T14:31:40.000Z</time>
      </trkpt>
      <trkpt lat="45.88309" lon="4.59373">
        <ele>267.25864</ele>
        <time>2023-12-07T14:31:41.000Z</time>
      </trkpt>
      <trkpt lat="45.88309" lon="4.59376">
        <ele>267.43817</ele>
        <time>2023-12-07T14:31:42.000Z</time>
      </trkpt>
      <trkpt lat="45.88308" lon="4.59379">
        <ele>267.57501</ele>
        <time>2023-12-07T14:31:43.000Z</time>
      </trkpt>
      <trkpt lat="45.88307" lon="4.59382">
        <ele>267.70572</ele>
        <time>2023-12-07T14:31:44.000Z</time>
      </trkpt>
      <trkpt lat="45.88306" lon="4.59385">
        <ele>267.78229</ele>
        <time>2023-12-07T14:31:45.000Z</time>
      </trkpt>
      <trkpt lat="45.88305" lon="4.59388">
        <ele>267.80319</ele>
        <time>2023-12-07T14:31:46.000Z</time>
      </trkpt>
      <trkpt lat="45.88304" lon="4.59391">
        <ele>267.81995</ele>
        <time>2023-12-07T14:31:47.000Z</time>
      </trkpt>
      <trkpt lat="45.88304" lon="4.59393">
        <ele>267.76099</ele>
        <time>2023-12-07T14:31:48.000Z</time>
      </trkpt>
      <trkpt lat="45.88303" lon="4.59397">
        <ele>267.72284</ele>
        <time>2023-12-07T14:31:49.000Z</time>
      </trkpt>
      <trkpt lat="45.88302" lon="4.594">
        <ele>267.82928</ele>
        <time>2023-12-07T14:31:50.000Z</time>
      </trkpt>
      <trkpt lat="45.88302" lon="4.59403">
        <ele>268.04156</ele>
        <time>2023-12-07T14:31:51.000Z</time>
      </trkpt>
      <trkpt lat="45.88301" lon="4.59406">
        <ele>268.27545</ele>
        <time>2023-12-07T14:31:52.000Z</time>
      </trkpt>
      <trkpt lat="45.883" lon="4.5941">
        <ele>268.1767</ele>
        <time>2023-12-07T14:31:53.000Z</time>
      </trkpt>
      <trkpt lat="45.883" lon="4.59413">
        <ele>268.13873</ele>
        <time>2023-12-07T14:31:54.000Z</time>
      </trkpt>
      <trkpt lat="45.88299" lon="4.59416">
        <ele>268.06708</ele>
        <time>2023-12-07T14:31:55.000Z</time>
      </trkpt>
      <trkpt lat="45.88298" lon="4.5942">
        <ele>268.0163</ele>
        <time>2023-12-07T14:31:56.000Z</time>
      </trkpt>
      <trkpt lat="45.88298" lon="4.59422">
        <ele>267.99655</ele>
        <time>2023-12-07T14:31:57.000Z</time>
      </trkpt>
      <trkpt lat="45.88297" lon="4.59425">
        <ele>267.99622</ele>
        <time>2023-12-07T14:31:58.000Z</time>
      </trkpt>
      <trkpt lat="45.88297" lon="4.59428">
        <ele>268.00412</ele>
        <time>2023-12-07T14:31:59.000Z</time>
      </trkpt>
      <trkpt lat="45.88297" lon="4.59431">
        <ele>268.00519</ele>
        <time>2023-12-07T14:32:00.000Z</time>
      </trkpt>
      <trkpt lat="45.88297" lon="4.59434">
        <ele>268.01587</ele>
        <time>2023-12-07T14:32:01.000Z</time>
      </trkpt>
      <trkpt lat="45.88297" lon="4.59437">
        <ele>268.02286</ele>
        <time>2023-12-07T14:32:02.000Z</time>
      </trkpt>
      <trkpt lat="45.88297" lon="4.5944">
        <ele>268.06049</ele>
        <time>2023-12-07T14:32:03.000Z</time>
      </trkpt>
      <trkpt lat="45.88297" lon="4.59443">
        <ele>268.08371</ele>
        <time>2023-12-07T14:32:04.000Z</time>
      </trkpt>
      <trkpt lat="45.88297" lon="4.59447">
        <ele>268.1377</ele>
        <time>2023-12-07T14:32:05.000Z</time>
      </trkpt>
      <trkpt lat="45.88297" lon="4.5945">
        <ele>268.17404</ele>
        <time>2023-12-07T14:32:06.000Z</time>
      </trkpt>
      <trkpt lat="45.88297" lon="4.59453">
        <ele>268.18716</ele>
        <time>2023-12-07T14:32:07.000Z</time>
      </trkpt>
      <trkpt lat="45.88296" lon="4.59456">
        <ele>268.20172</ele>
        <time>2023-12-07T14:32:08.000Z</time>
      </trkpt>
      <trkpt lat="45.88296" lon="4.59459">
        <ele>268.18549</ele>
        <time>2023-12-07T14:32:09.000Z</time>
      </trkpt>
      <trkpt lat="45.88295" lon="4.59463">
        <ele>268.15393</ele>
        <time>2023-12-07T14:32:10.000Z</time>
      </trkpt>
      <trkpt lat="45.88295" lon="4.59466">
        <ele>268.06674</ele>
        <time>2023-12-07T14:32:11.000Z</time>
      </trkpt>
      <trkpt lat="45.88295" lon="4.5947">
        <ele>268.02734</ele>
        <time>2023-12-07T14:32:12.000Z</time>
      </trkpt>
      <trkpt lat="45.88296" lon="4.59474">
        <ele>268.02563</ele>
        <time>2023-12-07T14:32:13.000Z</time>
      </trkpt>
      <trkpt lat="45.88296" lon="4.59478">
        <ele>268.0401</ele>
        <time>2023-12-07T14:32:14.000Z</time>
      </trkpt>
      <trkpt lat="45.88296" lon="4.59481">
        <ele>268.10199</ele>
        <time>2023-12-07T14:32:15.000Z</time>
      </trkpt>
      <trkpt lat="45.88297" lon="4.59484">
        <ele>268.15143</ele>
        <time>2023-12-07T14:32:16.000Z</time>
      </trkpt>
      <trkpt lat="45.88297" lon="4.59487">
        <ele>268.21054</ele>
        <time>2023-12-07T14:32:17.000Z</time>
      </trkpt>
      <trkpt lat="45.88297" lon="4.5949">
        <ele>268.07733</ele>
        <time>2023-12-07T14:32:18.000Z</time>
      </trkpt>
      <trkpt lat="45.88297" lon="4.59493">
        <ele>267.89044</ele>
        <time>2023-12-07T14:32:19.000Z</time>
      </trkpt>
      <trkpt lat="45.88297" lon="4.59497">
        <ele>267.72021</ele>
        <time>2023-12-07T14:32:20.000Z</time>
      </trkpt>
      <trkpt lat="45.88297" lon="4.59501">
        <ele>267.53604</ele>
        <time>2023-12-07T14:32:21.000Z</time>
      </trkpt>
      <trkpt lat="45.88297" lon="4.59504">
        <ele>267.27307</ele>
        <time>2023-12-07T14:32:22.000Z</time>
      </trkpt>
      <trkpt lat="45.88297" lon="4.59508">
        <ele>267.28873</ele>
        <time>2023-12-07T14:32:23.000Z</time>
      </trkpt>
      <trkpt lat="45.88297" lon="4.59511">
        <ele>267.24884</ele>
        <time>2023-12-07T14:32:24.000Z</time>
      </trkpt>
      <trkpt lat="45.88297" lon="4.59515">
        <ele>267.1864</ele>
        <time>2023-12-07T14:32:25.000Z</time>
      </trkpt>
      <trkpt lat="45.88297" lon="4.59518">
        <ele>267.18045</ele>
        <time>2023-12-07T14:32:26.000Z</time>
      </trkpt>
      <trkpt lat="45.88297" lon="4.59521">
        <ele>267.14041</ele>
        <time>2023-12-07T14:32:27.000Z</time>
      </trkpt>
      <trkpt lat="45.88297" lon="4.59524">
        <ele>267.12299</ele>
        <time>2023-12-07T14:32:28.000Z</time>
      </trkpt>
      <trkpt lat="45.88296" lon="4.59527">
        <ele>267.1152</ele>
        <time>2023-12-07T14:32:29.000Z</time>
      </trkpt>
      <trkpt lat="45.88296" lon="4.5953">
        <ele>267.12433</ele>
        <time>2023-12-07T14:32:30.000Z</time>
      </trkpt>
      <trkpt lat="45.88296" lon="4.59533">
        <ele>267.17981</ele>
        <time>2023-12-07T14:32:31.000Z</time>
      </trkpt>
      <trkpt lat="45.88296" lon="4.59536">
        <ele>267.20566</ele>
        <time>2023-12-07T14:32:32.000Z</time>
      </trkpt>
      <trkpt lat="45.88296" lon="4.59539">
        <ele>267.22577</ele>
        <time>2023-12-07T14:32:33.000Z</time>
      </trkpt>
      <trkpt lat="45.88296" lon="4.59543">
        <ele>267.23749</ele>
        <time>2023-12-07T14:32:34.000Z</time>
      </trkpt>
      <trkpt lat="45.88295" lon="4.59546">
        <ele>267.21213</ele>
        <time>2023-12-07T14:32:35.000Z</time>
      </trkpt>
      <trkpt lat="45.88295" lon="4.59549">
        <ele>267.19708</ele>
        <time>2023-12-07T14:32:36.000Z</time>
      </trkpt>
      <trkpt lat="45.88294" lon="4.59552">
        <ele>267.17679</ele>
        <time>2023-12-07T14:32:37.000Z</time>
      </trkpt>
      <trkpt lat="45.88294" lon="4.59556">
        <ele>267.32697</ele>
        <time>2023-12-07T14:32:38.000Z</time>
      </trkpt>
      <trkpt lat="45.88294" lon="4.59559">
        <ele>267.53549</ele>
        <time>2023-12-07T14:32:39.000Z</time>
      </trkpt>
      <trkpt lat="45.88293" lon="4.59562">
        <ele>267.56366</ele>
        <time>2023-12-07T14:32:40.000Z</time>
      </trkpt>
      <trkpt lat="45.88293" lon="4.59566">
        <ele>267.5871</ele>
        <time>2023-12-07T14:32:41.000Z</time>
      </trkpt>
      <trkpt lat="45.88293" lon="4.59569">
        <ele>267.66824</ele>
        <time>2023-12-07T14:32:42.000Z</time>
      </trkpt>
      <trkpt lat="45.88293" lon="4.59573">
        <ele>267.45612</ele>
        <time>2023-12-07T14:32:43.000Z</time>
      </trkpt>
      <trkpt lat="45.88293" lon="4.59576">
        <ele>267.29984</ele>
        <time>2023-12-07T14:32:44.000Z</time>
      </trkpt>
      <trkpt lat="45.88292" lon="4.59579">
        <ele>267.13992</ele>
        <time>2023-12-07T14:32:45.000Z</time>
      </trkpt>
      <trkpt lat="45.88291" lon="4.59582">
        <ele>266.96518</ele>
        <time>2023-12-07T14:32:46.000Z</time>
      </trkpt>
      <trkpt lat="45.88289" lon="4.59585">
        <ele>266.76276</ele>
        <time>2023-12-07T14:32:47.000Z</time>
      </trkpt>
      <trkpt lat="45.88288" lon="4.59588">
        <ele>266.87344</ele>
        <time>2023-12-07T14:32:48.000Z</time>
      </trkpt>
      <trkpt lat="45.88287" lon="4.5959">
        <ele>266.92493</ele>
        <time>2023-12-07T14:32:49.000Z</time>
      </trkpt>
      <trkpt lat="45.88285" lon="4.59593">
        <ele>266.97192</ele>
        <time>2023-12-07T14:32:50.000Z</time>
      </trkpt>
      <trkpt lat="45.88284" lon="4.59596">
        <ele>267.00214</ele>
        <time>2023-12-07T14:32:51.000Z</time>
      </trkpt>
      <trkpt lat="45.88283" lon="4.59599">
        <ele>267.04037</ele>
        <time>2023-12-07T14:32:52.000Z</time>
      </trkpt>
      <trkpt lat="45.88281" lon="4.59601">
        <ele>267.07275</ele>
        <time>2023-12-07T14:32:53.000Z</time>
      </trkpt>
      <trkpt lat="45.8828" lon="4.59604">
        <ele>267.09982</ele>
        <time>2023-12-07T14:32:54.000Z</time>
      </trkpt>
      <trkpt lat="45.88279" lon="4.59607">
        <ele>267.13547</ele>
        <time>2023-12-07T14:32:55.000Z</time>
      </trkpt>
      <trkpt lat="45.88277" lon="4.5961">
        <ele>267.17157</ele>
        <time>2023-12-07T14:32:56.000Z</time>
      </trkpt>
      <trkpt lat="45.88276" lon="4.59612">
        <ele>267.20758</ele>
        <time>2023-12-07T14:32:57.000Z</time>
      </trkpt>
      <trkpt lat="45.88275" lon="4.59614">
        <ele>267.25113</ele>
        <time>2023-12-07T14:32:58.000Z</time>
      </trkpt>
      <trkpt lat="45.88273" lon="4.59617">
        <ele>267.26486</ele>
        <time>2023-12-07T14:32:59.000Z</time>
      </trkpt>
      <trkpt lat="45.88271" lon="4.5962">
        <ele>267.27765</ele>
        <time>2023-12-07T14:33:00.000Z</time>
      </trkpt>
      <trkpt lat="45.88269" lon="4.59623">
        <ele>267.56894</ele>
        <time>2023-12-07T14:33:01.000Z</time>
      </trkpt>
      <trkpt lat="45.88267" lon="4.59625">
        <ele>267.81543</ele>
        <time>2023-12-07T14:33:02.000Z</time>
      </trkpt>
      <trkpt lat="45.88266" lon="4.59629">
        <ele>268.03845</ele>
        <time>2023-12-07T14:33:03.000Z</time>
      </trkpt>
      <trkpt lat="45.88264" lon="4.59632">
        <ele>268.26501</ele>
        <time>2023-12-07T14:33:04.000Z</time>
      </trkpt>
      <trkpt lat="45.88263" lon="4.59635">
        <ele>268.51175</ele>
        <time>2023-12-07T14:33:05.000Z</time>
      </trkpt>
      <trkpt lat="45.88261" lon="4.59638">
        <ele>268.58978</ele>
        <time>2023-12-07T14:33:06.000Z</time>
      </trkpt>
      <trkpt lat="45.8826" lon="4.59641">
        <ele>268.71576</ele>
        <time>2023-12-07T14:33:07.000Z</time>
      </trkpt>
      <trkpt lat="45.88258" lon="4.59644">
        <ele>268.49927</ele>
        <time>2023-12-07T14:33:08.000Z</time>
      </trkpt>
      <trkpt lat="45.88257" lon="4.59647">
        <ele>268.354</ele>
        <time>2023-12-07T14:33:09.000Z</time>
      </trkpt>
      <trkpt lat="45.88255" lon="4.59651">
        <ele>268.57452</ele>
        <time>2023-12-07T14:33:10.000Z</time>
      </trkpt>
      <trkpt lat="45.88254" lon="4.59654">
        <ele>268.75836</ele>
        <time>2023-12-07T14:33:11.000Z</time>
      </trkpt>
      <trkpt lat="45.88253" lon="4.59657">
        <ele>268.96518</ele>
        <time>2023-12-07T14:33:12.000Z</time>
      </trkpt>
      <trkpt lat="45.88252" lon="4.5966">
        <ele>269.19534</ele>
        <time>2023-12-07T14:33:13.000Z</time>
      </trkpt>
      <trkpt lat="45.8825" lon="4.59663">
        <ele>269.19528</ele>
        <time>2023-12-07T14:33:14.000Z</time>
      </trkpt>
      <trkpt lat="45.88249" lon="4.59667">
        <ele>269.13693</ele>
        <time>2023-12-07T14:33:15.000Z</time>
      </trkpt>
      <trkpt lat="45.88247" lon="4.5967">
        <ele>269.44778</ele>
        <time>2023-12-07T14:33:16.000Z</time>
      </trkpt>
      <trkpt lat="45.88245" lon="4.59673">
        <ele>269.7052</ele>
        <time>2023-12-07T14:33:17.000Z</time>
      </trkpt>
      <trkpt lat="45.88243" lon="4.59677">
        <ele>269.97577</ele>
        <time>2023-12-07T14:33:18.000Z</time>
      </trkpt>
      <trkpt lat="45.88241" lon="4.5968">
        <ele>270.28259</ele>
        <time>2023-12-07T14:33:19.000Z</time>
      </trkpt>
      <trkpt lat="45.88239" lon="4.59683">
        <ele>270.51132</ele>
        <time>2023-12-07T14:33:20.000Z</time>
      </trkpt>
      <trkpt lat="45.88237" lon="4.59687">
        <ele>270.40503</ele>
        <time>2023-12-07T14:33:21.000Z</time>
      </trkpt>
      <trkpt lat="45.88235" lon="4.5969">
        <ele>270.34244</ele>
        <time>2023-12-07T14:33:22.000Z</time>
      </trkpt>
      <trkpt lat="45.88233" lon="4.59694">
        <ele>270.68561</ele>
        <time>2023-12-07T14:33:23.000Z</time>
      </trkpt>
      <trkpt lat="45.88231" lon="4.59698">
        <ele>270.92685</ele>
        <time>2023-12-07T14:33:24.000Z</time>
      </trkpt>
      <trkpt lat="45.88229" lon="4.59702">
        <ele>271.15625</ele>
        <time>2023-12-07T14:33:25.000Z</time>
      </trkpt>
      <trkpt lat="45.88227" lon="4.59705">
        <ele>271.57455</ele>
        <time>2023-12-07T14:33:26.000Z</time>
      </trkpt>
      <trkpt lat="45.88226" lon="4.59709">
        <ele>271.99023</ele>
        <time>2023-12-07T14:33:27.000Z</time>
      </trkpt>
      <trkpt lat="45.88223" lon="4.59712">
        <ele>272.43976</ele>
        <time>2023-12-07T14:33:28.000Z</time>
      </trkpt>
      <trkpt lat="45.88221" lon="4.59715">
        <ele>272.86829</ele>
        <time>2023-12-07T14:33:29.000Z</time>
      </trkpt>
      <trkpt lat="45.88218" lon="4.59718">
        <ele>272.79648</ele>
        <time>2023-12-07T14:33:30.000Z</time>
      </trkpt>
      <trkpt lat="45.88216" lon="4.59721">
        <ele>272.7392</ele>
        <time>2023-12-07T14:33:31.000Z</time>
      </trkpt>
      <trkpt lat="45.88214" lon="4.59725">
        <ele>272.65363</ele>
        <time>2023-12-07T14:33:32.000Z</time>
      </trkpt>
      <trkpt lat="45.88212" lon="4.59728">
        <ele>272.5578</ele>
        <time>2023-12-07T14:33:33.000Z</time>
      </trkpt>
      <trkpt lat="45.8821" lon="4.59731">
        <ele>272.68524</ele>
        <time>2023-12-07T14:33:34.000Z</time>
      </trkpt>
      <trkpt lat="45.88208" lon="4.59734">
        <ele>272.87784</ele>
        <time>2023-12-07T14:33:35.000Z</time>
      </trkpt>
      <trkpt lat="45.88206" lon="4.59737">
        <ele>272.70071</ele>
        <time>2023-12-07T14:33:36.000Z</time>
      </trkpt>
      <trkpt lat="45.88204" lon="4.5974">
        <ele>272.569</ele>
        <time>2023-12-07T14:33:37.000Z</time>
      </trkpt>
      <trkpt lat="45.88202" lon="4.59742">
        <ele>272.41559</ele>
        <time>2023-12-07T14:33:38.000Z</time>
      </trkpt>
      <trkpt lat="45.882" lon="4.59745">
        <ele>272.24869</ele>
        <time>2023-12-07T14:33:39.000Z</time>
      </trkpt>
      <trkpt lat="45.882" lon="4.59749">
        <ele>272.31876</ele>
        <time>2023-12-07T14:33:40.000Z</time>
      </trkpt>
      <trkpt lat="45.88201" lon="4.59753">
        <ele>272.41321</ele>
        <time>2023-12-07T14:33:41.000Z</time>
      </trkpt>
      <trkpt lat="45.88203" lon="4.59757">
        <ele>272.49625</ele>
        <time>2023-12-07T14:33:42.000Z</time>
      </trkpt>
      <trkpt lat="45.88206" lon="4.5976">
        <ele>272.17331</ele>
        <time>2023-12-07T14:33:43.000Z</time>
      </trkpt>
      <trkpt lat="45.8821" lon="4.59762">
        <ele>271.9111</ele>
        <time>2023-12-07T14:33:44.000Z</time>
      </trkpt>
      <trkpt lat="45.88217" lon="4.59764">
        <ele>271.62125</ele>
        <time>2023-12-07T14:33:45.000Z</time>
      </trkpt>
      <trkpt lat="45.8822" lon="4.59769">
        <ele>271.29404</ele>
        <time>2023-12-07T14:33:46.000Z</time>
      </trkpt>
      <trkpt lat="45.88225" lon="4.59772">
        <ele>270.96246</ele>
        <time>2023-12-07T14:33:47.000Z</time>
      </trkpt>
      <trkpt lat="45.8823" lon="4.59777">
        <ele>270.61526</ele>
        <time>2023-12-07T14:33:48.000Z</time>
      </trkpt>
      <trkpt lat="45.88234" lon="4.59781">
        <ele>270.26163</ele>
        <time>2023-12-07T14:33:49.000Z</time>
      </trkpt>
      <trkpt lat="45.88239" lon="4.59786">
        <ele>270.02988</ele>
        <time>2023-12-07T14:33:50.000Z</time>
      </trkpt>
      <trkpt lat="45.88243" lon="4.5979">
        <ele>270.07513</ele>
        <time>2023-12-07T14:33:51.000Z</time>
      </trkpt>
      <trkpt lat="45.88247" lon="4.59794">
        <ele>269.98944</ele>
        <time>2023-12-07T14:33:52.000Z</time>
      </trkpt>
      <trkpt lat="45.88252" lon="4.59798">
        <ele>269.88632</ele>
        <time>2023-12-07T14:33:53.000Z</time>
      </trkpt>
      <trkpt lat="45.88256" lon="4.59802">
        <ele>269.78812</ele>
        <time>2023-12-07T14:33:54.000Z</time>
      </trkpt>
      <trkpt lat="45.8826" lon="4.59805">
        <ele>269.68652</ele>
        <time>2023-12-07T14:33:55.000Z</time>
      </trkpt>
      <trkpt lat="45.88264" lon="4.59809">
        <ele>269.57135</ele>
        <time>2023-12-07T14:33:56.000Z</time>
      </trkpt>
      <trkpt lat="45.88267" lon="4.59813">
        <ele>269.47174</ele>
        <time>2023-12-07T14:33:57.000Z</time>
      </trkpt>
      <trkpt lat="45.88271" lon="4.59816">
        <ele>269.35294</ele>
        <time>2023-12-07T14:33:58.000Z</time>
      </trkpt>
      <trkpt lat="45.88274" lon="4.59818">
        <ele>269.25433</ele>
        <time>2023-12-07T14:33:59.000Z</time>
      </trkpt>
      <trkpt lat="45.88278" lon="4.59821">
        <ele>269.15201</ele>
        <time>2023-12-07T14:34:00.000Z</time>
      </trkpt>
      <trkpt lat="45.88281" lon="4.59824">
        <ele>269.07013</ele>
        <time>2023-12-07T14:34:01.000Z</time>
      </trkpt>
      <trkpt lat="45.88282" lon="4.59827">
        <ele>268.97803</ele>
        <time>2023-12-07T14:34:02.000Z</time>
      </trkpt>
      <trkpt lat="45.88282" lon="4.59832">
        <ele>268.87567</ele>
        <time>2023-12-07T14:34:03.000Z</time>
      </trkpt>
      <trkpt lat="45.88281" lon="4.59839">
        <ele>268.78873</ele>
        <time>2023-12-07T14:34:04.000Z</time>
      </trkpt>
      <trkpt lat="45.8828" lon="4.59846">
        <ele>268.71063</ele>
        <time>2023-12-07T14:34:05.000Z</time>
      </trkpt>
      <trkpt lat="45.88278" lon="4.59853">
        <ele>268.6268</ele>
        <time>2023-12-07T14:34:06.000Z</time>
      </trkpt>
      <trkpt lat="45.88275" lon="4.59858">
        <ele>268.54761</ele>
        <time>2023-12-07T14:34:07.000Z</time>
      </trkpt>
      <trkpt lat="45.88274" lon="4.59862">
        <ele>268.49756</ele>
        <time>2023-12-07T14:34:08.000Z</time>
      </trkpt>
      <trkpt lat="45.88271" lon="4.59867">
        <ele>268.43997</ele>
        <time>2023-12-07T14:34:09.000Z</time>
      </trkpt>
      <trkpt lat="45.88269" lon="4.59873">
        <ele>268.38165</ele>
        <time>2023-12-07T14:34:10.000Z</time>
      </trkpt>
      <trkpt lat="45.88265" lon="4.59878">
        <ele>268.02649</ele>
        <time>2023-12-07T14:34:11.000Z</time>
      </trkpt>
      <trkpt lat="45.88262" lon="4.59884">
        <ele>267.80914</ele>
        <time>2023-12-07T14:34:12.000Z</time>
      </trkpt>
      <trkpt lat="45.88257" lon="4.59888">
        <ele>267.57895</ele>
        <time>2023-12-07T14:34:13.000Z</time>
      </trkpt>
      <trkpt lat="45.88253" lon="4.59892">
        <ele>267.20215</ele>
        <time>2023-12-07T14:34:14.000Z</time>
      </trkpt>
      <trkpt lat="45.88247" lon="4.59897">
        <ele>266.79132</ele>
        <time>2023-12-07T14:34:15.000Z</time>
      </trkpt>
      <trkpt lat="45.88241" lon="4.599">
        <ele>266.3671</ele>
        <time>2023-12-07T14:34:16.000Z</time>
      </trkpt>
      <trkpt lat="45.88237" lon="4.59902">
        <ele>265.92944</ele>
        <time>2023-12-07T14:34:17.000Z</time>
      </trkpt>
      <trkpt lat="45.88231" lon="4.59906">
        <ele>265.48148</ele>
        <time>2023-12-07T14:34:18.000Z</time>
      </trkpt>
      <trkpt lat="45.88226" lon="4.59909">
        <ele>264.98859</ele>
        <time>2023-12-07T14:34:19.000Z</time>
      </trkpt>
      <trkpt lat="45.8822" lon="4.59911">
        <ele>264.50165</ele>
        <time>2023-12-07T14:34:20.000Z</time>
      </trkpt>
      <trkpt lat="45.88215" lon="4.59913">
        <ele>264.01923</ele>
        <time>2023-12-07T14:34:21.000Z</time>
      </trkpt>
      <trkpt lat="45.88209" lon="4.59915">
        <ele>263.49484</ele>
        <time>2023-12-07T14:34:22.000Z</time>
      </trkpt>
      <trkpt lat="45.88203" lon="4.59918">
        <ele>262.98001</ele>
        <time>2023-12-07T14:34:23.000Z</time>
      </trkpt>
      <trkpt lat="45.88198" lon="4.5992">
        <ele>262.43732</ele>
        <time>2023-12-07T14:34:24.000Z</time>
      </trkpt>
      <trkpt lat="45.88192" lon="4.59921">
        <ele>261.89658</ele>
        <time>2023-12-07T14:34:25.000Z</time>
      </trkpt>
      <trkpt lat="45.88186" lon="4.59924">
        <ele>261.37839</ele>
        <time>2023-12-07T14:34:26.000Z</time>
      </trkpt>
      <trkpt lat="45.88179" lon="4.59926">
        <ele>260.84729</ele>
        <time>2023-12-07T14:34:27.000Z</time>
      </trkpt>
      <trkpt lat="45.88172" lon="4.59929">
        <ele>260.30432</ele>
        <time>2023-12-07T14:34:28.000Z</time>
      </trkpt>
      <trkpt lat="45.88165" lon="4.59934">
        <ele>259.9826</ele>
        <time>2023-12-07T14:34:29.000Z</time>
      </trkpt>
      <trkpt lat="45.88157" lon="4.59938">
        <ele>259.73029</ele>
        <time>2023-12-07T14:34:30.000Z</time>
      </trkpt>
      <trkpt lat="45.8815" lon="4.59941">
        <ele>259.4848</ele>
        <time>2023-12-07T14:34:31.000Z</time>
      </trkpt>
      <trkpt lat="45.88143" lon="4.59944">
        <ele>259.22467</ele>
        <time>2023-12-07T14:34:32.000Z</time>
      </trkpt>
      <trkpt lat="45.88137" lon="4.59945">
        <ele>258.90485</ele>
        <time>2023-12-07T14:34:33.000Z</time>
      </trkpt>
      <trkpt lat="45.88129" lon="4.59947">
        <ele>258.69165</ele>
        <time>2023-12-07T14:34:34.000Z</time>
      </trkpt>
      <trkpt lat="45.88122" lon="4.59949">
        <ele>258.46991</ele>
        <time>2023-12-07T14:34:35.000Z</time>
      </trkpt>
      <trkpt lat="45.88115" lon="4.5995">
        <ele>258.25717</ele>
        <time>2023-12-07T14:34:36.000Z</time>
      </trkpt>
      <trkpt lat="45.88107" lon="4.5995">
        <ele>257.94321</ele>
        <time>2023-12-07T14:34:37.000Z</time>
      </trkpt>
      <trkpt lat="45.881" lon="4.59949">
        <ele>257.62411</ele>
        <time>2023-12-07T14:34:38.000Z</time>
      </trkpt>
      <trkpt lat="45.88093" lon="4.59948">
        <ele>257.31277</ele>
        <time>2023-12-07T14:34:39.000Z</time>
      </trkpt>
      <trkpt lat="45.88086" lon="4.59948">
        <ele>257.02634</ele>
        <time>2023-12-07T14:34:40.000Z</time>
      </trkpt>
      <trkpt lat="45.8808" lon="4.59946">
        <ele>256.72879</ele>
        <time>2023-12-07T14:34:41.000Z</time>
      </trkpt>
      <trkpt lat="45.88074" lon="4.59946">
        <ele>256.54047</ele>
        <time>2023-12-07T14:34:42.000Z</time>
      </trkpt>
      <trkpt lat="45.88068" lon="4.59946">
        <ele>256.25711</ele>
        <time>2023-12-07T14:34:43.000Z</time>
      </trkpt>
      <trkpt lat="45.88062" lon="4.59949">
        <ele>255.98967</ele>
        <time>2023-12-07T14:34:44.000Z</time>
      </trkpt>
      <trkpt lat="45.88058" lon="4.59951">
        <ele>255.72256</ele>
        <time>2023-12-07T14:34:45.000Z</time>
      </trkpt>
      <trkpt lat="45.88053" lon="4.59955">
        <ele>255.44832</ele>
        <time>2023-12-07T14:34:46.000Z</time>
      </trkpt>
      <trkpt lat="45.8805" lon="4.59959">
        <ele>255.20842</ele>
        <time>2023-12-07T14:34:47.000Z</time>
      </trkpt>
      <trkpt lat="45.88047" lon="4.59962">
        <ele>254.9502</ele>
        <time>2023-12-07T14:34:48.000Z</time>
      </trkpt>
      <trkpt lat="45.88045" lon="4.59966">
        <ele>254.50456</ele>
        <time>2023-12-07T14:34:49.000Z</time>
      </trkpt>
      <trkpt lat="45.88043" lon="4.5997">
        <ele>254.16829</ele>
        <time>2023-12-07T14:34:50.000Z</time>
      </trkpt>
      <trkpt lat="45.88041" lon="4.59974">
        <ele>253.8531</ele>
        <time>2023-12-07T14:34:51.000Z</time>
      </trkpt>
      <trkpt lat="45.88039" lon="4.59977">
        <ele>253.51321</ele>
        <time>2023-12-07T14:34:52.000Z</time>
      </trkpt>
      <trkpt lat="45.88037" lon="4.5998">
        <ele>253.31076</ele>
        <time>2023-12-07T14:34:54.000Z</time>
      </trkpt>
      <trkpt lat="45.88037" lon="4.59983">
        <ele>253.06636</ele>
        <time>2023-12-07T14:35:36.000Z</time>
      </trkpt>
      <trkpt lat="45.88037" lon="4.59987">
        <ele>252.8855</ele>
        <time>2023-12-07T14:35:47.000Z</time>
      </trkpt>
      <trkpt lat="45.88038" lon="4.59992">
        <ele>252.23039</ele>
        <time>2023-12-07T14:35:49.000Z</time>
      </trkpt>
      <trkpt lat="45.8804" lon="4.59994">
        <ele>251.62808</ele>
        <time>2023-12-07T14:35:50.000Z</time>
      </trkpt>
      <trkpt lat="45.88041" lon="4.59997">
        <ele>251.17664</ele>
        <time>2023-12-07T14:35:51.000Z</time>
      </trkpt>
      <trkpt lat="45.88043" lon="4.60001">
        <ele>250.72285</ele>
        <time>2023-12-07T14:35:52.000Z</time>
      </trkpt>
      <trkpt lat="45.88045" lon="4.60004">
        <ele>250.2963</ele>
        <time>2023-12-07T14:35:54.000Z</time>
      </trkpt>
      <trkpt lat="45.88046" lon="4.60007">
        <ele>249.83749</ele>
        <time>2023-12-07T14:35:55.000Z</time>
      </trkpt>
      <trkpt lat="45.88047" lon="4.60011">
        <ele>249.35408</ele>
        <time>2023-12-07T14:35:56.000Z</time>
      </trkpt>
      <trkpt lat="45.88049" lon="4.60014">
        <ele>249.02031</ele>
        <time>2023-12-07T14:35:57.000Z</time>
      </trkpt>
      <trkpt lat="45.8805" lon="4.60016">
        <ele>248.69849</ele>
        <time>2023-12-07T14:35:58.000Z</time>
      </trkpt>
      <trkpt lat="45.88051" lon="4.60018">
        <ele>248.33115</ele>
        <time>2023-12-07T14:35:59.000Z</time>
      </trkpt>
      <trkpt lat="45.88053" lon="4.60021">
        <ele>247.9095</ele>
        <time>2023-12-07T14:36:00.000Z</time>
      </trkpt>
      <trkpt lat="45.88055" lon="4.60025">
        <ele>247.46671</ele>
        <time>2023-12-07T14:36:01.000Z</time>
      </trkpt>
      <trkpt lat="45.88057" lon="4.6003">
        <ele>246.97519</ele>
        <time>2023-12-07T14:36:02.000Z</time>
      </trkpt>
      <trkpt lat="45.88058" lon="4.60034">
        <ele>246.45804</ele>
        <time>2023-12-07T14:36:03.000Z</time>
      </trkpt>
      <trkpt lat="45.8806" lon="4.60039">
        <ele>245.76746</ele>
        <time>2023-12-07T14:36:04.000Z</time>
      </trkpt>
      <trkpt lat="45.88062" lon="4.60043">
        <ele>245.23096</ele>
        <time>2023-12-07T14:36:05.000Z</time>
      </trkpt>
      <trkpt lat="45.88064" lon="4.60046">
        <ele>244.70203</ele>
        <time>2023-12-07T14:36:06.000Z</time>
      </trkpt>
      <trkpt lat="45.88066" lon="4.60049">
        <ele>244.11153</ele>
        <time>2023-12-07T14:36:07.000Z</time>
      </trkpt>
      <trkpt lat="45.88069" lon="4.60052">
        <ele>243.63057</ele>
        <time>2023-12-07T14:36:08.000Z</time>
      </trkpt>
      <trkpt lat="45.88072" lon="4.60054">
        <ele>243.15637</ele>
        <time>2023-12-07T14:36:09.000Z</time>
      </trkpt>
      <trkpt lat="45.88075" lon="4.60057">
        <ele>243.14478</ele>
        <time>2023-12-07T14:36:10.000Z</time>
      </trkpt>
      <trkpt lat="45.88079" lon="4.6006">
        <ele>243.22855</ele>
        <time>2023-12-07T14:36:11.000Z</time>
      </trkpt>
      <trkpt lat="45.88082" lon="4.60063">
        <ele>243.20364</ele>
        <time>2023-12-07T14:36:12.000Z</time>
      </trkpt>
      <trkpt lat="45.88085" lon="4.60067">
        <ele>243.1658</ele>
        <time>2023-12-07T14:36:13.000Z</time>
      </trkpt>
      <trkpt lat="45.88088" lon="4.60071">
        <ele>243.14153</ele>
        <time>2023-12-07T14:36:14.000Z</time>
      </trkpt>
      <trkpt lat="45.88091" lon="4.60075">
        <ele>243.20053</ele>
        <time>2023-12-07T14:36:15.000Z</time>
      </trkpt>
      <trkpt lat="45.88094" lon="4.60078">
        <ele>243.17581</ele>
        <time>2023-12-07T14:36:16.000Z</time>
      </trkpt>
      <trkpt lat="45.88097" lon="4.60081">
        <ele>243.1114</ele>
        <time>2023-12-07T14:36:17.000Z</time>
      </trkpt>
      <trkpt lat="45.881" lon="4.60084">
        <ele>243.19514</ele>
        <time>2023-12-07T14:36:18.000Z</time>
      </trkpt>
      <trkpt lat="45.88104" lon="4.60087">
        <ele>243.38396</ele>
        <time>2023-12-07T14:36:19.000Z</time>
      </trkpt>
      <trkpt lat="45.88107" lon="4.60089">
        <ele>243.58694</ele>
        <time>2023-12-07T14:36:20.000Z</time>
      </trkpt>
      <trkpt lat="45.8811" lon="4.60091">
        <ele>243.70914</ele>
        <time>2023-12-07T14:36:21.000Z</time>
      </trkpt>
      <trkpt lat="45.88114" lon="4.60093">
        <ele>243.90686</ele>
        <time>2023-12-07T14:36:22.000Z</time>
      </trkpt>
      <trkpt lat="45.88117" lon="4.60096">
        <ele>244.1434</ele>
        <time>2023-12-07T14:36:23.000Z</time>
      </trkpt>
      <trkpt lat="45.88121" lon="4.60098">
        <ele>244.40276</ele>
        <time>2023-12-07T14:36:24.000Z</time>
      </trkpt>
      <trkpt lat="45.88124" lon="4.60099">
        <ele>244.54106</ele>
        <time>2023-12-07T14:36:25.000Z</time>
      </trkpt>
      <trkpt lat="45.88127" lon="4.60101">
        <ele>244.69942</ele>
        <time>2023-12-07T14:36:26.000Z</time>
      </trkpt>
      <trkpt lat="45.8813" lon="4.60103">
        <ele>244.82632</ele>
        <time>2023-12-07T14:36:27.000Z</time>
      </trkpt>
      <trkpt lat="45.88132" lon="4.60106">
        <ele>245.13538</ele>
        <time>2023-12-07T14:36:28.000Z</time>
      </trkpt>
      <trkpt lat="45.88136" lon="4.60109">
        <ele>245.38806</ele>
        <time>2023-12-07T14:36:29.000Z</time>
      </trkpt>
      <trkpt lat="45.88139" lon="4.60111">
        <ele>245.65227</ele>
        <time>2023-12-07T14:36:30.000Z</time>
      </trkpt>
      <trkpt lat="45.88142" lon="4.60113">
        <ele>245.84753</ele>
        <time>2023-12-07T14:36:31.000Z</time>
      </trkpt>
      <trkpt lat="45.88145" lon="4.60115">
        <ele>246.03972</ele>
        <time>2023-12-07T14:36:32.000Z</time>
      </trkpt>
      <trkpt lat="45.88148" lon="4.60117">
        <ele>246.29594</ele>
        <time>2023-12-07T14:36:33.000Z</time>
      </trkpt>
      <trkpt lat="45.88151" lon="4.60119">
        <ele>246.49393</ele>
        <time>2023-12-07T14:36:34.000Z</time>
      </trkpt>
      <trkpt lat="45.88154" lon="4.60121">
        <ele>246.68771</ele>
        <time>2023-12-07T14:36:35.000Z</time>
      </trkpt>
      <trkpt lat="45.88157" lon="4.60123">
        <ele>247.01469</ele>
        <time>2023-12-07T14:36:36.000Z</time>
      </trkpt>
      <trkpt lat="45.8816" lon="4.60125">
        <ele>247.33472</ele>
        <time>2023-12-07T14:36:37.000Z</time>
      </trkpt>
      <trkpt lat="45.88164" lon="4.60128">
        <ele>247.51294</ele>
        <time>2023-12-07T14:36:38.000Z</time>
      </trkpt>
      <trkpt lat="45.88167" lon="4.6013">
        <ele>247.65317</ele>
        <time>2023-12-07T14:36:39.000Z</time>
      </trkpt>
      <trkpt lat="45.88169" lon="4.60132">
        <ele>247.89384</ele>
        <time>2023-12-07T14:36:40.000Z</time>
      </trkpt>
      <trkpt lat="45.88172" lon="4.60134">
        <ele>248.23947</ele>
        <time>2023-12-07T14:36:41.000Z</time>
      </trkpt>
      <trkpt lat="45.88174" lon="4.60136">
        <ele>248.60112</ele>
        <time>2023-12-07T14:36:42.000Z</time>
      </trkpt>
      <trkpt lat="45.88176" lon="4.60137">
        <ele>248.94954</ele>
        <time>2023-12-07T14:36:43.000Z</time>
      </trkpt>
      <trkpt lat="45.88178" lon="4.60139">
        <ele>249.2769</ele>
        <time>2023-12-07T14:36:44.000Z</time>
      </trkpt>
      <trkpt lat="45.88181" lon="4.60142">
        <ele>249.56909</ele>
        <time>2023-12-07T14:36:45.000Z</time>
      </trkpt>
      <trkpt lat="45.88185" lon="4.60144">
        <ele>249.92827</ele>
        <time>2023-12-07T14:36:46.000Z</time>
      </trkpt>
      <trkpt lat="45.88188" lon="4.60146">
        <ele>250.36734</ele>
        <time>2023-12-07T14:36:47.000Z</time>
      </trkpt>
      <trkpt lat="45.88191" lon="4.60148">
        <ele>250.59001</ele>
        <time>2023-12-07T14:36:48.000Z</time>
      </trkpt>
      <trkpt lat="45.88193" lon="4.6015">
        <ele>250.84856</ele>
        <time>2023-12-07T14:36:49.000Z</time>
      </trkpt>
      <trkpt lat="45.88196" lon="4.60153">
        <ele>251.15605</ele>
        <time>2023-12-07T14:36:50.000Z</time>
      </trkpt>
      <trkpt lat="45.88198" lon="4.60154">
        <ele>251.45854</ele>
        <time>2023-12-07T14:36:51.000Z</time>
      </trkpt>
      <trkpt lat="45.88201" lon="4.60156">
        <ele>251.77539</ele>
        <time>2023-12-07T14:36:52.000Z</time>
      </trkpt>
      <trkpt lat="45.88203" lon="4.60158">
        <ele>252.10368</ele>
        <time>2023-12-07T14:36:53.000Z</time>
      </trkpt>
      <trkpt lat="45.88206" lon="4.60159">
        <ele>252.47807</ele>
        <time>2023-12-07T14:36:54.000Z</time>
      </trkpt>
      <trkpt lat="45.88209" lon="4.60162">
        <ele>252.79395</ele>
        <time>2023-12-07T14:36:55.000Z</time>
      </trkpt>
      <trkpt lat="45.88212" lon="4.60164">
        <ele>253.03409</ele>
        <time>2023-12-07T14:36:56.000Z</time>
      </trkpt>
      <trkpt lat="45.88214" lon="4.60167">
        <ele>253.37622</ele>
        <time>2023-12-07T14:36:57.000Z</time>
      </trkpt>
      <trkpt lat="45.88216" lon="4.60171">
        <ele>253.71359</ele>
        <time>2023-12-07T14:36:58.000Z</time>
      </trkpt>
      <trkpt lat="45.88218" lon="4.60176">
        <ele>254.0872</ele>
        <time>2023-12-07T14:36:59.000Z</time>
      </trkpt>
      <trkpt lat="45.88219" lon="4.6018">
        <ele>254.427</ele>
        <time>2023-12-07T14:37:00.000Z</time>
      </trkpt>
      <trkpt lat="45.88219" lon="4.60185">
        <ele>254.71953</ele>
        <time>2023-12-07T14:37:01.000Z</time>
      </trkpt>
      <trkpt lat="45.8822" lon="4.60189">
        <ele>254.9904</ele>
        <time>2023-12-07T14:37:02.000Z</time>
      </trkpt>
      <trkpt lat="45.8822" lon="4.60192">
        <ele>255.27898</ele>
        <time>2023-12-07T14:37:03.000Z</time>
      </trkpt>
      <trkpt lat="45.88221" lon="4.60196">
        <ele>255.61284</ele>
        <time>2023-12-07T14:37:04.000Z</time>
      </trkpt>
      <trkpt lat="45.88221" lon="4.602">
        <ele>255.98759</ele>
        <time>2023-12-07T14:37:05.000Z</time>
      </trkpt>
      <trkpt lat="45.88222" lon="4.60204">
        <ele>256.20551</ele>
        <time>2023-12-07T14:37:06.000Z</time>
      </trkpt>
      <trkpt lat="45.88223" lon="4.60208">
        <ele>256.37531</ele>
        <time>2023-12-07T14:37:07.000Z</time>
      </trkpt>
      <trkpt lat="45.88223" lon="4.60212">
        <ele>256.75406</ele>
        <time>2023-12-07T14:37:08.000Z</time>
      </trkpt>
      <trkpt lat="45.88224" lon="4.60216">
        <ele>257.12521</ele>
        <time>2023-12-07T14:37:09.000Z</time>
      </trkpt>
      <trkpt lat="45.88224" lon="4.6022">
        <ele>257.46573</ele>
        <time>2023-12-07T14:37:10.000Z</time>
      </trkpt>
      <trkpt lat="45.88224" lon="4.60224">
        <ele>257.83087</ele>
        <time>2023-12-07T14:37:11.000Z</time>
      </trkpt>
      <trkpt lat="45.88225" lon="4.60229">
        <ele>258.20474</ele>
        <time>2023-12-07T14:37:12.000Z</time>
      </trkpt>
      <trkpt lat="45.88226" lon="4.60233">
        <ele>258.5683</ele>
        <time>2023-12-07T14:37:13.000Z</time>
      </trkpt>
      <trkpt lat="45.88226" lon="4.60237">
        <ele>258.89386</ele>
        <time>2023-12-07T14:37:14.000Z</time>
      </trkpt>
      <trkpt lat="45.88226" lon="4.60242">
        <ele>259.24542</ele>
        <time>2023-12-07T14:37:15.000Z</time>
      </trkpt>
      <trkpt lat="45.88226" lon="4.60246">
        <ele>259.63632</ele>
        <time>2023-12-07T14:37:16.000Z</time>
      </trkpt>
      <trkpt lat="45.88224" lon="4.6025">
        <ele>259.92035</ele>
        <time>2023-12-07T14:37:17.000Z</time>
      </trkpt>
      <trkpt lat="45.88222" lon="4.60254">
        <ele>260.22217</ele>
        <time>2023-12-07T14:37:18.000Z</time>
      </trkpt>
      <trkpt lat="45.8822" lon="4.60256">
        <ele>260.49481</ele>
        <time>2023-12-07T14:37:19.000Z</time>
      </trkpt>
      <trkpt lat="45.88217" lon="4.60258">
        <ele>260.76706</ele>
        <time>2023-12-07T14:37:20.000Z</time>
      </trkpt>
      <trkpt lat="45.88214" lon="4.6026">
        <ele>260.99066</ele>
        <time>2023-12-07T14:37:21.000Z</time>
      </trkpt>
      <trkpt lat="45.88211" lon="4.60261">
        <ele>261.17337</ele>
        <time>2023-12-07T14:37:22.000Z</time>
      </trkpt>
      <trkpt lat="45.88209" lon="4.60262">
        <ele>261.30576</ele>
        <time>2023-12-07T14:37:23.000Z</time>
      </trkpt>
      <trkpt lat="45.88206" lon="4.60263">
        <ele>261.39465</ele>
        <time>2023-12-07T14:37:24.000Z</time>
      </trkpt>
      <trkpt lat="45.88203" lon="4.60264">
        <ele>261.75427</ele>
        <time>2023-12-07T14:37:25.000Z</time>
      </trkpt>
      <trkpt lat="45.88201" lon="4.60265">
        <ele>262.1767</ele>
        <time>2023-12-07T14:37:26.000Z</time>
      </trkpt>
      <trkpt lat="45.88198" lon="4.60266">
        <ele>262.60828</ele>
        <time>2023-12-07T14:37:27.000Z</time>
      </trkpt>
      <trkpt lat="45.88196" lon="4.60267">
        <ele>262.85748</ele>
        <time>2023-12-07T14:37:28.000Z</time>
      </trkpt>
      <trkpt lat="45.88194" lon="4.60269">
        <ele>263.11041</ele>
        <time>2023-12-07T14:37:29.000Z</time>
      </trkpt>
      <trkpt lat="45.88191" lon="4.60272">
        <ele>263.35883</ele>
        <time>2023-12-07T14:37:30.000Z</time>
      </trkpt>
      <trkpt lat="45.8819" lon="4.60274">
        <ele>263.5777</ele>
        <time>2023-12-07T14:37:31.000Z</time>
      </trkpt>
      <trkpt lat="45.88188" lon="4.60277">
        <ele>263.76129</ele>
        <time>2023-12-07T14:37:32.000Z</time>
      </trkpt>
      <trkpt lat="45.88187" lon="4.6028">
        <ele>263.91086</ele>
        <time>2023-12-07T14:37:33.000Z</time>
      </trkpt>
      <trkpt lat="45.88186" lon="4.60283">
        <ele>264.06543</ele>
        <time>2023-12-07T14:37:34.000Z</time>
      </trkpt>
      <trkpt lat="45.88184" lon="4.60287">
        <ele>264.20737</ele>
        <time>2023-12-07T14:37:35.000Z</time>
      </trkpt>
      <trkpt lat="45.88183" lon="4.60291">
        <ele>264.3093</ele>
        <time>2023-12-07T14:37:36.000Z</time>
      </trkpt>
      <trkpt lat="45.88179" lon="4.60297">
        <ele>264.41519</ele>
        <time>2023-12-07T14:37:37.000Z</time>
      </trkpt>
      <trkpt lat="45.88175" lon="4.60302">
        <ele>264.37982</ele>
        <time>2023-12-07T14:37:38.000Z</time>
      </trkpt>
      <trkpt lat="45.88172" lon="4.60307">
        <ele>264.30386</ele>
        <time>2023-12-07T14:37:39.000Z</time>
      </trkpt>
      <trkpt lat="45.88167" lon="4.60313">
        <ele>264.19955</ele>
        <time>2023-12-07T14:37:40.000Z</time>
      </trkpt>
      <trkpt lat="45.88164" lon="4.60321">
        <ele>264.14279</ele>
        <time>2023-12-07T14:37:41.000Z</time>
      </trkpt>
      <trkpt lat="45.88162" lon="4.60331">
        <ele>263.99634</ele>
        <time>2023-12-07T14:37:42.000Z</time>
      </trkpt>
      <trkpt lat="45.88163" lon="4.60341">
        <ele>264.05658</ele>
        <time>2023-12-07T14:37:43.000Z</time>
      </trkpt>
      <trkpt lat="45.88165" lon="4.6035">
        <ele>264.03702</ele>
        <time>2023-12-07T14:37:44.000Z</time>
      </trkpt>
      <trkpt lat="45.88169" lon="4.60358">
        <ele>263.72202</ele>
        <time>2023-12-07T14:37:45.000Z</time>
      </trkpt>
      <trkpt lat="45.88174" lon="4.60366">
        <ele>263.41434</ele>
        <time>2023-12-07T14:37:46.000Z</time>
      </trkpt>
      <trkpt lat="45.88179" lon="4.60372">
        <ele>263.11639</ele>
        <time>2023-12-07T14:37:47.000Z</time>
      </trkpt>
      <trkpt lat="45.88184" lon="4.60376">
        <ele>262.76404</ele>
        <time>2023-12-07T14:37:48.000Z</time>
      </trkpt>
      <trkpt lat="45.8819" lon="4.6038">
        <ele>262.35843</ele>
        <time>2023-12-07T14:37:49.000Z</time>
      </trkpt>
      <trkpt lat="45.88195" lon="4.60384">
        <ele>261.91611</ele>
        <time>2023-12-07T14:37:50.000Z</time>
      </trkpt>
      <trkpt lat="45.88199" lon="4.60387">
        <ele>261.47513</ele>
        <time>2023-12-07T14:37:51.000Z</time>
      </trkpt>
      <trkpt lat="45.88206" lon="4.6039">
        <ele>261.05911</ele>
        <time>2023-12-07T14:37:52.000Z</time>
      </trkpt>
      <trkpt lat="45.88211" lon="4.60392">
        <ele>260.62836</ele>
        <time>2023-12-07T14:37:53.000Z</time>
      </trkpt>
      <trkpt lat="45.88217" lon="4.60395">
        <ele>260.20712</ele>
        <time>2023-12-07T14:37:54.000Z</time>
      </trkpt>
      <trkpt lat="45.88223" lon="4.60396">
        <ele>259.81067</ele>
        <time>2023-12-07T14:37:55.000Z</time>
      </trkpt>
      <trkpt lat="45.88229" lon="4.60397">
        <ele>259.41452</ele>
        <time>2023-12-07T14:37:56.000Z</time>
      </trkpt>
      <trkpt lat="45.88234" lon="4.60397">
        <ele>259.05829</ele>
        <time>2023-12-07T14:37:57.000Z</time>
      </trkpt>
      <trkpt lat="45.8824" lon="4.60397">
        <ele>258.81723</ele>
        <time>2023-12-07T14:37:58.000Z</time>
      </trkpt>
      <trkpt lat="45.88247" lon="4.60396">
        <ele>258.58286</ele>
        <time>2023-12-07T14:37:59.000Z</time>
      </trkpt>
      <trkpt lat="45.88254" lon="4.60396">
        <ele>258.38055</ele>
        <time>2023-12-07T14:38:00.000Z</time>
      </trkpt>
      <trkpt lat="45.88261" lon="4.60395">
        <ele>258.18719</ele>
        <time>2023-12-07T14:38:01.000Z</time>
      </trkpt>
      <trkpt lat="45.88267" lon="4.60394">
        <ele>258.13943</ele>
        <time>2023-12-07T14:38:02.000Z</time>
      </trkpt>
      <trkpt lat="45.88274" lon="4.60394">
        <ele>257.89224</ele>
        <time>2023-12-07T14:38:03.000Z</time>
      </trkpt>
      <trkpt lat="45.8828" lon="4.60394">
        <ele>257.70999</ele>
        <time>2023-12-07T14:38:04.000Z</time>
      </trkpt>
      <trkpt lat="45.88288" lon="4.60393">
        <ele>257.51599</ele>
        <time>2023-12-07T14:38:05.000Z</time>
      </trkpt>
      <trkpt lat="45.88295" lon="4.60392">
        <ele>257.34219</ele>
        <time>2023-12-07T14:38:06.000Z</time>
      </trkpt>
      <trkpt lat="45.88301" lon="4.60391">
        <ele>257.14117</ele>
        <time>2023-12-07T14:38:07.000Z</time>
      </trkpt>
      <trkpt lat="45.88305" lon="4.60392">
        <ele>256.93356</ele>
        <time>2023-12-07T14:38:08.000Z</time>
      </trkpt>
      <trkpt lat="45.88311" lon="4.60393">
        <ele>256.78033</ele>
        <time>2023-12-07T14:38:09.000Z</time>
      </trkpt>
      <trkpt lat="45.88316" lon="4.60394">
        <ele>256.6777</ele>
        <time>2023-12-07T14:38:10.000Z</time>
      </trkpt>
      <trkpt lat="45.88321" lon="4.60396">
        <ele>256.5831</ele>
        <time>2023-12-07T14:38:11.000Z</time>
      </trkpt>
      <trkpt lat="45.88324" lon="4.60396">
        <ele>256.46579</ele>
        <time>2023-12-07T14:38:12.000Z</time>
      </trkpt>
      <trkpt lat="45.88328" lon="4.604">
        <ele>256.36966</ele>
        <time>2023-12-07T14:38:13.000Z</time>
      </trkpt>
      <trkpt lat="45.88332" lon="4.60402">
        <ele>256.25912</ele>
        <time>2023-12-07T14:38:14.000Z</time>
      </trkpt>
      <trkpt lat="45.88336" lon="4.60406">
        <ele>256.116</ele>
        <time>2023-12-07T14:38:15.000Z</time>
      </trkpt>
      <trkpt lat="45.88339" lon="4.60407">
        <ele>256.01382</ele>
        <time>2023-12-07T14:38:16.000Z</time>
      </trkpt>
      <trkpt lat="45.88342" lon="4.60412">
        <ele>255.83528</ele>
        <time>2023-12-07T14:38:17.000Z</time>
      </trkpt>
      <trkpt lat="45.88345" lon="4.60414">
        <ele>255.70674</ele>
        <time>2023-12-07T14:38:18.000Z</time>
      </trkpt>
      <trkpt lat="45.88349" lon="4.60415">
        <ele>255.61003</ele>
        <time>2023-12-07T14:38:19.000Z</time>
      </trkpt>
      <trkpt lat="45.88352" lon="4.60417">
        <ele>255.54655</ele>
        <time>2023-12-07T14:38:20.000Z</time>
      </trkpt>
      <trkpt lat="45.88356" lon="4.60419">
        <ele>255.46082</ele>
        <time>2023-12-07T14:38:21.000Z</time>
      </trkpt>
      <trkpt lat="45.88359" lon="4.6042">
        <ele>255.33591</ele>
        <time>2023-12-07T14:38:22.000Z</time>
      </trkpt>
      <trkpt lat="45.88362" lon="4.6042">
        <ele>255.18042</ele>
        <time>2023-12-07T14:38:23.000Z</time>
      </trkpt>
      <trkpt lat="45.88365" lon="4.6042">
        <ele>255.0614</ele>
        <time>2023-12-07T14:38:24.000Z</time>
      </trkpt>
      <trkpt lat="45.88368" lon="4.6042">
        <ele>254.94592</ele>
        <time>2023-12-07T14:38:25.000Z</time>
      </trkpt>
      <trkpt lat="45.8837" lon="4.6042">
        <ele>254.84822</ele>
        <time>2023-12-07T14:38:26.000Z</time>
      </trkpt>
      <trkpt lat="45.88373" lon="4.6042">
        <ele>254.72891</ele>
        <time>2023-12-07T14:38:27.000Z</time>
      </trkpt>
      <trkpt lat="45.88375" lon="4.60419">
        <ele>254.79631</ele>
        <time>2023-12-07T14:38:28.000Z</time>
      </trkpt>
      <trkpt lat="45.88377" lon="4.60417">
        <ele>254.80721</ele>
        <time>2023-12-07T14:38:30.000Z</time>
      </trkpt>
      <trkpt lat="45.8838" lon="4.60416">
        <ele>254.84631</ele>
        <time>2023-12-07T14:38:32.000Z</time>
      </trkpt>
      <trkpt lat="45.88383" lon="4.60415">
        <ele>254.84799</ele>
        <time>2023-12-07T14:38:34.000Z</time>
      </trkpt>
      <trkpt lat="45.88386" lon="4.60415">
        <ele>254.8709</ele>
        <time>2023-12-07T14:38:35.000Z</time>
      </trkpt>
      <trkpt lat="45.88388" lon="4.60413">
        <ele>254.80037</ele>
        <time>2023-12-07T14:38:36.000Z</time>
      </trkpt>
      <trkpt lat="45.88392" lon="4.60412">
        <ele>254.71904</ele>
        <time>2023-12-07T14:38:37.000Z</time>
      </trkpt>
      <trkpt lat="45.88396" lon="4.6041">
        <ele>254.6279</ele>
        <time>2023-12-07T14:38:38.000Z</time>
      </trkpt>
      <trkpt lat="45.88399" lon="4.60408">
        <ele>254.4758</ele>
        <time>2023-12-07T14:38:39.000Z</time>
      </trkpt>
      <trkpt lat="45.88402" lon="4.60405">
        <ele>254.39221</ele>
        <time>2023-12-07T14:38:40.000Z</time>
      </trkpt>
      <trkpt lat="45.88406" lon="4.60402">
        <ele>254.259</ele>
        <time>2023-12-07T14:38:41.000Z</time>
      </trkpt>
      <trkpt lat="45.88409" lon="4.60399">
        <ele>254.09595</ele>
        <time>2023-12-07T14:38:42.000Z</time>
      </trkpt>
      <trkpt lat="45.88412" lon="4.60397">
        <ele>253.87947</ele>
        <time>2023-12-07T14:38:43.000Z</time>
      </trkpt>
      <trkpt lat="45.88415" lon="4.60397">
        <ele>253.7103</ele>
        <time>2023-12-07T14:38:44.000Z</time>
      </trkpt>
      <trkpt lat="45.88417" lon="4.60399">
        <ele>253.60336</ele>
        <time>2023-12-07T14:38:45.000Z</time>
      </trkpt>
      <trkpt lat="45.8842" lon="4.60403">
        <ele>253.59322</ele>
        <time>2023-12-07T14:38:46.000Z</time>
      </trkpt>
      <trkpt lat="45.88422" lon="4.60408">
        <ele>253.60229</ele>
        <time>2023-12-07T14:38:47.000Z</time>
      </trkpt>
      <trkpt lat="45.88423" lon="4.60413">
        <ele>254.56509</ele>
        <time>2023-12-07T14:38:48.000Z</time>
      </trkpt>
      <trkpt lat="45.88425" lon="4.60418">
        <ele>255.52512</ele>
        <time>2023-12-07T14:38:49.000Z</time>
      </trkpt>
      <trkpt lat="45.88428" lon="4.60423">
        <ele>256.55893</ele>
        <time>2023-12-07T14:38:50.000Z</time>
      </trkpt>
      <trkpt lat="45.8843" lon="4.60428">
        <ele>257.4436</ele>
        <time>2023-12-07T14:38:51.000Z</time>
      </trkpt>
      <trkpt lat="45.88432" lon="4.60432">
        <ele>258.35211</ele>
        <time>2023-12-07T14:38:52.000Z</time>
      </trkpt>
      <trkpt lat="45.88434" lon="4.60437">
        <ele>259.21844</ele>
        <time>2023-12-07T14:38:53.000Z</time>
      </trkpt>
      <trkpt lat="45.88436" lon="4.60442">
        <ele>260.15247</ele>
        <time>2023-12-07T14:38:54.000Z</time>
      </trkpt>
      <trkpt lat="45.88439" lon="4.60447">
        <ele>261.08557</ele>
        <time>2023-12-07T14:38:55.000Z</time>
      </trkpt>
      <trkpt lat="45.8844" lon="4.60452">
        <ele>262.09708</ele>
        <time>2023-12-07T14:38:56.000Z</time>
      </trkpt>
      <trkpt lat="45.88443" lon="4.60458">
        <ele>263.13129</ele>
        <time>2023-12-07T14:38:57.000Z</time>
      </trkpt>
      <trkpt lat="45.88446" lon="4.60464">
        <ele>264.17953</ele>
        <time>2023-12-07T14:38:58.000Z</time>
      </trkpt>
      <trkpt lat="45.88449" lon="4.6047">
        <ele>265.2561</ele>
        <time>2023-12-07T14:38:59.000Z</time>
      </trkpt>
      <trkpt lat="45.88451" lon="4.60474">
        <ele>266.35455</ele>
        <time>2023-12-07T14:39:00.000Z</time>
      </trkpt>
      <trkpt lat="45.88454" lon="4.6048">
        <ele>267.70532</ele>
        <time>2023-12-07T14:39:01.000Z</time>
      </trkpt>
      <trkpt lat="45.88457" lon="4.60486">
        <ele>269.08359</ele>
        <time>2023-12-07T14:39:02.000Z</time>
      </trkpt>
      <trkpt lat="45.88459" lon="4.60492">
        <ele>270.51907</ele>
        <time>2023-12-07T14:39:03.000Z</time>
      </trkpt>
      <trkpt lat="45.88462" lon="4.60497">
        <ele>271.97931</ele>
        <time>2023-12-07T14:39:04.000Z</time>
      </trkpt>
      <trkpt lat="45.88464" lon="4.60503">
        <ele>273.43158</ele>
        <time>2023-12-07T14:39:05.000Z</time>
      </trkpt>
      <trkpt lat="45.88467" lon="4.60508">
        <ele>274.43271</ele>
        <time>2023-12-07T14:39:06.000Z</time>
      </trkpt>
      <trkpt lat="45.88469" lon="4.60513">
        <ele>275.46683</ele>
        <time>2023-12-07T14:39:07.000Z</time>
      </trkpt>
      <trkpt lat="45.88472" lon="4.60518">
        <ele>275.53296</ele>
        <time>2023-12-07T14:39:08.000Z</time>
      </trkpt>
      <trkpt lat="45.88475" lon="4.60522">
        <ele>275.59891</ele>
        <time>2023-12-07T14:39:09.000Z</time>
      </trkpt>
      <trkpt lat="45.88478" lon="4.60528">
        <ele>275.63458</ele>
        <time>2023-12-07T14:39:10.000Z</time>
      </trkpt>
      <trkpt lat="45.88479" lon="4.60533">
        <ele>275.6712</ele>
        <time>2023-12-07T14:39:11.000Z</time>
      </trkpt>
      <trkpt lat="45.88481" lon="4.60538">
        <ele>275.71649</ele>
        <time>2023-12-07T14:39:12.000Z</time>
      </trkpt>
      <trkpt lat="45.88483" lon="4.60543">
        <ele>275.73688</ele>
        <time>2023-12-07T14:39:13.000Z</time>
      </trkpt>
      <trkpt lat="45.88485" lon="4.6055">
        <ele>275.77237</ele>
        <time>2023-12-07T14:39:14.000Z</time>
      </trkpt>
      <trkpt lat="45.88488" lon="4.60556">
        <ele>275.83359</ele>
        <time>2023-12-07T14:39:15.000Z</time>
      </trkpt>
      <trkpt lat="45.88491" lon="4.60562">
        <ele>275.89801</ele>
        <time>2023-12-07T14:39:16.000Z</time>
      </trkpt>
      <trkpt lat="45.88493" lon="4.60567">
        <ele>275.94867</ele>
        <time>2023-12-07T14:39:17.000Z</time>
      </trkpt>
      <trkpt lat="45.88496" lon="4.60573">
        <ele>275.99173</ele>
        <time>2023-12-07T14:39:18.000Z</time>
      </trkpt>
      <trkpt lat="45.88499" lon="4.60579">
        <ele>276.02826</ele>
        <time>2023-12-07T14:39:19.000Z</time>
      </trkpt>
      <trkpt lat="45.88502" lon="4.60584">
        <ele>276.0498</ele>
        <time>2023-12-07T14:39:20.000Z</time>
      </trkpt>
      <trkpt lat="45.88504" lon="4.6059">
        <ele>275.80902</ele>
        <time>2023-12-07T14:39:21.000Z</time>
      </trkpt>
      <trkpt lat="45.88507" lon="4.60596">
        <ele>275.58383</ele>
        <time>2023-12-07T14:39:22.000Z</time>
      </trkpt>
      <trkpt lat="45.8851" lon="4.60603">
        <ele>275.29398</ele>
        <time>2023-12-07T14:39:23.000Z</time>
      </trkpt>
      <trkpt lat="45.88513" lon="4.60609">
        <ele>274.98367</ele>
        <time>2023-12-07T14:39:24.000Z</time>
      </trkpt>
      <trkpt lat="45.88516" lon="4.60616">
        <ele>274.65033</ele>
        <time>2023-12-07T14:39:25.000Z</time>
      </trkpt>
      <trkpt lat="45.88519" lon="4.60622">
        <ele>274.70685</ele>
        <time>2023-12-07T14:39:26.000Z</time>
      </trkpt>
      <trkpt lat="45.88521" lon="4.60628">
        <ele>274.70749</ele>
        <time>2023-12-07T14:39:27.000Z</time>
      </trkpt>
      <trkpt lat="45.88524" lon="4.60634">
        <ele>274.72446</ele>
        <time>2023-12-07T14:39:28.000Z</time>
      </trkpt>
      <trkpt lat="45.88526" lon="4.6064">
        <ele>274.74869</ele>
        <time>2023-12-07T14:39:29.000Z</time>
      </trkpt>
      <trkpt lat="45.88529" lon="4.60647">
        <ele>274.72974</ele>
        <time>2023-12-07T14:39:30.000Z</time>
      </trkpt>
      <trkpt lat="45.88532" lon="4.60653">
        <ele>274.70847</ele>
        <time>2023-12-07T14:39:31.000Z</time>
      </trkpt>
      <trkpt lat="45.88535" lon="4.60659">
        <ele>274.68066</ele>
        <time>2023-12-07T14:39:32.000Z</time>
      </trkpt>
      <trkpt lat="45.88538" lon="4.60665">
        <ele>274.67529</ele>
        <time>2023-12-07T14:39:33.000Z</time>
      </trkpt>
      <trkpt lat="45.88541" lon="4.60672">
        <ele>274.66199</ele>
        <time>2023-12-07T14:39:34.000Z</time>
      </trkpt>
      <trkpt lat="45.88544" lon="4.60678">
        <ele>274.61151</ele>
        <time>2023-12-07T14:39:35.000Z</time>
      </trkpt>
      <trkpt lat="45.88547" lon="4.60685">
        <ele>274.54163</ele>
        <time>2023-12-07T14:39:36.000Z</time>
      </trkpt>
      <trkpt lat="45.8855" lon="4.6069">
        <ele>274.46555</ele>
        <time>2023-12-07T14:39:37.000Z</time>
      </trkpt>
      <trkpt lat="45.88552" lon="4.60696">
        <ele>274.3783</ele>
        <time>2023-12-07T14:39:38.000Z</time>
      </trkpt>
      <trkpt lat="45.88556" lon="4.60702">
        <ele>274.29977</ele>
        <time>2023-12-07T14:39:39.000Z</time>
      </trkpt>
      <trkpt lat="45.88558" lon="4.60708">
        <ele>274.21921</ele>
        <time>2023-12-07T14:39:40.000Z</time>
      </trkpt>
      <trkpt lat="45.88561" lon="4.60714">
        <ele>274.16293</ele>
        <time>2023-12-07T14:39:41.000Z</time>
      </trkpt>
      <trkpt lat="45.88563" lon="4.60719">
        <ele>272.90302</ele>
        <time>2023-12-07T14:39:42.000Z</time>
      </trkpt>
      <trkpt lat="45.88565" lon="4.60725">
        <ele>271.51251</ele>
        <time>2023-12-07T14:39:43.000Z</time>
      </trkpt>
      <trkpt lat="45.88567" lon="4.6073">
        <ele>270.12299</ele>
        <time>2023-12-07T14:39:44.000Z</time>
      </trkpt>
      <trkpt lat="45.88569" lon="4.60734">
        <ele>268.69238</ele>
        <time>2023-12-07T14:39:45.000Z</time>
      </trkpt>
      <trkpt lat="45.88571" lon="4.60739">
        <ele>267.27917</ele>
        <time>2023-12-07T14:39:46.000Z</time>
      </trkpt>
      <trkpt lat="45.88574" lon="4.60745">
        <ele>265.83682</ele>
        <time>2023-12-07T14:39:47.000Z</time>
      </trkpt>
      <trkpt lat="45.88576" lon="4.6075">
        <ele>264.2944</ele>
        <time>2023-12-07T14:39:48.000Z</time>
      </trkpt>
      <trkpt lat="45.88578" lon="4.60755">
        <ele>262.73297</ele>
        <time>2023-12-07T14:39:49.000Z</time>
      </trkpt>
      <trkpt lat="45.88579" lon="4.60759">
        <ele>261.16803</ele>
        <time>2023-12-07T14:39:50.000Z</time>
      </trkpt>
      <trkpt lat="45.8858" lon="4.60763">
        <ele>259.95282</ele>
        <time>2023-12-07T14:39:51.000Z</time>
      </trkpt>
      <trkpt lat="45.88581" lon="4.60768">
        <ele>258.70538</ele>
        <time>2023-12-07T14:39:52.000Z</time>
      </trkpt>
      <trkpt lat="45.88582" lon="4.60772">
        <ele>257.4516</ele>
        <time>2023-12-07T14:39:53.000Z</time>
      </trkpt>
      <trkpt lat="45.88582" lon="4.60776">
        <ele>256.18817</ele>
        <time>2023-12-07T14:39:54.000Z</time>
      </trkpt>
      <trkpt lat="45.88583" lon="4.6078">
        <ele>254.88948</ele>
        <time>2023-12-07T14:39:55.000Z</time>
      </trkpt>
      <trkpt lat="45.88583" lon="4.60785">
        <ele>253.59726</ele>
        <time>2023-12-07T14:39:56.000Z</time>
      </trkpt>
      <trkpt lat="45.88583" lon="4.6079">
        <ele>252.27072</ele>
        <time>2023-12-07T14:39:57.000Z</time>
      </trkpt>
      <trkpt lat="45.88583" lon="4.60795">
        <ele>250.82561</ele>
        <time>2023-12-07T14:39:58.000Z</time>
      </trkpt>
      <trkpt lat="45.88582" lon="4.608">
        <ele>249.31006</ele>
        <time>2023-12-07T14:39:59.000Z</time>
      </trkpt>
      <trkpt lat="45.88582" lon="4.60805">
        <ele>247.78171</ele>
        <time>2023-12-07T14:40:00.000Z</time>
      </trkpt>
      <trkpt lat="45.88581" lon="4.6081">
        <ele>246.22774</ele>
        <time>2023-12-07T14:40:01.000Z</time>
      </trkpt>
      <trkpt lat="45.8858" lon="4.60814">
        <ele>245.78207</ele>
        <time>2023-12-07T14:40:02.000Z</time>
      </trkpt>
      <trkpt lat="45.88578" lon="4.60818">
        <ele>245.45337</ele>
        <time>2023-12-07T14:40:03.000Z</time>
      </trkpt>
      <trkpt lat="45.88577" lon="4.60822">
        <ele>245.47275</ele>
        <time>2023-12-07T14:40:04.000Z</time>
      </trkpt>
      <trkpt lat="45.88575" lon="4.60826">
        <ele>245.48409</ele>
        <time>2023-12-07T14:40:05.000Z</time>
      </trkpt>
      <trkpt lat="45.88573" lon="4.6083">
        <ele>245.51025</ele>
        <time>2023-12-07T14:40:06.000Z</time>
      </trkpt>
      <trkpt lat="45.88571" lon="4.60833">
        <ele>245.55478</ele>
        <time>2023-12-07T14:40:07.000Z</time>
      </trkpt>
      <trkpt lat="45.88568" lon="4.60837">
        <ele>245.6783</ele>
        <time>2023-12-07T14:40:08.000Z</time>
      </trkpt>
      <trkpt lat="45.88566" lon="4.6084">
        <ele>245.80635</ele>
        <time>2023-12-07T14:40:09.000Z</time>
      </trkpt>
      <trkpt lat="45.88564" lon="4.60842">
        <ele>245.99539</ele>
        <time>2023-12-07T14:40:10.000Z</time>
      </trkpt>
      <trkpt lat="45.88561" lon="4.60845">
        <ele>245.8437</ele>
        <time>2023-12-07T14:40:11.000Z</time>
      </trkpt>
      <trkpt lat="45.88559" lon="4.60848">
        <ele>245.74863</ele>
        <time>2023-12-07T14:40:12.000Z</time>
      </trkpt>
      <trkpt lat="45.88556" lon="4.60851">
        <ele>245.67082</ele>
        <time>2023-12-07T14:40:13.000Z</time>
      </trkpt>
      <trkpt lat="45.88554" lon="4.60854">
        <ele>245.57092</ele>
        <time>2023-12-07T14:40:14.000Z</time>
      </trkpt>
      <trkpt lat="45.88551" lon="4.60857">
        <ele>245.51651</ele>
        <time>2023-12-07T14:40:15.000Z</time>
      </trkpt>
      <trkpt lat="45.88548" lon="4.6086">
        <ele>245.45918</ele>
        <time>2023-12-07T14:40:16.000Z</time>
      </trkpt>
      <trkpt lat="45.88545" lon="4.60863">
        <ele>245.25093</ele>
        <time>2023-12-07T14:40:17.000Z</time>
      </trkpt>
      <trkpt lat="45.88542" lon="4.60866">
        <ele>245.18106</ele>
        <time>2023-12-07T14:40:18.000Z</time>
      </trkpt>
      <trkpt lat="45.88538" lon="4.60869">
        <ele>245.09941</ele>
        <time>2023-12-07T14:40:19.000Z</time>
      </trkpt>
      <trkpt lat="45.88535" lon="4.60872">
        <ele>245.35347</ele>
        <time>2023-12-07T14:40:20.000Z</time>
      </trkpt>
      <trkpt lat="45.88532" lon="4.60874">
        <ele>245.57686</ele>
        <time>2023-12-07T14:40:21.000Z</time>
      </trkpt>
      <trkpt lat="45.88529" lon="4.60876">
        <ele>245.87947</ele>
        <time>2023-12-07T14:40:22.000Z</time>
      </trkpt>
      <trkpt lat="45.88526" lon="4.60879">
        <ele>246.21419</ele>
        <time>2023-12-07T14:40:23.000Z</time>
      </trkpt>
      <trkpt lat="45.88523" lon="4.60883">
        <ele>246.18906</ele>
        <time>2023-12-07T14:40:24.000Z</time>
      </trkpt>
      <trkpt lat="45.88519" lon="4.60886">
        <ele>246.229</ele>
        <time>2023-12-07T14:40:25.000Z</time>
      </trkpt>
      <trkpt lat="45.88516" lon="4.60889">
        <ele>246.23767</ele>
        <time>2023-12-07T14:40:26.000Z</time>
      </trkpt>
      <trkpt lat="45.88514" lon="4.60892">
        <ele>246.21574</ele>
        <time>2023-12-07T14:40:27.000Z</time>
      </trkpt>
      <trkpt lat="45.88511" lon="4.60895">
        <ele>246.2236</ele>
        <time>2023-12-07T14:40:28.000Z</time>
      </trkpt>
      <trkpt lat="45.88508" lon="4.60897">
        <ele>246.22978</ele>
        <time>2023-12-07T14:40:29.000Z</time>
      </trkpt>
      <trkpt lat="45.88505" lon="4.609">
        <ele>246.20415</ele>
        <time>2023-12-07T14:40:30.000Z</time>
      </trkpt>
      <trkpt lat="45.88501" lon="4.60903">
        <ele>246.16455</ele>
        <time>2023-12-07T14:40:31.000Z</time>
      </trkpt>
      <trkpt lat="45.88498" lon="4.60906">
        <ele>246.1265</ele>
        <time>2023-12-07T14:40:32.000Z</time>
      </trkpt>
      <trkpt lat="45.88494" lon="4.6091">
        <ele>246.0771</ele>
        <time>2023-12-07T14:40:33.000Z</time>
      </trkpt>
      <trkpt lat="45.88491" lon="4.60913">
        <ele>246.0477</ele>
        <time>2023-12-07T14:40:34.000Z</time>
      </trkpt>
      <trkpt lat="45.88487" lon="4.60917">
        <ele>245.98706</ele>
        <time>2023-12-07T14:40:35.000Z</time>
      </trkpt>
      <trkpt lat="45.88483" lon="4.6092">
        <ele>245.92041</ele>
        <time>2023-12-07T14:40:36.000Z</time>
      </trkpt>
      <trkpt lat="45.88479" lon="4.60925">
        <ele>246.04378</ele>
        <time>2023-12-07T14:40:37.000Z</time>
      </trkpt>
      <trkpt lat="45.88474" lon="4.60929">
        <ele>246.19099</ele>
        <time>2023-12-07T14:40:38.000Z</time>
      </trkpt>
      <trkpt lat="45.8847" lon="4.60932">
        <ele>246.40891</ele>
        <time>2023-12-07T14:40:39.000Z</time>
      </trkpt>
      <trkpt lat="45.88467" lon="4.60935">
        <ele>246.30676</ele>
        <time>2023-12-07T14:40:40.000Z</time>
      </trkpt>
      <trkpt lat="45.88463" lon="4.60938">
        <ele>246.11198</ele>
        <time>2023-12-07T14:40:41.000Z</time>
      </trkpt>
      <trkpt lat="45.88459" lon="4.6094">
        <ele>245.90279</ele>
        <time>2023-12-07T14:40:42.000Z</time>
      </trkpt>
      <trkpt lat="45.88455" lon="4.60944">
        <ele>245.69279</ele>
        <time>2023-12-07T14:40:43.000Z</time>
      </trkpt>
      <trkpt lat="45.88451" lon="4.60946">
        <ele>245.4725</ele>
        <time>2023-12-07T14:40:44.000Z</time>
      </trkpt>
      <trkpt lat="45.88446" lon="4.60947">
        <ele>245.21057</ele>
        <time>2023-12-07T14:40:45.000Z</time>
      </trkpt>
      <trkpt lat="45.88442" lon="4.60948">
        <ele>244.87256</ele>
        <time>2023-12-07T14:40:46.000Z</time>
      </trkpt>
      <trkpt lat="45.88438" lon="4.60951">
        <ele>244.89688</ele>
        <time>2023-12-07T14:40:47.000Z</time>
      </trkpt>
      <trkpt lat="45.88434" lon="4.60954">
        <ele>244.84541</ele>
        <time>2023-12-07T14:40:48.000Z</time>
      </trkpt>
      <trkpt lat="45.88431" lon="4.60957">
        <ele>244.8186</ele>
        <time>2023-12-07T14:40:49.000Z</time>
      </trkpt>
      <trkpt lat="45.88427" lon="4.6096">
        <ele>244.78609</ele>
        <time>2023-12-07T14:40:50.000Z</time>
      </trkpt>
      <trkpt lat="45.88423" lon="4.60962">
        <ele>244.74429</ele>
        <time>2023-12-07T14:40:51.000Z</time>
      </trkpt>
      <trkpt lat="45.88418" lon="4.60964">
        <ele>244.66756</ele>
        <time>2023-12-07T14:40:52.000Z</time>
      </trkpt>
      <trkpt lat="45.88414" lon="4.60966">
        <ele>244.60457</ele>
        <time>2023-12-07T14:40:53.000Z</time>
      </trkpt>
      <trkpt lat="45.8841" lon="4.60969">
        <ele>244.48318</ele>
        <time>2023-12-07T14:40:54.000Z</time>
      </trkpt>
      <trkpt lat="45.88406" lon="4.60973">
        <ele>244.37524</ele>
        <time>2023-12-07T14:40:55.000Z</time>
      </trkpt>
      <trkpt lat="45.88403" lon="4.60977">
        <ele>244.32324</ele>
        <time>2023-12-07T14:40:56.000Z</time>
      </trkpt>
      <trkpt lat="45.88399" lon="4.60982">
        <ele>244.2832</ele>
        <time>2023-12-07T14:40:57.000Z</time>
      </trkpt>
      <trkpt lat="45.88394" lon="4.60987">
        <ele>244.20557</ele>
        <time>2023-12-07T14:40:58.000Z</time>
      </trkpt>
      <trkpt lat="45.8839" lon="4.60992">
        <ele>244.15034</ele>
        <time>2023-12-07T14:40:59.000Z</time>
      </trkpt>
      <trkpt lat="45.88386" lon="4.60997">
        <ele>244.04817</ele>
        <time>2023-12-07T14:41:00.000Z</time>
      </trkpt>
      <trkpt lat="45.88383" lon="4.61002">
        <ele>244.10136</ele>
        <time>2023-12-07T14:41:01.000Z</time>
      </trkpt>
      <trkpt lat="45.8838" lon="4.61007">
        <ele>244.18057</ele>
        <time>2023-12-07T14:41:02.000Z</time>
      </trkpt>
      <trkpt lat="45.88378" lon="4.61013">
        <ele>244.27133</ele>
        <time>2023-12-07T14:41:03.000Z</time>
      </trkpt>
      <trkpt lat="45.88376" lon="4.6102">
        <ele>244.38293</ele>
        <time>2023-12-07T14:41:04.000Z</time>
      </trkpt>
      <trkpt lat="45.88374" lon="4.61026">
        <ele>244.47688</ele>
        <time>2023-12-07T14:41:05.000Z</time>
      </trkpt>
      <trkpt lat="45.88374" lon="4.61032">
        <ele>244.47307</ele>
        <time>2023-12-07T14:41:06.000Z</time>
      </trkpt>
      <trkpt lat="45.88373" lon="4.61038">
        <ele>244.09717</ele>
        <time>2023-12-07T14:41:07.000Z</time>
      </trkpt>
      <trkpt lat="45.88374" lon="4.61044">
        <ele>244.04895</ele>
        <time>2023-12-07T14:41:08.000Z</time>
      </trkpt>
      <trkpt lat="45.88376" lon="4.6105">
        <ele>243.88416</ele>
        <time>2023-12-07T14:41:09.000Z</time>
      </trkpt>
      <trkpt lat="45.8838" lon="4.61054">
        <ele>243.75191</ele>
        <time>2023-12-07T14:41:10.000Z</time>
      </trkpt>
      <trkpt lat="45.88383" lon="4.61057">
        <ele>243.62024</ele>
        <time>2023-12-07T14:41:11.000Z</time>
      </trkpt>
      <trkpt lat="45.88386" lon="4.61058">
        <ele>243.54126</ele>
        <time>2023-12-07T14:41:12.000Z</time>
      </trkpt>
      <trkpt lat="45.88388" lon="4.6106">
        <ele>243.44011</ele>
        <time>2023-12-07T14:41:13.000Z</time>
      </trkpt>
      <trkpt lat="45.88391" lon="4.61062">
        <ele>243.75797</ele>
        <time>2023-12-07T14:52:50.000Z</time>
      </trkpt>
      <trkpt lat="45.88393" lon="4.61063">
        <ele>244.07687</ele>
        <time>2023-12-07T14:52:51.000Z</time>
      </trkpt>
      <trkpt lat="45.88395" lon="4.61065">
        <ele>244.33951</ele>
        <time>2023-12-07T14:52:53.000Z</time>
      </trkpt>
      <trkpt lat="45.88396" lon="4.61066">
        <ele>244.6084</ele>
        <time>2023-12-07T14:52:54.000Z</time>
      </trkpt>
      <trkpt lat="45.88398" lon="4.61068">
        <ele>244.89909</ele>
        <time>2023-12-07T14:52:55.000Z</time>
      </trkpt>
      <trkpt lat="45.884" lon="4.61069">
        <ele>245.18246</ele>
        <time>2023-12-07T14:52:56.000Z</time>
      </trkpt>
      <trkpt lat="45.88401" lon="4.61072">
        <ele>245.43208</ele>
        <time>2023-12-07T14:52:57.000Z</time>
      </trkpt>
      <trkpt lat="45.88403" lon="4.61074">
        <ele>245.67093</ele>
        <time>2023-12-07T14:52:58.000Z</time>
      </trkpt>
      <trkpt lat="45.88405" lon="4.61076">
        <ele>245.87312</ele>
        <time>2023-12-07T14:52:59.000Z</time>
      </trkpt>
      <trkpt lat="45.88407" lon="4.61078">
        <ele>246.0544</ele>
        <time>2023-12-07T14:53:00.000Z</time>
      </trkpt>
      <trkpt lat="45.88409" lon="4.61078">
        <ele>246.25879</ele>
        <time>2023-12-07T14:53:05.000Z</time>
      </trkpt>
      <trkpt lat="45.88411" lon="4.61081">
        <ele>246.47571</ele>
        <time>2023-12-07T14:53:07.000Z</time>
      </trkpt>
      <trkpt lat="45.88413" lon="4.61084">
        <ele>246.8649</ele>
        <time>2023-12-07T14:53:08.000Z</time>
      </trkpt>
      <trkpt lat="45.88416" lon="4.61089">
        <ele>247.2666</ele>
        <time>2023-12-07T14:53:09.000Z</time>
      </trkpt>
      <trkpt lat="45.88418" lon="4.61097">
        <ele>247.38005</ele>
        <time>2023-12-07T14:53:10.000Z</time>
      </trkpt>
      <trkpt lat="45.8842" lon="4.61102">
        <ele>247.61931</ele>
        <time>2023-12-07T14:53:11.000Z</time>
      </trkpt>
      <trkpt lat="45.88422" lon="4.61108">
        <ele>247.81772</ele>
        <time>2023-12-07T14:53:12.000Z</time>
      </trkpt>
      <trkpt lat="45.88423" lon="4.61115">
        <ele>248.03183</ele>
        <time>2023-12-07T14:53:13.000Z</time>
      </trkpt>
      <trkpt lat="45.88425" lon="4.6112">
        <ele>248.22311</ele>
        <time>2023-12-07T14:53:14.000Z</time>
      </trkpt>
      <trkpt lat="45.88428" lon="4.61125">
        <ele>248.43173</ele>
        <time>2023-12-07T14:53:15.000Z</time>
      </trkpt>
      <trkpt lat="45.88428" lon="4.6113">
        <ele>248.28877</ele>
        <time>2023-12-07T14:53:16.000Z</time>
      </trkpt>
      <trkpt lat="45.88427" lon="4.61137">
        <ele>248.14302</ele>
        <time>2023-12-07T14:53:17.000Z</time>
      </trkpt>
      <trkpt lat="45.88429" lon="4.61141">
        <ele>248.03513</ele>
        <time>2023-12-07T14:53:18.000Z</time>
      </trkpt>
      <trkpt lat="45.8843" lon="4.61149">
        <ele>247.89168</ele>
        <time>2023-12-07T14:53:19.000Z</time>
      </trkpt>
      <trkpt lat="45.88433" lon="4.61155">
        <ele>247.76335</ele>
        <time>2023-12-07T14:53:20.000Z</time>
      </trkpt>
      <trkpt lat="45.88436" lon="4.61159">
        <ele>247.6331</ele>
        <time>2023-12-07T14:53:21.000Z</time>
      </trkpt>
      <trkpt lat="45.8844" lon="4.61166">
        <ele>247.50359</ele>
        <time>2023-12-07T14:53:22.000Z</time>
      </trkpt>
      <trkpt lat="45.88443" lon="4.61174">
        <ele>247.35754</ele>
        <time>2023-12-07T14:53:23.000Z</time>
      </trkpt>
      <trkpt lat="45.88446" lon="4.61182">
        <ele>247.2188</ele>
        <time>2023-12-07T14:53:24.000Z</time>
      </trkpt>
      <trkpt lat="45.88449" lon="4.6119">
        <ele>247.06445</ele>
        <time>2023-12-07T14:53:25.000Z</time>
      </trkpt>
      <trkpt lat="45.88454" lon="4.61199">
        <ele>246.85995</ele>
        <time>2023-12-07T14:53:26.000Z</time>
      </trkpt>
      <trkpt lat="45.88457" lon="4.61208">
        <ele>246.67099</ele>
        <time>2023-12-07T14:53:27.000Z</time>
      </trkpt>
      <trkpt lat="45.88462" lon="4.61215">
        <ele>246.49467</ele>
        <time>2023-12-07T14:53:28.000Z</time>
      </trkpt>
      <trkpt lat="45.88465" lon="4.61224">
        <ele>246.33195</ele>
        <time>2023-12-07T14:53:29.000Z</time>
      </trkpt>
      <trkpt lat="45.88468" lon="4.61234">
        <ele>246.1611</ele>
        <time>2023-12-07T14:53:30.000Z</time>
      </trkpt>
      <trkpt lat="45.88471" lon="4.61244">
        <ele>245.91455</ele>
        <time>2023-12-07T14:53:31.000Z</time>
      </trkpt>
      <trkpt lat="45.88474" lon="4.61255">
        <ele>245.63811</ele>
        <time>2023-12-07T14:53:32.000Z</time>
      </trkpt>
      <trkpt lat="45.88478" lon="4.61266">
        <ele>245.33345</ele>
        <time>2023-12-07T14:53:33.000Z</time>
      </trkpt>
      <trkpt lat="45.88481" lon="4.61275">
        <ele>245.00607</ele>
        <time>2023-12-07T14:53:34.000Z</time>
      </trkpt>
      <trkpt lat="45.88484" lon="4.61284">
        <ele>244.63921</ele>
        <time>2023-12-07T14:53:35.000Z</time>
      </trkpt>
      <trkpt lat="45.88484" lon="4.61295">
        <ele>244.21078</ele>
        <time>2023-12-07T14:53:36.000Z</time>
      </trkpt>
      <trkpt lat="45.88485" lon="4.61305">
        <ele>243.78287</ele>
        <time>2023-12-07T14:53:37.000Z</time>
      </trkpt>
      <trkpt lat="45.88485" lon="4.61314">
        <ele>243.2336</ele>
        <time>2023-12-07T14:53:38.000Z</time>
      </trkpt>
      <trkpt lat="45.88485" lon="4.61323">
        <ele>242.82288</ele>
        <time>2023-12-07T14:53:39.000Z</time>
      </trkpt>
      <trkpt lat="45.88487" lon="4.61331">
        <ele>241.76021</ele>
        <time>2023-12-07T14:53:40.000Z</time>
      </trkpt>
      <trkpt lat="45.8849" lon="4.61341">
        <ele>240.67766</ele>
        <time>2023-12-07T14:53:41.000Z</time>
      </trkpt>
      <trkpt lat="45.88492" lon="4.61348">
        <ele>239.67403</ele>
        <time>2023-12-07T14:53:42.000Z</time>
      </trkpt>
      <trkpt lat="45.88493" lon="4.61358">
        <ele>238.64334</ele>
        <time>2023-12-07T14:53:43.000Z</time>
      </trkpt>
      <trkpt lat="45.88494" lon="4.61368">
        <ele>237.66162</ele>
        <time>2023-12-07T14:53:44.000Z</time>
      </trkpt>
      <trkpt lat="45.88495" lon="4.61376">
        <ele>236.74417</ele>
        <time>2023-12-07T14:53:45.000Z</time>
      </trkpt>
      <trkpt lat="45.88496" lon="4.61386">
        <ele>235.77649</ele>
        <time>2023-12-07T14:53:46.000Z</time>
      </trkpt>
      <trkpt lat="45.88497" lon="4.61394">
        <ele>234.79993</ele>
        <time>2023-12-07T14:53:47.000Z</time>
      </trkpt>
      <trkpt lat="45.88498" lon="4.61403">
        <ele>233.79898</ele>
        <time>2023-12-07T14:53:48.000Z</time>
      </trkpt>
      <trkpt lat="45.88499" lon="4.61411">
        <ele>232.81055</ele>
        <time>2023-12-07T14:53:49.000Z</time>
      </trkpt>
      <trkpt lat="45.885" lon="4.6142">
        <ele>231.76457</ele>
        <time>2023-12-07T14:53:50.000Z</time>
      </trkpt>
      <trkpt lat="45.88499" lon="4.61429">
        <ele>230.83525</ele>
        <time>2023-12-07T14:53:51.000Z</time>
      </trkpt>
      <trkpt lat="45.88498" lon="4.61439">
        <ele>229.95303</ele>
        <time>2023-12-07T14:53:52.000Z</time>
      </trkpt>
      <trkpt lat="45.88497" lon="4.61449">
        <ele>229.0979</ele>
        <time>2023-12-07T14:53:53.000Z</time>
      </trkpt>
      <trkpt lat="45.88494" lon="4.61458">
        <ele>228.24344</ele>
        <time>2023-12-07T14:53:54.000Z</time>
      </trkpt>
      <trkpt lat="45.88492" lon="4.61467">
        <ele>227.37952</ele>
        <time>2023-12-07T14:53:55.000Z</time>
      </trkpt>
      <trkpt lat="45.88493" lon="4.61477">
        <ele>226.50235</ele>
        <time>2023-12-07T14:53:56.000Z</time>
      </trkpt>
      <trkpt lat="45.88496" lon="4.61485">
        <ele>225.60022</ele>
        <time>2023-12-07T14:53:57.000Z</time>
      </trkpt>
      <trkpt lat="45.88498" lon="4.61492">
        <ele>224.80461</ele>
        <time>2023-12-07T14:53:58.000Z</time>
      </trkpt>
      <trkpt lat="45.88498" lon="4.61498">
        <ele>223.89009</ele>
        <time>2023-12-07T14:53:59.000Z</time>
      </trkpt>
      <trkpt lat="45.88496" lon="4.61503">
        <ele>223.58508</ele>
        <time>2023-12-07T14:54:00.000Z</time>
      </trkpt>
      <trkpt lat="45.88492" lon="4.61509">
        <ele>223.30917</ele>
        <time>2023-12-07T14:54:01.000Z</time>
      </trkpt>
      <trkpt lat="45.88488" lon="4.61516">
        <ele>222.99435</ele>
        <time>2023-12-07T14:54:02.000Z</time>
      </trkpt>
      <trkpt lat="45.88484" lon="4.61523">
        <ele>222.70686</ele>
        <time>2023-12-07T14:54:03.000Z</time>
      </trkpt>
      <trkpt lat="45.88478" lon="4.61532">
        <ele>222.35681</ele>
        <time>2023-12-07T14:54:04.000Z</time>
      </trkpt>
      <trkpt lat="45.88473" lon="4.6154">
        <ele>221.95894</ele>
        <time>2023-12-07T14:54:05.000Z</time>
      </trkpt>
      <trkpt lat="45.88468" lon="4.61548">
        <ele>221.60152</ele>
        <time>2023-12-07T14:54:06.000Z</time>
      </trkpt>
      <trkpt lat="45.88462" lon="4.61556">
        <ele>221.24561</ele>
        <time>2023-12-07T14:54:07.000Z</time>
      </trkpt>
      <trkpt lat="45.88457" lon="4.61564">
        <ele>220.91438</ele>
        <time>2023-12-07T14:54:08.000Z</time>
      </trkpt>
      <trkpt lat="45.88451" lon="4.61572">
        <ele>220.55478</ele>
        <time>2023-12-07T14:54:09.000Z</time>
      </trkpt>
      <trkpt lat="45.88446" lon="4.61581">
        <ele>220.28018</ele>
        <time>2023-12-07T14:54:10.000Z</time>
      </trkpt>
      <trkpt lat="45.88441" lon="4.6159">
        <ele>219.9158</ele>
        <time>2023-12-07T14:54:11.000Z</time>
      </trkpt>
      <trkpt lat="45.88437" lon="4.61599">
        <ele>219.55139</ele>
        <time>2023-12-07T14:54:12.000Z</time>
      </trkpt>
      <trkpt lat="45.88433" lon="4.61608">
        <ele>219.19426</ele>
        <time>2023-12-07T14:54:13.000Z</time>
      </trkpt>
      <trkpt lat="45.88429" lon="4.61618">
        <ele>218.87996</ele>
        <time>2023-12-07T14:54:14.000Z</time>
      </trkpt>
      <trkpt lat="45.88426" lon="4.61629">
        <ele>218.56998</ele>
        <time>2023-12-07T14:54:15.000Z</time>
      </trkpt>
      <trkpt lat="45.88421" lon="4.61637">
        <ele>218.31914</ele>
        <time>2023-12-07T14:54:16.000Z</time>
      </trkpt>
      <trkpt lat="45.88418" lon="4.61646">
        <ele>218.10147</ele>
        <time>2023-12-07T14:54:17.000Z</time>
      </trkpt>
      <trkpt lat="45.88415" lon="4.61655">
        <ele>217.90092</ele>
        <time>2023-12-07T14:54:18.000Z</time>
      </trkpt>
      <trkpt lat="45.88411" lon="4.61664">
        <ele>217.68808</ele>
        <time>2023-12-07T14:54:19.000Z</time>
      </trkpt>
      <trkpt lat="45.88408" lon="4.61673">
        <ele>217.5061</ele>
        <time>2023-12-07T14:54:20.000Z</time>
      </trkpt>
      <trkpt lat="45.88405" lon="4.61681">
        <ele>217.31657</ele>
        <time>2023-12-07T14:54:21.000Z</time>
      </trkpt>
      <trkpt lat="45.88402" lon="4.61689">
        <ele>217.1143</ele>
        <time>2023-12-07T14:54:22.000Z</time>
      </trkpt>
      <trkpt lat="45.88398" lon="4.61697">
        <ele>216.96265</ele>
        <time>2023-12-07T14:54:23.000Z</time>
      </trkpt>
      <trkpt lat="45.88395" lon="4.61705">
        <ele>216.81516</ele>
        <time>2023-12-07T14:54:24.000Z</time>
      </trkpt>
      <trkpt lat="45.88392" lon="4.61713">
        <ele>216.66183</ele>
        <time>2023-12-07T14:54:25.000Z</time>
      </trkpt>
      <trkpt lat="45.8839" lon="4.61721">
        <ele>216.52054</ele>
        <time>2023-12-07T14:54:26.000Z</time>
      </trkpt>
      <trkpt lat="45.88388" lon="4.61729">
        <ele>216.40955</ele>
        <time>2023-12-07T14:54:27.000Z</time>
      </trkpt>
      <trkpt lat="45.88386" lon="4.61738">
        <ele>216.29326</ele>
        <time>2023-12-07T14:54:28.000Z</time>
      </trkpt>
      <trkpt lat="45.88383" lon="4.61745">
        <ele>216.19987</ele>
        <time>2023-12-07T14:54:29.000Z</time>
      </trkpt>
      <trkpt lat="45.8838" lon="4.61754">
        <ele>216.11572</ele>
        <time>2023-12-07T14:54:30.000Z</time>
      </trkpt>
      <trkpt lat="45.88377" lon="4.61763">
        <ele>216.03409</ele>
        <time>2023-12-07T14:54:31.000Z</time>
      </trkpt>
      <trkpt lat="45.88376" lon="4.6177">
        <ele>215.96245</ele>
        <time>2023-12-07T14:54:32.000Z</time>
      </trkpt>
      <trkpt lat="45.88372" lon="4.61776">
        <ele>215.86458</ele>
        <time>2023-12-07T14:54:33.000Z</time>
      </trkpt>
      <trkpt lat="45.88371" lon="4.61785">
        <ele>215.75305</ele>
        <time>2023-12-07T14:54:34.000Z</time>
      </trkpt>
      <trkpt lat="45.88369" lon="4.61791">
        <ele>215.68442</ele>
        <time>2023-12-07T14:54:35.000Z</time>
      </trkpt>
      <trkpt lat="45.88365" lon="4.61799">
        <ele>215.61874</ele>
        <time>2023-12-07T14:54:36.000Z</time>
      </trkpt>
      <trkpt lat="45.88363" lon="4.61805">
        <ele>215.56491</ele>
        <time>2023-12-07T14:54:37.000Z</time>
      </trkpt>
      <trkpt lat="45.88362" lon="4.61812">
        <ele>215.52518</ele>
        <time>2023-12-07T14:54:38.000Z</time>
      </trkpt>
      <trkpt lat="45.88359" lon="4.61819">
        <ele>215.51884</ele>
        <time>2023-12-07T14:54:39.000Z</time>
      </trkpt>
      <trkpt lat="45.88358" lon="4.61829">
        <ele>215.47725</ele>
        <time>2023-12-07T14:54:40.000Z</time>
      </trkpt>
      <trkpt lat="45.88356" lon="4.61837">
        <ele>215.46384</ele>
        <time>2023-12-07T14:54:41.000Z</time>
      </trkpt>
      <trkpt lat="45.88354" lon="4.61846">
        <ele>215.46472</ele>
        <time>2023-12-07T14:54:42.000Z</time>
      </trkpt>
      <trkpt lat="45.88351" lon="4.61854">
        <ele>215.43054</ele>
        <time>2023-12-07T14:54:43.000Z</time>
      </trkpt>
      <trkpt lat="45.8835" lon="4.61861">
        <ele>215.40205</ele>
        <time>2023-12-07T14:54:44.000Z</time>
      </trkpt>
      <trkpt lat="45.88349" lon="4.61869">
        <ele>215.35298</ele>
        <time>2023-12-07T14:54:45.000Z</time>
      </trkpt>
      <trkpt lat="45.88348" lon="4.61876">
        <ele>215.35933</ele>
        <time>2023-12-07T14:54:46.000Z</time>
      </trkpt>
      <trkpt lat="45.88346" lon="4.61883">
        <ele>215.35254</ele>
        <time>2023-12-07T14:54:47.000Z</time>
      </trkpt>
      <trkpt lat="45.88344" lon="4.6189">
        <ele>215.35355</ele>
        <time>2023-12-07T14:54:48.000Z</time>
      </trkpt>
      <trkpt lat="45.88342" lon="4.61897">
        <ele>215.35562</ele>
        <time>2023-12-07T14:54:49.000Z</time>
      </trkpt>
      <trkpt lat="45.88341" lon="4.61903">
        <ele>215.37338</ele>
        <time>2023-12-07T14:54:50.000Z</time>
      </trkpt>
      <trkpt lat="45.88339" lon="4.6191">
        <ele>215.42447</ele>
        <time>2023-12-07T14:54:51.000Z</time>
      </trkpt>
      <trkpt lat="45.88339" lon="4.61916">
        <ele>215.50603</ele>
        <time>2023-12-07T14:54:52.000Z</time>
      </trkpt>
      <trkpt lat="45.8834" lon="4.61921">
        <ele>215.62839</ele>
        <time>2023-12-07T14:54:53.000Z</time>
      </trkpt>
      <trkpt lat="45.88344" lon="4.61926">
        <ele>215.70358</ele>
        <time>2023-12-07T14:54:54.000Z</time>
      </trkpt>
      <trkpt lat="45.88346" lon="4.61932">
        <ele>215.80684</ele>
        <time>2023-12-07T14:54:55.000Z</time>
      </trkpt>
      <trkpt lat="45.8835" lon="4.61935">
        <ele>215.86922</ele>
        <time>2023-12-07T14:54:56.000Z</time>
      </trkpt>
      <trkpt lat="45.88355" lon="4.61937">
        <ele>215.89055</ele>
        <time>2023-12-07T14:54:57.000Z</time>
      </trkpt>
      <trkpt lat="45.8836" lon="4.61938">
        <ele>215.92032</ele>
        <time>2023-12-07T14:54:58.000Z</time>
      </trkpt>
      <trkpt lat="45.88366" lon="4.61938">
        <ele>215.92566</ele>
        <time>2023-12-07T14:54:59.000Z</time>
      </trkpt>
      <trkpt lat="45.88371" lon="4.61938">
        <ele>215.94873</ele>
        <time>2023-12-07T14:55:00.000Z</time>
      </trkpt>
      <trkpt lat="45.88376" lon="4.6194">
        <ele>215.9523</ele>
        <time>2023-12-07T14:55:01.000Z</time>
      </trkpt>
      <trkpt lat="45.8838" lon="4.61938">
        <ele>215.93967</ele>
        <time>2023-12-07T14:55:02.000Z</time>
      </trkpt>
      <trkpt lat="45.88384" lon="4.61941">
        <ele>215.92456</ele>
        <time>2023-12-07T14:55:03.000Z</time>
      </trkpt>
      <trkpt lat="45.8839" lon="4.61942">
        <ele>215.90201</ele>
        <time>2023-12-07T14:55:04.000Z</time>
      </trkpt>
      <trkpt lat="45.88396" lon="4.61944">
        <ele>215.92435</ele>
        <time>2023-12-07T14:55:05.000Z</time>
      </trkpt>
      <trkpt lat="45.88401" lon="4.61946">
        <ele>215.89632</ele>
        <time>2023-12-07T14:55:06.000Z</time>
      </trkpt>
      <trkpt lat="45.88406" lon="4.61948">
        <ele>215.84897</ele>
        <time>2023-12-07T14:55:07.000Z</time>
      </trkpt>
      <trkpt lat="45.88411" lon="4.61953">
        <ele>215.79587</ele>
        <time>2023-12-07T14:55:08.000Z</time>
      </trkpt>
      <trkpt lat="45.88417" lon="4.61957">
        <ele>215.75935</ele>
        <time>2023-12-07T14:55:09.000Z</time>
      </trkpt>
      <trkpt lat="45.88422" lon="4.61961">
        <ele>215.6918</ele>
        <time>2023-12-07T14:55:10.000Z</time>
      </trkpt>
      <trkpt lat="45.88427" lon="4.61965">
        <ele>215.59167</ele>
        <time>2023-12-07T14:55:11.000Z</time>
      </trkpt>
      <trkpt lat="45.88433" lon="4.6197">
        <ele>215.48177</ele>
        <time>2023-12-07T14:55:12.000Z</time>
      </trkpt>
      <trkpt lat="45.88438" lon="4.61976">
        <ele>215.32478</ele>
        <time>2023-12-07T14:55:13.000Z</time>
      </trkpt>
      <trkpt lat="45.88444" lon="4.61981">
        <ele>215.20474</ele>
        <time>2023-12-07T14:55:14.000Z</time>
      </trkpt>
      <trkpt lat="45.88448" lon="4.61985">
        <ele>215.03958</ele>
        <time>2023-12-07T14:55:15.000Z</time>
      </trkpt>
      <trkpt lat="45.88453" lon="4.61989">
        <ele>214.93147</ele>
        <time>2023-12-07T14:55:16.000Z</time>
      </trkpt>
      <trkpt lat="45.88458" lon="4.61993">
        <ele>214.85226</ele>
        <time>2023-12-07T14:55:17.000Z</time>
      </trkpt>
      <trkpt lat="45.88463" lon="4.61997">
        <ele>214.74812</ele>
        <time>2023-12-07T14:55:18.000Z</time>
      </trkpt>
      <trkpt lat="45.88467" lon="4.62001">
        <ele>214.6447</ele>
        <time>2023-12-07T14:55:19.000Z</time>
      </trkpt>
      <trkpt lat="45.88472" lon="4.62006">
        <ele>214.54617</ele>
        <time>2023-12-07T14:55:20.000Z</time>
      </trkpt>
      <trkpt lat="45.88477" lon="4.62009">
        <ele>214.43123</ele>
        <time>2023-12-07T14:55:21.000Z</time>
      </trkpt>
      <trkpt lat="45.88481" lon="4.62012">
        <ele>214.37137</ele>
        <time>2023-12-07T14:55:22.000Z</time>
      </trkpt>
      <trkpt lat="45.88484" lon="4.62018">
        <ele>214.32153</ele>
        <time>2023-12-07T14:55:23.000Z</time>
      </trkpt>
      <trkpt lat="45.88485" lon="4.62024">
        <ele>214.30232</ele>
        <time>2023-12-07T14:55:24.000Z</time>
      </trkpt>
      <trkpt lat="45.88484" lon="4.62031">
        <ele>214.25053</ele>
        <time>2023-12-07T14:55:25.000Z</time>
      </trkpt>
      <trkpt lat="45.88481" lon="4.62036">
        <ele>214.22014</ele>
        <time>2023-12-07T14:55:26.000Z</time>
      </trkpt>
      <trkpt lat="45.88477" lon="4.6204">
        <ele>214.17593</ele>
        <time>2023-12-07T14:55:27.000Z</time>
      </trkpt>
      <trkpt lat="45.88473" lon="4.62045">
        <ele>214.1492</ele>
        <time>2023-12-07T14:55:28.000Z</time>
      </trkpt>
      <trkpt lat="45.88469" lon="4.6205">
        <ele>214.12833</ele>
        <time>2023-12-07T14:55:29.000Z</time>
      </trkpt>
      <trkpt lat="45.88464" lon="4.62054">
        <ele>214.12207</ele>
        <time>2023-12-07T14:55:30.000Z</time>
      </trkpt>
      <trkpt lat="45.8846" lon="4.62058">
        <ele>214.13611</ele>
        <time>2023-12-07T14:55:31.000Z</time>
      </trkpt>
      <trkpt lat="45.88455" lon="4.62061">
        <ele>214.13274</ele>
        <time>2023-12-07T14:55:32.000Z</time>
      </trkpt>
      <trkpt lat="45.88451" lon="4.62066">
        <ele>214.14685</ele>
        <time>2023-12-07T14:55:33.000Z</time>
      </trkpt>
      <trkpt lat="45.88446" lon="4.62071">
        <ele>214.16817</ele>
        <time>2023-12-07T14:55:34.000Z</time>
      </trkpt>
      <trkpt lat="45.88442" lon="4.62075">
        <ele>214.16687</ele>
        <time>2023-12-07T14:55:35.000Z</time>
      </trkpt>
      <trkpt lat="45.88437" lon="4.6208">
        <ele>214.13838</ele>
        <time>2023-12-07T14:55:36.000Z</time>
      </trkpt>
      <trkpt lat="45.88433" lon="4.62084">
        <ele>214.09917</ele>
        <time>2023-12-07T14:55:37.000Z</time>
      </trkpt>
      <trkpt lat="45.88429" lon="4.62089">
        <ele>214.06787</ele>
        <time>2023-12-07T14:55:38.000Z</time>
      </trkpt>
      <trkpt lat="45.88424" lon="4.62094">
        <ele>214.04208</ele>
        <time>2023-12-07T14:55:39.000Z</time>
      </trkpt>
      <trkpt lat="45.88419" lon="4.62098">
        <ele>214.03738</ele>
        <time>2023-12-07T14:55:40.000Z</time>
      </trkpt>
      <trkpt lat="45.88414" lon="4.62103">
        <ele>214.02534</ele>
        <time>2023-12-07T14:55:41.000Z</time>
      </trkpt>
      <trkpt lat="45.88409" lon="4.62108">
        <ele>213.99817</ele>
        <time>2023-12-07T14:55:42.000Z</time>
      </trkpt>
      <trkpt lat="45.88406" lon="4.62113">
        <ele>214.01469</ele>
        <time>2023-12-07T14:55:43.000Z</time>
      </trkpt>
      <trkpt lat="45.88403" lon="4.62119">
        <ele>214.02164</ele>
        <time>2023-12-07T14:55:44.000Z</time>
      </trkpt>
      <trkpt lat="45.88401" lon="4.62126">
        <ele>214.01089</ele>
        <time>2023-12-07T14:55:45.000Z</time>
      </trkpt>
      <trkpt lat="45.88398" lon="4.62134">
        <ele>213.96231</ele>
        <time>2023-12-07T14:55:46.000Z</time>
      </trkpt>
      <trkpt lat="45.88394" lon="4.6214">
        <ele>213.92307</ele>
        <time>2023-12-07T14:55:47.000Z</time>
      </trkpt>
      <trkpt lat="45.88392" lon="4.62149">
        <ele>213.86765</ele>
        <time>2023-12-07T14:55:48.000Z</time>
      </trkpt>
      <trkpt lat="45.8839" lon="4.62157">
        <ele>213.81845</ele>
        <time>2023-12-07T14:55:49.000Z</time>
      </trkpt>
      <trkpt lat="45.88388" lon="4.62164">
        <ele>213.77267</ele>
        <time>2023-12-07T14:55:50.000Z</time>
      </trkpt>
      <trkpt lat="45.88386" lon="4.62173">
        <ele>213.66487</ele>
        <time>2023-12-07T14:55:51.000Z</time>
      </trkpt>
      <trkpt lat="45.88384" lon="4.62181">
        <ele>213.54546</ele>
        <time>2023-12-07T14:55:52.000Z</time>
      </trkpt>
      <trkpt lat="45.88382" lon="4.62188">
        <ele>213.42404</ele>
        <time>2023-12-07T14:55:53.000Z</time>
      </trkpt>
      <trkpt lat="45.88381" lon="4.62196">
        <ele>213.30351</ele>
        <time>2023-12-07T14:55:54.000Z</time>
      </trkpt>
      <trkpt lat="45.88379" lon="4.62204">
        <ele>213.21797</ele>
        <time>2023-12-07T14:55:55.000Z</time>
      </trkpt>
      <trkpt lat="45.88377" lon="4.62212">
        <ele>213.13737</ele>
        <time>2023-12-07T14:55:56.000Z</time>
      </trkpt>
      <trkpt lat="45.88376" lon="4.62219">
        <ele>213.0834</ele>
        <time>2023-12-07T14:55:57.000Z</time>
      </trkpt>
      <trkpt lat="45.88374" lon="4.62226">
        <ele>213.03091</ele>
        <time>2023-12-07T14:55:58.000Z</time>
      </trkpt>
      <trkpt lat="45.88372" lon="4.62234">
        <ele>212.97595</ele>
        <time>2023-12-07T14:55:59.000Z</time>
      </trkpt>
      <trkpt lat="45.8837" lon="4.62241">
        <ele>212.93362</ele>
        <time>2023-12-07T14:56:00.000Z</time>
      </trkpt>
      <trkpt lat="45.88369" lon="4.62249">
        <ele>212.89365</ele>
        <time>2023-12-07T14:56:01.000Z</time>
      </trkpt>
      <trkpt lat="45.88368" lon="4.62256">
        <ele>212.87405</ele>
        <time>2023-12-07T14:56:02.000Z</time>
      </trkpt>
      <trkpt lat="45.88367" lon="4.62264">
        <ele>212.81091</ele>
        <time>2023-12-07T14:56:03.000Z</time>
      </trkpt>
      <trkpt lat="45.88365" lon="4.62271">
        <ele>212.74544</ele>
        <time>2023-12-07T14:56:04.000Z</time>
      </trkpt>
      <trkpt lat="45.88362" lon="4.62278">
        <ele>212.70003</ele>
        <time>2023-12-07T14:56:05.000Z</time>
      </trkpt>
      <trkpt lat="45.8836" lon="4.62285">
        <ele>212.70752</ele>
        <time>2023-12-07T14:56:06.000Z</time>
      </trkpt>
      <trkpt lat="45.88357" lon="4.62293">
        <ele>212.72647</ele>
        <time>2023-12-07T14:56:07.000Z</time>
      </trkpt>
      <trkpt lat="45.88355" lon="4.62301">
        <ele>212.73552</ele>
        <time>2023-12-07T14:56:08.000Z</time>
      </trkpt>
      <trkpt lat="45.88354" lon="4.62308">
        <ele>212.71753</ele>
        <time>2023-12-07T14:56:09.000Z</time>
      </trkpt>
      <trkpt lat="45.88353" lon="4.62315">
        <ele>212.70642</ele>
        <time>2023-12-07T14:56:10.000Z</time>
      </trkpt>
      <trkpt lat="45.88351" lon="4.62323">
        <ele>212.73628</ele>
        <time>2023-12-07T14:56:11.000Z</time>
      </trkpt>
      <trkpt lat="45.88349" lon="4.6233">
        <ele>212.74167</ele>
        <time>2023-12-07T14:56:12.000Z</time>
      </trkpt>
      <trkpt lat="45.88347" lon="4.62338">
        <ele>212.75806</ele>
        <time>2023-12-07T14:56:13.000Z</time>
      </trkpt>
      <trkpt lat="45.88345" lon="4.62345">
        <ele>212.759</ele>
        <time>2023-12-07T14:56:14.000Z</time>
      </trkpt>
      <trkpt lat="45.88343" lon="4.62353">
        <ele>212.75729</ele>
        <time>2023-12-07T14:56:15.000Z</time>
      </trkpt>
      <trkpt lat="45.88341" lon="4.62361">
        <ele>212.76477</ele>
        <time>2023-12-07T14:56:16.000Z</time>
      </trkpt>
      <trkpt lat="45.88339" lon="4.62368">
        <ele>212.74922</ele>
        <time>2023-12-07T14:56:17.000Z</time>
      </trkpt>
      <trkpt lat="45.88337" lon="4.62376">
        <ele>212.71658</ele>
        <time>2023-12-07T14:56:18.000Z</time>
      </trkpt>
      <trkpt lat="45.88336" lon="4.62383">
        <ele>212.68208</ele>
        <time>2023-12-07T14:56:19.000Z</time>
      </trkpt>
      <trkpt lat="45.88333" lon="4.62391">
        <ele>212.63086</ele>
        <time>2023-12-07T14:56:20.000Z</time>
      </trkpt>
      <trkpt lat="45.88331" lon="4.62399">
        <ele>212.61731</ele>
        <time>2023-12-07T14:56:21.000Z</time>
      </trkpt>
      <trkpt lat="45.88329" lon="4.62406">
        <ele>212.55811</ele>
        <time>2023-12-07T14:56:22.000Z</time>
      </trkpt>
      <trkpt lat="45.88328" lon="4.62413">
        <ele>212.49841</ele>
        <time>2023-12-07T14:56:23.000Z</time>
      </trkpt>
      <trkpt lat="45.88326" lon="4.62421">
        <ele>212.42924</ele>
        <time>2023-12-07T14:56:24.000Z</time>
      </trkpt>
      <trkpt lat="45.88323" lon="4.62429">
        <ele>212.35222</ele>
        <time>2023-12-07T14:56:25.000Z</time>
      </trkpt>
      <trkpt lat="45.88321" lon="4.62437">
        <ele>212.24956</ele>
        <time>2023-12-07T14:56:26.000Z</time>
      </trkpt>
      <trkpt lat="45.88319" lon="4.62445">
        <ele>212.15125</ele>
        <time>2023-12-07T14:56:27.000Z</time>
      </trkpt>
      <trkpt lat="45.88317" lon="4.62453">
        <ele>212.08447</ele>
        <time>2023-12-07T14:56:28.000Z</time>
      </trkpt>
      <trkpt lat="45.88315" lon="4.6246">
        <ele>212.02361</ele>
        <time>2023-12-07T14:56:29.000Z</time>
      </trkpt>
      <trkpt lat="45.88313" lon="4.62468">
        <ele>211.95715</ele>
        <time>2023-12-07T14:56:30.000Z</time>
      </trkpt>
      <trkpt lat="45.88311" lon="4.62476">
        <ele>211.90877</ele>
        <time>2023-12-07T14:56:31.000Z</time>
      </trkpt>
      <trkpt lat="45.88308" lon="4.62483">
        <ele>211.88431</ele>
        <time>2023-12-07T14:56:32.000Z</time>
      </trkpt>
      <trkpt lat="45.88307" lon="4.62491">
        <ele>211.85156</ele>
        <time>2023-12-07T14:56:33.000Z</time>
      </trkpt>
      <trkpt lat="45.88305" lon="4.62499">
        <ele>211.82133</ele>
        <time>2023-12-07T14:56:34.000Z</time>
      </trkpt>
      <trkpt lat="45.88304" lon="4.62506">
        <ele>211.77554</ele>
        <time>2023-12-07T14:56:35.000Z</time>
      </trkpt>
      <trkpt lat="45.88302" lon="4.62514">
        <ele>211.72112</ele>
        <time>2023-12-07T14:56:36.000Z</time>
      </trkpt>
      <trkpt lat="45.883" lon="4.62522">
        <ele>211.65446</ele>
        <time>2023-12-07T14:56:37.000Z</time>
      </trkpt>
      <trkpt lat="45.88298" lon="4.62529">
        <ele>211.59746</ele>
        <time>2023-12-07T14:56:38.000Z</time>
      </trkpt>
      <trkpt lat="45.88296" lon="4.62535">
        <ele>211.56316</ele>
        <time>2023-12-07T14:56:39.000Z</time>
      </trkpt>
      <trkpt lat="45.88294" lon="4.62542">
        <ele>211.51074</ele>
        <time>2023-12-07T14:56:40.000Z</time>
      </trkpt>
      <trkpt lat="45.88293" lon="4.62549">
        <ele>211.46628</ele>
        <time>2023-12-07T14:56:41.000Z</time>
      </trkpt>
      <trkpt lat="45.88291" lon="4.62556">
        <ele>211.4252</ele>
        <time>2023-12-07T14:56:42.000Z</time>
      </trkpt>
      <trkpt lat="45.88288" lon="4.62562">
        <ele>211.39445</ele>
        <time>2023-12-07T14:56:43.000Z</time>
      </trkpt>
      <trkpt lat="45.88287" lon="4.62569">
        <ele>211.36755</ele>
        <time>2023-12-07T14:56:44.000Z</time>
      </trkpt>
      <trkpt lat="45.88285" lon="4.62576">
        <ele>211.35783</ele>
        <time>2023-12-07T14:56:45.000Z</time>
      </trkpt>
      <trkpt lat="45.88283" lon="4.62584">
        <ele>211.3676</ele>
        <time>2023-12-07T14:56:46.000Z</time>
      </trkpt>
      <trkpt lat="45.88281" lon="4.62591">
        <ele>211.38437</ele>
        <time>2023-12-07T14:56:47.000Z</time>
      </trkpt>
      <trkpt lat="45.88279" lon="4.62599">
        <ele>211.38953</ele>
        <time>2023-12-07T14:56:48.000Z</time>
      </trkpt>
      <trkpt lat="45.88278" lon="4.62606">
        <ele>211.38339</ele>
        <time>2023-12-07T14:56:49.000Z</time>
      </trkpt>
      <trkpt lat="45.88275" lon="4.62614">
        <ele>211.38345</ele>
        <time>2023-12-07T14:56:50.000Z</time>
      </trkpt>
      <trkpt lat="45.88273" lon="4.62622">
        <ele>211.37698</ele>
        <time>2023-12-07T14:56:51.000Z</time>
      </trkpt>
      <trkpt lat="45.88271" lon="4.62628">
        <ele>211.38538</ele>
        <time>2023-12-07T14:56:52.000Z</time>
      </trkpt>
      <trkpt lat="45.8827" lon="4.62635">
        <ele>211.40625</ele>
        <time>2023-12-07T14:56:53.000Z</time>
      </trkpt>
      <trkpt lat="45.88268" lon="4.62643">
        <ele>211.42349</ele>
        <time>2023-12-07T14:56:54.000Z</time>
      </trkpt>
      <trkpt lat="45.88268" lon="4.6265">
        <ele>211.4592</ele>
        <time>2023-12-07T14:56:55.000Z</time>
      </trkpt>
      <trkpt lat="45.88266" lon="4.62658">
        <ele>211.51826</ele>
        <time>2023-12-07T14:56:56.000Z</time>
      </trkpt>
      <trkpt lat="45.88265" lon="4.62666">
        <ele>211.60165</ele>
        <time>2023-12-07T14:56:57.000Z</time>
      </trkpt>
      <trkpt lat="45.88263" lon="4.62673">
        <ele>211.68323</ele>
        <time>2023-12-07T14:56:58.000Z</time>
      </trkpt>
      <trkpt lat="45.88262" lon="4.6268">
        <ele>211.7124</ele>
        <time>2023-12-07T14:56:59.000Z</time>
      </trkpt>
      <trkpt lat="45.88261" lon="4.62687">
        <ele>211.77661</ele>
        <time>2023-12-07T14:57:00.000Z</time>
      </trkpt>
      <trkpt lat="45.88261" lon="4.62695">
        <ele>211.81335</ele>
        <time>2023-12-07T14:57:01.000Z</time>
      </trkpt>
      <trkpt lat="45.8826" lon="4.62702">
        <ele>211.84993</ele>
        <time>2023-12-07T14:57:02.000Z</time>
      </trkpt>
      <trkpt lat="45.88259" lon="4.62709">
        <ele>211.8833</ele>
        <time>2023-12-07T14:57:03.000Z</time>
      </trkpt>
      <trkpt lat="45.88258" lon="4.62716">
        <ele>211.9211</ele>
        <time>2023-12-07T14:57:04.000Z</time>
      </trkpt>
      <trkpt lat="45.88256" lon="4.62722">
        <ele>211.97415</ele>
        <time>2023-12-07T14:57:05.000Z</time>
      </trkpt>
      <trkpt lat="45.88255" lon="4.62729">
        <ele>212.01636</ele>
        <time>2023-12-07T14:57:06.000Z</time>
      </trkpt>
      <trkpt lat="45.88254" lon="4.62736">
        <ele>212.06316</ele>
        <time>2023-12-07T14:57:07.000Z</time>
      </trkpt>
      <trkpt lat="45.88252" lon="4.62743">
        <ele>212.08511</ele>
        <time>2023-12-07T14:57:08.000Z</time>
      </trkpt>
      <trkpt lat="45.88251" lon="4.6275">
        <ele>212.08687</ele>
        <time>2023-12-07T14:57:09.000Z</time>
      </trkpt>
      <trkpt lat="45.8825" lon="4.62757">
        <ele>212.07065</ele>
        <time>2023-12-07T14:57:10.000Z</time>
      </trkpt>
      <trkpt lat="45.88249" lon="4.62765">
        <ele>212.02751</ele>
        <time>2023-12-07T14:57:11.000Z</time>
      </trkpt>
      <trkpt lat="45.88249" lon="4.62772">
        <ele>212.00281</ele>
        <time>2023-12-07T14:57:12.000Z</time>
      </trkpt>
      <trkpt lat="45.88248" lon="4.6278">
        <ele>211.97366</ele>
        <time>2023-12-07T14:57:13.000Z</time>
      </trkpt>
      <trkpt lat="45.88247" lon="4.62788">
        <ele>211.95004</ele>
        <time>2023-12-07T14:57:14.000Z</time>
      </trkpt>
      <trkpt lat="45.88247" lon="4.62795">
        <ele>211.92081</ele>
        <time>2023-12-07T14:57:15.000Z</time>
      </trkpt>
      <trkpt lat="45.88247" lon="4.62802">
        <ele>211.87556</ele>
        <time>2023-12-07T14:57:16.000Z</time>
      </trkpt>
      <trkpt lat="45.88246" lon="4.62808">
        <ele>211.81975</ele>
        <time>2023-12-07T14:57:17.000Z</time>
      </trkpt>
      <trkpt lat="45.88245" lon="4.62814">
        <ele>211.74931</ele>
        <time>2023-12-07T14:57:18.000Z</time>
      </trkpt>
      <trkpt lat="45.88245" lon="4.62821">
        <ele>211.74451</ele>
        <time>2023-12-07T14:57:19.000Z</time>
      </trkpt>
      <trkpt lat="45.88245" lon="4.62828">
        <ele>211.70944</ele>
        <time>2023-12-07T14:57:20.000Z</time>
      </trkpt>
      <trkpt lat="45.88247" lon="4.62833">
        <ele>211.70755</ele>
        <time>2023-12-07T14:57:21.000Z</time>
      </trkpt>
      <trkpt lat="45.8825" lon="4.6284">
        <ele>211.69666</ele>
        <time>2023-12-07T14:57:22.000Z</time>
      </trkpt>
      <trkpt lat="45.88253" lon="4.62845">
        <ele>211.6774</ele>
        <time>2023-12-07T14:57:23.000Z</time>
      </trkpt>
      <trkpt lat="45.88257" lon="4.62851">
        <ele>211.6519</ele>
        <time>2023-12-07T14:57:24.000Z</time>
      </trkpt>
      <trkpt lat="45.88262" lon="4.62854">
        <ele>211.61287</ele>
        <time>2023-12-07T14:57:25.000Z</time>
      </trkpt>
      <trkpt lat="45.88265" lon="4.62859">
        <ele>211.56194</ele>
        <time>2023-12-07T14:57:26.000Z</time>
      </trkpt>
      <trkpt lat="45.88267" lon="4.62864">
        <ele>211.50293</ele>
        <time>2023-12-07T14:57:27.000Z</time>
      </trkpt>
      <trkpt lat="45.88267" lon="4.62869">
        <ele>211.47722</ele>
        <time>2023-12-07T14:57:28.000Z</time>
      </trkpt>
      <trkpt lat="45.88266" lon="4.62875">
        <ele>211.46948</ele>
        <time>2023-12-07T14:57:29.000Z</time>
      </trkpt>
      <trkpt lat="45.88265" lon="4.62881">
        <ele>211.47505</ele>
        <time>2023-12-07T14:57:30.000Z</time>
      </trkpt>
      <trkpt lat="45.88262" lon="4.62886">
        <ele>211.48335</ele>
        <time>2023-12-07T14:57:31.000Z</time>
      </trkpt>
      <trkpt lat="45.88259" lon="4.6289">
        <ele>211.46664</ele>
        <time>2023-12-07T14:57:32.000Z</time>
      </trkpt>
      <trkpt lat="45.88255" lon="4.62895">
        <ele>211.44556</ele>
        <time>2023-12-07T14:57:33.000Z</time>
      </trkpt>
      <trkpt lat="45.88252" lon="4.629">
        <ele>211.4176</ele>
        <time>2023-12-07T14:57:34.000Z</time>
      </trkpt>
      <trkpt lat="45.88248" lon="4.62906">
        <ele>211.3842</ele>
        <time>2023-12-07T14:57:35.000Z</time>
      </trkpt>
      <trkpt lat="45.88245" lon="4.62911">
        <ele>211.33293</ele>
        <time>2023-12-07T14:57:36.000Z</time>
      </trkpt>
      <trkpt lat="45.88243" lon="4.62917">
        <ele>211.29163</ele>
        <time>2023-12-07T14:57:37.000Z</time>
      </trkpt>
      <trkpt lat="45.8824" lon="4.62922">
        <ele>211.28882</ele>
        <time>2023-12-07T14:57:38.000Z</time>
      </trkpt>
      <trkpt lat="45.88236" lon="4.62926">
        <ele>211.26653</ele>
        <time>2023-12-07T14:57:39.000Z</time>
      </trkpt>
      <trkpt lat="45.88233" lon="4.62931">
        <ele>211.2493</ele>
        <time>2023-12-07T14:57:40.000Z</time>
      </trkpt>
      <trkpt lat="45.88229" lon="4.62935">
        <ele>211.20474</ele>
        <time>2023-12-07T14:57:41.000Z</time>
      </trkpt>
      <trkpt lat="45.88226" lon="4.62939">
        <ele>211.12317</ele>
        <time>2023-12-07T14:57:42.000Z</time>
      </trkpt>
      <trkpt lat="45.88224" lon="4.62944">
        <ele>211.05205</ele>
        <time>2023-12-07T14:57:43.000Z</time>
      </trkpt>
      <trkpt lat="45.88222" lon="4.62949">
        <ele>210.99643</ele>
        <time>2023-12-07T14:57:44.000Z</time>
      </trkpt>
      <trkpt lat="45.88219" lon="4.62951">
        <ele>210.92252</ele>
        <time>2023-12-07T14:57:45.000Z</time>
      </trkpt>
      <trkpt lat="45.88217" lon="4.62954">
        <ele>210.86914</ele>
        <time>2023-12-07T14:57:46.000Z</time>
      </trkpt>
      <trkpt lat="45.88215" lon="4.62958">
        <ele>210.81914</ele>
        <time>2023-12-07T14:57:47.000Z</time>
      </trkpt>
      <trkpt lat="45.88213" lon="4.62963">
        <ele>210.78105</ele>
        <time>2023-12-07T14:57:48.000Z</time>
      </trkpt>
      <trkpt lat="45.8821" lon="4.62966">
        <ele>210.72656</ele>
        <time>2023-12-07T14:57:49.000Z</time>
      </trkpt>
      <trkpt lat="45.88207" lon="4.62969">
        <ele>210.6799</ele>
        <time>2023-12-07T14:57:50.000Z</time>
      </trkpt>
      <trkpt lat="45.88205" lon="4.62973">
        <ele>210.67599</ele>
        <time>2023-12-07T14:57:51.000Z</time>
      </trkpt>
      <trkpt lat="45.88203" lon="4.62978">
        <ele>210.68803</ele>
        <time>2023-12-07T14:57:52.000Z</time>
      </trkpt>
      <trkpt lat="45.882" lon="4.62983">
        <ele>210.68245</ele>
        <time>2023-12-07T14:57:53.000Z</time>
      </trkpt>
      <trkpt lat="45.88197" lon="4.62987">
        <ele>210.68396</ele>
        <time>2023-12-07T14:57:54.000Z</time>
      </trkpt>
      <trkpt lat="45.88195" lon="4.62993">
        <ele>210.6973</ele>
        <time>2023-12-07T14:57:55.000Z</time>
      </trkpt>
      <trkpt lat="45.88193" lon="4.62997">
        <ele>210.7216</ele>
        <time>2023-12-07T14:57:56.000Z</time>
      </trkpt>
      <trkpt lat="45.88192" lon="4.63">
        <ele>210.74487</ele>
        <time>2023-12-07T14:57:57.000Z</time>
      </trkpt>
      <trkpt lat="45.88191" lon="4.63002">
        <ele>210.72417</ele>
        <time>2023-12-07T14:57:58.000Z</time>
      </trkpt>
      <trkpt lat="45.88187" lon="4.63004">
        <ele>210.69125</ele>
        <time>2023-12-07T14:57:59.000Z</time>
      </trkpt>
      <trkpt lat="45.88183" lon="4.63005">
        <ele>210.66098</ele>
        <time>2023-12-07T14:58:00.000Z</time>
      </trkpt>
      <trkpt lat="45.88178" lon="4.63001">
        <ele>210.60074</ele>
        <time>2023-12-07T14:58:01.000Z</time>
      </trkpt>
      <trkpt lat="45.88173" lon="4.63">
        <ele>210.62717</ele>
        <time>2023-12-07T14:58:02.000Z</time>
      </trkpt>
      <trkpt lat="45.88167" lon="4.62998">
        <ele>210.64067</ele>
        <time>2023-12-07T14:58:03.000Z</time>
      </trkpt>
      <trkpt lat="45.88162" lon="4.62997">
        <ele>210.65813</ele>
        <time>2023-12-07T14:58:04.000Z</time>
      </trkpt>
      <trkpt lat="45.88156" lon="4.62996">
        <ele>210.675</ele>
        <time>2023-12-07T14:58:05.000Z</time>
      </trkpt>
      <trkpt lat="45.88151" lon="4.62995">
        <ele>210.68405</ele>
        <time>2023-12-07T14:58:06.000Z</time>
      </trkpt>
      <trkpt lat="45.88145" lon="4.62993">
        <ele>210.68245</ele>
        <time>2023-12-07T14:58:07.000Z</time>
      </trkpt>
      <trkpt lat="45.8814" lon="4.62992">
        <ele>210.65239</ele>
        <time>2023-12-07T14:58:08.000Z</time>
      </trkpt>
      <trkpt lat="45.88135" lon="4.6299">
        <ele>210.67514</ele>
        <time>2023-12-07T14:58:09.000Z</time>
      </trkpt>
      <trkpt lat="45.88129" lon="4.62989">
        <ele>210.69589</ele>
        <time>2023-12-07T14:58:10.000Z</time>
      </trkpt>
      <trkpt lat="45.88124" lon="4.62988">
        <ele>210.69861</ele>
        <time>2023-12-07T14:58:11.000Z</time>
      </trkpt>
      <trkpt lat="45.88119" lon="4.62986">
        <ele>210.69429</ele>
        <time>2023-12-07T14:58:12.000Z</time>
      </trkpt>
      <trkpt lat="45.88115" lon="4.62984">
        <ele>210.74223</ele>
        <time>2023-12-07T14:58:13.000Z</time>
      </trkpt>
      <trkpt lat="45.88113" lon="4.62984">
        <ele>210.83281</ele>
        <time>2023-12-07T14:58:14.000Z</time>
      </trkpt>
      <trkpt lat="45.88109" lon="4.62983">
        <ele>210.92973</ele>
        <time>2023-12-07T14:58:15.000Z</time>
      </trkpt>
      <trkpt lat="45.88106" lon="4.62982">
        <ele>211.03336</ele>
        <time>2023-12-07T14:58:16.000Z</time>
      </trkpt>
      <trkpt lat="45.88103" lon="4.62979">
        <ele>211.12415</ele>
        <time>2023-12-07T14:58:17.000Z</time>
      </trkpt>
      <trkpt lat="45.88097" lon="4.62978">
        <ele>211.2094</ele>
        <time>2023-12-07T14:58:18.000Z</time>
      </trkpt>
      <trkpt lat="45.88092" lon="4.62976">
        <ele>211.31454</ele>
        <time>2023-12-07T14:58:19.000Z</time>
      </trkpt>
      <trkpt lat="45.88086" lon="4.62975">
        <ele>211.42097</ele>
        <time>2023-12-07T14:58:20.000Z</time>
      </trkpt>
      <trkpt lat="45.8808" lon="4.62974">
        <ele>211.53629</ele>
        <time>2023-12-07T14:58:21.000Z</time>
      </trkpt>
      <trkpt lat="45.88075" lon="4.62974">
        <ele>211.63338</ele>
        <time>2023-12-07T14:58:22.000Z</time>
      </trkpt>
      <trkpt lat="45.8807" lon="4.62974">
        <ele>211.7365</ele>
        <time>2023-12-07T14:58:23.000Z</time>
      </trkpt>
      <trkpt lat="45.88066" lon="4.62976">
        <ele>211.83899</ele>
        <time>2023-12-07T14:58:24.000Z</time>
      </trkpt>
      <trkpt lat="45.88062" lon="4.62979">
        <ele>211.99524</ele>
        <time>2023-12-07T14:58:25.000Z</time>
      </trkpt>
      <trkpt lat="45.88059" lon="4.62984">
        <ele>212.15779</ele>
        <time>2023-12-07T14:58:26.000Z</time>
      </trkpt>
      <trkpt lat="45.88058" lon="4.62992">
        <ele>212.32797</ele>
        <time>2023-12-07T14:58:27.000Z</time>
      </trkpt>
      <trkpt lat="45.8806" lon="4.63001">
        <ele>212.51797</ele>
        <time>2023-12-07T14:58:28.000Z</time>
      </trkpt>
      <trkpt lat="45.88061" lon="4.63009">
        <ele>212.68718</ele>
        <time>2023-12-07T14:58:29.000Z</time>
      </trkpt>
      <trkpt lat="45.88063" lon="4.63017">
        <ele>212.81906</ele>
        <time>2023-12-07T14:58:30.000Z</time>
      </trkpt>
      <trkpt lat="45.88066" lon="4.63027">
        <ele>212.96017</ele>
        <time>2023-12-07T14:58:31.000Z</time>
      </trkpt>
      <trkpt lat="45.88068" lon="4.63034">
        <ele>213.07793</ele>
        <time>2023-12-07T14:58:32.000Z</time>
      </trkpt>
      <trkpt lat="45.8807" lon="4.63041">
        <ele>213.15945</ele>
        <time>2023-12-07T14:58:33.000Z</time>
      </trkpt>
      <trkpt lat="45.88072" lon="4.63047">
        <ele>213.24448</ele>
        <time>2023-12-07T14:58:34.000Z</time>
      </trkpt>
      <trkpt lat="45.88075" lon="4.63055">
        <ele>213.3331</ele>
        <time>2023-12-07T14:58:35.000Z</time>
      </trkpt>
      <trkpt lat="45.88078" lon="4.63061">
        <ele>213.4333</ele>
        <time>2023-12-07T14:58:36.000Z</time>
      </trkpt>
      <trkpt lat="45.88079" lon="4.6307">
        <ele>213.51419</ele>
        <time>2023-12-07T14:58:37.000Z</time>
      </trkpt>
      <trkpt lat="45.88082" lon="4.63078">
        <ele>213.59444</ele>
        <time>2023-12-07T14:58:38.000Z</time>
      </trkpt>
      <trkpt lat="45.88085" lon="4.63086">
        <ele>213.63953</ele>
        <time>2023-12-07T14:58:39.000Z</time>
      </trkpt>
      <trkpt lat="45.88087" lon="4.63094">
        <ele>213.69661</ele>
        <time>2023-12-07T14:58:40.000Z</time>
      </trkpt>
      <trkpt lat="45.8809" lon="4.63102">
        <ele>213.74561</ele>
        <time>2023-12-07T14:58:41.000Z</time>
      </trkpt>
      <trkpt lat="45.88092" lon="4.6311">
        <ele>213.79854</ele>
        <time>2023-12-07T14:58:42.000Z</time>
      </trkpt>
      <trkpt lat="45.88094" lon="4.63119">
        <ele>213.82578</ele>
        <time>2023-12-07T14:58:43.000Z</time>
      </trkpt>
      <trkpt lat="45.88095" lon="4.63127">
        <ele>213.81082</ele>
        <time>2023-12-07T14:58:44.000Z</time>
      </trkpt>
      <trkpt lat="45.88096" lon="4.63135">
        <ele>213.7635</ele>
        <time>2023-12-07T14:58:45.000Z</time>
      </trkpt>
      <trkpt lat="45.88098" lon="4.63144">
        <ele>213.7043</ele>
        <time>2023-12-07T14:58:46.000Z</time>
      </trkpt>
      <trkpt lat="45.881" lon="4.63152">
        <ele>213.64717</ele>
        <time>2023-12-07T14:58:47.000Z</time>
      </trkpt>
      <trkpt lat="45.88101" lon="4.6316">
        <ele>213.57121</ele>
        <time>2023-12-07T14:58:48.000Z</time>
      </trkpt>
      <trkpt lat="45.88101" lon="4.63168">
        <ele>213.50171</ele>
        <time>2023-12-07T14:58:49.000Z</time>
      </trkpt>
      <trkpt lat="45.88101" lon="4.63176">
        <ele>213.44943</ele>
        <time>2023-12-07T14:58:50.000Z</time>
      </trkpt>
      <trkpt lat="45.88102" lon="4.63183">
        <ele>213.35599</ele>
        <time>2023-12-07T14:58:51.000Z</time>
      </trkpt>
      <trkpt lat="45.88103" lon="4.63191">
        <ele>213.25847</ele>
        <time>2023-12-07T14:58:52.000Z</time>
      </trkpt>
      <trkpt lat="45.88102" lon="4.632">
        <ele>213.13411</ele>
        <time>2023-12-07T14:58:53.000Z</time>
      </trkpt>
      <trkpt lat="45.88103" lon="4.63209">
        <ele>212.95988</ele>
        <time>2023-12-07T14:58:54.000Z</time>
      </trkpt>
      <trkpt lat="45.88103" lon="4.63217">
        <ele>212.77766</ele>
        <time>2023-12-07T14:58:55.000Z</time>
      </trkpt>
      <trkpt lat="45.88104" lon="4.63224">
        <ele>212.58792</ele>
        <time>2023-12-07T14:58:56.000Z</time>
      </trkpt>
      <trkpt lat="45.88102" lon="4.63232">
        <ele>212.37979</ele>
        <time>2023-12-07T14:58:57.000Z</time>
      </trkpt>
      <trkpt lat="45.881" lon="4.63239">
        <ele>212.19528</ele>
        <time>2023-12-07T14:58:58.000Z</time>
      </trkpt>
      <trkpt lat="45.88097" lon="4.63244">
        <ele>212.01132</ele>
        <time>2023-12-07T14:58:59.000Z</time>
      </trkpt>
      <trkpt lat="45.88094" lon="4.63249">
        <ele>211.78528</ele>
        <time>2023-12-07T14:59:00.000Z</time>
      </trkpt>
      <trkpt lat="45.88088" lon="4.63253">
        <ele>211.56631</ele>
        <time>2023-12-07T14:59:01.000Z</time>
      </trkpt>
      <trkpt lat="45.88083" lon="4.63257">
        <ele>211.30957</ele>
        <time>2023-12-07T14:59:02.000Z</time>
      </trkpt>
      <trkpt lat="45.88078" lon="4.6326">
        <ele>211.07886</ele>
        <time>2023-12-07T14:59:03.000Z</time>
      </trkpt>
      <trkpt lat="45.88073" lon="4.63265">
        <ele>210.88449</ele>
        <time>2023-12-07T14:59:04.000Z</time>
      </trkpt>
      <trkpt lat="45.88069" lon="4.6327">
        <ele>210.72478</ele>
        <time>2023-12-07T14:59:05.000Z</time>
      </trkpt>
      <trkpt lat="45.88064" lon="4.63274">
        <ele>210.58237</ele>
        <time>2023-12-07T14:59:06.000Z</time>
      </trkpt>
      <trkpt lat="45.8806" lon="4.6328">
        <ele>210.47942</ele>
        <time>2023-12-07T14:59:07.000Z</time>
      </trkpt>
      <trkpt lat="45.88055" lon="4.63285">
        <ele>210.37874</ele>
        <time>2023-12-07T14:59:08.000Z</time>
      </trkpt>
      <trkpt lat="45.88052" lon="4.63291">
        <ele>210.17119</ele>
        <time>2023-12-07T14:59:09.000Z</time>
      </trkpt>
      <trkpt lat="45.88048" lon="4.63297">
        <ele>210.01892</ele>
        <time>2023-12-07T14:59:10.000Z</time>
      </trkpt>
      <trkpt lat="45.88044" lon="4.63303">
        <ele>209.88071</ele>
        <time>2023-12-07T14:59:11.000Z</time>
      </trkpt>
      <trkpt lat="45.88041" lon="4.63309">
        <ele>209.7532</ele>
        <time>2023-12-07T14:59:12.000Z</time>
      </trkpt>
      <trkpt lat="45.88038" lon="4.63316">
        <ele>209.65608</ele>
        <time>2023-12-07T14:59:13.000Z</time>
      </trkpt>
      <trkpt lat="45.88035" lon="4.63323">
        <ele>209.63005</ele>
        <time>2023-12-07T14:59:14.000Z</time>
      </trkpt>
      <trkpt lat="45.88032" lon="4.6333">
        <ele>209.59521</ele>
        <time>2023-12-07T14:59:15.000Z</time>
      </trkpt>
      <trkpt lat="45.88029" lon="4.63337">
        <ele>209.56711</ele>
        <time>2023-12-07T14:59:16.000Z</time>
      </trkpt>
      <trkpt lat="45.88026" lon="4.63342">
        <ele>209.58987</ele>
        <time>2023-12-07T14:59:17.000Z</time>
      </trkpt>
      <trkpt lat="45.88021" lon="4.63347">
        <ele>209.60782</ele>
        <time>2023-12-07T14:59:18.000Z</time>
      </trkpt>
      <trkpt lat="45.88016" lon="4.63351">
        <ele>209.629</ele>
        <time>2023-12-07T14:59:19.000Z</time>
      </trkpt>
      <trkpt lat="45.88009" lon="4.63353">
        <ele>209.68979</ele>
        <time>2023-12-07T14:59:20.000Z</time>
      </trkpt>
      <trkpt lat="45.88004" lon="4.63356">
        <ele>209.69499</ele>
        <time>2023-12-07T14:59:21.000Z</time>
      </trkpt>
      <trkpt lat="45.87998" lon="4.63358">
        <ele>209.76099</ele>
        <time>2023-12-07T14:59:22.000Z</time>
      </trkpt>
      <trkpt lat="45.87992" lon="4.6336">
        <ele>209.81453</ele>
        <time>2023-12-07T14:59:23.000Z</time>
      </trkpt>
      <trkpt lat="45.87987" lon="4.63361">
        <ele>209.85332</ele>
        <time>2023-12-07T14:59:24.000Z</time>
      </trkpt>
      <trkpt lat="45.87981" lon="4.63363">
        <ele>209.85002</ele>
        <time>2023-12-07T14:59:25.000Z</time>
      </trkpt>
      <trkpt lat="45.87975" lon="4.63366">
        <ele>209.83464</ele>
        <time>2023-12-07T14:59:26.000Z</time>
      </trkpt>
      <trkpt lat="45.87969" lon="4.63367">
        <ele>209.79402</ele>
        <time>2023-12-07T14:59:27.000Z</time>
      </trkpt>
      <trkpt lat="45.87963" lon="4.63368">
        <ele>209.72244</ele>
        <time>2023-12-07T14:59:28.000Z</time>
      </trkpt>
      <trkpt lat="45.87958" lon="4.6337">
        <ele>209.74971</ele>
        <time>2023-12-07T14:59:29.000Z</time>
      </trkpt>
      <trkpt lat="45.87952" lon="4.63372">
        <ele>209.71909</ele>
        <time>2023-12-07T14:59:30.000Z</time>
      </trkpt>
      <trkpt lat="45.87947" lon="4.63375">
        <ele>209.69714</ele>
        <time>2023-12-07T14:59:31.000Z</time>
      </trkpt>
      <trkpt lat="45.87942" lon="4.63377">
        <ele>209.69897</ele>
        <time>2023-12-07T14:59:32.000Z</time>
      </trkpt>
      <trkpt lat="45.87935" lon="4.63378">
        <ele>209.69405</ele>
        <time>2023-12-07T14:59:33.000Z</time>
      </trkpt>
      <trkpt lat="45.8793" lon="4.63379">
        <ele>209.64633</ele>
        <time>2023-12-07T14:59:34.000Z</time>
      </trkpt>
      <trkpt lat="45.87925" lon="4.63381">
        <ele>209.56758</ele>
        <time>2023-12-07T14:59:35.000Z</time>
      </trkpt>
      <trkpt lat="45.87919" lon="4.63383">
        <ele>209.4731</ele>
        <time>2023-12-07T14:59:36.000Z</time>
      </trkpt>
      <trkpt lat="45.87914" lon="4.63385">
        <ele>209.39261</ele>
        <time>2023-12-07T14:59:37.000Z</time>
      </trkpt>
      <trkpt lat="45.87908" lon="4.63387">
        <ele>209.36284</ele>
        <time>2023-12-07T14:59:38.000Z</time>
      </trkpt>
      <trkpt lat="45.87903" lon="4.6339">
        <ele>209.33951</ele>
        <time>2023-12-07T14:59:39.000Z</time>
      </trkpt>
      <trkpt lat="45.87898" lon="4.63391">
        <ele>209.30875</ele>
        <time>2023-12-07T14:59:40.000Z</time>
      </trkpt>
      <trkpt lat="45.87893" lon="4.63394">
        <ele>209.38289</ele>
        <time>2023-12-07T14:59:41.000Z</time>
      </trkpt>
      <trkpt lat="45.87888" lon="4.63395">
        <ele>209.43115</ele>
        <time>2023-12-07T14:59:42.000Z</time>
      </trkpt>
      <trkpt lat="45.87883" lon="4.63397">
        <ele>209.49918</ele>
        <time>2023-12-07T14:59:43.000Z</time>
      </trkpt>
      <trkpt lat="45.87878" lon="4.634">
        <ele>209.50809</ele>
        <time>2023-12-07T14:59:44.000Z</time>
      </trkpt>
      <trkpt lat="45.87873" lon="4.63403">
        <ele>209.53488</ele>
        <time>2023-12-07T14:59:45.000Z</time>
      </trkpt>
      <trkpt lat="45.87868" lon="4.63405">
        <ele>209.57747</ele>
        <time>2023-12-07T14:59:46.000Z</time>
      </trkpt>
      <trkpt lat="45.87863" lon="4.63408">
        <ele>209.59671</ele>
        <time>2023-12-07T14:59:47.000Z</time>
      </trkpt>
      <trkpt lat="45.87858" lon="4.6341">
        <ele>209.62544</ele>
        <time>2023-12-07T14:59:48.000Z</time>
      </trkpt>
      <trkpt lat="45.87852" lon="4.63413">
        <ele>209.61809</ele>
        <time>2023-12-07T14:59:49.000Z</time>
      </trkpt>
      <trkpt lat="45.87847" lon="4.63417">
        <ele>209.6301</ele>
        <time>2023-12-07T14:59:50.000Z</time>
      </trkpt>
      <trkpt lat="45.87842" lon="4.6342">
        <ele>209.6326</ele>
        <time>2023-12-07T14:59:51.000Z</time>
      </trkpt>
      <trkpt lat="45.87838" lon="4.63423">
        <ele>209.61609</ele>
        <time>2023-12-07T14:59:52.000Z</time>
      </trkpt>
      <trkpt lat="45.87834" lon="4.63425">
        <ele>209.59579</ele>
        <time>2023-12-07T14:59:53.000Z</time>
      </trkpt>
      <trkpt lat="45.8783" lon="4.63428">
        <ele>209.54988</ele>
        <time>2023-12-07T14:59:54.000Z</time>
      </trkpt>
      <trkpt lat="45.87827" lon="4.63429">
        <ele>209.55624</ele>
        <time>2023-12-07T14:59:55.000Z</time>
      </trkpt>
      <trkpt lat="45.87825" lon="4.63431">
        <ele>209.57077</ele>
        <time>2023-12-07T14:59:56.000Z</time>
      </trkpt>
      <trkpt lat="45.87822" lon="4.63433">
        <ele>209.56633</ele>
        <time>2023-12-07T14:59:57.000Z</time>
      </trkpt>
      <trkpt lat="45.87823" lon="4.63437">
        <ele>209.58151</ele>
        <time>2023-12-07T15:00:00.000Z</time>
      </trkpt>
      <trkpt lat="45.87822" lon="4.63434">
        <ele>209.68921</ele>
        <time>2023-12-07T15:00:06.000Z</time>
      </trkpt>
      <trkpt lat="45.87821" lon="4.63431">
        <ele>209.81868</ele>
        <time>2023-12-07T15:00:09.000Z</time>
      </trkpt>
      <trkpt lat="45.87819" lon="4.63432">
        <ele>209.91353</ele>
        <time>2023-12-07T15:00:17.000Z</time>
      </trkpt>
      <trkpt lat="45.87816" lon="4.63433">
        <ele>209.98096</ele>
        <time>2023-12-07T15:00:19.000Z</time>
      </trkpt>
      <trkpt lat="45.87814" lon="4.63434">
        <ele>210.03732</ele>
        <time>2023-12-07T15:00:20.000Z</time>
      </trkpt>
      <trkpt lat="45.87811" lon="4.63434">
        <ele>210.15994</ele>
        <time>2023-12-07T15:00:21.000Z</time>
      </trkpt>
      <trkpt lat="45.87809" lon="4.63435">
        <ele>210.27356</ele>
        <time>2023-12-07T15:00:22.000Z</time>
      </trkpt>
      <trkpt lat="45.87806" lon="4.63436">
        <ele>210.36157</ele>
        <time>2023-12-07T15:00:23.000Z</time>
      </trkpt>
      <trkpt lat="45.87803" lon="4.63438">
        <ele>210.47466</ele>
        <time>2023-12-07T15:00:24.000Z</time>
      </trkpt>
      <trkpt lat="45.878" lon="4.6344">
        <ele>210.61389</ele>
        <time>2023-12-07T15:00:25.000Z</time>
      </trkpt>
      <trkpt lat="45.87797" lon="4.63442">
        <ele>210.80928</ele>
        <time>2023-12-07T15:00:26.000Z</time>
      </trkpt>
      <trkpt lat="45.87794" lon="4.63446">
        <ele>211.00476</ele>
        <time>2023-12-07T15:00:27.000Z</time>
      </trkpt>
      <trkpt lat="45.87792" lon="4.6345">
        <ele>211.19946</ele>
        <time>2023-12-07T15:00:28.000Z</time>
      </trkpt>
      <trkpt lat="45.87788" lon="4.63457">
        <ele>211.33609</ele>
        <time>2023-12-07T15:00:29.000Z</time>
      </trkpt>
      <trkpt lat="45.87786" lon="4.63463">
        <ele>211.49573</ele>
        <time>2023-12-07T15:00:30.000Z</time>
      </trkpt>
      <trkpt lat="45.87784" lon="4.63469">
        <ele>211.54167</ele>
        <time>2023-12-07T15:00:31.000Z</time>
      </trkpt>
      <trkpt lat="45.87782" lon="4.63475">
        <ele>211.63217</ele>
        <time>2023-12-07T15:00:32.000Z</time>
      </trkpt>
      <trkpt lat="45.8778" lon="4.63481">
        <ele>211.74731</ele>
        <time>2023-12-07T15:00:33.000Z</time>
      </trkpt>
      <trkpt lat="45.87777" lon="4.63488">
        <ele>211.86502</ele>
        <time>2023-12-07T15:00:34.000Z</time>
      </trkpt>
      <trkpt lat="45.87773" lon="4.63494">
        <ele>211.94241</ele>
        <time>2023-12-07T15:00:35.000Z</time>
      </trkpt>
      <trkpt lat="45.8777" lon="4.635">
        <ele>211.96504</ele>
        <time>2023-12-07T15:00:36.000Z</time>
      </trkpt>
      <trkpt lat="45.87767" lon="4.63506">
        <ele>211.97205</ele>
        <time>2023-12-07T15:00:37.000Z</time>
      </trkpt>
      <trkpt lat="45.87764" lon="4.63513">
        <ele>211.95828</ele>
        <time>2023-12-07T15:00:38.000Z</time>
      </trkpt>
      <trkpt lat="45.87761" lon="4.63518">
        <ele>211.98328</ele>
        <time>2023-12-07T15:00:39.000Z</time>
      </trkpt>
      <trkpt lat="45.87757" lon="4.63524">
        <ele>211.99727</ele>
        <time>2023-12-07T15:00:40.000Z</time>
      </trkpt>
      <trkpt lat="45.87755" lon="4.6353">
        <ele>212.03679</ele>
        <time>2023-12-07T15:00:41.000Z</time>
      </trkpt>
      <trkpt lat="45.87751" lon="4.63537">
        <ele>212.03043</ele>
        <time>2023-12-07T15:00:42.000Z</time>
      </trkpt>
      <trkpt lat="45.87747" lon="4.63545">
        <ele>212.00778</ele>
        <time>2023-12-07T15:00:43.000Z</time>
      </trkpt>
      <trkpt lat="45.87746" lon="4.63551">
        <ele>211.99881</ele>
        <time>2023-12-07T15:00:44.000Z</time>
      </trkpt>
      <trkpt lat="45.87742" lon="4.63555">
        <ele>211.97717</ele>
        <time>2023-12-07T15:00:45.000Z</time>
      </trkpt>
      <trkpt lat="45.8774" lon="4.63559">
        <ele>211.9521</ele>
        <time>2023-12-07T15:00:46.000Z</time>
      </trkpt>
      <trkpt lat="45.8774" lon="4.63566">
        <ele>211.94638</ele>
        <time>2023-12-07T15:00:47.000Z</time>
      </trkpt>
      <trkpt lat="45.87739" lon="4.63571">
        <ele>211.96497</ele>
        <time>2023-12-07T15:00:48.000Z</time>
      </trkpt>
      <trkpt lat="45.87738" lon="4.63576">
        <ele>211.99084</ele>
        <time>2023-12-07T15:00:49.000Z</time>
      </trkpt>
      <trkpt lat="45.87735" lon="4.63582">
        <ele>212.03946</ele>
        <time>2023-12-07T15:00:50.000Z</time>
      </trkpt>
      <trkpt lat="45.87732" lon="4.63585">
        <ele>212.22478</ele>
        <time>2023-12-07T15:00:51.000Z</time>
      </trkpt>
      <trkpt lat="45.87729" lon="4.6359">
        <ele>212.34766</ele>
        <time>2023-12-07T15:00:52.000Z</time>
      </trkpt>
      <trkpt lat="45.87725" lon="4.63596">
        <ele>212.41687</ele>
        <time>2023-12-07T15:00:53.000Z</time>
      </trkpt>
      <trkpt lat="45.87723" lon="4.63602">
        <ele>212.48343</ele>
        <time>2023-12-07T15:00:54.000Z</time>
      </trkpt>
      <trkpt lat="45.87721" lon="4.63609">
        <ele>212.51297</ele>
        <time>2023-12-07T15:00:55.000Z</time>
      </trkpt>
      <trkpt lat="45.87717" lon="4.63614">
        <ele>212.50545</ele>
        <time>2023-12-07T15:00:56.000Z</time>
      </trkpt>
      <trkpt lat="45.87716" lon="4.63622">
        <ele>212.51309</ele>
        <time>2023-12-07T15:00:57.000Z</time>
      </trkpt>
      <trkpt lat="45.87711" lon="4.63629">
        <ele>212.57503</ele>
        <time>2023-12-07T15:00:58.000Z</time>
      </trkpt>
      <trkpt lat="45.87708" lon="4.63635">
        <ele>212.62961</ele>
        <time>2023-12-07T15:00:59.000Z</time>
      </trkpt>
      <trkpt lat="45.87705" lon="4.63641">
        <ele>212.70435</ele>
        <time>2023-12-07T15:01:00.000Z</time>
      </trkpt>
      <trkpt lat="45.87703" lon="4.63646">
        <ele>212.76376</ele>
        <time>2023-12-07T15:01:01.000Z</time>
      </trkpt>
      <trkpt lat="45.87699" lon="4.6365">
        <ele>212.85286</ele>
        <time>2023-12-07T15:01:02.000Z</time>
      </trkpt>
      <trkpt lat="45.87694" lon="4.63652">
        <ele>212.95393</ele>
        <time>2023-12-07T15:01:03.000Z</time>
      </trkpt>
      <trkpt lat="45.87692" lon="4.63656">
        <ele>213.05017</ele>
        <time>2023-12-07T15:01:04.000Z</time>
      </trkpt>
      <trkpt lat="45.87687" lon="4.6366">
        <ele>213.15286</ele>
        <time>2023-12-07T15:01:05.000Z</time>
      </trkpt>
      <trkpt lat="45.87685" lon="4.63663">
        <ele>213.19931</ele>
        <time>2023-12-07T15:01:06.000Z</time>
      </trkpt>
      <trkpt lat="45.87681" lon="4.63665">
        <ele>213.18295</ele>
        <time>2023-12-07T15:01:07.000Z</time>
      </trkpt>
      <trkpt lat="45.87679" lon="4.63668">
        <ele>213.16006</ele>
        <time>2023-12-07T15:01:08.000Z</time>
      </trkpt>
      <trkpt lat="45.87675" lon="4.63671">
        <ele>213.19003</ele>
        <time>2023-12-07T15:01:09.000Z</time>
      </trkpt>
      <trkpt lat="45.87673" lon="4.63673">
        <ele>213.20316</ele>
        <time>2023-12-07T15:01:10.000Z</time>
      </trkpt>
      <trkpt lat="45.87668" lon="4.63677">
        <ele>213.21371</ele>
        <time>2023-12-07T15:01:11.000Z</time>
      </trkpt>
      <trkpt lat="45.87663" lon="4.63682">
        <ele>213.19283</ele>
        <time>2023-12-07T15:01:12.000Z</time>
      </trkpt>
      <trkpt lat="45.8766" lon="4.63687">
        <ele>213.21216</ele>
        <time>2023-12-07T15:01:13.000Z</time>
      </trkpt>
      <trkpt lat="45.87654" lon="4.63692">
        <ele>213.20293</ele>
        <time>2023-12-07T15:01:14.000Z</time>
      </trkpt>
      <trkpt lat="45.87649" lon="4.63694">
        <ele>213.16757</ele>
        <time>2023-12-07T15:01:15.000Z</time>
      </trkpt>
      <trkpt lat="45.87642" lon="4.63698">
        <ele>213.1348</ele>
        <time>2023-12-07T15:01:16.000Z</time>
      </trkpt>
      <trkpt lat="45.87637" lon="4.63702">
        <ele>213.14029</ele>
        <time>2023-12-07T15:01:17.000Z</time>
      </trkpt>
      <trkpt lat="45.87631" lon="4.63703">
        <ele>213.11601</ele>
        <time>2023-12-07T15:01:18.000Z</time>
      </trkpt>
      <trkpt lat="45.87624" lon="4.63704">
        <ele>213.00749</ele>
        <time>2023-12-07T15:01:19.000Z</time>
      </trkpt>
      <trkpt lat="45.87618" lon="4.63705">
        <ele>212.856</ele>
        <time>2023-12-07T15:01:20.000Z</time>
      </trkpt>
      <trkpt lat="45.87614" lon="4.63707">
        <ele>212.67944</ele>
        <time>2023-12-07T15:01:21.000Z</time>
      </trkpt>
      <trkpt lat="45.87612" lon="4.63707">
        <ele>212.56689</ele>
        <time>2023-12-07T15:01:22.000Z</time>
      </trkpt>
      <trkpt lat="45.87605" lon="4.63711">
        <ele>212.48132</ele>
        <time>2023-12-07T15:01:23.000Z</time>
      </trkpt>
      <trkpt lat="45.876" lon="4.63712">
        <ele>212.35049</ele>
        <time>2023-12-07T15:01:24.000Z</time>
      </trkpt>
      <trkpt lat="45.87595" lon="4.63714">
        <ele>212.22684</ele>
        <time>2023-12-07T15:01:25.000Z</time>
      </trkpt>
      <trkpt lat="45.87591" lon="4.63716">
        <ele>212.17932</ele>
        <time>2023-12-07T15:01:26.000Z</time>
      </trkpt>
      <trkpt lat="45.87588" lon="4.63716">
        <ele>212.19034</ele>
        <time>2023-12-07T15:01:27.000Z</time>
      </trkpt>
      <trkpt lat="45.87582" lon="4.6372">
        <ele>212.2002</ele>
        <time>2023-12-07T15:01:28.000Z</time>
      </trkpt>
      <trkpt lat="45.87577" lon="4.63722">
        <ele>212.1019</ele>
        <time>2023-12-07T15:01:29.000Z</time>
      </trkpt>
      <trkpt lat="45.87574" lon="4.63726">
        <ele>212.02144</ele>
        <time>2023-12-07T15:01:30.000Z</time>
      </trkpt>
      <trkpt lat="45.87567" lon="4.6373">
        <ele>211.87415</ele>
        <time>2023-12-07T15:01:31.000Z</time>
      </trkpt>
      <trkpt lat="45.87562" lon="4.63734">
        <ele>211.83902</ele>
        <time>2023-12-07T15:01:32.000Z</time>
      </trkpt>
      <trkpt lat="45.87555" lon="4.63738">
        <ele>211.73784</ele>
        <time>2023-12-07T15:01:33.000Z</time>
      </trkpt>
      <trkpt lat="45.87551" lon="4.63739">
        <ele>211.71941</ele>
        <time>2023-12-07T15:01:34.000Z</time>
      </trkpt>
      <trkpt lat="45.87546" lon="4.63743">
        <ele>211.73022</ele>
        <time>2023-12-07T15:01:35.000Z</time>
      </trkpt>
      <trkpt lat="45.87541" lon="4.63746">
        <ele>211.75642</ele>
        <time>2023-12-07T15:01:36.000Z</time>
      </trkpt>
      <trkpt lat="45.87535" lon="4.63749">
        <ele>211.55225</ele>
        <time>2023-12-07T15:01:37.000Z</time>
      </trkpt>
      <trkpt lat="45.8753" lon="4.63751">
        <ele>211.3179</ele>
        <time>2023-12-07T15:01:38.000Z</time>
      </trkpt>
      <trkpt lat="45.87525" lon="4.63756">
        <ele>211.13266</ele>
        <time>2023-12-07T15:01:39.000Z</time>
      </trkpt>
      <trkpt lat="45.87519" lon="4.63759">
        <ele>210.92082</ele>
        <time>2023-12-07T15:01:40.000Z</time>
      </trkpt>
      <trkpt lat="45.87515" lon="4.63763">
        <ele>210.673</ele>
        <time>2023-12-07T15:01:41.000Z</time>
      </trkpt>
      <trkpt lat="45.87512" lon="4.63769">
        <ele>210.43494</ele>
        <time>2023-12-07T15:01:42.000Z</time>
      </trkpt>
      <trkpt lat="45.87508" lon="4.63775">
        <ele>210.16931</ele>
        <time>2023-12-07T15:01:43.000Z</time>
      </trkpt>
      <trkpt lat="45.87504" lon="4.63781">
        <ele>209.92326</ele>
        <time>2023-12-07T15:01:44.000Z</time>
      </trkpt>
      <trkpt lat="45.875" lon="4.63788">
        <ele>209.60274</ele>
        <time>2023-12-07T15:01:45.000Z</time>
      </trkpt>
      <trkpt lat="45.87496" lon="4.63793">
        <ele>209.2417</ele>
        <time>2023-12-07T15:01:46.000Z</time>
      </trkpt>
      <trkpt lat="45.87492" lon="4.63801">
        <ele>208.87033</ele>
        <time>2023-12-07T15:01:47.000Z</time>
      </trkpt>
      <trkpt lat="45.87489" lon="4.63807">
        <ele>208.50591</ele>
        <time>2023-12-07T15:01:48.000Z</time>
      </trkpt>
      <trkpt lat="45.87485" lon="4.63816">
        <ele>208.31238</ele>
        <time>2023-12-07T15:01:49.000Z</time>
      </trkpt>
      <trkpt lat="45.8748" lon="4.63822">
        <ele>208.14865</ele>
        <time>2023-12-07T15:01:50.000Z</time>
      </trkpt>
      <trkpt lat="45.87477" lon="4.63827">
        <ele>207.89816</ele>
        <time>2023-12-07T15:01:51.000Z</time>
      </trkpt>
      <trkpt lat="45.87474" lon="4.63831">
        <ele>207.61015</ele>
        <time>2023-12-07T15:01:52.000Z</time>
      </trkpt>
      <trkpt lat="45.87471" lon="4.63838">
        <ele>208.15547</ele>
        <time>2023-12-07T15:01:53.000Z</time>
      </trkpt>
      <trkpt lat="45.87467" lon="4.63844">
        <ele>208.64346</ele>
        <time>2023-12-07T15:01:54.000Z</time>
      </trkpt>
      <trkpt lat="45.87462" lon="4.63851">
        <ele>209.15958</ele>
        <time>2023-12-07T15:01:55.000Z</time>
      </trkpt>
      <trkpt lat="45.87459" lon="4.63858">
        <ele>209.66455</ele>
        <time>2023-12-07T15:01:56.000Z</time>
      </trkpt>
      <trkpt lat="45.87455" lon="4.63864">
        <ele>210.34892</ele>
        <time>2023-12-07T15:01:57.000Z</time>
      </trkpt>
      <trkpt lat="45.87452" lon="4.6387">
        <ele>211.17502</ele>
        <time>2023-12-07T15:01:58.000Z</time>
      </trkpt>
      <trkpt lat="45.87449" lon="4.63878">
        <ele>212.04318</ele>
        <time>2023-12-07T15:01:59.000Z</time>
      </trkpt>
      <trkpt lat="45.87446" lon="4.63884">
        <ele>212.88933</ele>
        <time>2023-12-07T15:02:00.000Z</time>
      </trkpt>
      <trkpt lat="45.87444" lon="4.63889">
        <ele>213.32297</ele>
        <time>2023-12-07T15:02:01.000Z</time>
      </trkpt>
      <trkpt lat="45.87441" lon="4.63894">
        <ele>213.79752</ele>
        <time>2023-12-07T15:02:02.000Z</time>
      </trkpt>
      <trkpt lat="45.87437" lon="4.63899">
        <ele>214.43745</ele>
        <time>2023-12-07T15:02:03.000Z</time>
      </trkpt>
      <trkpt lat="45.87433" lon="4.63905">
        <ele>215.00998</ele>
        <time>2023-12-07T15:02:04.000Z</time>
      </trkpt>
      <trkpt lat="45.87429" lon="4.63909">
        <ele>215.62529</ele>
        <time>2023-12-07T15:02:05.000Z</time>
      </trkpt>
      <trkpt lat="45.87424" lon="4.63914">
        <ele>216.34241</ele>
        <time>2023-12-07T15:02:06.000Z</time>
      </trkpt>
      <trkpt lat="45.8742" lon="4.63919">
        <ele>217.05757</ele>
        <time>2023-12-07T15:02:07.000Z</time>
      </trkpt>
      <trkpt lat="45.87416" lon="4.63924">
        <ele>217.76956</ele>
        <time>2023-12-07T15:02:08.000Z</time>
      </trkpt>
      <trkpt lat="45.87411" lon="4.63928">
        <ele>218.06177</ele>
        <time>2023-12-07T15:02:09.000Z</time>
      </trkpt>
      <trkpt lat="45.87407" lon="4.63932">
        <ele>218.36975</ele>
        <time>2023-12-07T15:02:10.000Z</time>
      </trkpt>
      <trkpt lat="45.87402" lon="4.63936">
        <ele>218.85303</ele>
        <time>2023-12-07T15:02:11.000Z</time>
      </trkpt>
      <trkpt lat="45.87398" lon="4.63941">
        <ele>219.28781</ele>
        <time>2023-12-07T15:02:12.000Z</time>
      </trkpt>
      <trkpt lat="45.87394" lon="4.63945">
        <ele>218.96512</ele>
        <time>2023-12-07T15:02:13.000Z</time>
      </trkpt>
      <trkpt lat="45.87389" lon="4.6395">
        <ele>218.6152</ele>
        <time>2023-12-07T15:02:14.000Z</time>
      </trkpt>
      <trkpt lat="45.87386" lon="4.63953">
        <ele>218.38481</ele>
        <time>2023-12-07T15:02:15.000Z</time>
      </trkpt>
      <trkpt lat="45.87382" lon="4.63958">
        <ele>218.24614</ele>
        <time>2023-12-07T15:02:16.000Z</time>
      </trkpt>
      <trkpt lat="45.87379" lon="4.63962">
        <ele>218.18135</ele>
        <time>2023-12-07T15:02:17.000Z</time>
      </trkpt>
      <trkpt lat="45.87375" lon="4.63965">
        <ele>217.55424</ele>
        <time>2023-12-07T15:02:18.000Z</time>
      </trkpt>
      <trkpt lat="45.87371" lon="4.63969">
        <ele>216.93701</ele>
        <time>2023-12-07T15:02:19.000Z</time>
      </trkpt>
      <trkpt lat="45.87367" lon="4.63973">
        <ele>216.42627</ele>
        <time>2023-12-07T15:02:20.000Z</time>
      </trkpt>
      <trkpt lat="45.87364" lon="4.63978">
        <ele>216.34619</ele>
        <time>2023-12-07T15:02:21.000Z</time>
      </trkpt>
      <trkpt lat="45.8736" lon="4.63984">
        <ele>216.20175</ele>
        <time>2023-12-07T15:02:22.000Z</time>
      </trkpt>
      <trkpt lat="45.87357" lon="4.6399">
        <ele>215.91891</ele>
        <time>2023-12-07T15:02:23.000Z</time>
      </trkpt>
      <trkpt lat="45.87354" lon="4.63995">
        <ele>215.67664</ele>
        <time>2023-12-07T15:02:24.000Z</time>
      </trkpt>
      <trkpt lat="45.87351" lon="4.64001">
        <ele>215.4425</ele>
        <time>2023-12-07T15:02:25.000Z</time>
      </trkpt>
      <trkpt lat="45.87348" lon="4.64008">
        <ele>215.28069</ele>
        <time>2023-12-07T15:02:26.000Z</time>
      </trkpt>
      <trkpt lat="45.87345" lon="4.64015">
        <ele>215.11063</ele>
        <time>2023-12-07T15:02:27.000Z</time>
      </trkpt>
      <trkpt lat="45.87343" lon="4.64021">
        <ele>214.9205</ele>
        <time>2023-12-07T15:02:28.000Z</time>
      </trkpt>
      <trkpt lat="45.87341" lon="4.64028">
        <ele>215.10498</ele>
        <time>2023-12-07T15:02:29.000Z</time>
      </trkpt>
      <trkpt lat="45.87339" lon="4.64034">
        <ele>215.20454</ele>
        <time>2023-12-07T15:02:30.000Z</time>
      </trkpt>
      <trkpt lat="45.87338" lon="4.64041">
        <ele>215.27519</ele>
        <time>2023-12-07T15:02:31.000Z</time>
      </trkpt>
      <trkpt lat="45.87338" lon="4.64049">
        <ele>215.35779</ele>
        <time>2023-12-07T15:02:32.000Z</time>
      </trkpt>
      <trkpt lat="45.87337" lon="4.64056">
        <ele>215.48337</ele>
        <time>2023-12-07T15:02:33.000Z</time>
      </trkpt>
      <trkpt lat="45.87339" lon="4.64065">
        <ele>215.63261</ele>
        <time>2023-12-07T15:02:34.000Z</time>
      </trkpt>
      <trkpt lat="45.8734" lon="4.64071">
        <ele>215.73784</ele>
        <time>2023-12-07T15:02:35.000Z</time>
      </trkpt>
      <trkpt lat="45.87341" lon="4.64077">
        <ele>215.75415</ele>
        <time>2023-12-07T15:02:36.000Z</time>
      </trkpt>
      <trkpt lat="45.87342" lon="4.64083">
        <ele>215.29839</ele>
        <time>2023-12-07T15:02:37.000Z</time>
      </trkpt>
      <trkpt lat="45.87343" lon="4.6409">
        <ele>215.35828</ele>
        <time>2023-12-07T15:02:38.000Z</time>
      </trkpt>
      <trkpt lat="45.87345" lon="4.64095">
        <ele>215.40189</ele>
        <time>2023-12-07T15:02:39.000Z</time>
      </trkpt>
      <trkpt lat="45.87345" lon="4.64101">
        <ele>215.43513</ele>
        <time>2023-12-07T15:02:40.000Z</time>
      </trkpt>
      <trkpt lat="45.87346" lon="4.64106">
        <ele>215.4948</ele>
        <time>2023-12-07T15:02:41.000Z</time>
      </trkpt>
      <trkpt lat="45.87347" lon="4.64112">
        <ele>215.52295</ele>
        <time>2023-12-07T15:02:42.000Z</time>
      </trkpt>
      <trkpt lat="45.87347" lon="4.64119">
        <ele>215.52434</ele>
        <time>2023-12-07T15:02:43.000Z</time>
      </trkpt>
      <trkpt lat="45.87349" lon="4.64124">
        <ele>215.58447</ele>
        <time>2023-12-07T15:02:44.000Z</time>
      </trkpt>
      <trkpt lat="45.87349" lon="4.6413">
        <ele>215.67815</ele>
        <time>2023-12-07T15:02:45.000Z</time>
      </trkpt>
      <trkpt lat="45.87351" lon="4.64136">
        <ele>215.58687</ele>
        <time>2023-12-07T15:02:46.000Z</time>
      </trkpt>
      <trkpt lat="45.87351" lon="4.64142">
        <ele>215.51128</ele>
        <time>2023-12-07T15:02:47.000Z</time>
      </trkpt>
      <trkpt lat="45.87352" lon="4.64149">
        <ele>215.68388</ele>
        <time>2023-12-07T15:02:48.000Z</time>
      </trkpt>
      <trkpt lat="45.87351" lon="4.64155">
        <ele>215.89807</ele>
        <time>2023-12-07T15:02:49.000Z</time>
      </trkpt>
      <trkpt lat="45.87349" lon="4.64162">
        <ele>216.1882</ele>
        <time>2023-12-07T15:02:50.000Z</time>
      </trkpt>
      <trkpt lat="45.87347" lon="4.64167">
        <ele>216.06831</ele>
        <time>2023-12-07T15:02:51.000Z</time>
      </trkpt>
      <trkpt lat="45.87345" lon="4.64174">
        <ele>216.02718</ele>
        <time>2023-12-07T15:02:52.000Z</time>
      </trkpt>
      <trkpt lat="45.87344" lon="4.64179">
        <ele>215.90315</ele>
        <time>2023-12-07T15:02:53.000Z</time>
      </trkpt>
      <trkpt lat="45.87343" lon="4.64184">
        <ele>215.82024</ele>
        <time>2023-12-07T15:02:54.000Z</time>
      </trkpt>
      <trkpt lat="45.87345" lon="4.64191">
        <ele>215.61824</ele>
        <time>2023-12-07T15:02:55.000Z</time>
      </trkpt>
      <trkpt lat="45.87347" lon="4.64196">
        <ele>215.38701</ele>
        <time>2023-12-07T15:02:56.000Z</time>
      </trkpt>
      <trkpt lat="45.87347" lon="4.64204">
        <ele>215.58737</ele>
        <time>2023-12-07T15:02:57.000Z</time>
      </trkpt>
      <trkpt lat="45.87349" lon="4.64209">
        <ele>215.66777</ele>
        <time>2023-12-07T15:02:58.000Z</time>
      </trkpt>
      <trkpt lat="45.87349" lon="4.64217">
        <ele>215.72327</ele>
        <time>2023-12-07T15:02:59.000Z</time>
      </trkpt>
      <trkpt lat="45.87351" lon="4.64224">
        <ele>215.76897</ele>
        <time>2023-12-07T15:03:00.000Z</time>
      </trkpt>
      <trkpt lat="45.87353" lon="4.64231">
        <ele>215.82169</ele>
        <time>2023-12-07T15:03:01.000Z</time>
      </trkpt>
      <trkpt lat="45.87354" lon="4.64237">
        <ele>215.8573</ele>
        <time>2023-12-07T15:03:02.000Z</time>
      </trkpt>
      <trkpt lat="45.87355" lon="4.64245">
        <ele>215.9041</ele>
        <time>2023-12-07T15:03:03.000Z</time>
      </trkpt>
      <trkpt lat="45.87357" lon="4.64252">
        <ele>215.91035</ele>
        <time>2023-12-07T15:03:04.000Z</time>
      </trkpt>
      <trkpt lat="45.87358" lon="4.6426">
        <ele>215.89815</ele>
        <time>2023-12-07T15:03:05.000Z</time>
      </trkpt>
      <trkpt lat="45.8736" lon="4.64268">
        <ele>215.91109</ele>
        <time>2023-12-07T15:03:06.000Z</time>
      </trkpt>
      <trkpt lat="45.87361" lon="4.64275">
        <ele>215.85979</ele>
        <time>2023-12-07T15:03:07.000Z</time>
      </trkpt>
      <trkpt lat="45.87363" lon="4.64282">
        <ele>215.58005</ele>
        <time>2023-12-07T15:03:08.000Z</time>
      </trkpt>
      <trkpt lat="45.87365" lon="4.64288">
        <ele>215.25285</ele>
        <time>2023-12-07T15:03:09.000Z</time>
      </trkpt>
      <trkpt lat="45.87366" lon="4.64295">
        <ele>214.81071</ele>
        <time>2023-12-07T15:03:10.000Z</time>
      </trkpt>
      <trkpt lat="45.87368" lon="4.64302">
        <ele>214.80078</ele>
        <time>2023-12-07T15:03:11.000Z</time>
      </trkpt>
      <trkpt lat="45.87369" lon="4.64309">
        <ele>214.69382</ele>
        <time>2023-12-07T15:03:12.000Z</time>
      </trkpt>
      <trkpt lat="45.8737" lon="4.64316">
        <ele>214.58945</ele>
        <time>2023-12-07T15:03:13.000Z</time>
      </trkpt>
      <trkpt lat="45.87371" lon="4.64322">
        <ele>214.46936</ele>
        <time>2023-12-07T15:03:14.000Z</time>
      </trkpt>
      <trkpt lat="45.87373" lon="4.64329">
        <ele>214.37129</ele>
        <time>2023-12-07T15:03:15.000Z</time>
      </trkpt>
      <trkpt lat="45.87371" lon="4.64336">
        <ele>214.31323</ele>
        <time>2023-12-07T15:03:16.000Z</time>
      </trkpt>
      <trkpt lat="45.87369" lon="4.64342">
        <ele>214.21492</ele>
        <time>2023-12-07T15:03:17.000Z</time>
      </trkpt>
      <trkpt lat="45.87367" lon="4.64346">
        <ele>214.14116</ele>
        <time>2023-12-07T15:03:18.000Z</time>
      </trkpt>
      <trkpt lat="45.87364" lon="4.64351">
        <ele>214.06404</ele>
        <time>2023-12-07T15:03:19.000Z</time>
      </trkpt>
      <trkpt lat="45.87361" lon="4.64356">
        <ele>214.00301</ele>
        <time>2023-12-07T15:03:20.000Z</time>
      </trkpt>
      <trkpt lat="45.87358" lon="4.64361">
        <ele>213.96049</ele>
        <time>2023-12-07T15:03:21.000Z</time>
      </trkpt>
      <trkpt lat="45.87354" lon="4.64366">
        <ele>213.93542</ele>
        <time>2023-12-07T15:03:22.000Z</time>
      </trkpt>
      <trkpt lat="45.8735" lon="4.6437">
        <ele>213.89114</ele>
        <time>2023-12-07T15:03:23.000Z</time>
      </trkpt>
      <trkpt lat="45.87346" lon="4.64374">
        <ele>213.88057</ele>
        <time>2023-12-07T15:03:24.000Z</time>
      </trkpt>
      <trkpt lat="45.87342" lon="4.64379">
        <ele>213.81966</ele>
        <time>2023-12-07T15:03:25.000Z</time>
      </trkpt>
      <trkpt lat="45.87336" lon="4.64382">
        <ele>213.77795</ele>
        <time>2023-12-07T15:03:26.000Z</time>
      </trkpt>
      <trkpt lat="45.87333" lon="4.64384">
        <ele>213.7603</ele>
        <time>2023-12-07T15:03:27.000Z</time>
      </trkpt>
      <trkpt lat="45.87328" lon="4.64388">
        <ele>213.7625</ele>
        <time>2023-12-07T15:03:28.000Z</time>
      </trkpt>
      <trkpt lat="45.87323" lon="4.64392">
        <ele>213.75713</ele>
        <time>2023-12-07T15:03:29.000Z</time>
      </trkpt>
      <trkpt lat="45.87318" lon="4.64398">
        <ele>213.79471</ele>
        <time>2023-12-07T15:03:30.000Z</time>
      </trkpt>
      <trkpt lat="45.87313" lon="4.64401">
        <ele>213.82767</ele>
        <time>2023-12-07T15:03:31.000Z</time>
      </trkpt>
      <trkpt lat="45.87308" lon="4.64406">
        <ele>213.87561</ele>
        <time>2023-12-07T15:03:32.000Z</time>
      </trkpt>
      <trkpt lat="45.87302" lon="4.64411">
        <ele>213.89038</ele>
        <time>2023-12-07T15:03:33.000Z</time>
      </trkpt>
      <trkpt lat="45.87298" lon="4.64414">
        <ele>213.90158</ele>
        <time>2023-12-07T15:03:34.000Z</time>
      </trkpt>
      <trkpt lat="45.87292" lon="4.64418">
        <ele>213.88359</ele>
        <time>2023-12-07T15:03:35.000Z</time>
      </trkpt>
      <trkpt lat="45.87287" lon="4.64422">
        <ele>213.86728</ele>
        <time>2023-12-07T15:03:36.000Z</time>
      </trkpt>
      <trkpt lat="45.87283" lon="4.64426">
        <ele>213.87761</ele>
        <time>2023-12-07T15:03:37.000Z</time>
      </trkpt>
      <trkpt lat="45.87279" lon="4.64429">
        <ele>213.89644</ele>
        <time>2023-12-07T15:03:38.000Z</time>
      </trkpt>
      <trkpt lat="45.87274" lon="4.64434">
        <ele>213.96768</ele>
        <time>2023-12-07T15:03:39.000Z</time>
      </trkpt>
      <trkpt lat="45.87269" lon="4.64438">
        <ele>214.02571</ele>
        <time>2023-12-07T15:03:40.000Z</time>
      </trkpt>
      <trkpt lat="45.87265" lon="4.64441">
        <ele>214.05069</ele>
        <time>2023-12-07T15:03:41.000Z</time>
      </trkpt>
      <trkpt lat="45.8726" lon="4.64445">
        <ele>214.07259</ele>
        <time>2023-12-07T15:03:42.000Z</time>
      </trkpt>
      <trkpt lat="45.87256" lon="4.64448">
        <ele>214.32047</ele>
        <time>2023-12-07T15:03:43.000Z</time>
      </trkpt>
      <trkpt lat="45.87252" lon="4.64451">
        <ele>214.54196</ele>
        <time>2023-12-07T15:03:44.000Z</time>
      </trkpt>
      <trkpt lat="45.87247" lon="4.64455">
        <ele>214.89299</ele>
        <time>2023-12-07T15:03:45.000Z</time>
      </trkpt>
      <trkpt lat="45.87243" lon="4.64459">
        <ele>215.2028</ele>
        <time>2023-12-07T15:03:46.000Z</time>
      </trkpt>
      <trkpt lat="45.87238" lon="4.64462">
        <ele>215.61658</ele>
        <time>2023-12-07T15:03:47.000Z</time>
      </trkpt>
      <trkpt lat="45.87234" lon="4.64467">
        <ele>216.04977</ele>
        <time>2023-12-07T15:03:48.000Z</time>
      </trkpt>
      <trkpt lat="45.8723" lon="4.64471">
        <ele>216.11113</ele>
        <time>2023-12-07T15:03:49.000Z</time>
      </trkpt>
      <trkpt lat="45.87226" lon="4.64475">
        <ele>216.21103</ele>
        <time>2023-12-07T15:03:50.000Z</time>
      </trkpt>
      <trkpt lat="45.87221" lon="4.64478">
        <ele>216.3063</ele>
        <time>2023-12-07T15:03:51.000Z</time>
      </trkpt>
      <trkpt lat="45.87217" lon="4.64481">
        <ele>216.4189</ele>
        <time>2023-12-07T15:03:52.000Z</time>
      </trkpt>
      <trkpt lat="45.87213" lon="4.64485">
        <ele>216.63394</ele>
        <time>2023-12-07T15:03:53.000Z</time>
      </trkpt>
      <trkpt lat="45.87209" lon="4.64487">
        <ele>216.85872</ele>
        <time>2023-12-07T15:03:54.000Z</time>
      </trkpt>
      <trkpt lat="45.87205" lon="4.6449">
        <ele>217.12125</ele>
        <time>2023-12-07T15:03:55.000Z</time>
      </trkpt>
      <trkpt lat="45.87202" lon="4.64491">
        <ele>217.39644</ele>
        <time>2023-12-07T15:03:56.000Z</time>
      </trkpt>
      <trkpt lat="45.87197" lon="4.64494">
        <ele>217.61064</ele>
        <time>2023-12-07T15:03:57.000Z</time>
      </trkpt>
      <trkpt lat="45.87194" lon="4.64498">
        <ele>217.8503</ele>
        <time>2023-12-07T15:03:58.000Z</time>
      </trkpt>
      <trkpt lat="45.87191" lon="4.64501">
        <ele>218.27261</ele>
        <time>2023-12-07T15:03:59.000Z</time>
      </trkpt>
      <trkpt lat="45.87187" lon="4.64503">
        <ele>218.71472</ele>
        <time>2023-12-07T15:04:00.000Z</time>
      </trkpt>
      <trkpt lat="45.87184" lon="4.64505">
        <ele>219.25461</ele>
        <time>2023-12-07T15:04:01.000Z</time>
      </trkpt>
      <trkpt lat="45.87181" lon="4.64508">
        <ele>219.45967</ele>
        <time>2023-12-07T15:04:02.000Z</time>
      </trkpt>
      <trkpt lat="45.87177" lon="4.64509">
        <ele>219.52023</ele>
        <time>2023-12-07T15:04:03.000Z</time>
      </trkpt>
      <trkpt lat="45.87174" lon="4.64511">
        <ele>219.60522</ele>
        <time>2023-12-07T15:04:04.000Z</time>
      </trkpt>
      <trkpt lat="45.87171" lon="4.64514">
        <ele>219.63</ele>
        <time>2023-12-07T15:04:05.000Z</time>
      </trkpt>
      <trkpt lat="45.87168" lon="4.64517">
        <ele>219.67575</ele>
        <time>2023-12-07T15:04:06.000Z</time>
      </trkpt>
      <trkpt lat="45.87165" lon="4.6452">
        <ele>219.65247</ele>
        <time>2023-12-07T15:04:07.000Z</time>
      </trkpt>
      <trkpt lat="45.87162" lon="4.64522">
        <ele>219.58459</ele>
        <time>2023-12-07T15:04:08.000Z</time>
      </trkpt>
      <trkpt lat="45.8716" lon="4.64524">
        <ele>219.8862</ele>
        <time>2023-12-07T15:04:09.000Z</time>
      </trkpt>
      <trkpt lat="45.87157" lon="4.64525">
        <ele>220.1788</ele>
        <time>2023-12-07T15:04:10.000Z</time>
      </trkpt>
      <trkpt lat="45.87154" lon="4.64527">
        <ele>220.48079</ele>
        <time>2023-12-07T15:04:11.000Z</time>
      </trkpt>
      <trkpt lat="45.8715" lon="4.64528">
        <ele>220.77579</ele>
        <time>2023-12-07T15:04:12.000Z</time>
      </trkpt>
      <trkpt lat="45.87147" lon="4.64529">
        <ele>221.01204</ele>
        <time>2023-12-07T15:04:13.000Z</time>
      </trkpt>
      <trkpt lat="45.87143" lon="4.6453">
        <ele>221.23941</ele>
        <time>2023-12-07T15:04:14.000Z</time>
      </trkpt>
      <trkpt lat="45.8714" lon="4.64531">
        <ele>221.45276</ele>
        <time>2023-12-07T15:04:15.000Z</time>
      </trkpt>
      <trkpt lat="45.87137" lon="4.64532">
        <ele>221.65286</ele>
        <time>2023-12-07T15:04:16.000Z</time>
      </trkpt>
      <trkpt lat="45.87133" lon="4.64533">
        <ele>221.89609</ele>
        <time>2023-12-07T15:04:17.000Z</time>
      </trkpt>
      <trkpt lat="45.8713" lon="4.64534">
        <ele>222.13164</ele>
        <time>2023-12-07T15:04:18.000Z</time>
      </trkpt>
      <trkpt lat="45.87127" lon="4.64534">
        <ele>222.15691</ele>
        <time>2023-12-07T15:04:19.000Z</time>
      </trkpt>
      <trkpt lat="45.87124" lon="4.64535">
        <ele>222.15898</ele>
        <time>2023-12-07T15:04:20.000Z</time>
      </trkpt>
      <trkpt lat="45.87121" lon="4.64535">
        <ele>222.09746</ele>
        <time>2023-12-07T15:04:21.000Z</time>
      </trkpt>
      <trkpt lat="45.87117" lon="4.64536">
        <ele>222.37605</ele>
        <time>2023-12-07T15:04:22.000Z</time>
      </trkpt>
      <trkpt lat="45.87114" lon="4.64537">
        <ele>222.59079</ele>
        <time>2023-12-07T15:04:23.000Z</time>
      </trkpt>
      <trkpt lat="45.8711" lon="4.64538">
        <ele>222.77014</ele>
        <time>2023-12-07T15:04:24.000Z</time>
      </trkpt>
      <trkpt lat="45.87107" lon="4.64538">
        <ele>222.94536</ele>
        <time>2023-12-07T15:04:25.000Z</time>
      </trkpt>
      <trkpt lat="45.87104" lon="4.64539">
        <ele>223.12244</ele>
        <time>2023-12-07T15:04:26.000Z</time>
      </trkpt>
      <trkpt lat="45.871" lon="4.6454">
        <ele>223.2872</ele>
        <time>2023-12-07T15:04:27.000Z</time>
      </trkpt>
      <trkpt lat="45.87097" lon="4.64541">
        <ele>223.44453</ele>
        <time>2023-12-07T15:04:28.000Z</time>
      </trkpt>
      <trkpt lat="45.87093" lon="4.64542">
        <ele>223.62517</ele>
        <time>2023-12-07T15:04:29.000Z</time>
      </trkpt>
      <trkpt lat="45.8709" lon="4.64543">
        <ele>223.79292</ele>
        <time>2023-12-07T15:04:30.000Z</time>
      </trkpt>
      <trkpt lat="45.87086" lon="4.64545">
        <ele>223.92892</ele>
        <time>2023-12-07T15:04:31.000Z</time>
      </trkpt>
      <trkpt lat="45.87083" lon="4.64546">
        <ele>224.07327</ele>
        <time>2023-12-07T15:04:32.000Z</time>
      </trkpt>
      <trkpt lat="45.87079" lon="4.64549">
        <ele>224.2491</ele>
        <time>2023-12-07T15:04:33.000Z</time>
      </trkpt>
      <trkpt lat="45.87076" lon="4.64552">
        <ele>224.39148</ele>
        <time>2023-12-07T15:04:34.000Z</time>
      </trkpt>
      <trkpt lat="45.87074" lon="4.64557">
        <ele>224.52092</ele>
        <time>2023-12-07T15:04:35.000Z</time>
      </trkpt>
      <trkpt lat="45.87073" lon="4.64562">
        <ele>224.63522</ele>
        <time>2023-12-07T15:04:36.000Z</time>
      </trkpt>
      <trkpt lat="45.87072" lon="4.64566">
        <ele>224.74051</ele>
        <time>2023-12-07T15:04:37.000Z</time>
      </trkpt>
      <trkpt lat="45.87071" lon="4.64571">
        <ele>224.86943</ele>
        <time>2023-12-07T15:04:38.000Z</time>
      </trkpt>
      <trkpt lat="45.8707" lon="4.64575">
        <ele>224.99345</ele>
        <time>2023-12-07T15:04:39.000Z</time>
      </trkpt>
      <trkpt lat="45.87069" lon="4.6458">
        <ele>225.14224</ele>
        <time>2023-12-07T15:04:40.000Z</time>
      </trkpt>
      <trkpt lat="45.87069" lon="4.64585">
        <ele>225.28336</ele>
        <time>2023-12-07T15:04:41.000Z</time>
      </trkpt>
      <trkpt lat="45.87068" lon="4.6459">
        <ele>225.41702</ele>
        <time>2023-12-07T15:04:42.000Z</time>
      </trkpt>
      <trkpt lat="45.87068" lon="4.64594">
        <ele>225.55852</ele>
        <time>2023-12-07T15:04:43.000Z</time>
      </trkpt>
      <trkpt lat="45.87067" lon="4.64599">
        <ele>225.71664</ele>
        <time>2023-12-07T15:04:44.000Z</time>
      </trkpt>
      <trkpt lat="45.87067" lon="4.64604">
        <ele>225.87097</ele>
        <time>2023-12-07T15:04:45.000Z</time>
      </trkpt>
      <trkpt lat="45.87067" lon="4.64609">
        <ele>226.03349</ele>
        <time>2023-12-07T15:04:46.000Z</time>
      </trkpt>
      <trkpt lat="45.87066" lon="4.64614">
        <ele>226.21609</ele>
        <time>2023-12-07T15:04:47.000Z</time>
      </trkpt>
      <trkpt lat="45.87065" lon="4.64619">
        <ele>226.39587</ele>
        <time>2023-12-07T15:04:48.000Z</time>
      </trkpt>
      <trkpt lat="45.87064" lon="4.64624">
        <ele>226.56804</ele>
        <time>2023-12-07T15:04:49.000Z</time>
      </trkpt>
      <trkpt lat="45.87063" lon="4.64629">
        <ele>226.72993</ele>
        <time>2023-12-07T15:04:50.000Z</time>
      </trkpt>
      <trkpt lat="45.87062" lon="4.64633">
        <ele>226.88919</ele>
        <time>2023-12-07T15:04:51.000Z</time>
      </trkpt>
      <trkpt lat="45.87061" lon="4.64638">
        <ele>227.03674</ele>
        <time>2023-12-07T15:04:52.000Z</time>
      </trkpt>
      <trkpt lat="45.8706" lon="4.64643">
        <ele>227.16397</ele>
        <time>2023-12-07T15:04:53.000Z</time>
      </trkpt>
      <trkpt lat="45.87058" lon="4.64647">
        <ele>227.32104</ele>
        <time>2023-12-07T15:04:54.000Z</time>
      </trkpt>
      <trkpt lat="45.87056" lon="4.64652">
        <ele>227.49419</ele>
        <time>2023-12-07T15:04:55.000Z</time>
      </trkpt>
      <trkpt lat="45.87054" lon="4.64657">
        <ele>227.66614</ele>
        <time>2023-12-07T15:04:56.000Z</time>
      </trkpt>
      <trkpt lat="45.87052" lon="4.64661">
        <ele>227.85098</ele>
        <time>2023-12-07T15:04:57.000Z</time>
      </trkpt>
      <trkpt lat="45.87049" lon="4.64665">
        <ele>228.10165</ele>
        <time>2023-12-07T15:04:58.000Z</time>
      </trkpt>
      <trkpt lat="45.87046" lon="4.64668">
        <ele>228.34404</ele>
        <time>2023-12-07T15:04:59.000Z</time>
      </trkpt>
      <trkpt lat="45.87043" lon="4.6467">
        <ele>228.57809</ele>
        <time>2023-12-07T15:05:00.000Z</time>
      </trkpt>
      <trkpt lat="45.8704" lon="4.64673">
        <ele>228.81564</ele>
        <time>2023-12-07T15:05:01.000Z</time>
      </trkpt>
      <trkpt lat="45.87037" lon="4.64676">
        <ele>229.06746</ele>
        <time>2023-12-07T15:05:02.000Z</time>
      </trkpt>
      <trkpt lat="45.87034" lon="4.6468">
        <ele>229.30803</ele>
        <time>2023-12-07T15:05:03.000Z</time>
      </trkpt>
      <trkpt lat="45.87031" lon="4.64683">
        <ele>229.55453</ele>
        <time>2023-12-07T15:05:04.000Z</time>
      </trkpt>
      <trkpt lat="45.87029" lon="4.64686">
        <ele>229.79678</ele>
        <time>2023-12-07T15:05:05.000Z</time>
      </trkpt>
      <trkpt lat="45.87026" lon="4.64689">
        <ele>230.03296</ele>
        <time>2023-12-07T15:05:06.000Z</time>
      </trkpt>
      <trkpt lat="45.87023" lon="4.64693">
        <ele>230.28809</ele>
        <time>2023-12-07T15:05:07.000Z</time>
      </trkpt>
      <trkpt lat="45.87021" lon="4.64695">
        <ele>230.58627</ele>
        <time>2023-12-07T15:05:08.000Z</time>
      </trkpt>
      <trkpt lat="45.87018" lon="4.64698">
        <ele>230.72346</ele>
        <time>2023-12-07T15:05:09.000Z</time>
      </trkpt>
      <trkpt lat="45.87016" lon="4.64701">
        <ele>230.90178</ele>
        <time>2023-12-07T15:05:10.000Z</time>
      </trkpt>
      <trkpt lat="45.87013" lon="4.64704">
        <ele>231.09407</ele>
        <time>2023-12-07T15:05:11.000Z</time>
      </trkpt>
      <trkpt lat="45.87011" lon="4.64707">
        <ele>231.28983</ele>
        <time>2023-12-07T15:05:12.000Z</time>
      </trkpt>
      <trkpt lat="45.87008" lon="4.6471">
        <ele>231.48669</ele>
        <time>2023-12-07T15:05:13.000Z</time>
      </trkpt>
      <trkpt lat="45.87006" lon="4.64713">
        <ele>231.68213</ele>
        <time>2023-12-07T15:05:14.000Z</time>
      </trkpt>
      <trkpt lat="45.87003" lon="4.64715">
        <ele>231.90213</ele>
        <time>2023-12-07T15:05:15.000Z</time>
      </trkpt>
      <trkpt lat="45.87001" lon="4.64718">
        <ele>232.12093</ele>
        <time>2023-12-07T15:05:16.000Z</time>
      </trkpt>
      <trkpt lat="45.86998" lon="4.64721">
        <ele>232.32144</ele>
        <time>2023-12-07T15:05:17.000Z</time>
      </trkpt>
      <trkpt lat="45.86995" lon="4.64724">
        <ele>232.41899</ele>
        <time>2023-12-07T15:05:18.000Z</time>
      </trkpt>
      <trkpt lat="45.86992" lon="4.64727">
        <ele>232.49695</ele>
        <time>2023-12-07T15:05:19.000Z</time>
      </trkpt>
      <trkpt lat="45.86989" lon="4.64731">
        <ele>232.5614</ele>
        <time>2023-12-07T15:05:20.000Z</time>
      </trkpt>
      <trkpt lat="45.86987" lon="4.64735">
        <ele>232.62373</ele>
        <time>2023-12-07T15:05:21.000Z</time>
      </trkpt>
      <trkpt lat="45.86985" lon="4.64739">
        <ele>232.75191</ele>
        <time>2023-12-07T15:05:22.000Z</time>
      </trkpt>
      <trkpt lat="45.86983" lon="4.64742">
        <ele>232.88033</ele>
        <time>2023-12-07T15:05:23.000Z</time>
      </trkpt>
      <trkpt lat="45.8698" lon="4.64746">
        <ele>233.0085</ele>
        <time>2023-12-07T15:05:24.000Z</time>
      </trkpt>
      <trkpt lat="45.86978" lon="4.64749">
        <ele>233.13708</ele>
        <time>2023-12-07T15:05:25.000Z</time>
      </trkpt>
      <trkpt lat="45.86975" lon="4.64752">
        <ele>233.22592</ele>
        <time>2023-12-07T15:05:26.000Z</time>
      </trkpt>
      <trkpt lat="45.86971" lon="4.64755">
        <ele>233.30347</ele>
        <time>2023-12-07T15:05:27.000Z</time>
      </trkpt>
      <trkpt lat="45.86968" lon="4.64757">
        <ele>233.34927</ele>
        <time>2023-12-07T15:05:28.000Z</time>
      </trkpt>
      <trkpt lat="45.86965" lon="4.64759">
        <ele>233.56172</ele>
        <time>2023-12-07T15:05:29.000Z</time>
      </trkpt>
      <trkpt lat="45.86961" lon="4.6476">
        <ele>233.58562</ele>
        <time>2023-12-07T15:05:30.000Z</time>
      </trkpt>
      <trkpt lat="45.86958" lon="4.64762">
        <ele>233.63376</ele>
        <time>2023-12-07T15:05:31.000Z</time>
      </trkpt>
      <trkpt lat="45.86955" lon="4.64764">
        <ele>233.70757</ele>
        <time>2023-12-07T15:05:32.000Z</time>
      </trkpt>
      <trkpt lat="45.86953" lon="4.64767">
        <ele>233.79695</ele>
        <time>2023-12-07T15:05:33.000Z</time>
      </trkpt>
      <trkpt lat="45.8695" lon="4.64769">
        <ele>233.87833</ele>
        <time>2023-12-07T15:05:34.000Z</time>
      </trkpt>
      <trkpt lat="45.86947" lon="4.64772">
        <ele>233.94406</ele>
        <time>2023-12-07T15:05:35.000Z</time>
      </trkpt>
      <trkpt lat="45.86944" lon="4.64775">
        <ele>234.00174</ele>
        <time>2023-12-07T15:05:36.000Z</time>
      </trkpt>
      <trkpt lat="45.86941" lon="4.64778">
        <ele>234.06352</ele>
        <time>2023-12-07T15:05:37.000Z</time>
      </trkpt>
      <trkpt lat="45.86939" lon="4.6478">
        <ele>234.20601</ele>
        <time>2023-12-07T15:05:38.000Z</time>
      </trkpt>
      <trkpt lat="45.86936" lon="4.64782">
        <ele>234.36499</ele>
        <time>2023-12-07T15:05:39.000Z</time>
      </trkpt>
      <trkpt lat="45.86933" lon="4.64785">
        <ele>234.5238</ele>
        <time>2023-12-07T15:05:40.000Z</time>
      </trkpt>
      <trkpt lat="45.8693" lon="4.64787">
        <ele>234.67766</ele>
        <time>2023-12-07T15:05:41.000Z</time>
      </trkpt>
      <trkpt lat="45.86927" lon="4.6479">
        <ele>234.7701</ele>
        <time>2023-12-07T15:05:42.000Z</time>
      </trkpt>
      <trkpt lat="45.86924" lon="4.64792">
        <ele>234.87924</ele>
        <time>2023-12-07T15:05:43.000Z</time>
      </trkpt>
      <trkpt lat="45.86922" lon="4.64795">
        <ele>235.01489</ele>
        <time>2023-12-07T15:05:44.000Z</time>
      </trkpt>
      <trkpt lat="45.86919" lon="4.64799">
        <ele>235.1521</ele>
        <time>2023-12-07T15:05:45.000Z</time>
      </trkpt>
      <trkpt lat="45.86916" lon="4.64803">
        <ele>235.21411</ele>
        <time>2023-12-07T15:05:46.000Z</time>
      </trkpt>
      <trkpt lat="45.86914" lon="4.64807">
        <ele>235.25529</ele>
        <time>2023-12-07T15:05:47.000Z</time>
      </trkpt>
      <trkpt lat="45.86912" lon="4.64811">
        <ele>235.29187</ele>
        <time>2023-12-07T15:05:48.000Z</time>
      </trkpt>
      <trkpt lat="45.8691" lon="4.64815">
        <ele>235.33728</ele>
        <time>2023-12-07T15:05:49.000Z</time>
      </trkpt>
      <trkpt lat="45.86907" lon="4.6482">
        <ele>235.49931</ele>
        <time>2023-12-07T15:05:50.000Z</time>
      </trkpt>
      <trkpt lat="45.86905" lon="4.64824">
        <ele>235.60306</ele>
        <time>2023-12-07T15:05:51.000Z</time>
      </trkpt>
      <trkpt lat="45.86903" lon="4.64829">
        <ele>235.69392</ele>
        <time>2023-12-07T15:05:52.000Z</time>
      </trkpt>
      <trkpt lat="45.869" lon="4.64833">
        <ele>235.71298</ele>
        <time>2023-12-07T15:05:53.000Z</time>
      </trkpt>
      <trkpt lat="45.86898" lon="4.64837">
        <ele>235.71719</ele>
        <time>2023-12-07T15:05:54.000Z</time>
      </trkpt>
      <trkpt lat="45.86896" lon="4.64842">
        <ele>235.6969</ele>
        <time>2023-12-07T15:05:55.000Z</time>
      </trkpt>
      <trkpt lat="45.86894" lon="4.64846">
        <ele>235.70447</ele>
        <time>2023-12-07T15:05:56.000Z</time>
      </trkpt>
      <trkpt lat="45.86893" lon="4.6485">
        <ele>235.7305</ele>
        <time>2023-12-07T15:05:57.000Z</time>
      </trkpt>
      <trkpt lat="45.86891" lon="4.64855">
        <ele>235.72432</ele>
        <time>2023-12-07T15:05:58.000Z</time>
      </trkpt>
      <trkpt lat="45.86889" lon="4.64859">
        <ele>235.70879</ele>
        <time>2023-12-07T15:05:59.000Z</time>
      </trkpt>
      <trkpt lat="45.86887" lon="4.64864">
        <ele>235.72971</ele>
        <time>2023-12-07T15:06:00.000Z</time>
      </trkpt>
      <trkpt lat="45.86884" lon="4.64869">
        <ele>235.73813</ele>
        <time>2023-12-07T15:06:01.000Z</time>
      </trkpt>
      <trkpt lat="45.86882" lon="4.64874">
        <ele>235.75504</ele>
        <time>2023-12-07T15:06:02.000Z</time>
      </trkpt>
      <trkpt lat="45.8688" lon="4.6488">
        <ele>235.74203</ele>
        <time>2023-12-07T15:06:03.000Z</time>
      </trkpt>
      <trkpt lat="45.86879" lon="4.64885">
        <ele>235.70029</ele>
        <time>2023-12-07T15:06:04.000Z</time>
      </trkpt>
      <trkpt lat="45.86876" lon="4.64891">
        <ele>235.66211</ele>
        <time>2023-12-07T15:06:05.000Z</time>
      </trkpt>
      <trkpt lat="45.86874" lon="4.64896">
        <ele>235.7594</ele>
        <time>2023-12-07T15:06:06.000Z</time>
      </trkpt>
      <trkpt lat="45.86872" lon="4.64902">
        <ele>235.73422</ele>
        <time>2023-12-07T15:06:07.000Z</time>
      </trkpt>
      <trkpt lat="45.8687" lon="4.64907">
        <ele>235.73843</ele>
        <time>2023-12-07T15:06:08.000Z</time>
      </trkpt>
      <trkpt lat="45.86868" lon="4.64913">
        <ele>235.70114</ele>
        <time>2023-12-07T15:06:09.000Z</time>
      </trkpt>
      <trkpt lat="45.86865" lon="4.6492">
        <ele>235.68298</ele>
        <time>2023-12-07T15:06:10.000Z</time>
      </trkpt>
      <trkpt lat="45.86862" lon="4.64926">
        <ele>235.68745</ele>
        <time>2023-12-07T15:06:11.000Z</time>
      </trkpt>
      <trkpt lat="45.8686" lon="4.64931">
        <ele>235.66086</ele>
        <time>2023-12-07T15:06:12.000Z</time>
      </trkpt>
      <trkpt lat="45.86857" lon="4.64937">
        <ele>235.6604</ele>
        <time>2023-12-07T15:06:13.000Z</time>
      </trkpt>
      <trkpt lat="45.86855" lon="4.64942">
        <ele>235.69543</ele>
        <time>2023-12-07T15:06:14.000Z</time>
      </trkpt>
      <trkpt lat="45.86852" lon="4.64948">
        <ele>235.74121</ele>
        <time>2023-12-07T15:06:15.000Z</time>
      </trkpt>
      <trkpt lat="45.8685" lon="4.64954">
        <ele>235.76411</ele>
        <time>2023-12-07T15:06:16.000Z</time>
      </trkpt>
      <trkpt lat="45.86848" lon="4.6496">
        <ele>235.74435</ele>
        <time>2023-12-07T15:06:17.000Z</time>
      </trkpt>
      <trkpt lat="45.86845" lon="4.64966">
        <ele>235.77975</ele>
        <time>2023-12-07T15:06:18.000Z</time>
      </trkpt>
      <trkpt lat="45.86842" lon="4.64972">
        <ele>235.86063</ele>
        <time>2023-12-07T15:06:19.000Z</time>
      </trkpt>
      <trkpt lat="45.8684" lon="4.64977">
        <ele>235.79231</ele>
        <time>2023-12-07T15:06:20.000Z</time>
      </trkpt>
      <trkpt lat="45.86838" lon="4.64983">
        <ele>235.73416</ele>
        <time>2023-12-07T15:06:21.000Z</time>
      </trkpt>
      <trkpt lat="45.86835" lon="4.64988">
        <ele>235.63994</ele>
        <time>2023-12-07T15:06:22.000Z</time>
      </trkpt>
      <trkpt lat="45.86832" lon="4.64994">
        <ele>235.58354</ele>
        <time>2023-12-07T15:06:23.000Z</time>
      </trkpt>
      <trkpt lat="45.86829" lon="4.64998">
        <ele>235.49666</ele>
        <time>2023-12-07T15:06:24.000Z</time>
      </trkpt>
      <trkpt lat="45.86828" lon="4.65004">
        <ele>235.41121</ele>
        <time>2023-12-07T15:06:25.000Z</time>
      </trkpt>
      <trkpt lat="45.86825" lon="4.65009">
        <ele>235.28325</ele>
        <time>2023-12-07T15:06:26.000Z</time>
      </trkpt>
      <trkpt lat="45.86824" lon="4.65014">
        <ele>235.28963</ele>
        <time>2023-12-07T15:06:27.000Z</time>
      </trkpt>
      <trkpt lat="45.86821" lon="4.6502">
        <ele>235.27344</ele>
        <time>2023-12-07T15:06:28.000Z</time>
      </trkpt>
      <trkpt lat="45.86818" lon="4.65026">
        <ele>235.26143</ele>
        <time>2023-12-07T15:06:29.000Z</time>
      </trkpt>
      <trkpt lat="45.86816" lon="4.65033">
        <ele>235.24496</ele>
        <time>2023-12-07T15:06:30.000Z</time>
      </trkpt>
      <trkpt lat="45.86814" lon="4.65039">
        <ele>235.2282</ele>
        <time>2023-12-07T15:06:31.000Z</time>
      </trkpt>
      <trkpt lat="45.86812" lon="4.65046">
        <ele>235.21741</ele>
        <time>2023-12-07T15:06:32.000Z</time>
      </trkpt>
      <trkpt lat="45.86809" lon="4.65053">
        <ele>235.21628</ele>
        <time>2023-12-07T15:06:33.000Z</time>
      </trkpt>
      <trkpt lat="45.86806" lon="4.65061">
        <ele>235.1489</ele>
        <time>2023-12-07T15:06:34.000Z</time>
      </trkpt>
      <trkpt lat="45.86804" lon="4.65068">
        <ele>235.10159</ele>
        <time>2023-12-07T15:06:35.000Z</time>
      </trkpt>
      <trkpt lat="45.86802" lon="4.65075">
        <ele>235.04858</ele>
        <time>2023-12-07T15:06:36.000Z</time>
      </trkpt>
      <trkpt lat="45.86799" lon="4.65083">
        <ele>235.00652</ele>
        <time>2023-12-07T15:06:37.000Z</time>
      </trkpt>
      <trkpt lat="45.86797" lon="4.6509">
        <ele>234.88823</ele>
        <time>2023-12-07T15:06:38.000Z</time>
      </trkpt>
      <trkpt lat="45.86795" lon="4.65097">
        <ele>234.76334</ele>
        <time>2023-12-07T15:06:39.000Z</time>
      </trkpt>
      <trkpt lat="45.86791" lon="4.65103">
        <ele>234.71184</ele>
        <time>2023-12-07T15:06:40.000Z</time>
      </trkpt>
      <trkpt lat="45.86788" lon="4.65111">
        <ele>234.67276</ele>
        <time>2023-12-07T15:06:41.000Z</time>
      </trkpt>
      <trkpt lat="45.86785" lon="4.65119">
        <ele>234.64458</ele>
        <time>2023-12-07T15:06:42.000Z</time>
      </trkpt>
      <trkpt lat="45.86781" lon="4.65124">
        <ele>234.6779</ele>
        <time>2023-12-07T15:06:43.000Z</time>
      </trkpt>
      <trkpt lat="45.86778" lon="4.6513">
        <ele>234.73148</ele>
        <time>2023-12-07T15:06:44.000Z</time>
      </trkpt>
      <trkpt lat="45.86774" lon="4.65134">
        <ele>234.75996</ele>
        <time>2023-12-07T15:06:45.000Z</time>
      </trkpt>
      <trkpt lat="45.86769" lon="4.65138">
        <ele>234.8248</ele>
        <time>2023-12-07T15:06:46.000Z</time>
      </trkpt>
      <trkpt lat="45.86764" lon="4.65141">
        <ele>234.72729</ele>
        <time>2023-12-07T15:06:47.000Z</time>
      </trkpt>
      <trkpt lat="45.86761" lon="4.65143">
        <ele>234.68344</ele>
        <time>2023-12-07T15:06:48.000Z</time>
      </trkpt>
      <trkpt lat="45.86757" lon="4.65145">
        <ele>234.65239</ele>
        <time>2023-12-07T15:06:49.000Z</time>
      </trkpt>
      <trkpt lat="45.86755" lon="4.65147">
        <ele>234.64421</ele>
        <time>2023-12-07T15:06:50.000Z</time>
      </trkpt>
      <trkpt lat="45.86751" lon="4.65148">
        <ele>234.67009</ele>
        <time>2023-12-07T15:06:51.000Z</time>
      </trkpt>
      <trkpt lat="45.86748" lon="4.65151">
        <ele>234.72937</ele>
        <time>2023-12-07T15:06:52.000Z</time>
      </trkpt>
      <trkpt lat="45.86745" lon="4.65153">
        <ele>234.83159</ele>
        <time>2023-12-07T15:06:53.000Z</time>
      </trkpt>
      <trkpt lat="45.86742" lon="4.65155">
        <ele>234.98889</ele>
        <time>2023-12-07T15:06:54.000Z</time>
      </trkpt>
      <trkpt lat="45.8674" lon="4.65156">
        <ele>235.15005</ele>
        <time>2023-12-07T15:06:55.000Z</time>
      </trkpt>
      <trkpt lat="45.86737" lon="4.65158">
        <ele>235.32077</ele>
        <time>2023-12-07T15:06:56.000Z</time>
      </trkpt>
      <trkpt lat="45.86734" lon="4.6516">
        <ele>235.51379</ele>
        <time>2023-12-07T15:06:57.000Z</time>
      </trkpt>
      <trkpt lat="45.86731" lon="4.65161">
        <ele>235.66711</ele>
        <time>2023-12-07T15:06:58.000Z</time>
      </trkpt>
      <trkpt lat="45.86728" lon="4.65163">
        <ele>235.77649</ele>
        <time>2023-12-07T15:06:59.000Z</time>
      </trkpt>
      <trkpt lat="45.86725" lon="4.65164">
        <ele>235.95151</ele>
        <time>2023-12-07T15:07:00.000Z</time>
      </trkpt>
      <trkpt lat="45.86722" lon="4.65166">
        <ele>236.12753</ele>
        <time>2023-12-07T15:07:01.000Z</time>
      </trkpt>
      <trkpt lat="45.86719" lon="4.65168">
        <ele>236.30716</ele>
        <time>2023-12-07T15:07:02.000Z</time>
      </trkpt>
      <trkpt lat="45.86716" lon="4.6517">
        <ele>236.4299</ele>
        <time>2023-12-07T15:07:03.000Z</time>
      </trkpt>
      <trkpt lat="45.86714" lon="4.65172">
        <ele>236.59114</ele>
        <time>2023-12-07T15:07:04.000Z</time>
      </trkpt>
      <trkpt lat="45.86711" lon="4.65174">
        <ele>236.78523</ele>
        <time>2023-12-07T15:07:05.000Z</time>
      </trkpt>
      <trkpt lat="45.86708" lon="4.65176">
        <ele>236.95467</ele>
        <time>2023-12-07T15:07:06.000Z</time>
      </trkpt>
      <trkpt lat="45.86705" lon="4.65177">
        <ele>237.30037</ele>
        <time>2023-12-07T15:07:07.000Z</time>
      </trkpt>
      <trkpt lat="45.86702" lon="4.65178">
        <ele>237.59421</ele>
        <time>2023-12-07T15:07:08.000Z</time>
      </trkpt>
      <trkpt lat="45.86699" lon="4.6518">
        <ele>237.89426</ele>
        <time>2023-12-07T15:07:09.000Z</time>
      </trkpt>
      <trkpt lat="45.86697" lon="4.65181">
        <ele>238.19751</ele>
        <time>2023-12-07T15:07:10.000Z</time>
      </trkpt>
      <trkpt lat="45.86694" lon="4.65182">
        <ele>238.48608</ele>
        <time>2023-12-07T15:07:11.000Z</time>
      </trkpt>
      <trkpt lat="45.86692" lon="4.65182">
        <ele>238.74861</ele>
        <time>2023-12-07T15:07:12.000Z</time>
      </trkpt>
      <trkpt lat="45.8669" lon="4.65183">
        <ele>239.01028</ele>
        <time>2023-12-07T15:07:13.000Z</time>
      </trkpt>
      <trkpt lat="45.86687" lon="4.65184">
        <ele>239.27591</ele>
        <time>2023-12-07T15:07:14.000Z</time>
      </trkpt>
      <trkpt lat="45.86684" lon="4.65185">
        <ele>239.54868</ele>
        <time>2023-12-07T15:07:15.000Z</time>
      </trkpt>
      <trkpt lat="45.86681" lon="4.65186">
        <ele>239.86267</ele>
        <time>2023-12-07T15:07:16.000Z</time>
      </trkpt>
      <trkpt lat="45.86678" lon="4.65186">
        <ele>240.15958</ele>
        <time>2023-12-07T15:07:17.000Z</time>
      </trkpt>
      <trkpt lat="45.86676" lon="4.65187">
        <ele>240.4865</ele>
        <time>2023-12-07T15:07:18.000Z</time>
      </trkpt>
      <trkpt lat="45.86673" lon="4.65187">
        <ele>240.83943</ele>
        <time>2023-12-07T15:07:19.000Z</time>
      </trkpt>
      <trkpt lat="45.8667" lon="4.65187">
        <ele>241.18015</ele>
        <time>2023-12-07T15:07:20.000Z</time>
      </trkpt>
      <trkpt lat="45.86668" lon="4.65187">
        <ele>241.5273</ele>
        <time>2023-12-07T15:07:21.000Z</time>
      </trkpt>
      <trkpt lat="45.86665" lon="4.65187">
        <ele>241.88419</ele>
        <time>2023-12-07T15:07:22.000Z</time>
      </trkpt>
      <trkpt lat="45.86663" lon="4.65187">
        <ele>242.23788</ele>
        <time>2023-12-07T15:07:23.000Z</time>
      </trkpt>
      <trkpt lat="45.8666" lon="4.65187">
        <ele>242.54202</ele>
        <time>2023-12-07T15:07:24.000Z</time>
      </trkpt>
      <trkpt lat="45.86658" lon="4.65186">
        <ele>242.84952</ele>
        <time>2023-12-07T15:07:25.000Z</time>
      </trkpt>
      <trkpt lat="45.86655" lon="4.65185">
        <ele>243.18571</ele>
        <time>2023-12-07T15:07:26.000Z</time>
      </trkpt>
      <trkpt lat="45.86653" lon="4.65184">
        <ele>243.5181</ele>
        <time>2023-12-07T15:07:27.000Z</time>
      </trkpt>
      <trkpt lat="45.86651" lon="4.65184">
        <ele>243.86177</ele>
        <time>2023-12-07T15:07:28.000Z</time>
      </trkpt>
      <trkpt lat="45.86648" lon="4.65183">
        <ele>244.19968</ele>
        <time>2023-12-07T15:07:29.000Z</time>
      </trkpt>
      <trkpt lat="45.86646" lon="4.65183">
        <ele>244.51018</ele>
        <time>2023-12-07T15:07:30.000Z</time>
      </trkpt>
      <trkpt lat="45.86644" lon="4.65184">
        <ele>244.8237</ele>
        <time>2023-12-07T15:07:31.000Z</time>
      </trkpt>
      <trkpt lat="45.86641" lon="4.65184">
        <ele>245.13635</ele>
        <time>2023-12-07T15:07:32.000Z</time>
      </trkpt>
      <trkpt lat="45.86639" lon="4.65184">
        <ele>245.44246</ele>
        <time>2023-12-07T15:07:33.000Z</time>
      </trkpt>
      <trkpt lat="45.86636" lon="4.65185">
        <ele>245.74568</ele>
        <time>2023-12-07T15:07:34.000Z</time>
      </trkpt>
      <trkpt lat="45.86634" lon="4.65186">
        <ele>246.03122</ele>
        <time>2023-12-07T15:07:35.000Z</time>
      </trkpt>
      <trkpt lat="45.86632" lon="4.65187">
        <ele>246.3669</ele>
        <time>2023-12-07T15:07:36.000Z</time>
      </trkpt>
      <trkpt lat="45.86631" lon="4.65188">
        <ele>246.67795</ele>
        <time>2023-12-07T15:07:37.000Z</time>
      </trkpt>
      <trkpt lat="45.86629" lon="4.65189">
        <ele>247.00131</ele>
        <time>2023-12-07T15:07:38.000Z</time>
      </trkpt>
      <trkpt lat="45.86628" lon="4.65191">
        <ele>247.32231</ele>
        <time>2023-12-07T15:07:39.000Z</time>
      </trkpt>
      <trkpt lat="45.86626" lon="4.65194">
        <ele>247.59888</ele>
        <time>2023-12-07T15:07:40.000Z</time>
      </trkpt>
      <trkpt lat="45.86625" lon="4.65196">
        <ele>247.84033</ele>
        <time>2023-12-07T15:07:41.000Z</time>
      </trkpt>
      <trkpt lat="45.86623" lon="4.65198">
        <ele>248.04916</ele>
        <time>2023-12-07T15:07:42.000Z</time>
      </trkpt>
      <trkpt lat="45.86621" lon="4.65201">
        <ele>248.18912</ele>
        <time>2023-12-07T15:07:43.000Z</time>
      </trkpt>
      <trkpt lat="45.8662" lon="4.65203">
        <ele>247.58615</ele>
        <time>2023-12-07T15:07:44.000Z</time>
      </trkpt>
      <trkpt lat="45.86618" lon="4.65205">
        <ele>246.92326</ele>
        <time>2023-12-07T15:07:45.000Z</time>
      </trkpt>
      <trkpt lat="45.86617" lon="4.65208">
        <ele>246.59579</ele>
        <time>2023-12-07T15:07:46.000Z</time>
      </trkpt>
      <trkpt lat="45.86615" lon="4.6521">
        <ele>246.18539</ele>
        <time>2023-12-07T15:07:47.000Z</time>
      </trkpt>
      <trkpt lat="45.86614" lon="4.65213">
        <ele>245.73531</ele>
        <time>2023-12-07T15:07:48.000Z</time>
      </trkpt>
      <trkpt lat="45.86613" lon="4.65215">
        <ele>245.33415</ele>
        <time>2023-12-07T15:07:49.000Z</time>
      </trkpt>
      <trkpt lat="45.86611" lon="4.65218">
        <ele>244.93497</ele>
        <time>2023-12-07T15:07:50.000Z</time>
      </trkpt>
      <trkpt lat="45.8661" lon="4.6522">
        <ele>244.50632</ele>
        <time>2023-12-07T15:07:51.000Z</time>
      </trkpt>
      <trkpt lat="45.86609" lon="4.65223">
        <ele>244.05661</ele>
        <time>2023-12-07T15:07:52.000Z</time>
      </trkpt>
      <trkpt lat="45.86607" lon="4.65225">
        <ele>243.57942</ele>
        <time>2023-12-07T15:07:53.000Z</time>
      </trkpt>
      <trkpt lat="45.86606" lon="4.65227">
        <ele>242.87283</ele>
        <time>2023-12-07T15:07:54.000Z</time>
      </trkpt>
      <trkpt lat="45.86604" lon="4.65229">
        <ele>242.14099</ele>
        <time>2023-12-07T15:07:55.000Z</time>
      </trkpt>
      <trkpt lat="45.86603" lon="4.65232">
        <ele>241.2812</ele>
        <time>2023-12-07T15:07:56.000Z</time>
      </trkpt>
      <trkpt lat="45.86602" lon="4.65234">
        <ele>240.42529</ele>
        <time>2023-12-07T15:07:57.000Z</time>
      </trkpt>
      <trkpt lat="45.866" lon="4.65237">
        <ele>239.97217</ele>
        <time>2023-12-07T15:07:58.000Z</time>
      </trkpt>
      <trkpt lat="45.86599" lon="4.6524">
        <ele>239.45486</ele>
        <time>2023-12-07T15:07:59.000Z</time>
      </trkpt>
      <trkpt lat="45.86597" lon="4.65243">
        <ele>238.98543</ele>
        <time>2023-12-07T15:08:00.000Z</time>
      </trkpt>
      <trkpt lat="45.86595" lon="4.65246">
        <ele>238.50996</ele>
        <time>2023-12-07T15:08:01.000Z</time>
      </trkpt>
      <trkpt lat="45.86594" lon="4.65249">
        <ele>238.04068</ele>
        <time>2023-12-07T15:08:02.000Z</time>
      </trkpt>
      <trkpt lat="45.86592" lon="4.65253">
        <ele>237.63266</ele>
        <time>2023-12-07T15:08:03.000Z</time>
      </trkpt>
      <trkpt lat="45.8659" lon="4.65256">
        <ele>237.96432</ele>
        <time>2023-12-07T15:08:04.000Z</time>
      </trkpt>
      <trkpt lat="45.86588" lon="4.6526">
        <ele>238.3201</ele>
        <time>2023-12-07T15:08:05.000Z</time>
      </trkpt>
      <trkpt lat="45.86586" lon="4.65265">
        <ele>238.30269</ele>
        <time>2023-12-07T15:08:06.000Z</time>
      </trkpt>
      <trkpt lat="45.86584" lon="4.65269">
        <ele>238.33731</ele>
        <time>2023-12-07T15:08:07.000Z</time>
      </trkpt>
      <trkpt lat="45.86582" lon="4.65274">
        <ele>238.39633</ele>
        <time>2023-12-07T15:08:08.000Z</time>
      </trkpt>
      <trkpt lat="45.86579" lon="4.65279">
        <ele>238.397</ele>
        <time>2023-12-07T15:08:09.000Z</time>
      </trkpt>
      <trkpt lat="45.86577" lon="4.65284">
        <ele>238.35181</ele>
        <time>2023-12-07T15:08:10.000Z</time>
      </trkpt>
      <trkpt lat="45.86574" lon="4.65289">
        <ele>238.32068</ele>
        <time>2023-12-07T15:08:11.000Z</time>
      </trkpt>
      <trkpt lat="45.86571" lon="4.65294">
        <ele>238.30106</ele>
        <time>2023-12-07T15:08:12.000Z</time>
      </trkpt>
      <trkpt lat="45.86568" lon="4.65299">
        <ele>238.28023</ele>
        <time>2023-12-07T15:08:13.000Z</time>
      </trkpt>
      <trkpt lat="45.86566" lon="4.65303">
        <ele>238.47775</ele>
        <time>2023-12-07T15:08:14.000Z</time>
      </trkpt>
      <trkpt lat="45.86563" lon="4.65308">
        <ele>238.67924</ele>
        <time>2023-12-07T15:08:15.000Z</time>
      </trkpt>
      <trkpt lat="45.8656" lon="4.65312">
        <ele>238.91348</ele>
        <time>2023-12-07T15:08:16.000Z</time>
      </trkpt>
      <trkpt lat="45.86558" lon="4.65317">
        <ele>239.15645</ele>
        <time>2023-12-07T15:08:17.000Z</time>
      </trkpt>
      <trkpt lat="45.86555" lon="4.65322">
        <ele>239.01428</ele>
        <time>2023-12-07T15:08:18.000Z</time>
      </trkpt>
      <trkpt lat="45.86552" lon="4.65327">
        <ele>238.91653</ele>
        <time>2023-12-07T15:08:19.000Z</time>
      </trkpt>
      <trkpt lat="45.86548" lon="4.65333">
        <ele>238.74947</ele>
        <time>2023-12-07T15:08:20.000Z</time>
      </trkpt>
      <trkpt lat="45.86546" lon="4.65337">
        <ele>238.59641</ele>
        <time>2023-12-07T15:08:21.000Z</time>
      </trkpt>
      <trkpt lat="45.86542" lon="4.65342">
        <ele>238.45374</ele>
        <time>2023-12-07T15:08:22.000Z</time>
      </trkpt>
      <trkpt lat="45.86539" lon="4.65348">
        <ele>238.07825</ele>
        <time>2023-12-07T15:08:23.000Z</time>
      </trkpt>
      <trkpt lat="45.86537" lon="4.65353">
        <ele>237.71945</ele>
        <time>2023-12-07T15:08:24.000Z</time>
      </trkpt>
      <trkpt lat="45.86534" lon="4.65359">
        <ele>237.37529</ele>
        <time>2023-12-07T15:08:25.000Z</time>
      </trkpt>
      <trkpt lat="45.86532" lon="4.65366">
        <ele>236.94283</ele>
        <time>2023-12-07T15:08:26.000Z</time>
      </trkpt>
      <trkpt lat="45.86531" lon="4.65373">
        <ele>236.50378</ele>
        <time>2023-12-07T15:08:27.000Z</time>
      </trkpt>
      <trkpt lat="45.86529" lon="4.6538">
        <ele>236.40292</ele>
        <time>2023-12-07T15:08:28.000Z</time>
      </trkpt>
      <trkpt lat="45.86529" lon="4.65387">
        <ele>236.26189</ele>
        <time>2023-12-07T15:08:29.000Z</time>
      </trkpt>
      <trkpt lat="45.86528" lon="4.65395">
        <ele>236.14554</ele>
        <time>2023-12-07T15:08:30.000Z</time>
      </trkpt>
      <trkpt lat="45.86528" lon="4.654">
        <ele>236.04431</ele>
        <time>2023-12-07T15:08:31.000Z</time>
      </trkpt>
      <trkpt lat="45.86528" lon="4.65407">
        <ele>235.93071</ele>
        <time>2023-12-07T15:08:32.000Z</time>
      </trkpt>
      <trkpt lat="45.86528" lon="4.65413">
        <ele>235.80264</ele>
        <time>2023-12-07T15:08:33.000Z</time>
      </trkpt>
      <trkpt lat="45.86527" lon="4.65418">
        <ele>235.69902</ele>
        <time>2023-12-07T15:08:34.000Z</time>
      </trkpt>
      <trkpt lat="45.86526" lon="4.65423">
        <ele>235.62375</ele>
        <time>2023-12-07T15:08:35.000Z</time>
      </trkpt>
      <trkpt lat="45.86525" lon="4.65427">
        <ele>235.52786</ele>
        <time>2023-12-07T15:08:36.000Z</time>
      </trkpt>
      <trkpt lat="45.86522" lon="4.65431">
        <ele>235.42343</ele>
        <time>2023-12-07T15:08:37.000Z</time>
      </trkpt>
      <trkpt lat="45.86521" lon="4.65437">
        <ele>235.32413</ele>
        <time>2023-12-07T15:08:38.000Z</time>
      </trkpt>
      <trkpt lat="45.8652" lon="4.65443">
        <ele>235.26807</ele>
        <time>2023-12-07T15:08:39.000Z</time>
      </trkpt>
      <trkpt lat="45.86519" lon="4.65449">
        <ele>235.2729</ele>
        <time>2023-12-07T15:08:40.000Z</time>
      </trkpt>
      <trkpt lat="45.86517" lon="4.65454">
        <ele>235.25708</ele>
        <time>2023-12-07T15:08:41.000Z</time>
      </trkpt>
      <trkpt lat="45.86516" lon="4.6546">
        <ele>235.09477</ele>
        <time>2023-12-07T15:08:42.000Z</time>
      </trkpt>
      <trkpt lat="45.86515" lon="4.65465">
        <ele>235.14603</ele>
        <time>2023-12-07T15:08:43.000Z</time>
      </trkpt>
      <trkpt lat="45.86514" lon="4.6547">
        <ele>235.18384</ele>
        <time>2023-12-07T15:08:44.000Z</time>
      </trkpt>
      <trkpt lat="45.86513" lon="4.65475">
        <ele>235.24214</ele>
        <time>2023-12-07T15:08:45.000Z</time>
      </trkpt>
      <trkpt lat="45.86511" lon="4.6548">
        <ele>235.30464</ele>
        <time>2023-12-07T15:08:46.000Z</time>
      </trkpt>
      <trkpt lat="45.8651" lon="4.65485">
        <ele>235.36369</ele>
        <time>2023-12-07T15:08:47.000Z</time>
      </trkpt>
      <trkpt lat="45.86509" lon="4.6549">
        <ele>235.05779</ele>
        <time>2023-12-07T15:08:48.000Z</time>
      </trkpt>
      <trkpt lat="45.86508" lon="4.65495">
        <ele>235.13293</ele>
        <time>2023-12-07T15:08:49.000Z</time>
      </trkpt>
      <trkpt lat="45.86507" lon="4.655">
        <ele>235.19437</ele>
        <time>2023-12-07T15:08:50.000Z</time>
      </trkpt>
      <trkpt lat="45.86506" lon="4.65505">
        <ele>235.23035</ele>
        <time>2023-12-07T15:08:51.000Z</time>
      </trkpt>
      <trkpt lat="45.86505" lon="4.6551">
        <ele>235.32144</ele>
        <time>2023-12-07T15:08:52.000Z</time>
      </trkpt>
      <trkpt lat="45.86503" lon="4.65515">
        <ele>235.43045</ele>
        <time>2023-12-07T15:08:53.000Z</time>
      </trkpt>
      <trkpt lat="45.86501" lon="4.65519">
        <ele>236.00867</ele>
        <time>2023-12-07T15:08:54.000Z</time>
      </trkpt>
      <trkpt lat="45.865" lon="4.65522">
        <ele>236.58276</ele>
        <time>2023-12-07T15:08:55.000Z</time>
      </trkpt>
      <trkpt lat="45.86499" lon="4.65526">
        <ele>237.16296</ele>
        <time>2023-12-07T15:08:56.000Z</time>
      </trkpt>
      <trkpt lat="45.86498" lon="4.6553">
        <ele>237.75777</ele>
        <time>2023-12-07T15:08:57.000Z</time>
      </trkpt>
      <trkpt lat="45.86497" lon="4.65534">
        <ele>238.30725</ele>
        <time>2023-12-07T15:08:58.000Z</time>
      </trkpt>
      <trkpt lat="45.86497" lon="4.65539">
        <ele>238.82939</ele>
        <time>2023-12-07T15:08:59.000Z</time>
      </trkpt>
      <trkpt lat="45.86496" lon="4.65543">
        <ele>239.34465</ele>
        <time>2023-12-07T15:09:00.000Z</time>
      </trkpt>
      <trkpt lat="45.86495" lon="4.65548">
        <ele>239.88728</ele>
        <time>2023-12-07T15:09:01.000Z</time>
      </trkpt>
      <trkpt lat="45.86493" lon="4.65552">
        <ele>240.59348</ele>
        <time>2023-12-07T15:09:02.000Z</time>
      </trkpt>
      <trkpt lat="45.86492" lon="4.65556">
        <ele>241.2896</ele>
        <time>2023-12-07T15:09:03.000Z</time>
      </trkpt>
      <trkpt lat="45.86491" lon="4.6556">
        <ele>242.01147</ele>
        <time>2023-12-07T15:09:04.000Z</time>
      </trkpt>
      <trkpt lat="45.8649" lon="4.65564">
        <ele>242.70857</ele>
        <time>2023-12-07T15:09:05.000Z</time>
      </trkpt>
      <trkpt lat="45.86489" lon="4.65568">
        <ele>243.51509</ele>
        <time>2023-12-07T15:09:06.000Z</time>
      </trkpt>
      <trkpt lat="45.86488" lon="4.65572">
        <ele>244.33899</ele>
        <time>2023-12-07T15:09:07.000Z</time>
      </trkpt>
      <trkpt lat="45.86486" lon="4.65576">
        <ele>245.21367</ele>
        <time>2023-12-07T15:09:08.000Z</time>
      </trkpt>
      <trkpt lat="45.86485" lon="4.6558">
        <ele>245.76376</ele>
        <time>2023-12-07T15:09:09.000Z</time>
      </trkpt>
      <trkpt lat="45.86484" lon="4.65584">
        <ele>246.34525</ele>
        <time>2023-12-07T15:09:10.000Z</time>
      </trkpt>
      <trkpt lat="45.86483" lon="4.65589">
        <ele>246.93213</ele>
        <time>2023-12-07T15:09:11.000Z</time>
      </trkpt>
      <trkpt lat="45.86482" lon="4.65593">
        <ele>247.48506</ele>
        <time>2023-12-07T15:09:12.000Z</time>
      </trkpt>
      <trkpt lat="45.86481" lon="4.65598">
        <ele>248.03789</ele>
        <time>2023-12-07T15:09:13.000Z</time>
      </trkpt>
      <trkpt lat="45.86479" lon="4.65602">
        <ele>248.09338</ele>
        <time>2023-12-07T15:09:14.000Z</time>
      </trkpt>
      <trkpt lat="45.86478" lon="4.65605">
        <ele>248.13106</ele>
        <time>2023-12-07T15:09:15.000Z</time>
      </trkpt>
      <trkpt lat="45.86476" lon="4.65609">
        <ele>248.24536</ele>
        <time>2023-12-07T15:09:16.000Z</time>
      </trkpt>
      <trkpt lat="45.86475" lon="4.65613">
        <ele>248.35754</ele>
        <time>2023-12-07T15:09:17.000Z</time>
      </trkpt>
      <trkpt lat="45.86473" lon="4.65617">
        <ele>248.47139</ele>
        <time>2023-12-07T15:09:18.000Z</time>
      </trkpt>
      <trkpt lat="45.86472" lon="4.65622">
        <ele>248.5865</ele>
        <time>2023-12-07T15:09:19.000Z</time>
      </trkpt>
      <trkpt lat="45.86471" lon="4.65626">
        <ele>248.69414</ele>
        <time>2023-12-07T15:09:20.000Z</time>
      </trkpt>
      <trkpt lat="45.86469" lon="4.6563">
        <ele>248.81375</ele>
        <time>2023-12-07T15:09:21.000Z</time>
      </trkpt>
      <trkpt lat="45.86467" lon="4.65634">
        <ele>248.90305</ele>
        <time>2023-12-07T15:09:22.000Z</time>
      </trkpt>
      <trkpt lat="45.86464" lon="4.65636">
        <ele>249.02298</ele>
        <time>2023-12-07T15:09:23.000Z</time>
      </trkpt>
      <trkpt lat="45.8646" lon="4.65637">
        <ele>249.13293</ele>
        <time>2023-12-07T15:09:24.000Z</time>
      </trkpt>
      <trkpt lat="45.86456" lon="4.65635">
        <ele>249.21565</ele>
        <time>2023-12-07T15:09:25.000Z</time>
      </trkpt>
      <trkpt lat="45.86453" lon="4.65633">
        <ele>249.28918</ele>
        <time>2023-12-07T15:09:26.000Z</time>
      </trkpt>
      <trkpt lat="45.8645" lon="4.65631">
        <ele>249.3632</ele>
        <time>2023-12-07T15:09:27.000Z</time>
      </trkpt>
      <trkpt lat="45.86447" lon="4.65629">
        <ele>249.42514</ele>
        <time>2023-12-07T15:09:28.000Z</time>
      </trkpt>
      <trkpt lat="45.86444" lon="4.65627">
        <ele>249.46927</ele>
        <time>2023-12-07T15:09:29.000Z</time>
      </trkpt>
      <trkpt lat="45.86442" lon="4.65625">
        <ele>249.49089</ele>
        <time>2023-12-07T15:09:30.000Z</time>
      </trkpt>
      <trkpt lat="45.86439" lon="4.65624">
        <ele>249.4939</ele>
        <time>2023-12-07T15:09:31.000Z</time>
      </trkpt>
      <trkpt lat="45.86435" lon="4.65624">
        <ele>249.49983</ele>
        <time>2023-12-07T15:09:32.000Z</time>
      </trkpt>
      <trkpt lat="45.86432" lon="4.65624">
        <ele>249.49007</ele>
        <time>2023-12-07T15:09:33.000Z</time>
      </trkpt>
      <trkpt lat="45.86428" lon="4.65624">
        <ele>249.53984</ele>
        <time>2023-12-07T15:09:34.000Z</time>
      </trkpt>
      <trkpt lat="45.86425" lon="4.65627">
        <ele>249.59993</ele>
        <time>2023-12-07T15:09:35.000Z</time>
      </trkpt>
      <trkpt lat="45.86422" lon="4.6563">
        <ele>249.59607</ele>
        <time>2023-12-07T15:09:36.000Z</time>
      </trkpt>
      <trkpt lat="45.86419" lon="4.65634">
        <ele>249.60559</ele>
        <time>2023-12-07T15:09:37.000Z</time>
      </trkpt>
      <trkpt lat="45.86416" lon="4.65638">
        <ele>249.61209</ele>
        <time>2023-12-07T15:09:38.000Z</time>
      </trkpt>
      <trkpt lat="45.86414" lon="4.65641">
        <ele>249.59244</ele>
        <time>2023-12-07T15:09:39.000Z</time>
      </trkpt>
      <trkpt lat="45.86411" lon="4.65645">
        <ele>249.56352</ele>
        <time>2023-12-07T15:09:40.000Z</time>
      </trkpt>
      <trkpt lat="45.86408" lon="4.65648">
        <ele>249.50737</ele>
        <time>2023-12-07T15:09:41.000Z</time>
      </trkpt>
      <trkpt lat="45.86405" lon="4.65651">
        <ele>249.4501</ele>
        <time>2023-12-07T15:09:42.000Z</time>
      </trkpt>
      <trkpt lat="45.86403" lon="4.65654">
        <ele>249.37228</ele>
        <time>2023-12-07T15:09:43.000Z</time>
      </trkpt>
      <trkpt lat="45.86399" lon="4.65657">
        <ele>249.28227</ele>
        <time>2023-12-07T15:09:44.000Z</time>
      </trkpt>
      <trkpt lat="45.86396" lon="4.65659">
        <ele>249.22786</ele>
        <time>2023-12-07T15:09:45.000Z</time>
      </trkpt>
      <trkpt lat="45.86394" lon="4.65661">
        <ele>248.37012</ele>
        <time>2023-12-07T15:09:46.000Z</time>
      </trkpt>
      <trkpt lat="45.86391" lon="4.65663">
        <ele>247.88997</ele>
        <time>2023-12-07T15:09:47.000Z</time>
      </trkpt>
      <trkpt lat="45.86388" lon="4.65664">
        <ele>247.35165</ele>
        <time>2023-12-07T15:09:48.000Z</time>
      </trkpt>
      <trkpt lat="45.86385" lon="4.65665">
        <ele>246.81104</ele>
        <time>2023-12-07T15:09:49.000Z</time>
      </trkpt>
      <trkpt lat="45.86382" lon="4.65666">
        <ele>246.34073</ele>
        <time>2023-12-07T15:09:50.000Z</time>
      </trkpt>
      <trkpt lat="45.86379" lon="4.65665">
        <ele>245.87137</ele>
        <time>2023-12-07T15:09:51.000Z</time>
      </trkpt>
      <trkpt lat="45.86377" lon="4.65665">
        <ele>245.41374</ele>
        <time>2023-12-07T15:09:52.000Z</time>
      </trkpt>
      <trkpt lat="45.86375" lon="4.65666">
        <ele>244.9666</ele>
        <time>2023-12-07T15:09:53.000Z</time>
      </trkpt>
      <trkpt lat="45.86373" lon="4.65666">
        <ele>244.45157</ele>
        <time>2023-12-07T15:09:55.000Z</time>
      </trkpt>
      <trkpt lat="45.86374" lon="4.65668">
        <ele>243.47647</ele>
        <time>2023-12-07T15:10:01.000Z</time>
      </trkpt>
      <trkpt lat="45.86373" lon="4.6567">
        <ele>242.71777</ele>
        <time>2023-12-07T15:10:22.000Z</time>
      </trkpt>
      <trkpt lat="45.86374" lon="4.65668">
        <ele>242.38875</ele>
        <time>2023-12-07T15:11:04.000Z</time>
      </trkpt>
      <trkpt lat="45.86372" lon="4.6567">
        <ele>242.08752</ele>
        <time>2023-12-07T15:13:46.000Z</time>
      </trkpt>
      <trkpt lat="45.8637" lon="4.65672">
        <ele>241.77605</ele>
        <time>2023-12-07T15:13:54.000Z</time>
      </trkpt>
      <trkpt lat="45.86368" lon="4.65675">
        <ele>241.47733</ele>
        <time>2023-12-07T15:13:55.000Z</time>
      </trkpt>
      <trkpt lat="45.86366" lon="4.65678">
        <ele>241.21707</ele>
        <time>2023-12-07T15:13:56.000Z</time>
      </trkpt>
      <trkpt lat="45.86364" lon="4.65682">
        <ele>240.93706</ele>
        <time>2023-12-07T15:13:57.000Z</time>
      </trkpt>
      <trkpt lat="45.86361" lon="4.65687">
        <ele>240.66167</ele>
        <time>2023-12-07T15:13:58.000Z</time>
      </trkpt>
      <trkpt lat="45.86359" lon="4.65692">
        <ele>240.39853</ele>
        <time>2023-12-07T15:13:59.000Z</time>
      </trkpt>
      <trkpt lat="45.86357" lon="4.65696">
        <ele>240.13895</ele>
        <time>2023-12-07T15:14:00.000Z</time>
      </trkpt>
      <trkpt lat="45.86354" lon="4.65701">
        <ele>240.69002</ele>
        <time>2023-12-07T15:14:01.000Z</time>
      </trkpt>
      <trkpt lat="45.8635" lon="4.65705">
        <ele>240.56331</ele>
        <time>2023-12-07T15:14:02.000Z</time>
      </trkpt>
      <trkpt lat="45.86347" lon="4.6571">
        <ele>240.47476</ele>
        <time>2023-12-07T15:14:03.000Z</time>
      </trkpt>
      <trkpt lat="45.86344" lon="4.65716">
        <ele>240.33577</ele>
        <time>2023-12-07T15:14:04.000Z</time>
      </trkpt>
      <trkpt lat="45.8634" lon="4.65722">
        <ele>240.14627</ele>
        <time>2023-12-07T15:14:05.000Z</time>
      </trkpt>
      <trkpt lat="45.86337" lon="4.65728">
        <ele>240.38318</ele>
        <time>2023-12-07T15:14:06.000Z</time>
      </trkpt>
      <trkpt lat="45.86333" lon="4.65734">
        <ele>240.52461</ele>
        <time>2023-12-07T15:14:07.000Z</time>
      </trkpt>
      <trkpt lat="45.8633" lon="4.65739">
        <ele>240.63867</ele>
        <time>2023-12-07T15:14:08.000Z</time>
      </trkpt>
      <trkpt lat="45.86327" lon="4.65744">
        <ele>240.74272</ele>
        <time>2023-12-07T15:14:09.000Z</time>
      </trkpt>
      <trkpt lat="45.86325" lon="4.6575">
        <ele>241.29163</ele>
        <time>2023-12-07T15:14:10.000Z</time>
      </trkpt>
      <trkpt lat="45.86322" lon="4.65755">
        <ele>241.59546</ele>
        <time>2023-12-07T15:14:11.000Z</time>
      </trkpt>
      <trkpt lat="45.86318" lon="4.6576">
        <ele>241.48506</ele>
        <time>2023-12-07T15:14:12.000Z</time>
      </trkpt>
      <trkpt lat="45.86315" lon="4.65766">
        <ele>241.33817</ele>
        <time>2023-12-07T15:14:13.000Z</time>
      </trkpt>
      <trkpt lat="45.86313" lon="4.65771">
        <ele>241.22261</ele>
        <time>2023-12-07T15:14:14.000Z</time>
      </trkpt>
      <trkpt lat="45.86309" lon="4.65777">
        <ele>241.08054</ele>
        <time>2023-12-07T15:14:15.000Z</time>
      </trkpt>
      <trkpt lat="45.86306" lon="4.65781">
        <ele>240.87515</ele>
        <time>2023-12-07T15:14:16.000Z</time>
      </trkpt>
      <trkpt lat="45.86303" lon="4.65786">
        <ele>240.68079</ele>
        <time>2023-12-07T15:14:17.000Z</time>
      </trkpt>
      <trkpt lat="45.86299" lon="4.65792">
        <ele>240.49783</ele>
        <time>2023-12-07T15:14:18.000Z</time>
      </trkpt>
      <trkpt lat="45.86297" lon="4.65798">
        <ele>240.27437</ele>
        <time>2023-12-07T15:14:19.000Z</time>
      </trkpt>
      <trkpt lat="45.86294" lon="4.65804">
        <ele>240.02434</ele>
        <time>2023-12-07T15:14:20.000Z</time>
      </trkpt>
      <trkpt lat="45.8629" lon="4.6581">
        <ele>239.76224</ele>
        <time>2023-12-07T15:14:21.000Z</time>
      </trkpt>
      <trkpt lat="45.86286" lon="4.65815">
        <ele>239.81827</ele>
        <time>2023-12-07T15:14:22.000Z</time>
      </trkpt>
      <trkpt lat="45.86283" lon="4.65821">
        <ele>239.88664</ele>
        <time>2023-12-07T15:14:23.000Z</time>
      </trkpt>
      <trkpt lat="45.86279" lon="4.65828">
        <ele>239.98169</ele>
        <time>2023-12-07T15:14:24.000Z</time>
      </trkpt>
      <trkpt lat="45.86276" lon="4.65834">
        <ele>240.10843</ele>
        <time>2023-12-07T15:14:25.000Z</time>
      </trkpt>
      <trkpt lat="45.86272" lon="4.6584">
        <ele>239.79581</ele>
        <time>2023-12-07T15:14:26.000Z</time>
      </trkpt>
      <trkpt lat="45.86269" lon="4.65847">
        <ele>239.56718</ele>
        <time>2023-12-07T15:14:27.000Z</time>
      </trkpt>
      <trkpt lat="45.86266" lon="4.65852">
        <ele>239.3372</ele>
        <time>2023-12-07T15:14:28.000Z</time>
      </trkpt>
      <trkpt lat="45.86263" lon="4.65858">
        <ele>239.13647</ele>
        <time>2023-12-07T15:14:29.000Z</time>
      </trkpt>
      <trkpt lat="45.86259" lon="4.65865">
        <ele>238.9343</ele>
        <time>2023-12-07T15:14:30.000Z</time>
      </trkpt>
      <trkpt lat="45.86257" lon="4.6587">
        <ele>238.75703</ele>
        <time>2023-12-07T15:14:31.000Z</time>
      </trkpt>
      <trkpt lat="45.86253" lon="4.65877">
        <ele>238.54556</ele>
        <time>2023-12-07T15:14:32.000Z</time>
      </trkpt>
      <trkpt lat="45.86249" lon="4.65883">
        <ele>238.38284</ele>
        <time>2023-12-07T15:14:33.000Z</time>
      </trkpt>
      <trkpt lat="45.86246" lon="4.65888">
        <ele>238.23792</ele>
        <time>2023-12-07T15:14:34.000Z</time>
      </trkpt>
      <trkpt lat="45.86242" lon="4.65892">
        <ele>238.12971</ele>
        <time>2023-12-07T15:14:35.000Z</time>
      </trkpt>
      <trkpt lat="45.86239" lon="4.65895">
        <ele>238.03621</ele>
        <time>2023-12-07T15:14:36.000Z</time>
      </trkpt>
      <trkpt lat="45.86235" lon="4.65899">
        <ele>237.99829</ele>
        <time>2023-12-07T15:14:37.000Z</time>
      </trkpt>
      <trkpt lat="45.86231" lon="4.65902">
        <ele>237.96428</ele>
        <time>2023-12-07T15:14:38.000Z</time>
      </trkpt>
      <trkpt lat="45.86227" lon="4.65904">
        <ele>237.96179</ele>
        <time>2023-12-07T15:14:39.000Z</time>
      </trkpt>
      <trkpt lat="45.86223" lon="4.65907">
        <ele>237.99858</ele>
        <time>2023-12-07T15:14:40.000Z</time>
      </trkpt>
      <trkpt lat="45.8622" lon="4.65908">
        <ele>238.02548</ele>
        <time>2023-12-07T15:14:41.000Z</time>
      </trkpt>
      <trkpt lat="45.86216" lon="4.65909">
        <ele>238.06693</ele>
        <time>2023-12-07T15:14:42.000Z</time>
      </trkpt>
      <trkpt lat="45.86213" lon="4.65911">
        <ele>238.12805</ele>
        <time>2023-12-07T15:14:43.000Z</time>
      </trkpt>
      <trkpt lat="45.8621" lon="4.65913">
        <ele>238.20755</ele>
        <time>2023-12-07T15:14:44.000Z</time>
      </trkpt>
      <trkpt lat="45.86207" lon="4.65914">
        <ele>238.26315</ele>
        <time>2023-12-07T15:14:45.000Z</time>
      </trkpt>
      <trkpt lat="45.86203" lon="4.65916">
        <ele>238.19624</ele>
        <time>2023-12-07T15:14:46.000Z</time>
      </trkpt>
      <trkpt lat="45.862" lon="4.65918">
        <ele>238.10857</ele>
        <time>2023-12-07T15:14:47.000Z</time>
      </trkpt>
      <trkpt lat="45.86196" lon="4.6592">
        <ele>237.89291</ele>
        <time>2023-12-07T15:14:48.000Z</time>
      </trkpt>
      <trkpt lat="45.86193" lon="4.65922">
        <ele>238.05933</ele>
        <time>2023-12-07T15:14:49.000Z</time>
      </trkpt>
      <trkpt lat="45.86189" lon="4.65924">
        <ele>238.23116</ele>
        <time>2023-12-07T15:14:50.000Z</time>
      </trkpt>
      <trkpt lat="45.86185" lon="4.65927">
        <ele>238.40012</ele>
        <time>2023-12-07T15:14:51.000Z</time>
      </trkpt>
      <trkpt lat="45.86182" lon="4.6593">
        <ele>238.54643</ele>
        <time>2023-12-07T15:14:52.000Z</time>
      </trkpt>
      <trkpt lat="45.86178" lon="4.65933">
        <ele>238.69991</ele>
        <time>2023-12-07T15:14:53.000Z</time>
      </trkpt>
      <trkpt lat="45.86174" lon="4.65936">
        <ele>238.83011</ele>
        <time>2023-12-07T15:14:54.000Z</time>
      </trkpt>
      <trkpt lat="45.8617" lon="4.65939">
        <ele>238.92973</ele>
        <time>2023-12-07T15:14:55.000Z</time>
      </trkpt>
      <trkpt lat="45.86166" lon="4.65942">
        <ele>239.05786</ele>
        <time>2023-12-07T15:14:56.000Z</time>
      </trkpt>
      <trkpt lat="45.86162" lon="4.65945">
        <ele>239.17744</ele>
        <time>2023-12-07T15:14:57.000Z</time>
      </trkpt>
      <trkpt lat="45.8616" lon="4.65948">
        <ele>239.29843</ele>
        <time>2023-12-07T15:14:58.000Z</time>
      </trkpt>
      <trkpt lat="45.86156" lon="4.6595">
        <ele>239.41763</ele>
        <time>2023-12-07T15:14:59.000Z</time>
      </trkpt>
      <trkpt lat="45.86152" lon="4.65954">
        <ele>239.49255</ele>
        <time>2023-12-07T15:15:00.000Z</time>
      </trkpt>
      <trkpt lat="45.86148" lon="4.65958">
        <ele>239.63455</ele>
        <time>2023-12-07T15:15:01.000Z</time>
      </trkpt>
      <trkpt lat="45.86145" lon="4.65961">
        <ele>239.75659</ele>
        <time>2023-12-07T15:15:02.000Z</time>
      </trkpt>
      <trkpt lat="45.86142" lon="4.65965">
        <ele>239.84172</ele>
        <time>2023-12-07T15:15:03.000Z</time>
      </trkpt>
      <trkpt lat="45.86138" lon="4.65968">
        <ele>239.90788</ele>
        <time>2023-12-07T15:15:04.000Z</time>
      </trkpt>
      <trkpt lat="45.86134" lon="4.65972">
        <ele>239.97949</ele>
        <time>2023-12-07T15:15:05.000Z</time>
      </trkpt>
      <trkpt lat="45.86129" lon="4.65974">
        <ele>240.20049</ele>
        <time>2023-12-07T15:15:06.000Z</time>
      </trkpt>
      <trkpt lat="45.86125" lon="4.65974">
        <ele>240.47498</ele>
        <time>2023-12-07T15:15:07.000Z</time>
      </trkpt>
      <trkpt lat="45.86122" lon="4.65973">
        <ele>240.88445</ele>
        <time>2023-12-07T15:15:08.000Z</time>
      </trkpt>
      <trkpt lat="45.86119" lon="4.65971">
        <ele>240.91934</ele>
        <time>2023-12-07T15:15:09.000Z</time>
      </trkpt>
      <trkpt lat="45.86116" lon="4.65969">
        <ele>241.00967</ele>
        <time>2023-12-07T15:15:10.000Z</time>
      </trkpt>
      <trkpt lat="45.86113" lon="4.65968">
        <ele>241.12259</ele>
        <time>2023-12-07T15:15:11.000Z</time>
      </trkpt>
      <trkpt lat="45.86109" lon="4.65968">
        <ele>241.30786</ele>
        <time>2023-12-07T15:15:12.000Z</time>
      </trkpt>
      <trkpt lat="45.86106" lon="4.6597">
        <ele>241.42319</ele>
        <time>2023-12-07T15:15:13.000Z</time>
      </trkpt>
      <trkpt lat="45.86104" lon="4.65974">
        <ele>241.36099</ele>
        <time>2023-12-07T15:15:14.000Z</time>
      </trkpt>
      <trkpt lat="45.86102" lon="4.65979">
        <ele>241.31567</ele>
        <time>2023-12-07T15:15:15.000Z</time>
      </trkpt>
      <trkpt lat="45.861" lon="4.65984">
        <ele>241.26826</ele>
        <time>2023-12-07T15:15:16.000Z</time>
      </trkpt>
      <trkpt lat="45.86098" lon="4.65989">
        <ele>241.21768</ele>
        <time>2023-12-07T15:15:17.000Z</time>
      </trkpt>
      <trkpt lat="45.86096" lon="4.65994">
        <ele>241.01953</ele>
        <time>2023-12-07T15:15:18.000Z</time>
      </trkpt>
      <trkpt lat="45.86093" lon="4.65999">
        <ele>241.20976</ele>
        <time>2023-12-07T15:15:19.000Z</time>
      </trkpt>
      <trkpt lat="45.86091" lon="4.66004">
        <ele>241.34464</ele>
        <time>2023-12-07T15:15:20.000Z</time>
      </trkpt>
      <trkpt lat="45.86089" lon="4.6601">
        <ele>241.3887</ele>
        <time>2023-12-07T15:15:21.000Z</time>
      </trkpt>
      <trkpt lat="45.86088" lon="4.66015">
        <ele>241.43069</ele>
        <time>2023-12-07T15:15:22.000Z</time>
      </trkpt>
      <trkpt lat="45.86086" lon="4.6602">
        <ele>241.47517</ele>
        <time>2023-12-07T15:15:23.000Z</time>
      </trkpt>
      <trkpt lat="45.86084" lon="4.66024">
        <ele>241.31046</ele>
        <time>2023-12-07T15:15:24.000Z</time>
      </trkpt>
      <trkpt lat="45.86082" lon="4.66028">
        <ele>241.04338</ele>
        <time>2023-12-07T15:15:25.000Z</time>
      </trkpt>
      <trkpt lat="45.86081" lon="4.66032">
        <ele>241.23601</ele>
        <time>2023-12-07T15:15:26.000Z</time>
      </trkpt>
      <trkpt lat="45.86079" lon="4.66036">
        <ele>241.36905</ele>
        <time>2023-12-07T15:15:27.000Z</time>
      </trkpt>
      <trkpt lat="45.86078" lon="4.6604">
        <ele>241.53377</ele>
        <time>2023-12-07T15:15:28.000Z</time>
      </trkpt>
      <trkpt lat="45.86077" lon="4.66044">
        <ele>241.66019</ele>
        <time>2023-12-07T15:15:29.000Z</time>
      </trkpt>
      <trkpt lat="45.86076" lon="4.66048">
        <ele>241.70572</ele>
        <time>2023-12-07T15:15:30.000Z</time>
      </trkpt>
      <trkpt lat="45.86077" lon="4.66052">
        <ele>241.69321</ele>
        <time>2023-12-07T15:15:31.000Z</time>
      </trkpt>
      <trkpt lat="45.86077" lon="4.66057">
        <ele>241.62215</ele>
        <time>2023-12-07T15:15:32.000Z</time>
      </trkpt>
      <trkpt lat="45.86077" lon="4.66064">
        <ele>241.59909</ele>
        <time>2023-12-07T15:15:33.000Z</time>
      </trkpt>
      <trkpt lat="45.86078" lon="4.6607">
        <ele>241.76089</ele>
        <time>2023-12-07T15:15:34.000Z</time>
      </trkpt>
      <trkpt lat="45.86078" lon="4.66075">
        <ele>241.86824</ele>
        <time>2023-12-07T15:15:35.000Z</time>
      </trkpt>
      <trkpt lat="45.86078" lon="4.66083">
        <ele>241.94962</ele>
        <time>2023-12-07T15:15:36.000Z</time>
      </trkpt>
      <trkpt lat="45.86078" lon="4.66089">
        <ele>242.01932</ele>
        <time>2023-12-07T15:15:37.000Z</time>
      </trkpt>
      <trkpt lat="45.86078" lon="4.66097">
        <ele>242.19458</ele>
        <time>2023-12-07T15:15:38.000Z</time>
      </trkpt>
      <trkpt lat="45.8608" lon="4.66104">
        <ele>241.97319</ele>
        <time>2023-12-07T15:15:39.000Z</time>
      </trkpt>
      <trkpt lat="45.86081" lon="4.6611">
        <ele>241.80879</ele>
        <time>2023-12-07T15:15:40.000Z</time>
      </trkpt>
      <trkpt lat="45.86083" lon="4.66117">
        <ele>241.65022</ele>
        <time>2023-12-07T15:15:41.000Z</time>
      </trkpt>
      <trkpt lat="45.86084" lon="4.66123">
        <ele>241.48621</ele>
        <time>2023-12-07T15:15:42.000Z</time>
      </trkpt>
      <trkpt lat="45.86086" lon="4.66128">
        <ele>241.15996</ele>
        <time>2023-12-07T15:15:43.000Z</time>
      </trkpt>
      <trkpt lat="45.86088" lon="4.66133">
        <ele>241.05295</ele>
        <time>2023-12-07T15:15:44.000Z</time>
      </trkpt>
      <trkpt lat="45.8609" lon="4.6614">
        <ele>241.04623</ele>
        <time>2023-12-07T15:15:45.000Z</time>
      </trkpt>
      <trkpt lat="45.86091" lon="4.66146">
        <ele>240.49773</ele>
        <time>2023-12-07T15:15:46.000Z</time>
      </trkpt>
      <trkpt lat="45.86092" lon="4.66152">
        <ele>239.93802</ele>
        <time>2023-12-07T15:15:47.000Z</time>
      </trkpt>
      <trkpt lat="45.86093" lon="4.6616">
        <ele>239.43539</ele>
        <time>2023-12-07T15:15:48.000Z</time>
      </trkpt>
      <trkpt lat="45.86094" lon="4.66167">
        <ele>238.95462</ele>
        <time>2023-12-07T15:15:49.000Z</time>
      </trkpt>
      <trkpt lat="45.86096" lon="4.66175">
        <ele>238.54129</ele>
        <time>2023-12-07T15:15:50.000Z</time>
      </trkpt>
      <trkpt lat="45.86096" lon="4.66182">
        <ele>238.17236</ele>
        <time>2023-12-07T15:15:51.000Z</time>
      </trkpt>
      <trkpt lat="45.86098" lon="4.66189">
        <ele>237.76355</ele>
        <time>2023-12-07T15:15:52.000Z</time>
      </trkpt>
      <trkpt lat="45.86099" lon="4.66196">
        <ele>237.26872</ele>
        <time>2023-12-07T15:15:53.000Z</time>
      </trkpt>
      <trkpt lat="45.86099" lon="4.66203">
        <ele>237.11186</ele>
        <time>2023-12-07T15:15:54.000Z</time>
      </trkpt>
      <trkpt lat="45.86098" lon="4.6621">
        <ele>236.93625</ele>
        <time>2023-12-07T15:15:55.000Z</time>
      </trkpt>
      <trkpt lat="45.86096" lon="4.66218">
        <ele>236.77998</ele>
        <time>2023-12-07T15:15:56.000Z</time>
      </trkpt>
      <trkpt lat="45.86094" lon="4.66223">
        <ele>236.65117</ele>
        <time>2023-12-07T15:15:57.000Z</time>
      </trkpt>
      <trkpt lat="45.86092" lon="4.66229">
        <ele>236.52048</ele>
        <time>2023-12-07T15:15:58.000Z</time>
      </trkpt>
      <trkpt lat="45.86088" lon="4.66234">
        <ele>236.42744</ele>
        <time>2023-12-07T15:15:59.000Z</time>
      </trkpt>
      <trkpt lat="45.86085" lon="4.66239">
        <ele>236.34016</ele>
        <time>2023-12-07T15:16:00.000Z</time>
      </trkpt>
      <trkpt lat="45.86082" lon="4.66243">
        <ele>236.28215</ele>
        <time>2023-12-07T15:16:01.000Z</time>
      </trkpt>
      <trkpt lat="45.86078" lon="4.66246">
        <ele>236.21126</ele>
        <time>2023-12-07T15:16:02.000Z</time>
      </trkpt>
      <trkpt lat="45.86074" lon="4.66249">
        <ele>236.07358</ele>
        <time>2023-12-07T15:16:03.000Z</time>
      </trkpt>
      <trkpt lat="45.86071" lon="4.66252">
        <ele>235.96289</ele>
        <time>2023-12-07T15:16:04.000Z</time>
      </trkpt>
      <trkpt lat="45.86067" lon="4.66256">
        <ele>235.79207</ele>
        <time>2023-12-07T15:16:05.000Z</time>
      </trkpt>
      <trkpt lat="45.86064" lon="4.66258">
        <ele>235.64316</ele>
        <time>2023-12-07T15:16:06.000Z</time>
      </trkpt>
      <trkpt lat="45.86061" lon="4.66262">
        <ele>235.94266</ele>
        <time>2023-12-07T15:16:07.000Z</time>
      </trkpt>
      <trkpt lat="45.86059" lon="4.66266">
        <ele>236.06245</ele>
        <time>2023-12-07T15:16:08.000Z</time>
      </trkpt>
      <trkpt lat="45.86057" lon="4.6627">
        <ele>236.17598</ele>
        <time>2023-12-07T15:16:09.000Z</time>
      </trkpt>
      <trkpt lat="45.86054" lon="4.66273">
        <ele>236.34085</ele>
        <time>2023-12-07T15:16:10.000Z</time>
      </trkpt>
      <trkpt lat="45.86053" lon="4.66278">
        <ele>236.53279</ele>
        <time>2023-12-07T15:16:11.000Z</time>
      </trkpt>
      <trkpt lat="45.8605" lon="4.66282">
        <ele>236.83521</ele>
        <time>2023-12-07T15:16:12.000Z</time>
      </trkpt>
      <trkpt lat="45.86048" lon="4.66286">
        <ele>237.22054</ele>
        <time>2023-12-07T15:16:13.000Z</time>
      </trkpt>
      <trkpt lat="45.86045" lon="4.6629">
        <ele>237.19727</ele>
        <time>2023-12-07T15:16:14.000Z</time>
      </trkpt>
      <trkpt lat="45.86043" lon="4.66294">
        <ele>237.23044</ele>
        <time>2023-12-07T15:16:15.000Z</time>
      </trkpt>
      <trkpt lat="45.86041" lon="4.66298">
        <ele>237.27917</ele>
        <time>2023-12-07T15:16:16.000Z</time>
      </trkpt>
      <trkpt lat="45.8604" lon="4.66301">
        <ele>237.21651</ele>
        <time>2023-12-07T15:16:17.000Z</time>
      </trkpt>
      <trkpt lat="45.86037" lon="4.66305">
        <ele>236.97957</ele>
        <time>2023-12-07T15:16:18.000Z</time>
      </trkpt>
      <trkpt lat="45.86035" lon="4.66308">
        <ele>236.68704</ele>
        <time>2023-12-07T15:16:19.000Z</time>
      </trkpt>
      <trkpt lat="45.86032" lon="4.66311">
        <ele>236.76895</ele>
        <time>2023-12-07T15:16:20.000Z</time>
      </trkpt>
      <trkpt lat="45.8603" lon="4.66314">
        <ele>236.64336</ele>
        <time>2023-12-07T15:16:21.000Z</time>
      </trkpt>
      <trkpt lat="45.86027" lon="4.66317">
        <ele>236.65572</ele>
        <time>2023-12-07T15:16:22.000Z</time>
      </trkpt>
      <trkpt lat="45.86024" lon="4.66321">
        <ele>236.91304</ele>
        <time>2023-12-07T15:16:23.000Z</time>
      </trkpt>
      <trkpt lat="45.86021" lon="4.66327">
        <ele>237.16609</ele>
        <time>2023-12-07T15:16:24.000Z</time>
      </trkpt>
      <trkpt lat="45.86017" lon="4.66333">
        <ele>237.45236</ele>
        <time>2023-12-07T15:16:25.000Z</time>
      </trkpt>
      <trkpt lat="45.86014" lon="4.66338">
        <ele>237.80875</ele>
        <time>2023-12-07T15:16:26.000Z</time>
      </trkpt>
      <trkpt lat="45.86011" lon="4.66344">
        <ele>237.75156</ele>
        <time>2023-12-07T15:16:27.000Z</time>
      </trkpt>
      <trkpt lat="45.86008" lon="4.66349">
        <ele>237.79839</ele>
        <time>2023-12-07T15:16:28.000Z</time>
      </trkpt>
      <trkpt lat="45.86004" lon="4.66355">
        <ele>237.84578</ele>
        <time>2023-12-07T15:16:29.000Z</time>
      </trkpt>
      <trkpt lat="45.86001" lon="4.66361">
        <ele>237.78889</ele>
        <time>2023-12-07T15:16:30.000Z</time>
      </trkpt>
      <trkpt lat="45.85998" lon="4.66366">
        <ele>237.71255</ele>
        <time>2023-12-07T15:16:31.000Z</time>
      </trkpt>
      <trkpt lat="45.85996" lon="4.66371">
        <ele>237.59294</ele>
        <time>2023-12-07T15:16:32.000Z</time>
      </trkpt>
      <trkpt lat="45.85992" lon="4.66376">
        <ele>237.44922</ele>
        <time>2023-12-07T15:16:33.000Z</time>
      </trkpt>
      <trkpt lat="45.8599" lon="4.66382">
        <ele>237.24283</ele>
        <time>2023-12-07T15:16:34.000Z</time>
      </trkpt>
      <trkpt lat="45.85987" lon="4.66387">
        <ele>237.06201</ele>
        <time>2023-12-07T15:16:35.000Z</time>
      </trkpt>
      <trkpt lat="45.85984" lon="4.66393">
        <ele>236.86365</ele>
        <time>2023-12-07T15:16:36.000Z</time>
      </trkpt>
      <trkpt lat="45.85982" lon="4.66398">
        <ele>236.65039</ele>
        <time>2023-12-07T15:16:37.000Z</time>
      </trkpt>
      <trkpt lat="45.8598" lon="4.66402">
        <ele>236.60735</ele>
        <time>2023-12-07T15:16:38.000Z</time>
      </trkpt>
      <trkpt lat="45.85976" lon="4.66408">
        <ele>236.88724</ele>
        <time>2023-12-07T15:16:39.000Z</time>
      </trkpt>
      <trkpt lat="45.85975" lon="4.66414">
        <ele>236.75562</ele>
        <time>2023-12-07T15:16:40.000Z</time>
      </trkpt>
      <trkpt lat="45.85971" lon="4.6642">
        <ele>236.88181</ele>
        <time>2023-12-07T15:16:41.000Z</time>
      </trkpt>
      <trkpt lat="45.85969" lon="4.66427">
        <ele>236.88289</ele>
        <time>2023-12-07T15:16:42.000Z</time>
      </trkpt>
      <trkpt lat="45.85965" lon="4.66431">
        <ele>236.88004</ele>
        <time>2023-12-07T15:16:43.000Z</time>
      </trkpt>
      <trkpt lat="45.85962" lon="4.66437">
        <ele>236.83432</ele>
        <time>2023-12-07T15:16:44.000Z</time>
      </trkpt>
      <trkpt lat="45.85959" lon="4.66442">
        <ele>236.82866</ele>
        <time>2023-12-07T15:16:45.000Z</time>
      </trkpt>
      <trkpt lat="45.85955" lon="4.66449">
        <ele>236.77548</ele>
        <time>2023-12-07T15:16:46.000Z</time>
      </trkpt>
      <trkpt lat="45.85951" lon="4.66456">
        <ele>236.74329</ele>
        <time>2023-12-07T15:16:47.000Z</time>
      </trkpt>
      <trkpt lat="45.85947" lon="4.66461">
        <ele>236.495</ele>
        <time>2023-12-07T15:16:48.000Z</time>
      </trkpt>
      <trkpt lat="45.85943" lon="4.66466">
        <ele>236.2493</ele>
        <time>2023-12-07T15:16:49.000Z</time>
      </trkpt>
      <trkpt lat="45.8594" lon="4.66469">
        <ele>235.98022</ele>
        <time>2023-12-07T15:16:50.000Z</time>
      </trkpt>
      <trkpt lat="45.85936" lon="4.66474">
        <ele>236.03799</ele>
        <time>2023-12-07T15:16:51.000Z</time>
      </trkpt>
      <trkpt lat="45.85932" lon="4.66478">
        <ele>236.02194</ele>
        <time>2023-12-07T15:16:52.000Z</time>
      </trkpt>
      <trkpt lat="45.85928" lon="4.66481">
        <ele>236.01376</ele>
        <time>2023-12-07T15:16:53.000Z</time>
      </trkpt>
      <trkpt lat="45.85923" lon="4.66484">
        <ele>236.1254</ele>
        <time>2023-12-07T15:16:54.000Z</time>
      </trkpt>
      <trkpt lat="45.8592" lon="4.66488">
        <ele>236.20854</ele>
        <time>2023-12-07T15:16:55.000Z</time>
      </trkpt>
      <trkpt lat="45.85915" lon="4.66493">
        <ele>236.15669</ele>
        <time>2023-12-07T15:16:56.000Z</time>
      </trkpt>
      <trkpt lat="45.8591" lon="4.66497">
        <ele>236.21548</ele>
        <time>2023-12-07T15:16:57.000Z</time>
      </trkpt>
      <trkpt lat="45.85906" lon="4.665">
        <ele>236.23706</ele>
        <time>2023-12-07T15:16:58.000Z</time>
      </trkpt>
      <trkpt lat="45.85901" lon="4.66503">
        <ele>235.95137</ele>
        <time>2023-12-07T15:16:59.000Z</time>
      </trkpt>
      <trkpt lat="45.85896" lon="4.66505">
        <ele>235.70947</ele>
        <time>2023-12-07T15:17:00.000Z</time>
      </trkpt>
      <trkpt lat="45.85892" lon="4.66506">
        <ele>235.7554</ele>
        <time>2023-12-07T15:17:01.000Z</time>
      </trkpt>
      <trkpt lat="45.85888" lon="4.66505">
        <ele>235.71721</ele>
        <time>2023-12-07T15:17:02.000Z</time>
      </trkpt>
      <trkpt lat="45.85885" lon="4.66502">
        <ele>235.70834</ele>
        <time>2023-12-07T15:17:03.000Z</time>
      </trkpt>
      <trkpt lat="45.85881" lon="4.665">
        <ele>235.50179</ele>
        <time>2023-12-07T15:17:04.000Z</time>
      </trkpt>
      <trkpt lat="45.85879" lon="4.66495">
        <ele>235.62231</ele>
        <time>2023-12-07T15:17:05.000Z</time>
      </trkpt>
      <trkpt lat="45.85875" lon="4.66492">
        <ele>235.64041</ele>
        <time>2023-12-07T15:17:06.000Z</time>
      </trkpt>
      <trkpt lat="45.85873" lon="4.66488">
        <ele>235.64197</ele>
        <time>2023-12-07T15:17:07.000Z</time>
      </trkpt>
      <trkpt lat="45.8587" lon="4.66484">
        <ele>235.89694</ele>
        <time>2023-12-07T15:17:08.000Z</time>
      </trkpt>
      <trkpt lat="45.85867" lon="4.66481">
        <ele>236.1611</ele>
        <time>2023-12-07T15:17:09.000Z</time>
      </trkpt>
      <trkpt lat="45.85865" lon="4.66478">
        <ele>236.505</ele>
        <time>2023-12-07T15:17:10.000Z</time>
      </trkpt>
      <trkpt lat="45.85863" lon="4.66476">
        <ele>236.5031</ele>
        <time>2023-12-07T15:17:11.000Z</time>
      </trkpt>
      <trkpt lat="45.8586" lon="4.66475">
        <ele>236.57559</ele>
        <time>2023-12-07T15:17:12.000Z</time>
      </trkpt>
      <trkpt lat="45.85857" lon="4.66477">
        <ele>236.61508</ele>
        <time>2023-12-07T15:17:13.000Z</time>
      </trkpt>
      <trkpt lat="45.85855" lon="4.66482">
        <ele>236.67464</ele>
        <time>2023-12-07T15:17:14.000Z</time>
      </trkpt>
      <trkpt lat="45.85854" lon="4.66488">
        <ele>236.71017</ele>
        <time>2023-12-07T15:17:15.000Z</time>
      </trkpt>
      <trkpt lat="45.85854" lon="4.66497">
        <ele>236.86475</ele>
        <time>2023-12-07T15:17:16.000Z</time>
      </trkpt>
      <trkpt lat="45.85853" lon="4.66504">
        <ele>236.98056</ele>
        <time>2023-12-07T15:17:17.000Z</time>
      </trkpt>
      <trkpt lat="45.85851" lon="4.66512">
        <ele>237.13713</ele>
        <time>2023-12-07T15:17:18.000Z</time>
      </trkpt>
      <trkpt lat="45.8585" lon="4.66518">
        <ele>237.31717</ele>
        <time>2023-12-07T15:17:19.000Z</time>
      </trkpt>
      <trkpt lat="45.85848" lon="4.66524">
        <ele>237.51685</ele>
        <time>2023-12-07T15:17:20.000Z</time>
      </trkpt>
      <trkpt lat="45.85847" lon="4.66531">
        <ele>237.36162</ele>
        <time>2023-12-07T15:17:21.000Z</time>
      </trkpt>
      <trkpt lat="45.85845" lon="4.66537">
        <ele>237.1115</ele>
        <time>2023-12-07T15:17:22.000Z</time>
      </trkpt>
      <trkpt lat="45.85843" lon="4.66542">
        <ele>236.82939</ele>
        <time>2023-12-07T15:17:23.000Z</time>
      </trkpt>
      <trkpt lat="45.85841" lon="4.66547">
        <ele>236.77658</ele>
        <time>2023-12-07T15:17:24.000Z</time>
      </trkpt>
      <trkpt lat="45.8584" lon="4.66553">
        <ele>236.39322</ele>
        <time>2023-12-07T15:17:25.000Z</time>
      </trkpt>
      <trkpt lat="45.85839" lon="4.66557">
        <ele>236.08774</ele>
        <time>2023-12-07T15:17:26.000Z</time>
      </trkpt>
      <trkpt lat="45.85837" lon="4.66562">
        <ele>235.76358</ele>
        <time>2023-12-07T15:17:27.000Z</time>
      </trkpt>
      <trkpt lat="45.85835" lon="4.66566">
        <ele>235.4001</ele>
        <time>2023-12-07T15:17:28.000Z</time>
      </trkpt>
      <trkpt lat="45.85833" lon="4.6657">
        <ele>234.97038</ele>
        <time>2023-12-07T15:17:29.000Z</time>
      </trkpt>
      <trkpt lat="45.85831" lon="4.66574">
        <ele>234.46049</ele>
        <time>2023-12-07T15:17:30.000Z</time>
      </trkpt>
      <trkpt lat="45.85829" lon="4.66578">
        <ele>234.27242</ele>
        <time>2023-12-07T15:17:31.000Z</time>
      </trkpt>
      <trkpt lat="45.85826" lon="4.66582">
        <ele>234.02507</ele>
        <time>2023-12-07T15:17:32.000Z</time>
      </trkpt>
      <trkpt lat="45.85824" lon="4.66586">
        <ele>233.78098</ele>
        <time>2023-12-07T15:17:33.000Z</time>
      </trkpt>
      <trkpt lat="45.85821" lon="4.6659">
        <ele>233.50876</ele>
        <time>2023-12-07T15:17:34.000Z</time>
      </trkpt>
      <trkpt lat="45.85823" lon="4.66597">
        <ele>233.1171</ele>
        <time>2023-12-07T15:17:35.000Z</time>
      </trkpt>
      <trkpt lat="45.85825" lon="4.66603">
        <ele>232.71574</ele>
        <time>2023-12-07T15:17:36.000Z</time>
      </trkpt>
      <trkpt lat="45.85827" lon="4.6661">
        <ele>232.30789</ele>
        <time>2023-12-07T15:17:37.000Z</time>
      </trkpt>
      <trkpt lat="45.8583" lon="4.66618">
        <ele>231.88919</ele>
        <time>2023-12-07T15:17:38.000Z</time>
      </trkpt>
      <trkpt lat="45.85835" lon="4.66625">
        <ele>231.38412</ele>
        <time>2023-12-07T15:17:39.000Z</time>
      </trkpt>
      <trkpt lat="45.85839" lon="4.66632">
        <ele>230.81302</ele>
        <time>2023-12-07T15:17:40.000Z</time>
      </trkpt>
      <trkpt lat="45.85844" lon="4.6664">
        <ele>230.45219</ele>
        <time>2023-12-07T15:17:41.000Z</time>
      </trkpt>
      <trkpt lat="45.85849" lon="4.66647">
        <ele>230.18372</ele>
        <time>2023-12-07T15:17:42.000Z</time>
      </trkpt>
      <trkpt lat="45.85855" lon="4.66652">
        <ele>229.87407</ele>
        <time>2023-12-07T15:17:43.000Z</time>
      </trkpt>
      <trkpt lat="45.85861" lon="4.66655">
        <ele>229.5334</ele>
        <time>2023-12-07T15:17:44.000Z</time>
      </trkpt>
      <trkpt lat="45.85866" lon="4.66658">
        <ele>229.17773</ele>
        <time>2023-12-07T15:17:45.000Z</time>
      </trkpt>
      <trkpt lat="45.8587" lon="4.66663">
        <ele>228.86089</ele>
        <time>2023-12-07T15:17:46.000Z</time>
      </trkpt>
      <trkpt lat="45.85873" lon="4.6667">
        <ele>228.52014</ele>
        <time>2023-12-07T15:17:47.000Z</time>
      </trkpt>
      <trkpt lat="45.85874" lon="4.66678">
        <ele>228.16574</ele>
        <time>2023-12-07T15:17:48.000Z</time>
      </trkpt>
      <trkpt lat="45.8587" lon="4.66685">
        <ele>227.84412</ele>
        <time>2023-12-07T15:17:49.000Z</time>
      </trkpt>
      <trkpt lat="45.85866" lon="4.66691">
        <ele>227.54024</ele>
        <time>2023-12-07T15:17:50.000Z</time>
      </trkpt>
      <trkpt lat="45.85859" lon="4.66694">
        <ele>226.90134</ele>
        <time>2023-12-07T15:17:51.000Z</time>
      </trkpt>
      <trkpt lat="45.85852" lon="4.66697">
        <ele>226.28439</ele>
        <time>2023-12-07T15:17:52.000Z</time>
      </trkpt>
      <trkpt lat="45.85844" lon="4.66699">
        <ele>225.64294</ele>
        <time>2023-12-07T15:17:53.000Z</time>
      </trkpt>
      <trkpt lat="45.85835" lon="4.667">
        <ele>224.96603</ele>
        <time>2023-12-07T15:17:54.000Z</time>
      </trkpt>
      <trkpt lat="45.85826" lon="4.66703">
        <ele>224.41415</ele>
        <time>2023-12-07T15:17:55.000Z</time>
      </trkpt>
      <trkpt lat="45.85817" lon="4.66708">
        <ele>223.86423</ele>
        <time>2023-12-07T15:17:56.000Z</time>
      </trkpt>
      <trkpt lat="45.8581" lon="4.66717">
        <ele>223.31783</ele>
        <time>2023-12-07T15:17:57.000Z</time>
      </trkpt>
      <trkpt lat="45.85805" lon="4.66726">
        <ele>222.80415</ele>
        <time>2023-12-07T15:17:58.000Z</time>
      </trkpt>
      <trkpt lat="45.858" lon="4.66736">
        <ele>222.33582</ele>
        <time>2023-12-07T15:17:59.000Z</time>
      </trkpt>
      <trkpt lat="45.85796" lon="4.66748">
        <ele>221.90007</ele>
        <time>2023-12-07T15:18:00.000Z</time>
      </trkpt>
      <trkpt lat="45.85793" lon="4.66759">
        <ele>221.25928</ele>
        <time>2023-12-07T15:18:01.000Z</time>
      </trkpt>
      <trkpt lat="45.85789" lon="4.6677">
        <ele>220.68689</ele>
        <time>2023-12-07T15:18:02.000Z</time>
      </trkpt>
      <trkpt lat="45.85786" lon="4.66784">
        <ele>220.14832</ele>
        <time>2023-12-07T15:18:03.000Z</time>
      </trkpt>
      <trkpt lat="45.85781" lon="4.66796">
        <ele>219.62949</ele>
        <time>2023-12-07T15:18:04.000Z</time>
      </trkpt>
      <trkpt lat="45.85776" lon="4.66806">
        <ele>219.09348</ele>
        <time>2023-12-07T15:18:05.000Z</time>
      </trkpt>
      <trkpt lat="45.8577" lon="4.66814">
        <ele>218.56168</ele>
        <time>2023-12-07T15:18:06.000Z</time>
      </trkpt>
      <trkpt lat="45.85763" lon="4.66821">
        <ele>218.02412</ele>
        <time>2023-12-07T15:18:07.000Z</time>
      </trkpt>
      <trkpt lat="45.85756" lon="4.66826">
        <ele>217.48079</ele>
        <time>2023-12-07T15:18:08.000Z</time>
      </trkpt>
      <trkpt lat="45.85747" lon="4.66829">
        <ele>216.93985</ele>
        <time>2023-12-07T15:18:09.000Z</time>
      </trkpt>
      <trkpt lat="45.85738" lon="4.6683">
        <ele>216.37729</ele>
        <time>2023-12-07T15:18:10.000Z</time>
      </trkpt>
      <trkpt lat="45.85729" lon="4.6683">
        <ele>215.81705</ele>
        <time>2023-12-07T15:18:11.000Z</time>
      </trkpt>
      <trkpt lat="45.8572" lon="4.6683">
        <ele>215.27434</ele>
        <time>2023-12-07T15:18:12.000Z</time>
      </trkpt>
      <trkpt lat="45.85711" lon="4.6683">
        <ele>214.75346</ele>
        <time>2023-12-07T15:18:13.000Z</time>
      </trkpt>
      <trkpt lat="45.85704" lon="4.66832">
        <ele>214.25378</ele>
        <time>2023-12-07T15:18:14.000Z</time>
      </trkpt>
      <trkpt lat="45.85696" lon="4.66835">
        <ele>213.78342</ele>
        <time>2023-12-07T15:18:15.000Z</time>
      </trkpt>
      <trkpt lat="45.85691" lon="4.6684">
        <ele>213.30197</ele>
        <time>2023-12-07T15:18:16.000Z</time>
      </trkpt>
      <trkpt lat="45.85687" lon="4.66845">
        <ele>212.82849</ele>
        <time>2023-12-07T15:18:17.000Z</time>
      </trkpt>
      <trkpt lat="45.85685" lon="4.66849">
        <ele>212.36003</ele>
        <time>2023-12-07T15:18:18.000Z</time>
      </trkpt>
      <trkpt lat="45.85683" lon="4.66855">
        <ele>211.92117</ele>
        <time>2023-12-07T15:18:19.000Z</time>
      </trkpt>
      <trkpt lat="45.85684" lon="4.66862">
        <ele>211.48535</ele>
        <time>2023-12-07T15:18:20.000Z</time>
      </trkpt>
      <trkpt lat="45.85685" lon="4.66868">
        <ele>211.03633</ele>
        <time>2023-12-07T15:18:21.000Z</time>
      </trkpt>
      <trkpt lat="45.85688" lon="4.66873">
        <ele>210.58643</ele>
        <time>2023-12-07T15:18:22.000Z</time>
      </trkpt>
      <trkpt lat="45.85691" lon="4.6688">
        <ele>210.13602</ele>
        <time>2023-12-07T15:18:23.000Z</time>
      </trkpt>
      <trkpt lat="45.85692" lon="4.66887">
        <ele>209.71982</ele>
        <time>2023-12-07T15:18:24.000Z</time>
      </trkpt>
      <trkpt lat="45.85693" lon="4.66892">
        <ele>209.33415</ele>
        <time>2023-12-07T15:18:25.000Z</time>
      </trkpt>
      <trkpt lat="45.85692" lon="4.66895">
        <ele>208.96745</ele>
        <time>2023-12-07T15:18:26.000Z</time>
      </trkpt>
      <trkpt lat="45.85692" lon="4.66899">
        <ele>208.6086</ele>
        <time>2023-12-07T15:18:27.000Z</time>
      </trkpt>
      <trkpt lat="45.85689" lon="4.66903">
        <ele>208.29936</ele>
        <time>2023-12-07T15:18:28.000Z</time>
      </trkpt>
      <trkpt lat="45.85685" lon="4.66905">
        <ele>207.97905</ele>
        <time>2023-12-07T15:18:29.000Z</time>
      </trkpt>
      <trkpt lat="45.85681" lon="4.66908">
        <ele>207.70406</ele>
        <time>2023-12-07T15:18:30.000Z</time>
      </trkpt>
      <trkpt lat="45.85675" lon="4.66909">
        <ele>207.44144</ele>
        <time>2023-12-07T15:18:31.000Z</time>
      </trkpt>
      <trkpt lat="45.85669" lon="4.66911">
        <ele>207.21123</ele>
        <time>2023-12-07T15:18:32.000Z</time>
      </trkpt>
      <trkpt lat="45.85663" lon="4.66912">
        <ele>206.99455</ele>
        <time>2023-12-07T15:18:33.000Z</time>
      </trkpt>
      <trkpt lat="45.85657" lon="4.66913">
        <ele>206.81316</ele>
        <time>2023-12-07T15:18:34.000Z</time>
      </trkpt>
      <trkpt lat="45.85652" lon="4.66912">
        <ele>206.6591</ele>
        <time>2023-12-07T15:18:35.000Z</time>
      </trkpt>
      <trkpt lat="45.85646" lon="4.66914">
        <ele>206.53398</ele>
        <time>2023-12-07T15:18:36.000Z</time>
      </trkpt>
      <trkpt lat="45.8564" lon="4.66914">
        <ele>206.40388</ele>
        <time>2023-12-07T15:18:37.000Z</time>
      </trkpt>
      <trkpt lat="45.85634" lon="4.66917">
        <ele>206.25491</ele>
        <time>2023-12-07T15:18:38.000Z</time>
      </trkpt>
      <trkpt lat="45.85627" lon="4.66919">
        <ele>206.10258</ele>
        <time>2023-12-07T15:18:39.000Z</time>
      </trkpt>
      <trkpt lat="45.85621" lon="4.66922">
        <ele>205.93991</ele>
        <time>2023-12-07T15:18:40.000Z</time>
      </trkpt>
      <trkpt lat="45.85614" lon="4.66925">
        <ele>205.78519</ele>
        <time>2023-12-07T15:18:41.000Z</time>
      </trkpt>
      <trkpt lat="45.85608" lon="4.66927">
        <ele>205.65097</ele>
        <time>2023-12-07T15:18:42.000Z</time>
      </trkpt>
      <trkpt lat="45.856" lon="4.6693">
        <ele>205.50626</ele>
        <time>2023-12-07T15:18:43.000Z</time>
      </trkpt>
      <trkpt lat="45.85594" lon="4.66933">
        <ele>205.34595</ele>
        <time>2023-12-07T15:18:44.000Z</time>
      </trkpt>
      <trkpt lat="45.85589" lon="4.66935">
        <ele>205.18222</ele>
        <time>2023-12-07T15:18:45.000Z</time>
      </trkpt>
      <trkpt lat="45.85584" lon="4.66937">
        <ele>205.01363</ele>
        <time>2023-12-07T15:18:46.000Z</time>
      </trkpt>
      <trkpt lat="45.85579" lon="4.66938">
        <ele>204.88411</ele>
        <time>2023-12-07T15:18:47.000Z</time>
      </trkpt>
      <trkpt lat="45.85571" lon="4.66939">
        <ele>204.75739</ele>
        <time>2023-12-07T15:18:48.000Z</time>
      </trkpt>
      <trkpt lat="45.85565" lon="4.66941">
        <ele>204.66154</ele>
        <time>2023-12-07T15:18:49.000Z</time>
      </trkpt>
      <trkpt lat="45.8556" lon="4.66941">
        <ele>204.59851</ele>
        <time>2023-12-07T15:18:50.000Z</time>
      </trkpt>
      <trkpt lat="45.85554" lon="4.66942">
        <ele>204.53172</ele>
        <time>2023-12-07T15:18:51.000Z</time>
      </trkpt>
      <trkpt lat="45.85548" lon="4.66944">
        <ele>204.45665</ele>
        <time>2023-12-07T15:18:52.000Z</time>
      </trkpt>
      <trkpt lat="45.85542" lon="4.66944">
        <ele>204.40746</ele>
        <time>2023-12-07T15:18:53.000Z</time>
      </trkpt>
      <trkpt lat="45.85536" lon="4.66946">
        <ele>204.31522</ele>
        <time>2023-12-07T15:18:54.000Z</time>
      </trkpt>
      <trkpt lat="45.8553" lon="4.66947">
        <ele>204.22218</ele>
        <time>2023-12-07T15:18:55.000Z</time>
      </trkpt>
      <trkpt lat="45.85523" lon="4.66947">
        <ele>204.18709</ele>
        <time>2023-12-07T15:18:56.000Z</time>
      </trkpt>
      <trkpt lat="45.85517" lon="4.66949">
        <ele>204.18123</ele>
        <time>2023-12-07T15:18:57.000Z</time>
      </trkpt>
      <trkpt lat="45.8551" lon="4.66951">
        <ele>204.22044</ele>
        <time>2023-12-07T15:18:58.000Z</time>
      </trkpt>
      <trkpt lat="45.85503" lon="4.66951">
        <ele>204.18033</ele>
        <time>2023-12-07T15:18:59.000Z</time>
      </trkpt>
      <trkpt lat="45.85497" lon="4.66953">
        <ele>204.18124</ele>
        <time>2023-12-07T15:19:00.000Z</time>
      </trkpt>
      <trkpt lat="45.85491" lon="4.66954">
        <ele>204.22043</ele>
        <time>2023-12-07T15:19:01.000Z</time>
      </trkpt>
      <trkpt lat="45.85485" lon="4.66955">
        <ele>204.22682</ele>
        <time>2023-12-07T15:19:02.000Z</time>
      </trkpt>
      <trkpt lat="45.8548" lon="4.66956">
        <ele>204.24625</ele>
        <time>2023-12-07T15:19:03.000Z</time>
      </trkpt>
      <trkpt lat="45.85477" lon="4.66957">
        <ele>204.27962</ele>
        <time>2023-12-07T15:19:04.000Z</time>
      </trkpt>
      <trkpt lat="45.85474" lon="4.66957">
        <ele>204.31448</ele>
        <time>2023-12-07T15:19:05.000Z</time>
      </trkpt>
      <trkpt lat="45.85471" lon="4.66958">
        <ele>204.32246</ele>
        <time>2023-12-07T15:19:06.000Z</time>
      </trkpt>
      <trkpt lat="45.85469" lon="4.6696">
        <ele>204.34177</ele>
        <time>2023-12-07T15:19:07.000Z</time>
      </trkpt>
      <trkpt lat="45.85467" lon="4.6696">
        <ele>204.33669</ele>
        <time>2023-12-07T15:19:08.000Z</time>
      </trkpt>
      <trkpt lat="45.85465" lon="4.66962">
        <ele>204.41896</ele>
        <time>2023-12-07T15:19:11.000Z</time>
      </trkpt>
      <trkpt lat="45.85462" lon="4.66964">
        <ele>204.50937</ele>
        <time>2023-12-07T15:19:16.000Z</time>
      </trkpt>
      <trkpt lat="45.8546" lon="4.66965">
        <ele>204.60693</ele>
        <time>2023-12-07T15:19:17.000Z</time>
      </trkpt>
      <trkpt lat="45.85457" lon="4.66964">
        <ele>204.71385</ele>
        <time>2023-12-07T15:19:18.000Z</time>
      </trkpt>
      <trkpt lat="45.85453" lon="4.66963">
        <ele>204.81274</ele>
        <time>2023-12-07T15:19:19.000Z</time>
      </trkpt>
      <trkpt lat="45.85449" lon="4.66962">
        <ele>204.96416</ele>
        <time>2023-12-07T15:19:20.000Z</time>
      </trkpt>
      <trkpt lat="45.85445" lon="4.66961">
        <ele>205.07474</ele>
        <time>2023-12-07T15:19:21.000Z</time>
      </trkpt>
      <trkpt lat="45.85441" lon="4.6696">
        <ele>205.12552</ele>
        <time>2023-12-07T15:19:22.000Z</time>
      </trkpt>
      <trkpt lat="45.85437" lon="4.6696">
        <ele>205.17525</ele>
        <time>2023-12-07T15:19:23.000Z</time>
      </trkpt>
      <trkpt lat="45.85432" lon="4.66959">
        <ele>205.20395</ele>
        <time>2023-12-07T15:19:24.000Z</time>
      </trkpt>
      <trkpt lat="45.85427" lon="4.66959">
        <ele>205.34891</ele>
        <time>2023-12-07T15:19:25.000Z</time>
      </trkpt>
      <trkpt lat="45.85422" lon="4.66959">
        <ele>205.48592</ele>
        <time>2023-12-07T15:19:26.000Z</time>
      </trkpt>
      <trkpt lat="45.85416" lon="4.66958">
        <ele>205.60422</ele>
        <time>2023-12-07T15:19:27.000Z</time>
      </trkpt>
      <trkpt lat="45.85411" lon="4.66959">
        <ele>205.7543</ele>
        <time>2023-12-07T15:19:28.000Z</time>
      </trkpt>
      <trkpt lat="45.85405" lon="4.6696">
        <ele>205.89961</ele>
        <time>2023-12-07T15:19:29.000Z</time>
      </trkpt>
      <trkpt lat="45.854" lon="4.66962">
        <ele>206.02702</ele>
        <time>2023-12-07T15:19:30.000Z</time>
      </trkpt>
      <trkpt lat="45.85395" lon="4.66966">
        <ele>206.14597</ele>
        <time>2023-12-07T15:19:31.000Z</time>
      </trkpt>
      <trkpt lat="45.8539" lon="4.66969">
        <ele>206.28952</ele>
        <time>2023-12-07T15:19:32.000Z</time>
      </trkpt>
      <trkpt lat="45.85384" lon="4.66973">
        <ele>206.44016</ele>
        <time>2023-12-07T15:19:33.000Z</time>
      </trkpt>
      <trkpt lat="45.85379" lon="4.66976">
        <ele>206.59824</ele>
        <time>2023-12-07T15:19:34.000Z</time>
      </trkpt>
      <trkpt lat="45.85374" lon="4.66981">
        <ele>206.65286</ele>
        <time>2023-12-07T15:19:35.000Z</time>
      </trkpt>
      <trkpt lat="45.85369" lon="4.66985">
        <ele>206.65279</ele>
        <time>2023-12-07T15:19:36.000Z</time>
      </trkpt>
      <trkpt lat="45.85364" lon="4.66988">
        <ele>206.69035</ele>
        <time>2023-12-07T15:19:37.000Z</time>
      </trkpt>
      <trkpt lat="45.85358" lon="4.66994">
        <ele>206.70906</ele>
        <time>2023-12-07T15:19:38.000Z</time>
      </trkpt>
      <trkpt lat="45.85354" lon="4.66996">
        <ele>206.71469</ele>
        <time>2023-12-07T15:19:39.000Z</time>
      </trkpt>
      <trkpt lat="45.85349" lon="4.66999">
        <ele>206.70308</ele>
        <time>2023-12-07T15:19:40.000Z</time>
      </trkpt>
      <trkpt lat="45.85345" lon="4.67002">
        <ele>206.67606</ele>
        <time>2023-12-07T15:19:41.000Z</time>
      </trkpt>
      <trkpt lat="45.85339" lon="4.67006">
        <ele>206.6951</ele>
        <time>2023-12-07T15:19:42.000Z</time>
      </trkpt>
      <trkpt lat="45.85335" lon="4.67009">
        <ele>206.72009</ele>
        <time>2023-12-07T15:19:43.000Z</time>
      </trkpt>
      <trkpt lat="45.85329" lon="4.67011">
        <ele>206.68925</ele>
        <time>2023-12-07T15:19:44.000Z</time>
      </trkpt>
      <trkpt lat="45.85325" lon="4.67012">
        <ele>206.63779</ele>
        <time>2023-12-07T15:19:45.000Z</time>
      </trkpt>
      <trkpt lat="45.8532" lon="4.67014">
        <ele>206.60391</ele>
        <time>2023-12-07T15:19:46.000Z</time>
      </trkpt>
      <trkpt lat="45.85316" lon="4.67015">
        <ele>206.56963</ele>
        <time>2023-12-07T15:19:47.000Z</time>
      </trkpt>
      <trkpt lat="45.85312" lon="4.67016">
        <ele>206.51213</ele>
        <time>2023-12-07T15:19:48.000Z</time>
      </trkpt>
      <trkpt lat="45.85308" lon="4.67017">
        <ele>206.46867</ele>
        <time>2023-12-07T15:19:49.000Z</time>
      </trkpt>
      <trkpt lat="45.85304" lon="4.67018">
        <ele>206.41626</ele>
        <time>2023-12-07T15:19:50.000Z</time>
      </trkpt>
      <trkpt lat="45.853" lon="4.67019">
        <ele>206.40768</ele>
        <time>2023-12-07T15:19:51.000Z</time>
      </trkpt>
      <trkpt lat="45.85296" lon="4.6702">
        <ele>206.42917</ele>
        <time>2023-12-07T15:19:52.000Z</time>
      </trkpt>
      <trkpt lat="45.85292" lon="4.6702">
        <ele>206.40933</ele>
        <time>2023-12-07T15:19:53.000Z</time>
      </trkpt>
      <trkpt lat="45.85288" lon="4.67021">
        <ele>206.39583</ele>
        <time>2023-12-07T15:19:54.000Z</time>
      </trkpt>
      <trkpt lat="45.85284" lon="4.67022">
        <ele>206.41818</ele>
        <time>2023-12-07T15:19:55.000Z</time>
      </trkpt>
      <trkpt lat="45.8528" lon="4.67022">
        <ele>206.47598</ele>
        <time>2023-12-07T15:19:56.000Z</time>
      </trkpt>
      <trkpt lat="45.85276" lon="4.67022">
        <ele>206.51132</ele>
        <time>2023-12-07T15:19:57.000Z</time>
      </trkpt>
      <trkpt lat="45.85272" lon="4.67023">
        <ele>206.54492</ele>
        <time>2023-12-07T15:19:58.000Z</time>
      </trkpt>
      <trkpt lat="45.85269" lon="4.67024">
        <ele>206.62244</ele>
        <time>2023-12-07T15:19:59.000Z</time>
      </trkpt>
      <trkpt lat="45.85266" lon="4.67025">
        <ele>206.70464</ele>
        <time>2023-12-07T15:20:00.000Z</time>
      </trkpt>
      <trkpt lat="45.85263" lon="4.67025">
        <ele>206.81577</ele>
        <time>2023-12-07T15:20:01.000Z</time>
      </trkpt>
      <trkpt lat="45.8526" lon="4.67026">
        <ele>206.9073</ele>
        <time>2023-12-07T15:20:02.000Z</time>
      </trkpt>
      <trkpt lat="45.85257" lon="4.67026">
        <ele>206.99869</ele>
        <time>2023-12-07T15:20:03.000Z</time>
      </trkpt>
      <trkpt lat="45.85253" lon="4.67027">
        <ele>207.15852</ele>
        <time>2023-12-07T15:20:04.000Z</time>
      </trkpt>
      <trkpt lat="45.8525" lon="4.67028">
        <ele>207.29361</ele>
        <time>2023-12-07T15:20:05.000Z</time>
      </trkpt>
      <trkpt lat="45.85246" lon="4.67029">
        <ele>207.38152</ele>
        <time>2023-12-07T15:20:06.000Z</time>
      </trkpt>
      <trkpt lat="45.85243" lon="4.6703">
        <ele>207.43904</ele>
        <time>2023-12-07T15:20:07.000Z</time>
      </trkpt>
      <trkpt lat="45.85239" lon="4.67031">
        <ele>207.52847</ele>
        <time>2023-12-07T15:20:08.000Z</time>
      </trkpt>
      <trkpt lat="45.85236" lon="4.67031">
        <ele>207.60391</ele>
        <time>2023-12-07T15:20:09.000Z</time>
      </trkpt>
      <trkpt lat="45.85233" lon="4.67031">
        <ele>207.6906</ele>
        <time>2023-12-07T15:20:10.000Z</time>
      </trkpt>
      <trkpt lat="45.8523" lon="4.67031">
        <ele>207.74043</ele>
        <time>2023-12-07T15:20:11.000Z</time>
      </trkpt>
      <trkpt lat="45.85227" lon="4.67031">
        <ele>207.78894</ele>
        <time>2023-12-07T15:20:12.000Z</time>
      </trkpt>
      <trkpt lat="45.85224" lon="4.67031">
        <ele>207.86255</ele>
        <time>2023-12-07T15:20:13.000Z</time>
      </trkpt>
      <trkpt lat="45.85221" lon="4.67031">
        <ele>207.92661</ele>
        <time>2023-12-07T15:20:14.000Z</time>
      </trkpt>
      <trkpt lat="45.85219" lon="4.67031">
        <ele>207.97746</ele>
        <time>2023-12-07T15:20:15.000Z</time>
      </trkpt>
      <trkpt lat="45.85217" lon="4.67031">
        <ele>208.02437</ele>
        <time>2023-12-07T15:20:16.000Z</time>
      </trkpt>
      <trkpt lat="45.85214" lon="4.6703">
        <ele>208.04048</ele>
        <time>2023-12-07T15:20:17.000Z</time>
      </trkpt>
      <trkpt lat="45.85212" lon="4.67029">
        <ele>208.06355</ele>
        <time>2023-12-07T15:20:18.000Z</time>
      </trkpt>
      <trkpt lat="45.8521" lon="4.67027">
        <ele>208.04123</ele>
        <time>2023-12-07T15:20:19.000Z</time>
      </trkpt>
      <trkpt lat="45.85208" lon="4.67027">
        <ele>208.04288</ele>
        <time>2023-12-07T15:20:22.000Z</time>
      </trkpt>
      <trkpt lat="45.85206" lon="4.67028">
        <ele>208.09505</ele>
        <time>2023-12-07T15:20:34.000Z</time>
      </trkpt>
      <trkpt lat="45.85205" lon="4.67033">
        <ele>208.13826</ele>
        <time>2023-12-07T15:20:36.000Z</time>
      </trkpt>
      <trkpt lat="45.85204" lon="4.67037">
        <ele>208.18137</ele>
        <time>2023-12-07T15:20:38.000Z</time>
      </trkpt>
      <trkpt lat="45.85201" lon="4.67037">
        <ele>208.20113</ele>
        <time>2023-12-07T15:20:40.000Z</time>
      </trkpt>
      <trkpt lat="45.85199" lon="4.67036">
        <ele>208.22151</ele>
        <time>2023-12-07T15:20:41.000Z</time>
      </trkpt>
      <trkpt lat="45.85196" lon="4.67035">
        <ele>208.26521</ele>
        <time>2023-12-07T15:20:42.000Z</time>
      </trkpt>
      <trkpt lat="45.85195" lon="4.67034">
        <ele>208.3343</ele>
        <time>2023-12-07T15:20:43.000Z</time>
      </trkpt>
      <trkpt lat="45.85193" lon="4.67033">
        <ele>208.39656</ele>
        <time>2023-12-07T15:20:44.000Z</time>
      </trkpt>
      <trkpt lat="45.85191" lon="4.67033">
        <ele>208.49875</ele>
        <time>2023-12-07T15:20:45.000Z</time>
      </trkpt>
      <trkpt lat="45.85187" lon="4.67034">
        <ele>208.62961</ele>
        <time>2023-12-07T15:20:47.000Z</time>
      </trkpt>
      <trkpt lat="45.85185" lon="4.67035">
        <ele>208.75778</ele>
        <time>2023-12-07T15:20:48.000Z</time>
      </trkpt>
      <trkpt lat="45.85182" lon="4.67035">
        <ele>208.88586</ele>
        <time>2023-12-07T15:20:49.000Z</time>
      </trkpt>
      <trkpt lat="45.85179" lon="4.67035">
        <ele>209.0166</ele>
        <time>2023-12-07T15:20:50.000Z</time>
      </trkpt>
      <trkpt lat="45.85177" lon="4.67034">
        <ele>209.1171</ele>
        <time>2023-12-07T15:20:51.000Z</time>
      </trkpt>
      <trkpt lat="45.85173" lon="4.67033">
        <ele>209.24861</ele>
        <time>2023-12-07T15:20:53.000Z</time>
      </trkpt>
      <trkpt lat="45.85171" lon="4.67032">
        <ele>209.37131</ele>
        <time>2023-12-07T15:20:54.000Z</time>
      </trkpt>
      <trkpt lat="45.85167" lon="4.67031">
        <ele>209.53568</ele>
        <time>2023-12-07T15:20:56.000Z</time>
      </trkpt>
      <trkpt lat="45.85164" lon="4.6703">
        <ele>209.77661</ele>
        <time>2023-12-07T15:20:57.000Z</time>
      </trkpt>
      <trkpt lat="45.85162" lon="4.67029">
        <ele>210.02573</ele>
        <time>2023-12-07T15:20:58.000Z</time>
      </trkpt>
      <trkpt lat="45.8516" lon="4.67029">
        <ele>210.25656</ele>
        <time>2023-12-07T15:20:59.000Z</time>
      </trkpt>
      <trkpt lat="45.85158" lon="4.67029">
        <ele>210.44125</ele>
        <time>2023-12-07T15:21:00.000Z</time>
      </trkpt>
      <trkpt lat="45.85154" lon="4.67029">
        <ele>210.61807</ele>
        <time>2023-12-07T15:21:01.000Z</time>
      </trkpt>
      <trkpt lat="45.85152" lon="4.67029">
        <ele>210.77222</ele>
        <time>2023-12-07T15:21:02.000Z</time>
      </trkpt>
      <trkpt lat="45.85149" lon="4.6703">
        <ele>210.93784</ele>
        <time>2023-12-07T15:21:03.000Z</time>
      </trkpt>
      <trkpt lat="45.85146" lon="4.6703">
        <ele>211.11624</ele>
        <time>2023-12-07T15:21:04.000Z</time>
      </trkpt>
      <trkpt lat="45.85144" lon="4.67031">
        <ele>211.32149</ele>
        <time>2023-12-07T15:21:05.000Z</time>
      </trkpt>
      <trkpt lat="45.85141" lon="4.67032">
        <ele>211.52791</ele>
        <time>2023-12-07T15:21:06.000Z</time>
      </trkpt>
      <trkpt lat="45.85139" lon="4.67033">
        <ele>211.72946</ele>
        <time>2023-12-07T15:21:07.000Z</time>
      </trkpt>
      <trkpt lat="45.85136" lon="4.67034">
        <ele>211.92891</ele>
        <time>2023-12-07T15:21:08.000Z</time>
      </trkpt>
      <trkpt lat="45.85134" lon="4.67036">
        <ele>212.12959</ele>
        <time>2023-12-07T15:21:09.000Z</time>
      </trkpt>
      <trkpt lat="45.85131" lon="4.67037">
        <ele>212.37393</ele>
        <time>2023-12-07T15:21:10.000Z</time>
      </trkpt>
      <trkpt lat="45.8513" lon="4.67039">
        <ele>212.79362</ele>
        <time>2023-12-07T15:21:11.000Z</time>
      </trkpt>
      <trkpt lat="45.85127" lon="4.6704">
        <ele>213.16238</ele>
        <time>2023-12-07T15:21:13.000Z</time>
      </trkpt>
      <trkpt lat="45.85126" lon="4.67038">
        <ele>213.61943</ele>
        <time>2023-12-07T15:21:17.000Z</time>
      </trkpt>
      <trkpt lat="45.85125" lon="4.6704">
        <ele>214.11125</ele>
        <time>2023-12-07T15:21:27.000Z</time>
      </trkpt>
      <trkpt lat="45.85123" lon="4.67042">
        <ele>214.65764</ele>
        <time>2023-12-07T15:21:32.000Z</time>
      </trkpt>
      <trkpt lat="45.85122" lon="4.67044">
        <ele>215.22275</ele>
        <time>2023-12-07T15:21:34.000Z</time>
      </trkpt>
      <trkpt lat="45.8512" lon="4.67047">
        <ele>215.73596</ele>
        <time>2023-12-07T15:21:37.000Z</time>
      </trkpt>
      <trkpt lat="45.85118" lon="4.67049">
        <ele>216.27022</ele>
        <time>2023-12-07T15:21:40.000Z</time>
      </trkpt>
      <trkpt lat="45.85117" lon="4.67052">
        <ele>216.83597</ele>
        <time>2023-12-07T15:21:43.000Z</time>
      </trkpt>
      <trkpt lat="45.85116" lon="4.67054">
        <ele>217.42249</ele>
        <time>2023-12-07T15:21:45.000Z</time>
      </trkpt>
      <trkpt lat="45.85114" lon="4.67056">
        <ele>217.98201</ele>
        <time>2023-12-07T15:21:48.000Z</time>
      </trkpt>
      <trkpt lat="45.85113" lon="4.67059">
        <ele>218.55148</ele>
        <time>2023-12-07T15:21:51.000Z</time>
      </trkpt>
      <trkpt lat="45.85114" lon="4.67061">
        <ele>219.13777</ele>
        <time>2023-12-07T15:21:54.000Z</time>
      </trkpt>
      <trkpt lat="45.85116" lon="4.67063">
        <ele>219.64143</ele>
        <time>2023-12-07T15:22:01.000Z</time>
      </trkpt>
      <trkpt lat="45.85116" lon="4.67066">
        <ele>220.00496</ele>
        <time>2023-12-07T15:22:06.000Z</time>
      </trkpt>
      <trkpt lat="45.85116" lon="4.67069">
        <ele>220.57381</ele>
        <time>2023-12-07T15:22:11.000Z</time>
      </trkpt>
      <trkpt lat="45.8512" lon="4.67069">
        <ele>221.11121</ele>
        <time>2023-12-07T15:22:13.000Z</time>
      </trkpt>
      <trkpt lat="45.85123" lon="4.67069">
        <ele>221.62961</ele>
        <time>2023-12-07T15:22:15.000Z</time>
      </trkpt>
      <trkpt lat="45.85125" lon="4.67069">
        <ele>222.14018</ele>
        <time>2023-12-07T15:22:16.000Z</time>
      </trkpt>
      <trkpt lat="45.85129" lon="4.67069">
        <ele>222.63655</ele>
        <time>2023-12-07T15:22:18.000Z</time>
      </trkpt>
      <trkpt lat="45.85131" lon="4.6707">
        <ele>222.93184</ele>
        <time>2023-12-07T15:22:19.000Z</time>
      </trkpt>
      <trkpt lat="45.85134" lon="4.6707">
        <ele>223.2635</ele>
        <time>2023-12-07T15:22:20.000Z</time>
      </trkpt>
      <trkpt lat="45.85136" lon="4.67071">
        <ele>223.51358</ele>
        <time>2023-12-07T15:22:21.000Z</time>
      </trkpt>
      <trkpt lat="45.85138" lon="4.67072">
        <ele>223.71756</ele>
        <time>2023-12-07T15:22:22.000Z</time>
      </trkpt>
      <trkpt lat="45.8514" lon="4.67073">
        <ele>223.85225</ele>
        <time>2023-12-07T15:22:23.000Z</time>
      </trkpt>
      <trkpt lat="45.85142" lon="4.67074">
        <ele>223.94162</ele>
        <time>2023-12-07T15:22:24.000Z</time>
      </trkpt>
      <trkpt lat="45.85144" lon="4.67075">
        <ele>224.01253</ele>
        <time>2023-12-07T15:22:25.000Z</time>
      </trkpt>
      <trkpt lat="45.85146" lon="4.67076">
        <ele>224.05582</ele>
        <time>2023-12-07T15:22:26.000Z</time>
      </trkpt>
      <trkpt lat="45.85149" lon="4.67077">
        <ele>224.07388</ele>
        <time>2023-12-07T15:22:27.000Z</time>
      </trkpt>
      <trkpt lat="45.8515" lon="4.67079">
        <ele>224.09578</ele>
        <time>2023-12-07T15:22:28.000Z</time>
      </trkpt>
      <trkpt lat="45.85153" lon="4.67082">
        <ele>224.14334</ele>
        <time>2023-12-07T15:22:30.000Z</time>
      </trkpt>
      <trkpt lat="45.85156" lon="4.67084">
        <ele>224.21748</ele>
        <time>2023-12-07T15:22:31.000Z</time>
      </trkpt>
      <trkpt lat="45.85158" lon="4.67086">
        <ele>224.28679</ele>
        <time>2023-12-07T15:22:32.000Z</time>
      </trkpt>
      <trkpt lat="45.85161" lon="4.67086">
        <ele>224.44099</ele>
        <time>2023-12-07T15:22:33.000Z</time>
      </trkpt>
      <trkpt lat="45.85163" lon="4.67088">
        <ele>224.66711</ele>
        <time>2023-12-07T15:22:34.000Z</time>
      </trkpt>
      <trkpt lat="45.85166" lon="4.67089">
        <ele>224.63017</ele>
        <time>2023-12-07T15:22:35.000Z</time>
      </trkpt>
      <trkpt lat="45.85169" lon="4.67091">
        <ele>224.64316</ele>
        <time>2023-12-07T15:22:36.000Z</time>
      </trkpt>
      <trkpt lat="45.85171" lon="4.67092">
        <ele>224.64009</ele>
        <time>2023-12-07T15:22:37.000Z</time>
      </trkpt>
      <trkpt lat="45.85174" lon="4.67094">
        <ele>224.64986</ele>
        <time>2023-12-07T15:22:38.000Z</time>
      </trkpt>
      <trkpt lat="45.85177" lon="4.67096">
        <ele>224.67276</ele>
        <time>2023-12-07T15:22:39.000Z</time>
      </trkpt>
      <trkpt lat="45.85179" lon="4.67097">
        <ele>224.71915</ele>
        <time>2023-12-07T15:22:40.000Z</time>
      </trkpt>
      <trkpt lat="45.85181" lon="4.67099">
        <ele>224.80852</ele>
        <time>2023-12-07T15:22:41.000Z</time>
      </trkpt>
      <trkpt lat="45.85184" lon="4.671">
        <ele>224.89957</ele>
        <time>2023-12-07T15:22:42.000Z</time>
      </trkpt>
      <trkpt lat="45.85186" lon="4.67102">
        <ele>224.98132</ele>
        <time>2023-12-07T15:22:43.000Z</time>
      </trkpt>
      <trkpt lat="45.85189" lon="4.67103">
        <ele>225.07907</ele>
        <time>2023-12-07T15:22:44.000Z</time>
      </trkpt>
      <trkpt lat="45.85191" lon="4.67105">
        <ele>225.21738</ele>
        <time>2023-12-07T15:22:45.000Z</time>
      </trkpt>
      <trkpt lat="45.85194" lon="4.67106">
        <ele>225.35413</ele>
        <time>2023-12-07T15:22:46.000Z</time>
      </trkpt>
      <trkpt lat="45.85197" lon="4.67108">
        <ele>225.53049</ele>
        <time>2023-12-07T15:22:47.000Z</time>
      </trkpt>
      <trkpt lat="45.85199" lon="4.67109">
        <ele>225.68591</ele>
        <time>2023-12-07T15:22:48.000Z</time>
      </trkpt>
      <trkpt lat="45.85201" lon="4.67111">
        <ele>225.82419</ele>
        <time>2023-12-07T15:22:49.000Z</time>
      </trkpt>
      <trkpt lat="45.85204" lon="4.67112">
        <ele>225.80991</ele>
        <time>2023-12-07T15:22:50.000Z</time>
      </trkpt>
      <trkpt lat="45.85206" lon="4.67114">
        <ele>225.78242</ele>
        <time>2023-12-07T15:22:51.000Z</time>
      </trkpt>
      <trkpt lat="45.85208" lon="4.67115">
        <ele>225.74619</ele>
        <time>2023-12-07T15:22:52.000Z</time>
      </trkpt>
      <trkpt lat="45.8521" lon="4.67117">
        <ele>225.69153</ele>
        <time>2023-12-07T15:22:53.000Z</time>
      </trkpt>
      <trkpt lat="45.85212" lon="4.67119">
        <ele>225.90634</ele>
        <time>2023-12-07T15:22:54.000Z</time>
      </trkpt>
      <trkpt lat="45.85214" lon="4.67121">
        <ele>226.14143</ele>
        <time>2023-12-07T15:22:55.000Z</time>
      </trkpt>
      <trkpt lat="45.85216" lon="4.67123">
        <ele>226.3667</ele>
        <time>2023-12-07T15:22:56.000Z</time>
      </trkpt>
      <trkpt lat="45.85218" lon="4.67125">
        <ele>226.599</ele>
        <time>2023-12-07T15:22:57.000Z</time>
      </trkpt>
      <trkpt lat="45.8522" lon="4.67126">
        <ele>226.8208</ele>
        <time>2023-12-07T15:22:58.000Z</time>
      </trkpt>
      <trkpt lat="45.85222" lon="4.67128">
        <ele>227.04916</ele>
        <time>2023-12-07T15:22:59.000Z</time>
      </trkpt>
      <trkpt lat="45.85224" lon="4.6713">
        <ele>227.2675</ele>
        <time>2023-12-07T15:23:00.000Z</time>
      </trkpt>
      <trkpt lat="45.85226" lon="4.67131">
        <ele>227.45663</ele>
        <time>2023-12-07T15:23:01.000Z</time>
      </trkpt>
      <trkpt lat="45.85228" lon="4.67132">
        <ele>227.65967</ele>
        <time>2023-12-07T15:23:02.000Z</time>
      </trkpt>
      <trkpt lat="45.85229" lon="4.67134">
        <ele>227.84456</ele>
        <time>2023-12-07T15:23:03.000Z</time>
      </trkpt>
      <trkpt lat="45.85231" lon="4.67135">
        <ele>227.8735</ele>
        <time>2023-12-07T15:23:04.000Z</time>
      </trkpt>
      <trkpt lat="45.85233" lon="4.67136">
        <ele>227.8586</ele>
        <time>2023-12-07T15:23:05.000Z</time>
      </trkpt>
      <trkpt lat="45.85235" lon="4.67137">
        <ele>228.08347</ele>
        <time>2023-12-07T15:23:06.000Z</time>
      </trkpt>
      <trkpt lat="45.85237" lon="4.67139">
        <ele>228.23137</ele>
        <time>2023-12-07T15:23:07.000Z</time>
      </trkpt>
      <trkpt lat="45.85239" lon="4.6714">
        <ele>228.38852</ele>
        <time>2023-12-07T15:23:08.000Z</time>
      </trkpt>
      <trkpt lat="45.85242" lon="4.67141">
        <ele>228.55769</ele>
        <time>2023-12-07T15:23:09.000Z</time>
      </trkpt>
      <trkpt lat="45.85245" lon="4.67142">
        <ele>228.89445</ele>
        <time>2023-12-07T15:23:10.000Z</time>
      </trkpt>
      <trkpt lat="45.85247" lon="4.67143">
        <ele>229.22824</ele>
        <time>2023-12-07T15:23:11.000Z</time>
      </trkpt>
      <trkpt lat="45.85249" lon="4.67144">
        <ele>229.57063</ele>
        <time>2023-12-07T15:23:12.000Z</time>
      </trkpt>
      <trkpt lat="45.85251" lon="4.67145">
        <ele>229.9397</ele>
        <time>2023-12-07T15:23:13.000Z</time>
      </trkpt>
      <trkpt lat="45.85253" lon="4.67146">
        <ele>230.07907</ele>
        <time>2023-12-07T15:23:14.000Z</time>
      </trkpt>
      <trkpt lat="45.85255" lon="4.67148">
        <ele>230.26187</ele>
        <time>2023-12-07T15:23:15.000Z</time>
      </trkpt>
      <trkpt lat="45.85257" lon="4.67149">
        <ele>230.46616</ele>
        <time>2023-12-07T15:23:16.000Z</time>
      </trkpt>
      <trkpt lat="45.85259" lon="4.6715">
        <ele>230.67949</ele>
        <time>2023-12-07T15:23:17.000Z</time>
      </trkpt>
      <trkpt lat="45.85261" lon="4.67152">
        <ele>230.89661</ele>
        <time>2023-12-07T15:23:18.000Z</time>
      </trkpt>
      <trkpt lat="45.85263" lon="4.67153">
        <ele>231.08691</ele>
        <time>2023-12-07T15:23:19.000Z</time>
      </trkpt>
      <trkpt lat="45.85265" lon="4.67155">
        <ele>231.29538</ele>
        <time>2023-12-07T15:23:20.000Z</time>
      </trkpt>
      <trkpt lat="45.85267" lon="4.67157">
        <ele>231.50684</ele>
        <time>2023-12-07T15:23:21.000Z</time>
      </trkpt>
      <trkpt lat="45.85269" lon="4.67158">
        <ele>231.72873</ele>
        <time>2023-12-07T15:23:22.000Z</time>
      </trkpt>
      <trkpt lat="45.85271" lon="4.6716">
        <ele>231.96501</ele>
        <time>2023-12-07T15:23:23.000Z</time>
      </trkpt>
      <trkpt lat="45.85272" lon="4.67162">
        <ele>232.20378</ele>
        <time>2023-12-07T15:23:24.000Z</time>
      </trkpt>
      <trkpt lat="45.85273" lon="4.67164">
        <ele>232.46933</ele>
        <time>2023-12-07T15:23:25.000Z</time>
      </trkpt>
      <trkpt lat="45.85274" lon="4.67167">
        <ele>232.42395</ele>
        <time>2023-12-07T15:23:26.000Z</time>
      </trkpt>
      <trkpt lat="45.85274" lon="4.6717">
        <ele>232.4176</ele>
        <time>2023-12-07T15:23:27.000Z</time>
      </trkpt>
      <trkpt lat="45.85275" lon="4.67173">
        <ele>232.37068</ele>
        <time>2023-12-07T15:23:28.000Z</time>
      </trkpt>
      <trkpt lat="45.85276" lon="4.67176">
        <ele>232.63533</ele>
        <time>2023-12-07T15:23:29.000Z</time>
      </trkpt>
      <trkpt lat="45.85276" lon="4.67179">
        <ele>232.83659</ele>
        <time>2023-12-07T15:23:30.000Z</time>
      </trkpt>
      <trkpt lat="45.85277" lon="4.67182">
        <ele>233.15112</ele>
        <time>2023-12-07T15:23:31.000Z</time>
      </trkpt>
      <trkpt lat="45.85277" lon="4.67184">
        <ele>233.4438</ele>
        <time>2023-12-07T15:23:32.000Z</time>
      </trkpt>
      <trkpt lat="45.85278" lon="4.67187">
        <ele>233.74504</ele>
        <time>2023-12-07T15:23:33.000Z</time>
      </trkpt>
      <trkpt lat="45.85278" lon="4.6719">
        <ele>234.07246</ele>
        <time>2023-12-07T15:23:34.000Z</time>
      </trkpt>
      <trkpt lat="45.85278" lon="4.67194">
        <ele>234.40276</ele>
        <time>2023-12-07T15:23:35.000Z</time>
      </trkpt>
      <trkpt lat="45.85277" lon="4.67197">
        <ele>234.72078</ele>
        <time>2023-12-07T15:23:36.000Z</time>
      </trkpt>
      <trkpt lat="45.85277" lon="4.67201">
        <ele>235.03323</ele>
        <time>2023-12-07T15:23:37.000Z</time>
      </trkpt>
      <trkpt lat="45.85278" lon="4.67204">
        <ele>235.35489</ele>
        <time>2023-12-07T15:23:38.000Z</time>
      </trkpt>
      <trkpt lat="45.85278" lon="4.67208">
        <ele>235.67148</ele>
        <time>2023-12-07T15:23:39.000Z</time>
      </trkpt>
      <trkpt lat="45.85279" lon="4.67211">
        <ele>235.99287</ele>
        <time>2023-12-07T15:23:40.000Z</time>
      </trkpt>
      <trkpt lat="45.85279" lon="4.67214">
        <ele>236.31845</ele>
        <time>2023-12-07T15:23:41.000Z</time>
      </trkpt>
      <trkpt lat="45.85279" lon="4.67217">
        <ele>236.64705</ele>
        <time>2023-12-07T15:23:42.000Z</time>
      </trkpt>
      <trkpt lat="45.85279" lon="4.67221">
        <ele>236.99471</ele>
        <time>2023-12-07T15:23:43.000Z</time>
      </trkpt>
      <trkpt lat="45.85279" lon="4.67224">
        <ele>237.50728</ele>
        <time>2023-12-07T15:23:44.000Z</time>
      </trkpt>
      <trkpt lat="45.85279" lon="4.67227">
        <ele>238.03804</ele>
        <time>2023-12-07T15:23:45.000Z</time>
      </trkpt>
      <trkpt lat="45.8528" lon="4.6723">
        <ele>238.64214</ele>
        <time>2023-12-07T15:23:46.000Z</time>
      </trkpt>
      <trkpt lat="45.8528" lon="4.67233">
        <ele>239.27754</ele>
        <time>2023-12-07T15:23:47.000Z</time>
      </trkpt>
      <trkpt lat="45.8528" lon="4.67237">
        <ele>239.96594</ele>
        <time>2023-12-07T15:23:48.000Z</time>
      </trkpt>
      <trkpt lat="45.85281" lon="4.6724">
        <ele>240.33298</ele>
        <time>2023-12-07T15:23:49.000Z</time>
      </trkpt>
      <trkpt lat="45.85281" lon="4.67243">
        <ele>240.75618</ele>
        <time>2023-12-07T15:23:50.000Z</time>
      </trkpt>
      <trkpt lat="45.85282" lon="4.67246">
        <ele>240.95683</ele>
        <time>2023-12-07T15:23:51.000Z</time>
      </trkpt>
      <trkpt lat="45.85282" lon="4.6725">
        <ele>241.16817</ele>
        <time>2023-12-07T15:23:52.000Z</time>
      </trkpt>
      <trkpt lat="45.85282" lon="4.67254">
        <ele>241.379</ele>
        <time>2023-12-07T15:23:53.000Z</time>
      </trkpt>
      <trkpt lat="45.85282" lon="4.67256">
        <ele>241.58621</ele>
        <time>2023-12-07T15:23:54.000Z</time>
      </trkpt>
      <trkpt lat="45.85282" lon="4.67259">
        <ele>241.76445</ele>
        <time>2023-12-07T15:23:55.000Z</time>
      </trkpt>
      <trkpt lat="45.85282" lon="4.67262">
        <ele>241.67268</ele>
        <time>2023-12-07T15:23:56.000Z</time>
      </trkpt>
      <trkpt lat="45.85283" lon="4.67265">
        <ele>241.54651</ele>
        <time>2023-12-07T15:23:57.000Z</time>
      </trkpt>
      <trkpt lat="45.85283" lon="4.67268">
        <ele>241.7977</ele>
        <time>2023-12-07T15:23:58.000Z</time>
      </trkpt>
      <trkpt lat="45.85284" lon="4.67271">
        <ele>241.9346</ele>
        <time>2023-12-07T15:23:59.000Z</time>
      </trkpt>
      <trkpt lat="45.85284" lon="4.67275">
        <ele>242.05118</ele>
        <time>2023-12-07T15:24:00.000Z</time>
      </trkpt>
      <trkpt lat="45.85285" lon="4.67278">
        <ele>242.15115</ele>
        <time>2023-12-07T15:24:01.000Z</time>
      </trkpt>
      <trkpt lat="45.85285" lon="4.67281">
        <ele>242.26155</ele>
        <time>2023-12-07T15:24:02.000Z</time>
      </trkpt>
      <trkpt lat="45.85285" lon="4.67284">
        <ele>242.30745</ele>
        <time>2023-12-07T15:24:03.000Z</time>
      </trkpt>
      <trkpt lat="45.85286" lon="4.67287">
        <ele>242.34526</ele>
        <time>2023-12-07T15:24:04.000Z</time>
      </trkpt>
      <trkpt lat="45.85287" lon="4.6729">
        <ele>242.37744</ele>
        <time>2023-12-07T15:24:05.000Z</time>
      </trkpt>
      <trkpt lat="45.85287" lon="4.67293">
        <ele>242.44023</ele>
        <time>2023-12-07T15:24:06.000Z</time>
      </trkpt>
      <trkpt lat="45.85287" lon="4.67296">
        <ele>242.40479</ele>
        <time>2023-12-07T15:24:07.000Z</time>
      </trkpt>
      <trkpt lat="45.85288" lon="4.673">
        <ele>242.41377</ele>
        <time>2023-12-07T15:24:08.000Z</time>
      </trkpt>
      <trkpt lat="45.85288" lon="4.67303">
        <ele>242.41287</ele>
        <time>2023-12-07T15:24:09.000Z</time>
      </trkpt>
      <trkpt lat="45.85288" lon="4.67307">
        <ele>242.09488</ele>
        <time>2023-12-07T15:24:10.000Z</time>
      </trkpt>
      <trkpt lat="45.85288" lon="4.6731">
        <ele>241.75215</ele>
        <time>2023-12-07T15:24:11.000Z</time>
      </trkpt>
      <trkpt lat="45.85289" lon="4.67313">
        <ele>241.34854</ele>
        <time>2023-12-07T15:24:12.000Z</time>
      </trkpt>
      <trkpt lat="45.85288" lon="4.67317">
        <ele>240.94922</ele>
        <time>2023-12-07T15:24:13.000Z</time>
      </trkpt>
      <trkpt lat="45.85287" lon="4.6732">
        <ele>241.01657</ele>
        <time>2023-12-07T15:24:14.000Z</time>
      </trkpt>
      <trkpt lat="45.85286" lon="4.67323">
        <ele>241.0435</ele>
        <time>2023-12-07T15:24:15.000Z</time>
      </trkpt>
      <trkpt lat="45.85284" lon="4.67325">
        <ele>241.36638</ele>
        <time>2023-12-07T15:24:16.000Z</time>
      </trkpt>
      <trkpt lat="45.85282" lon="4.67328">
        <ele>241.76006</ele>
        <time>2023-12-07T15:24:17.000Z</time>
      </trkpt>
      <trkpt lat="45.8528" lon="4.6733">
        <ele>241.70224</ele>
        <time>2023-12-07T15:24:18.000Z</time>
      </trkpt>
      <trkpt lat="45.85278" lon="4.67332">
        <ele>241.6669</ele>
        <time>2023-12-07T15:24:19.000Z</time>
      </trkpt>
      <trkpt lat="45.85275" lon="4.67333">
        <ele>241.54343</ele>
        <time>2023-12-07T15:24:20.000Z</time>
      </trkpt>
      <trkpt lat="45.85272" lon="4.67334">
        <ele>241.366</ele>
        <time>2023-12-07T15:24:21.000Z</time>
      </trkpt>
      <trkpt lat="45.8527" lon="4.67335">
        <ele>241.19771</ele>
        <time>2023-12-07T15:24:22.000Z</time>
      </trkpt>
      <trkpt lat="45.85267" lon="4.67336">
        <ele>241.12057</ele>
        <time>2023-12-07T15:24:23.000Z</time>
      </trkpt>
      <trkpt lat="45.85264" lon="4.67338">
        <ele>240.74655</ele>
        <time>2023-12-07T15:24:24.000Z</time>
      </trkpt>
      <trkpt lat="45.85261" lon="4.67339">
        <ele>240.37947</ele>
        <time>2023-12-07T15:24:25.000Z</time>
      </trkpt>
      <trkpt lat="45.85258" lon="4.6734">
        <ele>239.99873</ele>
        <time>2023-12-07T15:24:26.000Z</time>
      </trkpt>
      <trkpt lat="45.85256" lon="4.67341">
        <ele>239.65335</ele>
        <time>2023-12-07T15:24:27.000Z</time>
      </trkpt>
      <trkpt lat="45.85253" lon="4.67341">
        <ele>239.24612</ele>
        <time>2023-12-07T15:24:28.000Z</time>
      </trkpt>
      <trkpt lat="45.8525" lon="4.67341">
        <ele>238.79485</ele>
        <time>2023-12-07T15:24:29.000Z</time>
      </trkpt>
      <trkpt lat="45.85247" lon="4.67342">
        <ele>238.64197</ele>
        <time>2023-12-07T15:24:30.000Z</time>
      </trkpt>
      <trkpt lat="45.85245" lon="4.67342">
        <ele>239.03247</ele>
        <time>2023-12-07T15:24:31.000Z</time>
      </trkpt>
      <trkpt lat="45.85242" lon="4.67343">
        <ele>239.41362</ele>
        <time>2023-12-07T15:24:32.000Z</time>
      </trkpt>
      <trkpt lat="45.85239" lon="4.67343">
        <ele>239.81206</ele>
        <time>2023-12-07T15:24:33.000Z</time>
      </trkpt>
      <trkpt lat="45.85235" lon="4.67343">
        <ele>239.71069</ele>
        <time>2023-12-07T15:24:34.000Z</time>
      </trkpt>
      <trkpt lat="45.85232" lon="4.67344">
        <ele>239.37764</ele>
        <time>2023-12-07T15:24:35.000Z</time>
      </trkpt>
      <trkpt lat="45.8523" lon="4.67344">
        <ele>238.99573</ele>
        <time>2023-12-07T15:24:36.000Z</time>
      </trkpt>
      <trkpt lat="45.85227" lon="4.67344">
        <ele>238.51318</ele>
        <time>2023-12-07T15:24:37.000Z</time>
      </trkpt>
      <trkpt lat="45.85225" lon="4.67343">
        <ele>237.9285</ele>
        <time>2023-12-07T15:24:38.000Z</time>
      </trkpt>
      <trkpt lat="45.85222" lon="4.6734">
        <ele>237.92317</ele>
        <time>2023-12-07T15:24:39.000Z</time>
      </trkpt>
      <trkpt lat="45.8522" lon="4.67337">
        <ele>237.97905</ele>
        <time>2023-12-07T15:24:40.000Z</time>
      </trkpt>
      <trkpt lat="45.85218" lon="4.67333">
        <ele>238.04646</ele>
        <time>2023-12-07T15:24:41.000Z</time>
      </trkpt>
      <trkpt lat="45.85217" lon="4.67332">
        <ele>238.02249</ele>
        <time>2023-12-07T15:24:42.000Z</time>
      </trkpt>
      <trkpt lat="45.85214" lon="4.67328">
        <ele>237.92603</ele>
        <time>2023-12-07T15:24:43.000Z</time>
      </trkpt>
      <trkpt lat="45.85212" lon="4.67323">
        <ele>238.18913</ele>
        <time>2023-12-07T15:24:44.000Z</time>
      </trkpt>
      <trkpt lat="45.85209" lon="4.67319">
        <ele>238.43765</ele>
        <time>2023-12-07T15:24:45.000Z</time>
      </trkpt>
      <trkpt lat="45.85206" lon="4.67316">
        <ele>238.70987</ele>
        <time>2023-12-07T15:24:46.000Z</time>
      </trkpt>
      <trkpt lat="45.85202" lon="4.67314">
        <ele>239.06087</ele>
        <time>2023-12-07T15:24:47.000Z</time>
      </trkpt>
      <trkpt lat="45.85198" lon="4.67314">
        <ele>239.43526</ele>
        <time>2023-12-07T15:24:48.000Z</time>
      </trkpt>
      <trkpt lat="45.85195" lon="4.67315">
        <ele>239.82828</ele>
        <time>2023-12-07T15:24:49.000Z</time>
      </trkpt>
      <trkpt lat="45.85191" lon="4.67317">
        <ele>240.19412</ele>
        <time>2023-12-07T15:24:50.000Z</time>
      </trkpt>
      <trkpt lat="45.85188" lon="4.67318">
        <ele>240.07491</ele>
        <time>2023-12-07T15:24:51.000Z</time>
      </trkpt>
      <trkpt lat="45.85184" lon="4.67321">
        <ele>240.04575</ele>
        <time>2023-12-07T15:24:52.000Z</time>
      </trkpt>
      <trkpt lat="45.85181" lon="4.67323">
        <ele>239.93613</ele>
        <time>2023-12-07T15:24:53.000Z</time>
      </trkpt>
      <trkpt lat="45.85177" lon="4.67324">
        <ele>239.84334</ele>
        <time>2023-12-07T15:24:54.000Z</time>
      </trkpt>
      <trkpt lat="45.85173" lon="4.67326">
        <ele>240.02869</ele>
        <time>2023-12-07T15:24:55.000Z</time>
      </trkpt>
      <trkpt lat="45.8517" lon="4.67328">
        <ele>240.22372</ele>
        <time>2023-12-07T15:24:56.000Z</time>
      </trkpt>
      <trkpt lat="45.85166" lon="4.6733">
        <ele>241.94241</ele>
        <time>2023-12-07T15:24:57.000Z</time>
      </trkpt>
      <trkpt lat="45.85163" lon="4.67332">
        <ele>243.84204</ele>
        <time>2023-12-07T15:24:58.000Z</time>
      </trkpt>
      <trkpt lat="45.8516" lon="4.67334">
        <ele>245.23157</ele>
        <time>2023-12-07T15:24:59.000Z</time>
      </trkpt>
      <trkpt lat="45.85156" lon="4.67335">
        <ele>246.54468</ele>
        <time>2023-12-07T15:25:00.000Z</time>
      </trkpt>
      <trkpt lat="45.85153" lon="4.67337">
        <ele>247.8698</ele>
        <time>2023-12-07T15:25:01.000Z</time>
      </trkpt>
      <trkpt lat="45.8515" lon="4.67339">
        <ele>249.23718</ele>
        <time>2023-12-07T15:25:02.000Z</time>
      </trkpt>
      <trkpt lat="45.85146" lon="4.67342">
        <ele>250.61589</ele>
        <time>2023-12-07T15:25:03.000Z</time>
      </trkpt>
      <trkpt lat="45.85143" lon="4.67344">
        <ele>251.92168</ele>
        <time>2023-12-07T15:25:04.000Z</time>
      </trkpt>
      <trkpt lat="45.85139" lon="4.67347">
        <ele>253.24387</ele>
        <time>2023-12-07T15:25:05.000Z</time>
      </trkpt>
      <trkpt lat="45.85136" lon="4.6735">
        <ele>254.46855</ele>
        <time>2023-12-07T15:25:06.000Z</time>
      </trkpt>
      <trkpt lat="45.85133" lon="4.67352">
        <ele>255.66206</ele>
        <time>2023-12-07T15:25:07.000Z</time>
      </trkpt>
      <trkpt lat="45.85129" lon="4.67355">
        <ele>256.87054</ele>
        <time>2023-12-07T15:25:08.000Z</time>
      </trkpt>
      <trkpt lat="45.85126" lon="4.67356">
        <ele>258.09259</ele>
        <time>2023-12-07T15:25:09.000Z</time>
      </trkpt>
      <trkpt lat="45.85123" lon="4.67359">
        <ele>259.34454</ele>
        <time>2023-12-07T15:25:10.000Z</time>
      </trkpt>
      <trkpt lat="45.85119" lon="4.67361">
        <ele>260.67001</ele>
        <time>2023-12-07T15:25:11.000Z</time>
      </trkpt>
      <trkpt lat="45.85116" lon="4.67363">
        <ele>261.97321</ele>
        <time>2023-12-07T15:25:12.000Z</time>
      </trkpt>
      <trkpt lat="45.85113" lon="4.67365">
        <ele>263.28864</ele>
        <time>2023-12-07T15:25:13.000Z</time>
      </trkpt>
      <trkpt lat="45.8511" lon="4.67367">
        <ele>264.61932</ele>
        <time>2023-12-07T15:25:14.000Z</time>
      </trkpt>
      <trkpt lat="45.85107" lon="4.67369">
        <ele>265.95807</ele>
        <time>2023-12-07T15:25:15.000Z</time>
      </trkpt>
      <trkpt lat="45.85104" lon="4.67371">
        <ele>267.48996</ele>
        <time>2023-12-07T15:25:16.000Z</time>
      </trkpt>
      <trkpt lat="45.85101" lon="4.67372">
        <ele>267.56622</ele>
        <time>2023-12-07T15:25:17.000Z</time>
      </trkpt>
      <trkpt lat="45.85098" lon="4.67374">
        <ele>267.70715</ele>
        <time>2023-12-07T15:25:18.000Z</time>
      </trkpt>
      <trkpt lat="45.85094" lon="4.67376">
        <ele>267.8609</ele>
        <time>2023-12-07T15:25:19.000Z</time>
      </trkpt>
      <trkpt lat="45.85091" lon="4.67378">
        <ele>268.1283</ele>
        <time>2023-12-07T15:25:20.000Z</time>
      </trkpt>
      <trkpt lat="45.85088" lon="4.6738">
        <ele>268.48355</ele>
        <time>2023-12-07T15:25:21.000Z</time>
      </trkpt>
      <trkpt lat="45.85084" lon="4.67381">
        <ele>268.45413</ele>
        <time>2023-12-07T15:25:22.000Z</time>
      </trkpt>
      <trkpt lat="45.85081" lon="4.67383">
        <ele>268.51361</ele>
        <time>2023-12-07T15:25:23.000Z</time>
      </trkpt>
      <trkpt lat="45.85077" lon="4.67384">
        <ele>268.57736</ele>
        <time>2023-12-07T15:25:24.000Z</time>
      </trkpt>
      <trkpt lat="45.85074" lon="4.67386">
        <ele>268.64471</ele>
        <time>2023-12-07T15:25:25.000Z</time>
      </trkpt>
      <trkpt lat="45.85071" lon="4.67388">
        <ele>268.76996</ele>
        <time>2023-12-07T15:25:26.000Z</time>
      </trkpt>
      <trkpt lat="45.85068" lon="4.67389">
        <ele>268.88324</ele>
        <time>2023-12-07T15:25:27.000Z</time>
      </trkpt>
      <trkpt lat="45.85064" lon="4.67391">
        <ele>269.00372</ele>
        <time>2023-12-07T15:25:28.000Z</time>
      </trkpt>
      <trkpt lat="45.85061" lon="4.67393">
        <ele>269.12991</ele>
        <time>2023-12-07T15:25:29.000Z</time>
      </trkpt>
      <trkpt lat="45.85058" lon="4.67395">
        <ele>269.26938</ele>
        <time>2023-12-07T15:25:30.000Z</time>
      </trkpt>
      <trkpt lat="45.85055" lon="4.67397">
        <ele>269.42078</ele>
        <time>2023-12-07T15:25:31.000Z</time>
      </trkpt>
      <trkpt lat="45.85051" lon="4.67398">
        <ele>269.59708</ele>
        <time>2023-12-07T15:25:32.000Z</time>
      </trkpt>
      <trkpt lat="45.85048" lon="4.674">
        <ele>269.2626</ele>
        <time>2023-12-07T15:25:33.000Z</time>
      </trkpt>
      <trkpt lat="45.85044" lon="4.67402">
        <ele>268.92035</ele>
        <time>2023-12-07T15:25:34.000Z</time>
      </trkpt>
      <trkpt lat="45.85041" lon="4.67404">
        <ele>268.59512</ele>
        <time>2023-12-07T15:25:35.000Z</time>
      </trkpt>
      <trkpt lat="45.85038" lon="4.67406">
        <ele>268.08072</ele>
        <time>2023-12-07T15:25:36.000Z</time>
      </trkpt>
      <trkpt lat="45.85034" lon="4.67408">
        <ele>267.54868</ele>
        <time>2023-12-07T15:25:37.000Z</time>
      </trkpt>
      <trkpt lat="45.8503" lon="4.6741">
        <ele>266.91995</ele>
        <time>2023-12-07T15:25:38.000Z</time>
      </trkpt>
      <trkpt lat="45.85027" lon="4.67411">
        <ele>266.28967</ele>
        <time>2023-12-07T15:25:39.000Z</time>
      </trkpt>
      <trkpt lat="45.85023" lon="4.67413">
        <ele>265.64203</ele>
        <time>2023-12-07T15:25:40.000Z</time>
      </trkpt>
      <trkpt lat="45.8502" lon="4.67414">
        <ele>264.93317</ele>
        <time>2023-12-07T15:25:41.000Z</time>
      </trkpt>
      <trkpt lat="45.85016" lon="4.67415">
        <ele>264.65314</ele>
        <time>2023-12-07T15:25:42.000Z</time>
      </trkpt>
      <trkpt lat="45.85012" lon="4.67416">
        <ele>264.30957</ele>
        <time>2023-12-07T15:25:43.000Z</time>
      </trkpt>
      <trkpt lat="45.85008" lon="4.67418">
        <ele>263.91992</ele>
        <time>2023-12-07T15:25:44.000Z</time>
      </trkpt>
      <trkpt lat="45.85005" lon="4.67418">
        <ele>263.5036</ele>
        <time>2023-12-07T15:25:45.000Z</time>
      </trkpt>
      <trkpt lat="45.85001" lon="4.67419">
        <ele>263.07944</ele>
        <time>2023-12-07T15:25:46.000Z</time>
      </trkpt>
      <trkpt lat="45.84997" lon="4.6742">
        <ele>262.67145</ele>
        <time>2023-12-07T15:25:47.000Z</time>
      </trkpt>
      <trkpt lat="45.84993" lon="4.67421">
        <ele>262.24045</ele>
        <time>2023-12-07T15:25:48.000Z</time>
      </trkpt>
      <trkpt lat="45.84989" lon="4.67421">
        <ele>261.819</ele>
        <time>2023-12-07T15:25:49.000Z</time>
      </trkpt>
      <trkpt lat="45.84984" lon="4.67422">
        <ele>261.40338</ele>
        <time>2023-12-07T15:25:50.000Z</time>
      </trkpt>
      <trkpt lat="45.8498" lon="4.67422">
        <ele>260.99271</ele>
        <time>2023-12-07T15:25:51.000Z</time>
      </trkpt>
      <trkpt lat="45.84976" lon="4.67423">
        <ele>260.55508</ele>
        <time>2023-12-07T15:25:52.000Z</time>
      </trkpt>
      <trkpt lat="45.84972" lon="4.67424">
        <ele>260.65643</ele>
        <time>2023-12-07T15:25:53.000Z</time>
      </trkpt>
      <trkpt lat="45.84968" lon="4.67424">
        <ele>260.76657</ele>
        <time>2023-12-07T15:25:54.000Z</time>
      </trkpt>
      <trkpt lat="45.84964" lon="4.67425">
        <ele>260.86063</ele>
        <time>2023-12-07T15:25:55.000Z</time>
      </trkpt>
      <trkpt lat="45.8496" lon="4.67426">
        <ele>260.92282</ele>
        <time>2023-12-07T15:25:56.000Z</time>
      </trkpt>
      <trkpt lat="45.84956" lon="4.67427">
        <ele>261.01093</ele>
        <time>2023-12-07T15:25:57.000Z</time>
      </trkpt>
      <trkpt lat="45.84952" lon="4.67428">
        <ele>261.08319</ele>
        <time>2023-12-07T15:25:58.000Z</time>
      </trkpt>
      <trkpt lat="45.84948" lon="4.67429">
        <ele>261.13904</ele>
        <time>2023-12-07T15:25:59.000Z</time>
      </trkpt>
      <trkpt lat="45.84944" lon="4.6743">
        <ele>261.18707</ele>
        <time>2023-12-07T15:26:00.000Z</time>
      </trkpt>
      <trkpt lat="45.8494" lon="4.67431">
        <ele>261.22769</ele>
        <time>2023-12-07T15:26:01.000Z</time>
      </trkpt>
      <trkpt lat="45.84937" lon="4.67431">
        <ele>261.22598</ele>
        <time>2023-12-07T15:26:02.000Z</time>
      </trkpt>
      <trkpt lat="45.84933" lon="4.67432">
        <ele>261.21191</ele>
        <time>2023-12-07T15:26:03.000Z</time>
      </trkpt>
      <trkpt lat="45.84929" lon="4.67433">
        <ele>261.24298</ele>
        <time>2023-12-07T15:26:04.000Z</time>
      </trkpt>
      <trkpt lat="45.84925" lon="4.67433">
        <ele>261.2793</ele>
        <time>2023-12-07T15:26:05.000Z</time>
      </trkpt>
      <trkpt lat="45.8492" lon="4.67434">
        <ele>261.31171</ele>
        <time>2023-12-07T15:26:06.000Z</time>
      </trkpt>
      <trkpt lat="45.84916" lon="4.67435">
        <ele>261.33121</ele>
        <time>2023-12-07T15:26:07.000Z</time>
      </trkpt>
      <trkpt lat="45.84912" lon="4.67436">
        <ele>261.3262</ele>
        <time>2023-12-07T15:26:08.000Z</time>
      </trkpt>
      <trkpt lat="45.84908" lon="4.67435">
        <ele>261.33807</ele>
        <time>2023-12-07T15:26:09.000Z</time>
      </trkpt>
      <trkpt lat="45.84903" lon="4.67435">
        <ele>261.35114</ele>
        <time>2023-12-07T15:26:10.000Z</time>
      </trkpt>
      <trkpt lat="45.84899" lon="4.67435">
        <ele>261.31464</ele>
        <time>2023-12-07T15:26:11.000Z</time>
      </trkpt>
      <trkpt lat="45.84894" lon="4.67435">
        <ele>261.3313</ele>
        <time>2023-12-07T15:26:12.000Z</time>
      </trkpt>
      <trkpt lat="45.8489" lon="4.67436">
        <ele>261.37476</ele>
        <time>2023-12-07T15:26:13.000Z</time>
      </trkpt>
      <trkpt lat="45.84886" lon="4.67436">
        <ele>261.95416</ele>
        <time>2023-12-07T15:26:14.000Z</time>
      </trkpt>
      <trkpt lat="45.84881" lon="4.67437">
        <ele>262.53653</ele>
        <time>2023-12-07T15:26:15.000Z</time>
      </trkpt>
      <trkpt lat="45.84877" lon="4.67437">
        <ele>263.12299</ele>
        <time>2023-12-07T15:26:16.000Z</time>
      </trkpt>
      <trkpt lat="45.84874" lon="4.67437">
        <ele>263.70395</ele>
        <time>2023-12-07T15:26:17.000Z</time>
      </trkpt>
      <trkpt lat="45.84871" lon="4.67438">
        <ele>264.27951</ele>
        <time>2023-12-07T15:26:18.000Z</time>
      </trkpt>
      <trkpt lat="45.84867" lon="4.67439">
        <ele>264.89728</ele>
        <time>2023-12-07T15:26:19.000Z</time>
      </trkpt>
      <trkpt lat="45.84863" lon="4.67439">
        <ele>265.6777</ele>
        <time>2023-12-07T15:26:20.000Z</time>
      </trkpt>
      <trkpt lat="45.84859" lon="4.67439">
        <ele>266.55225</ele>
        <time>2023-12-07T15:26:21.000Z</time>
      </trkpt>
      <trkpt lat="45.84855" lon="4.67439">
        <ele>267.48599</ele>
        <time>2023-12-07T15:26:22.000Z</time>
      </trkpt>
      <trkpt lat="45.84851" lon="4.6744">
        <ele>268.41141</ele>
        <time>2023-12-07T15:26:23.000Z</time>
      </trkpt>
      <trkpt lat="45.84846" lon="4.6744">
        <ele>269.36826</ele>
        <time>2023-12-07T15:26:24.000Z</time>
      </trkpt>
      <trkpt lat="45.84842" lon="4.6744">
        <ele>270.32977</ele>
        <time>2023-12-07T15:26:25.000Z</time>
      </trkpt>
      <trkpt lat="45.84838" lon="4.6744">
        <ele>270.91522</ele>
        <time>2023-12-07T15:26:26.000Z</time>
      </trkpt>
      <trkpt lat="45.84834" lon="4.6744">
        <ele>271.60037</ele>
        <time>2023-12-07T15:26:27.000Z</time>
      </trkpt>
      <trkpt lat="45.84829" lon="4.6744">
        <ele>272.31818</ele>
        <time>2023-12-07T15:26:28.000Z</time>
      </trkpt>
      <trkpt lat="45.84825" lon="4.67441">
        <ele>273.04092</ele>
        <time>2023-12-07T15:26:29.000Z</time>
      </trkpt>
      <trkpt lat="45.8482" lon="4.67442">
        <ele>273.78</ele>
        <time>2023-12-07T15:26:30.000Z</time>
      </trkpt>
      <trkpt lat="45.84815" lon="4.67442">
        <ele>274.56427</ele>
        <time>2023-12-07T15:26:31.000Z</time>
      </trkpt>
      <trkpt lat="45.8481" lon="4.67443">
        <ele>275.30719</ele>
        <time>2023-12-07T15:26:32.000Z</time>
      </trkpt>
      <trkpt lat="45.84807" lon="4.67441">
        <ele>276.03586</ele>
        <time>2023-12-07T15:26:33.000Z</time>
      </trkpt>
      <trkpt lat="45.84802" lon="4.67441">
        <ele>276.18292</ele>
        <time>2023-12-07T15:26:34.000Z</time>
      </trkpt>
      <trkpt lat="45.84798" lon="4.67441">
        <ele>276.31451</ele>
        <time>2023-12-07T15:26:35.000Z</time>
      </trkpt>
      <trkpt lat="45.84793" lon="4.67442">
        <ele>276.40561</ele>
        <time>2023-12-07T15:26:36.000Z</time>
      </trkpt>
      <trkpt lat="45.84788" lon="4.67443">
        <ele>276.51288</ele>
        <time>2023-12-07T15:26:37.000Z</time>
      </trkpt>
      <trkpt lat="45.84784" lon="4.67444">
        <ele>276.61911</ele>
        <time>2023-12-07T15:26:38.000Z</time>
      </trkpt>
      <trkpt lat="45.84778" lon="4.67446">
        <ele>276.70886</ele>
        <time>2023-12-07T15:26:39.000Z</time>
      </trkpt>
      <trkpt lat="45.84773" lon="4.67447">
        <ele>276.62885</ele>
        <time>2023-12-07T15:26:40.000Z</time>
      </trkpt>
      <trkpt lat="45.84767" lon="4.67448">
        <ele>276.46075</ele>
        <time>2023-12-07T15:26:41.000Z</time>
      </trkpt>
      <trkpt lat="45.84762" lon="4.67449">
        <ele>276.25922</ele>
        <time>2023-12-07T15:26:42.000Z</time>
      </trkpt>
      <trkpt lat="45.84756" lon="4.6745">
        <ele>276.05835</ele>
        <time>2023-12-07T15:26:43.000Z</time>
      </trkpt>
      <trkpt lat="45.84751" lon="4.67451">
        <ele>276.06149</ele>
        <time>2023-12-07T15:26:44.000Z</time>
      </trkpt>
      <trkpt lat="45.84744" lon="4.67451">
        <ele>276.01874</ele>
        <time>2023-12-07T15:26:45.000Z</time>
      </trkpt>
      <trkpt lat="45.84739" lon="4.67453">
        <ele>276.39636</ele>
        <time>2023-12-07T15:26:46.000Z</time>
      </trkpt>
      <trkpt lat="45.84734" lon="4.67454">
        <ele>276.70706</ele>
        <time>2023-12-07T15:26:47.000Z</time>
      </trkpt>
      <trkpt lat="45.84727" lon="4.67455">
        <ele>276.97955</ele>
        <time>2023-12-07T15:26:48.000Z</time>
      </trkpt>
      <trkpt lat="45.84721" lon="4.67456">
        <ele>276.8576</ele>
        <time>2023-12-07T15:26:49.000Z</time>
      </trkpt>
      <trkpt lat="45.84715" lon="4.67458">
        <ele>276.78528</ele>
        <time>2023-12-07T15:26:50.000Z</time>
      </trkpt>
      <trkpt lat="45.84709" lon="4.67458">
        <ele>276.67902</ele>
        <time>2023-12-07T15:26:51.000Z</time>
      </trkpt>
      <trkpt lat="45.84703" lon="4.67459">
        <ele>276.57028</ele>
        <time>2023-12-07T15:26:52.000Z</time>
      </trkpt>
      <trkpt lat="45.84698" lon="4.67462">
        <ele>276.45126</ele>
        <time>2023-12-07T15:26:53.000Z</time>
      </trkpt>
      <trkpt lat="45.84693" lon="4.67466">
        <ele>276.35654</ele>
        <time>2023-12-07T15:26:54.000Z</time>
      </trkpt>
      <trkpt lat="45.84689" lon="4.67471">
        <ele>276.2897</ele>
        <time>2023-12-07T15:26:55.000Z</time>
      </trkpt>
      <trkpt lat="45.84686" lon="4.67478">
        <ele>276.25079</ele>
        <time>2023-12-07T15:26:56.000Z</time>
      </trkpt>
      <trkpt lat="45.84683" lon="4.67483">
        <ele>276.229</ele>
        <time>2023-12-07T15:26:57.000Z</time>
      </trkpt>
      <trkpt lat="45.8468" lon="4.67489">
        <ele>276.22485</ele>
        <time>2023-12-07T15:26:58.000Z</time>
      </trkpt>
      <trkpt lat="45.84677" lon="4.67495">
        <ele>276.22107</ele>
        <time>2023-12-07T15:26:59.000Z</time>
      </trkpt>
      <trkpt lat="45.84675" lon="4.675">
        <ele>276.27759</ele>
        <time>2023-12-07T15:27:00.000Z</time>
      </trkpt>
      <trkpt lat="45.84672" lon="4.67507">
        <ele>276.35721</ele>
        <time>2023-12-07T15:27:01.000Z</time>
      </trkpt>
      <trkpt lat="45.84668" lon="4.67514">
        <ele>276.43402</ele>
        <time>2023-12-07T15:27:02.000Z</time>
      </trkpt>
      <trkpt lat="45.84664" lon="4.67522">
        <ele>276.51114</ele>
        <time>2023-12-07T15:27:03.000Z</time>
      </trkpt>
      <trkpt lat="45.8466" lon="4.67529">
        <ele>276.31567</ele>
        <time>2023-12-07T15:27:04.000Z</time>
      </trkpt>
      <trkpt lat="45.84657" lon="4.67536">
        <ele>276.17715</ele>
        <time>2023-12-07T15:27:05.000Z</time>
      </trkpt>
      <trkpt lat="45.84653" lon="4.67542">
        <ele>276.00583</ele>
        <time>2023-12-07T15:27:06.000Z</time>
      </trkpt>
      <trkpt lat="45.84649" lon="4.67547">
        <ele>275.81339</ele>
        <time>2023-12-07T15:27:07.000Z</time>
      </trkpt>
      <trkpt lat="45.84644" lon="4.67553">
        <ele>275.62161</ele>
        <time>2023-12-07T15:27:08.000Z</time>
      </trkpt>
      <trkpt lat="45.8464" lon="4.67558">
        <ele>275.82132</ele>
        <time>2023-12-07T15:27:09.000Z</time>
      </trkpt>
      <trkpt lat="45.84636" lon="4.67563">
        <ele>275.92654</ele>
        <time>2023-12-07T15:27:10.000Z</time>
      </trkpt>
      <trkpt lat="45.84631" lon="4.67567">
        <ele>276.02444</ele>
        <time>2023-12-07T15:27:11.000Z</time>
      </trkpt>
      <trkpt lat="45.84627" lon="4.67572">
        <ele>276.10599</ele>
        <time>2023-12-07T15:27:12.000Z</time>
      </trkpt>
      <trkpt lat="45.84622" lon="4.67575">
        <ele>276.19138</ele>
        <time>2023-12-07T15:27:13.000Z</time>
      </trkpt>
      <trkpt lat="45.84617" lon="4.67578">
        <ele>276.27707</ele>
        <time>2023-12-07T15:27:14.000Z</time>
      </trkpt>
      <trkpt lat="45.84612" lon="4.67581">
        <ele>276.34476</ele>
        <time>2023-12-07T15:27:15.000Z</time>
      </trkpt>
      <trkpt lat="45.84606" lon="4.67583">
        <ele>276.45123</ele>
        <time>2023-12-07T15:27:16.000Z</time>
      </trkpt>
      <trkpt lat="45.84601" lon="4.67586">
        <ele>276.54468</ele>
        <time>2023-12-07T15:27:17.000Z</time>
      </trkpt>
      <trkpt lat="45.84596" lon="4.67587">
        <ele>276.64886</ele>
        <time>2023-12-07T15:27:18.000Z</time>
      </trkpt>
      <trkpt lat="45.84591" lon="4.67589">
        <ele>276.74213</ele>
        <time>2023-12-07T15:27:19.000Z</time>
      </trkpt>
      <trkpt lat="45.84586" lon="4.67589">
        <ele>276.78949</ele>
        <time>2023-12-07T15:27:20.000Z</time>
      </trkpt>
      <trkpt lat="45.8458" lon="4.6759">
        <ele>276.82217</ele>
        <time>2023-12-07T15:27:21.000Z</time>
      </trkpt>
      <trkpt lat="45.84576" lon="4.6759">
        <ele>276.83261</ele>
        <time>2023-12-07T15:27:22.000Z</time>
      </trkpt>
      <trkpt lat="45.8457" lon="4.6759">
        <ele>276.83469</ele>
        <time>2023-12-07T15:27:23.000Z</time>
      </trkpt>
      <trkpt lat="45.84566" lon="4.67589">
        <ele>276.86102</ele>
        <time>2023-12-07T15:27:24.000Z</time>
      </trkpt>
      <trkpt lat="45.84561" lon="4.67588">
        <ele>276.81903</ele>
        <time>2023-12-07T15:27:25.000Z</time>
      </trkpt>
      <trkpt lat="45.84557" lon="4.67588">
        <ele>276.79233</ele>
        <time>2023-12-07T15:27:26.000Z</time>
      </trkpt>
      <trkpt lat="45.84552" lon="4.67587">
        <ele>276.74576</ele>
        <time>2023-12-07T15:27:27.000Z</time>
      </trkpt>
      <trkpt lat="45.84547" lon="4.67585">
        <ele>276.72177</ele>
        <time>2023-12-07T15:27:28.000Z</time>
      </trkpt>
      <trkpt lat="45.84542" lon="4.67584">
        <ele>276.71179</ele>
        <time>2023-12-07T15:27:29.000Z</time>
      </trkpt>
      <trkpt lat="45.84538" lon="4.67581">
        <ele>276.73328</ele>
        <time>2023-12-07T15:27:30.000Z</time>
      </trkpt>
      <trkpt lat="45.84533" lon="4.67578">
        <ele>276.75635</ele>
        <time>2023-12-07T15:27:31.000Z</time>
      </trkpt>
      <trkpt lat="45.84529" lon="4.67576">
        <ele>276.79071</ele>
        <time>2023-12-07T15:27:32.000Z</time>
      </trkpt>
      <trkpt lat="45.84524" lon="4.67572">
        <ele>276.82001</ele>
        <time>2023-12-07T15:27:33.000Z</time>
      </trkpt>
      <trkpt lat="45.8452" lon="4.67569">
        <ele>276.86517</ele>
        <time>2023-12-07T15:27:34.000Z</time>
      </trkpt>
      <trkpt lat="45.84516" lon="4.67565">
        <ele>276.91483</ele>
        <time>2023-12-07T15:27:35.000Z</time>
      </trkpt>
      <trkpt lat="45.84513" lon="4.67561">
        <ele>276.93546</ele>
        <time>2023-12-07T15:27:36.000Z</time>
      </trkpt>
      <trkpt lat="45.84509" lon="4.67557">
        <ele>276.95084</ele>
        <time>2023-12-07T15:27:37.000Z</time>
      </trkpt>
      <trkpt lat="45.84505" lon="4.67554">
        <ele>276.94446</ele>
        <time>2023-12-07T15:27:38.000Z</time>
      </trkpt>
      <trkpt lat="45.84501" lon="4.67552">
        <ele>276.92172</ele>
        <time>2023-12-07T15:27:39.000Z</time>
      </trkpt>
      <trkpt lat="45.84496" lon="4.6755">
        <ele>276.9072</ele>
        <time>2023-12-07T15:27:40.000Z</time>
      </trkpt>
      <trkpt lat="45.84492" lon="4.67551">
        <ele>276.88672</ele>
        <time>2023-12-07T15:27:41.000Z</time>
      </trkpt>
      <trkpt lat="45.84488" lon="4.67552">
        <ele>276.88834</ele>
        <time>2023-12-07T15:27:42.000Z</time>
      </trkpt>
      <trkpt lat="45.84485" lon="4.67554">
        <ele>276.89426</ele>
        <time>2023-12-07T15:27:43.000Z</time>
      </trkpt>
      <trkpt lat="45.84481" lon="4.67556">
        <ele>277.04483</ele>
        <time>2023-12-07T15:27:44.000Z</time>
      </trkpt>
      <trkpt lat="45.84478" lon="4.6756">
        <ele>277.21368</ele>
        <time>2023-12-07T15:27:45.000Z</time>
      </trkpt>
      <trkpt lat="45.84474" lon="4.67563">
        <ele>277.40808</ele>
        <time>2023-12-07T15:27:46.000Z</time>
      </trkpt>
      <trkpt lat="45.84471" lon="4.67568">
        <ele>277.67471</ele>
        <time>2023-12-07T15:27:47.000Z</time>
      </trkpt>
      <trkpt lat="45.84468" lon="4.6757">
        <ele>277.95071</ele>
        <time>2023-12-07T15:27:48.000Z</time>
      </trkpt>
      <trkpt lat="45.84464" lon="4.67574">
        <ele>277.81116</ele>
        <time>2023-12-07T15:27:49.000Z</time>
      </trkpt>
      <trkpt lat="45.8446" lon="4.67577">
        <ele>277.74872</ele>
        <time>2023-12-07T15:27:50.000Z</time>
      </trkpt>
      <trkpt lat="45.84457" lon="4.6758">
        <ele>277.70761</ele>
        <time>2023-12-07T15:27:51.000Z</time>
      </trkpt>
      <trkpt lat="45.84453" lon="4.67584">
        <ele>277.64874</ele>
        <time>2023-12-07T15:27:52.000Z</time>
      </trkpt>
      <trkpt lat="45.8445" lon="4.67587">
        <ele>277.5791</ele>
        <time>2023-12-07T15:27:53.000Z</time>
      </trkpt>
      <trkpt lat="45.84446" lon="4.67591">
        <ele>277.46597</ele>
        <time>2023-12-07T15:27:54.000Z</time>
      </trkpt>
      <trkpt lat="45.84443" lon="4.67594">
        <ele>277.32953</ele>
        <time>2023-12-07T15:27:55.000Z</time>
      </trkpt>
      <trkpt lat="45.8444" lon="4.67597">
        <ele>277.1734</ele>
        <time>2023-12-07T15:27:56.000Z</time>
      </trkpt>
      <trkpt lat="45.84436" lon="4.67599">
        <ele>277.00754</ele>
        <time>2023-12-07T15:27:57.000Z</time>
      </trkpt>
      <trkpt lat="45.84433" lon="4.676">
        <ele>276.82932</ele>
        <time>2023-12-07T15:27:58.000Z</time>
      </trkpt>
      <trkpt lat="45.8443" lon="4.676">
        <ele>276.69492</ele>
        <time>2023-12-07T15:27:59.000Z</time>
      </trkpt>
      <trkpt lat="45.84427" lon="4.67599">
        <ele>276.56021</ele>
        <time>2023-12-07T15:28:00.000Z</time>
      </trkpt>
      <trkpt lat="45.84423" lon="4.67598">
        <ele>276.67953</ele>
        <time>2023-12-07T15:28:01.000Z</time>
      </trkpt>
      <trkpt lat="45.84419" lon="4.67595">
        <ele>276.81625</ele>
        <time>2023-12-07T15:28:02.000Z</time>
      </trkpt>
      <trkpt lat="45.84416" lon="4.67593">
        <ele>277.02393</ele>
        <time>2023-12-07T15:28:03.000Z</time>
      </trkpt>
      <trkpt lat="45.84412" lon="4.6759">
        <ele>276.75372</ele>
        <time>2023-12-07T15:28:04.000Z</time>
      </trkpt>
      <trkpt lat="45.84407" lon="4.67589">
        <ele>276.56418</ele>
        <time>2023-12-07T15:28:05.000Z</time>
      </trkpt>
      <trkpt lat="45.84403" lon="4.67588">
        <ele>276.33835</ele>
        <time>2023-12-07T15:28:06.000Z</time>
      </trkpt>
      <trkpt lat="45.84399" lon="4.67589">
        <ele>276.06305</ele>
        <time>2023-12-07T15:28:07.000Z</time>
      </trkpt>
      <trkpt lat="45.84394" lon="4.67589">
        <ele>275.77402</ele>
        <time>2023-12-07T15:28:08.000Z</time>
      </trkpt>
      <trkpt lat="45.84389" lon="4.67589">
        <ele>275.86508</ele>
        <time>2023-12-07T15:28:09.000Z</time>
      </trkpt>
      <trkpt lat="45.84384" lon="4.6759">
        <ele>275.83508</ele>
        <time>2023-12-07T15:28:10.000Z</time>
      </trkpt>
      <trkpt lat="45.8438" lon="4.67591">
        <ele>275.83389</ele>
        <time>2023-12-07T15:28:11.000Z</time>
      </trkpt>
      <trkpt lat="45.84375" lon="4.67593">
        <ele>275.82584</ele>
        <time>2023-12-07T15:28:12.000Z</time>
      </trkpt>
      <trkpt lat="45.84371" lon="4.67596">
        <ele>275.81839</ele>
        <time>2023-12-07T15:28:13.000Z</time>
      </trkpt>
      <trkpt lat="45.84366" lon="4.67599">
        <ele>276.04218</ele>
        <time>2023-12-07T15:28:14.000Z</time>
      </trkpt>
      <trkpt lat="45.84362" lon="4.67601">
        <ele>276.30661</ele>
        <time>2023-12-07T15:28:15.000Z</time>
      </trkpt>
      <trkpt lat="45.84357" lon="4.67603">
        <ele>276.61224</ele>
        <time>2023-12-07T15:28:16.000Z</time>
      </trkpt>
      <trkpt lat="45.84351" lon="4.67605">
        <ele>276.92178</ele>
        <time>2023-12-07T15:28:17.000Z</time>
      </trkpt>
      <trkpt lat="45.84347" lon="4.67607">
        <ele>277.27487</ele>
        <time>2023-12-07T15:28:18.000Z</time>
      </trkpt>
      <trkpt lat="45.84342" lon="4.6761">
        <ele>277.64645</ele>
        <time>2023-12-07T15:28:19.000Z</time>
      </trkpt>
      <trkpt lat="45.84337" lon="4.67614">
        <ele>277.67014</ele>
        <time>2023-12-07T15:28:20.000Z</time>
      </trkpt>
      <trkpt lat="45.84332" lon="4.67617">
        <ele>277.50916</ele>
        <time>2023-12-07T15:28:21.000Z</time>
      </trkpt>
      <trkpt lat="45.84326" lon="4.67621">
        <ele>277.29938</ele>
        <time>2023-12-07T15:28:22.000Z</time>
      </trkpt>
      <trkpt lat="45.84322" lon="4.67624">
        <ele>277.00842</ele>
        <time>2023-12-07T15:28:23.000Z</time>
      </trkpt>
      <trkpt lat="45.84316" lon="4.67627">
        <ele>277.07709</ele>
        <time>2023-12-07T15:28:24.000Z</time>
      </trkpt>
      <trkpt lat="45.84311" lon="4.6763">
        <ele>277.10382</ele>
        <time>2023-12-07T15:28:25.000Z</time>
      </trkpt>
      <trkpt lat="45.84306" lon="4.67634">
        <ele>277.08835</ele>
        <time>2023-12-07T15:28:26.000Z</time>
      </trkpt>
      <trkpt lat="45.84301" lon="4.67636">
        <ele>277.05975</ele>
        <time>2023-12-07T15:28:27.000Z</time>
      </trkpt>
      <trkpt lat="45.84295" lon="4.67638">
        <ele>277.02704</ele>
        <time>2023-12-07T15:28:28.000Z</time>
      </trkpt>
      <trkpt lat="45.84289" lon="4.67641">
        <ele>277.00323</ele>
        <time>2023-12-07T15:28:29.000Z</time>
      </trkpt>
      <trkpt lat="45.84283" lon="4.67642">
        <ele>276.9996</ele>
        <time>2023-12-07T15:28:30.000Z</time>
      </trkpt>
      <trkpt lat="45.84278" lon="4.67644">
        <ele>276.96579</ele>
        <time>2023-12-07T15:28:31.000Z</time>
      </trkpt>
      <trkpt lat="45.84273" lon="4.67645">
        <ele>276.96735</ele>
        <time>2023-12-07T15:28:32.000Z</time>
      </trkpt>
      <trkpt lat="45.84268" lon="4.67644">
        <ele>276.9707</ele>
        <time>2023-12-07T15:28:33.000Z</time>
      </trkpt>
      <trkpt lat="45.84262" lon="4.67645">
        <ele>276.75983</ele>
        <time>2023-12-07T15:28:34.000Z</time>
      </trkpt>
      <trkpt lat="45.84257" lon="4.67644">
        <ele>276.53912</ele>
        <time>2023-12-07T15:28:35.000Z</time>
      </trkpt>
      <trkpt lat="45.84253" lon="4.67642">
        <ele>276.28998</ele>
        <time>2023-12-07T15:28:36.000Z</time>
      </trkpt>
      <trkpt lat="45.84248" lon="4.67641">
        <ele>276.05487</ele>
        <time>2023-12-07T15:28:37.000Z</time>
      </trkpt>
      <trkpt lat="45.84244" lon="4.67641">
        <ele>275.82855</ele>
        <time>2023-12-07T15:28:38.000Z</time>
      </trkpt>
      <trkpt lat="45.84239" lon="4.67641">
        <ele>275.58707</ele>
        <time>2023-12-07T15:28:39.000Z</time>
      </trkpt>
      <trkpt lat="45.84235" lon="4.67641">
        <ele>275.6994</ele>
        <time>2023-12-07T15:28:40.000Z</time>
      </trkpt>
      <trkpt lat="45.84232" lon="4.6764">
        <ele>275.75284</ele>
        <time>2023-12-07T15:28:41.000Z</time>
      </trkpt>
      <trkpt lat="45.84229" lon="4.67637">
        <ele>275.82065</ele>
        <time>2023-12-07T15:28:42.000Z</time>
      </trkpt>
      <trkpt lat="45.84225" lon="4.67634">
        <ele>275.90814</ele>
        <time>2023-12-07T15:28:43.000Z</time>
      </trkpt>
      <trkpt lat="45.84222" lon="4.6763">
        <ele>276.19391</ele>
        <time>2023-12-07T15:28:44.000Z</time>
      </trkpt>
      <trkpt lat="45.8422" lon="4.67626">
        <ele>276.46735</ele>
        <time>2023-12-07T15:28:45.000Z</time>
      </trkpt>
      <trkpt lat="45.84217" lon="4.67623">
        <ele>276.80389</ele>
        <time>2023-12-07T15:28:46.000Z</time>
      </trkpt>
      <trkpt lat="45.84213" lon="4.67618">
        <ele>277.16168</ele>
        <time>2023-12-07T15:28:47.000Z</time>
      </trkpt>
      <trkpt lat="45.8421" lon="4.67614">
        <ele>277.17401</ele>
        <time>2023-12-07T15:28:48.000Z</time>
      </trkpt>
      <trkpt lat="45.84207" lon="4.67611">
        <ele>277.26932</ele>
        <time>2023-12-07T15:28:49.000Z</time>
      </trkpt>
      <trkpt lat="45.84203" lon="4.67607">
        <ele>277.38489</ele>
        <time>2023-12-07T15:28:50.000Z</time>
      </trkpt>
      <trkpt lat="45.842" lon="4.67603">
        <ele>277.49829</ele>
        <time>2023-12-07T15:28:51.000Z</time>
      </trkpt>
      <trkpt lat="45.84197" lon="4.67598">
        <ele>277.57425</ele>
        <time>2023-12-07T15:28:52.000Z</time>
      </trkpt>
      <trkpt lat="45.84193" lon="4.67595">
        <ele>277.67032</ele>
        <time>2023-12-07T15:28:53.000Z</time>
      </trkpt>
      <trkpt lat="45.84189" lon="4.67592">
        <ele>277.78156</ele>
        <time>2023-12-07T15:28:54.000Z</time>
      </trkpt>
      <trkpt lat="45.84186" lon="4.67588">
        <ele>277.88525</ele>
        <time>2023-12-07T15:28:55.000Z</time>
      </trkpt>
      <trkpt lat="45.84182" lon="4.67584">
        <ele>278.01135</ele>
        <time>2023-12-07T15:28:56.000Z</time>
      </trkpt>
      <trkpt lat="45.84179" lon="4.67579">
        <ele>278.10172</ele>
        <time>2023-12-07T15:28:57.000Z</time>
      </trkpt>
      <trkpt lat="45.84175" lon="4.67577">
        <ele>278.17764</ele>
        <time>2023-12-07T15:28:58.000Z</time>
      </trkpt>
      <trkpt lat="45.84172" lon="4.67572">
        <ele>278.22186</ele>
        <time>2023-12-07T15:28:59.000Z</time>
      </trkpt>
      <trkpt lat="45.84168" lon="4.67568">
        <ele>278.25446</ele>
        <time>2023-12-07T15:29:00.000Z</time>
      </trkpt>
      <trkpt lat="45.84164" lon="4.67564">
        <ele>278.29437</ele>
        <time>2023-12-07T15:29:01.000Z</time>
      </trkpt>
      <trkpt lat="45.8416" lon="4.67559">
        <ele>278.33951</ele>
        <time>2023-12-07T15:29:02.000Z</time>
      </trkpt>
      <trkpt lat="45.84157" lon="4.67555">
        <ele>278.36639</ele>
        <time>2023-12-07T15:29:03.000Z</time>
      </trkpt>
      <trkpt lat="45.84153" lon="4.6755">
        <ele>278.18829</ele>
        <time>2023-12-07T15:29:04.000Z</time>
      </trkpt>
      <trkpt lat="45.8415" lon="4.67544">
        <ele>278.00912</ele>
        <time>2023-12-07T15:29:05.000Z</time>
      </trkpt>
      <trkpt lat="45.84145" lon="4.67541">
        <ele>277.78275</ele>
        <time>2023-12-07T15:29:06.000Z</time>
      </trkpt>
      <trkpt lat="45.84141" lon="4.67537">
        <ele>276.95844</ele>
        <time>2023-12-07T15:29:07.000Z</time>
      </trkpt>
      <trkpt lat="45.84138" lon="4.67533">
        <ele>276.50302</ele>
        <time>2023-12-07T15:29:08.000Z</time>
      </trkpt>
      <trkpt lat="45.84134" lon="4.67529">
        <ele>275.97687</ele>
        <time>2023-12-07T15:29:09.000Z</time>
      </trkpt>
      <trkpt lat="45.8413" lon="4.67525">
        <ele>275.44141</ele>
        <time>2023-12-07T15:29:10.000Z</time>
      </trkpt>
      <trkpt lat="45.84126" lon="4.67522">
        <ele>274.93088</ele>
        <time>2023-12-07T15:29:11.000Z</time>
      </trkpt>
      <trkpt lat="45.84122" lon="4.67518">
        <ele>274.43314</ele>
        <time>2023-12-07T15:29:12.000Z</time>
      </trkpt>
      <trkpt lat="45.84119" lon="4.67516">
        <ele>273.92734</ele>
        <time>2023-12-07T15:29:13.000Z</time>
      </trkpt>
      <trkpt lat="45.84115" lon="4.67514">
        <ele>273.41321</ele>
        <time>2023-12-07T15:29:14.000Z</time>
      </trkpt>
      <trkpt lat="45.84112" lon="4.67512">
        <ele>272.89618</ele>
        <time>2023-12-07T15:29:15.000Z</time>
      </trkpt>
      <trkpt lat="45.84109" lon="4.67514">
        <ele>272.39508</ele>
        <time>2023-12-07T15:29:16.000Z</time>
      </trkpt>
      <trkpt lat="45.84107" lon="4.67519">
        <ele>271.89771</ele>
        <time>2023-12-07T15:29:17.000Z</time>
      </trkpt>
      <trkpt lat="45.84106" lon="4.67525">
        <ele>271.40747</ele>
        <time>2023-12-07T15:29:18.000Z</time>
      </trkpt>
      <trkpt lat="45.84107" lon="4.6753">
        <ele>270.91949</ele>
        <time>2023-12-07T15:29:19.000Z</time>
      </trkpt>
      <trkpt lat="45.84109" lon="4.67534">
        <ele>270.43845</ele>
        <time>2023-12-07T15:29:20.000Z</time>
      </trkpt>
      <trkpt lat="45.84112" lon="4.67539">
        <ele>269.95132</ele>
        <time>2023-12-07T15:29:21.000Z</time>
      </trkpt>
      <trkpt lat="45.84115" lon="4.67543">
        <ele>269.48837</ele>
        <time>2023-12-07T15:29:22.000Z</time>
      </trkpt>
      <trkpt lat="45.84117" lon="4.67548">
        <ele>269.04877</ele>
        <time>2023-12-07T15:29:23.000Z</time>
      </trkpt>
      <trkpt lat="45.84119" lon="4.67553">
        <ele>268.56354</ele>
        <time>2023-12-07T15:29:24.000Z</time>
      </trkpt>
      <trkpt lat="45.8412" lon="4.6756">
        <ele>268.1109</ele>
        <time>2023-12-07T15:29:25.000Z</time>
      </trkpt>
      <trkpt lat="45.84119" lon="4.67568">
        <ele>267.68103</ele>
        <time>2023-12-07T15:29:26.000Z</time>
      </trkpt>
      <trkpt lat="45.84117" lon="4.67573">
        <ele>268.65424</ele>
        <time>2023-12-07T15:29:27.000Z</time>
      </trkpt>
      <trkpt lat="45.84115" lon="4.67577">
        <ele>269.62823</ele>
        <time>2023-12-07T15:29:28.000Z</time>
      </trkpt>
      <trkpt lat="45.84112" lon="4.67581">
        <ele>270.61917</ele>
        <time>2023-12-07T15:29:29.000Z</time>
      </trkpt>
      <trkpt lat="45.84109" lon="4.67584">
        <ele>271.62753</ele>
        <time>2023-12-07T15:29:30.000Z</time>
      </trkpt>
      <trkpt lat="45.84107" lon="4.67587">
        <ele>272.34937</ele>
        <time>2023-12-07T15:29:31.000Z</time>
      </trkpt>
      <trkpt lat="45.84104" lon="4.6759">
        <ele>273.13297</ele>
        <time>2023-12-07T15:29:32.000Z</time>
      </trkpt>
      <trkpt lat="45.84101" lon="4.67592">
        <ele>273.89224</ele>
        <time>2023-12-07T15:29:33.000Z</time>
      </trkpt>
      <trkpt lat="45.84098" lon="4.67595">
        <ele>274.65994</ele>
        <time>2023-12-07T15:29:34.000Z</time>
      </trkpt>
      <trkpt lat="45.84095" lon="4.67599">
        <ele>275.42084</ele>
        <time>2023-12-07T15:29:35.000Z</time>
      </trkpt>
      <trkpt lat="45.84092" lon="4.67603">
        <ele>276.16925</ele>
        <time>2023-12-07T15:29:36.000Z</time>
      </trkpt>
      <trkpt lat="45.8409" lon="4.67606">
        <ele>276.9285</ele>
        <time>2023-12-07T15:29:37.000Z</time>
      </trkpt>
      <trkpt lat="45.84087" lon="4.67609">
        <ele>277.66733</ele>
        <time>2023-12-07T15:29:38.000Z</time>
      </trkpt>
      <trkpt lat="45.84084" lon="4.67613">
        <ele>278.40411</ele>
        <time>2023-12-07T15:29:39.000Z</time>
      </trkpt>
      <trkpt lat="45.84082" lon="4.67617">
        <ele>279.14868</ele>
        <time>2023-12-07T15:29:40.000Z</time>
      </trkpt>
      <trkpt lat="45.84079" lon="4.6762">
        <ele>279.89453</ele>
        <time>2023-12-07T15:29:41.000Z</time>
      </trkpt>
      <trkpt lat="45.84076" lon="4.67624">
        <ele>280.63495</ele>
        <time>2023-12-07T15:29:42.000Z</time>
      </trkpt>
      <trkpt lat="45.84073" lon="4.67627">
        <ele>281.37415</ele>
        <time>2023-12-07T15:29:43.000Z</time>
      </trkpt>
      <trkpt lat="45.8407" lon="4.67631">
        <ele>282.30743</ele>
        <time>2023-12-07T15:29:44.000Z</time>
      </trkpt>
      <trkpt lat="45.84067" lon="4.67635">
        <ele>283.20068</ele>
        <time>2023-12-07T15:29:45.000Z</time>
      </trkpt>
      <trkpt lat="45.84064" lon="4.67638">
        <ele>284.065</ele>
        <time>2023-12-07T15:29:46.000Z</time>
      </trkpt>
      <trkpt lat="45.84061" lon="4.67642">
        <ele>284.15091</ele>
        <time>2023-12-07T15:29:47.000Z</time>
      </trkpt>
      <trkpt lat="45.84058" lon="4.67646">
        <ele>284.21387</ele>
        <time>2023-12-07T15:29:48.000Z</time>
      </trkpt>
      <trkpt lat="45.84055" lon="4.67649">
        <ele>283.99164</ele>
        <time>2023-12-07T15:29:49.000Z</time>
      </trkpt>
      <trkpt lat="45.84052" lon="4.67653">
        <ele>283.83163</ele>
        <time>2023-12-07T15:29:50.000Z</time>
      </trkpt>
      <trkpt lat="45.84049" lon="4.67657">
        <ele>283.91998</ele>
        <time>2023-12-07T15:29:51.000Z</time>
      </trkpt>
      <trkpt lat="45.84046" lon="4.67661">
        <ele>283.94598</ele>
        <time>2023-12-07T15:29:52.000Z</time>
      </trkpt>
      <trkpt lat="45.84043" lon="4.67665">
        <ele>283.99625</ele>
        <time>2023-12-07T15:29:53.000Z</time>
      </trkpt>
      <trkpt lat="45.84041" lon="4.67669">
        <ele>284.02811</ele>
        <time>2023-12-07T15:29:54.000Z</time>
      </trkpt>
      <trkpt lat="45.84038" lon="4.67673">
        <ele>284.0542</ele>
        <time>2023-12-07T15:29:55.000Z</time>
      </trkpt>
      <trkpt lat="45.84035" lon="4.67677">
        <ele>284.07666</ele>
        <time>2023-12-07T15:29:56.000Z</time>
      </trkpt>
      <trkpt lat="45.84033" lon="4.67681">
        <ele>284.10547</ele>
        <time>2023-12-07T15:29:57.000Z</time>
      </trkpt>
      <trkpt lat="45.8403" lon="4.67685">
        <ele>284.1416</ele>
        <time>2023-12-07T15:29:58.000Z</time>
      </trkpt>
      <trkpt lat="45.84027" lon="4.67689">
        <ele>284.17725</ele>
        <time>2023-12-07T15:29:59.000Z</time>
      </trkpt>
      <trkpt lat="45.84023" lon="4.67693">
        <ele>284.18524</ele>
        <time>2023-12-07T15:30:00.000Z</time>
      </trkpt>
      <trkpt lat="45.8402" lon="4.67696">
        <ele>284.16135</ele>
        <time>2023-12-07T15:30:01.000Z</time>
      </trkpt>
      <trkpt lat="45.84015" lon="4.67698">
        <ele>284.08798</ele>
        <time>2023-12-07T15:30:02.000Z</time>
      </trkpt>
      <trkpt lat="45.84011" lon="4.67698">
        <ele>283.35895</ele>
        <time>2023-12-07T15:30:03.000Z</time>
      </trkpt>
      <trkpt lat="45.84006" lon="4.67697">
        <ele>282.52615</ele>
        <time>2023-12-07T15:30:04.000Z</time>
      </trkpt>
      <trkpt lat="45.84002" lon="4.67691">
        <ele>281.70047</ele>
        <time>2023-12-07T15:30:05.000Z</time>
      </trkpt>
      <trkpt lat="45.83998" lon="4.67688">
        <ele>280.89252</ele>
        <time>2023-12-07T15:30:06.000Z</time>
      </trkpt>
      <trkpt lat="45.83994" lon="4.67684">
        <ele>280.03311</ele>
        <time>2023-12-07T15:30:07.000Z</time>
      </trkpt>
      <trkpt lat="45.8399" lon="4.67682">
        <ele>279.17365</ele>
        <time>2023-12-07T15:30:08.000Z</time>
      </trkpt>
      <trkpt lat="45.83985" lon="4.6768">
        <ele>278.55145</ele>
        <time>2023-12-07T15:30:09.000Z</time>
      </trkpt>
      <trkpt lat="45.83981" lon="4.67678">
        <ele>277.82172</ele>
        <time>2023-12-07T15:30:10.000Z</time>
      </trkpt>
      <trkpt lat="45.83976" lon="4.67676">
        <ele>277.16791</ele>
        <time>2023-12-07T15:30:11.000Z</time>
      </trkpt>
      <trkpt lat="45.83972" lon="4.67676">
        <ele>276.51117</ele>
        <time>2023-12-07T15:30:12.000Z</time>
      </trkpt>
      <trkpt lat="45.8397" lon="4.67677">
        <ele>275.83405</ele>
        <time>2023-12-07T15:30:13.000Z</time>
      </trkpt>
      <trkpt lat="45.83966" lon="4.67676">
        <ele>275.16534</ele>
        <time>2023-12-07T15:30:14.000Z</time>
      </trkpt>
      <trkpt lat="45.83961" lon="4.67677">
        <ele>274.49432</ele>
        <time>2023-12-07T15:30:15.000Z</time>
      </trkpt>
      <trkpt lat="45.83956" lon="4.67679">
        <ele>273.83981</ele>
        <time>2023-12-07T15:30:16.000Z</time>
      </trkpt>
      <trkpt lat="45.83952" lon="4.67682">
        <ele>273.15527</ele>
        <time>2023-12-07T15:30:17.000Z</time>
      </trkpt>
      <trkpt lat="45.83949" lon="4.67687">
        <ele>272.40878</ele>
        <time>2023-12-07T15:30:18.000Z</time>
      </trkpt>
      <trkpt lat="45.83945" lon="4.67691">
        <ele>271.66418</ele>
        <time>2023-12-07T15:30:19.000Z</time>
      </trkpt>
      <trkpt lat="45.83942" lon="4.67694">
        <ele>270.91226</ele>
        <time>2023-12-07T15:30:20.000Z</time>
      </trkpt>
      <trkpt lat="45.83941" lon="4.67697">
        <ele>270.17313</ele>
        <time>2023-12-07T15:30:21.000Z</time>
      </trkpt>
      <trkpt lat="45.83937" lon="4.67703">
        <ele>269.47104</ele>
        <time>2023-12-07T15:30:22.000Z</time>
      </trkpt>
      <trkpt lat="45.83933" lon="4.67707">
        <ele>269.4234</ele>
        <time>2023-12-07T15:30:23.000Z</time>
      </trkpt>
      <trkpt lat="45.83928" lon="4.67712">
        <ele>269.32993</ele>
        <time>2023-12-07T15:30:24.000Z</time>
      </trkpt>
      <trkpt lat="45.83924" lon="4.67718">
        <ele>269.21475</ele>
        <time>2023-12-07T15:30:25.000Z</time>
      </trkpt>
      <trkpt lat="45.8392" lon="4.67721">
        <ele>269.07684</ele>
        <time>2023-12-07T15:30:26.000Z</time>
      </trkpt>
      <trkpt lat="45.83915" lon="4.67725">
        <ele>268.94302</ele>
        <time>2023-12-07T15:30:27.000Z</time>
      </trkpt>
      <trkpt lat="45.83911" lon="4.67729">
        <ele>268.80515</ele>
        <time>2023-12-07T15:30:28.000Z</time>
      </trkpt>
      <trkpt lat="45.83907" lon="4.67733">
        <ele>268.68427</ele>
        <time>2023-12-07T15:30:29.000Z</time>
      </trkpt>
      <trkpt lat="45.83904" lon="4.67736">
        <ele>268.57101</ele>
        <time>2023-12-07T15:30:30.000Z</time>
      </trkpt>
      <trkpt lat="45.839" lon="4.67737">
        <ele>268.39325</ele>
        <time>2023-12-07T15:30:31.000Z</time>
      </trkpt>
      <trkpt lat="45.83896" lon="4.67738">
        <ele>268.23883</ele>
        <time>2023-12-07T15:30:32.000Z</time>
      </trkpt>
      <trkpt lat="45.83893" lon="4.67738">
        <ele>268.08438</ele>
        <time>2023-12-07T15:30:33.000Z</time>
      </trkpt>
      <trkpt lat="45.8389" lon="4.67738">
        <ele>267.95172</ele>
        <time>2023-12-07T15:30:34.000Z</time>
      </trkpt>
      <trkpt lat="45.83888" lon="4.67737">
        <ele>267.82697</ele>
        <time>2023-12-07T15:30:35.000Z</time>
      </trkpt>
      <trkpt lat="45.83885" lon="4.67737">
        <ele>267.71338</ele>
        <time>2023-12-07T15:30:36.000Z</time>
      </trkpt>
      <trkpt lat="45.83882" lon="4.67735">
        <ele>267.62985</ele>
        <time>2023-12-07T15:30:37.000Z</time>
      </trkpt>
      <trkpt lat="45.8388" lon="4.67733">
        <ele>267.56247</ele>
        <time>2023-12-07T15:30:38.000Z</time>
      </trkpt>
      <trkpt lat="45.83877" lon="4.67731">
        <ele>267.49744</ele>
        <time>2023-12-07T15:30:39.000Z</time>
      </trkpt>
      <trkpt lat="45.83874" lon="4.67729">
        <ele>267.52481</ele>
        <time>2023-12-07T15:30:40.000Z</time>
      </trkpt>
      <trkpt lat="45.83871" lon="4.67728">
        <ele>267.56369</ele>
        <time>2023-12-07T15:30:41.000Z</time>
      </trkpt>
      <trkpt lat="45.83868" lon="4.67726">
        <ele>267.6058</ele>
        <time>2023-12-07T15:30:42.000Z</time>
      </trkpt>
      <trkpt lat="45.83865" lon="4.67724">
        <ele>267.6445</ele>
        <time>2023-12-07T15:30:43.000Z</time>
      </trkpt>
      <trkpt lat="45.83862" lon="4.67723">
        <ele>267.66635</ele>
        <time>2023-12-07T15:30:44.000Z</time>
      </trkpt>
      <trkpt lat="45.8386" lon="4.67721">
        <ele>267.70786</ele>
        <time>2023-12-07T15:30:45.000Z</time>
      </trkpt>
      <trkpt lat="45.83857" lon="4.67719">
        <ele>267.77185</ele>
        <time>2023-12-07T15:30:46.000Z</time>
      </trkpt>
      <trkpt lat="45.83854" lon="4.67718">
        <ele>267.8374</ele>
        <time>2023-12-07T15:30:47.000Z</time>
      </trkpt>
      <trkpt lat="45.83851" lon="4.67716">
        <ele>267.91656</ele>
        <time>2023-12-07T15:30:48.000Z</time>
      </trkpt>
      <trkpt lat="45.83848" lon="4.67715">
        <ele>267.97934</ele>
        <time>2023-12-07T15:30:49.000Z</time>
      </trkpt>
      <trkpt lat="45.83845" lon="4.67714">
        <ele>268.08011</ele>
        <time>2023-12-07T15:30:50.000Z</time>
      </trkpt>
      <trkpt lat="45.83842" lon="4.67712">
        <ele>268.17514</ele>
        <time>2023-12-07T15:30:51.000Z</time>
      </trkpt>
      <trkpt lat="45.83839" lon="4.67711">
        <ele>268.26566</ele>
        <time>2023-12-07T15:30:52.000Z</time>
      </trkpt>
      <trkpt lat="45.83836" lon="4.67711">
        <ele>268.37421</ele>
        <time>2023-12-07T15:30:53.000Z</time>
      </trkpt>
      <trkpt lat="45.83833" lon="4.67711">
        <ele>268.47818</ele>
        <time>2023-12-07T15:30:54.000Z</time>
      </trkpt>
      <trkpt lat="45.8383" lon="4.6771">
        <ele>268.57855</ele>
        <time>2023-12-07T15:30:55.000Z</time>
      </trkpt>
      <trkpt lat="45.83827" lon="4.6771">
        <ele>268.63867</ele>
        <time>2023-12-07T15:30:56.000Z</time>
      </trkpt>
      <trkpt lat="45.83824" lon="4.6771">
        <ele>268.68011</ele>
        <time>2023-12-07T15:30:57.000Z</time>
      </trkpt>
      <trkpt lat="45.83822" lon="4.6771">
        <ele>268.77155</ele>
        <time>2023-12-07T15:30:58.000Z</time>
      </trkpt>
      <trkpt lat="45.83819" lon="4.6771">
        <ele>268.8656</ele>
        <time>2023-12-07T15:30:59.000Z</time>
      </trkpt>
      <trkpt lat="45.83816" lon="4.6771">
        <ele>268.88828</ele>
        <time>2023-12-07T15:31:00.000Z</time>
      </trkpt>
      <trkpt lat="45.83813" lon="4.67709">
        <ele>268.90277</ele>
        <time>2023-12-07T15:31:01.000Z</time>
      </trkpt>
      <trkpt lat="45.8381" lon="4.67708">
        <ele>268.92572</ele>
        <time>2023-12-07T15:31:02.000Z</time>
      </trkpt>
      <trkpt lat="45.83807" lon="4.67706">
        <ele>268.93668</ele>
        <time>2023-12-07T15:31:03.000Z</time>
      </trkpt>
      <trkpt lat="45.83805" lon="4.67704">
        <ele>268.95825</ele>
        <time>2023-12-07T15:31:04.000Z</time>
      </trkpt>
      <trkpt lat="45.83802" lon="4.67703">
        <ele>268.9816</ele>
        <time>2023-12-07T15:31:05.000Z</time>
      </trkpt>
      <trkpt lat="45.83799" lon="4.67701">
        <ele>268.98761</ele>
        <time>2023-12-07T15:31:06.000Z</time>
      </trkpt>
      <trkpt lat="45.83796" lon="4.677">
        <ele>268.98944</ele>
        <time>2023-12-07T15:31:07.000Z</time>
      </trkpt>
      <trkpt lat="45.83793" lon="4.67698">
        <ele>268.98083</ele>
        <time>2023-12-07T15:31:08.000Z</time>
      </trkpt>
      <trkpt lat="45.83789" lon="4.67696">
        <ele>268.99017</ele>
        <time>2023-12-07T15:31:09.000Z</time>
      </trkpt>
      <trkpt lat="45.83786" lon="4.67695">
        <ele>268.95798</ele>
        <time>2023-12-07T15:31:10.000Z</time>
      </trkpt>
      <trkpt lat="45.83783" lon="4.67693">
        <ele>268.91086</ele>
        <time>2023-12-07T15:31:11.000Z</time>
      </trkpt>
      <trkpt lat="45.8378" lon="4.67691">
        <ele>268.87552</ele>
        <time>2023-12-07T15:31:12.000Z</time>
      </trkpt>
      <trkpt lat="45.83777" lon="4.67689">
        <ele>268.81293</ele>
        <time>2023-12-07T15:31:13.000Z</time>
      </trkpt>
      <trkpt lat="45.83774" lon="4.67687">
        <ele>268.76837</ele>
        <time>2023-12-07T15:31:14.000Z</time>
      </trkpt>
      <trkpt lat="45.83771" lon="4.67684">
        <ele>268.75137</ele>
        <time>2023-12-07T15:31:15.000Z</time>
      </trkpt>
      <trkpt lat="45.83768" lon="4.67682">
        <ele>268.76752</ele>
        <time>2023-12-07T15:31:16.000Z</time>
      </trkpt>
      <trkpt lat="45.83765" lon="4.6768">
        <ele>268.77054</ele>
        <time>2023-12-07T15:31:17.000Z</time>
      </trkpt>
      <trkpt lat="45.83761" lon="4.67678">
        <ele>269.53339</ele>
        <time>2023-12-07T15:31:18.000Z</time>
      </trkpt>
      <trkpt lat="45.83758" lon="4.67677">
        <ele>270.31989</ele>
        <time>2023-12-07T15:31:19.000Z</time>
      </trkpt>
      <trkpt lat="45.83754" lon="4.67674">
        <ele>271.08871</ele>
        <time>2023-12-07T15:31:20.000Z</time>
      </trkpt>
      <trkpt lat="45.83751" lon="4.67672">
        <ele>271.84464</ele>
        <time>2023-12-07T15:31:21.000Z</time>
      </trkpt>
      <trkpt lat="45.83747" lon="4.67669">
        <ele>272.52966</ele>
        <time>2023-12-07T15:31:22.000Z</time>
      </trkpt>
      <trkpt lat="45.83743" lon="4.67667">
        <ele>273.26877</ele>
        <time>2023-12-07T15:31:23.000Z</time>
      </trkpt>
      <trkpt lat="45.83739" lon="4.67664">
        <ele>274.00323</ele>
        <time>2023-12-07T15:31:24.000Z</time>
      </trkpt>
      <trkpt lat="45.83736" lon="4.67662">
        <ele>274.7225</ele>
        <time>2023-12-07T15:31:25.000Z</time>
      </trkpt>
      <trkpt lat="45.83733" lon="4.67659">
        <ele>275.45282</ele>
        <time>2023-12-07T15:31:26.000Z</time>
      </trkpt>
      <trkpt lat="45.83729" lon="4.67657">
        <ele>276.18951</ele>
        <time>2023-12-07T15:31:27.000Z</time>
      </trkpt>
      <trkpt lat="45.83726" lon="4.67654">
        <ele>276.93195</ele>
        <time>2023-12-07T15:31:28.000Z</time>
      </trkpt>
      <trkpt lat="45.83724" lon="4.6765">
        <ele>277.67764</ele>
        <time>2023-12-07T15:31:29.000Z</time>
      </trkpt>
      <trkpt lat="45.83721" lon="4.67645">
        <ele>278.42511</ele>
        <time>2023-12-07T15:31:30.000Z</time>
      </trkpt>
      <trkpt lat="45.83719" lon="4.67641">
        <ele>279.2027</ele>
        <time>2023-12-07T15:31:31.000Z</time>
      </trkpt>
      <trkpt lat="45.83718" lon="4.67635">
        <ele>279.96301</ele>
        <time>2023-12-07T15:31:32.000Z</time>
      </trkpt>
      <trkpt lat="45.83716" lon="4.6763">
        <ele>280.72647</ele>
        <time>2023-12-07T15:31:33.000Z</time>
      </trkpt>
      <trkpt lat="45.83714" lon="4.67625">
        <ele>281.47293</ele>
        <time>2023-12-07T15:31:34.000Z</time>
      </trkpt>
      <trkpt lat="45.83712" lon="4.67621">
        <ele>282.18231</ele>
        <time>2023-12-07T15:31:35.000Z</time>
      </trkpt>
      <trkpt lat="45.8371" lon="4.67616">
        <ele>282.86987</ele>
        <time>2023-12-07T15:31:36.000Z</time>
      </trkpt>
      <trkpt lat="45.83707" lon="4.67611">
        <ele>283.58258</ele>
        <time>2023-12-07T15:31:37.000Z</time>
      </trkpt>
      <trkpt lat="45.83702" lon="4.67605">
        <ele>283.52429</ele>
        <time>2023-12-07T15:31:38.000Z</time>
      </trkpt>
      <trkpt lat="45.837" lon="4.67601">
        <ele>283.46539</ele>
        <time>2023-12-07T15:31:39.000Z</time>
      </trkpt>
      <trkpt lat="45.83697" lon="4.67597">
        <ele>283.42157</ele>
        <time>2023-12-07T15:31:40.000Z</time>
      </trkpt>
      <trkpt lat="45.83694" lon="4.67593">
        <ele>283.78632</ele>
        <time>2023-12-07T15:31:41.000Z</time>
      </trkpt>
      <trkpt lat="45.83691" lon="4.67589">
        <ele>283.83502</ele>
        <time>2023-12-07T15:31:42.000Z</time>
      </trkpt>
      <trkpt lat="45.83689" lon="4.67585">
        <ele>283.84903</ele>
        <time>2023-12-07T15:31:43.000Z</time>
      </trkpt>
      <trkpt lat="45.83685" lon="4.67583">
        <ele>283.93359</ele>
        <time>2023-12-07T15:31:44.000Z</time>
      </trkpt>
      <trkpt lat="45.83682" lon="4.67579">
        <ele>284.0094</ele>
        <time>2023-12-07T15:31:45.000Z</time>
      </trkpt>
      <trkpt lat="45.83681" lon="4.67575">
        <ele>284.11127</ele>
        <time>2023-12-07T15:31:46.000Z</time>
      </trkpt>
      <trkpt lat="45.83679" lon="4.67572">
        <ele>284.20789</ele>
        <time>2023-12-07T15:31:47.000Z</time>
      </trkpt>
      <trkpt lat="45.83676" lon="4.67569">
        <ele>284.31201</ele>
        <time>2023-12-07T15:31:48.000Z</time>
      </trkpt>
      <trkpt lat="45.83673" lon="4.67567">
        <ele>284.44434</ele>
        <time>2023-12-07T15:31:49.000Z</time>
      </trkpt>
      <trkpt lat="45.8367" lon="4.67566">
        <ele>284.60931</ele>
        <time>2023-12-07T15:31:50.000Z</time>
      </trkpt>
      <trkpt lat="45.83667" lon="4.67565">
        <ele>284.99255</ele>
        <time>2023-12-07T15:31:51.000Z</time>
      </trkpt>
      <trkpt lat="45.83664" lon="4.67566">
        <ele>285.37976</ele>
        <time>2023-12-07T15:31:52.000Z</time>
      </trkpt>
      <trkpt lat="45.83661" lon="4.67568">
        <ele>285.86386</ele>
        <time>2023-12-07T15:31:53.000Z</time>
      </trkpt>
      <trkpt lat="45.83659" lon="4.67572">
        <ele>286.38739</ele>
        <time>2023-12-07T15:31:54.000Z</time>
      </trkpt>
      <trkpt lat="45.83657" lon="4.67575">
        <ele>286.936</ele>
        <time>2023-12-07T15:31:55.000Z</time>
      </trkpt>
      <trkpt lat="45.83654" lon="4.67579">
        <ele>287.0683</ele>
        <time>2023-12-07T15:31:56.000Z</time>
      </trkpt>
      <trkpt lat="45.83652" lon="4.67583">
        <ele>287.19089</ele>
        <time>2023-12-07T15:31:57.000Z</time>
      </trkpt>
      <trkpt lat="45.8365" lon="4.67586">
        <ele>287.12335</ele>
        <time>2023-12-07T15:31:58.000Z</time>
      </trkpt>
      <trkpt lat="45.83648" lon="4.67589">
        <ele>287.02423</ele>
        <time>2023-12-07T15:31:59.000Z</time>
      </trkpt>
      <trkpt lat="45.83646" lon="4.67592">
        <ele>286.91095</ele>
        <time>2023-12-07T15:32:00.000Z</time>
      </trkpt>
      <trkpt lat="45.83643" lon="4.67596">
        <ele>286.44836</ele>
        <time>2023-12-07T15:32:01.000Z</time>
      </trkpt>
      <trkpt lat="45.83641" lon="4.67599">
        <ele>286.36743</ele>
        <time>2023-12-07T15:32:02.000Z</time>
      </trkpt>
      <trkpt lat="45.83638" lon="4.67603">
        <ele>286.30435</ele>
        <time>2023-12-07T15:32:03.000Z</time>
      </trkpt>
      <trkpt lat="45.83635" lon="4.67607">
        <ele>286.19617</ele>
        <time>2023-12-07T15:32:04.000Z</time>
      </trkpt>
      <trkpt lat="45.83632" lon="4.67611">
        <ele>286.3266</ele>
        <time>2023-12-07T15:32:05.000Z</time>
      </trkpt>
      <trkpt lat="45.83629" lon="4.67614">
        <ele>286.43008</ele>
        <time>2023-12-07T15:32:06.000Z</time>
      </trkpt>
      <trkpt lat="45.83626" lon="4.67617">
        <ele>286.52243</ele>
        <time>2023-12-07T15:32:07.000Z</time>
      </trkpt>
      <trkpt lat="45.83623" lon="4.6762">
        <ele>286.62125</ele>
        <time>2023-12-07T15:32:08.000Z</time>
      </trkpt>
      <trkpt lat="45.8362" lon="4.67623">
        <ele>286.69818</ele>
        <time>2023-12-07T15:32:09.000Z</time>
      </trkpt>
      <trkpt lat="45.83616" lon="4.67625">
        <ele>286.74457</ele>
        <time>2023-12-07T15:32:10.000Z</time>
      </trkpt>
      <trkpt lat="45.83612" lon="4.67628">
        <ele>286.55408</ele>
        <time>2023-12-07T15:32:11.000Z</time>
      </trkpt>
      <trkpt lat="45.83608" lon="4.67629">
        <ele>286.41284</ele>
        <time>2023-12-07T15:32:12.000Z</time>
      </trkpt>
      <trkpt lat="45.83605" lon="4.6763">
        <ele>285.93768</ele>
        <time>2023-12-07T15:32:13.000Z</time>
      </trkpt>
      <trkpt lat="45.83601" lon="4.6763">
        <ele>285.44708</ele>
        <time>2023-12-07T15:32:14.000Z</time>
      </trkpt>
      <trkpt lat="45.83597" lon="4.6763">
        <ele>284.94946</ele>
        <time>2023-12-07T15:32:15.000Z</time>
      </trkpt>
      <trkpt lat="45.83593" lon="4.67629">
        <ele>285.08368</ele>
        <time>2023-12-07T15:32:16.000Z</time>
      </trkpt>
      <trkpt lat="45.8359" lon="4.67627">
        <ele>285.2894</ele>
        <time>2023-12-07T15:32:17.000Z</time>
      </trkpt>
      <trkpt lat="45.83586" lon="4.67625">
        <ele>285.65356</ele>
        <time>2023-12-07T15:32:18.000Z</time>
      </trkpt>
      <trkpt lat="45.83583" lon="4.67623">
        <ele>286.00882</ele>
        <time>2023-12-07T15:32:19.000Z</time>
      </trkpt>
      <trkpt lat="45.83579" lon="4.6762">
        <ele>286.37524</ele>
        <time>2023-12-07T15:32:20.000Z</time>
      </trkpt>
      <trkpt lat="45.83576" lon="4.67618">
        <ele>286.6922</ele>
        <time>2023-12-07T15:32:21.000Z</time>
      </trkpt>
      <trkpt lat="45.83572" lon="4.67616">
        <ele>287.02338</ele>
        <time>2023-12-07T15:32:22.000Z</time>
      </trkpt>
      <trkpt lat="45.83569" lon="4.67614">
        <ele>287.32477</ele>
        <time>2023-12-07T15:32:23.000Z</time>
      </trkpt>
      <trkpt lat="45.83565" lon="4.67611">
        <ele>287.59714</ele>
        <time>2023-12-07T15:32:24.000Z</time>
      </trkpt>
      <trkpt lat="45.83561" lon="4.67609">
        <ele>287.64185</ele>
        <time>2023-12-07T15:32:25.000Z</time>
      </trkpt>
      <trkpt lat="45.83558" lon="4.67607">
        <ele>287.69482</ele>
        <time>2023-12-07T15:32:26.000Z</time>
      </trkpt>
      <trkpt lat="45.83554" lon="4.67605">
        <ele>287.75131</ele>
        <time>2023-12-07T15:32:27.000Z</time>
      </trkpt>
      <trkpt lat="45.8355" lon="4.67602">
        <ele>287.79324</ele>
        <time>2023-12-07T15:32:28.000Z</time>
      </trkpt>
      <trkpt lat="45.83547" lon="4.676">
        <ele>287.82227</ele>
        <time>2023-12-07T15:32:29.000Z</time>
      </trkpt>
      <trkpt lat="45.83543" lon="4.67598">
        <ele>287.87451</ele>
        <time>2023-12-07T15:32:30.000Z</time>
      </trkpt>
      <trkpt lat="45.8354" lon="4.67596">
        <ele>287.9617</ele>
        <time>2023-12-07T15:32:31.000Z</time>
      </trkpt>
      <trkpt lat="45.83536" lon="4.67593">
        <ele>288.00848</ele>
        <time>2023-12-07T15:32:32.000Z</time>
      </trkpt>
      <trkpt lat="45.83532" lon="4.67591">
        <ele>288.31619</ele>
        <time>2023-12-07T15:32:33.000Z</time>
      </trkpt>
      <trkpt lat="45.83529" lon="4.67589">
        <ele>288.60358</ele>
        <time>2023-12-07T15:32:34.000Z</time>
      </trkpt>
      <trkpt lat="45.83525" lon="4.67587">
        <ele>288.89117</ele>
        <time>2023-12-07T15:32:35.000Z</time>
      </trkpt>
      <trkpt lat="45.83522" lon="4.67584">
        <ele>288.98111</ele>
        <time>2023-12-07T15:32:36.000Z</time>
      </trkpt>
      <trkpt lat="45.83518" lon="4.67582">
        <ele>288.98767</ele>
        <time>2023-12-07T15:32:37.000Z</time>
      </trkpt>
      <trkpt lat="45.83514" lon="4.67579">
        <ele>289.039</ele>
        <time>2023-12-07T15:32:38.000Z</time>
      </trkpt>
      <trkpt lat="45.8351" lon="4.67577">
        <ele>289.09747</ele>
        <time>2023-12-07T15:32:39.000Z</time>
      </trkpt>
      <trkpt lat="45.83507" lon="4.67575">
        <ele>289.35489</ele>
        <time>2023-12-07T15:32:40.000Z</time>
      </trkpt>
      <trkpt lat="45.83503" lon="4.67573">
        <ele>289.62811</ele>
        <time>2023-12-07T15:32:41.000Z</time>
      </trkpt>
      <trkpt lat="45.83499" lon="4.67571">
        <ele>289.98706</ele>
        <time>2023-12-07T15:32:42.000Z</time>
      </trkpt>
      <trkpt lat="45.83495" lon="4.67569">
        <ele>290.4101</ele>
        <time>2023-12-07T15:32:43.000Z</time>
      </trkpt>
      <trkpt lat="45.83492" lon="4.67567">
        <ele>290.4718</ele>
        <time>2023-12-07T15:32:44.000Z</time>
      </trkpt>
      <trkpt lat="45.83488" lon="4.67565">
        <ele>290.6012</ele>
        <time>2023-12-07T15:32:45.000Z</time>
      </trkpt>
      <trkpt lat="45.83484" lon="4.67563">
        <ele>290.74335</ele>
        <time>2023-12-07T15:32:46.000Z</time>
      </trkpt>
      <trkpt lat="45.83481" lon="4.67562">
        <ele>290.90759</ele>
        <time>2023-12-07T15:32:47.000Z</time>
      </trkpt>
      <trkpt lat="45.83477" lon="4.6756">
        <ele>291.06851</ele>
        <time>2023-12-07T15:32:48.000Z</time>
      </trkpt>
      <trkpt lat="45.83473" lon="4.67558">
        <ele>291.22397</ele>
        <time>2023-12-07T15:32:49.000Z</time>
      </trkpt>
      <trkpt lat="45.83469" lon="4.67557">
        <ele>291.37216</ele>
        <time>2023-12-07T15:32:50.000Z</time>
      </trkpt>
      <trkpt lat="45.83465" lon="4.67555">
        <ele>291.48694</ele>
        <time>2023-12-07T15:32:51.000Z</time>
      </trkpt>
      <trkpt lat="45.83461" lon="4.67552">
        <ele>291.58524</ele>
        <time>2023-12-07T15:32:52.000Z</time>
      </trkpt>
      <trkpt lat="45.83457" lon="4.67551">
        <ele>291.70352</ele>
        <time>2023-12-07T15:32:53.000Z</time>
      </trkpt>
      <trkpt lat="45.83453" lon="4.67549">
        <ele>291.80841</ele>
        <time>2023-12-07T15:32:54.000Z</time>
      </trkpt>
      <trkpt lat="45.8345" lon="4.67546">
        <ele>291.93341</ele>
        <time>2023-12-07T15:32:55.000Z</time>
      </trkpt>
      <trkpt lat="45.83446" lon="4.67544">
        <ele>292.02789</ele>
        <time>2023-12-07T15:32:56.000Z</time>
      </trkpt>
      <trkpt lat="45.83443" lon="4.67542">
        <ele>292.15262</ele>
        <time>2023-12-07T15:32:57.000Z</time>
      </trkpt>
      <trkpt lat="45.83439" lon="4.6754">
        <ele>292.28436</ele>
        <time>2023-12-07T15:32:58.000Z</time>
      </trkpt>
      <trkpt lat="45.83435" lon="4.67538">
        <ele>292.42114</ele>
        <time>2023-12-07T15:32:59.000Z</time>
      </trkpt>
      <trkpt lat="45.83431" lon="4.67536">
        <ele>292.34961</ele>
        <time>2023-12-07T15:33:00.000Z</time>
      </trkpt>
      <trkpt lat="45.83428" lon="4.67533">
        <ele>292.24969</ele>
        <time>2023-12-07T15:33:01.000Z</time>
      </trkpt>
      <trkpt lat="45.83424" lon="4.67531">
        <ele>292.04327</ele>
        <time>2023-12-07T15:33:02.000Z</time>
      </trkpt>
      <trkpt lat="45.83421" lon="4.67529">
        <ele>291.84534</ele>
        <time>2023-12-07T15:33:03.000Z</time>
      </trkpt>
      <trkpt lat="45.83418" lon="4.67526">
        <ele>291.96637</ele>
        <time>2023-12-07T15:33:04.000Z</time>
      </trkpt>
      <trkpt lat="45.83414" lon="4.67524">
        <ele>292.01068</ele>
        <time>2023-12-07T15:33:05.000Z</time>
      </trkpt>
      <trkpt lat="45.83411" lon="4.67522">
        <ele>292.04901</ele>
        <time>2023-12-07T15:33:06.000Z</time>
      </trkpt>
      <trkpt lat="45.83407" lon="4.6752">
        <ele>292.08853</ele>
        <time>2023-12-07T15:33:07.000Z</time>
      </trkpt>
      <trkpt lat="45.83404" lon="4.67517">
        <ele>292.0939</ele>
        <time>2023-12-07T15:33:08.000Z</time>
      </trkpt>
      <trkpt lat="45.834" lon="4.67515">
        <ele>292.27597</ele>
        <time>2023-12-07T15:33:09.000Z</time>
      </trkpt>
      <trkpt lat="45.83397" lon="4.67512">
        <ele>292.48438</ele>
        <time>2023-12-07T15:33:10.000Z</time>
      </trkpt>
      <trkpt lat="45.83393" lon="4.67509">
        <ele>292.70795</ele>
        <time>2023-12-07T15:33:11.000Z</time>
      </trkpt>
      <trkpt lat="45.8339" lon="4.67505">
        <ele>292.92328</ele>
        <time>2023-12-07T15:33:12.000Z</time>
      </trkpt>
      <trkpt lat="45.83387" lon="4.67501">
        <ele>293.11874</ele>
        <time>2023-12-07T15:33:13.000Z</time>
      </trkpt>
      <trkpt lat="45.83385" lon="4.67496">
        <ele>293.3941</ele>
        <time>2023-12-07T15:33:14.000Z</time>
      </trkpt>
      <trkpt lat="45.83383" lon="4.67492">
        <ele>293.76871</ele>
        <time>2023-12-07T15:33:15.000Z</time>
      </trkpt>
      <trkpt lat="45.83381" lon="4.67488">
        <ele>293.77881</ele>
        <time>2023-12-07T15:33:16.000Z</time>
      </trkpt>
      <trkpt lat="45.83379" lon="4.67483">
        <ele>293.80823</ele>
        <time>2023-12-07T15:33:17.000Z</time>
      </trkpt>
      <trkpt lat="45.83377" lon="4.67479">
        <ele>293.7984</ele>
        <time>2023-12-07T15:33:18.000Z</time>
      </trkpt>
      <trkpt lat="45.83374" lon="4.67474">
        <ele>293.78421</ele>
        <time>2023-12-07T15:33:19.000Z</time>
      </trkpt>
      <trkpt lat="45.83372" lon="4.67469">
        <ele>293.80548</ele>
        <time>2023-12-07T15:33:20.000Z</time>
      </trkpt>
      <trkpt lat="45.8337" lon="4.67464">
        <ele>293.87646</ele>
        <time>2023-12-07T15:33:21.000Z</time>
      </trkpt>
      <trkpt lat="45.83368" lon="4.6746">
        <ele>293.93512</ele>
        <time>2023-12-07T15:33:22.000Z</time>
      </trkpt>
      <trkpt lat="45.83365" lon="4.67455">
        <ele>293.93011</ele>
        <time>2023-12-07T15:33:23.000Z</time>
      </trkpt>
      <trkpt lat="45.83363" lon="4.6745">
        <ele>294.00455</ele>
        <time>2023-12-07T15:33:24.000Z</time>
      </trkpt>
      <trkpt lat="45.8336" lon="4.67444">
        <ele>294.1153</ele>
        <time>2023-12-07T15:33:25.000Z</time>
      </trkpt>
      <trkpt lat="45.83359" lon="4.6744">
        <ele>294.2215</ele>
        <time>2023-12-07T15:33:26.000Z</time>
      </trkpt>
      <trkpt lat="45.83357" lon="4.67435">
        <ele>294.31387</ele>
        <time>2023-12-07T15:33:27.000Z</time>
      </trkpt>
      <trkpt lat="45.83355" lon="4.67431">
        <ele>294.44183</ele>
        <time>2023-12-07T15:33:28.000Z</time>
      </trkpt>
      <trkpt lat="45.83352" lon="4.67427">
        <ele>294.40085</ele>
        <time>2023-12-07T15:33:29.000Z</time>
      </trkpt>
      <trkpt lat="45.8335" lon="4.67425">
        <ele>294.50226</ele>
        <time>2023-12-07T15:33:30.000Z</time>
      </trkpt>
      <trkpt lat="45.83348" lon="4.67423">
        <ele>294.60229</ele>
        <time>2023-12-07T15:33:31.000Z</time>
      </trkpt>
      <trkpt lat="45.83345" lon="4.67422">
        <ele>294.69574</ele>
        <time>2023-12-07T15:33:32.000Z</time>
      </trkpt>
      <trkpt lat="45.83343" lon="4.67422">
        <ele>294.8512</ele>
        <time>2023-12-07T15:33:33.000Z</time>
      </trkpt>
      <trkpt lat="45.8334" lon="4.67422">
        <ele>294.95197</ele>
        <time>2023-12-07T15:33:34.000Z</time>
      </trkpt>
      <trkpt lat="45.83337" lon="4.67423">
        <ele>294.92563</ele>
        <time>2023-12-07T15:33:35.000Z</time>
      </trkpt>
      <trkpt lat="45.83334" lon="4.67424">
        <ele>295.27795</ele>
        <time>2023-12-07T15:33:36.000Z</time>
      </trkpt>
      <trkpt lat="45.8333" lon="4.67425">
        <ele>295.57007</ele>
        <time>2023-12-07T15:33:37.000Z</time>
      </trkpt>
      <trkpt lat="45.83326" lon="4.67425">
        <ele>295.52209</ele>
        <time>2023-12-07T15:33:38.000Z</time>
      </trkpt>
      <trkpt lat="45.83322" lon="4.67425">
        <ele>295.53525</ele>
        <time>2023-12-07T15:33:39.000Z</time>
      </trkpt>
      <trkpt lat="45.83317" lon="4.67426">
        <ele>295.53217</ele>
        <time>2023-12-07T15:33:40.000Z</time>
      </trkpt>
      <trkpt lat="45.83312" lon="4.67426">
        <ele>295.48529</ele>
        <time>2023-12-07T15:33:41.000Z</time>
      </trkpt>
      <trkpt lat="45.83307" lon="4.67427">
        <ele>295.45151</ele>
        <time>2023-12-07T15:33:42.000Z</time>
      </trkpt>
      <trkpt lat="45.83303" lon="4.67427">
        <ele>295.3891</ele>
        <time>2023-12-07T15:33:43.000Z</time>
      </trkpt>
      <trkpt lat="45.83298" lon="4.67425">
        <ele>295.28085</ele>
        <time>2023-12-07T15:33:44.000Z</time>
      </trkpt>
      <trkpt lat="45.83294" lon="4.67424">
        <ele>295.19501</ele>
        <time>2023-12-07T15:33:45.000Z</time>
      </trkpt>
      <trkpt lat="45.83288" lon="4.67426">
        <ele>295.06964</ele>
        <time>2023-12-07T15:33:46.000Z</time>
      </trkpt>
      <trkpt lat="45.83283" lon="4.67426">
        <ele>294.95044</ele>
        <time>2023-12-07T15:33:47.000Z</time>
      </trkpt>
      <trkpt lat="45.83278" lon="4.67426">
        <ele>294.81317</ele>
        <time>2023-12-07T15:33:48.000Z</time>
      </trkpt>
      <trkpt lat="45.83273" lon="4.67425">
        <ele>294.64276</ele>
        <time>2023-12-07T15:33:49.000Z</time>
      </trkpt>
      <trkpt lat="45.83268" lon="4.67424">
        <ele>294.30078</ele>
        <time>2023-12-07T15:33:50.000Z</time>
      </trkpt>
      <trkpt lat="45.83264" lon="4.6742">
        <ele>293.88342</ele>
        <time>2023-12-07T15:33:51.000Z</time>
      </trkpt>
      <trkpt lat="45.8326" lon="4.67414">
        <ele>293.65909</ele>
        <time>2023-12-07T15:33:52.000Z</time>
      </trkpt>
      <trkpt lat="45.83257" lon="4.67407">
        <ele>293.38626</ele>
        <time>2023-12-07T15:33:53.000Z</time>
      </trkpt>
      <trkpt lat="45.83254" lon="4.674">
        <ele>293.06201</ele>
        <time>2023-12-07T15:33:54.000Z</time>
      </trkpt>
      <trkpt lat="45.83251" lon="4.67394">
        <ele>292.77518</ele>
        <time>2023-12-07T15:33:55.000Z</time>
      </trkpt>
      <trkpt lat="45.83248" lon="4.6739">
        <ele>292.61285</ele>
        <time>2023-12-07T15:33:56.000Z</time>
      </trkpt>
      <trkpt lat="45.83245" lon="4.67386">
        <ele>292.54184</ele>
        <time>2023-12-07T15:33:57.000Z</time>
      </trkpt>
      <trkpt lat="45.83241" lon="4.67384">
        <ele>292.88803</ele>
        <time>2023-12-07T15:33:58.000Z</time>
      </trkpt>
      <trkpt lat="45.83238" lon="4.67382">
        <ele>292.81015</ele>
        <time>2023-12-07T15:33:59.000Z</time>
      </trkpt>
      <trkpt lat="45.83234" lon="4.67383">
        <ele>292.86542</ele>
        <time>2023-12-07T15:34:00.000Z</time>
      </trkpt>
      <trkpt lat="45.8323" lon="4.67386">
        <ele>292.9343</ele>
        <time>2023-12-07T15:34:01.000Z</time>
      </trkpt>
      <trkpt lat="45.83226" lon="4.67388">
        <ele>293.0112</ele>
        <time>2023-12-07T15:34:02.000Z</time>
      </trkpt>
      <trkpt lat="45.83221" lon="4.67392">
        <ele>293.01553</ele>
        <time>2023-12-07T15:34:03.000Z</time>
      </trkpt>
      <trkpt lat="45.83215" lon="4.67398">
        <ele>293.21118</ele>
        <time>2023-12-07T15:34:04.000Z</time>
      </trkpt>
      <trkpt lat="45.8321" lon="4.67404">
        <ele>293.27115</ele>
        <time>2023-12-07T15:34:05.000Z</time>
      </trkpt>
      <trkpt lat="45.83205" lon="4.6741">
        <ele>293.50116</ele>
        <time>2023-12-07T15:34:06.000Z</time>
      </trkpt>
      <trkpt lat="45.83199" lon="4.67416">
        <ele>293.1972</ele>
        <time>2023-12-07T15:34:07.000Z</time>
      </trkpt>
      <trkpt lat="45.83193" lon="4.67419">
        <ele>292.99924</ele>
        <time>2023-12-07T15:34:08.000Z</time>
      </trkpt>
      <trkpt lat="45.83186" lon="4.67424">
        <ele>292.82672</ele>
        <time>2023-12-07T15:34:09.000Z</time>
      </trkpt>
      <trkpt lat="45.83179" lon="4.67428">
        <ele>292.66132</ele>
        <time>2023-12-07T15:34:10.000Z</time>
      </trkpt>
      <trkpt lat="45.83172" lon="4.67433">
        <ele>292.52704</ele>
        <time>2023-12-07T15:34:11.000Z</time>
      </trkpt>
      <trkpt lat="45.83165" lon="4.67435">
        <ele>292.18646</ele>
        <time>2023-12-07T15:34:12.000Z</time>
      </trkpt>
      <trkpt lat="45.83158" lon="4.67439">
        <ele>291.83771</ele>
        <time>2023-12-07T15:34:13.000Z</time>
      </trkpt>
      <trkpt lat="45.83153" lon="4.67441">
        <ele>291.43573</ele>
        <time>2023-12-07T15:34:14.000Z</time>
      </trkpt>
      <trkpt lat="45.83148" lon="4.67443">
        <ele>291.01788</ele>
        <time>2023-12-07T15:34:15.000Z</time>
      </trkpt>
      <trkpt lat="45.83145" lon="4.67449">
        <ele>290.45551</ele>
        <time>2023-12-07T15:34:16.000Z</time>
      </trkpt>
      <trkpt lat="45.83145" lon="4.67454">
        <ele>289.81815</ele>
        <time>2023-12-07T15:34:17.000Z</time>
      </trkpt>
      <trkpt lat="45.83144" lon="4.67459">
        <ele>289.15329</ele>
        <time>2023-12-07T15:34:18.000Z</time>
      </trkpt>
      <trkpt lat="45.83145" lon="4.67465">
        <ele>288.8992</ele>
        <time>2023-12-07T15:34:19.000Z</time>
      </trkpt>
      <trkpt lat="45.83149" lon="4.67468">
        <ele>288.55084</ele>
        <time>2023-12-07T15:34:20.000Z</time>
      </trkpt>
      <trkpt lat="45.83154" lon="4.67467">
        <ele>288.19232</ele>
        <time>2023-12-07T15:34:21.000Z</time>
      </trkpt>
      <trkpt lat="45.83157" lon="4.67468">
        <ele>287.77173</ele>
        <time>2023-12-07T15:34:22.000Z</time>
      </trkpt>
      <trkpt lat="45.83163" lon="4.67468">
        <ele>287.479</ele>
        <time>2023-12-07T15:34:23.000Z</time>
      </trkpt>
      <trkpt lat="45.83166" lon="4.67467">
        <ele>287.34772</ele>
        <time>2023-12-07T15:34:24.000Z</time>
      </trkpt>
      <trkpt lat="45.83171" lon="4.67469">
        <ele>287.36328</ele>
        <time>2023-12-07T15:34:25.000Z</time>
      </trkpt>
      <trkpt lat="45.83176" lon="4.67471">
        <ele>286.70624</ele>
        <time>2023-12-07T15:34:26.000Z</time>
      </trkpt>
      <trkpt lat="45.8318" lon="4.67474">
        <ele>286.66785</ele>
        <time>2023-12-07T15:34:27.000Z</time>
      </trkpt>
      <trkpt lat="45.83184" lon="4.67476">
        <ele>286.49292</ele>
        <time>2023-12-07T15:34:28.000Z</time>
      </trkpt>
      <trkpt lat="45.83188" lon="4.6748">
        <ele>286.42828</ele>
        <time>2023-12-07T15:34:29.000Z</time>
      </trkpt>
      <trkpt lat="45.83192" lon="4.67485">
        <ele>286.30551</ele>
        <time>2023-12-07T15:34:30.000Z</time>
      </trkpt>
      <trkpt lat="45.83195" lon="4.6749">
        <ele>286.27777</ele>
        <time>2023-12-07T15:34:31.000Z</time>
      </trkpt>
      <trkpt lat="45.83199" lon="4.67495">
        <ele>286.24506</ele>
        <time>2023-12-07T15:34:32.000Z</time>
      </trkpt>
      <trkpt lat="45.83202" lon="4.67499">
        <ele>286.14572</ele>
        <time>2023-12-07T15:34:33.000Z</time>
      </trkpt>
      <trkpt lat="45.83205" lon="4.67503">
        <ele>286.0553</ele>
        <time>2023-12-07T15:34:34.000Z</time>
      </trkpt>
      <trkpt lat="45.83208" lon="4.67507">
        <ele>285.97382</ele>
        <time>2023-12-07T15:34:35.000Z</time>
      </trkpt>
      <trkpt lat="45.83213" lon="4.6751">
        <ele>285.92627</ele>
        <time>2023-12-07T15:34:36.000Z</time>
      </trkpt>
      <trkpt lat="45.83217" lon="4.67513">
        <ele>285.97476</ele>
        <time>2023-12-07T15:34:37.000Z</time>
      </trkpt>
      <trkpt lat="45.83222" lon="4.67518">
        <ele>286.05731</ele>
        <time>2023-12-07T15:34:38.000Z</time>
      </trkpt>
      <trkpt lat="45.83226" lon="4.6752">
        <ele>286.15338</ele>
        <time>2023-12-07T15:34:39.000Z</time>
      </trkpt>
      <trkpt lat="45.8323" lon="4.67523">
        <ele>286.11649</ele>
        <time>2023-12-07T15:34:40.000Z</time>
      </trkpt>
      <trkpt lat="45.83234" lon="4.67527">
        <ele>286.00043</ele>
        <time>2023-12-07T15:34:41.000Z</time>
      </trkpt>
      <trkpt lat="45.83238" lon="4.67532">
        <ele>285.93246</ele>
        <time>2023-12-07T15:34:42.000Z</time>
      </trkpt>
      <trkpt lat="45.83241" lon="4.67537">
        <ele>285.8136</ele>
        <time>2023-12-07T15:34:43.000Z</time>
      </trkpt>
      <trkpt lat="45.83242" lon="4.67545">
        <ele>285.22067</ele>
        <time>2023-12-07T15:34:44.000Z</time>
      </trkpt>
      <trkpt lat="45.83243" lon="4.67551">
        <ele>284.52567</ele>
        <time>2023-12-07T15:34:45.000Z</time>
      </trkpt>
      <trkpt lat="45.83244" lon="4.67558">
        <ele>284.45169</ele>
        <time>2023-12-07T15:34:46.000Z</time>
      </trkpt>
      <trkpt lat="45.83242" lon="4.67567">
        <ele>284.24167</ele>
        <time>2023-12-07T15:34:47.000Z</time>
      </trkpt>
      <trkpt lat="45.83241" lon="4.67576">
        <ele>284.0611</ele>
        <time>2023-12-07T15:34:48.000Z</time>
      </trkpt>
      <trkpt lat="45.83239" lon="4.67585">
        <ele>283.784</ele>
        <time>2023-12-07T15:34:49.000Z</time>
      </trkpt>
      <trkpt lat="45.83238" lon="4.67593">
        <ele>283.79184</ele>
        <time>2023-12-07T15:34:50.000Z</time>
      </trkpt>
      <trkpt lat="45.83237" lon="4.67602">
        <ele>283.69739</ele>
        <time>2023-12-07T15:34:51.000Z</time>
      </trkpt>
      <trkpt lat="45.83239" lon="4.6761">
        <ele>283.65067</ele>
        <time>2023-12-07T15:34:52.000Z</time>
      </trkpt>
      <trkpt lat="45.83241" lon="4.67616">
        <ele>283.85129</ele>
        <time>2023-12-07T15:34:53.000Z</time>
      </trkpt>
      <trkpt lat="45.83245" lon="4.67622">
        <ele>284.06918</ele>
        <time>2023-12-07T15:34:54.000Z</time>
      </trkpt>
      <trkpt lat="45.8325" lon="4.67625">
        <ele>284.28098</ele>
        <time>2023-12-07T15:34:55.000Z</time>
      </trkpt>
      <trkpt lat="45.83255" lon="4.67628">
        <ele>284.50623</ele>
        <time>2023-12-07T15:34:56.000Z</time>
      </trkpt>
      <trkpt lat="45.83261" lon="4.67629">
        <ele>284.63388</ele>
        <time>2023-12-07T15:34:57.000Z</time>
      </trkpt>
      <trkpt lat="45.83265" lon="4.6763">
        <ele>284.70786</ele>
        <time>2023-12-07T15:34:58.000Z</time>
      </trkpt>
      <trkpt lat="45.8327" lon="4.67631">
        <ele>284.23273</ele>
        <time>2023-12-07T15:34:59.000Z</time>
      </trkpt>
      <trkpt lat="45.83274" lon="4.67632">
        <ele>283.9776</ele>
        <time>2023-12-07T15:35:00.000Z</time>
      </trkpt>
      <trkpt lat="45.83279" lon="4.67632">
        <ele>283.82117</ele>
        <time>2023-12-07T15:35:01.000Z</time>
      </trkpt>
      <trkpt lat="45.83283" lon="4.67633">
        <ele>283.67694</ele>
        <time>2023-12-07T15:35:02.000Z</time>
      </trkpt>
      <trkpt lat="45.83288" lon="4.67635">
        <ele>283.57733</ele>
        <time>2023-12-07T15:35:03.000Z</time>
      </trkpt>
      <trkpt lat="45.83293" lon="4.67636">
        <ele>283.5849</ele>
        <time>2023-12-07T15:35:04.000Z</time>
      </trkpt>
      <trkpt lat="45.83299" lon="4.67638">
        <ele>283.64252</ele>
        <time>2023-12-07T15:35:05.000Z</time>
      </trkpt>
      <trkpt lat="45.83303" lon="4.67641">
        <ele>283.6315</ele>
        <time>2023-12-07T15:35:06.000Z</time>
      </trkpt>
      <trkpt lat="45.83309" lon="4.67643">
        <ele>283.64142</ele>
        <time>2023-12-07T15:35:07.000Z</time>
      </trkpt>
      <trkpt lat="45.83315" lon="4.67645">
        <ele>283.68491</ele>
        <time>2023-12-07T15:35:08.000Z</time>
      </trkpt>
      <trkpt lat="45.8332" lon="4.67648">
        <ele>283.67953</ele>
        <time>2023-12-07T15:35:09.000Z</time>
      </trkpt>
      <trkpt lat="45.83326" lon="4.67652">
        <ele>283.46405</ele>
        <time>2023-12-07T15:35:10.000Z</time>
      </trkpt>
      <trkpt lat="45.83332" lon="4.67656">
        <ele>283.53937</ele>
        <time>2023-12-07T15:35:11.000Z</time>
      </trkpt>
      <trkpt lat="45.83338" lon="4.67659">
        <ele>283.5787</ele>
        <time>2023-12-07T15:35:12.000Z</time>
      </trkpt>
      <trkpt lat="45.83344" lon="4.67663">
        <ele>283.46695</ele>
        <time>2023-12-07T15:35:13.000Z</time>
      </trkpt>
      <trkpt lat="45.8335" lon="4.67666">
        <ele>283.53406</ele>
        <time>2023-12-07T15:35:14.000Z</time>
      </trkpt>
      <trkpt lat="45.83356" lon="4.67669">
        <ele>283.57312</ele>
        <time>2023-12-07T15:35:15.000Z</time>
      </trkpt>
      <trkpt lat="45.83361" lon="4.67673">
        <ele>283.11938</ele>
        <time>2023-12-07T15:35:16.000Z</time>
      </trkpt>
      <trkpt lat="45.83367" lon="4.67675">
        <ele>282.71957</ele>
        <time>2023-12-07T15:35:17.000Z</time>
      </trkpt>
      <trkpt lat="45.83372" lon="4.67677">
        <ele>282.3476</ele>
        <time>2023-12-07T15:35:18.000Z</time>
      </trkpt>
      <trkpt lat="45.83378" lon="4.67681">
        <ele>282.42453</ele>
        <time>2023-12-07T15:35:19.000Z</time>
      </trkpt>
      <trkpt lat="45.83384" lon="4.67684">
        <ele>282.30981</ele>
        <time>2023-12-07T15:35:20.000Z</time>
      </trkpt>
      <trkpt lat="45.8339" lon="4.67687">
        <ele>282.19516</ele>
        <time>2023-12-07T15:35:21.000Z</time>
      </trkpt>
      <trkpt lat="45.83395" lon="4.67691">
        <ele>282.05923</ele>
        <time>2023-12-07T15:35:22.000Z</time>
      </trkpt>
      <trkpt lat="45.83401" lon="4.67695">
        <ele>281.91367</ele>
        <time>2023-12-07T15:35:23.000Z</time>
      </trkpt>
      <trkpt lat="45.83407" lon="4.67698">
        <ele>281.7269</ele>
        <time>2023-12-07T15:35:24.000Z</time>
      </trkpt>
      <trkpt lat="45.83412" lon="4.67702">
        <ele>281.55695</ele>
        <time>2023-12-07T15:35:25.000Z</time>
      </trkpt>
      <trkpt lat="45.83417" lon="4.67707">
        <ele>281.49207</ele>
        <time>2023-12-07T15:35:26.000Z</time>
      </trkpt>
      <trkpt lat="45.83421" lon="4.67711">
        <ele>281.4483</ele>
        <time>2023-12-07T15:35:27.000Z</time>
      </trkpt>
      <trkpt lat="45.83426" lon="4.67717">
        <ele>281.35159</ele>
        <time>2023-12-07T15:35:28.000Z</time>
      </trkpt>
      <trkpt lat="45.83431" lon="4.67723">
        <ele>281.19876</ele>
        <time>2023-12-07T15:35:29.000Z</time>
      </trkpt>
      <trkpt lat="45.83434" lon="4.67729">
        <ele>281.34344</ele>
        <time>2023-12-07T15:35:30.000Z</time>
      </trkpt>
      <trkpt lat="45.83438" lon="4.67736">
        <ele>281.30746</ele>
        <time>2023-12-07T15:35:31.000Z</time>
      </trkpt>
      <trkpt lat="45.83441" lon="4.67744">
        <ele>281.44537</ele>
        <time>2023-12-07T15:35:32.000Z</time>
      </trkpt>
      <trkpt lat="45.8344" lon="4.67753">
        <ele>281.54224</ele>
        <time>2023-12-07T15:35:33.000Z</time>
      </trkpt>
      <trkpt lat="45.83441" lon="4.67762">
        <ele>281.65692</ele>
        <time>2023-12-07T15:35:34.000Z</time>
      </trkpt>
      <trkpt lat="45.83441" lon="4.6777">
        <ele>281.88385</ele>
        <time>2023-12-07T15:35:35.000Z</time>
      </trkpt>
      <trkpt lat="45.83442" lon="4.67778">
        <ele>282.04327</ele>
        <time>2023-12-07T15:35:36.000Z</time>
      </trkpt>
      <trkpt lat="45.83443" lon="4.67789">
        <ele>282.17026</ele>
        <time>2023-12-07T15:35:37.000Z</time>
      </trkpt>
      <trkpt lat="45.83445" lon="4.67797">
        <ele>282.19547</ele>
        <time>2023-12-07T15:35:38.000Z</time>
      </trkpt>
      <trkpt lat="45.83448" lon="4.67801">
        <ele>282.28586</ele>
        <time>2023-12-07T15:35:39.000Z</time>
      </trkpt>
      <trkpt lat="45.83455" lon="4.67805">
        <ele>282.42105</ele>
        <time>2023-12-07T15:35:40.000Z</time>
      </trkpt>
      <trkpt lat="45.83461" lon="4.67807">
        <ele>282.43976</ele>
        <time>2023-12-07T15:35:41.000Z</time>
      </trkpt>
      <trkpt lat="45.83466" lon="4.6781">
        <ele>282.43591</ele>
        <time>2023-12-07T15:35:42.000Z</time>
      </trkpt>
      <trkpt lat="45.83472" lon="4.67811">
        <ele>282.34619</ele>
        <time>2023-12-07T15:35:43.000Z</time>
      </trkpt>
      <trkpt lat="45.83476" lon="4.67812">
        <ele>282.63907</ele>
        <time>2023-12-07T15:35:44.000Z</time>
      </trkpt>
      <trkpt lat="45.83481" lon="4.67814">
        <ele>282.82477</ele>
        <time>2023-12-07T15:35:45.000Z</time>
      </trkpt>
      <trkpt lat="45.83486" lon="4.67817">
        <ele>283.00507</ele>
        <time>2023-12-07T15:35:46.000Z</time>
      </trkpt>
      <trkpt lat="45.83491" lon="4.67821">
        <ele>283.19781</ele>
        <time>2023-12-07T15:35:47.000Z</time>
      </trkpt>
      <trkpt lat="45.83495" lon="4.67825">
        <ele>283.35406</ele>
        <time>2023-12-07T15:35:48.000Z</time>
      </trkpt>
      <trkpt lat="45.835" lon="4.67829">
        <ele>283.76279</ele>
        <time>2023-12-07T15:35:49.000Z</time>
      </trkpt>
      <trkpt lat="45.83504" lon="4.67833">
        <ele>284.04529</ele>
        <time>2023-12-07T15:35:50.000Z</time>
      </trkpt>
      <trkpt lat="45.83509" lon="4.67837">
        <ele>283.6109</ele>
        <time>2023-12-07T15:35:51.000Z</time>
      </trkpt>
      <trkpt lat="45.83513" lon="4.67841">
        <ele>283.0961</ele>
        <time>2023-12-07T15:35:52.000Z</time>
      </trkpt>
      <trkpt lat="45.83517" lon="4.67845">
        <ele>282.56073</ele>
        <time>2023-12-07T15:35:53.000Z</time>
      </trkpt>
      <trkpt lat="45.83521" lon="4.6785">
        <ele>281.89722</ele>
        <time>2023-12-07T15:35:54.000Z</time>
      </trkpt>
      <trkpt lat="45.83525" lon="4.67857">
        <ele>281.06915</ele>
        <time>2023-12-07T15:35:55.000Z</time>
      </trkpt>
      <trkpt lat="45.83529" lon="4.67863">
        <ele>281.02798</ele>
        <time>2023-12-07T15:35:56.000Z</time>
      </trkpt>
      <trkpt lat="45.83533" lon="4.67869">
        <ele>280.99664</ele>
        <time>2023-12-07T15:35:57.000Z</time>
      </trkpt>
      <trkpt lat="45.83537" lon="4.67877">
        <ele>281.2261</ele>
        <time>2023-12-07T15:35:58.000Z</time>
      </trkpt>
      <trkpt lat="45.83541" lon="4.67884">
        <ele>281.65961</ele>
        <time>2023-12-07T15:35:59.000Z</time>
      </trkpt>
      <trkpt lat="45.83544" lon="4.6789">
        <ele>281.89856</ele>
        <time>2023-12-07T15:36:00.000Z</time>
      </trkpt>
      <trkpt lat="45.83549" lon="4.67897">
        <ele>281.64001</ele>
        <time>2023-12-07T15:36:01.000Z</time>
      </trkpt>
      <trkpt lat="45.83553" lon="4.67902">
        <ele>281.44717</ele>
        <time>2023-12-07T15:36:02.000Z</time>
      </trkpt>
      <trkpt lat="45.83558" lon="4.67907">
        <ele>281.26199</ele>
        <time>2023-12-07T15:36:03.000Z</time>
      </trkpt>
      <trkpt lat="45.83562" lon="4.67912">
        <ele>280.76486</ele>
        <time>2023-12-07T15:36:04.000Z</time>
      </trkpt>
      <trkpt lat="45.83567" lon="4.67916">
        <ele>280.36694</ele>
        <time>2023-12-07T15:36:05.000Z</time>
      </trkpt>
      <trkpt lat="45.83572" lon="4.67919">
        <ele>279.8584</ele>
        <time>2023-12-07T15:36:06.000Z</time>
      </trkpt>
      <trkpt lat="45.83577" lon="4.67923">
        <ele>279.36942</ele>
        <time>2023-12-07T15:36:07.000Z</time>
      </trkpt>
      <trkpt lat="45.83581" lon="4.67926">
        <ele>278.93695</ele>
        <time>2023-12-07T15:36:08.000Z</time>
      </trkpt>
      <trkpt lat="45.83586" lon="4.6793">
        <ele>278.34952</ele>
        <time>2023-12-07T15:36:09.000Z</time>
      </trkpt>
      <trkpt lat="45.83591" lon="4.67933">
        <ele>277.56113</ele>
        <time>2023-12-07T15:36:10.000Z</time>
      </trkpt>
      <trkpt lat="45.83596" lon="4.67937">
        <ele>277.44318</ele>
        <time>2023-12-07T15:36:11.000Z</time>
      </trkpt>
      <trkpt lat="45.83601" lon="4.67941">
        <ele>277.25128</ele>
        <time>2023-12-07T15:36:12.000Z</time>
      </trkpt>
      <trkpt lat="45.83607" lon="4.67945">
        <ele>277.08551</ele>
        <time>2023-12-07T15:36:13.000Z</time>
      </trkpt>
      <trkpt lat="45.83612" lon="4.6795">
        <ele>276.91559</ele>
        <time>2023-12-07T15:36:14.000Z</time>
      </trkpt>
      <trkpt lat="45.83617" lon="4.67954">
        <ele>276.8064</ele>
        <time>2023-12-07T15:36:15.000Z</time>
      </trkpt>
      <trkpt lat="45.83623" lon="4.6796">
        <ele>276.89523</ele>
        <time>2023-12-07T15:36:16.000Z</time>
      </trkpt>
      <trkpt lat="45.83628" lon="4.67964">
        <ele>276.95959</ele>
        <time>2023-12-07T15:36:17.000Z</time>
      </trkpt>
      <trkpt lat="45.83632" lon="4.67969">
        <ele>276.81769</ele>
        <time>2023-12-07T15:36:18.000Z</time>
      </trkpt>
      <trkpt lat="45.83637" lon="4.67974">
        <ele>275.95697</ele>
        <time>2023-12-07T15:36:19.000Z</time>
      </trkpt>
      <trkpt lat="45.83641" lon="4.67977">
        <ele>275.46893</ele>
        <time>2023-12-07T15:36:20.000Z</time>
      </trkpt>
      <trkpt lat="45.83645" lon="4.67981">
        <ele>275.57394</ele>
        <time>2023-12-07T15:36:21.000Z</time>
      </trkpt>
      <trkpt lat="45.8365" lon="4.67986">
        <ele>275.63898</ele>
        <time>2023-12-07T15:36:22.000Z</time>
      </trkpt>
      <trkpt lat="45.83653" lon="4.67992">
        <ele>275.7749</ele>
        <time>2023-12-07T15:36:23.000Z</time>
      </trkpt>
      <trkpt lat="45.83656" lon="4.67995">
        <ele>275.93747</ele>
        <time>2023-12-07T15:36:24.000Z</time>
      </trkpt>
      <trkpt lat="45.8366" lon="4.67999">
        <ele>276.42642</ele>
        <time>2023-12-07T15:36:25.000Z</time>
      </trkpt>
      <trkpt lat="45.83664" lon="4.68004">
        <ele>276.86176</ele>
        <time>2023-12-07T15:36:26.000Z</time>
      </trkpt>
      <trkpt lat="45.83668" lon="4.68008">
        <ele>277.24802</ele>
        <time>2023-12-07T15:36:27.000Z</time>
      </trkpt>
      <trkpt lat="45.83672" lon="4.68015">
        <ele>277.69992</ele>
        <time>2023-12-07T15:36:28.000Z</time>
      </trkpt>
      <trkpt lat="45.83676" lon="4.68021">
        <ele>278.04819</ele>
        <time>2023-12-07T15:36:29.000Z</time>
      </trkpt>
      <trkpt lat="45.8368" lon="4.68027">
        <ele>278.39972</ele>
        <time>2023-12-07T15:36:30.000Z</time>
      </trkpt>
      <trkpt lat="45.83684" lon="4.68032">
        <ele>278.71292</ele>
        <time>2023-12-07T15:36:31.000Z</time>
      </trkpt>
      <trkpt lat="45.83689" lon="4.68038">
        <ele>279.01624</ele>
        <time>2023-12-07T15:36:32.000Z</time>
      </trkpt>
      <trkpt lat="45.83692" lon="4.68043">
        <ele>279.38739</ele>
        <time>2023-12-07T15:36:33.000Z</time>
      </trkpt>
      <trkpt lat="45.83695" lon="4.68049">
        <ele>279.68146</ele>
        <time>2023-12-07T15:36:34.000Z</time>
      </trkpt>
      <trkpt lat="45.83697" lon="4.68058">
        <ele>279.93649</ele>
        <time>2023-12-07T15:36:35.000Z</time>
      </trkpt>
      <trkpt lat="45.83697" lon="4.68064">
        <ele>279.73633</ele>
        <time>2023-12-07T15:36:36.000Z</time>
      </trkpt>
      <trkpt lat="45.83694" lon="4.68071">
        <ele>279.58954</ele>
        <time>2023-12-07T15:36:37.000Z</time>
      </trkpt>
      <trkpt lat="45.83691" lon="4.68075">
        <ele>279.50409</ele>
        <time>2023-12-07T15:36:38.000Z</time>
      </trkpt>
      <trkpt lat="45.83688" lon="4.68077">
        <ele>279.91129</ele>
        <time>2023-12-07T15:36:39.000Z</time>
      </trkpt>
      <trkpt lat="45.83683" lon="4.68081">
        <ele>280.31964</ele>
        <time>2023-12-07T15:36:40.000Z</time>
      </trkpt>
      <trkpt lat="45.8368" lon="4.68085">
        <ele>280.15021</ele>
        <time>2023-12-07T15:36:41.000Z</time>
      </trkpt>
      <trkpt lat="45.83676" lon="4.68089">
        <ele>280.11981</ele>
        <time>2023-12-07T15:36:42.000Z</time>
      </trkpt>
      <trkpt lat="45.83672" lon="4.68093">
        <ele>280.07187</ele>
        <time>2023-12-07T15:36:43.000Z</time>
      </trkpt>
      <trkpt lat="45.83669" lon="4.68097">
        <ele>280.05969</ele>
        <time>2023-12-07T15:36:44.000Z</time>
      </trkpt>
      <trkpt lat="45.83665" lon="4.68102">
        <ele>280.12543</ele>
        <time>2023-12-07T15:36:45.000Z</time>
      </trkpt>
      <trkpt lat="45.83662" lon="4.68108">
        <ele>280.35391</ele>
        <time>2023-12-07T15:36:46.000Z</time>
      </trkpt>
      <trkpt lat="45.83659" lon="4.68113">
        <ele>280.18427</ele>
        <time>2023-12-07T15:36:47.000Z</time>
      </trkpt>
      <trkpt lat="45.83655" lon="4.68117">
        <ele>279.50806</ele>
        <time>2023-12-07T15:36:48.000Z</time>
      </trkpt>
      <trkpt lat="45.83651" lon="4.68122">
        <ele>278.9845</ele>
        <time>2023-12-07T15:36:49.000Z</time>
      </trkpt>
      <trkpt lat="45.83648" lon="4.68126">
        <ele>278.47205</ele>
        <time>2023-12-07T15:36:50.000Z</time>
      </trkpt>
      <trkpt lat="45.83645" lon="4.68132">
        <ele>277.9859</ele>
        <time>2023-12-07T15:36:51.000Z</time>
      </trkpt>
      <trkpt lat="45.83641" lon="4.68136">
        <ele>277.50366</ele>
        <time>2023-12-07T15:36:52.000Z</time>
      </trkpt>
      <trkpt lat="45.83639" lon="4.68141">
        <ele>276.96259</ele>
        <time>2023-12-07T15:36:53.000Z</time>
      </trkpt>
      <trkpt lat="45.83637" lon="4.68147">
        <ele>276.46402</ele>
        <time>2023-12-07T15:36:54.000Z</time>
      </trkpt>
      <trkpt lat="45.83634" lon="4.68153">
        <ele>276.02557</ele>
        <time>2023-12-07T15:36:55.000Z</time>
      </trkpt>
      <trkpt lat="45.83632" lon="4.6816">
        <ele>275.61322</ele>
        <time>2023-12-07T15:36:56.000Z</time>
      </trkpt>
      <trkpt lat="45.83629" lon="4.68166">
        <ele>275.15179</ele>
        <time>2023-12-07T15:36:57.000Z</time>
      </trkpt>
      <trkpt lat="45.83626" lon="4.68172">
        <ele>274.62445</ele>
        <time>2023-12-07T15:36:58.000Z</time>
      </trkpt>
      <trkpt lat="45.83624" lon="4.68178">
        <ele>274.14908</ele>
        <time>2023-12-07T15:36:59.000Z</time>
      </trkpt>
      <trkpt lat="45.83622" lon="4.68184">
        <ele>273.49933</ele>
        <time>2023-12-07T15:37:00.000Z</time>
      </trkpt>
      <trkpt lat="45.83619" lon="4.6819">
        <ele>273.44333</ele>
        <time>2023-12-07T15:37:01.000Z</time>
      </trkpt>
      <trkpt lat="45.83616" lon="4.68195">
        <ele>273.27213</ele>
        <time>2023-12-07T15:37:02.000Z</time>
      </trkpt>
      <trkpt lat="45.83614" lon="4.68201">
        <ele>273.09189</ele>
        <time>2023-12-07T15:37:03.000Z</time>
      </trkpt>
      <trkpt lat="45.83612" lon="4.68207">
        <ele>272.85663</ele>
        <time>2023-12-07T15:37:04.000Z</time>
      </trkpt>
      <trkpt lat="45.83609" lon="4.68213">
        <ele>272.4574</ele>
        <time>2023-12-07T15:37:05.000Z</time>
      </trkpt>
      <trkpt lat="45.83607" lon="4.68219">
        <ele>271.95224</ele>
        <time>2023-12-07T15:37:06.000Z</time>
      </trkpt>
      <trkpt lat="45.83605" lon="4.68226">
        <ele>271.9173</ele>
        <time>2023-12-07T15:37:07.000Z</time>
      </trkpt>
      <trkpt lat="45.83603" lon="4.68231">
        <ele>272.36322</ele>
        <time>2023-12-07T15:37:08.000Z</time>
      </trkpt>
      <trkpt lat="45.83601" lon="4.68235">
        <ele>272.36951</ele>
        <time>2023-12-07T15:37:09.000Z</time>
      </trkpt>
      <trkpt lat="45.83599" lon="4.68239">
        <ele>272.45221</ele>
        <time>2023-12-07T15:37:10.000Z</time>
      </trkpt>
      <trkpt lat="45.83598" lon="4.68244">
        <ele>272.55298</ele>
        <time>2023-12-07T15:37:11.000Z</time>
      </trkpt>
      <trkpt lat="45.83597" lon="4.68249">
        <ele>272.68842</ele>
        <time>2023-12-07T15:37:12.000Z</time>
      </trkpt>
      <trkpt lat="45.83596" lon="4.68253">
        <ele>272.83032</ele>
        <time>2023-12-07T15:37:13.000Z</time>
      </trkpt>
      <trkpt lat="45.83596" lon="4.68257">
        <ele>272.97266</ele>
        <time>2023-12-07T15:37:14.000Z</time>
      </trkpt>
      <trkpt lat="45.83595" lon="4.68261">
        <ele>273.11047</ele>
        <time>2023-12-07T15:37:15.000Z</time>
      </trkpt>
      <trkpt lat="45.83594" lon="4.68265">
        <ele>273.23932</ele>
        <time>2023-12-07T15:37:16.000Z</time>
      </trkpt>
      <trkpt lat="45.83592" lon="4.68269">
        <ele>273.36584</ele>
        <time>2023-12-07T15:37:17.000Z</time>
      </trkpt>
      <trkpt lat="45.83591" lon="4.68272">
        <ele>273.51276</ele>
        <time>2023-12-07T15:37:18.000Z</time>
      </trkpt>
      <trkpt lat="45.8359" lon="4.68275">
        <ele>273.62006</ele>
        <time>2023-12-07T15:37:19.000Z</time>
      </trkpt>
      <trkpt lat="45.83589" lon="4.68279">
        <ele>273.71326</ele>
        <time>2023-12-07T15:37:20.000Z</time>
      </trkpt>
      <trkpt lat="45.83588" lon="4.68282">
        <ele>273.83725</ele>
        <time>2023-12-07T15:37:21.000Z</time>
      </trkpt>
      <trkpt lat="45.83587" lon="4.68285">
        <ele>274.22815</ele>
        <time>2023-12-07T15:37:22.000Z</time>
      </trkpt>
      <trkpt lat="45.83586" lon="4.68288">
        <ele>274.6214</ele>
        <time>2023-12-07T15:37:23.000Z</time>
      </trkpt>
      <trkpt lat="45.83585" lon="4.68292">
        <ele>275.02148</ele>
        <time>2023-12-07T15:37:24.000Z</time>
      </trkpt>
      <trkpt lat="45.83584" lon="4.68296">
        <ele>275.14203</ele>
        <time>2023-12-07T15:37:25.000Z</time>
      </trkpt>
      <trkpt lat="45.83583" lon="4.68301">
        <ele>275.27597</ele>
        <time>2023-12-07T15:37:26.000Z</time>
      </trkpt>
      <trkpt lat="45.83583" lon="4.68306">
        <ele>275.3808</ele>
        <time>2023-12-07T15:37:27.000Z</time>
      </trkpt>
      <trkpt lat="45.83582" lon="4.68311">
        <ele>275.45361</ele>
        <time>2023-12-07T15:37:28.000Z</time>
      </trkpt>
      <trkpt lat="45.83582" lon="4.68317">
        <ele>275.91064</ele>
        <time>2023-12-07T15:37:29.000Z</time>
      </trkpt>
      <trkpt lat="45.83582" lon="4.68323">
        <ele>276.28915</ele>
        <time>2023-12-07T15:37:30.000Z</time>
      </trkpt>
      <trkpt lat="45.83582" lon="4.68329">
        <ele>276.63483</ele>
        <time>2023-12-07T15:37:31.000Z</time>
      </trkpt>
      <trkpt lat="45.83583" lon="4.68336">
        <ele>276.94287</ele>
        <time>2023-12-07T15:37:32.000Z</time>
      </trkpt>
      <trkpt lat="45.83584" lon="4.68342">
        <ele>277.22333</ele>
        <time>2023-12-07T15:37:33.000Z</time>
      </trkpt>
      <trkpt lat="45.83584" lon="4.68349">
        <ele>277.51517</ele>
        <time>2023-12-07T15:37:34.000Z</time>
      </trkpt>
      <trkpt lat="45.83585" lon="4.68355">
        <ele>277.79306</ele>
        <time>2023-12-07T15:37:35.000Z</time>
      </trkpt>
      <trkpt lat="45.83585" lon="4.68361">
        <ele>278.06021</ele>
        <time>2023-12-07T15:37:36.000Z</time>
      </trkpt>
      <trkpt lat="45.83585" lon="4.68366">
        <ele>278.31088</ele>
        <time>2023-12-07T15:37:37.000Z</time>
      </trkpt>
      <trkpt lat="45.83585" lon="4.6837">
        <ele>278.54028</ele>
        <time>2023-12-07T15:37:38.000Z</time>
      </trkpt>
      <trkpt lat="45.83584" lon="4.68373">
        <ele>278.76904</ele>
        <time>2023-12-07T15:37:39.000Z</time>
      </trkpt>
      <trkpt lat="45.83583" lon="4.68377">
        <ele>278.97809</ele>
        <time>2023-12-07T15:37:40.000Z</time>
      </trkpt>
      <trkpt lat="45.83582" lon="4.68379">
        <ele>279.19461</ele>
        <time>2023-12-07T15:37:41.000Z</time>
      </trkpt>
      <trkpt lat="45.83581" lon="4.68384">
        <ele>279.16632</ele>
        <time>2023-12-07T15:37:43.000Z</time>
      </trkpt>
      <trkpt lat="45.83579" lon="4.68386">
        <ele>279.14844</ele>
        <time>2023-12-07T15:37:46.000Z</time>
      </trkpt>
      <trkpt lat="45.83577" lon="4.68389">
        <ele>279.12738</ele>
        <time>2023-12-07T15:37:48.000Z</time>
      </trkpt>
      <trkpt lat="45.83575" lon="4.68392">
        <ele>279.1282</ele>
        <time>2023-12-07T15:37:49.000Z</time>
      </trkpt>
      <trkpt lat="45.83573" lon="4.68395">
        <ele>279.10098</ele>
        <time>2023-12-07T15:37:50.000Z</time>
      </trkpt>
      <trkpt lat="45.8357" lon="4.68399">
        <ele>279.03372</ele>
        <time>2023-12-07T15:37:51.000Z</time>
      </trkpt>
      <trkpt lat="45.83568" lon="4.68402">
        <ele>278.97375</ele>
        <time>2023-12-07T15:37:52.000Z</time>
      </trkpt>
      <trkpt lat="45.83565" lon="4.68406">
        <ele>278.94034</ele>
        <time>2023-12-07T15:37:53.000Z</time>
      </trkpt>
      <trkpt lat="45.83563" lon="4.68409">
        <ele>278.89221</ele>
        <time>2023-12-07T15:37:54.000Z</time>
      </trkpt>
      <trkpt lat="45.8356" lon="4.68413">
        <ele>278.85226</ele>
        <time>2023-12-07T15:37:55.000Z</time>
      </trkpt>
      <trkpt lat="45.83558" lon="4.68416">
        <ele>278.82803</ele>
        <time>2023-12-07T15:37:56.000Z</time>
      </trkpt>
      <trkpt lat="45.83555" lon="4.68419">
        <ele>278.78302</ele>
        <time>2023-12-07T15:37:57.000Z</time>
      </trkpt>
      <trkpt lat="45.83552" lon="4.68423">
        <ele>278.78351</ele>
        <time>2023-12-07T15:37:58.000Z</time>
      </trkpt>
      <trkpt lat="45.83549" lon="4.68426">
        <ele>278.79572</ele>
        <time>2023-12-07T15:37:59.000Z</time>
      </trkpt>
      <trkpt lat="45.83546" lon="4.6843">
        <ele>278.75336</ele>
        <time>2023-12-07T15:38:00.000Z</time>
      </trkpt>
      <trkpt lat="45.83543" lon="4.68433">
        <ele>278.52612</ele>
        <time>2023-12-07T15:38:01.000Z</time>
      </trkpt>
      <trkpt lat="45.83539" lon="4.68437">
        <ele>278.31494</ele>
        <time>2023-12-07T15:38:02.000Z</time>
      </trkpt>
      <trkpt lat="45.83536" lon="4.6844">
        <ele>278.17834</ele>
        <time>2023-12-07T15:38:03.000Z</time>
      </trkpt>
      <trkpt lat="45.83533" lon="4.68443">
        <ele>278.04489</ele>
        <time>2023-12-07T15:38:04.000Z</time>
      </trkpt>
      <trkpt lat="45.8353" lon="4.68445">
        <ele>277.8327</ele>
        <time>2023-12-07T15:38:05.000Z</time>
      </trkpt>
      <trkpt lat="45.83527" lon="4.68447">
        <ele>277.59442</ele>
        <time>2023-12-07T15:38:06.000Z</time>
      </trkpt>
      <trkpt lat="45.83523" lon="4.68449">
        <ele>277.36554</ele>
        <time>2023-12-07T15:38:07.000Z</time>
      </trkpt>
      <trkpt lat="45.8352" lon="4.68452">
        <ele>277.14679</ele>
        <time>2023-12-07T15:38:08.000Z</time>
      </trkpt>
      <trkpt lat="45.83517" lon="4.68454">
        <ele>276.97345</ele>
        <time>2023-12-07T15:38:09.000Z</time>
      </trkpt>
      <trkpt lat="45.83513" lon="4.68456">
        <ele>276.87994</ele>
        <time>2023-12-07T15:38:10.000Z</time>
      </trkpt>
      <trkpt lat="45.8351" lon="4.68458">
        <ele>276.94342</ele>
        <time>2023-12-07T15:38:11.000Z</time>
      </trkpt>
      <trkpt lat="45.83506" lon="4.6846">
        <ele>277.0878</ele>
        <time>2023-12-07T15:38:12.000Z</time>
      </trkpt>
      <trkpt lat="45.83503" lon="4.68462">
        <ele>277.224</ele>
        <time>2023-12-07T15:38:13.000Z</time>
      </trkpt>
      <trkpt lat="45.835" lon="4.68465">
        <ele>277.03729</ele>
        <time>2023-12-07T15:38:14.000Z</time>
      </trkpt>
      <trkpt lat="45.83496" lon="4.68467">
        <ele>276.92508</ele>
        <time>2023-12-07T15:38:15.000Z</time>
      </trkpt>
      <trkpt lat="45.83493" lon="4.68469">
        <ele>276.82025</ele>
        <time>2023-12-07T15:38:16.000Z</time>
      </trkpt>
      <trkpt lat="45.8349" lon="4.68472">
        <ele>276.75354</ele>
        <time>2023-12-07T15:38:17.000Z</time>
      </trkpt>
      <trkpt lat="45.83486" lon="4.68475">
        <ele>276.66031</ele>
        <time>2023-12-07T15:38:18.000Z</time>
      </trkpt>
      <trkpt lat="45.83483" lon="4.68477">
        <ele>276.56406</ele>
        <time>2023-12-07T15:38:19.000Z</time>
      </trkpt>
      <trkpt lat="45.8348" lon="4.68479">
        <ele>276.52505</ele>
        <time>2023-12-07T15:38:20.000Z</time>
      </trkpt>
      <trkpt lat="45.83476" lon="4.68481">
        <ele>276.70563</ele>
        <time>2023-12-07T15:38:21.000Z</time>
      </trkpt>
      <trkpt lat="45.83472" lon="4.68484">
        <ele>276.89667</ele>
        <time>2023-12-07T15:38:22.000Z</time>
      </trkpt>
      <trkpt lat="45.83469" lon="4.68486">
        <ele>277.022</ele>
        <time>2023-12-07T15:38:23.000Z</time>
      </trkpt>
      <trkpt lat="45.83465" lon="4.68488">
        <ele>277.17975</ele>
        <time>2023-12-07T15:38:24.000Z</time>
      </trkpt>
      <trkpt lat="45.83462" lon="4.6849">
        <ele>277.52444</ele>
        <time>2023-12-07T15:38:25.000Z</time>
      </trkpt>
      <trkpt lat="45.83458" lon="4.68492">
        <ele>277.86392</ele>
        <time>2023-12-07T15:38:26.000Z</time>
      </trkpt>
      <trkpt lat="45.83455" lon="4.68494">
        <ele>278.19547</ele>
        <time>2023-12-07T15:38:27.000Z</time>
      </trkpt>
      <trkpt lat="45.83451" lon="4.68497">
        <ele>278.51361</ele>
        <time>2023-12-07T15:38:28.000Z</time>
      </trkpt>
      <trkpt lat="45.83448" lon="4.68499">
        <ele>278.78806</ele>
        <time>2023-12-07T15:38:29.000Z</time>
      </trkpt>
      <trkpt lat="45.83444" lon="4.685">
        <ele>279.08087</ele>
        <time>2023-12-07T15:38:30.000Z</time>
      </trkpt>
      <trkpt lat="45.8344" lon="4.68502">
        <ele>279.23712</ele>
        <time>2023-12-07T15:38:31.000Z</time>
      </trkpt>
      <trkpt lat="45.83437" lon="4.68504">
        <ele>279.03131</ele>
        <time>2023-12-07T15:38:32.000Z</time>
      </trkpt>
      <trkpt lat="45.83433" lon="4.68507">
        <ele>278.88931</ele>
        <time>2023-12-07T15:38:33.000Z</time>
      </trkpt>
      <trkpt lat="45.8343" lon="4.68509">
        <ele>279.05746</ele>
        <time>2023-12-07T15:38:34.000Z</time>
      </trkpt>
      <trkpt lat="45.83426" lon="4.68511">
        <ele>279.20834</ele>
        <time>2023-12-07T15:38:35.000Z</time>
      </trkpt>
      <trkpt lat="45.83423" lon="4.68513">
        <ele>279.37698</ele>
        <time>2023-12-07T15:38:36.000Z</time>
      </trkpt>
      <trkpt lat="45.83419" lon="4.68515">
        <ele>279.61957</ele>
        <time>2023-12-07T15:38:37.000Z</time>
      </trkpt>
      <trkpt lat="45.83415" lon="4.68517">
        <ele>279.86389</ele>
        <time>2023-12-07T15:38:38.000Z</time>
      </trkpt>
      <trkpt lat="45.83411" lon="4.68519">
        <ele>280.0918</ele>
        <time>2023-12-07T15:38:39.000Z</time>
      </trkpt>
      <trkpt lat="45.83408" lon="4.68521">
        <ele>280.31094</ele>
        <time>2023-12-07T15:38:40.000Z</time>
      </trkpt>
      <trkpt lat="45.83404" lon="4.68524">
        <ele>280.50034</ele>
        <time>2023-12-07T15:38:41.000Z</time>
      </trkpt>
      <trkpt lat="45.83401" lon="4.68526">
        <ele>280.68927</ele>
        <time>2023-12-07T15:38:42.000Z</time>
      </trkpt>
      <trkpt lat="45.83397" lon="4.68528">
        <ele>280.85892</ele>
        <time>2023-12-07T15:38:43.000Z</time>
      </trkpt>
      <trkpt lat="45.83393" lon="4.6853">
        <ele>281.03482</ele>
        <time>2023-12-07T15:38:44.000Z</time>
      </trkpt>
      <trkpt lat="45.8339" lon="4.68532">
        <ele>281.13751</ele>
        <time>2023-12-07T15:38:45.000Z</time>
      </trkpt>
      <trkpt lat="45.83387" lon="4.68534">
        <ele>281.2356</ele>
        <time>2023-12-07T15:38:46.000Z</time>
      </trkpt>
      <trkpt lat="45.83383" lon="4.68536">
        <ele>281.37888</ele>
        <time>2023-12-07T15:38:47.000Z</time>
      </trkpt>
      <trkpt lat="45.8338" lon="4.68537">
        <ele>281.55139</ele>
        <time>2023-12-07T15:38:48.000Z</time>
      </trkpt>
      <trkpt lat="45.83377" lon="4.68539">
        <ele>281.41495</ele>
        <time>2023-12-07T15:38:49.000Z</time>
      </trkpt>
      <trkpt lat="45.83373" lon="4.6854">
        <ele>281.21906</ele>
        <time>2023-12-07T15:38:50.000Z</time>
      </trkpt>
      <trkpt lat="45.8337" lon="4.68542">
        <ele>281.00046</ele>
        <time>2023-12-07T15:38:51.000Z</time>
      </trkpt>
      <trkpt lat="45.83367" lon="4.68543">
        <ele>281.06281</ele>
        <time>2023-12-07T15:38:52.000Z</time>
      </trkpt>
      <trkpt lat="45.83364" lon="4.68544">
        <ele>281.08673</ele>
        <time>2023-12-07T15:38:53.000Z</time>
      </trkpt>
      <trkpt lat="45.83361" lon="4.68545">
        <ele>281.15341</ele>
        <time>2023-12-07T15:38:54.000Z</time>
      </trkpt>
      <trkpt lat="45.83358" lon="4.68546">
        <ele>281.15634</ele>
        <time>2023-12-07T15:38:55.000Z</time>
      </trkpt>
      <trkpt lat="45.83354" lon="4.68545">
        <ele>281.1319</ele>
        <time>2023-12-07T15:38:56.000Z</time>
      </trkpt>
      <trkpt lat="45.8335" lon="4.68543">
        <ele>281.04565</ele>
        <time>2023-12-07T15:38:57.000Z</time>
      </trkpt>
      <trkpt lat="45.83347" lon="4.68542">
        <ele>280.94672</ele>
        <time>2023-12-07T15:38:58.000Z</time>
      </trkpt>
      <trkpt lat="45.83343" lon="4.6854">
        <ele>280.81464</ele>
        <time>2023-12-07T15:38:59.000Z</time>
      </trkpt>
      <trkpt lat="45.8334" lon="4.68537">
        <ele>280.72516</ele>
        <time>2023-12-07T15:39:00.000Z</time>
      </trkpt>
      <trkpt lat="45.83337" lon="4.68535">
        <ele>280.6293</ele>
        <time>2023-12-07T15:39:01.000Z</time>
      </trkpt>
      <trkpt lat="45.83334" lon="4.68532">
        <ele>280.5412</ele>
        <time>2023-12-07T15:39:02.000Z</time>
      </trkpt>
      <trkpt lat="45.83332" lon="4.6853">
        <ele>280.49225</ele>
        <time>2023-12-07T15:39:03.000Z</time>
      </trkpt>
      <trkpt lat="45.83329" lon="4.68528">
        <ele>280.54025</ele>
        <time>2023-12-07T15:39:04.000Z</time>
      </trkpt>
      <trkpt lat="45.83326" lon="4.68526">
        <ele>280.51788</ele>
        <time>2023-12-07T15:39:05.000Z</time>
      </trkpt>
      <trkpt lat="45.83323" lon="4.68525">
        <ele>280.57309</ele>
        <time>2023-12-07T15:39:06.000Z</time>
      </trkpt>
      <trkpt lat="45.8332" lon="4.68525">
        <ele>280.63397</ele>
        <time>2023-12-07T15:39:07.000Z</time>
      </trkpt>
      <trkpt lat="45.83316" lon="4.68526">
        <ele>280.65363</ele>
        <time>2023-12-07T15:39:08.000Z</time>
      </trkpt>
      <trkpt lat="45.83314" lon="4.68528">
        <ele>280.71848</ele>
        <time>2023-12-07T15:39:09.000Z</time>
      </trkpt>
      <trkpt lat="45.83311" lon="4.6853">
        <ele>280.81284</ele>
        <time>2023-12-07T15:39:10.000Z</time>
      </trkpt>
      <trkpt lat="45.83309" lon="4.68533">
        <ele>280.90836</ele>
        <time>2023-12-07T15:39:11.000Z</time>
      </trkpt>
      <trkpt lat="45.83308" lon="4.68537">
        <ele>281.01849</ele>
        <time>2023-12-07T15:39:12.000Z</time>
      </trkpt>
      <trkpt lat="45.83307" lon="4.6854">
        <ele>281.07672</ele>
        <time>2023-12-07T15:39:13.000Z</time>
      </trkpt>
      <trkpt lat="45.83308" lon="4.68545">
        <ele>281.09076</ele>
        <time>2023-12-07T15:39:14.000Z</time>
      </trkpt>
      <trkpt lat="45.83309" lon="4.68549">
        <ele>281.12991</ele>
        <time>2023-12-07T15:39:15.000Z</time>
      </trkpt>
      <trkpt lat="45.83311" lon="4.68554">
        <ele>281.16037</ele>
        <time>2023-12-07T15:39:16.000Z</time>
      </trkpt>
      <trkpt lat="45.83313" lon="4.68558">
        <ele>281.18076</ele>
        <time>2023-12-07T15:39:17.000Z</time>
      </trkpt>
      <trkpt lat="45.83316" lon="4.68562">
        <ele>281.18976</ele>
        <time>2023-12-07T15:39:18.000Z</time>
      </trkpt>
      <trkpt lat="45.83318" lon="4.68567">
        <ele>281.20557</ele>
        <time>2023-12-07T15:39:19.000Z</time>
      </trkpt>
      <trkpt lat="45.8332" lon="4.68572">
        <ele>281.21539</ele>
        <time>2023-12-07T15:39:20.000Z</time>
      </trkpt>
      <trkpt lat="45.83322" lon="4.68578">
        <ele>281.34021</ele>
        <time>2023-12-07T15:39:21.000Z</time>
      </trkpt>
      <trkpt lat="45.83323" lon="4.68583">
        <ele>281.43585</ele>
        <time>2023-12-07T15:39:22.000Z</time>
      </trkpt>
      <trkpt lat="45.83323" lon="4.68589">
        <ele>281.47614</ele>
        <time>2023-12-07T15:39:23.000Z</time>
      </trkpt>
      <trkpt lat="45.83324" lon="4.68594">
        <ele>281.42789</ele>
        <time>2023-12-07T15:39:24.000Z</time>
      </trkpt>
      <trkpt lat="45.83325" lon="4.686">
        <ele>281.37167</ele>
        <time>2023-12-07T15:39:25.000Z</time>
      </trkpt>
      <trkpt lat="45.83327" lon="4.68605">
        <ele>281.02789</ele>
        <time>2023-12-07T15:39:26.000Z</time>
      </trkpt>
      <trkpt lat="45.83328" lon="4.68611">
        <ele>280.81143</ele>
        <time>2023-12-07T15:39:27.000Z</time>
      </trkpt>
      <trkpt lat="45.8333" lon="4.68616">
        <ele>280.58539</ele>
        <time>2023-12-07T15:39:28.000Z</time>
      </trkpt>
      <trkpt lat="45.83331" lon="4.68621">
        <ele>280.70544</ele>
        <time>2023-12-07T15:39:29.000Z</time>
      </trkpt>
      <trkpt lat="45.83332" lon="4.68627">
        <ele>280.82199</ele>
        <time>2023-12-07T15:39:30.000Z</time>
      </trkpt>
      <trkpt lat="45.83334" lon="4.68632">
        <ele>281.0253</ele>
        <time>2023-12-07T15:39:31.000Z</time>
      </trkpt>
      <trkpt lat="45.83335" lon="4.68637">
        <ele>281.21667</ele>
        <time>2023-12-07T15:39:32.000Z</time>
      </trkpt>
      <trkpt lat="45.83337" lon="4.68641">
        <ele>281.33832</ele>
        <time>2023-12-07T15:39:33.000Z</time>
      </trkpt>
      <trkpt lat="45.83338" lon="4.68646">
        <ele>281.76111</ele>
        <time>2023-12-07T15:39:34.000Z</time>
      </trkpt>
      <trkpt lat="45.83339" lon="4.68652">
        <ele>282.10229</ele>
        <time>2023-12-07T15:39:35.000Z</time>
      </trkpt>
      <trkpt lat="45.8334" lon="4.68657">
        <ele>282.34253</ele>
        <time>2023-12-07T15:39:36.000Z</time>
      </trkpt>
      <trkpt lat="45.83341" lon="4.68662">
        <ele>282.47308</ele>
        <time>2023-12-07T15:39:37.000Z</time>
      </trkpt>
      <trkpt lat="45.83343" lon="4.68667">
        <ele>282.62384</ele>
        <time>2023-12-07T15:39:38.000Z</time>
      </trkpt>
      <trkpt lat="45.83345" lon="4.68672">
        <ele>282.81207</ele>
        <time>2023-12-07T15:39:39.000Z</time>
      </trkpt>
      <trkpt lat="45.83346" lon="4.68676">
        <ele>282.97723</ele>
        <time>2023-12-07T15:39:40.000Z</time>
      </trkpt>
      <trkpt lat="45.83347" lon="4.68681">
        <ele>283.02249</ele>
        <time>2023-12-07T15:39:41.000Z</time>
      </trkpt>
      <trkpt lat="45.83349" lon="4.68686">
        <ele>283.07022</ele>
        <time>2023-12-07T15:39:42.000Z</time>
      </trkpt>
      <trkpt lat="45.8335" lon="4.68691">
        <ele>283.05789</ele>
        <time>2023-12-07T15:39:43.000Z</time>
      </trkpt>
      <trkpt lat="45.83353" lon="4.68696">
        <ele>283.17593</ele>
        <time>2023-12-07T15:39:44.000Z</time>
      </trkpt>
      <trkpt lat="45.83355" lon="4.687">
        <ele>283.28882</ele>
        <time>2023-12-07T15:39:45.000Z</time>
      </trkpt>
      <trkpt lat="45.83357" lon="4.68704">
        <ele>283.61456</ele>
        <time>2023-12-07T15:39:46.000Z</time>
      </trkpt>
      <trkpt lat="45.8336" lon="4.68708">
        <ele>283.75391</ele>
        <time>2023-12-07T15:39:47.000Z</time>
      </trkpt>
      <trkpt lat="45.83362" lon="4.68713">
        <ele>283.90057</ele>
        <time>2023-12-07T15:39:48.000Z</time>
      </trkpt>
      <trkpt lat="45.83365" lon="4.68718">
        <ele>284.02084</ele>
        <time>2023-12-07T15:39:49.000Z</time>
      </trkpt>
      <trkpt lat="45.83367" lon="4.68723">
        <ele>284.06921</ele>
        <time>2023-12-07T15:39:50.000Z</time>
      </trkpt>
      <trkpt lat="45.8337" lon="4.68728">
        <ele>284.03888</ele>
        <time>2023-12-07T15:39:51.000Z</time>
      </trkpt>
      <trkpt lat="45.83372" lon="4.68733">
        <ele>284.0213</ele>
        <time>2023-12-07T15:39:52.000Z</time>
      </trkpt>
      <trkpt lat="45.83375" lon="4.68738">
        <ele>284.15384</ele>
        <time>2023-12-07T15:39:53.000Z</time>
      </trkpt>
      <trkpt lat="45.83379" lon="4.68744">
        <ele>283.83286</ele>
        <time>2023-12-07T15:39:54.000Z</time>
      </trkpt>
      <trkpt lat="45.83381" lon="4.6875">
        <ele>283.57077</ele>
        <time>2023-12-07T15:39:55.000Z</time>
      </trkpt>
      <trkpt lat="45.83384" lon="4.68756">
        <ele>283.40405</ele>
        <time>2023-12-07T15:39:56.000Z</time>
      </trkpt>
      <trkpt lat="45.83386" lon="4.68763">
        <ele>283.41351</ele>
        <time>2023-12-07T15:39:57.000Z</time>
      </trkpt>
      <trkpt lat="45.83387" lon="4.6877">
        <ele>283.42657</ele>
        <time>2023-12-07T15:39:58.000Z</time>
      </trkpt>
      <trkpt lat="45.8339" lon="4.68776">
        <ele>283.46359</ele>
        <time>2023-12-07T15:39:59.000Z</time>
      </trkpt>
      <trkpt lat="45.83392" lon="4.68783">
        <ele>283.16983</ele>
        <time>2023-12-07T15:40:00.000Z</time>
      </trkpt>
      <trkpt lat="45.83395" lon="4.6879">
        <ele>282.95923</ele>
        <time>2023-12-07T15:40:01.000Z</time>
      </trkpt>
      <trkpt lat="45.83396" lon="4.68796">
        <ele>282.74478</ele>
        <time>2023-12-07T15:40:02.000Z</time>
      </trkpt>
      <trkpt lat="45.83399" lon="4.68802">
        <ele>282.59216</ele>
        <time>2023-12-07T15:40:03.000Z</time>
      </trkpt>
      <trkpt lat="45.834" lon="4.68809">
        <ele>282.32663</ele>
        <time>2023-12-07T15:40:04.000Z</time>
      </trkpt>
      <trkpt lat="45.83402" lon="4.68815">
        <ele>282.04547</ele>
        <time>2023-12-07T15:40:05.000Z</time>
      </trkpt>
      <trkpt lat="45.83402" lon="4.68821">
        <ele>281.71454</ele>
        <time>2023-12-07T15:40:06.000Z</time>
      </trkpt>
      <trkpt lat="45.83403" lon="4.68829">
        <ele>281.37759</ele>
        <time>2023-12-07T15:40:07.000Z</time>
      </trkpt>
      <trkpt lat="45.83406" lon="4.68836">
        <ele>281.03702</ele>
        <time>2023-12-07T15:40:08.000Z</time>
      </trkpt>
      <trkpt lat="45.83408" lon="4.68843">
        <ele>280.62955</ele>
        <time>2023-12-07T15:40:09.000Z</time>
      </trkpt>
      <trkpt lat="45.8341" lon="4.68849">
        <ele>280.24283</ele>
        <time>2023-12-07T15:40:10.000Z</time>
      </trkpt>
      <trkpt lat="45.83412" lon="4.68858">
        <ele>280.21234</ele>
        <time>2023-12-07T15:40:11.000Z</time>
      </trkpt>
      <trkpt lat="45.83414" lon="4.68863">
        <ele>280.21448</ele>
        <time>2023-12-07T15:40:12.000Z</time>
      </trkpt>
      <trkpt lat="45.83415" lon="4.68871">
        <ele>280.22314</ele>
        <time>2023-12-07T15:40:13.000Z</time>
      </trkpt>
      <trkpt lat="45.83416" lon="4.68876">
        <ele>280.47333</ele>
        <time>2023-12-07T15:40:14.000Z</time>
      </trkpt>
      <trkpt lat="45.83417" lon="4.68881">
        <ele>280.76868</ele>
        <time>2023-12-07T15:40:15.000Z</time>
      </trkpt>
      <trkpt lat="45.83419" lon="4.68886">
        <ele>281.16452</ele>
        <time>2023-12-07T15:40:16.000Z</time>
      </trkpt>
      <trkpt lat="45.8342" lon="4.68891">
        <ele>281.44928</ele>
        <time>2023-12-07T15:40:17.000Z</time>
      </trkpt>
      <trkpt lat="45.83421" lon="4.68896">
        <ele>281.80762</ele>
        <time>2023-12-07T15:40:18.000Z</time>
      </trkpt>
      <trkpt lat="45.83423" lon="4.689">
        <ele>282.0936</ele>
        <time>2023-12-07T15:40:19.000Z</time>
      </trkpt>
      <trkpt lat="45.83424" lon="4.68905">
        <ele>282.76053</ele>
        <time>2023-12-07T15:40:20.000Z</time>
      </trkpt>
      <trkpt lat="45.83426" lon="4.68909">
        <ele>283.32233</ele>
        <time>2023-12-07T15:40:21.000Z</time>
      </trkpt>
      <trkpt lat="45.83427" lon="4.68913">
        <ele>283.9223</ele>
        <time>2023-12-07T15:40:22.000Z</time>
      </trkpt>
      <trkpt lat="45.83427" lon="4.68918">
        <ele>284.42303</ele>
        <time>2023-12-07T15:40:23.000Z</time>
      </trkpt>
      <trkpt lat="45.83427" lon="4.68923">
        <ele>284.88223</ele>
        <time>2023-12-07T15:40:24.000Z</time>
      </trkpt>
      <trkpt lat="45.83426" lon="4.68928">
        <ele>285.26501</ele>
        <time>2023-12-07T15:40:25.000Z</time>
      </trkpt>
      <trkpt lat="45.83425" lon="4.68933">
        <ele>285.67816</ele>
        <time>2023-12-07T15:40:26.000Z</time>
      </trkpt>
      <trkpt lat="45.83424" lon="4.68937">
        <ele>286.08105</ele>
        <time>2023-12-07T15:40:27.000Z</time>
      </trkpt>
      <trkpt lat="45.83422" lon="4.68942">
        <ele>286.50806</ele>
        <time>2023-12-07T15:40:28.000Z</time>
      </trkpt>
      <trkpt lat="45.83421" lon="4.68946">
        <ele>286.96725</ele>
        <time>2023-12-07T15:40:29.000Z</time>
      </trkpt>
      <trkpt lat="45.83419" lon="4.6895">
        <ele>287.4523</ele>
        <time>2023-12-07T15:40:30.000Z</time>
      </trkpt>
      <trkpt lat="45.83418" lon="4.68955">
        <ele>287.61652</ele>
        <time>2023-12-07T15:40:31.000Z</time>
      </trkpt>
      <trkpt lat="45.83416" lon="4.68959">
        <ele>287.73663</ele>
        <time>2023-12-07T15:40:32.000Z</time>
      </trkpt>
      <trkpt lat="45.83415" lon="4.68963">
        <ele>287.77267</ele>
        <time>2023-12-07T15:40:33.000Z</time>
      </trkpt>
      <trkpt lat="45.83414" lon="4.68967">
        <ele>287.74469</ele>
        <time>2023-12-07T15:40:34.000Z</time>
      </trkpt>
      <trkpt lat="45.83413" lon="4.68971">
        <ele>287.7355</ele>
        <time>2023-12-07T15:40:35.000Z</time>
      </trkpt>
      <trkpt lat="45.83412" lon="4.68975">
        <ele>287.67404</ele>
        <time>2023-12-07T15:40:36.000Z</time>
      </trkpt>
      <trkpt lat="45.83411" lon="4.68979">
        <ele>287.66492</ele>
        <time>2023-12-07T15:40:37.000Z</time>
      </trkpt>
      <trkpt lat="45.8341" lon="4.68983">
        <ele>287.5683</ele>
        <time>2023-12-07T15:40:38.000Z</time>
      </trkpt>
      <trkpt lat="45.83408" lon="4.68987">
        <ele>287.55829</ele>
        <time>2023-12-07T15:40:39.000Z</time>
      </trkpt>
      <trkpt lat="45.83407" lon="4.68992">
        <ele>287.495</ele>
        <time>2023-12-07T15:40:40.000Z</time>
      </trkpt>
      <trkpt lat="45.83406" lon="4.68996">
        <ele>287.49631</ele>
        <time>2023-12-07T15:40:41.000Z</time>
      </trkpt>
      <trkpt lat="45.83405" lon="4.69">
        <ele>287.65274</ele>
        <time>2023-12-07T15:40:42.000Z</time>
      </trkpt>
      <trkpt lat="45.83404" lon="4.69004">
        <ele>287.93878</ele>
        <time>2023-12-07T15:40:43.000Z</time>
      </trkpt>
      <trkpt lat="45.83403" lon="4.69007">
        <ele>288.23749</ele>
        <time>2023-12-07T15:40:44.000Z</time>
      </trkpt>
      <trkpt lat="45.83401" lon="4.69012">
        <ele>288.64008</ele>
        <time>2023-12-07T15:40:45.000Z</time>
      </trkpt>
      <trkpt lat="45.834" lon="4.69015">
        <ele>289.06418</ele>
        <time>2023-12-07T15:40:46.000Z</time>
      </trkpt>
      <trkpt lat="45.83399" lon="4.69019">
        <ele>289.52371</ele>
        <time>2023-12-07T15:40:47.000Z</time>
      </trkpt>
      <trkpt lat="45.83398" lon="4.69022">
        <ele>290.05487</ele>
        <time>2023-12-07T15:40:48.000Z</time>
      </trkpt>
      <trkpt lat="45.83396" lon="4.69025">
        <ele>290.65598</ele>
        <time>2023-12-07T15:40:49.000Z</time>
      </trkpt>
      <trkpt lat="45.83394" lon="4.69028">
        <ele>290.88943</ele>
        <time>2023-12-07T15:40:50.000Z</time>
      </trkpt>
      <trkpt lat="45.83393" lon="4.69031">
        <ele>291.16638</ele>
        <time>2023-12-07T15:40:51.000Z</time>
      </trkpt>
      <trkpt lat="45.83391" lon="4.69034">
        <ele>291.4343</ele>
        <time>2023-12-07T15:40:52.000Z</time>
      </trkpt>
      <trkpt lat="45.83389" lon="4.69037">
        <ele>291.70932</ele>
        <time>2023-12-07T15:40:53.000Z</time>
      </trkpt>
      <trkpt lat="45.83388" lon="4.6904">
        <ele>291.99982</ele>
        <time>2023-12-07T15:40:54.000Z</time>
      </trkpt>
      <trkpt lat="45.83386" lon="4.69043">
        <ele>292.22968</ele>
        <time>2023-12-07T15:40:55.000Z</time>
      </trkpt>
      <trkpt lat="45.83384" lon="4.69046">
        <ele>292.4707</ele>
        <time>2023-12-07T15:40:56.000Z</time>
      </trkpt>
      <trkpt lat="45.83383" lon="4.69049">
        <ele>292.72241</ele>
        <time>2023-12-07T15:40:57.000Z</time>
      </trkpt>
      <trkpt lat="45.83382" lon="4.69052">
        <ele>292.99417</ele>
        <time>2023-12-07T15:40:58.000Z</time>
      </trkpt>
      <trkpt lat="45.8338" lon="4.69054">
        <ele>293.20798</ele>
        <time>2023-12-07T15:40:59.000Z</time>
      </trkpt>
      <trkpt lat="45.83379" lon="4.69057">
        <ele>293.41888</ele>
        <time>2023-12-07T15:41:00.000Z</time>
      </trkpt>
      <trkpt lat="45.83378" lon="4.6906">
        <ele>293.65912</ele>
        <time>2023-12-07T15:41:01.000Z</time>
      </trkpt>
      <trkpt lat="45.83377" lon="4.69063">
        <ele>293.7605</ele>
        <time>2023-12-07T15:41:02.000Z</time>
      </trkpt>
      <trkpt lat="45.83377" lon="4.69066">
        <ele>293.92212</ele>
        <time>2023-12-07T15:41:03.000Z</time>
      </trkpt>
      <trkpt lat="45.83376" lon="4.69068">
        <ele>294.13272</ele>
        <time>2023-12-07T15:41:04.000Z</time>
      </trkpt>
      <trkpt lat="45.83375" lon="4.69071">
        <ele>294.05261</ele>
        <time>2023-12-07T15:41:05.000Z</time>
      </trkpt>
      <trkpt lat="45.83375" lon="4.69075">
        <ele>293.96237</ele>
        <time>2023-12-07T15:41:06.000Z</time>
      </trkpt>
      <trkpt lat="45.83374" lon="4.69079">
        <ele>294.21915</ele>
        <time>2023-12-07T15:41:07.000Z</time>
      </trkpt>
      <trkpt lat="45.83374" lon="4.69083">
        <ele>294.41122</ele>
        <time>2023-12-07T15:41:08.000Z</time>
      </trkpt>
      <trkpt lat="45.83373" lon="4.69087">
        <ele>294.52371</ele>
        <time>2023-12-07T15:41:09.000Z</time>
      </trkpt>
      <trkpt lat="45.83372" lon="4.6909">
        <ele>294.92862</ele>
        <time>2023-12-07T15:41:10.000Z</time>
      </trkpt>
      <trkpt lat="45.83372" lon="4.69094">
        <ele>295.28986</ele>
        <time>2023-12-07T15:41:11.000Z</time>
      </trkpt>
      <trkpt lat="45.83371" lon="4.69097">
        <ele>295.7088</ele>
        <time>2023-12-07T15:41:12.000Z</time>
      </trkpt>
      <trkpt lat="45.8337" lon="4.69102">
        <ele>296.13455</ele>
        <time>2023-12-07T15:41:13.000Z</time>
      </trkpt>
      <trkpt lat="45.8337" lon="4.69106">
        <ele>296.54556</ele>
        <time>2023-12-07T15:41:14.000Z</time>
      </trkpt>
      <trkpt lat="45.8337" lon="4.6911">
        <ele>296.9039</ele>
        <time>2023-12-07T15:41:15.000Z</time>
      </trkpt>
      <trkpt lat="45.83369" lon="4.69115">
        <ele>297.24249</ele>
        <time>2023-12-07T15:41:16.000Z</time>
      </trkpt>
      <trkpt lat="45.83368" lon="4.6912">
        <ele>297.5853</ele>
        <time>2023-12-07T15:41:17.000Z</time>
      </trkpt>
      <trkpt lat="45.83368" lon="4.69124">
        <ele>297.85199</ele>
        <time>2023-12-07T15:41:18.000Z</time>
      </trkpt>
      <trkpt lat="45.83367" lon="4.69128">
        <ele>298.16882</ele>
        <time>2023-12-07T15:41:19.000Z</time>
      </trkpt>
      <trkpt lat="45.83367" lon="4.69132">
        <ele>298.69263</ele>
        <time>2023-12-07T15:41:20.000Z</time>
      </trkpt>
      <trkpt lat="45.83367" lon="4.69137">
        <ele>299.12708</ele>
        <time>2023-12-07T15:41:21.000Z</time>
      </trkpt>
      <trkpt lat="45.83366" lon="4.69141">
        <ele>299.49579</ele>
        <time>2023-12-07T15:41:22.000Z</time>
      </trkpt>
      <trkpt lat="45.83367" lon="4.69145">
        <ele>299.77698</ele>
        <time>2023-12-07T15:41:23.000Z</time>
      </trkpt>
      <trkpt lat="45.83367" lon="4.69149">
        <ele>300.03101</ele>
        <time>2023-12-07T15:41:24.000Z</time>
      </trkpt>
      <trkpt lat="45.83367" lon="4.69153">
        <ele>300.53949</ele>
        <time>2023-12-07T15:41:25.000Z</time>
      </trkpt>
      <trkpt lat="45.83367" lon="4.69157">
        <ele>301.06476</ele>
        <time>2023-12-07T15:41:26.000Z</time>
      </trkpt>
      <trkpt lat="45.83367" lon="4.69161">
        <ele>300.93585</ele>
        <time>2023-12-07T15:41:27.000Z</time>
      </trkpt>
      <trkpt lat="45.83367" lon="4.69164">
        <ele>300.83713</ele>
        <time>2023-12-07T15:41:28.000Z</time>
      </trkpt>
      <trkpt lat="45.83367" lon="4.69168">
        <ele>300.75555</ele>
        <time>2023-12-07T15:41:29.000Z</time>
      </trkpt>
      <trkpt lat="45.83367" lon="4.69172">
        <ele>300.74078</ele>
        <time>2023-12-07T15:41:30.000Z</time>
      </trkpt>
      <trkpt lat="45.83367" lon="4.69175">
        <ele>300.68103</ele>
        <time>2023-12-07T15:41:31.000Z</time>
      </trkpt>
      <trkpt lat="45.83366" lon="4.69179">
        <ele>300.54987</ele>
        <time>2023-12-07T15:41:32.000Z</time>
      </trkpt>
      <trkpt lat="45.83366" lon="4.69183">
        <ele>300.43762</ele>
        <time>2023-12-07T15:41:33.000Z</time>
      </trkpt>
      <trkpt lat="45.83366" lon="4.69187">
        <ele>300.36374</ele>
        <time>2023-12-07T15:41:34.000Z</time>
      </trkpt>
      <trkpt lat="45.83366" lon="4.69191">
        <ele>300.33551</ele>
        <time>2023-12-07T15:41:35.000Z</time>
      </trkpt>
      <trkpt lat="45.83365" lon="4.69197">
        <ele>300.45276</ele>
        <time>2023-12-07T15:41:36.000Z</time>
      </trkpt>
      <trkpt lat="45.83364" lon="4.69201">
        <ele>300.62436</ele>
        <time>2023-12-07T15:41:37.000Z</time>
      </trkpt>
      <trkpt lat="45.83364" lon="4.69207">
        <ele>300.99442</ele>
        <time>2023-12-07T15:41:38.000Z</time>
      </trkpt>
      <trkpt lat="45.83362" lon="4.6921">
        <ele>301.34879</ele>
        <time>2023-12-07T15:41:39.000Z</time>
      </trkpt>
      <trkpt lat="45.83361" lon="4.69214">
        <ele>301.49173</ele>
        <time>2023-12-07T15:41:40.000Z</time>
      </trkpt>
      <trkpt lat="45.8336" lon="4.6922">
        <ele>301.64816</ele>
        <time>2023-12-07T15:41:41.000Z</time>
      </trkpt>
      <trkpt lat="45.83359" lon="4.69226">
        <ele>301.96469</ele>
        <time>2023-12-07T15:41:42.000Z</time>
      </trkpt>
      <trkpt lat="45.83359" lon="4.69232">
        <ele>302.04456</ele>
        <time>2023-12-07T15:41:43.000Z</time>
      </trkpt>
      <trkpt lat="45.83359" lon="4.69237">
        <ele>302.12177</ele>
        <time>2023-12-07T15:41:44.000Z</time>
      </trkpt>
      <trkpt lat="45.83358" lon="4.69242">
        <ele>302.23102</ele>
        <time>2023-12-07T15:41:45.000Z</time>
      </trkpt>
      <trkpt lat="45.83356" lon="4.69248">
        <ele>302.314</ele>
        <time>2023-12-07T15:41:46.000Z</time>
      </trkpt>
      <trkpt lat="45.83354" lon="4.69254">
        <ele>302.77521</ele>
        <time>2023-12-07T15:41:47.000Z</time>
      </trkpt>
      <trkpt lat="45.83354" lon="4.6926">
        <ele>303.18066</ele>
        <time>2023-12-07T15:41:48.000Z</time>
      </trkpt>
      <trkpt lat="45.83353" lon="4.69265">
        <ele>303.5488</ele>
        <time>2023-12-07T15:41:49.000Z</time>
      </trkpt>
      <trkpt lat="45.83353" lon="4.6927">
        <ele>303.90814</ele>
        <time>2023-12-07T15:41:50.000Z</time>
      </trkpt>
      <trkpt lat="45.83352" lon="4.69276">
        <ele>304.19098</ele>
        <time>2023-12-07T15:41:51.000Z</time>
      </trkpt>
      <trkpt lat="45.83352" lon="4.69281">
        <ele>304.49246</ele>
        <time>2023-12-07T15:41:52.000Z</time>
      </trkpt>
      <trkpt lat="45.83351" lon="4.69286">
        <ele>304.7789</ele>
        <time>2023-12-07T15:41:53.000Z</time>
      </trkpt>
      <trkpt lat="45.83351" lon="4.69292">
        <ele>305.03326</ele>
        <time>2023-12-07T15:41:54.000Z</time>
      </trkpt>
      <trkpt lat="45.83351" lon="4.69297">
        <ele>305.26205</ele>
        <time>2023-12-07T15:41:55.000Z</time>
      </trkpt>
      <trkpt lat="45.83351" lon="4.69302">
        <ele>305.34772</ele>
        <time>2023-12-07T15:41:56.000Z</time>
      </trkpt>
      <trkpt lat="45.83353" lon="4.69308">
        <ele>305.34308</ele>
        <time>2023-12-07T15:41:57.000Z</time>
      </trkpt>
      <trkpt lat="45.83352" lon="4.69314">
        <ele>305.14337</ele>
        <time>2023-12-07T15:41:58.000Z</time>
      </trkpt>
      <trkpt lat="45.83352" lon="4.6932">
        <ele>304.93762</ele>
        <time>2023-12-07T15:41:59.000Z</time>
      </trkpt>
      <trkpt lat="45.83351" lon="4.69327">
        <ele>304.68344</ele>
        <time>2023-12-07T15:42:00.000Z</time>
      </trkpt>
      <trkpt lat="45.83352" lon="4.69333">
        <ele>304.48462</ele>
        <time>2023-12-07T15:42:01.000Z</time>
      </trkpt>
      <trkpt lat="45.83351" lon="4.6934">
        <ele>304.05859</ele>
        <time>2023-12-07T15:42:02.000Z</time>
      </trkpt>
      <trkpt lat="45.8335" lon="4.69347">
        <ele>303.86456</ele>
        <time>2023-12-07T15:42:03.000Z</time>
      </trkpt>
      <trkpt lat="45.8335" lon="4.69354">
        <ele>303.73813</ele>
        <time>2023-12-07T15:42:04.000Z</time>
      </trkpt>
      <trkpt lat="45.83349" lon="4.6936">
        <ele>303.60321</ele>
        <time>2023-12-07T15:42:05.000Z</time>
      </trkpt>
      <trkpt lat="45.83348" lon="4.69367">
        <ele>303.56915</ele>
        <time>2023-12-07T15:42:06.000Z</time>
      </trkpt>
      <trkpt lat="45.83347" lon="4.69374">
        <ele>303.47281</ele>
        <time>2023-12-07T15:42:07.000Z</time>
      </trkpt>
      <trkpt lat="45.83347" lon="4.6938">
        <ele>303.08392</ele>
        <time>2023-12-07T15:42:08.000Z</time>
      </trkpt>
      <trkpt lat="45.83346" lon="4.69387">
        <ele>302.77637</ele>
        <time>2023-12-07T15:42:09.000Z</time>
      </trkpt>
      <trkpt lat="45.83345" lon="4.69394">
        <ele>302.42252</ele>
        <time>2023-12-07T15:42:10.000Z</time>
      </trkpt>
      <trkpt lat="45.83344" lon="4.69401">
        <ele>302.19421</ele>
        <time>2023-12-07T15:42:11.000Z</time>
      </trkpt>
      <trkpt lat="45.83342" lon="4.69408">
        <ele>301.69501</ele>
        <time>2023-12-07T15:42:12.000Z</time>
      </trkpt>
      <trkpt lat="45.83341" lon="4.69414">
        <ele>301.17505</ele>
        <time>2023-12-07T15:42:13.000Z</time>
      </trkpt>
      <trkpt lat="45.8334" lon="4.69421">
        <ele>300.63657</ele>
        <time>2023-12-07T15:42:14.000Z</time>
      </trkpt>
      <trkpt lat="45.83339" lon="4.69428">
        <ele>300.15155</ele>
        <time>2023-12-07T15:42:15.000Z</time>
      </trkpt>
      <trkpt lat="45.83338" lon="4.69435">
        <ele>299.64209</ele>
        <time>2023-12-07T15:42:16.000Z</time>
      </trkpt>
      <trkpt lat="45.83338" lon="4.69443">
        <ele>299.14154</ele>
        <time>2023-12-07T15:42:17.000Z</time>
      </trkpt>
      <trkpt lat="45.83337" lon="4.6945">
        <ele>298.70065</ele>
        <time>2023-12-07T15:42:18.000Z</time>
      </trkpt>
      <trkpt lat="45.83336" lon="4.69457">
        <ele>298.24252</ele>
        <time>2023-12-07T15:42:19.000Z</time>
      </trkpt>
      <trkpt lat="45.83336" lon="4.69463">
        <ele>297.84073</ele>
        <time>2023-12-07T15:42:20.000Z</time>
      </trkpt>
      <trkpt lat="45.83335" lon="4.69471">
        <ele>297.40619</ele>
        <time>2023-12-07T15:42:21.000Z</time>
      </trkpt>
      <trkpt lat="45.83336" lon="4.69479">
        <ele>297.06442</ele>
        <time>2023-12-07T15:42:22.000Z</time>
      </trkpt>
      <trkpt lat="45.83336" lon="4.69486">
        <ele>296.76053</ele>
        <time>2023-12-07T15:42:23.000Z</time>
      </trkpt>
      <trkpt lat="45.83336" lon="4.69494">
        <ele>296.35562</ele>
        <time>2023-12-07T15:42:24.000Z</time>
      </trkpt>
      <trkpt lat="45.83337" lon="4.69501">
        <ele>296.01245</ele>
        <time>2023-12-07T15:42:25.000Z</time>
      </trkpt>
      <trkpt lat="45.83338" lon="4.69509">
        <ele>295.61563</ele>
        <time>2023-12-07T15:42:26.000Z</time>
      </trkpt>
      <trkpt lat="45.83338" lon="4.69517">
        <ele>295.20688</ele>
        <time>2023-12-07T15:42:27.000Z</time>
      </trkpt>
      <trkpt lat="45.83339" lon="4.69524">
        <ele>294.97797</ele>
        <time>2023-12-07T15:42:28.000Z</time>
      </trkpt>
      <trkpt lat="45.83339" lon="4.69531">
        <ele>294.68649</ele>
        <time>2023-12-07T15:42:29.000Z</time>
      </trkpt>
      <trkpt lat="45.83339" lon="4.69538">
        <ele>294.43243</ele>
        <time>2023-12-07T15:42:30.000Z</time>
      </trkpt>
      <trkpt lat="45.8334" lon="4.69546">
        <ele>294.16434</ele>
        <time>2023-12-07T15:42:31.000Z</time>
      </trkpt>
      <trkpt lat="45.83341" lon="4.69553">
        <ele>294.16406</ele>
        <time>2023-12-07T15:42:32.000Z</time>
      </trkpt>
      <trkpt lat="45.83342" lon="4.6956">
        <ele>294.19687</ele>
        <time>2023-12-07T15:42:33.000Z</time>
      </trkpt>
      <trkpt lat="45.83343" lon="4.69566">
        <ele>294.23645</ele>
        <time>2023-12-07T15:42:34.000Z</time>
      </trkpt>
      <trkpt lat="45.83343" lon="4.69575">
        <ele>294.24124</ele>
        <time>2023-12-07T15:42:35.000Z</time>
      </trkpt>
      <trkpt lat="45.83345" lon="4.69583">
        <ele>294.24783</ele>
        <time>2023-12-07T15:42:36.000Z</time>
      </trkpt>
      <trkpt lat="45.83347" lon="4.6959">
        <ele>294.24652</ele>
        <time>2023-12-07T15:42:37.000Z</time>
      </trkpt>
      <trkpt lat="45.83348" lon="4.69598">
        <ele>294.21161</ele>
        <time>2023-12-07T15:42:38.000Z</time>
      </trkpt>
      <trkpt lat="45.83349" lon="4.69606">
        <ele>294.23544</ele>
        <time>2023-12-07T15:42:39.000Z</time>
      </trkpt>
      <trkpt lat="45.8335" lon="4.69614">
        <ele>294.24371</ele>
        <time>2023-12-07T15:42:40.000Z</time>
      </trkpt>
      <trkpt lat="45.83351" lon="4.69621">
        <ele>294.26019</ele>
        <time>2023-12-07T15:42:41.000Z</time>
      </trkpt>
      <trkpt lat="45.83353" lon="4.69629">
        <ele>294.24765</ele>
        <time>2023-12-07T15:42:42.000Z</time>
      </trkpt>
      <trkpt lat="45.83354" lon="4.69637">
        <ele>294.23346</ele>
        <time>2023-12-07T15:42:43.000Z</time>
      </trkpt>
      <trkpt lat="45.83356" lon="4.69645">
        <ele>294.23199</ele>
        <time>2023-12-07T15:42:44.000Z</time>
      </trkpt>
      <trkpt lat="45.83357" lon="4.69653">
        <ele>294.17441</ele>
        <time>2023-12-07T15:42:45.000Z</time>
      </trkpt>
      <trkpt lat="45.83358" lon="4.6966">
        <ele>294.12262</ele>
        <time>2023-12-07T15:42:46.000Z</time>
      </trkpt>
      <trkpt lat="45.8336" lon="4.69668">
        <ele>294.09296</ele>
        <time>2023-12-07T15:42:47.000Z</time>
      </trkpt>
      <trkpt lat="45.83361" lon="4.69675">
        <ele>294.02203</ele>
        <time>2023-12-07T15:42:48.000Z</time>
      </trkpt>
      <trkpt lat="45.83362" lon="4.69682">
        <ele>293.9567</ele>
        <time>2023-12-07T15:42:49.000Z</time>
      </trkpt>
      <trkpt lat="45.83364" lon="4.6969">
        <ele>293.88879</ele>
        <time>2023-12-07T15:42:50.000Z</time>
      </trkpt>
      <trkpt lat="45.83365" lon="4.69698">
        <ele>293.8414</ele>
        <time>2023-12-07T15:42:51.000Z</time>
      </trkpt>
      <trkpt lat="45.83367" lon="4.69706">
        <ele>293.82199</ele>
        <time>2023-12-07T15:42:52.000Z</time>
      </trkpt>
      <trkpt lat="45.83369" lon="4.69713">
        <ele>293.76181</ele>
        <time>2023-12-07T15:42:53.000Z</time>
      </trkpt>
      <trkpt lat="45.8337" lon="4.69719">
        <ele>293.71011</ele>
        <time>2023-12-07T15:42:54.000Z</time>
      </trkpt>
      <trkpt lat="45.83372" lon="4.69727">
        <ele>293.68167</ele>
        <time>2023-12-07T15:42:55.000Z</time>
      </trkpt>
      <trkpt lat="45.83374" lon="4.69734">
        <ele>293.64426</ele>
        <time>2023-12-07T15:42:56.000Z</time>
      </trkpt>
      <trkpt lat="45.83375" lon="4.69742">
        <ele>293.58673</ele>
        <time>2023-12-07T15:42:57.000Z</time>
      </trkpt>
      <trkpt lat="45.83377" lon="4.6975">
        <ele>293.58087</ele>
        <time>2023-12-07T15:42:58.000Z</time>
      </trkpt>
      <trkpt lat="45.83377" lon="4.69756">
        <ele>293.50775</ele>
        <time>2023-12-07T15:42:59.000Z</time>
      </trkpt>
      <trkpt lat="45.8338" lon="4.69763">
        <ele>293.43158</ele>
        <time>2023-12-07T15:43:00.000Z</time>
      </trkpt>
      <trkpt lat="45.83382" lon="4.69771">
        <ele>293.33868</ele>
        <time>2023-12-07T15:43:01.000Z</time>
      </trkpt>
      <trkpt lat="45.83382" lon="4.69777">
        <ele>293.26404</ele>
        <time>2023-12-07T15:43:02.000Z</time>
      </trkpt>
      <trkpt lat="45.83384" lon="4.69784">
        <ele>293.14493</ele>
        <time>2023-12-07T15:43:03.000Z</time>
      </trkpt>
      <trkpt lat="45.83385" lon="4.69791">
        <ele>293.04083</ele>
        <time>2023-12-07T15:43:04.000Z</time>
      </trkpt>
      <trkpt lat="45.83386" lon="4.69797">
        <ele>293.01285</ele>
        <time>2023-12-07T15:43:05.000Z</time>
      </trkpt>
      <trkpt lat="45.83387" lon="4.69802">
        <ele>292.96484</ele>
        <time>2023-12-07T15:43:06.000Z</time>
      </trkpt>
      <trkpt lat="45.83388" lon="4.69808">
        <ele>292.91446</ele>
        <time>2023-12-07T15:43:07.000Z</time>
      </trkpt>
      <trkpt lat="45.83389" lon="4.69812">
        <ele>293.04272</ele>
        <time>2023-12-07T15:43:08.000Z</time>
      </trkpt>
      <trkpt lat="45.83391" lon="4.69816">
        <ele>293.16705</ele>
        <time>2023-12-07T15:43:09.000Z</time>
      </trkpt>
      <trkpt lat="45.8339" lon="4.69819">
        <ele>293.12143</ele>
        <time>2023-12-07T15:43:10.000Z</time>
      </trkpt>
      <trkpt lat="45.83391" lon="4.69823">
        <ele>293.07996</ele>
        <time>2023-12-07T15:43:11.000Z</time>
      </trkpt>
      <trkpt lat="45.83392" lon="4.69828">
        <ele>293.04291</ele>
        <time>2023-12-07T15:43:12.000Z</time>
      </trkpt>
      <trkpt lat="45.83393" lon="4.69831">
        <ele>293.00076</ele>
        <time>2023-12-07T15:43:13.000Z</time>
      </trkpt>
      <trkpt lat="45.83394" lon="4.69835">
        <ele>292.98508</ele>
        <time>2023-12-07T15:43:14.000Z</time>
      </trkpt>
      <trkpt lat="45.83396" lon="4.69839">
        <ele>292.97357</ele>
        <time>2023-12-07T15:43:15.000Z</time>
      </trkpt>
      <trkpt lat="45.83397" lon="4.69843">
        <ele>292.95789</ele>
        <time>2023-12-07T15:43:16.000Z</time>
      </trkpt>
      <trkpt lat="45.83398" lon="4.69847">
        <ele>292.97202</ele>
        <time>2023-12-07T15:43:17.000Z</time>
      </trkpt>
      <trkpt lat="45.83398" lon="4.69851">
        <ele>292.96198</ele>
        <time>2023-12-07T15:43:18.000Z</time>
      </trkpt>
      <trkpt lat="45.83397" lon="4.69855">
        <ele>292.96954</ele>
        <time>2023-12-07T15:43:19.000Z</time>
      </trkpt>
      <trkpt lat="45.83395" lon="4.6986">
        <ele>292.98654</ele>
        <time>2023-12-07T15:43:20.000Z</time>
      </trkpt>
      <trkpt lat="45.8339" lon="4.69865">
        <ele>293.00845</ele>
        <time>2023-12-07T15:43:21.000Z</time>
      </trkpt>
      <trkpt lat="45.83389" lon="4.69872">
        <ele>293.04889</ele>
        <time>2023-12-07T15:43:22.000Z</time>
      </trkpt>
      <trkpt lat="45.83389" lon="4.69879">
        <ele>293.10443</ele>
        <time>2023-12-07T15:43:23.000Z</time>
      </trkpt>
      <trkpt lat="45.83389" lon="4.69886">
        <ele>293.1441</ele>
        <time>2023-12-07T15:43:24.000Z</time>
      </trkpt>
      <trkpt lat="45.83391" lon="4.69894">
        <ele>293.10324</ele>
        <time>2023-12-07T15:43:25.000Z</time>
      </trkpt>
      <trkpt lat="45.83394" lon="4.69901">
        <ele>293.04327</ele>
        <time>2023-12-07T15:43:26.000Z</time>
      </trkpt>
      <trkpt lat="45.83397" lon="4.69907">
        <ele>292.96686</ele>
        <time>2023-12-07T15:43:27.000Z</time>
      </trkpt>
      <trkpt lat="45.83401" lon="4.69914">
        <ele>292.87564</ele>
        <time>2023-12-07T15:43:28.000Z</time>
      </trkpt>
      <trkpt lat="45.83404" lon="4.69921">
        <ele>292.78275</ele>
        <time>2023-12-07T15:43:29.000Z</time>
      </trkpt>
      <trkpt lat="45.83406" lon="4.69928">
        <ele>292.82684</ele>
        <time>2023-12-07T15:43:30.000Z</time>
      </trkpt>
      <trkpt lat="45.83406" lon="4.69936">
        <ele>292.87421</ele>
        <time>2023-12-07T15:43:31.000Z</time>
      </trkpt>
      <trkpt lat="45.83405" lon="4.69944">
        <ele>292.9136</ele>
        <time>2023-12-07T15:43:32.000Z</time>
      </trkpt>
      <trkpt lat="45.83404" lon="4.69952">
        <ele>292.96344</ele>
        <time>2023-12-07T15:43:33.000Z</time>
      </trkpt>
      <trkpt lat="45.83402" lon="4.6996">
        <ele>292.99747</ele>
        <time>2023-12-07T15:43:34.000Z</time>
      </trkpt>
      <trkpt lat="45.83402" lon="4.69967">
        <ele>293.03104</ele>
        <time>2023-12-07T15:43:35.000Z</time>
      </trkpt>
      <trkpt lat="45.834" lon="4.69975">
        <ele>293.07602</ele>
        <time>2023-12-07T15:43:36.000Z</time>
      </trkpt>
      <trkpt lat="45.83399" lon="4.69982">
        <ele>293.15112</ele>
        <time>2023-12-07T15:43:37.000Z</time>
      </trkpt>
      <trkpt lat="45.83398" lon="4.69989">
        <ele>293.3013</ele>
        <time>2023-12-07T15:43:38.000Z</time>
      </trkpt>
      <trkpt lat="45.83398" lon="4.69998">
        <ele>293.4664</ele>
        <time>2023-12-07T15:43:39.000Z</time>
      </trkpt>
      <trkpt lat="45.83398" lon="4.70005">
        <ele>293.63806</ele>
        <time>2023-12-07T15:43:40.000Z</time>
      </trkpt>
      <trkpt lat="45.83397" lon="4.70011">
        <ele>293.82632</ele>
        <time>2023-12-07T15:43:41.000Z</time>
      </trkpt>
      <trkpt lat="45.83397" lon="4.70018">
        <ele>294.03357</ele>
        <time>2023-12-07T15:43:42.000Z</time>
      </trkpt>
      <trkpt lat="45.83397" lon="4.70025">
        <ele>294.17102</ele>
        <time>2023-12-07T15:43:43.000Z</time>
      </trkpt>
      <trkpt lat="45.83397" lon="4.70032">
        <ele>294.33154</ele>
        <time>2023-12-07T15:43:44.000Z</time>
      </trkpt>
      <trkpt lat="45.83396" lon="4.70039">
        <ele>294.49042</ele>
        <time>2023-12-07T15:43:45.000Z</time>
      </trkpt>
      <trkpt lat="45.83396" lon="4.70045">
        <ele>294.6503</ele>
        <time>2023-12-07T15:43:46.000Z</time>
      </trkpt>
      <trkpt lat="45.83396" lon="4.70053">
        <ele>294.83203</ele>
        <time>2023-12-07T15:43:47.000Z</time>
      </trkpt>
      <trkpt lat="45.83395" lon="4.7006">
        <ele>295.01593</ele>
        <time>2023-12-07T15:43:48.000Z</time>
      </trkpt>
      <trkpt lat="45.83395" lon="4.70067">
        <ele>295.19293</ele>
        <time>2023-12-07T15:43:49.000Z</time>
      </trkpt>
      <trkpt lat="45.83395" lon="4.70075">
        <ele>295.40506</ele>
        <time>2023-12-07T15:43:50.000Z</time>
      </trkpt>
      <trkpt lat="45.83394" lon="4.70082">
        <ele>295.58105</ele>
        <time>2023-12-07T15:43:51.000Z</time>
      </trkpt>
      <trkpt lat="45.83393" lon="4.7009">
        <ele>295.75009</ele>
        <time>2023-12-07T15:43:52.000Z</time>
      </trkpt>
      <trkpt lat="45.83392" lon="4.70097">
        <ele>295.96927</ele>
        <time>2023-12-07T15:43:53.000Z</time>
      </trkpt>
      <trkpt lat="45.8339" lon="4.70106">
        <ele>296.19205</ele>
        <time>2023-12-07T15:43:54.000Z</time>
      </trkpt>
      <trkpt lat="45.83389" lon="4.70113">
        <ele>296.41931</ele>
        <time>2023-12-07T15:43:55.000Z</time>
      </trkpt>
      <trkpt lat="45.83387" lon="4.70121">
        <ele>296.66724</ele>
        <time>2023-12-07T15:43:56.000Z</time>
      </trkpt>
      <trkpt lat="45.83385" lon="4.7013">
        <ele>296.88745</ele>
        <time>2023-12-07T15:43:57.000Z</time>
      </trkpt>
      <trkpt lat="45.83383" lon="4.70137">
        <ele>297.05539</ele>
        <time>2023-12-07T15:43:58.000Z</time>
      </trkpt>
      <trkpt lat="45.83381" lon="4.70145">
        <ele>297.21735</ele>
        <time>2023-12-07T15:43:59.000Z</time>
      </trkpt>
      <trkpt lat="45.83379" lon="4.70153">
        <ele>297.29523</ele>
        <time>2023-12-07T15:44:00.000Z</time>
      </trkpt>
      <trkpt lat="45.83377" lon="4.70161">
        <ele>297.36591</ele>
        <time>2023-12-07T15:44:01.000Z</time>
      </trkpt>
      <trkpt lat="45.83375" lon="4.70169">
        <ele>297.40625</ele>
        <time>2023-12-07T15:44:02.000Z</time>
      </trkpt>
      <trkpt lat="45.83373" lon="4.70177">
        <ele>297.57062</ele>
        <time>2023-12-07T15:44:03.000Z</time>
      </trkpt>
      <trkpt lat="45.8337" lon="4.70186">
        <ele>297.72467</ele>
        <time>2023-12-07T15:44:04.000Z</time>
      </trkpt>
      <trkpt lat="45.83367" lon="4.70194">
        <ele>297.90469</ele>
        <time>2023-12-07T15:44:05.000Z</time>
      </trkpt>
      <trkpt lat="45.83365" lon="4.70202">
        <ele>298.08456</ele>
        <time>2023-12-07T15:44:06.000Z</time>
      </trkpt>
      <trkpt lat="45.83362" lon="4.7021">
        <ele>298.22617</ele>
        <time>2023-12-07T15:44:07.000Z</time>
      </trkpt>
      <trkpt lat="45.83359" lon="4.70218">
        <ele>298.3703</ele>
        <time>2023-12-07T15:44:08.000Z</time>
      </trkpt>
      <trkpt lat="45.83357" lon="4.70227">
        <ele>298.52771</ele>
        <time>2023-12-07T15:44:09.000Z</time>
      </trkpt>
      <trkpt lat="45.83354" lon="4.70234">
        <ele>298.6525</ele>
        <time>2023-12-07T15:44:10.000Z</time>
      </trkpt>
      <trkpt lat="45.83351" lon="4.70243">
        <ele>298.80414</ele>
        <time>2023-12-07T15:44:11.000Z</time>
      </trkpt>
      <trkpt lat="45.83349" lon="4.7025">
        <ele>298.9606</ele>
        <time>2023-12-07T15:44:12.000Z</time>
      </trkpt>
      <trkpt lat="45.83346" lon="4.70258">
        <ele>299.07263</ele>
        <time>2023-12-07T15:44:13.000Z</time>
      </trkpt>
      <trkpt lat="45.83342" lon="4.70266">
        <ele>299.1636</ele>
        <time>2023-12-07T15:44:14.000Z</time>
      </trkpt>
      <trkpt lat="45.83339" lon="4.70273">
        <ele>299.22742</ele>
        <time>2023-12-07T15:44:15.000Z</time>
      </trkpt>
      <trkpt lat="45.83336" lon="4.70281">
        <ele>299.27521</ele>
        <time>2023-12-07T15:44:16.000Z</time>
      </trkpt>
      <trkpt lat="45.83333" lon="4.70288">
        <ele>299.3078</ele>
        <time>2023-12-07T15:44:17.000Z</time>
      </trkpt>
      <trkpt lat="45.8333" lon="4.70296">
        <ele>299.32016</ele>
        <time>2023-12-07T15:44:18.000Z</time>
      </trkpt>
      <trkpt lat="45.83328" lon="4.70304">
        <ele>299.32281</ele>
        <time>2023-12-07T15:44:19.000Z</time>
      </trkpt>
      <trkpt lat="45.83326" lon="4.70312">
        <ele>299.42273</ele>
        <time>2023-12-07T15:44:20.000Z</time>
      </trkpt>
      <trkpt lat="45.83324" lon="4.7032">
        <ele>299.5253</ele>
        <time>2023-12-07T15:44:21.000Z</time>
      </trkpt>
      <trkpt lat="45.83323" lon="4.70329">
        <ele>299.63672</ele>
        <time>2023-12-07T15:44:22.000Z</time>
      </trkpt>
      <trkpt lat="45.83323" lon="4.70337">
        <ele>299.70959</ele>
        <time>2023-12-07T15:44:23.000Z</time>
      </trkpt>
      <trkpt lat="45.83325" lon="4.70345">
        <ele>299.73056</ele>
        <time>2023-12-07T15:44:24.000Z</time>
      </trkpt>
      <trkpt lat="45.83326" lon="4.70353">
        <ele>299.74371</ele>
        <time>2023-12-07T15:44:25.000Z</time>
      </trkpt>
      <trkpt lat="45.83328" lon="4.70362">
        <ele>299.7789</ele>
        <time>2023-12-07T15:44:26.000Z</time>
      </trkpt>
      <trkpt lat="45.8333" lon="4.70369">
        <ele>299.84</ele>
        <time>2023-12-07T15:44:27.000Z</time>
      </trkpt>
      <trkpt lat="45.83331" lon="4.70378">
        <ele>299.86847</ele>
        <time>2023-12-07T15:44:28.000Z</time>
      </trkpt>
      <trkpt lat="45.83333" lon="4.70385">
        <ele>299.88043</ele>
        <time>2023-12-07T15:44:29.000Z</time>
      </trkpt>
      <trkpt lat="45.83335" lon="4.70393">
        <ele>299.94867</ele>
        <time>2023-12-07T15:44:30.000Z</time>
      </trkpt>
      <trkpt lat="45.83334" lon="4.70402">
        <ele>299.995</ele>
        <time>2023-12-07T15:44:31.000Z</time>
      </trkpt>
      <trkpt lat="45.83335" lon="4.7041">
        <ele>300.02142</ele>
        <time>2023-12-07T15:44:32.000Z</time>
      </trkpt>
      <trkpt lat="45.83337" lon="4.70419">
        <ele>300.02911</ele>
        <time>2023-12-07T15:44:33.000Z</time>
      </trkpt>
      <trkpt lat="45.83338" lon="4.70427">
        <ele>300.04889</ele>
        <time>2023-12-07T15:44:34.000Z</time>
      </trkpt>
      <trkpt lat="45.8334" lon="4.70436">
        <ele>300.09308</ele>
        <time>2023-12-07T15:44:35.000Z</time>
      </trkpt>
      <trkpt lat="45.83341" lon="4.70444">
        <ele>300.12628</ele>
        <time>2023-12-07T15:44:36.000Z</time>
      </trkpt>
      <trkpt lat="45.83341" lon="4.70452">
        <ele>300.16644</ele>
        <time>2023-12-07T15:44:37.000Z</time>
      </trkpt>
      <trkpt lat="45.83342" lon="4.7046">
        <ele>300.26007</ele>
        <time>2023-12-07T15:44:38.000Z</time>
      </trkpt>
      <trkpt lat="45.83342" lon="4.70468">
        <ele>300.37616</ele>
        <time>2023-12-07T15:44:39.000Z</time>
      </trkpt>
      <trkpt lat="45.83342" lon="4.70476">
        <ele>300.50287</ele>
        <time>2023-12-07T15:44:40.000Z</time>
      </trkpt>
      <trkpt lat="45.83343" lon="4.70487">
        <ele>300.59454</ele>
        <time>2023-12-07T15:44:41.000Z</time>
      </trkpt>
      <trkpt lat="45.83343" lon="4.70496">
        <ele>300.66754</ele>
        <time>2023-12-07T15:44:42.000Z</time>
      </trkpt>
      <trkpt lat="45.83345" lon="4.70505">
        <ele>300.75934</ele>
        <time>2023-12-07T15:44:43.000Z</time>
      </trkpt>
      <trkpt lat="45.83346" lon="4.70513">
        <ele>301.02362</ele>
        <time>2023-12-07T15:44:44.000Z</time>
      </trkpt>
      <trkpt lat="45.83347" lon="4.70521">
        <ele>301.30704</ele>
        <time>2023-12-07T15:44:45.000Z</time>
      </trkpt>
      <trkpt lat="45.83347" lon="4.7053">
        <ele>301.59219</ele>
        <time>2023-12-07T15:44:46.000Z</time>
      </trkpt>
      <trkpt lat="45.83348" lon="4.70539">
        <ele>301.84369</ele>
        <time>2023-12-07T15:44:47.000Z</time>
      </trkpt>
      <trkpt lat="45.8335" lon="4.70547">
        <ele>302.11084</ele>
        <time>2023-12-07T15:44:48.000Z</time>
      </trkpt>
      <trkpt lat="45.83351" lon="4.70555">
        <ele>302.39972</ele>
        <time>2023-12-07T15:44:49.000Z</time>
      </trkpt>
      <trkpt lat="45.83351" lon="4.70563">
        <ele>302.67126</ele>
        <time>2023-12-07T15:44:50.000Z</time>
      </trkpt>
      <trkpt lat="45.83351" lon="4.70572">
        <ele>302.93744</ele>
        <time>2023-12-07T15:44:51.000Z</time>
      </trkpt>
      <trkpt lat="45.83351" lon="4.70581">
        <ele>303.1972</ele>
        <time>2023-12-07T15:44:52.000Z</time>
      </trkpt>
      <trkpt lat="45.83352" lon="4.7059">
        <ele>303.4989</ele>
        <time>2023-12-07T15:44:53.000Z</time>
      </trkpt>
      <trkpt lat="45.83352" lon="4.70598">
        <ele>303.81107</ele>
        <time>2023-12-07T15:44:54.000Z</time>
      </trkpt>
      <trkpt lat="45.83353" lon="4.70606">
        <ele>304.06598</ele>
        <time>2023-12-07T15:44:55.000Z</time>
      </trkpt>
      <trkpt lat="45.83353" lon="4.70615">
        <ele>304.32407</ele>
        <time>2023-12-07T15:44:56.000Z</time>
      </trkpt>
      <trkpt lat="45.83354" lon="4.70624">
        <ele>304.55869</ele>
        <time>2023-12-07T15:44:57.000Z</time>
      </trkpt>
      <trkpt lat="45.83354" lon="4.70632">
        <ele>304.74255</ele>
        <time>2023-12-07T15:44:58.000Z</time>
      </trkpt>
      <trkpt lat="45.83354" lon="4.7064">
        <ele>304.88605</ele>
        <time>2023-12-07T15:44:59.000Z</time>
      </trkpt>
      <trkpt lat="45.83354" lon="4.70648">
        <ele>305.03561</ele>
        <time>2023-12-07T15:45:00.000Z</time>
      </trkpt>
      <trkpt lat="45.83352" lon="4.70657">
        <ele>305.22232</ele>
        <time>2023-12-07T15:45:01.000Z</time>
      </trkpt>
      <trkpt lat="45.83352" lon="4.70665">
        <ele>305.41925</ele>
        <time>2023-12-07T15:45:02.000Z</time>
      </trkpt>
      <trkpt lat="45.83351" lon="4.70673">
        <ele>305.58136</ele>
        <time>2023-12-07T15:45:03.000Z</time>
      </trkpt>
      <trkpt lat="45.8335" lon="4.70681">
        <ele>305.63763</ele>
        <time>2023-12-07T15:45:04.000Z</time>
      </trkpt>
      <trkpt lat="45.83349" lon="4.70689">
        <ele>305.70117</ele>
        <time>2023-12-07T15:45:05.000Z</time>
      </trkpt>
      <trkpt lat="45.83349" lon="4.70698">
        <ele>305.77765</ele>
        <time>2023-12-07T15:45:06.000Z</time>
      </trkpt>
      <trkpt lat="45.83348" lon="4.70705">
        <ele>305.85129</ele>
        <time>2023-12-07T15:45:07.000Z</time>
      </trkpt>
      <trkpt lat="45.83347" lon="4.70712">
        <ele>305.92557</ele>
        <time>2023-12-07T15:45:08.000Z</time>
      </trkpt>
      <trkpt lat="45.83347" lon="4.70721">
        <ele>305.9794</ele>
        <time>2023-12-07T15:45:09.000Z</time>
      </trkpt>
      <trkpt lat="45.83346" lon="4.70729">
        <ele>306.03049</ele>
        <time>2023-12-07T15:45:10.000Z</time>
      </trkpt>
      <trkpt lat="45.83346" lon="4.70737">
        <ele>306.0661</ele>
        <time>2023-12-07T15:45:11.000Z</time>
      </trkpt>
      <trkpt lat="45.83345" lon="4.70746">
        <ele>306.10565</ele>
        <time>2023-12-07T15:45:12.000Z</time>
      </trkpt>
      <trkpt lat="45.83345" lon="4.70754">
        <ele>306.12866</ele>
        <time>2023-12-07T15:45:13.000Z</time>
      </trkpt>
      <trkpt lat="45.83344" lon="4.70762">
        <ele>306.13834</ele>
        <time>2023-12-07T15:45:14.000Z</time>
      </trkpt>
      <trkpt lat="45.83344" lon="4.7077">
        <ele>306.09387</ele>
        <time>2023-12-07T15:45:15.000Z</time>
      </trkpt>
      <trkpt lat="45.83344" lon="4.70778">
        <ele>306.06146</ele>
        <time>2023-12-07T15:45:16.000Z</time>
      </trkpt>
      <trkpt lat="45.83344" lon="4.70786">
        <ele>306.02158</ele>
        <time>2023-12-07T15:45:17.000Z</time>
      </trkpt>
      <trkpt lat="45.83344" lon="4.70794">
        <ele>305.96701</ele>
        <time>2023-12-07T15:45:18.000Z</time>
      </trkpt>
      <trkpt lat="45.83344" lon="4.70802">
        <ele>305.93787</ele>
        <time>2023-12-07T15:45:19.000Z</time>
      </trkpt>
      <trkpt lat="45.83343" lon="4.7081">
        <ele>305.86404</ele>
        <time>2023-12-07T15:45:20.000Z</time>
      </trkpt>
      <trkpt lat="45.83341" lon="4.70818">
        <ele>305.76862</ele>
        <time>2023-12-07T15:45:21.000Z</time>
      </trkpt>
      <trkpt lat="45.83338" lon="4.70825">
        <ele>305.67715</ele>
        <time>2023-12-07T15:45:22.000Z</time>
      </trkpt>
      <trkpt lat="45.83338" lon="4.70833">
        <ele>305.59207</ele>
        <time>2023-12-07T15:45:23.000Z</time>
      </trkpt>
      <trkpt lat="45.83338" lon="4.7084">
        <ele>305.49261</ele>
        <time>2023-12-07T15:45:24.000Z</time>
      </trkpt>
      <trkpt lat="45.83338" lon="4.70847">
        <ele>305.36557</ele>
        <time>2023-12-07T15:45:25.000Z</time>
      </trkpt>
      <trkpt lat="45.83337" lon="4.70852">
        <ele>305.2128</ele>
        <time>2023-12-07T15:45:26.000Z</time>
      </trkpt>
      <trkpt lat="45.83337" lon="4.70858">
        <ele>305.07877</ele>
        <time>2023-12-07T15:45:27.000Z</time>
      </trkpt>
      <trkpt lat="45.83337" lon="4.70862">
        <ele>304.94513</ele>
        <time>2023-12-07T15:45:28.000Z</time>
      </trkpt>
      <trkpt lat="45.83337" lon="4.70865">
        <ele>304.80017</ele>
        <time>2023-12-07T15:45:29.000Z</time>
      </trkpt>
      <trkpt lat="45.83336" lon="4.70868">
        <ele>304.64001</ele>
        <time>2023-12-07T15:45:30.000Z</time>
      </trkpt>
    </trkseg>
  </trk>
</gpx>